<?xml version='1.0' encoding='UTF-8'?><gpx version="1.1" creator="JPX - https://github.com/jenetics/jpx" xmlns="http://www.topografix.com/GPX/1/1"><trk><trkseg><trkpt lat="44.9501515" lon="8.0268191"><ele>244.0</ele><time>2026-04-12T10:32:20.679Z</time></trkpt><trkpt lat="44.9502022" lon="8.0267598"><ele>243.99999999999997</ele><time>2026-04-12T10:32:23.679Z</time></trkpt><trkpt lat="44.9502843" lon="8.0265753"><ele>243.99999999999997</ele><time>2026-04-12T10:32:58.679Z</time></trkpt><trkpt lat="44.9503248" lon="8.0264598"><ele>244.0</ele><time>2026-04-12T10:32:59.679Z</time></trkpt><trkpt lat="44.9503614" lon="8.0263588"><ele>244.0</ele><time>2026-04-12T10:33:00.678Z</time></trkpt><trkpt lat="44.9503866" lon="8.0262716"><ele>242.71428571428567</ele><time>2026-04-12T10:33:01.679Z</time></trkpt><trkpt lat="44.9504157" lon="8.0261925"><ele>241.42857142857142</ele><time>2026-04-12T10:33:02.679Z</time></trkpt><trkpt lat="44.9504417" lon="8.0261077"><ele>240.1428571428571</ele><time>2026-04-12T10:33:03.679Z</time></trkpt><trkpt lat="44.9504496" lon="8.0260047"><ele>238.85714285714283</ele><time>2026-04-12T10:33:04.679Z</time></trkpt><trkpt lat="44.9504571" lon="8.0258903"><ele>237.57142857142856</ele><time>2026-04-12T10:33:05.679Z</time></trkpt><trkpt lat="44.9504578" lon="8.0257775"><ele>236.28571428571428</ele><time>2026-04-12T10:33:06.679Z</time></trkpt><trkpt lat="44.9504491" lon="8.0256615"><ele>235.0</ele><time>2026-04-12T10:33:07.679Z</time></trkpt><trkpt lat="44.9504555" lon="8.0255276"><ele>234.0</ele><time>2026-04-12T10:33:08.679Z</time></trkpt><trkpt lat="44.9504466" lon="8.0253931"><ele>233.0</ele><time>2026-04-12T10:33:09.679Z</time></trkpt><trkpt lat="44.9504411" lon="8.0252496"><ele>232.0</ele><time>2026-04-12T10:33:10.679Z</time></trkpt><trkpt lat="44.950438" lon="8.0251146"><ele>231.0</ele><time>2026-04-12T10:33:11.679Z</time></trkpt><trkpt lat="44.9504363" lon="8.0249967"><ele>230.0</ele><time>2026-04-12T10:33:12.679Z</time></trkpt><trkpt lat="44.950421" lon="8.0248761"><ele>229.16666666666669</ele><time>2026-04-12T10:33:13.679Z</time></trkpt><trkpt lat="44.9504081" lon="8.0247605"><ele>228.33333333333334</ele><time>2026-04-12T10:33:14.679Z</time></trkpt><trkpt lat="44.950398" lon="8.024634"><ele>227.5</ele><time>2026-04-12T10:33:15.679Z</time></trkpt><trkpt lat="44.9503763" lon="8.0245011"><ele>226.66666666666669</ele><time>2026-04-12T10:33:16.679Z</time></trkpt><trkpt lat="44.9503621" lon="8.0243756"><ele>225.83333333333334</ele><time>2026-04-12T10:33:17.679Z</time></trkpt><trkpt lat="44.9503546" lon="8.0242584"><ele>225.0</ele><time>2026-04-12T10:33:18.679Z</time></trkpt><trkpt lat="44.9503579" lon="8.0241437"><ele>225.0</ele><time>2026-04-12T10:33:19.678Z</time></trkpt><trkpt lat="44.9503401" lon="8.0239905"><ele>225.0</ele><time>2026-04-12T10:33:21.679Z</time></trkpt><trkpt lat="44.9502676" lon="8.0239353"><ele>225.0</ele><time>2026-04-12T10:33:23.679Z</time></trkpt><trkpt lat="44.950193" lon="8.0240283"><ele>225.0</ele><time>2026-04-12T10:33:25.679Z</time></trkpt><trkpt lat="44.9501586" lon="8.0241122"><ele>225.0</ele><time>2026-04-12T10:33:26.679Z</time></trkpt><trkpt lat="44.9501156" lon="8.0242093"><ele>225.0</ele><time>2026-04-12T10:33:27.679Z</time></trkpt><trkpt lat="44.9500661" lon="8.0243038"><ele>222.16666666666666</ele><time>2026-04-12T10:33:28.679Z</time></trkpt><trkpt lat="44.9500016" lon="8.0243735"><ele>219.33333333333331</ele><time>2026-04-12T10:33:29.679Z</time></trkpt><trkpt lat="44.9499232" lon="8.0243995"><ele>216.5</ele><time>2026-04-12T10:33:30.679Z</time></trkpt><trkpt lat="44.9498357" lon="8.0243864"><ele>213.66666666666666</ele><time>2026-04-12T10:33:31.679Z</time></trkpt><trkpt lat="44.9497776" lon="8.0243201"><ele>210.83333333333331</ele><time>2026-04-12T10:33:32.679Z</time></trkpt><trkpt lat="44.9497403" lon="8.0242223"><ele>208.0</ele><time>2026-04-12T10:33:33.678Z</time></trkpt><trkpt lat="44.9497465" lon="8.0240946"><ele>206.60000000000002</ele><time>2026-04-12T10:33:34.679Z</time></trkpt><trkpt lat="44.9497842" lon="8.0239693"><ele>205.20000000000002</ele><time>2026-04-12T10:33:35.679Z</time></trkpt><trkpt lat="44.9498493" lon="8.0238519"><ele>203.8</ele><time>2026-04-12T10:33:36.679Z</time></trkpt><trkpt lat="44.9499146" lon="8.0237444"><ele>202.4</ele><time>2026-04-12T10:33:37.679Z</time></trkpt><trkpt lat="44.9499666" lon="8.0236108"><ele>201.0</ele><time>2026-04-12T10:33:38.679Z</time></trkpt><trkpt lat="44.9499986" lon="8.0234497"><ele>200.0</ele><time>2026-04-12T10:33:39.679Z</time></trkpt><trkpt lat="44.9500204" lon="8.0232696"><ele>199.0</ele><time>2026-04-12T10:33:40.679Z</time></trkpt><trkpt lat="44.9500344" lon="8.0230844"><ele>198.0</ele><time>2026-04-12T10:33:41.679Z</time></trkpt><trkpt lat="44.9500439" lon="8.0228994"><ele>197.0</ele><time>2026-04-12T10:33:42.679Z</time></trkpt><trkpt lat="44.9500537" lon="8.0227048"><ele>199.0</ele><time>2026-04-12T10:33:43.679Z</time></trkpt><trkpt lat="44.9500579" lon="8.0225042"><ele>201.0</ele><time>2026-04-12T10:33:44.679Z</time></trkpt><trkpt lat="44.950062" lon="8.0222858"><ele>203.0</ele><time>2026-04-12T10:33:45.678Z</time></trkpt><trkpt lat="44.9500629" lon="8.0220624"><ele>203.0</ele><time>2026-04-12T10:33:46.679Z</time></trkpt><trkpt lat="44.9500554" lon="8.0218396"><ele>203.0</ele><time>2026-04-12T10:33:47.678Z</time></trkpt><trkpt lat="44.9500423" lon="8.0216323"><ele>203.0</ele><time>2026-04-12T10:33:48.679Z</time></trkpt><trkpt lat="44.950029" lon="8.0214083"><ele>197.75</ele><time>2026-04-12T10:33:49.679Z</time></trkpt><trkpt lat="44.9500204" lon="8.0212106"><ele>192.5</ele><time>2026-04-12T10:33:50.679Z</time></trkpt><trkpt lat="44.9500235" lon="8.0210124"><ele>187.25</ele><time>2026-04-12T10:33:51.679Z</time></trkpt><trkpt lat="44.9500161" lon="8.0208203"><ele>182.0</ele><time>2026-04-12T10:33:52.679Z</time></trkpt><trkpt lat="44.9500032" lon="8.0206415"><ele>181.6</ele><time>2026-04-12T10:33:53.679Z</time></trkpt><trkpt lat="44.9499895" lon="8.0204712"><ele>181.2</ele><time>2026-04-12T10:33:54.679Z</time></trkpt><trkpt lat="44.9499777" lon="8.0203204"><ele>180.8</ele><time>2026-04-12T10:33:55.679Z</time></trkpt><trkpt lat="44.9499809" lon="8.0202037"><ele>180.4</ele><time>2026-04-12T10:33:56.679Z</time></trkpt><trkpt lat="44.950002" lon="8.0201131"><ele>180.0</ele><time>2026-04-12T10:33:57.679Z</time></trkpt><trkpt lat="44.9500806" lon="8.0200011"><ele>180.0</ele><time>2026-04-12T10:33:59.678Z</time></trkpt><trkpt lat="44.9501427" lon="8.0199865"><ele>180.0</ele><time>2026-04-12T10:34:00.679Z</time></trkpt><trkpt lat="44.9502912" lon="8.0199731"><ele>180.0</ele><time>2026-04-12T10:34:02.679Z</time></trkpt><trkpt lat="44.9504012" lon="8.0199771"><ele>180.0</ele><time>2026-04-12T10:34:03.679Z</time></trkpt><trkpt lat="44.9505233" lon="8.019984"><ele>180.0</ele><time>2026-04-12T10:34:04.679Z</time></trkpt><trkpt lat="44.9506421" lon="8.0199989"><ele>180.0</ele><time>2026-04-12T10:34:05.679Z</time></trkpt><trkpt lat="44.9507524" lon="8.0200028"><ele>180.0</ele><time>2026-04-12T10:34:06.679Z</time></trkpt><trkpt lat="44.9508721" lon="8.0199953"><ele>180.0</ele><time>2026-04-12T10:34:07.679Z</time></trkpt><trkpt lat="44.9509946" lon="8.0199839"><ele>180.0</ele><time>2026-04-12T10:34:08.679Z</time></trkpt><trkpt lat="44.9511181" lon="8.0199583"><ele>179.75</ele><time>2026-04-12T10:34:09.679Z</time></trkpt><trkpt lat="44.9512443" lon="8.0199296"><ele>179.5</ele><time>2026-04-12T10:34:10.679Z</time></trkpt><trkpt lat="44.9513875" lon="8.0198785"><ele>179.25</ele><time>2026-04-12T10:34:11.679Z</time></trkpt><trkpt lat="44.951535" lon="8.0198297"><ele>179.0</ele><time>2026-04-12T10:34:12.679Z</time></trkpt><trkpt lat="44.9516856" lon="8.0197534"><ele>179.25</ele><time>2026-04-12T10:34:13.679Z</time></trkpt><trkpt lat="44.9518246" lon="8.0196651"><ele>179.5</ele><time>2026-04-12T10:34:14.679Z</time></trkpt><trkpt lat="44.9519581" lon="8.0195764"><ele>179.75</ele><time>2026-04-12T10:34:15.679Z</time></trkpt><trkpt lat="44.95209" lon="8.0194826"><ele>180.0</ele><time>2026-04-12T10:34:16.678Z</time></trkpt><trkpt lat="44.9522263" lon="8.019398"><ele>180.0</ele><time>2026-04-12T10:34:17.679Z</time></trkpt><trkpt lat="44.9523563" lon="8.0193077"><ele>180.0</ele><time>2026-04-12T10:34:18.679Z</time></trkpt><trkpt lat="44.9524912" lon="8.0192271"><ele>180.0</ele><time>2026-04-12T10:34:19.679Z</time></trkpt><trkpt lat="44.9526199" lon="8.0191441"><ele>180.0</ele><time>2026-04-12T10:34:20.679Z</time></trkpt><trkpt lat="44.9527483" lon="8.0190576"><ele>178.75</ele><time>2026-04-12T10:34:21.679Z</time></trkpt><trkpt lat="44.952878" lon="8.0189781"><ele>177.5</ele><time>2026-04-12T10:34:22.679Z</time></trkpt><trkpt lat="44.9530133" lon="8.0188919"><ele>176.25</ele><time>2026-04-12T10:34:23.679Z</time></trkpt><trkpt lat="44.9531477" lon="8.0188096"><ele>175.0</ele><time>2026-04-12T10:34:24.679Z</time></trkpt><trkpt lat="44.9532922" lon="8.0187174"><ele>176.66666666666669</ele><time>2026-04-12T10:34:25.679Z</time></trkpt><trkpt lat="44.9534368" lon="8.0186188"><ele>178.33333333333334</ele><time>2026-04-12T10:34:26.679Z</time></trkpt><trkpt lat="44.9535874" lon="8.0185255"><ele>180.0</ele><time>2026-04-12T10:34:27.679Z</time></trkpt><trkpt lat="44.9537384" lon="8.0184288"><ele>180.0</ele><time>2026-04-12T10:34:28.679Z</time></trkpt><trkpt lat="44.953881" lon="8.0183285"><ele>180.0</ele><time>2026-04-12T10:34:29.679Z</time></trkpt><trkpt lat="44.9540279" lon="8.0182365"><ele>180.0</ele><time>2026-04-12T10:34:30.679Z</time></trkpt><trkpt lat="44.9541819" lon="8.0181419"><ele>179.0</ele><time>2026-04-12T10:34:31.678Z</time></trkpt><trkpt lat="44.9543324" lon="8.0180493"><ele>178.0</ele><time>2026-04-12T10:34:32.679Z</time></trkpt><trkpt lat="44.9544835" lon="8.0179535"><ele>177.0</ele><time>2026-04-12T10:34:33.679Z</time></trkpt><trkpt lat="44.954632" lon="8.0178584"><ele>177.0</ele><time>2026-04-12T10:34:34.679Z</time></trkpt><trkpt lat="44.9547839" lon="8.0177603"><ele>177.0</ele><time>2026-04-12T10:34:35.679Z</time></trkpt><trkpt lat="44.9549438" lon="8.0176624"><ele>177.0</ele><time>2026-04-12T10:34:36.679Z</time></trkpt><trkpt lat="44.9550972" lon="8.017571"><ele>177.0</ele><time>2026-04-12T10:34:37.679Z</time></trkpt><trkpt lat="44.9552445" lon="8.0174807"><ele>177.0</ele><time>2026-04-12T10:34:38.679Z</time></trkpt><trkpt lat="44.9553942" lon="8.0174027"><ele>177.0</ele><time>2026-04-12T10:34:39.679Z</time></trkpt><trkpt lat="44.9555492" lon="8.0173471"><ele>177.0</ele><time>2026-04-12T10:34:40.679Z</time></trkpt><trkpt lat="44.955711" lon="8.0173177"><ele>177.0</ele><time>2026-04-12T10:34:41.679Z</time></trkpt><trkpt lat="44.9558717" lon="8.017314"><ele>177.0</ele><time>2026-04-12T10:34:42.679Z</time></trkpt><trkpt lat="44.9560425" lon="8.0173444"><ele>177.0</ele><time>2026-04-12T10:34:43.679Z</time></trkpt><trkpt lat="44.9562116" lon="8.0173986"><ele>177.0</ele><time>2026-04-12T10:34:44.678Z</time></trkpt><trkpt lat="44.9563785" lon="8.0174574"><ele>177.0</ele><time>2026-04-12T10:34:45.679Z</time></trkpt><trkpt lat="44.9565445" lon="8.0175173"><ele>177.33333333333334</ele><time>2026-04-12T10:34:46.679Z</time></trkpt><trkpt lat="44.9567087" lon="8.0175789"><ele>177.66666666666669</ele><time>2026-04-12T10:34:47.679Z</time></trkpt><trkpt lat="44.9568802" lon="8.0176437"><ele>178.0</ele><time>2026-04-12T10:34:48.679Z</time></trkpt><trkpt lat="44.9570437" lon="8.0177099"><ele>178.0</ele><time>2026-04-12T10:34:49.679Z</time></trkpt><trkpt lat="44.957197" lon="8.0177687"><ele>178.0</ele><time>2026-04-12T10:34:50.679Z</time></trkpt><trkpt lat="44.9573459" lon="8.0178366"><ele>178.0</ele><time>2026-04-12T10:34:51.679Z</time></trkpt><trkpt lat="44.9574873" lon="8.0178908"><ele>178.25</ele><time>2026-04-12T10:34:52.678Z</time></trkpt><trkpt lat="44.9576318" lon="8.0179416"><ele>178.5</ele><time>2026-04-12T10:34:53.678Z</time></trkpt><trkpt lat="44.9577705" lon="8.0179984"><ele>178.75</ele><time>2026-04-12T10:34:54.679Z</time></trkpt><trkpt lat="44.9579032" lon="8.0180589"><ele>179.0</ele><time>2026-04-12T10:34:55.678Z</time></trkpt><trkpt lat="44.958044" lon="8.0181091"><ele>179.0</ele><time>2026-04-12T10:34:56.679Z</time></trkpt><trkpt lat="44.9581888" lon="8.0181312"><ele>179.0</ele><time>2026-04-12T10:34:57.679Z</time></trkpt><trkpt lat="44.9583385" lon="8.0181244"><ele>179.0</ele><time>2026-04-12T10:34:58.679Z</time></trkpt><trkpt lat="44.9584863" lon="8.0180784"><ele>179.0</ele><time>2026-04-12T10:34:59.679Z</time></trkpt><trkpt lat="44.958631" lon="8.0179981"><ele>179.33333333333331</ele><time>2026-04-12T10:35:00.679Z</time></trkpt><trkpt lat="44.9587711" lon="8.0179055"><ele>179.66666666666666</ele><time>2026-04-12T10:35:01.679Z</time></trkpt><trkpt lat="44.9589209" lon="8.0178"><ele>180.0</ele><time>2026-04-12T10:35:02.679Z</time></trkpt><trkpt lat="44.9590701" lon="8.0176987"><ele>180.66666666666666</ele><time>2026-04-12T10:35:03.679Z</time></trkpt><trkpt lat="44.9592223" lon="8.0175959"><ele>181.33333333333331</ele><time>2026-04-12T10:35:04.679Z</time></trkpt><trkpt lat="44.9593708" lon="8.0174938"><ele>182.0</ele><time>2026-04-12T10:35:05.679Z</time></trkpt><trkpt lat="44.9595144" lon="8.0173896"><ele>182.0</ele><time>2026-04-12T10:35:06.679Z</time></trkpt><trkpt lat="44.9596712" lon="8.0172859"><ele>182.0</ele><time>2026-04-12T10:35:07.679Z</time></trkpt><trkpt lat="44.9598168" lon="8.0171851"><ele>182.0</ele><time>2026-04-12T10:35:08.679Z</time></trkpt><trkpt lat="44.9599616" lon="8.0170744"><ele>181.66666666666666</ele><time>2026-04-12T10:35:09.679Z</time></trkpt><trkpt lat="44.96011" lon="8.0169791"><ele>181.33333333333334</ele><time>2026-04-12T10:35:10.679Z</time></trkpt><trkpt lat="44.9602581" lon="8.0168764"><ele>181.0</ele><time>2026-04-12T10:35:11.679Z</time></trkpt><trkpt lat="44.9604021" lon="8.0167839"><ele>181.0</ele><time>2026-04-12T10:35:12.679Z</time></trkpt><trkpt lat="44.9605522" lon="8.0166932"><ele>181.0</ele><time>2026-04-12T10:35:13.679Z</time></trkpt><trkpt lat="44.9607009" lon="8.0166103"><ele>181.0</ele><time>2026-04-12T10:35:14.679Z</time></trkpt><trkpt lat="44.9608444" lon="8.0165413"><ele>180.0</ele><time>2026-04-12T10:35:15.679Z</time></trkpt><trkpt lat="44.9609845" lon="8.0164629"><ele>179.0</ele><time>2026-04-12T10:35:16.679Z</time></trkpt><trkpt lat="44.961123" lon="8.0163872"><ele>178.0</ele><time>2026-04-12T10:35:17.679Z</time></trkpt><trkpt lat="44.9612669" lon="8.0163168"><ele>178.0</ele><time>2026-04-12T10:35:18.679Z</time></trkpt><trkpt lat="44.961414" lon="8.0162445"><ele>178.0</ele><time>2026-04-12T10:35:19.679Z</time></trkpt><trkpt lat="44.9615522" lon="8.0161733"><ele>178.0</ele><time>2026-04-12T10:35:20.679Z</time></trkpt><trkpt lat="44.9616948" lon="8.0161062"><ele>179.0</ele><time>2026-04-12T10:35:21.679Z</time></trkpt><trkpt lat="44.9618406" lon="8.0160307"><ele>180.0</ele><time>2026-04-12T10:35:22.679Z</time></trkpt><trkpt lat="44.9619791" lon="8.0159598"><ele>181.0</ele><time>2026-04-12T10:35:23.679Z</time></trkpt><trkpt lat="44.9621164" lon="8.0158855"><ele>181.33333333333334</ele><time>2026-04-12T10:35:24.679Z</time></trkpt><trkpt lat="44.9622574" lon="8.0158156"><ele>181.66666666666666</ele><time>2026-04-12T10:35:25.679Z</time></trkpt><trkpt lat="44.9624041" lon="8.0157405"><ele>182.0</ele><time>2026-04-12T10:35:26.678Z</time></trkpt><trkpt lat="44.9625415" lon="8.0156571"><ele>182.75</ele><time>2026-04-12T10:35:27.679Z</time></trkpt><trkpt lat="44.9626771" lon="8.0155919"><ele>183.5</ele><time>2026-04-12T10:35:28.679Z</time></trkpt><trkpt lat="44.9628041" lon="8.0155271"><ele>184.25</ele><time>2026-04-12T10:35:29.679Z</time></trkpt><trkpt lat="44.9629315" lon="8.0154649"><ele>185.0</ele><time>2026-04-12T10:35:30.679Z</time></trkpt><trkpt lat="44.9630499" lon="8.0154067"><ele>185.0</ele><time>2026-04-12T10:35:31.679Z</time></trkpt><trkpt lat="44.9631515" lon="8.0153531"><ele>185.0</ele><time>2026-04-12T10:35:32.679Z</time></trkpt><trkpt lat="44.9632472" lon="8.0153075"><ele>185.0</ele><time>2026-04-12T10:35:33.679Z</time></trkpt><trkpt lat="44.9633182" lon="8.0152724"><ele>185.0</ele><time>2026-04-12T10:35:34.679Z</time></trkpt><trkpt lat="44.9634061" lon="8.0152386"><ele>185.0</ele><time>2026-04-12T10:35:36.679Z</time></trkpt><trkpt lat="44.9634707" lon="8.0151971"><ele>185.0</ele><time>2026-04-12T10:35:39.679Z</time></trkpt><trkpt lat="44.9635301" lon="8.0151488"><ele>184.66666666666666</ele><time>2026-04-12T10:36:39.679Z</time></trkpt><trkpt lat="44.9636159" lon="8.0150764"><ele>184.33333333333331</ele><time>2026-04-12T10:36:41.679Z</time></trkpt><trkpt lat="44.9636715" lon="8.0150288"><ele>184.0</ele><time>2026-04-12T10:36:42.679Z</time></trkpt><trkpt lat="44.9637441" lon="8.0149742"><ele>183.66666666666666</ele><time>2026-04-12T10:36:43.679Z</time></trkpt><trkpt lat="44.9638163" lon="8.0149166"><ele>183.33333333333334</ele><time>2026-04-12T10:36:44.679Z</time></trkpt><trkpt lat="44.9638835" lon="8.0148569"><ele>183.0</ele><time>2026-04-12T10:36:45.679Z</time></trkpt><trkpt lat="44.9639548" lon="8.0148146"><ele>182.8</ele><time>2026-04-12T10:36:46.679Z</time></trkpt><trkpt lat="44.9640208" lon="8.01476"><ele>182.60000000000002</ele><time>2026-04-12T10:36:47.678Z</time></trkpt><trkpt lat="44.9640942" lon="8.0147045"><ele>182.39999999999998</ele><time>2026-04-12T10:36:48.679Z</time></trkpt><trkpt lat="44.9641739" lon="8.0146357"><ele>182.2</ele><time>2026-04-12T10:36:49.679Z</time></trkpt><trkpt lat="44.9642554" lon="8.0145374"><ele>182.0</ele><time>2026-04-12T10:36:50.679Z</time></trkpt><trkpt lat="44.9643517" lon="8.0144545"><ele>182.5</ele><time>2026-04-12T10:36:51.679Z</time></trkpt><trkpt lat="44.9644418" lon="8.0143817"><ele>183.0</ele><time>2026-04-12T10:36:52.679Z</time></trkpt><trkpt lat="44.964538" lon="8.014297"><ele>183.5</ele><time>2026-04-12T10:36:53.679Z</time></trkpt><trkpt lat="44.9646524" lon="8.0142049"><ele>184.0</ele><time>2026-04-12T10:36:54.679Z</time></trkpt><trkpt lat="44.9647623" lon="8.0141059"><ele>183.5</ele><time>2026-04-12T10:36:55.678Z</time></trkpt><trkpt lat="44.9648833" lon="8.0140037"><ele>183.0</ele><time>2026-04-12T10:36:56.679Z</time></trkpt><trkpt lat="44.9650063" lon="8.0138889"><ele>182.5</ele><time>2026-04-12T10:36:57.679Z</time></trkpt><trkpt lat="44.9651266" lon="8.0137913"><ele>182.0</ele><time>2026-04-12T10:36:58.679Z</time></trkpt><trkpt lat="44.9652491" lon="8.0136874"><ele>182.0</ele><time>2026-04-12T10:36:59.679Z</time></trkpt><trkpt lat="44.9653693" lon="8.0135752"><ele>182.0</ele><time>2026-04-12T10:37:00.679Z</time></trkpt><trkpt lat="44.9654947" lon="8.0134624"><ele>182.0</ele><time>2026-04-12T10:37:01.679Z</time></trkpt><trkpt lat="44.965621" lon="8.0133483"><ele>182.0</ele><time>2026-04-12T10:37:02.679Z</time></trkpt><trkpt lat="44.9657486" lon="8.0132343"><ele>184.33333333333331</ele><time>2026-04-12T10:37:03.678Z</time></trkpt><trkpt lat="44.9658776" lon="8.0131224"><ele>186.66666666666666</ele><time>2026-04-12T10:37:04.679Z</time></trkpt><trkpt lat="44.9660056" lon="8.0130033"><ele>189.0</ele><time>2026-04-12T10:37:05.678Z</time></trkpt><trkpt lat="44.9661376" lon="8.0128966"><ele>189.0</ele><time>2026-04-12T10:37:06.679Z</time></trkpt><trkpt lat="44.966272" lon="8.012791"><ele>189.0</ele><time>2026-04-12T10:37:07.679Z</time></trkpt><trkpt lat="44.9664096" lon="8.0126736"><ele>189.0</ele><time>2026-04-12T10:37:08.679Z</time></trkpt><trkpt lat="44.9665522" lon="8.0125653"><ele>186.66666666666666</ele><time>2026-04-12T10:37:09.679Z</time></trkpt><trkpt lat="44.9667005" lon="8.0124843"><ele>184.33333333333331</ele><time>2026-04-12T10:37:10.679Z</time></trkpt><trkpt lat="44.9668532" lon="8.0123971"><ele>182.0</ele><time>2026-04-12T10:37:11.679Z</time></trkpt><trkpt lat="44.9670132" lon="8.0123255"><ele>182.0</ele><time>2026-04-12T10:37:12.679Z</time></trkpt><trkpt lat="44.9671762" lon="8.0122494"><ele>182.0</ele><time>2026-04-12T10:37:13.679Z</time></trkpt><trkpt lat="44.9673467" lon="8.0121694"><ele>182.0</ele><time>2026-04-12T10:37:14.679Z</time></trkpt><trkpt lat="44.967497" lon="8.012103"><ele>182.0</ele><time>2026-04-12T10:37:15.679Z</time></trkpt><trkpt lat="44.9676509" lon="8.012045"><ele>182.0</ele><time>2026-04-12T10:37:16.678Z</time></trkpt><trkpt lat="44.9678034" lon="8.0120237"><ele>182.0</ele><time>2026-04-12T10:37:17.679Z</time></trkpt><trkpt lat="44.9679626" lon="8.0120181"><ele>182.0</ele><time>2026-04-12T10:37:18.679Z</time></trkpt><trkpt lat="44.9681139" lon="8.0120307"><ele>182.0</ele><time>2026-04-12T10:37:19.679Z</time></trkpt><trkpt lat="44.9682743" lon="8.0120774"><ele>182.0</ele><time>2026-04-12T10:37:20.679Z</time></trkpt><trkpt lat="44.9684319" lon="8.0121329"><ele>181.33333333333331</ele><time>2026-04-12T10:37:21.678Z</time></trkpt><trkpt lat="44.9685788" lon="8.0121969"><ele>180.66666666666666</ele><time>2026-04-12T10:37:22.679Z</time></trkpt><trkpt lat="44.968717" lon="8.0122636"><ele>180.0</ele><time>2026-04-12T10:37:23.679Z</time></trkpt><trkpt lat="44.9688549" lon="8.0123556"><ele>180.0</ele><time>2026-04-12T10:37:24.679Z</time></trkpt><trkpt lat="44.9690075" lon="8.0124379"><ele>180.0</ele><time>2026-04-12T10:37:25.679Z</time></trkpt><trkpt lat="44.969156" lon="8.0125384"><ele>180.0</ele><time>2026-04-12T10:37:26.679Z</time></trkpt><trkpt lat="44.9692876" lon="8.0126116"><ele>180.4</ele><time>2026-04-12T10:37:27.679Z</time></trkpt><trkpt lat="44.969397" lon="8.0126788"><ele>180.8</ele><time>2026-04-12T10:37:28.679Z</time></trkpt><trkpt lat="44.9694964" lon="8.0127261"><ele>181.2</ele><time>2026-04-12T10:37:29.679Z</time></trkpt><trkpt lat="44.9695927" lon="8.012784"><ele>181.6</ele><time>2026-04-12T10:37:30.679Z</time></trkpt><trkpt lat="44.9696851" lon="8.0128407"><ele>182.0</ele><time>2026-04-12T10:37:31.679Z</time></trkpt><trkpt lat="44.9697576" lon="8.0128716"><ele>182.0</ele><time>2026-04-12T10:37:32.679Z</time></trkpt><trkpt lat="44.9698234" lon="8.0128997"><ele>182.0</ele><time>2026-04-12T10:37:33.679Z</time></trkpt><trkpt lat="44.9699084" lon="8.0128522"><ele>182.0</ele><time>2026-04-12T10:37:35.679Z</time></trkpt><trkpt lat="44.9699392" lon="8.0126853"><ele>182.0</ele><time>2026-04-12T10:37:37.679Z</time></trkpt><trkpt lat="44.9699511" lon="8.0125375"><ele>182.0</ele><time>2026-04-12T10:37:38.679Z</time></trkpt><trkpt lat="44.9699515" lon="8.0123917"><ele>181.6</ele><time>2026-04-12T10:37:39.679Z</time></trkpt><trkpt lat="44.9699713" lon="8.0122458"><ele>181.2</ele><time>2026-04-12T10:37:40.679Z</time></trkpt><trkpt lat="44.96997" lon="8.0121179"><ele>180.8</ele><time>2026-04-12T10:37:41.679Z</time></trkpt><trkpt lat="44.9699566" lon="8.0119707"><ele>180.4</ele><time>2026-04-12T10:37:42.679Z</time></trkpt><trkpt lat="44.9699596" lon="8.0118143"><ele>180.0</ele><time>2026-04-12T10:37:43.679Z</time></trkpt><trkpt lat="44.9699568" lon="8.0116547"><ele>179.75</ele><time>2026-04-12T10:37:44.678Z</time></trkpt><trkpt lat="44.9699564" lon="8.0114941"><ele>179.5</ele><time>2026-04-12T10:37:45.679Z</time></trkpt><trkpt lat="44.969959" lon="8.0113246"><ele>179.25</ele><time>2026-04-12T10:37:46.678Z</time></trkpt><trkpt lat="44.9699652" lon="8.0111639"><ele>179.0</ele><time>2026-04-12T10:37:47.679Z</time></trkpt><trkpt lat="44.9699696" lon="8.011"><ele>179.0</ele><time>2026-04-12T10:37:48.679Z</time></trkpt><trkpt lat="44.969975" lon="8.010837"><ele>179.0</ele><time>2026-04-12T10:37:49.679Z</time></trkpt><trkpt lat="44.9699762" lon="8.0106773"><ele>179.0</ele><time>2026-04-12T10:37:50.679Z</time></trkpt><trkpt lat="44.9699758" lon="8.0105206"><ele>179.0</ele><time>2026-04-12T10:37:51.679Z</time></trkpt><trkpt lat="44.9699906" lon="8.0103521"><ele>179.5</ele><time>2026-04-12T10:37:52.679Z</time></trkpt><trkpt lat="44.9699932" lon="8.0102166"><ele>180.0</ele><time>2026-04-12T10:37:53.679Z</time></trkpt><trkpt lat="44.9699894" lon="8.0100871"><ele>180.5</ele><time>2026-04-12T10:37:54.679Z</time></trkpt><trkpt lat="44.9699854" lon="8.0099691"><ele>181.0</ele><time>2026-04-12T10:37:55.679Z</time></trkpt><trkpt lat="44.9699813" lon="8.009819"><ele>181.5</ele><time>2026-04-12T10:37:57.679Z</time></trkpt><trkpt lat="44.9700274" lon="8.0097543"><ele>182.0</ele><time>2026-04-12T10:37:59.679Z</time></trkpt><trkpt lat="44.9701329" lon="8.0097459"><ele>182.0</ele><time>2026-04-12T10:38:01.679Z</time></trkpt><trkpt lat="44.9702489" lon="8.0097276"><ele>182.0</ele><time>2026-04-12T10:38:03.679Z</time></trkpt><trkpt lat="44.9703544" lon="8.0097244"><ele>182.0</ele><time>2026-04-12T10:38:05.679Z</time></trkpt><trkpt lat="44.9704568" lon="8.0097323"><ele>182.0</ele><time>2026-04-12T10:38:07.679Z</time></trkpt><trkpt lat="44.9705228" lon="8.0097259"><ele>182.0</ele><time>2026-04-12T10:38:08.678Z</time></trkpt><trkpt lat="44.9706252" lon="8.0097406"><ele>182.0</ele><time>2026-04-12T10:38:10.678Z</time></trkpt><trkpt lat="44.9707218" lon="8.009755"><ele>182.0</ele><time>2026-04-12T10:38:12.678Z</time></trkpt><trkpt lat="44.9708093" lon="8.0097762"><ele>182.0</ele><time>2026-04-12T10:38:14.678Z</time></trkpt><trkpt lat="44.9709179" lon="8.0098031"><ele>182.0</ele><time>2026-04-12T10:38:16.679Z</time></trkpt><trkpt lat="44.9710286" lon="8.0098294"><ele>182.0</ele><time>2026-04-12T10:38:18.679Z</time></trkpt><trkpt lat="44.9711449" lon="8.0098592"><ele>182.0</ele><time>2026-04-12T10:38:20.679Z</time></trkpt><trkpt lat="44.971211" lon="8.0098821"><ele>182.0</ele><time>2026-04-12T10:38:21.679Z</time></trkpt><trkpt lat="44.9712813" lon="8.0098988"><ele>182.0</ele><time>2026-04-12T10:38:22.679Z</time></trkpt><trkpt lat="44.9713505" lon="8.0099152"><ele>182.0</ele><time>2026-04-12T10:38:23.679Z</time></trkpt><trkpt lat="44.9714162" lon="8.0099339"><ele>182.0</ele><time>2026-04-12T10:38:24.679Z</time></trkpt><trkpt lat="44.9714875" lon="8.0099546"><ele>182.0</ele><time>2026-04-12T10:38:25.679Z</time></trkpt><trkpt lat="44.9715577" lon="8.009977"><ele>182.0</ele><time>2026-04-12T10:38:26.679Z</time></trkpt><trkpt lat="44.9716382" lon="8.0100061"><ele>182.5</ele><time>2026-04-12T10:38:27.679Z</time></trkpt><trkpt lat="44.9717175" lon="8.0100291"><ele>183.0</ele><time>2026-04-12T10:38:28.679Z</time></trkpt><trkpt lat="44.9718016" lon="8.0100551"><ele>183.5</ele><time>2026-04-12T10:38:29.679Z</time></trkpt><trkpt lat="44.9718864" lon="8.0100764"><ele>184.0</ele><time>2026-04-12T10:38:30.679Z</time></trkpt><trkpt lat="44.9719754" lon="8.0100929"><ele>184.5</ele><time>2026-04-12T10:38:31.678Z</time></trkpt><trkpt lat="44.972065" lon="8.0101171"><ele>185.0</ele><time>2026-04-12T10:38:32.679Z</time></trkpt><trkpt lat="44.9721594" lon="8.0101351"><ele>185.0</ele><time>2026-04-12T10:38:33.679Z</time></trkpt><trkpt lat="44.9722455" lon="8.0101627"><ele>185.0</ele><time>2026-04-12T10:38:34.679Z</time></trkpt><trkpt lat="44.9723378" lon="8.0101797"><ele>185.0</ele><time>2026-04-12T10:38:35.679Z</time></trkpt><trkpt lat="44.9724285" lon="8.0102029"><ele>185.0</ele><time>2026-04-12T10:38:36.679Z</time></trkpt><trkpt lat="44.9725233" lon="8.0102206"><ele>185.0</ele><time>2026-04-12T10:38:37.679Z</time></trkpt><trkpt lat="44.9726185" lon="8.0102443"><ele>185.0</ele><time>2026-04-12T10:38:38.679Z</time></trkpt><trkpt lat="44.9727103" lon="8.0102644"><ele>185.0</ele><time>2026-04-12T10:38:39.679Z</time></trkpt><trkpt lat="44.9728032" lon="8.0102765"><ele>185.0</ele><time>2026-04-12T10:38:40.679Z</time></trkpt><trkpt lat="44.9728952" lon="8.0102837"><ele>185.0</ele><time>2026-04-12T10:38:41.679Z</time></trkpt><trkpt lat="44.9729774" lon="8.0103057"><ele>185.0</ele><time>2026-04-12T10:38:42.679Z</time></trkpt><trkpt lat="44.9730635" lon="8.0103219"><ele>185.0</ele><time>2026-04-12T10:38:43.679Z</time></trkpt><trkpt lat="44.9731435" lon="8.0103311"><ele>185.0</ele><time>2026-04-12T10:38:44.679Z</time></trkpt><trkpt lat="44.9732234" lon="8.0103552"><ele>185.0</ele><time>2026-04-12T10:38:45.679Z</time></trkpt><trkpt lat="44.9732952" lon="8.0103857"><ele>185.0</ele><time>2026-04-12T10:38:46.678Z</time></trkpt><trkpt lat="44.9733645" lon="8.0104436"><ele>185.0</ele><time>2026-04-12T10:38:47.679Z</time></trkpt><trkpt lat="44.9734327" lon="8.0105041"><ele>185.0</ele><time>2026-04-12T10:38:48.678Z</time></trkpt><trkpt lat="44.9734975" lon="8.0105586"><ele>185.0</ele><time>2026-04-12T10:38:49.679Z</time></trkpt><trkpt lat="44.9735775" lon="8.0106099"><ele>185.5</ele><time>2026-04-12T10:38:50.679Z</time></trkpt><trkpt lat="44.9736574" lon="8.0106425"><ele>186.0</ele><time>2026-04-12T10:38:51.679Z</time></trkpt><trkpt lat="44.9737405" lon="8.010656"><ele>186.5</ele><time>2026-04-12T10:38:52.679Z</time></trkpt><trkpt lat="44.9738343" lon="8.0106678"><ele>187.0</ele><time>2026-04-12T10:38:53.679Z</time></trkpt><trkpt lat="44.9739254" lon="8.0106757"><ele>187.5</ele><time>2026-04-12T10:38:54.679Z</time></trkpt><trkpt lat="44.9740105" lon="8.0106867"><ele>188.0</ele><time>2026-04-12T10:38:55.679Z</time></trkpt><trkpt lat="44.9741144" lon="8.0106975"><ele>189.2</ele><time>2026-04-12T10:38:56.679Z</time></trkpt><trkpt lat="44.9742057" lon="8.0107111"><ele>190.4</ele><time>2026-04-12T10:38:57.679Z</time></trkpt><trkpt lat="44.9743076" lon="8.0107313"><ele>191.6</ele><time>2026-04-12T10:38:58.679Z</time></trkpt><trkpt lat="44.9744042" lon="8.0107597"><ele>192.79999999999998</ele><time>2026-04-12T10:38:59.679Z</time></trkpt><trkpt lat="44.9745025" lon="8.0107848"><ele>194.0</ele><time>2026-04-12T10:39:00.679Z</time></trkpt><trkpt lat="44.9745891" lon="8.0108103"><ele>192.2</ele><time>2026-04-12T10:39:01.679Z</time></trkpt><trkpt lat="44.9746929" lon="8.0108393"><ele>190.39999999999998</ele><time>2026-04-12T10:39:02.679Z</time></trkpt><trkpt lat="44.9747836" lon="8.010863"><ele>188.6</ele><time>2026-04-12T10:39:03.679Z</time></trkpt><trkpt lat="44.9748737" lon="8.0108903"><ele>186.8</ele><time>2026-04-12T10:39:04.679Z</time></trkpt><trkpt lat="44.9749677" lon="8.0109153"><ele>185.0</ele><time>2026-04-12T10:39:05.679Z</time></trkpt><trkpt lat="44.9750576" lon="8.0109528"><ele>184.8</ele><time>2026-04-12T10:39:06.679Z</time></trkpt><trkpt lat="44.9751491" lon="8.0109846"><ele>184.6</ele><time>2026-04-12T10:39:07.679Z</time></trkpt><trkpt lat="44.9752336" lon="8.0110242"><ele>184.39999999999998</ele><time>2026-04-12T10:39:08.679Z</time></trkpt><trkpt lat="44.9753245" lon="8.0110565"><ele>184.2</ele><time>2026-04-12T10:39:09.679Z</time></trkpt><trkpt lat="44.9754193" lon="8.0110862"><ele>184.0</ele><time>2026-04-12T10:39:10.679Z</time></trkpt><trkpt lat="44.9755167" lon="8.0110999"><ele>184.0</ele><time>2026-04-12T10:39:11.679Z</time></trkpt><trkpt lat="44.9756185" lon="8.0110982"><ele>184.0</ele><time>2026-04-12T10:39:12.679Z</time></trkpt><trkpt lat="44.9757124" lon="8.0110754"><ele>184.0</ele><time>2026-04-12T10:39:13.679Z</time></trkpt><trkpt lat="44.975809" lon="8.0110448"><ele>184.0</ele><time>2026-04-12T10:39:14.679Z</time></trkpt><trkpt lat="44.9759044" lon="8.0110344"><ele>184.0</ele><time>2026-04-12T10:39:15.679Z</time></trkpt><trkpt lat="44.9760041" lon="8.0110245"><ele>184.0</ele><time>2026-04-12T10:39:16.678Z</time></trkpt><trkpt lat="44.9761045" lon="8.0110064"><ele>184.0</ele><time>2026-04-12T10:39:17.679Z</time></trkpt><trkpt lat="44.9762126" lon="8.0109853"><ele>184.0</ele><time>2026-04-12T10:39:18.679Z</time></trkpt><trkpt lat="44.976299" lon="8.010974"><ele>184.0</ele><time>2026-04-12T10:39:19.679Z</time></trkpt><trkpt lat="44.9763908" lon="8.0109619"><ele>184.0</ele><time>2026-04-12T10:39:20.679Z</time></trkpt><trkpt lat="44.9764782" lon="8.0109464"><ele>184.0</ele><time>2026-04-12T10:39:21.679Z</time></trkpt><trkpt lat="44.9765652" lon="8.0109301"><ele>184.0</ele><time>2026-04-12T10:39:22.679Z</time></trkpt><trkpt lat="44.9766577" lon="8.0109111"><ele>184.0</ele><time>2026-04-12T10:39:23.679Z</time></trkpt><trkpt lat="44.9767536" lon="8.0109012"><ele>184.0</ele><time>2026-04-12T10:39:24.679Z</time></trkpt><trkpt lat="44.9768516" lon="8.0109002"><ele>184.0</ele><time>2026-04-12T10:39:25.679Z</time></trkpt><trkpt lat="44.976953" lon="8.0108879"><ele>183.2</ele><time>2026-04-12T10:39:26.679Z</time></trkpt><trkpt lat="44.9770443" lon="8.0108827"><ele>182.39999999999998</ele><time>2026-04-12T10:39:27.679Z</time></trkpt><trkpt lat="44.9771351" lon="8.0108842"><ele>181.6</ele><time>2026-04-12T10:39:28.679Z</time></trkpt><trkpt lat="44.9772286" lon="8.0108751"><ele>180.8</ele><time>2026-04-12T10:39:29.679Z</time></trkpt><trkpt lat="44.977327" lon="8.0108728"><ele>180.0</ele><time>2026-04-12T10:39:30.678Z</time></trkpt><trkpt lat="44.9774199" lon="8.0108712"><ele>180.0</ele><time>2026-04-12T10:39:31.679Z</time></trkpt><trkpt lat="44.9775161" lon="8.0108828"><ele>180.0</ele><time>2026-04-12T10:39:32.678Z</time></trkpt><trkpt lat="44.9776177" lon="8.0108779"><ele>180.0</ele><time>2026-04-12T10:39:33.679Z</time></trkpt><trkpt lat="44.9777218" lon="8.0108745"><ele>180.0</ele><time>2026-04-12T10:39:34.679Z</time></trkpt><trkpt lat="44.9778233" lon="8.0108513"><ele>180.0</ele><time>2026-04-12T10:39:35.679Z</time></trkpt><trkpt lat="44.9779265" lon="8.0108255"><ele>180.6</ele><time>2026-04-12T10:39:36.678Z</time></trkpt><trkpt lat="44.9780266" lon="8.0108064"><ele>181.2</ele><time>2026-04-12T10:39:37.679Z</time></trkpt><trkpt lat="44.9781262" lon="8.0107788"><ele>181.8</ele><time>2026-04-12T10:39:38.679Z</time></trkpt><trkpt lat="44.97822" lon="8.0107438"><ele>182.4</ele><time>2026-04-12T10:39:39.679Z</time></trkpt><trkpt lat="44.9783105" lon="8.0107159"><ele>183.0</ele><time>2026-04-12T10:39:40.679Z</time></trkpt><trkpt lat="44.9783992" lon="8.0106734"><ele>183.8</ele><time>2026-04-12T10:39:41.678Z</time></trkpt><trkpt lat="44.978491" lon="8.0106468"><ele>184.60000000000002</ele><time>2026-04-12T10:39:42.679Z</time></trkpt><trkpt lat="44.9785919" lon="8.0106464"><ele>185.39999999999998</ele><time>2026-04-12T10:39:43.679Z</time></trkpt><trkpt lat="44.978686" lon="8.0106582"><ele>186.2</ele><time>2026-04-12T10:39:44.678Z</time></trkpt><trkpt lat="44.9787844" lon="8.0106704"><ele>187.0</ele><time>2026-04-12T10:39:45.679Z</time></trkpt><trkpt lat="44.9788767" lon="8.0106805"><ele>187.0</ele><time>2026-04-12T10:39:46.679Z</time></trkpt><trkpt lat="44.978976" lon="8.0106986"><ele>187.0</ele><time>2026-04-12T10:39:47.679Z</time></trkpt><trkpt lat="44.9790812" lon="8.0107086"><ele>187.0</ele><time>2026-04-12T10:39:48.678Z</time></trkpt><trkpt lat="44.9791755" lon="8.0107233"><ele>187.0</ele><time>2026-04-12T10:39:49.679Z</time></trkpt><trkpt lat="44.979292" lon="8.0107472"><ele>187.0</ele><time>2026-04-12T10:39:50.679Z</time></trkpt><trkpt lat="44.9794025" lon="8.0107513"><ele>186.6</ele><time>2026-04-12T10:39:51.679Z</time></trkpt><trkpt lat="44.9795056" lon="8.0107676"><ele>186.2</ele><time>2026-04-12T10:39:52.679Z</time></trkpt><trkpt lat="44.9796165" lon="8.0107911"><ele>185.8</ele><time>2026-04-12T10:39:53.679Z</time></trkpt><trkpt lat="44.9797199" lon="8.0108122"><ele>185.4</ele><time>2026-04-12T10:39:54.679Z</time></trkpt><trkpt lat="44.9798278" lon="8.0108286"><ele>185.0</ele><time>2026-04-12T10:39:55.679Z</time></trkpt><trkpt lat="44.9799302" lon="8.010862"><ele>184.0</ele><time>2026-04-12T10:39:56.679Z</time></trkpt><trkpt lat="44.9800255" lon="8.0108917"><ele>183.0</ele><time>2026-04-12T10:39:57.679Z</time></trkpt><trkpt lat="44.9801242" lon="8.0109186"><ele>182.0</ele><time>2026-04-12T10:39:58.679Z</time></trkpt><trkpt lat="44.9802218" lon="8.0109564"><ele>181.0</ele><time>2026-04-12T10:39:59.679Z</time></trkpt><trkpt lat="44.9803127" lon="8.0109916"><ele>180.0</ele><time>2026-04-12T10:40:00.679Z</time></trkpt><trkpt lat="44.9804056" lon="8.0110265"><ele>180.0</ele><time>2026-04-12T10:40:01.679Z</time></trkpt><trkpt lat="44.9805003" lon="8.0110626"><ele>180.0</ele><time>2026-04-12T10:40:02.679Z</time></trkpt><trkpt lat="44.9806009" lon="8.0111118"><ele>180.0</ele><time>2026-04-12T10:40:03.679Z</time></trkpt><trkpt lat="44.9806954" lon="8.0111463"><ele>180.0</ele><time>2026-04-12T10:40:04.679Z</time></trkpt><trkpt lat="44.9807892" lon="8.0111804"><ele>180.0</ele><time>2026-04-12T10:40:05.679Z</time></trkpt><trkpt lat="44.9808824" lon="8.0112072"><ele>180.0</ele><time>2026-04-12T10:40:06.679Z</time></trkpt><trkpt lat="44.9809819" lon="8.0112415"><ele>180.0</ele><time>2026-04-12T10:40:07.678Z</time></trkpt><trkpt lat="44.9810804" lon="8.011278"><ele>180.0</ele><time>2026-04-12T10:40:08.679Z</time></trkpt><trkpt lat="44.9811804" lon="8.0113105"><ele>180.0</ele><time>2026-04-12T10:40:09.679Z</time></trkpt><trkpt lat="44.9812764" lon="8.0113507"><ele>180.0</ele><time>2026-04-12T10:40:10.679Z</time></trkpt><trkpt lat="44.9813608" lon="8.0113851"><ele>180.0</ele><time>2026-04-12T10:40:11.679Z</time></trkpt><trkpt lat="44.9814524" lon="8.0114292"><ele>180.0</ele><time>2026-04-12T10:40:12.679Z</time></trkpt><trkpt lat="44.9815455" lon="8.0114708"><ele>180.0</ele><time>2026-04-12T10:40:13.679Z</time></trkpt><trkpt lat="44.9816357" lon="8.0115143"><ele>180.0</ele><time>2026-04-12T10:40:14.679Z</time></trkpt><trkpt lat="44.9817231" lon="8.0115644"><ele>180.0</ele><time>2026-04-12T10:40:15.678Z</time></trkpt><trkpt lat="44.9818094" lon="8.0116205"><ele>180.0</ele><time>2026-04-12T10:40:16.679Z</time></trkpt><trkpt lat="44.9818969" lon="8.011673"><ele>180.0</ele><time>2026-04-12T10:40:17.679Z</time></trkpt><trkpt lat="44.9819759" lon="8.0117249"><ele>180.0</ele><time>2026-04-12T10:40:18.679Z</time></trkpt><trkpt lat="44.982056" lon="8.011793"><ele>180.0</ele><time>2026-04-12T10:40:19.679Z</time></trkpt><trkpt lat="44.9821493" lon="8.0118573"><ele>180.0</ele><time>2026-04-12T10:40:20.679Z</time></trkpt><trkpt lat="44.9822402" lon="8.0119131"><ele>180.0</ele><time>2026-04-12T10:40:21.679Z</time></trkpt><trkpt lat="44.9823294" lon="8.011961"><ele>180.0</ele><time>2026-04-12T10:40:22.679Z</time></trkpt><trkpt lat="44.9824095" lon="8.0119966"><ele>180.0</ele><time>2026-04-12T10:40:23.679Z</time></trkpt><trkpt lat="44.9825026" lon="8.0120268"><ele>180.0</ele><time>2026-04-12T10:40:24.679Z</time></trkpt><trkpt lat="44.9825952" lon="8.0120541"><ele>180.0</ele><time>2026-04-12T10:40:25.679Z</time></trkpt><trkpt lat="44.9826887" lon="8.0120863"><ele>181.6</ele><time>2026-04-12T10:40:26.679Z</time></trkpt><trkpt lat="44.9827878" lon="8.0121099"><ele>183.2</ele><time>2026-04-12T10:40:27.679Z</time></trkpt><trkpt lat="44.9828892" lon="8.0121422"><ele>184.8</ele><time>2026-04-12T10:40:28.679Z</time></trkpt><trkpt lat="44.9829885" lon="8.0121639"><ele>186.4</ele><time>2026-04-12T10:40:29.679Z</time></trkpt><trkpt lat="44.9830926" lon="8.0121906"><ele>188.0</ele><time>2026-04-12T10:40:30.678Z</time></trkpt><trkpt lat="44.9831869" lon="8.0122018"><ele>188.0</ele><time>2026-04-12T10:40:31.679Z</time></trkpt><trkpt lat="44.9832805" lon="8.0122055"><ele>188.0</ele><time>2026-04-12T10:40:32.679Z</time></trkpt><trkpt lat="44.9833798" lon="8.0121903"><ele>188.0</ele><time>2026-04-12T10:40:33.678Z</time></trkpt><trkpt lat="44.983476" lon="8.012154"><ele>188.0</ele><time>2026-04-12T10:40:34.679Z</time></trkpt><trkpt lat="44.9835721" lon="8.012117"><ele>188.0</ele><time>2026-04-12T10:40:35.679Z</time></trkpt><trkpt lat="44.9836613" lon="8.0120729"><ele>187.60000000000002</ele><time>2026-04-12T10:40:36.679Z</time></trkpt><trkpt lat="44.9837525" lon="8.0120103"><ele>187.20000000000002</ele><time>2026-04-12T10:40:37.679Z</time></trkpt><trkpt lat="44.9838464" lon="8.0119641"><ele>186.8</ele><time>2026-04-12T10:40:38.679Z</time></trkpt><trkpt lat="44.9839398" lon="8.01192"><ele>186.4</ele><time>2026-04-12T10:40:39.678Z</time></trkpt><trkpt lat="44.9840345" lon="8.0118656"><ele>186.0</ele><time>2026-04-12T10:40:40.679Z</time></trkpt><trkpt lat="44.9841225" lon="8.0118165"><ele>186.0</ele><time>2026-04-12T10:40:41.679Z</time></trkpt><trkpt lat="44.9842133" lon="8.0117435"><ele>186.0</ele><time>2026-04-12T10:40:42.679Z</time></trkpt><trkpt lat="44.9843065" lon="8.0116753"><ele>186.0</ele><time>2026-04-12T10:40:43.679Z</time></trkpt><trkpt lat="44.9843973" lon="8.0115991"><ele>186.0</ele><time>2026-04-12T10:40:44.678Z</time></trkpt><trkpt lat="44.984493" lon="8.0115398"><ele>186.0</ele><time>2026-04-12T10:40:45.679Z</time></trkpt><trkpt lat="44.9845917" lon="8.0114589"><ele>186.0</ele><time>2026-04-12T10:40:46.679Z</time></trkpt><trkpt lat="44.9846793" lon="8.011388"><ele>186.0</ele><time>2026-04-12T10:40:47.679Z</time></trkpt><trkpt lat="44.9847677" lon="8.0113225"><ele>186.0</ele><time>2026-04-12T10:40:48.679Z</time></trkpt><trkpt lat="44.9848493" lon="8.011257"><ele>186.0</ele><time>2026-04-12T10:40:49.679Z</time></trkpt><trkpt lat="44.9849241" lon="8.0111985"><ele>186.0</ele><time>2026-04-12T10:40:50.679Z</time></trkpt><trkpt lat="44.9849975" lon="8.0111471"><ele>185.83333333333334</ele><time>2026-04-12T10:40:51.678Z</time></trkpt><trkpt lat="44.9850694" lon="8.0110989"><ele>185.66666666666666</ele><time>2026-04-12T10:40:52.679Z</time></trkpt><trkpt lat="44.9851407" lon="8.0110387"><ele>185.5</ele><time>2026-04-12T10:40:53.679Z</time></trkpt><trkpt lat="44.985197" lon="8.010975"><ele>185.33333333333331</ele><time>2026-04-12T10:40:54.679Z</time></trkpt><trkpt lat="44.9852489" lon="8.0108931"><ele>185.16666666666666</ele><time>2026-04-12T10:40:55.679Z</time></trkpt><trkpt lat="44.985297" lon="8.0108069"><ele>185.0</ele><time>2026-04-12T10:40:56.679Z</time></trkpt><trkpt lat="44.9853352" lon="8.0106938"><ele>185.83333333333331</ele><time>2026-04-12T10:40:57.679Z</time></trkpt><trkpt lat="44.9853617" lon="8.010587"><ele>186.66666666666666</ele><time>2026-04-12T10:40:58.679Z</time></trkpt><trkpt lat="44.9853932" lon="8.0104975"><ele>187.5</ele><time>2026-04-12T10:40:59.679Z</time></trkpt><trkpt lat="44.985427" lon="8.0103986"><ele>188.33333333333334</ele><time>2026-04-12T10:41:00.679Z</time></trkpt><trkpt lat="44.9854698" lon="8.0103116"><ele>189.16666666666669</ele><time>2026-04-12T10:41:01.679Z</time></trkpt><trkpt lat="44.9855227" lon="8.0102494"><ele>190.0</ele><time>2026-04-12T10:41:02.678Z</time></trkpt><trkpt lat="44.9855992" lon="8.0102156"><ele>190.0</ele><time>2026-04-12T10:41:03.678Z</time></trkpt><trkpt lat="44.9856835" lon="8.0101946"><ele>190.0</ele><time>2026-04-12T10:41:04.679Z</time></trkpt><trkpt lat="44.9857684" lon="8.0101897"><ele>190.0</ele><time>2026-04-12T10:41:05.679Z</time></trkpt><trkpt lat="44.985859" lon="8.0101842"><ele>190.0</ele><time>2026-04-12T10:41:06.679Z</time></trkpt><trkpt lat="44.9859496" lon="8.0101747"><ele>190.0</ele><time>2026-04-12T10:41:07.679Z</time></trkpt><trkpt lat="44.98604" lon="8.0101686"><ele>190.0</ele><time>2026-04-12T10:41:08.679Z</time></trkpt><trkpt lat="44.9861271" lon="8.0101591"><ele>190.16666666666669</ele><time>2026-04-12T10:41:09.679Z</time></trkpt><trkpt lat="44.986205" lon="8.0101694"><ele>190.33333333333334</ele><time>2026-04-12T10:41:10.679Z</time></trkpt><trkpt lat="44.9862881" lon="8.0101813"><ele>190.5</ele><time>2026-04-12T10:41:11.679Z</time></trkpt><trkpt lat="44.9863606" lon="8.0102086"><ele>190.66666666666666</ele><time>2026-04-12T10:41:12.679Z</time></trkpt><trkpt lat="44.9864365" lon="8.0102406"><ele>190.83333333333331</ele><time>2026-04-12T10:41:13.679Z</time></trkpt><trkpt lat="44.9865068" lon="8.0102891"><ele>191.0</ele><time>2026-04-12T10:41:14.679Z</time></trkpt><trkpt lat="44.9865892" lon="8.010344"><ele>191.0</ele><time>2026-04-12T10:41:15.679Z</time></trkpt><trkpt lat="44.9866716" lon="8.0103973"><ele>191.0</ele><time>2026-04-12T10:41:16.678Z</time></trkpt><trkpt lat="44.9867664" lon="8.0104483"><ele>191.0</ele><time>2026-04-12T10:41:17.679Z</time></trkpt><trkpt lat="44.9868556" lon="8.01049"><ele>191.0</ele><time>2026-04-12T10:41:18.679Z</time></trkpt><trkpt lat="44.9869529" lon="8.0105207"><ele>191.0</ele><time>2026-04-12T10:41:19.679Z</time></trkpt><trkpt lat="44.9870466" lon="8.0105686"><ele>191.16666666666666</ele><time>2026-04-12T10:41:20.678Z</time></trkpt><trkpt lat="44.9871306" lon="8.0106214"><ele>191.33333333333331</ele><time>2026-04-12T10:41:21.679Z</time></trkpt><trkpt lat="44.9872183" lon="8.0106492"><ele>191.5</ele><time>2026-04-12T10:41:22.679Z</time></trkpt><trkpt lat="44.9872879" lon="8.0106783"><ele>191.66666666666666</ele><time>2026-04-12T10:41:23.679Z</time></trkpt><trkpt lat="44.9873568" lon="8.0107205"><ele>191.83333333333334</ele><time>2026-04-12T10:41:24.679Z</time></trkpt><trkpt lat="44.9874509" lon="8.0107698"><ele>192.0</ele><time>2026-04-12T10:41:26.679Z</time></trkpt><trkpt lat="44.9875113" lon="8.0108768"><ele>191.5</ele><time>2026-04-12T10:41:28.679Z</time></trkpt><trkpt lat="44.9875199" lon="8.0109687"><ele>191.0</ele><time>2026-04-12T10:41:29.679Z</time></trkpt><trkpt lat="44.9875271" lon="8.0110739"><ele>190.5</ele><time>2026-04-12T10:41:30.679Z</time></trkpt><trkpt lat="44.9875409" lon="8.0111991"><ele>190.0</ele><time>2026-04-12T10:41:31.679Z</time></trkpt><trkpt lat="44.9875453" lon="8.0113312"><ele>189.5</ele><time>2026-04-12T10:41:32.679Z</time></trkpt><trkpt lat="44.9875521" lon="8.0114825"><ele>189.0</ele><time>2026-04-12T10:41:33.679Z</time></trkpt><trkpt lat="44.9875599" lon="8.0116506"><ele>188.25</ele><time>2026-04-12T10:41:34.679Z</time></trkpt><trkpt lat="44.987564" lon="8.0118352"><ele>187.5</ele><time>2026-04-12T10:41:35.679Z</time></trkpt><trkpt lat="44.9875738" lon="8.0120158"><ele>186.75</ele><time>2026-04-12T10:41:36.679Z</time></trkpt><trkpt lat="44.9875825" lon="8.0122089"><ele>186.0</ele><time>2026-04-12T10:41:37.679Z</time></trkpt><trkpt lat="44.9875968" lon="8.0124162"><ele>185.75</ele><time>2026-04-12T10:41:38.679Z</time></trkpt><trkpt lat="44.9876105" lon="8.0126357"><ele>185.5</ele><time>2026-04-12T10:41:39.679Z</time></trkpt><trkpt lat="44.9876136" lon="8.0128396"><ele>185.25</ele><time>2026-04-12T10:41:40.679Z</time></trkpt><trkpt lat="44.9876124" lon="8.0130417"><ele>185.0</ele><time>2026-04-12T10:41:41.679Z</time></trkpt><trkpt lat="44.9875919" lon="8.0132549"><ele>184.75</ele><time>2026-04-12T10:41:42.679Z</time></trkpt><trkpt lat="44.9875618" lon="8.0134589"><ele>184.5</ele><time>2026-04-12T10:41:43.678Z</time></trkpt><trkpt lat="44.9875112" lon="8.0136579"><ele>184.25</ele><time>2026-04-12T10:41:44.679Z</time></trkpt><trkpt lat="44.9874613" lon="8.0138585"><ele>184.0</ele><time>2026-04-12T10:41:45.679Z</time></trkpt><trkpt lat="44.9874015" lon="8.0140608"><ele>185.33333333333334</ele><time>2026-04-12T10:41:46.679Z</time></trkpt><trkpt lat="44.9873547" lon="8.014264"><ele>186.66666666666666</ele><time>2026-04-12T10:41:47.679Z</time></trkpt><trkpt lat="44.987327" lon="8.0144736"><ele>188.0</ele><time>2026-04-12T10:41:48.679Z</time></trkpt><trkpt lat="44.9873124" lon="8.0146961"><ele>188.0</ele><time>2026-04-12T10:41:49.679Z</time></trkpt><trkpt lat="44.9872967" lon="8.0149109"><ele>188.0</ele><time>2026-04-12T10:41:50.679Z</time></trkpt><trkpt lat="44.98728" lon="8.0151206"><ele>188.0</ele><time>2026-04-12T10:41:51.679Z</time></trkpt><trkpt lat="44.9872733" lon="8.0153349"><ele>187.5</ele><time>2026-04-12T10:41:52.679Z</time></trkpt><trkpt lat="44.9872621" lon="8.0155466"><ele>187.0</ele><time>2026-04-12T10:41:53.679Z</time></trkpt><trkpt lat="44.9872515" lon="8.0157556"><ele>186.5</ele><time>2026-04-12T10:41:54.679Z</time></trkpt><trkpt lat="44.9872369" lon="8.0159609"><ele>186.0</ele><time>2026-04-12T10:41:55.679Z</time></trkpt><trkpt lat="44.9872347" lon="8.0161636"><ele>186.0</ele><time>2026-04-12T10:41:56.679Z</time></trkpt><trkpt lat="44.987229" lon="8.0163543"><ele>186.0</ele><time>2026-04-12T10:41:57.679Z</time></trkpt><trkpt lat="44.9872211" lon="8.0165142"><ele>186.0</ele><time>2026-04-12T10:41:58.679Z</time></trkpt><trkpt lat="44.9872135" lon="8.0166756"><ele>186.0</ele><time>2026-04-12T10:41:59.679Z</time></trkpt><trkpt lat="44.9872005" lon="8.0168128"><ele>186.00000000000003</ele><time>2026-04-12T10:42:00.679Z</time></trkpt><trkpt lat="44.9871874" lon="8.0169241"><ele>186.0</ele><time>2026-04-12T10:42:01.679Z</time></trkpt><trkpt lat="44.9871783" lon="8.0170134"><ele>186.0</ele><time>2026-04-12T10:42:02.679Z</time></trkpt><trkpt lat="44.9871822" lon="8.0171049"><ele>186.0</ele><time>2026-04-12T10:42:03.679Z</time></trkpt><trkpt lat="44.9872187" lon="8.017191"><ele>186.0</ele><time>2026-04-12T10:42:04.679Z</time></trkpt><trkpt lat="44.9872851" lon="8.0172486"><ele>186.00000000000003</ele><time>2026-04-12T10:42:05.679Z</time></trkpt><trkpt lat="44.9873666" lon="8.0172935"><ele>186.0</ele><time>2026-04-12T10:42:06.679Z</time></trkpt><trkpt lat="44.987463" lon="8.0173358"><ele>186.25</ele><time>2026-04-12T10:42:07.679Z</time></trkpt><trkpt lat="44.9875736" lon="8.0173856"><ele>186.5</ele><time>2026-04-12T10:42:08.679Z</time></trkpt><trkpt lat="44.9876989" lon="8.0174508"><ele>186.75</ele><time>2026-04-12T10:42:09.679Z</time></trkpt><trkpt lat="44.9878177" lon="8.0175105"><ele>187.0</ele><time>2026-04-12T10:42:10.679Z</time></trkpt><trkpt lat="44.9879405" lon="8.0175792"><ele>187.25</ele><time>2026-04-12T10:42:11.679Z</time></trkpt><trkpt lat="44.9880685" lon="8.0176515"><ele>187.5</ele><time>2026-04-12T10:42:12.679Z</time></trkpt><trkpt lat="44.9882021" lon="8.0177256"><ele>187.75</ele><time>2026-04-12T10:42:13.679Z</time></trkpt><trkpt lat="44.9883439" lon="8.017795"><ele>188.0</ele><time>2026-04-12T10:42:14.679Z</time></trkpt><trkpt lat="44.9884818" lon="8.0178647"><ele>188.66666666666666</ele><time>2026-04-12T10:42:15.679Z</time></trkpt><trkpt lat="44.9886311" lon="8.0179429"><ele>189.33333333333334</ele><time>2026-04-12T10:42:16.679Z</time></trkpt><trkpt lat="44.9887777" lon="8.0180216"><ele>190.0</ele><time>2026-04-12T10:42:17.678Z</time></trkpt><trkpt lat="44.9889245" lon="8.0180997"><ele>190.0</ele><time>2026-04-12T10:42:18.679Z</time></trkpt><trkpt lat="44.989079" lon="8.0181747"><ele>190.0</ele><time>2026-04-12T10:42:19.679Z</time></trkpt><trkpt lat="44.9892263" lon="8.0182495"><ele>190.0</ele><time>2026-04-12T10:42:20.679Z</time></trkpt><trkpt lat="44.989375" lon="8.018326"><ele>188.66666666666669</ele><time>2026-04-12T10:42:21.679Z</time></trkpt><trkpt lat="44.9895265" lon="8.0184072"><ele>187.33333333333334</ele><time>2026-04-12T10:42:22.679Z</time></trkpt><trkpt lat="44.9896814" lon="8.0184757"><ele>186.0</ele><time>2026-04-12T10:42:23.679Z</time></trkpt><trkpt lat="44.9898404" lon="8.0185448"><ele>186.0</ele><time>2026-04-12T10:42:24.679Z</time></trkpt><trkpt lat="44.9899936" lon="8.0186177"><ele>186.0</ele><time>2026-04-12T10:42:25.679Z</time></trkpt><trkpt lat="44.9901488" lon="8.0187021"><ele>186.0</ele><time>2026-04-12T10:42:26.679Z</time></trkpt><trkpt lat="44.9903009" lon="8.0187813"><ele>185.33333333333334</ele><time>2026-04-12T10:42:27.679Z</time></trkpt><trkpt lat="44.9904621" lon="8.018861"><ele>184.66666666666669</ele><time>2026-04-12T10:42:28.678Z</time></trkpt><trkpt lat="44.9906137" lon="8.0189389"><ele>184.0</ele><time>2026-04-12T10:42:29.679Z</time></trkpt><trkpt lat="44.9907697" lon="8.0190156"><ele>184.0</ele><time>2026-04-12T10:42:30.678Z</time></trkpt><trkpt lat="44.9909101" lon="8.0190912"><ele>184.0</ele><time>2026-04-12T10:42:31.679Z</time></trkpt><trkpt lat="44.9910444" lon="8.0191583"><ele>184.0</ele><time>2026-04-12T10:42:32.679Z</time></trkpt><trkpt lat="44.9911701" lon="8.0192247"><ele>184.0</ele><time>2026-04-12T10:42:33.679Z</time></trkpt><trkpt lat="44.9912919" lon="8.0192848"><ele>184.0</ele><time>2026-04-12T10:42:34.679Z</time></trkpt><trkpt lat="44.9914006" lon="8.0193446"><ele>184.0</ele><time>2026-04-12T10:42:35.679Z</time></trkpt><trkpt lat="44.9915034" lon="8.0194051"><ele>184.0</ele><time>2026-04-12T10:42:36.679Z</time></trkpt><trkpt lat="44.9915958" lon="8.01946"><ele>184.0</ele><time>2026-04-12T10:42:37.678Z</time></trkpt><trkpt lat="44.9916907" lon="8.0195124"><ele>184.0</ele><time>2026-04-12T10:42:38.679Z</time></trkpt><trkpt lat="44.9917909" lon="8.0195712"><ele>184.2</ele><time>2026-04-12T10:42:39.679Z</time></trkpt><trkpt lat="44.9918858" lon="8.0196227"><ele>184.39999999999998</ele><time>2026-04-12T10:42:40.679Z</time></trkpt><trkpt lat="44.9919853" lon="8.0196746"><ele>184.6</ele><time>2026-04-12T10:42:41.679Z</time></trkpt><trkpt lat="44.9920787" lon="8.0197315"><ele>184.8</ele><time>2026-04-12T10:42:42.679Z</time></trkpt><trkpt lat="44.9921919" lon="8.0197847"><ele>185.0</ele><time>2026-04-12T10:42:43.679Z</time></trkpt><trkpt lat="44.9923056" lon="8.019837"><ele>185.0</ele><time>2026-04-12T10:42:44.679Z</time></trkpt><trkpt lat="44.9924231" lon="8.0198989"><ele>185.0</ele><time>2026-04-12T10:42:45.679Z</time></trkpt><trkpt lat="44.9925395" lon="8.0199552"><ele>185.0</ele><time>2026-04-12T10:42:46.679Z</time></trkpt><trkpt lat="44.9926483" lon="8.0200154"><ele>185.0</ele><time>2026-04-12T10:42:47.678Z</time></trkpt><trkpt lat="44.9927619" lon="8.0200685"><ele>185.0</ele><time>2026-04-12T10:42:48.679Z</time></trkpt><trkpt lat="44.99287" lon="8.0201142"><ele>185.0</ele><time>2026-04-12T10:42:49.679Z</time></trkpt><trkpt lat="44.9929703" lon="8.0201524"><ele>185.0</ele><time>2026-04-12T10:42:50.679Z</time></trkpt><trkpt lat="44.993069" lon="8.0201704"><ele>185.0</ele><time>2026-04-12T10:42:51.679Z</time></trkpt><trkpt lat="44.9931624" lon="8.020138"><ele>185.0</ele><time>2026-04-12T10:42:52.679Z</time></trkpt><trkpt lat="44.9932531" lon="8.0200545"><ele>185.0</ele><time>2026-04-12T10:42:53.679Z</time></trkpt><trkpt lat="44.9933326" lon="8.0199275"><ele>185.0</ele><time>2026-04-12T10:42:54.679Z</time></trkpt><trkpt lat="44.9934156" lon="8.0197864"><ele>185.0</ele><time>2026-04-12T10:42:55.679Z</time></trkpt><trkpt lat="44.9934923" lon="8.0196386"><ele>185.0</ele><time>2026-04-12T10:42:56.679Z</time></trkpt><trkpt lat="44.9935712" lon="8.019478"><ele>185.0</ele><time>2026-04-12T10:42:57.679Z</time></trkpt><trkpt lat="44.9936585" lon="8.0193144"><ele>185.0</ele><time>2026-04-12T10:42:58.678Z</time></trkpt><trkpt lat="44.9937466" lon="8.0191396"><ele>185.0</ele><time>2026-04-12T10:42:59.679Z</time></trkpt><trkpt lat="44.9938306" lon="8.0189686"><ele>185.0</ele><time>2026-04-12T10:43:00.679Z</time></trkpt><trkpt lat="44.9939186" lon="8.0187975"><ele>185.0</ele><time>2026-04-12T10:43:01.678Z</time></trkpt><trkpt lat="44.9940086" lon="8.0186034"><ele>185.0</ele><time>2026-04-12T10:43:02.679Z</time></trkpt><trkpt lat="44.9940946" lon="8.0184318"><ele>185.0</ele><time>2026-04-12T10:43:03.679Z</time></trkpt><trkpt lat="44.9941695" lon="8.018238"><ele>185.0</ele><time>2026-04-12T10:43:04.679Z</time></trkpt><trkpt lat="44.9942251" lon="8.018025"><ele>185.0</ele><time>2026-04-12T10:43:05.679Z</time></trkpt><trkpt lat="44.9942644" lon="8.0178072"><ele>185.0</ele><time>2026-04-12T10:43:06.679Z</time></trkpt><trkpt lat="44.9942961" lon="8.0175804"><ele>185.0</ele><time>2026-04-12T10:43:07.679Z</time></trkpt><trkpt lat="44.9943276" lon="8.0173523"><ele>185.0</ele><time>2026-04-12T10:43:08.679Z</time></trkpt><trkpt lat="44.9943622" lon="8.0171279"><ele>185.0</ele><time>2026-04-12T10:43:09.679Z</time></trkpt><trkpt lat="44.9943925" lon="8.016898"><ele>185.0</ele><time>2026-04-12T10:43:10.679Z</time></trkpt><trkpt lat="44.994426" lon="8.0166692"><ele>185.0</ele><time>2026-04-12T10:43:11.679Z</time></trkpt><trkpt lat="44.9944598" lon="8.0164349"><ele>185.0</ele><time>2026-04-12T10:43:12.679Z</time></trkpt><trkpt lat="44.9945016" lon="8.016198"><ele>185.66666666666666</ele><time>2026-04-12T10:43:13.678Z</time></trkpt><trkpt lat="44.994539" lon="8.0159611"><ele>186.33333333333334</ele><time>2026-04-12T10:43:14.679Z</time></trkpt><trkpt lat="44.9945744" lon="8.0157253"><ele>187.0</ele><time>2026-04-12T10:43:15.678Z</time></trkpt><trkpt lat="44.994614" lon="8.0154996"><ele>187.33333333333334</ele><time>2026-04-12T10:43:16.678Z</time></trkpt><trkpt lat="44.994651" lon="8.0152782"><ele>187.66666666666666</ele><time>2026-04-12T10:43:17.679Z</time></trkpt><trkpt lat="44.9946922" lon="8.0150533"><ele>188.0</ele><time>2026-04-12T10:43:18.679Z</time></trkpt><trkpt lat="44.9947364" lon="8.0148137"><ele>188.0</ele><time>2026-04-12T10:43:19.679Z</time></trkpt><trkpt lat="44.99477" lon="8.0145987"><ele>188.0</ele><time>2026-04-12T10:43:20.679Z</time></trkpt><trkpt lat="44.9947988" lon="8.0143751"><ele>188.0</ele><time>2026-04-12T10:43:21.679Z</time></trkpt><trkpt lat="44.9948321" lon="8.0141512"><ele>187.66666666666666</ele><time>2026-04-12T10:43:22.679Z</time></trkpt><trkpt lat="44.9948814" lon="8.0139321"><ele>187.33333333333334</ele><time>2026-04-12T10:43:23.679Z</time></trkpt><trkpt lat="44.9949442" lon="8.0137245"><ele>187.0</ele><time>2026-04-12T10:43:24.678Z</time></trkpt><trkpt lat="44.995017" lon="8.0135137"><ele>188.66666666666669</ele><time>2026-04-12T10:43:25.679Z</time></trkpt><trkpt lat="44.9951111" lon="8.0133173"><ele>190.33333333333334</ele><time>2026-04-12T10:43:26.679Z</time></trkpt><trkpt lat="44.995221" lon="8.0131404"><ele>192.0</ele><time>2026-04-12T10:43:27.679Z</time></trkpt><trkpt lat="44.9953416" lon="8.0129811"><ele>192.0</ele><time>2026-04-12T10:43:28.679Z</time></trkpt><trkpt lat="44.9954767" lon="8.0128477"><ele>192.0</ele><time>2026-04-12T10:43:29.679Z</time></trkpt><trkpt lat="44.9956061" lon="8.0127096"><ele>192.0</ele><time>2026-04-12T10:43:30.679Z</time></trkpt><trkpt lat="44.9957339" lon="8.0125681"><ele>191.0</ele><time>2026-04-12T10:43:31.678Z</time></trkpt><trkpt lat="44.9958642" lon="8.0124244"><ele>190.0</ele><time>2026-04-12T10:43:32.679Z</time></trkpt><trkpt lat="44.9959936" lon="8.0122885"><ele>189.0</ele><time>2026-04-12T10:43:33.679Z</time></trkpt><trkpt lat="44.9961257" lon="8.0121366"><ele>189.0</ele><time>2026-04-12T10:43:34.679Z</time></trkpt><trkpt lat="44.9962561" lon="8.0119888"><ele>189.0</ele><time>2026-04-12T10:43:35.679Z</time></trkpt><trkpt lat="44.9963955" lon="8.0118451"><ele>189.0</ele><time>2026-04-12T10:43:36.679Z</time></trkpt><trkpt lat="44.9965266" lon="8.0117074"><ele>189.0</ele><time>2026-04-12T10:43:37.679Z</time></trkpt><trkpt lat="44.9966624" lon="8.0115675"><ele>189.0</ele><time>2026-04-12T10:43:38.679Z</time></trkpt><trkpt lat="44.996791" lon="8.0114234"><ele>189.0</ele><time>2026-04-12T10:43:39.678Z</time></trkpt><trkpt lat="44.9969337" lon="8.0112807"><ele>189.0</ele><time>2026-04-12T10:43:40.679Z</time></trkpt><trkpt lat="44.9970591" lon="8.0111341"><ele>189.0</ele><time>2026-04-12T10:43:41.678Z</time></trkpt><trkpt lat="44.9971898" lon="8.0109932"><ele>189.0</ele><time>2026-04-12T10:43:42.679Z</time></trkpt><trkpt lat="44.9973257" lon="8.0108564"><ele>189.33333333333334</ele><time>2026-04-12T10:43:43.679Z</time></trkpt><trkpt lat="44.9974566" lon="8.0107077"><ele>189.66666666666669</ele><time>2026-04-12T10:43:44.679Z</time></trkpt><trkpt lat="44.9975839" lon="8.0105679"><ele>190.0</ele><time>2026-04-12T10:43:45.679Z</time></trkpt><trkpt lat="44.9977152" lon="8.0104257"><ele>190.0</ele><time>2026-04-12T10:43:46.679Z</time></trkpt><trkpt lat="44.9978467" lon="8.0102878"><ele>190.0</ele><time>2026-04-12T10:43:47.679Z</time></trkpt><trkpt lat="44.9979814" lon="8.0101434"><ele>190.0</ele><time>2026-04-12T10:43:48.679Z</time></trkpt><trkpt lat="44.9981191" lon="8.0100029"><ele>190.33333333333334</ele><time>2026-04-12T10:43:49.679Z</time></trkpt><trkpt lat="44.998253" lon="8.009856"><ele>190.66666666666666</ele><time>2026-04-12T10:43:50.679Z</time></trkpt><trkpt lat="44.9983889" lon="8.0097119"><ele>191.0</ele><time>2026-04-12T10:43:51.679Z</time></trkpt><trkpt lat="44.9985254" lon="8.0095689"><ele>191.0</ele><time>2026-04-12T10:43:52.679Z</time></trkpt><trkpt lat="44.9986596" lon="8.0094267"><ele>191.0</ele><time>2026-04-12T10:43:53.679Z</time></trkpt><trkpt lat="44.9988005" lon="8.0092672"><ele>191.0</ele><time>2026-04-12T10:43:54.679Z</time></trkpt><trkpt lat="44.9989355" lon="8.0091187"><ele>191.33333333333331</ele><time>2026-04-12T10:43:55.679Z</time></trkpt><trkpt lat="44.9990699" lon="8.0089734"><ele>191.66666666666666</ele><time>2026-04-12T10:43:56.679Z</time></trkpt><trkpt lat="44.9992024" lon="8.0088327"><ele>192.0</ele><time>2026-04-12T10:43:57.679Z</time></trkpt><trkpt lat="44.9993376" lon="8.0086841"><ele>192.66666666666669</ele><time>2026-04-12T10:43:58.679Z</time></trkpt><trkpt lat="44.9994697" lon="8.0085312"><ele>193.33333333333334</ele><time>2026-04-12T10:43:59.678Z</time></trkpt><trkpt lat="44.9996071" lon="8.008401"><ele>194.0</ele><time>2026-04-12T10:44:00.679Z</time></trkpt><trkpt lat="44.99975" lon="8.0082927"><ele>194.0</ele><time>2026-04-12T10:44:01.679Z</time></trkpt><trkpt lat="44.9999014" lon="8.0082177"><ele>194.0</ele><time>2026-04-12T10:44:02.679Z</time></trkpt><trkpt lat="45.0000594" lon="8.0081724"><ele>194.0</ele><time>2026-04-12T10:44:03.679Z</time></trkpt><trkpt lat="45.000215" lon="8.0081767"><ele>194.0</ele><time>2026-04-12T10:44:04.679Z</time></trkpt><trkpt lat="45.0003734" lon="8.0081926"><ele>194.0</ele><time>2026-04-12T10:44:05.679Z</time></trkpt><trkpt lat="45.000528" lon="8.0082083"><ele>194.0</ele><time>2026-04-12T10:44:06.679Z</time></trkpt><trkpt lat="45.0006858" lon="8.0081863"><ele>195.66666666666669</ele><time>2026-04-12T10:44:07.679Z</time></trkpt><trkpt lat="45.0008374" lon="8.008126"><ele>197.33333333333331</ele><time>2026-04-12T10:44:08.679Z</time></trkpt><trkpt lat="45.0009824" lon="8.0080241"><ele>199.0</ele><time>2026-04-12T10:44:09.679Z</time></trkpt><trkpt lat="45.0011197" lon="8.0079038"><ele>199.0</ele><time>2026-04-12T10:44:10.679Z</time></trkpt><trkpt lat="45.0012562" lon="8.0077695"><ele>199.0</ele><time>2026-04-12T10:44:11.679Z</time></trkpt><trkpt lat="45.0014002" lon="8.007625"><ele>199.0</ele><time>2026-04-12T10:44:12.679Z</time></trkpt><trkpt lat="45.0015457" lon="8.0074888"><ele>197.0</ele><time>2026-04-12T10:44:13.679Z</time></trkpt><trkpt lat="45.0016916" lon="8.0073638"><ele>195.0</ele><time>2026-04-12T10:44:14.679Z</time></trkpt><trkpt lat="45.0018384" lon="8.0072427"><ele>193.0</ele><time>2026-04-12T10:44:15.679Z</time></trkpt><trkpt lat="45.0019852" lon="8.0071239"><ele>193.0</ele><time>2026-04-12T10:44:16.679Z</time></trkpt><trkpt lat="45.0021291" lon="8.0070118"><ele>193.0</ele><time>2026-04-12T10:44:17.679Z</time></trkpt><trkpt lat="45.0022704" lon="8.0068975"><ele>193.0</ele><time>2026-04-12T10:44:18.679Z</time></trkpt><trkpt lat="45.0024043" lon="8.0068045"><ele>193.0</ele><time>2026-04-12T10:44:19.679Z</time></trkpt><trkpt lat="45.0025197" lon="8.0067188"><ele>193.0</ele><time>2026-04-12T10:44:20.679Z</time></trkpt><trkpt lat="45.0026394" lon="8.0066383"><ele>193.0</ele><time>2026-04-12T10:44:21.679Z</time></trkpt><trkpt lat="45.0027554" lon="8.0065484"><ele>193.0</ele><time>2026-04-12T10:44:22.678Z</time></trkpt><trkpt lat="45.0028591" lon="8.0064783"><ele>193.0</ele><time>2026-04-12T10:44:23.679Z</time></trkpt><trkpt lat="45.0029587" lon="8.0064172"><ele>193.0</ele><time>2026-04-12T10:44:24.679Z</time></trkpt><trkpt lat="45.0030384" lon="8.0063426"><ele>193.0</ele><time>2026-04-12T10:44:25.679Z</time></trkpt><trkpt lat="45.0030953" lon="8.0062367"><ele>193.0</ele><time>2026-04-12T10:44:26.679Z</time></trkpt><trkpt lat="45.0031272" lon="8.0061047"><ele>193.0</ele><time>2026-04-12T10:44:27.679Z</time></trkpt><trkpt lat="45.0031273" lon="8.0059549"><ele>193.25</ele><time>2026-04-12T10:44:28.678Z</time></trkpt><trkpt lat="45.0031046" lon="8.0057953"><ele>193.5</ele><time>2026-04-12T10:44:29.679Z</time></trkpt><trkpt lat="45.0030669" lon="8.0056242"><ele>193.75</ele><time>2026-04-12T10:44:30.679Z</time></trkpt><trkpt lat="45.003015" lon="8.0054431"><ele>194.0</ele><time>2026-04-12T10:44:31.679Z</time></trkpt><trkpt lat="45.0029661" lon="8.0052635"><ele>194.0</ele><time>2026-04-12T10:44:32.679Z</time></trkpt><trkpt lat="45.0029178" lon="8.005076"><ele>194.0</ele><time>2026-04-12T10:44:33.679Z</time></trkpt><trkpt lat="45.0028664" lon="8.0048732"><ele>194.0</ele><time>2026-04-12T10:44:34.679Z</time></trkpt><trkpt lat="45.002812" lon="8.0046772"><ele>194.0</ele><time>2026-04-12T10:44:35.679Z</time></trkpt><trkpt lat="45.0027604" lon="8.0044688"><ele>196.0</ele><time>2026-04-12T10:44:36.679Z</time></trkpt><trkpt lat="45.0027073" lon="8.0042522"><ele>198.0</ele><time>2026-04-12T10:44:37.679Z</time></trkpt><trkpt lat="45.0026506" lon="8.0040361"><ele>200.0</ele><time>2026-04-12T10:44:38.679Z</time></trkpt><trkpt lat="45.0026008" lon="8.0038241"><ele>202.0</ele><time>2026-04-12T10:44:39.679Z</time></trkpt><trkpt lat="45.0025486" lon="8.0036143"><ele>204.0</ele><time>2026-04-12T10:44:40.679Z</time></trkpt><trkpt lat="45.0024983" lon="8.0034032"><ele>206.0</ele><time>2026-04-12T10:44:41.679Z</time></trkpt><trkpt lat="45.0024522" lon="8.0031885"><ele>208.66666666666669</ele><time>2026-04-12T10:44:42.678Z</time></trkpt><trkpt lat="45.0023981" lon="8.0029789"><ele>211.33333333333331</ele><time>2026-04-12T10:44:43.679Z</time></trkpt><trkpt lat="45.002347" lon="8.0027691"><ele>214.0</ele><time>2026-04-12T10:44:44.679Z</time></trkpt><trkpt lat="45.0022884" lon="8.0025603"><ele>212.33333333333331</ele><time>2026-04-12T10:44:45.679Z</time></trkpt><trkpt lat="45.0022354" lon="8.0023533"><ele>210.66666666666669</ele><time>2026-04-12T10:44:46.679Z</time></trkpt><trkpt lat="45.0021804" lon="8.0021479"><ele>209.0</ele><time>2026-04-12T10:44:47.678Z</time></trkpt><trkpt lat="45.0021304" lon="8.00195"><ele>209.0</ele><time>2026-04-12T10:44:48.679Z</time></trkpt><trkpt lat="45.0020905" lon="8.0017952"><ele>209.0</ele><time>2026-04-12T10:44:49.679Z</time></trkpt><trkpt lat="45.0020567" lon="8.001627"><ele>209.0</ele><time>2026-04-12T10:44:50.679Z</time></trkpt><trkpt lat="45.0020303" lon="8.0014745"><ele>209.0</ele><time>2026-04-12T10:44:51.679Z</time></trkpt><trkpt lat="45.0020256" lon="8.0013199"><ele>210.0</ele><time>2026-04-12T10:44:52.678Z</time></trkpt><trkpt lat="45.002047" lon="8.0011759"><ele>211.0</ele><time>2026-04-12T10:44:53.679Z</time></trkpt><trkpt lat="45.0020967" lon="8.0010399"><ele>211.99999999999997</ele><time>2026-04-12T10:44:54.679Z</time></trkpt><trkpt lat="45.0021629" lon="8.0008993"><ele>213.0</ele><time>2026-04-12T10:44:55.679Z</time></trkpt><trkpt lat="45.0022296" lon="8.0007732"><ele>214.0</ele><time>2026-04-12T10:44:56.679Z</time></trkpt><trkpt lat="45.0022919" lon="8.0006639"><ele>215.2</ele><time>2026-04-12T10:44:57.679Z</time></trkpt><trkpt lat="45.0023575" lon="8.0005444"><ele>216.39999999999998</ele><time>2026-04-12T10:44:58.679Z</time></trkpt><trkpt lat="45.0024069" lon="8.0004053"><ele>217.6</ele><time>2026-04-12T10:44:59.678Z</time></trkpt><trkpt lat="45.0024643" lon="8.0002859"><ele>218.8</ele><time>2026-04-12T10:45:00.679Z</time></trkpt><trkpt lat="45.0025346" lon="8.0001686"><ele>220.0</ele><time>2026-04-12T10:45:01.679Z</time></trkpt><trkpt lat="45.0026246" lon="8.0000809"><ele>220.0</ele><time>2026-04-12T10:45:02.679Z</time></trkpt><trkpt lat="45.0027141" lon="8.0000075"><ele>220.0</ele><time>2026-04-12T10:45:03.679Z</time></trkpt><trkpt lat="45.0028219" lon="7.9999815"><ele>220.0</ele><time>2026-04-12T10:45:04.679Z</time></trkpt><trkpt lat="45.0029272" lon="7.9999848"><ele>220.0</ele><time>2026-04-12T10:45:05.679Z</time></trkpt><trkpt lat="45.0030213" lon="8.0000307"><ele>220.0</ele><time>2026-04-12T10:45:06.679Z</time></trkpt><trkpt lat="45.0031" lon="8.0001267"><ele>219.99999999999997</ele><time>2026-04-12T10:45:07.679Z</time></trkpt><trkpt lat="45.0031487" lon="8.0002644"><ele>220.0</ele><time>2026-04-12T10:45:08.679Z</time></trkpt><trkpt lat="45.0031627" lon="8.0004172"><ele>220.0</ele><time>2026-04-12T10:45:09.679Z</time></trkpt><trkpt lat="45.0031274" lon="8.0005322"><ele>220.0</ele><time>2026-04-12T10:45:10.679Z</time></trkpt><trkpt lat="45.0030884" lon="8.000616"><ele>219.99999999999997</ele><time>2026-04-12T10:45:11.679Z</time></trkpt><trkpt lat="45.0030542" lon="8.0007003"><ele>220.0</ele><time>2026-04-12T10:45:12.679Z</time></trkpt><trkpt lat="45.0030327" lon="8.0007883"><ele>220.6</ele><time>2026-04-12T10:45:13.679Z</time></trkpt><trkpt lat="45.0030186" lon="8.0009521"><ele>221.2</ele><time>2026-04-12T10:45:15.679Z</time></trkpt><trkpt lat="45.0030465" lon="8.0010335"><ele>221.8</ele><time>2026-04-12T10:45:16.678Z</time></trkpt><trkpt lat="45.0031576" lon="8.001094"><ele>222.4</ele><time>2026-04-12T10:45:18.679Z</time></trkpt><trkpt lat="45.0032308" lon="8.0010556"><ele>223.0</ele><time>2026-04-12T10:45:19.679Z</time></trkpt><trkpt lat="45.0033115" lon="8.0009831"><ele>227.25</ele><time>2026-04-12T10:45:20.679Z</time></trkpt><trkpt lat="45.003393" lon="8.0008722"><ele>231.5</ele><time>2026-04-12T10:45:21.679Z</time></trkpt><trkpt lat="45.0034679" lon="8.000761"><ele>235.75</ele><time>2026-04-12T10:45:22.679Z</time></trkpt><trkpt lat="45.0035444" lon="8.0006431"><ele>240.0</ele><time>2026-04-12T10:45:23.679Z</time></trkpt><trkpt lat="45.0036147" lon="8.0004986"><ele>240.0</ele><time>2026-04-12T10:45:24.679Z</time></trkpt><trkpt lat="45.0036808" lon="8.0003427"><ele>240.0</ele><time>2026-04-12T10:45:25.679Z</time></trkpt><trkpt lat="45.0037394" lon="8.0001736"><ele>240.0</ele><time>2026-04-12T10:45:26.679Z</time></trkpt><trkpt lat="45.0038023" lon="7.9999987"><ele>240.0</ele><time>2026-04-12T10:45:27.679Z</time></trkpt><trkpt lat="45.0038515" lon="7.9998225"><ele>240.0</ele><time>2026-04-12T10:45:28.679Z</time></trkpt><trkpt lat="45.0039033" lon="7.9996429"><ele>240.0</ele><time>2026-04-12T10:45:29.679Z</time></trkpt><trkpt lat="45.0039449" lon="7.9994608"><ele>240.0</ele><time>2026-04-12T10:45:30.679Z</time></trkpt><trkpt lat="45.0039859" lon="7.9992768"><ele>240.0</ele><time>2026-04-12T10:45:31.679Z</time></trkpt><trkpt lat="45.0040229" lon="7.9991097"><ele>239.75</ele><time>2026-04-12T10:45:32.678Z</time></trkpt><trkpt lat="45.0040649" lon="7.9989381"><ele>239.5</ele><time>2026-04-12T10:45:33.679Z</time></trkpt><trkpt lat="45.004114" lon="7.998756"><ele>239.25</ele><time>2026-04-12T10:45:34.679Z</time></trkpt><trkpt lat="45.0041532" lon="7.9985754"><ele>239.0</ele><time>2026-04-12T10:45:35.679Z</time></trkpt><trkpt lat="45.0041947" lon="7.9984006"><ele>239.0</ele><time>2026-04-12T10:45:36.679Z</time></trkpt><trkpt lat="45.0042167" lon="7.9982241"><ele>239.0</ele><time>2026-04-12T10:45:37.679Z</time></trkpt><trkpt lat="45.0042031" lon="7.9980493"><ele>239.0</ele><time>2026-04-12T10:45:38.679Z</time></trkpt><trkpt lat="45.0041695" lon="7.9978882"><ele>239.0</ele><time>2026-04-12T10:45:39.679Z</time></trkpt><trkpt lat="45.0041092" lon="7.997746"><ele>239.0</ele><time>2026-04-12T10:45:40.679Z</time></trkpt><trkpt lat="45.0040303" lon="7.9976107"><ele>239.0</ele><time>2026-04-12T10:45:41.679Z</time></trkpt><trkpt lat="45.0039378" lon="7.9974746"><ele>239.0</ele><time>2026-04-12T10:45:42.679Z</time></trkpt><trkpt lat="45.0038429" lon="7.9973332"><ele>239.0</ele><time>2026-04-12T10:45:43.679Z</time></trkpt><trkpt lat="45.0037481" lon="7.9971855"><ele>241.75</ele><time>2026-04-12T10:45:44.679Z</time></trkpt><trkpt lat="45.0036515" lon="7.9970623"><ele>244.5</ele><time>2026-04-12T10:45:45.678Z</time></trkpt><trkpt lat="45.0035565" lon="7.9969685"><ele>247.25</ele><time>2026-04-12T10:45:46.679Z</time></trkpt><trkpt lat="45.0034623" lon="7.9968948"><ele>250.0</ele><time>2026-04-12T10:45:47.679Z</time></trkpt><trkpt lat="45.0033654" lon="7.9968356"><ele>250.66666666666666</ele><time>2026-04-12T10:45:48.679Z</time></trkpt><trkpt lat="45.0032824" lon="7.996787"><ele>251.33333333333331</ele><time>2026-04-12T10:45:49.679Z</time></trkpt><trkpt lat="45.0032273" lon="7.996719"><ele>252.0</ele><time>2026-04-12T10:45:50.679Z</time></trkpt><trkpt lat="45.003194" lon="7.996636"><ele>252.66666666666669</ele><time>2026-04-12T10:45:51.679Z</time></trkpt><trkpt lat="45.0031936" lon="7.9965357"><ele>253.33333333333334</ele><time>2026-04-12T10:45:52.679Z</time></trkpt><trkpt lat="45.0032438" lon="7.9964158"><ele>254.0</ele><time>2026-04-12T10:45:53.679Z</time></trkpt><trkpt lat="45.0033001" lon="7.9962975"><ele>255.0</ele><time>2026-04-12T10:45:54.679Z</time></trkpt><trkpt lat="45.0033547" lon="7.9961651"><ele>256.0</ele><time>2026-04-12T10:45:55.679Z</time></trkpt><trkpt lat="45.0034228" lon="7.9960316"><ele>257.0</ele><time>2026-04-12T10:45:56.679Z</time></trkpt><trkpt lat="45.0034959" lon="7.9958911"><ele>258.0</ele><time>2026-04-12T10:45:57.678Z</time></trkpt><trkpt lat="45.0035773" lon="7.9957492"><ele>255.75</ele><time>2026-04-12T10:45:58.679Z</time></trkpt><trkpt lat="45.0036659" lon="7.9956354"><ele>253.5</ele><time>2026-04-12T10:45:59.679Z</time></trkpt><trkpt lat="45.0037727" lon="7.9955513"><ele>251.25</ele><time>2026-04-12T10:46:00.679Z</time></trkpt><trkpt lat="45.0038981" lon="7.9955066"><ele>249.0</ele><time>2026-04-12T10:46:01.679Z</time></trkpt><trkpt lat="45.0040303" lon="7.9954939"><ele>249.0</ele><time>2026-04-12T10:46:02.679Z</time></trkpt><trkpt lat="45.0041525" lon="7.9954815"><ele>248.99999999999997</ele><time>2026-04-12T10:46:03.679Z</time></trkpt><trkpt lat="45.004263" lon="7.9954748"><ele>248.99999999999997</ele><time>2026-04-12T10:46:04.679Z</time></trkpt><trkpt lat="45.0043554" lon="7.9954239"><ele>249.0</ele><time>2026-04-12T10:46:05.679Z</time></trkpt><trkpt lat="45.0044367" lon="7.9953397"><ele>249.0</ele><time>2026-04-12T10:46:06.679Z</time></trkpt><trkpt lat="45.004491" lon="7.9952178"><ele>248.5</ele><time>2026-04-12T10:46:07.679Z</time></trkpt><trkpt lat="45.0045143" lon="7.9950498"><ele>248.0</ele><time>2026-04-12T10:46:08.679Z</time></trkpt><trkpt lat="45.0045163" lon="7.994861"><ele>247.5</ele><time>2026-04-12T10:46:09.678Z</time></trkpt><trkpt lat="45.0045184" lon="7.9946716"><ele>247.0</ele><time>2026-04-12T10:46:10.679Z</time></trkpt><trkpt lat="45.0045334" lon="7.9944809"><ele>247.0</ele><time>2026-04-12T10:46:11.679Z</time></trkpt><trkpt lat="45.0045328" lon="7.9942584"><ele>247.0</ele><time>2026-04-12T10:46:12.679Z</time></trkpt><trkpt lat="45.0045458" lon="7.9940694"><ele>247.0</ele><time>2026-04-12T10:46:13.679Z</time></trkpt><trkpt lat="45.0045691" lon="7.9938941"><ele>247.0</ele><time>2026-04-12T10:46:14.679Z</time></trkpt><trkpt lat="45.0045682" lon="7.9937279"><ele>245.25</ele><time>2026-04-12T10:46:15.679Z</time></trkpt><trkpt lat="45.0045529" lon="7.9935594"><ele>243.5</ele><time>2026-04-12T10:46:16.679Z</time></trkpt><trkpt lat="45.0045113" lon="7.9934013"><ele>241.75</ele><time>2026-04-12T10:46:17.679Z</time></trkpt><trkpt lat="45.004441" lon="7.9932435"><ele>240.0</ele><time>2026-04-12T10:46:18.679Z</time></trkpt><trkpt lat="45.0043677" lon="7.9931083"><ele>240.0</ele><time>2026-04-12T10:46:19.679Z</time></trkpt><trkpt lat="45.0042999" lon="7.9929799"><ele>240.0</ele><time>2026-04-12T10:46:20.679Z</time></trkpt><trkpt lat="45.0042568" lon="7.9928438"><ele>240.0</ele><time>2026-04-12T10:46:21.679Z</time></trkpt><trkpt lat="45.0042383" lon="7.9927018"><ele>240.0</ele><time>2026-04-12T10:46:22.679Z</time></trkpt><trkpt lat="45.0042442" lon="7.9925597"><ele>240.0</ele><time>2026-04-12T10:46:23.679Z</time></trkpt><trkpt lat="45.0042536" lon="7.9924328"><ele>240.0</ele><time>2026-04-12T10:46:24.678Z</time></trkpt><trkpt lat="45.0042303" lon="7.9923105"><ele>240.0</ele><time>2026-04-12T10:46:25.679Z</time></trkpt><trkpt lat="45.0041914" lon="7.9921979"><ele>240.0</ele><time>2026-04-12T10:46:26.679Z</time></trkpt><trkpt lat="45.0040811" lon="7.9921146"><ele>240.0</ele><time>2026-04-12T10:46:27.679Z</time></trkpt><trkpt lat="45.0039903" lon="7.9920413"><ele>240.0</ele><time>2026-04-12T10:46:28.679Z</time></trkpt><trkpt lat="45.0038934" lon="7.9919751"><ele>235.75</ele><time>2026-04-12T10:46:29.679Z</time></trkpt><trkpt lat="45.0038094" lon="7.9919021"><ele>231.5</ele><time>2026-04-12T10:46:30.679Z</time></trkpt><trkpt lat="45.0037463" lon="7.9917589"><ele>227.25</ele><time>2026-04-12T10:46:31.679Z</time></trkpt><trkpt lat="45.0037235" lon="7.9915905"><ele>223.0</ele><time>2026-04-12T10:46:32.679Z</time></trkpt><trkpt lat="45.0037136" lon="7.9914196"><ele>223.0</ele><time>2026-04-12T10:46:33.679Z</time></trkpt><trkpt lat="45.0037122" lon="7.9912246"><ele>223.0</ele><time>2026-04-12T10:46:34.679Z</time></trkpt><trkpt lat="45.0037156" lon="7.9910269"><ele>223.0</ele><time>2026-04-12T10:46:35.679Z</time></trkpt><trkpt lat="45.0037217" lon="7.990831"><ele>223.0</ele><time>2026-04-12T10:46:36.679Z</time></trkpt><trkpt lat="45.003726" lon="7.9906225"><ele>222.5</ele><time>2026-04-12T10:46:37.679Z</time></trkpt><trkpt lat="45.0037428" lon="7.9904236"><ele>222.0</ele><time>2026-04-12T10:46:38.679Z</time></trkpt><trkpt lat="45.0037801" lon="7.9902159"><ele>221.5</ele><time>2026-04-12T10:46:39.679Z</time></trkpt><trkpt lat="45.003838" lon="7.9900154"><ele>221.0</ele><time>2026-04-12T10:46:40.679Z</time></trkpt><trkpt lat="45.0039125" lon="7.9898296"><ele>219.0</ele><time>2026-04-12T10:46:41.679Z</time></trkpt><trkpt lat="45.0039863" lon="7.9896319"><ele>217.0</ele><time>2026-04-12T10:46:42.679Z</time></trkpt><trkpt lat="45.004073" lon="7.9894318"><ele>215.0</ele><time>2026-04-12T10:46:43.679Z</time></trkpt><trkpt lat="45.0041557" lon="7.989235"><ele>215.0</ele><time>2026-04-12T10:46:44.679Z</time></trkpt><trkpt lat="45.0042425" lon="7.9890434"><ele>215.0</ele><time>2026-04-12T10:46:45.679Z</time></trkpt><trkpt lat="45.0043221" lon="7.9888483"><ele>215.0</ele><time>2026-04-12T10:46:46.679Z</time></trkpt><trkpt lat="45.0044" lon="7.9886462"><ele>215.0</ele><time>2026-04-12T10:46:47.679Z</time></trkpt><trkpt lat="45.0044853" lon="7.9884612"><ele>215.0</ele><time>2026-04-12T10:46:48.679Z</time></trkpt><trkpt lat="45.0045672" lon="7.9882669"><ele>215.0</ele><time>2026-04-12T10:46:49.679Z</time></trkpt><trkpt lat="45.0046383" lon="7.9880716"><ele>213.0</ele><time>2026-04-12T10:46:50.679Z</time></trkpt><trkpt lat="45.0047206" lon="7.987885"><ele>211.0</ele><time>2026-04-12T10:46:51.679Z</time></trkpt><trkpt lat="45.0048197" lon="7.9877139"><ele>209.0</ele><time>2026-04-12T10:46:52.679Z</time></trkpt><trkpt lat="45.0049393" lon="7.987563"><ele>212.0</ele><time>2026-04-12T10:46:53.679Z</time></trkpt><trkpt lat="45.0050772" lon="7.9874311"><ele>215.0</ele><time>2026-04-12T10:46:54.679Z</time></trkpt><trkpt lat="45.0052178" lon="7.9873202"><ele>218.0</ele><time>2026-04-12T10:46:55.679Z</time></trkpt><trkpt lat="45.005359" lon="7.9872115"><ele>218.0</ele><time>2026-04-12T10:46:56.678Z</time></trkpt><trkpt lat="45.0054941" lon="7.9870923"><ele>218.0</ele><time>2026-04-12T10:46:57.679Z</time></trkpt><trkpt lat="45.0056295" lon="7.9869678"><ele>218.0</ele><time>2026-04-12T10:46:58.679Z</time></trkpt><trkpt lat="45.005763" lon="7.9868496"><ele>218.66666666666669</ele><time>2026-04-12T10:46:59.679Z</time></trkpt><trkpt lat="45.0059006" lon="7.9867319"><ele>219.33333333333331</ele><time>2026-04-12T10:47:00.679Z</time></trkpt><trkpt lat="45.006038" lon="7.9866285"><ele>220.0</ele><time>2026-04-12T10:47:01.679Z</time></trkpt><trkpt lat="45.0061824" lon="7.9865417"><ele>220.0</ele><time>2026-04-12T10:47:02.679Z</time></trkpt><trkpt lat="45.0063332" lon="7.9864822"><ele>220.0</ele><time>2026-04-12T10:47:03.679Z</time></trkpt><trkpt lat="45.0064907" lon="7.986437"><ele>220.0</ele><time>2026-04-12T10:47:04.679Z</time></trkpt><trkpt lat="45.0066507" lon="7.9863953"><ele>221.0</ele><time>2026-04-12T10:47:05.679Z</time></trkpt><trkpt lat="45.0068165" lon="7.9863703"><ele>222.0</ele><time>2026-04-12T10:47:06.679Z</time></trkpt><trkpt lat="45.0069853" lon="7.9863502"><ele>223.0</ele><time>2026-04-12T10:47:07.679Z</time></trkpt><trkpt lat="45.0071552" lon="7.9863433"><ele>223.0</ele><time>2026-04-12T10:47:08.679Z</time></trkpt><trkpt lat="45.0073401" lon="7.9863105"><ele>223.0</ele><time>2026-04-12T10:47:09.678Z</time></trkpt><trkpt lat="45.0075048" lon="7.9862922"><ele>223.0</ele><time>2026-04-12T10:47:10.679Z</time></trkpt><trkpt lat="45.0076671" lon="7.9862593"><ele>223.33333333333331</ele><time>2026-04-12T10:47:11.679Z</time></trkpt><trkpt lat="45.0078259" lon="7.9862277"><ele>223.66666666666669</ele><time>2026-04-12T10:47:12.679Z</time></trkpt><trkpt lat="45.0079915" lon="7.9861925"><ele>224.0</ele><time>2026-04-12T10:47:13.679Z</time></trkpt><trkpt lat="45.0081601" lon="7.9861607"><ele>225.0</ele><time>2026-04-12T10:47:14.679Z</time></trkpt><trkpt lat="45.0083276" lon="7.9861155"><ele>226.0</ele><time>2026-04-12T10:47:15.679Z</time></trkpt><trkpt lat="45.0084854" lon="7.9860873"><ele>227.0</ele><time>2026-04-12T10:47:16.679Z</time></trkpt><trkpt lat="45.0086501" lon="7.9860374"><ele>227.0</ele><time>2026-04-12T10:47:17.679Z</time></trkpt><trkpt lat="45.0088081" lon="7.9860027"><ele>227.0</ele><time>2026-04-12T10:47:18.679Z</time></trkpt><trkpt lat="45.0089566" lon="7.9859771"><ele>227.0</ele><time>2026-04-12T10:47:19.679Z</time></trkpt><trkpt lat="45.0091094" lon="7.9859605"><ele>226.33333333333334</ele><time>2026-04-12T10:47:20.679Z</time></trkpt><trkpt lat="45.0092639" lon="7.985974"><ele>225.66666666666669</ele><time>2026-04-12T10:47:21.679Z</time></trkpt><trkpt lat="45.009414" lon="7.9860082"><ele>225.0</ele><time>2026-04-12T10:47:22.679Z</time></trkpt><trkpt lat="45.0095549" lon="7.9860602"><ele>225.0</ele><time>2026-04-12T10:47:23.679Z</time></trkpt><trkpt lat="45.0096873" lon="7.9861265"><ele>225.0</ele><time>2026-04-12T10:47:24.679Z</time></trkpt><trkpt lat="45.0098068" lon="7.9861776"><ele>225.0</ele><time>2026-04-12T10:47:25.679Z</time></trkpt><trkpt lat="45.0099149" lon="7.9862268"><ele>225.0</ele><time>2026-04-12T10:47:26.679Z</time></trkpt><trkpt lat="45.0100185" lon="7.9862694"><ele>223.0</ele><time>2026-04-12T10:47:27.679Z</time></trkpt><trkpt lat="45.0101268" lon="7.9863083"><ele>221.0</ele><time>2026-04-12T10:47:28.679Z</time></trkpt><trkpt lat="45.0102199" lon="7.9863311"><ele>219.0</ele><time>2026-04-12T10:47:29.679Z</time></trkpt><trkpt lat="45.010313" lon="7.9863528"><ele>217.0</ele><time>2026-04-12T10:47:30.679Z</time></trkpt><trkpt lat="45.0103838" lon="7.9864045"><ele>215.0</ele><time>2026-04-12T10:47:31.679Z</time></trkpt><trkpt lat="45.0104408" lon="7.9864811"><ele>215.0</ele><time>2026-04-12T10:47:32.679Z</time></trkpt><trkpt lat="45.0104923" lon="7.9865638"><ele>215.0</ele><time>2026-04-12T10:47:33.679Z</time></trkpt><trkpt lat="45.0105485" lon="7.9866705"><ele>215.0</ele><time>2026-04-12T10:47:34.679Z</time></trkpt><trkpt lat="45.0105721" lon="7.9867906"><ele>215.0</ele><time>2026-04-12T10:47:35.679Z</time></trkpt><trkpt lat="45.0105682" lon="7.9869167"><ele>215.0</ele><time>2026-04-12T10:47:36.679Z</time></trkpt><trkpt lat="45.0105532" lon="7.9870614"><ele>215.75</ele><time>2026-04-12T10:47:37.679Z</time></trkpt><trkpt lat="45.010543" lon="7.9872154"><ele>216.5</ele><time>2026-04-12T10:47:38.679Z</time></trkpt><trkpt lat="45.010523" lon="7.9873759"><ele>217.25</ele><time>2026-04-12T10:47:39.679Z</time></trkpt><trkpt lat="45.0105036" lon="7.9875488"><ele>218.0</ele><time>2026-04-12T10:47:40.679Z</time></trkpt><trkpt lat="45.0104855" lon="7.9877182"><ele>219.25</ele><time>2026-04-12T10:47:41.679Z</time></trkpt><trkpt lat="45.0104635" lon="7.9878957"><ele>220.5</ele><time>2026-04-12T10:47:42.679Z</time></trkpt><trkpt lat="45.010437" lon="7.9880789"><ele>221.75</ele><time>2026-04-12T10:47:43.679Z</time></trkpt><trkpt lat="45.010411" lon="7.9882761"><ele>223.0</ele><time>2026-04-12T10:47:44.679Z</time></trkpt><trkpt lat="45.0103892" lon="7.9884713"><ele>224.75</ele><time>2026-04-12T10:47:45.679Z</time></trkpt><trkpt lat="45.0103706" lon="7.9886661"><ele>226.5</ele><time>2026-04-12T10:47:46.679Z</time></trkpt><trkpt lat="45.010353" lon="7.9888465"><ele>228.25</ele><time>2026-04-12T10:47:47.679Z</time></trkpt><trkpt lat="45.0103333" lon="7.989016"><ele>230.0</ele><time>2026-04-12T10:47:48.679Z</time></trkpt><trkpt lat="45.0102871" lon="7.9891219"><ele>233.0</ele><time>2026-04-12T10:47:49.679Z</time></trkpt><trkpt lat="45.0102217" lon="7.989219"><ele>236.0</ele><time>2026-04-12T10:47:50.679Z</time></trkpt><trkpt lat="45.0101452" lon="7.9893018"><ele>239.0</ele><time>2026-04-12T10:47:51.679Z</time></trkpt><trkpt lat="45.0100608" lon="7.9893765"><ele>242.0</ele><time>2026-04-12T10:47:52.679Z</time></trkpt><trkpt lat="45.0099901" lon="7.989426"><ele>245.0</ele><time>2026-04-12T10:47:53.679Z</time></trkpt><trkpt lat="45.0098769" lon="7.9895441"><ele>245.00000000000003</ele><time>2026-04-12T10:47:55.679Z</time></trkpt><trkpt lat="45.0098239" lon="7.9896069"><ele>245.0</ele><time>2026-04-12T10:47:56.679Z</time></trkpt><trkpt lat="45.0098724" lon="7.9897054"><ele>245.0</ele><time>2026-04-12T10:47:57.679Z</time></trkpt><trkpt lat="45.0099247" lon="7.9897929"><ele>245.0</ele><time>2026-04-12T10:47:58.679Z</time></trkpt><trkpt lat="45.010019" lon="7.9898416"><ele>245.00000000000003</ele><time>2026-04-12T10:47:59.679Z</time></trkpt><trkpt lat="45.010116" lon="7.9898694"><ele>245.0</ele><time>2026-04-12T10:48:00.678Z</time></trkpt><trkpt lat="45.0102204" lon="7.9898873"><ele>245.0</ele><time>2026-04-12T10:48:01.679Z</time></trkpt><trkpt lat="45.0103365" lon="7.9899223"><ele>245.0</ele><time>2026-04-12T10:48:02.679Z</time></trkpt><trkpt lat="45.010447" lon="7.9899383"><ele>245.0</ele><time>2026-04-12T10:48:03.679Z</time></trkpt><trkpt lat="45.0105689" lon="7.9899576"><ele>245.0</ele><time>2026-04-12T10:48:04.679Z</time></trkpt><trkpt lat="45.0107173" lon="7.9899843"><ele>246.75</ele><time>2026-04-12T10:48:05.679Z</time></trkpt><trkpt lat="45.010862" lon="7.9900121"><ele>248.5</ele><time>2026-04-12T10:48:06.679Z</time></trkpt><trkpt lat="45.0110169" lon="7.9900356"><ele>250.25</ele><time>2026-04-12T10:48:07.679Z</time></trkpt><trkpt lat="45.0111508" lon="7.9900375"><ele>252.0</ele><time>2026-04-12T10:48:08.679Z</time></trkpt><trkpt lat="45.0112889" lon="7.9900656"><ele>252.0</ele><time>2026-04-12T10:48:09.679Z</time></trkpt><trkpt lat="45.0114068" lon="7.9900672"><ele>252.0</ele><time>2026-04-12T10:48:10.678Z</time></trkpt><trkpt lat="45.0115293" lon="7.9900784"><ele>252.0</ele><time>2026-04-12T10:48:11.679Z</time></trkpt><trkpt lat="45.0116543" lon="7.990096"><ele>252.0</ele><time>2026-04-12T10:48:12.679Z</time></trkpt><trkpt lat="45.0117852" lon="7.990142"><ele>253.0</ele><time>2026-04-12T10:48:13.679Z</time></trkpt><trkpt lat="45.0119215" lon="7.9901968"><ele>254.0</ele><time>2026-04-12T10:48:14.679Z</time></trkpt><trkpt lat="45.0120601" lon="7.9902501"><ele>255.0</ele><time>2026-04-12T10:48:15.678Z</time></trkpt><trkpt lat="45.0121858" lon="7.990316"><ele>256.0</ele><time>2026-04-12T10:48:16.679Z</time></trkpt><trkpt lat="45.0123198" lon="7.9903756"><ele>256.0</ele><time>2026-04-12T10:48:17.679Z</time></trkpt><trkpt lat="45.0124404" lon="7.9904387"><ele>256.0</ele><time>2026-04-12T10:48:18.679Z</time></trkpt><trkpt lat="45.0125399" lon="7.9905719"><ele>256.0</ele><time>2026-04-12T10:48:19.678Z</time></trkpt><trkpt lat="45.0126366" lon="7.9907078"><ele>256.0</ele><time>2026-04-12T10:48:20.679Z</time></trkpt><trkpt lat="45.0127293" lon="7.990859"><ele>258.0</ele><time>2026-04-12T10:48:21.679Z</time></trkpt><trkpt lat="45.0128087" lon="7.9910307"><ele>260.0</ele><time>2026-04-12T10:48:22.679Z</time></trkpt><trkpt lat="45.0128943" lon="7.9912091"><ele>262.0</ele><time>2026-04-12T10:48:23.678Z</time></trkpt><trkpt lat="45.0129741" lon="7.991388"><ele>264.0</ele><time>2026-04-12T10:48:24.679Z</time></trkpt><trkpt lat="45.0130576" lon="7.9915556"><ele>263.5</ele><time>2026-04-12T10:48:25.679Z</time></trkpt><trkpt lat="45.0131388" lon="7.9917166"><ele>263.0</ele><time>2026-04-12T10:48:26.679Z</time></trkpt><trkpt lat="45.0132407" lon="7.9918534"><ele>262.5</ele><time>2026-04-12T10:48:27.679Z</time></trkpt><trkpt lat="45.0133504" lon="7.9919821"><ele>262.0</ele><time>2026-04-12T10:48:28.679Z</time></trkpt><trkpt lat="45.0134793" lon="7.9920864"><ele>262.0</ele><time>2026-04-12T10:48:29.679Z</time></trkpt><trkpt lat="45.0136137" lon="7.9921701"><ele>262.0</ele><time>2026-04-12T10:48:30.679Z</time></trkpt><trkpt lat="45.0137621" lon="7.9922374"><ele>262.0</ele><time>2026-04-12T10:48:31.679Z</time></trkpt><trkpt lat="45.0139133" lon="7.9922913"><ele>262.0</ele><time>2026-04-12T10:48:32.679Z</time></trkpt><trkpt lat="45.0140649" lon="7.9923383"><ele>262.0</ele><time>2026-04-12T10:48:33.678Z</time></trkpt><trkpt lat="45.0142223" lon="7.9923874"><ele>262.0</ele><time>2026-04-12T10:48:34.679Z</time></trkpt><trkpt lat="45.0143703" lon="7.9924409"><ele>261.66666666666663</ele><time>2026-04-12T10:48:35.679Z</time></trkpt><trkpt lat="45.0145165" lon="7.9924868"><ele>261.3333333333333</ele><time>2026-04-12T10:48:36.679Z</time></trkpt><trkpt lat="45.0146682" lon="7.992533"><ele>261.0</ele><time>2026-04-12T10:48:37.679Z</time></trkpt><trkpt lat="45.0148223" lon="7.992585"><ele>261.0</ele><time>2026-04-12T10:48:38.679Z</time></trkpt><trkpt lat="45.014969" lon="7.9926322"><ele>261.0</ele><time>2026-04-12T10:48:39.679Z</time></trkpt><trkpt lat="45.015113" lon="7.9926757"><ele>261.0</ele><time>2026-04-12T10:48:40.679Z</time></trkpt><trkpt lat="45.015265" lon="7.9927107"><ele>262.6666666666667</ele><time>2026-04-12T10:48:41.679Z</time></trkpt><trkpt lat="45.0154224" lon="7.9927415"><ele>264.33333333333337</ele><time>2026-04-12T10:48:42.678Z</time></trkpt><trkpt lat="45.0155788" lon="7.9927603"><ele>266.0</ele><time>2026-04-12T10:48:43.679Z</time></trkpt><trkpt lat="45.0157337" lon="7.992761"><ele>267.33333333333337</ele><time>2026-04-12T10:48:44.679Z</time></trkpt><trkpt lat="45.0158955" lon="7.9927456"><ele>268.6666666666667</ele><time>2026-04-12T10:48:45.679Z</time></trkpt><trkpt lat="45.0160534" lon="7.9927183"><ele>270.0</ele><time>2026-04-12T10:48:46.679Z</time></trkpt><trkpt lat="45.0162123" lon="7.9926768"><ele>270.0</ele><time>2026-04-12T10:48:47.679Z</time></trkpt><trkpt lat="45.0163654" lon="7.9926077"><ele>270.0</ele><time>2026-04-12T10:48:48.679Z</time></trkpt><trkpt lat="45.0165158" lon="7.9925146"><ele>270.0</ele><time>2026-04-12T10:48:49.679Z</time></trkpt><trkpt lat="45.016659" lon="7.9924229"><ele>270.0</ele><time>2026-04-12T10:48:50.679Z</time></trkpt><trkpt lat="45.0168044" lon="7.9923127"><ele>270.0</ele><time>2026-04-12T10:48:51.679Z</time></trkpt><trkpt lat="45.0169437" lon="7.9922019"><ele>270.0</ele><time>2026-04-12T10:48:52.679Z</time></trkpt><trkpt lat="45.0170815" lon="7.9920852"><ele>270.0</ele><time>2026-04-12T10:48:53.679Z</time></trkpt><trkpt lat="45.0172234" lon="7.9919611"><ele>270.0</ele><time>2026-04-12T10:48:54.679Z</time></trkpt><trkpt lat="45.0173485" lon="7.9918257"><ele>270.0</ele><time>2026-04-12T10:48:55.679Z</time></trkpt><trkpt lat="45.017474" lon="7.9916987"><ele>268.6666666666667</ele><time>2026-04-12T10:48:56.679Z</time></trkpt><trkpt lat="45.0175933" lon="7.991564"><ele>267.33333333333337</ele><time>2026-04-12T10:48:57.679Z</time></trkpt><trkpt lat="45.0177026" lon="7.9914006"><ele>266.0</ele><time>2026-04-12T10:48:58.679Z</time></trkpt><trkpt lat="45.0178013" lon="7.9912327"><ele>266.0</ele><time>2026-04-12T10:48:59.679Z</time></trkpt><trkpt lat="45.0178821" lon="7.9910525"><ele>266.0</ele><time>2026-04-12T10:49:00.679Z</time></trkpt><trkpt lat="45.0179663" lon="7.9908698"><ele>266.0</ele><time>2026-04-12T10:49:01.679Z</time></trkpt><trkpt lat="45.018048" lon="7.9906837"><ele>265.33333333333337</ele><time>2026-04-12T10:49:02.679Z</time></trkpt><trkpt lat="45.0181225" lon="7.9904941"><ele>264.6666666666667</ele><time>2026-04-12T10:49:03.679Z</time></trkpt><trkpt lat="45.0181919" lon="7.9902972"><ele>264.0</ele><time>2026-04-12T10:49:04.679Z</time></trkpt><trkpt lat="45.0182635" lon="7.9901"><ele>266.0</ele><time>2026-04-12T10:49:05.679Z</time></trkpt><trkpt lat="45.0183335" lon="7.989895"><ele>268.0</ele><time>2026-04-12T10:49:06.679Z</time></trkpt><trkpt lat="45.0184028" lon="7.989701"><ele>270.0</ele><time>2026-04-12T10:49:07.678Z</time></trkpt><trkpt lat="45.0184701" lon="7.9894972"><ele>270.0</ele><time>2026-04-12T10:49:08.679Z</time></trkpt><trkpt lat="45.0185376" lon="7.9892948"><ele>270.0</ele><time>2026-04-12T10:49:09.679Z</time></trkpt><trkpt lat="45.0186105" lon="7.9890908"><ele>270.0</ele><time>2026-04-12T10:49:10.679Z</time></trkpt><trkpt lat="45.0186841" lon="7.9888805"><ele>269.3333333333333</ele><time>2026-04-12T10:49:11.679Z</time></trkpt><trkpt lat="45.0187488" lon="7.9886804"><ele>268.66666666666663</ele><time>2026-04-12T10:49:12.679Z</time></trkpt><trkpt lat="45.0188191" lon="7.9884787"><ele>268.0</ele><time>2026-04-12T10:49:13.678Z</time></trkpt><trkpt lat="45.0189112" lon="7.9883008"><ele>268.0</ele><time>2026-04-12T10:49:14.679Z</time></trkpt><trkpt lat="45.0190075" lon="7.9881348"><ele>268.0</ele><time>2026-04-12T10:49:15.679Z</time></trkpt><trkpt lat="45.0191311" lon="7.9879863"><ele>268.0</ele><time>2026-04-12T10:49:16.679Z</time></trkpt><trkpt lat="45.0192579" lon="7.9878712"><ele>269.5</ele><time>2026-04-12T10:49:17.679Z</time></trkpt><trkpt lat="45.0193935" lon="7.9877771"><ele>271.0</ele><time>2026-04-12T10:49:18.679Z</time></trkpt><trkpt lat="45.0195329" lon="7.9877045"><ele>272.5</ele><time>2026-04-12T10:49:19.679Z</time></trkpt><trkpt lat="45.0196656" lon="7.9876678"><ele>274.0</ele><time>2026-04-12T10:49:20.679Z</time></trkpt><trkpt lat="45.0198001" lon="7.9876666"><ele>274.0</ele><time>2026-04-12T10:49:21.679Z</time></trkpt><trkpt lat="45.0199165" lon="7.9876979"><ele>274.0</ele><time>2026-04-12T10:49:22.679Z</time></trkpt><trkpt lat="45.0200341" lon="7.9877463"><ele>274.0</ele><time>2026-04-12T10:49:23.678Z</time></trkpt><trkpt lat="45.0201511" lon="7.9877955"><ele>274.0</ele><time>2026-04-12T10:49:24.679Z</time></trkpt><trkpt lat="45.0202707" lon="7.9878515"><ele>274.25</ele><time>2026-04-12T10:49:25.679Z</time></trkpt><trkpt lat="45.0203925" lon="7.9879048"><ele>274.5</ele><time>2026-04-12T10:49:26.679Z</time></trkpt><trkpt lat="45.0205069" lon="7.9879561"><ele>274.75</ele><time>2026-04-12T10:49:27.679Z</time></trkpt><trkpt lat="45.0206317" lon="7.9880062"><ele>275.0</ele><time>2026-04-12T10:49:28.679Z</time></trkpt><trkpt lat="45.0207469" lon="7.9880515"><ele>274.75</ele><time>2026-04-12T10:49:29.679Z</time></trkpt><trkpt lat="45.0208526" lon="7.9881025"><ele>274.5</ele><time>2026-04-12T10:49:30.679Z</time></trkpt><trkpt lat="45.0209682" lon="7.9881311"><ele>274.25</ele><time>2026-04-12T10:49:31.679Z</time></trkpt><trkpt lat="45.0210891" lon="7.9881395"><ele>274.0</ele><time>2026-04-12T10:49:32.679Z</time></trkpt><trkpt lat="45.0212048" lon="7.9881225"><ele>274.0</ele><time>2026-04-12T10:49:33.679Z</time></trkpt><trkpt lat="45.0213331" lon="7.9880793"><ele>274.0</ele><time>2026-04-12T10:49:34.679Z</time></trkpt><trkpt lat="45.0214677" lon="7.9880301"><ele>274.0</ele><time>2026-04-12T10:49:35.679Z</time></trkpt><trkpt lat="45.0215989" lon="7.9879772"><ele>274.0</ele><time>2026-04-12T10:49:36.679Z</time></trkpt><trkpt lat="45.021727" lon="7.9879209"><ele>272.0</ele><time>2026-04-12T10:49:37.679Z</time></trkpt><trkpt lat="45.0218417" lon="7.9878693"><ele>270.0</ele><time>2026-04-12T10:49:38.679Z</time></trkpt><trkpt lat="45.0219522" lon="7.9878163"><ele>268.0</ele><time>2026-04-12T10:49:39.679Z</time></trkpt><trkpt lat="45.0220605" lon="7.9877807"><ele>266.0</ele><time>2026-04-12T10:49:40.679Z</time></trkpt><trkpt lat="45.0221626" lon="7.9877645"><ele>266.0</ele><time>2026-04-12T10:49:41.679Z</time></trkpt><trkpt lat="45.0222706" lon="7.9877991"><ele>266.0</ele><time>2026-04-12T10:49:42.679Z</time></trkpt><trkpt lat="45.0223816" lon="7.9878323"><ele>266.0</ele><time>2026-04-12T10:49:43.678Z</time></trkpt><trkpt lat="45.0225023" lon="7.9878941"><ele>266.0</ele><time>2026-04-12T10:49:44.679Z</time></trkpt><trkpt lat="45.0226236" lon="7.9879819"><ele>263.6666666666667</ele><time>2026-04-12T10:49:45.679Z</time></trkpt><trkpt lat="45.0227565" lon="7.9880771"><ele>261.3333333333333</ele><time>2026-04-12T10:49:46.679Z</time></trkpt><trkpt lat="45.0228951" lon="7.9881695"><ele>259.0</ele><time>2026-04-12T10:49:47.679Z</time></trkpt><trkpt lat="45.0230366" lon="7.9882504"><ele>259.0</ele><time>2026-04-12T10:49:48.679Z</time></trkpt><trkpt lat="45.0231897" lon="7.9883426"><ele>259.0</ele><time>2026-04-12T10:49:49.679Z</time></trkpt><trkpt lat="45.023339" lon="7.9884245"><ele>259.0</ele><time>2026-04-12T10:49:50.679Z</time></trkpt><trkpt lat="45.023484" lon="7.9885058"><ele>256.75</ele><time>2026-04-12T10:49:51.679Z</time></trkpt><trkpt lat="45.0236349" lon="7.9885919"><ele>254.5</ele><time>2026-04-12T10:49:52.679Z</time></trkpt><trkpt lat="45.0237711" lon="7.988671"><ele>252.25</ele><time>2026-04-12T10:49:53.679Z</time></trkpt><trkpt lat="45.0238937" lon="7.9887618"><ele>250.0</ele><time>2026-04-12T10:49:54.679Z</time></trkpt><trkpt lat="45.0240042" lon="7.9888631"><ele>250.0</ele><time>2026-04-12T10:49:55.679Z</time></trkpt><trkpt lat="45.0241034" lon="7.988972"><ele>250.0</ele><time>2026-04-12T10:49:56.679Z</time></trkpt><trkpt lat="45.0241987" lon="7.9890746"><ele>250.0</ele><time>2026-04-12T10:49:57.679Z</time></trkpt><trkpt lat="45.0242821" lon="7.9891575"><ele>250.0</ele><time>2026-04-12T10:49:58.679Z</time></trkpt><trkpt lat="45.0243743" lon="7.9892064"><ele>250.0</ele><time>2026-04-12T10:49:59.679Z</time></trkpt><trkpt lat="45.0244805" lon="7.9892202"><ele>251.25</ele><time>2026-04-12T10:50:00.679Z</time></trkpt><trkpt lat="45.0245989" lon="7.9891966"><ele>252.5</ele><time>2026-04-12T10:50:01.679Z</time></trkpt><trkpt lat="45.0247131" lon="7.9891328"><ele>253.75</ele><time>2026-04-12T10:50:02.679Z</time></trkpt><trkpt lat="45.0248347" lon="7.9890476"><ele>255.0</ele><time>2026-04-12T10:50:03.679Z</time></trkpt><trkpt lat="45.0249541" lon="7.9889565"><ele>258.75</ele><time>2026-04-12T10:50:04.679Z</time></trkpt><trkpt lat="45.0250816" lon="7.988853"><ele>262.5</ele><time>2026-04-12T10:50:05.679Z</time></trkpt><trkpt lat="45.0251981" lon="7.9887369"><ele>266.25</ele><time>2026-04-12T10:50:06.679Z</time></trkpt><trkpt lat="45.0253088" lon="7.9885976"><ele>270.0</ele><time>2026-04-12T10:50:07.679Z</time></trkpt><trkpt lat="45.0254113" lon="7.9884422"><ele>273.0</ele><time>2026-04-12T10:50:08.679Z</time></trkpt><trkpt lat="45.0255032" lon="7.9882827"><ele>276.0</ele><time>2026-04-12T10:50:09.679Z</time></trkpt><trkpt lat="45.025587" lon="7.9881042"><ele>279.0</ele><time>2026-04-12T10:50:10.679Z</time></trkpt><trkpt lat="45.025681" lon="7.9879325"><ele>279.0</ele><time>2026-04-12T10:50:11.679Z</time></trkpt><trkpt lat="45.0257865" lon="7.987773"><ele>279.0</ele><time>2026-04-12T10:50:12.679Z</time></trkpt><trkpt lat="45.0258954" lon="7.9876209"><ele>279.0</ele><time>2026-04-12T10:50:13.679Z</time></trkpt><trkpt lat="45.0260216" lon="7.9874878"><ele>276.6666666666667</ele><time>2026-04-12T10:50:14.679Z</time></trkpt><trkpt lat="45.0261499" lon="7.9873688"><ele>274.33333333333337</ele><time>2026-04-12T10:50:15.678Z</time></trkpt><trkpt lat="45.0262895" lon="7.9872722"><ele>272.0</ele><time>2026-04-12T10:50:16.679Z</time></trkpt><trkpt lat="45.0264254" lon="7.9871936"><ele>272.0</ele><time>2026-04-12T10:50:17.679Z</time></trkpt><trkpt lat="45.0265682" lon="7.987101"><ele>272.0</ele><time>2026-04-12T10:50:18.679Z</time></trkpt><trkpt lat="45.026712" lon="7.9870212"><ele>272.0</ele><time>2026-04-12T10:50:19.679Z</time></trkpt><trkpt lat="45.0268604" lon="7.9869436"><ele>269.6666666666667</ele><time>2026-04-12T10:50:20.679Z</time></trkpt><trkpt lat="45.0270108" lon="7.9868877"><ele>267.3333333333333</ele><time>2026-04-12T10:50:21.679Z</time></trkpt><trkpt lat="45.0271568" lon="7.9868457"><ele>265.0</ele><time>2026-04-12T10:50:22.679Z</time></trkpt><trkpt lat="45.0273099" lon="7.9868746"><ele>265.0</ele><time>2026-04-12T10:50:23.679Z</time></trkpt><trkpt lat="45.0274559" lon="7.9869186"><ele>265.0</ele><time>2026-04-12T10:50:24.679Z</time></trkpt><trkpt lat="45.0276168" lon="7.9869873"><ele>265.0</ele><time>2026-04-12T10:50:25.679Z</time></trkpt><trkpt lat="45.0277587" lon="7.9870533"><ele>265.0</ele><time>2026-04-12T10:50:26.679Z</time></trkpt><trkpt lat="45.0279055" lon="7.9871169"><ele>265.0</ele><time>2026-04-12T10:50:27.679Z</time></trkpt><trkpt lat="45.0280521" lon="7.9871758"><ele>265.0</ele><time>2026-04-12T10:50:28.679Z</time></trkpt><trkpt lat="45.0281989" lon="7.9872365"><ele>267.0</ele><time>2026-04-12T10:50:29.679Z</time></trkpt><trkpt lat="45.0283468" lon="7.9872743"><ele>269.0</ele><time>2026-04-12T10:50:30.679Z</time></trkpt><trkpt lat="45.028504" lon="7.9872831"><ele>271.0</ele><time>2026-04-12T10:50:31.678Z</time></trkpt><trkpt lat="45.0286611" lon="7.9872742"><ele>271.0</ele><time>2026-04-12T10:50:32.679Z</time></trkpt><trkpt lat="45.0288217" lon="7.9872514"><ele>271.0</ele><time>2026-04-12T10:50:33.679Z</time></trkpt><trkpt lat="45.0289819" lon="7.9872252"><ele>271.0</ele><time>2026-04-12T10:50:34.679Z</time></trkpt><trkpt lat="45.0291418" lon="7.9871922"><ele>270.66666666666663</ele><time>2026-04-12T10:50:35.679Z</time></trkpt><trkpt lat="45.0292995" lon="7.9871415"><ele>270.3333333333333</ele><time>2026-04-12T10:50:36.679Z</time></trkpt><trkpt lat="45.0294513" lon="7.9870758"><ele>270.0</ele><time>2026-04-12T10:50:37.679Z</time></trkpt><trkpt lat="45.0295955" lon="7.9869956"><ele>270.0</ele><time>2026-04-12T10:50:38.679Z</time></trkpt><trkpt lat="45.0297382" lon="7.9869082"><ele>270.0</ele><time>2026-04-12T10:50:39.679Z</time></trkpt><trkpt lat="45.0298698" lon="7.9868148"><ele>270.0</ele><time>2026-04-12T10:50:40.679Z</time></trkpt><trkpt lat="45.0299913" lon="7.9867208"><ele>270.0</ele><time>2026-04-12T10:50:41.679Z</time></trkpt><trkpt lat="45.0301115" lon="7.9866436"><ele>271.0</ele><time>2026-04-12T10:50:42.679Z</time></trkpt><trkpt lat="45.0302402" lon="7.9865722"><ele>272.0</ele><time>2026-04-12T10:50:43.679Z</time></trkpt><trkpt lat="45.0303546" lon="7.9865053"><ele>273.0</ele><time>2026-04-12T10:50:44.679Z</time></trkpt><trkpt lat="45.0304621" lon="7.9864106"><ele>274.0</ele><time>2026-04-12T10:50:45.679Z</time></trkpt><trkpt lat="45.0305546" lon="7.9862954"><ele>274.0</ele><time>2026-04-12T10:50:46.679Z</time></trkpt><trkpt lat="45.0306462" lon="7.9861409"><ele>274.0</ele><time>2026-04-12T10:50:47.679Z</time></trkpt><trkpt lat="45.0307385" lon="7.9859831"><ele>274.0</ele><time>2026-04-12T10:50:48.679Z</time></trkpt><trkpt lat="45.0308369" lon="7.9858184"><ele>274.0</ele><time>2026-04-12T10:50:49.679Z</time></trkpt><trkpt lat="45.0309537" lon="7.9856747"><ele>273.0</ele><time>2026-04-12T10:50:50.679Z</time></trkpt><trkpt lat="45.0310873" lon="7.9855484"><ele>272.0</ele><time>2026-04-12T10:50:51.679Z</time></trkpt><trkpt lat="45.0312264" lon="7.9854216"><ele>271.0</ele><time>2026-04-12T10:50:52.679Z</time></trkpt><trkpt lat="45.0313678" lon="7.9852958"><ele>271.0</ele><time>2026-04-12T10:50:53.679Z</time></trkpt><trkpt lat="45.0315011" lon="7.9851795"><ele>271.0</ele><time>2026-04-12T10:50:54.679Z</time></trkpt><trkpt lat="45.0316405" lon="7.9850529"><ele>271.0</ele><time>2026-04-12T10:50:55.679Z</time></trkpt><trkpt lat="45.0317664" lon="7.9849238"><ele>271.3333333333333</ele><time>2026-04-12T10:50:56.679Z</time></trkpt><trkpt lat="45.0318898" lon="7.9847963"><ele>271.6666666666667</ele><time>2026-04-12T10:50:57.678Z</time></trkpt><trkpt lat="45.0320235" lon="7.9846779"><ele>272.0</ele><time>2026-04-12T10:50:58.679Z</time></trkpt><trkpt lat="45.032163" lon="7.9845894"><ele>272.0</ele><time>2026-04-12T10:50:59.679Z</time></trkpt><trkpt lat="45.0323109" lon="7.9845393"><ele>272.0</ele><time>2026-04-12T10:51:00.679Z</time></trkpt><trkpt lat="45.0324617" lon="7.9845059"><ele>272.0</ele><time>2026-04-12T10:51:01.679Z</time></trkpt><trkpt lat="45.0326148" lon="7.9844809"><ele>272.0</ele><time>2026-04-12T10:51:02.679Z</time></trkpt><trkpt lat="45.032762" lon="7.9844828"><ele>272.0</ele><time>2026-04-12T10:51:03.679Z</time></trkpt><trkpt lat="45.0328977" lon="7.9845074"><ele>272.0</ele><time>2026-04-12T10:51:04.678Z</time></trkpt><trkpt lat="45.0330239" lon="7.984567"><ele>272.0</ele><time>2026-04-12T10:51:05.679Z</time></trkpt><trkpt lat="45.0331305" lon="7.9846735"><ele>272.0</ele><time>2026-04-12T10:51:06.679Z</time></trkpt><trkpt lat="45.033247" lon="7.9847779"><ele>272.0</ele><time>2026-04-12T10:51:07.679Z</time></trkpt><trkpt lat="45.0333719" lon="7.9848726"><ele>272.0</ele><time>2026-04-12T10:51:08.678Z</time></trkpt><trkpt lat="45.0334989" lon="7.9849699"><ele>272.0</ele><time>2026-04-12T10:51:09.678Z</time></trkpt><trkpt lat="45.0336423" lon="7.9850437"><ele>272.5</ele><time>2026-04-12T10:51:10.679Z</time></trkpt><trkpt lat="45.0337792" lon="7.9851015"><ele>273.0</ele><time>2026-04-12T10:51:11.679Z</time></trkpt><trkpt lat="45.0339312" lon="7.9851301"><ele>273.5</ele><time>2026-04-12T10:51:12.678Z</time></trkpt><trkpt lat="45.0340771" lon="7.9851253"><ele>274.0</ele><time>2026-04-12T10:51:13.679Z</time></trkpt><trkpt lat="45.0342182" lon="7.9850935"><ele>276.0</ele><time>2026-04-12T10:51:14.679Z</time></trkpt><trkpt lat="45.0343562" lon="7.9850193"><ele>278.0</ele><time>2026-04-12T10:51:15.679Z</time></trkpt><trkpt lat="45.0344892" lon="7.9849289"><ele>280.0</ele><time>2026-04-12T10:51:16.679Z</time></trkpt><trkpt lat="45.0346248" lon="7.9848409"><ele>282.0</ele><time>2026-04-12T10:51:17.678Z</time></trkpt><trkpt lat="45.0347686" lon="7.9848043"><ele>281.75</ele><time>2026-04-12T10:51:18.679Z</time></trkpt><trkpt lat="45.0349059" lon="7.984811"><ele>281.5</ele><time>2026-04-12T10:51:19.679Z</time></trkpt><trkpt lat="45.0350387" lon="7.9848661"><ele>281.25</ele><time>2026-04-12T10:51:20.679Z</time></trkpt><trkpt lat="45.0351823" lon="7.9849205"><ele>281.0</ele><time>2026-04-12T10:51:21.679Z</time></trkpt><trkpt lat="45.0353184" lon="7.9849727"><ele>280.25</ele><time>2026-04-12T10:51:22.679Z</time></trkpt><trkpt lat="45.035438" lon="7.9850366"><ele>279.5</ele><time>2026-04-12T10:51:23.679Z</time></trkpt><trkpt lat="45.0355453" lon="7.9851343"><ele>278.75</ele><time>2026-04-12T10:51:24.679Z</time></trkpt><trkpt lat="45.0356204" lon="7.9852739"><ele>278.0</ele><time>2026-04-12T10:51:25.679Z</time></trkpt><trkpt lat="45.0357" lon="7.9854081"><ele>278.0</ele><time>2026-04-12T10:51:26.679Z</time></trkpt><trkpt lat="45.0357995" lon="7.9855338"><ele>278.0</ele><time>2026-04-12T10:51:27.678Z</time></trkpt><trkpt lat="45.0359053" lon="7.9856368"><ele>278.0</ele><time>2026-04-12T10:51:28.679Z</time></trkpt><trkpt lat="45.0360288" lon="7.9856971"><ele>278.0</ele><time>2026-04-12T10:51:29.679Z</time></trkpt><trkpt lat="45.0361677" lon="7.9857286"><ele>280.0</ele><time>2026-04-12T10:51:30.679Z</time></trkpt><trkpt lat="45.0363128" lon="7.9857212"><ele>282.0</ele><time>2026-04-12T10:51:31.679Z</time></trkpt><trkpt lat="45.0364657" lon="7.9857225"><ele>284.0</ele><time>2026-04-12T10:51:32.679Z</time></trkpt><trkpt lat="45.036616" lon="7.9857121"><ele>286.0</ele><time>2026-04-12T10:51:33.679Z</time></trkpt><trkpt lat="45.036767" lon="7.9857159"><ele>287.5</ele><time>2026-04-12T10:51:34.679Z</time></trkpt><trkpt lat="45.0369114" lon="7.9857075"><ele>289.0</ele><time>2026-04-12T10:51:35.678Z</time></trkpt><trkpt lat="45.0370496" lon="7.9856522"><ele>290.5</ele><time>2026-04-12T10:51:36.679Z</time></trkpt><trkpt lat="45.0371664" lon="7.9855511"><ele>292.0</ele><time>2026-04-12T10:51:37.679Z</time></trkpt><trkpt lat="45.0372823" lon="7.9854225"><ele>292.0</ele><time>2026-04-12T10:51:38.679Z</time></trkpt><trkpt lat="45.0374052" lon="7.985302"><ele>292.0</ele><time>2026-04-12T10:51:39.679Z</time></trkpt><trkpt lat="45.037535" lon="7.9851981"><ele>292.0</ele><time>2026-04-12T10:51:40.679Z</time></trkpt><trkpt lat="45.0376904" lon="7.985154"><ele>293.66666666666663</ele><time>2026-04-12T10:51:41.679Z</time></trkpt><trkpt lat="45.0378479" lon="7.9851372"><ele>295.3333333333333</ele><time>2026-04-12T10:51:42.679Z</time></trkpt><trkpt lat="45.0380003" lon="7.9851337"><ele>297.0</ele><time>2026-04-12T10:51:43.679Z</time></trkpt><trkpt lat="45.0381514" lon="7.9851034"><ele>297.0</ele><time>2026-04-12T10:51:44.679Z</time></trkpt><trkpt lat="45.0382829" lon="7.9850281"><ele>297.0</ele><time>2026-04-12T10:51:45.678Z</time></trkpt><trkpt lat="45.0384135" lon="7.9849224"><ele>297.0</ele><time>2026-04-12T10:51:46.679Z</time></trkpt><trkpt lat="45.0385336" lon="7.9848003"><ele>297.0</ele><time>2026-04-12T10:51:47.679Z</time></trkpt><trkpt lat="45.0386638" lon="7.9846883"><ele>294.3333333333333</ele><time>2026-04-12T10:51:48.679Z</time></trkpt><trkpt lat="45.0388058" lon="7.9845835"><ele>291.66666666666663</ele><time>2026-04-12T10:51:49.679Z</time></trkpt><trkpt lat="45.0389475" lon="7.984487"><ele>289.0</ele><time>2026-04-12T10:51:50.679Z</time></trkpt><trkpt lat="45.0390989" lon="7.9843927"><ele>288.66666666666663</ele><time>2026-04-12T10:51:51.679Z</time></trkpt><trkpt lat="45.0392392" lon="7.9842847"><ele>288.3333333333333</ele><time>2026-04-12T10:51:52.679Z</time></trkpt><trkpt lat="45.0393861" lon="7.9841701"><ele>288.0</ele><time>2026-04-12T10:51:53.679Z</time></trkpt><trkpt lat="45.0395256" lon="7.9840612"><ele>290.3333333333333</ele><time>2026-04-12T10:51:54.679Z</time></trkpt><trkpt lat="45.0396606" lon="7.9839509"><ele>292.66666666666663</ele><time>2026-04-12T10:51:55.679Z</time></trkpt><trkpt lat="45.0397929" lon="7.9838284"><ele>295.0</ele><time>2026-04-12T10:51:56.679Z</time></trkpt><trkpt lat="45.0399305" lon="7.9837211"><ele>295.0</ele><time>2026-04-12T10:51:57.679Z</time></trkpt><trkpt lat="45.0400598" lon="7.983603"><ele>295.0</ele><time>2026-04-12T10:51:58.679Z</time></trkpt><trkpt lat="45.0401922" lon="7.9834996"><ele>295.0</ele><time>2026-04-12T10:51:59.679Z</time></trkpt><trkpt lat="45.0403351" lon="7.9834135"><ele>294.5</ele><time>2026-04-12T10:52:00.679Z</time></trkpt><trkpt lat="45.0404757" lon="7.9833163"><ele>294.0</ele><time>2026-04-12T10:52:01.679Z</time></trkpt><trkpt lat="45.0406105" lon="7.9832427"><ele>293.5</ele><time>2026-04-12T10:52:02.679Z</time></trkpt><trkpt lat="45.0407376" lon="7.9831916"><ele>293.0</ele><time>2026-04-12T10:52:03.679Z</time></trkpt><trkpt lat="45.0408635" lon="7.9831409"><ele>293.0</ele><time>2026-04-12T10:52:04.679Z</time></trkpt><trkpt lat="45.0409886" lon="7.9830683"><ele>293.0</ele><time>2026-04-12T10:52:05.679Z</time></trkpt><trkpt lat="45.0411048" lon="7.9829615"><ele>293.0</ele><time>2026-04-12T10:52:06.679Z</time></trkpt><trkpt lat="45.0412177" lon="7.9828267"><ele>293.0</ele><time>2026-04-12T10:52:07.679Z</time></trkpt><trkpt lat="45.0413109" lon="7.9826882"><ele>293.0</ele><time>2026-04-12T10:52:08.679Z</time></trkpt><trkpt lat="45.041396" lon="7.982546"><ele>293.0</ele><time>2026-04-12T10:52:09.679Z</time></trkpt><trkpt lat="45.0414738" lon="7.9823911"><ele>293.0</ele><time>2026-04-12T10:52:10.679Z</time></trkpt><trkpt lat="45.0415316" lon="7.9822401"><ele>293.0</ele><time>2026-04-12T10:52:11.679Z</time></trkpt><trkpt lat="45.0415841" lon="7.9820912"><ele>293.5</ele><time>2026-04-12T10:52:12.679Z</time></trkpt><trkpt lat="45.0416172" lon="7.9819285"><ele>294.0</ele><time>2026-04-12T10:52:13.679Z</time></trkpt><trkpt lat="45.0416218" lon="7.9817547"><ele>294.5</ele><time>2026-04-12T10:52:14.679Z</time></trkpt><trkpt lat="45.0416093" lon="7.9815771"><ele>295.0</ele><time>2026-04-12T10:52:15.679Z</time></trkpt><trkpt lat="45.0415713" lon="7.9814104"><ele>295.0</ele><time>2026-04-12T10:52:16.679Z</time></trkpt><trkpt lat="45.0415147" lon="7.9812467"><ele>295.0</ele><time>2026-04-12T10:52:17.679Z</time></trkpt><trkpt lat="45.0414507" lon="7.9810574"><ele>295.0</ele><time>2026-04-12T10:52:18.679Z</time></trkpt><trkpt lat="45.0414075" lon="7.9808625"><ele>295.0</ele><time>2026-04-12T10:52:19.679Z</time></trkpt><trkpt lat="45.0413713" lon="7.9806743"><ele>292.5</ele><time>2026-04-12T10:52:20.679Z</time></trkpt><trkpt lat="45.0413362" lon="7.9804873"><ele>290.0</ele><time>2026-04-12T10:52:21.679Z</time></trkpt><trkpt lat="45.0413136" lon="7.9803141"><ele>287.5</ele><time>2026-04-12T10:52:22.679Z</time></trkpt><trkpt lat="45.0412985" lon="7.9801582"><ele>285.0</ele><time>2026-04-12T10:52:23.679Z</time></trkpt><trkpt lat="45.0412616" lon="7.9800199"><ele>282.4</ele><time>2026-04-12T10:52:24.679Z</time></trkpt><trkpt lat="45.0412431" lon="7.9799099"><ele>279.8</ele><time>2026-04-12T10:52:25.678Z</time></trkpt><trkpt lat="45.041245" lon="7.9798026"><ele>277.2</ele><time>2026-04-12T10:52:26.679Z</time></trkpt><trkpt lat="45.0413128" lon="7.9796726"><ele>274.6</ele><time>2026-04-12T10:52:28.679Z</time></trkpt><trkpt lat="45.0413811" lon="7.9797222"><ele>272.0</ele><time>2026-04-12T10:52:31.679Z</time></trkpt><trkpt lat="45.0414002" lon="7.9798906"><ele>272.0</ele><time>2026-04-12T10:52:33.679Z</time></trkpt><trkpt lat="45.0414072" lon="7.9800139"><ele>272.0</ele><time>2026-04-12T10:52:34.679Z</time></trkpt><trkpt lat="45.0414228" lon="7.9801537"><ele>272.0</ele><time>2026-04-12T10:52:35.679Z</time></trkpt><trkpt lat="45.0414364" lon="7.9802994"><ele>272.0</ele><time>2026-04-12T10:52:36.679Z</time></trkpt><trkpt lat="45.0414619" lon="7.9804356"><ele>272.0</ele><time>2026-04-12T10:52:37.679Z</time></trkpt><trkpt lat="45.0414821" lon="7.9805892"><ele>275.25</ele><time>2026-04-12T10:52:38.679Z</time></trkpt><trkpt lat="45.041512" lon="7.9807527"><ele>278.5</ele><time>2026-04-12T10:52:39.679Z</time></trkpt><trkpt lat="45.041557" lon="7.9809237"><ele>281.75</ele><time>2026-04-12T10:52:40.679Z</time></trkpt><trkpt lat="45.0416047" lon="7.9811025"><ele>285.0</ele><time>2026-04-12T10:52:41.679Z</time></trkpt><trkpt lat="45.0416496" lon="7.9812859"><ele>285.0</ele><time>2026-04-12T10:52:42.679Z</time></trkpt><trkpt lat="45.0416942" lon="7.9814699"><ele>285.0</ele><time>2026-04-12T10:52:43.679Z</time></trkpt><trkpt lat="45.0419215" lon="7.982288"><ele>285.0</ele><time>2026-04-12T10:52:47.679Z</time></trkpt><trkpt lat="45.042019" lon="7.9824913"><ele>285.0</ele><time>2026-04-12T10:52:48.678Z</time></trkpt><trkpt lat="45.0420465" lon="7.9826706"><ele>285.0</ele><time>2026-04-12T10:52:49.679Z</time></trkpt><trkpt lat="45.0420891" lon="7.9828648"><ele>285.0</ele><time>2026-04-12T10:52:50.679Z</time></trkpt><trkpt lat="45.0421052" lon="7.9830687"><ele>280.3333333333333</ele><time>2026-04-12T10:52:51.679Z</time></trkpt><trkpt lat="45.042013" lon="7.9832382"><ele>275.66666666666663</ele><time>2026-04-12T10:52:52.679Z</time></trkpt><trkpt lat="45.0419647" lon="7.9834348"><ele>271.0</ele><time>2026-04-12T10:52:53.679Z</time></trkpt><trkpt lat="45.0419197" lon="7.9836406"><ele>270.3333333333333</ele><time>2026-04-12T10:52:54.679Z</time></trkpt><trkpt lat="45.0418019" lon="7.9838005"><ele>269.6666666666667</ele><time>2026-04-12T10:52:55.679Z</time></trkpt><trkpt lat="45.0416981" lon="7.983963"><ele>269.0</ele><time>2026-04-12T10:52:56.679Z</time></trkpt><trkpt lat="45.0415812" lon="7.9841406"><ele>269.0</ele><time>2026-04-12T10:52:57.679Z</time></trkpt><trkpt lat="45.0414718" lon="7.9843301"><ele>269.0</ele><time>2026-04-12T10:52:58.679Z</time></trkpt><trkpt lat="45.0413665" lon="7.9845276"><ele>269.0</ele><time>2026-04-12T10:52:59.679Z</time></trkpt><trkpt lat="45.0412652" lon="7.9847263"><ele>269.0</ele><time>2026-04-12T10:53:00.679Z</time></trkpt><trkpt lat="45.0411693" lon="7.9849177"><ele>269.0</ele><time>2026-04-12T10:53:01.679Z</time></trkpt><trkpt lat="45.0410658" lon="7.985116"><ele>269.0</ele><time>2026-04-12T10:53:02.679Z</time></trkpt><trkpt lat="45.0409874" lon="7.9853153"><ele>267.6666666666667</ele><time>2026-04-12T10:53:03.679Z</time></trkpt><trkpt lat="45.0408941" lon="7.9855221"><ele>266.3333333333333</ele><time>2026-04-12T10:53:04.679Z</time></trkpt><trkpt lat="45.0408044" lon="7.9857087"><ele>265.0</ele><time>2026-04-12T10:53:05.679Z</time></trkpt><trkpt lat="45.0407116" lon="7.9859227"><ele>263.66666666666663</ele><time>2026-04-12T10:53:06.679Z</time></trkpt><trkpt lat="45.0406186" lon="7.9861366"><ele>262.3333333333333</ele><time>2026-04-12T10:53:07.679Z</time></trkpt><trkpt lat="45.040524" lon="7.9863483"><ele>261.0</ele><time>2026-04-12T10:53:08.679Z</time></trkpt><trkpt lat="45.0404292" lon="7.9865613"><ele>262.6666666666667</ele><time>2026-04-12T10:53:09.679Z</time></trkpt><trkpt lat="45.0403387" lon="7.9867668"><ele>264.33333333333337</ele><time>2026-04-12T10:53:10.679Z</time></trkpt><trkpt lat="45.0402318" lon="7.9869705"><ele>266.0</ele><time>2026-04-12T10:53:11.678Z</time></trkpt><trkpt lat="45.0401181" lon="7.9871503"><ele>266.0</ele><time>2026-04-12T10:53:12.679Z</time></trkpt><trkpt lat="45.0399916" lon="7.9873174"><ele>266.0</ele><time>2026-04-12T10:53:13.679Z</time></trkpt><trkpt lat="45.0398603" lon="7.9874681"><ele>266.0</ele><time>2026-04-12T10:53:14.679Z</time></trkpt><trkpt lat="45.0397213" lon="7.9876001"><ele>264.6666666666667</ele><time>2026-04-12T10:53:15.679Z</time></trkpt><trkpt lat="45.0395884" lon="7.987729"><ele>263.3333333333333</ele><time>2026-04-12T10:53:16.679Z</time></trkpt><trkpt lat="45.039433" lon="7.9878512"><ele>262.0</ele><time>2026-04-12T10:53:17.679Z</time></trkpt><trkpt lat="45.0392874" lon="7.9879543"><ele>262.0</ele><time>2026-04-12T10:53:18.679Z</time></trkpt><trkpt lat="45.0391397" lon="7.9880416"><ele>262.0</ele><time>2026-04-12T10:53:19.679Z</time></trkpt><trkpt lat="45.0389886" lon="7.9881172"><ele>262.0</ele><time>2026-04-12T10:53:20.678Z</time></trkpt><trkpt lat="45.0388306" lon="7.9881934"><ele>262.3333333333333</ele><time>2026-04-12T10:53:21.679Z</time></trkpt><trkpt lat="45.0386617" lon="7.9882655"><ele>262.6666666666667</ele><time>2026-04-12T10:53:22.678Z</time></trkpt><trkpt lat="45.0385024" lon="7.9883575"><ele>263.0</ele><time>2026-04-12T10:53:23.679Z</time></trkpt><trkpt lat="45.0383532" lon="7.9884668"><ele>258.0</ele><time>2026-04-12T10:53:24.679Z</time></trkpt><trkpt lat="45.0382182" lon="7.9886101"><ele>253.0</ele><time>2026-04-12T10:53:25.679Z</time></trkpt><trkpt lat="45.0380837" lon="7.9887643"><ele>248.0</ele><time>2026-04-12T10:53:26.679Z</time></trkpt><trkpt lat="45.0379611" lon="7.9889449"><ele>248.0</ele><time>2026-04-12T10:53:27.679Z</time></trkpt><trkpt lat="45.0378603" lon="7.9891244"><ele>248.0</ele><time>2026-04-12T10:53:28.679Z</time></trkpt><trkpt lat="45.037767" lon="7.9893247"><ele>248.0</ele><time>2026-04-12T10:53:29.679Z</time></trkpt><trkpt lat="45.0376803" lon="7.9895216"><ele>250.66666666666669</ele><time>2026-04-12T10:53:30.679Z</time></trkpt><trkpt lat="45.0375849" lon="7.9897348"><ele>253.33333333333331</ele><time>2026-04-12T10:53:31.679Z</time></trkpt><trkpt lat="45.0374903" lon="7.9899451"><ele>256.0</ele><time>2026-04-12T10:53:32.679Z</time></trkpt><trkpt lat="45.0373891" lon="7.9901497"><ele>258.0</ele><time>2026-04-12T10:53:33.679Z</time></trkpt><trkpt lat="45.0372987" lon="7.9903474"><ele>260.0</ele><time>2026-04-12T10:53:34.679Z</time></trkpt><trkpt lat="45.037227" lon="7.9905247"><ele>262.0</ele><time>2026-04-12T10:53:35.679Z</time></trkpt><trkpt lat="45.037175" lon="7.9907118"><ele>260.5</ele><time>2026-04-12T10:53:36.679Z</time></trkpt><trkpt lat="45.0371569" lon="7.9909043"><ele>259.0</ele><time>2026-04-12T10:53:37.679Z</time></trkpt><trkpt lat="45.0371654" lon="7.9911072"><ele>257.5</ele><time>2026-04-12T10:53:38.679Z</time></trkpt><trkpt lat="45.0371991" lon="7.9913131"><ele>256.0</ele><time>2026-04-12T10:53:39.679Z</time></trkpt><trkpt lat="45.0372423" lon="7.9915265"><ele>253.66666666666666</ele><time>2026-04-12T10:53:40.679Z</time></trkpt><trkpt lat="45.0372924" lon="7.9917545"><ele>251.33333333333331</ele><time>2026-04-12T10:53:41.679Z</time></trkpt><trkpt lat="45.0373424" lon="7.9919883"><ele>249.0</ele><time>2026-04-12T10:53:42.679Z</time></trkpt><trkpt lat="45.0373903" lon="7.9922261"><ele>249.0</ele><time>2026-04-12T10:53:43.679Z</time></trkpt><trkpt lat="45.0374392" lon="7.9924649"><ele>249.0</ele><time>2026-04-12T10:53:44.678Z</time></trkpt><trkpt lat="45.0374909" lon="7.9927085"><ele>249.0</ele><time>2026-04-12T10:53:45.679Z</time></trkpt><trkpt lat="45.0375395" lon="7.9929491"><ele>248.0</ele><time>2026-04-12T10:53:46.679Z</time></trkpt><trkpt lat="45.0375959" lon="7.993166"><ele>247.0</ele><time>2026-04-12T10:53:47.679Z</time></trkpt><trkpt lat="45.0376438" lon="7.9933822"><ele>246.0</ele><time>2026-04-12T10:53:48.679Z</time></trkpt><trkpt lat="45.0376881" lon="7.9935802"><ele>245.75</ele><time>2026-04-12T10:53:49.679Z</time></trkpt><trkpt lat="45.0377304" lon="7.993758"><ele>245.5</ele><time>2026-04-12T10:53:50.679Z</time></trkpt><trkpt lat="45.0377642" lon="7.9939315"><ele>245.25</ele><time>2026-04-12T10:53:51.679Z</time></trkpt><trkpt lat="45.0377959" lon="7.9940797"><ele>245.0</ele><time>2026-04-12T10:53:52.679Z</time></trkpt><trkpt lat="45.0378203" lon="7.9942145"><ele>244.66666666666669</ele><time>2026-04-12T10:53:53.679Z</time></trkpt><trkpt lat="45.0378453" lon="7.9943284"><ele>244.33333333333334</ele><time>2026-04-12T10:53:54.679Z</time></trkpt><trkpt lat="45.0378752" lon="7.9944299"><ele>244.0</ele><time>2026-04-12T10:53:55.679Z</time></trkpt><trkpt lat="45.0379296" lon="7.9944982"><ele>243.66666666666669</ele><time>2026-04-12T10:53:56.679Z</time></trkpt><trkpt lat="45.038002" lon="7.9945106"><ele>243.33333333333334</ele><time>2026-04-12T10:53:57.679Z</time></trkpt><trkpt lat="45.0380681" lon="7.9944723"><ele>243.0</ele><time>2026-04-12T10:53:58.679Z</time></trkpt><trkpt lat="45.0381102" lon="7.9943655"><ele>243.0</ele><time>2026-04-12T10:53:59.679Z</time></trkpt><trkpt lat="45.0381632" lon="7.9942462"><ele>243.0</ele><time>2026-04-12T10:54:00.679Z</time></trkpt><trkpt lat="45.0382274" lon="7.9941157"><ele>243.0</ele><time>2026-04-12T10:54:01.678Z</time></trkpt><trkpt lat="45.0383019" lon="7.9939723"><ele>243.0</ele><time>2026-04-12T10:54:02.679Z</time></trkpt><trkpt lat="45.0383993" lon="7.9938276"><ele>244.5</ele><time>2026-04-12T10:54:03.678Z</time></trkpt><trkpt lat="45.0384915" lon="7.9936932"><ele>246.0</ele><time>2026-04-12T10:54:04.678Z</time></trkpt><trkpt lat="45.0385761" lon="7.993552"><ele>247.5</ele><time>2026-04-12T10:54:05.679Z</time></trkpt><trkpt lat="45.0386565" lon="7.993411"><ele>249.0</ele><time>2026-04-12T10:54:06.679Z</time></trkpt><trkpt lat="45.0387444" lon="7.9932778"><ele>249.0</ele><time>2026-04-12T10:54:07.679Z</time></trkpt><trkpt lat="45.0388458" lon="7.9931509"><ele>249.0</ele><time>2026-04-12T10:54:08.678Z</time></trkpt><trkpt lat="45.0389459" lon="7.9930381"><ele>249.0</ele><time>2026-04-12T10:54:09.678Z</time></trkpt><trkpt lat="45.0390484" lon="7.9929252"><ele>249.0</ele><time>2026-04-12T10:54:10.679Z</time></trkpt><trkpt lat="45.0391544" lon="7.9928013"><ele>250.0</ele><time>2026-04-12T10:54:11.679Z</time></trkpt><trkpt lat="45.0392738" lon="7.9926874"><ele>251.0</ele><time>2026-04-12T10:54:12.679Z</time></trkpt><trkpt lat="45.0393844" lon="7.9925653"><ele>252.0</ele><time>2026-04-12T10:54:13.679Z</time></trkpt><trkpt lat="45.0395147" lon="7.9924442"><ele>253.0</ele><time>2026-04-12T10:54:14.679Z</time></trkpt><trkpt lat="45.0396439" lon="7.9923212"><ele>253.0</ele><time>2026-04-12T10:54:15.678Z</time></trkpt><trkpt lat="45.0397621" lon="7.9921949"><ele>253.0</ele><time>2026-04-12T10:54:16.679Z</time></trkpt><trkpt lat="45.0398817" lon="7.9920597"><ele>253.0</ele><time>2026-04-12T10:54:17.679Z</time></trkpt><trkpt lat="45.0399991" lon="7.9919166"><ele>254.0</ele><time>2026-04-12T10:54:18.679Z</time></trkpt><trkpt lat="45.0401135" lon="7.9917894"><ele>255.0</ele><time>2026-04-12T10:54:19.679Z</time></trkpt><trkpt lat="45.0402331" lon="7.9916723"><ele>256.0</ele><time>2026-04-12T10:54:20.679Z</time></trkpt><trkpt lat="45.0403584" lon="7.9915678"><ele>257.0</ele><time>2026-04-12T10:54:21.679Z</time></trkpt><trkpt lat="45.0404962" lon="7.9914732"><ele>257.0</ele><time>2026-04-12T10:54:22.679Z</time></trkpt><trkpt lat="45.040646" lon="7.9914148"><ele>257.0</ele><time>2026-04-12T10:54:23.679Z</time></trkpt><trkpt lat="45.0407894" lon="7.9913395"><ele>257.0</ele><time>2026-04-12T10:54:24.679Z</time></trkpt><trkpt lat="45.0409337" lon="7.9912718"><ele>261.0</ele><time>2026-04-12T10:54:25.679Z</time></trkpt><trkpt lat="45.0410785" lon="7.9911956"><ele>265.0</ele><time>2026-04-12T10:54:26.679Z</time></trkpt><trkpt lat="45.0412298" lon="7.9911481"><ele>269.0</ele><time>2026-04-12T10:54:27.679Z</time></trkpt><trkpt lat="45.04138" lon="7.9910932"><ele>269.0</ele><time>2026-04-12T10:54:28.679Z</time></trkpt><trkpt lat="45.0415295" lon="7.9910595"><ele>269.0</ele><time>2026-04-12T10:54:29.679Z</time></trkpt><trkpt lat="45.041675" lon="7.9910264"><ele>269.0</ele><time>2026-04-12T10:54:30.679Z</time></trkpt><trkpt lat="45.0418185" lon="7.9910204"><ele>269.0</ele><time>2026-04-12T10:54:31.679Z</time></trkpt><trkpt lat="45.0419619" lon="7.9910474"><ele>270.75</ele><time>2026-04-12T10:54:32.679Z</time></trkpt><trkpt lat="45.0420954" lon="7.9910744"><ele>272.5</ele><time>2026-04-12T10:54:33.679Z</time></trkpt><trkpt lat="45.0422161" lon="7.9911012"><ele>274.25</ele><time>2026-04-12T10:54:34.679Z</time></trkpt><trkpt lat="45.0423265" lon="7.9911127"><ele>276.0</ele><time>2026-04-12T10:54:35.679Z</time></trkpt><trkpt lat="45.042435" lon="7.9910756"><ele>273.0</ele><time>2026-04-12T10:54:36.679Z</time></trkpt><trkpt lat="45.0425407" lon="7.9909847"><ele>270.0</ele><time>2026-04-12T10:54:37.679Z</time></trkpt><trkpt lat="45.042641" lon="7.9908922"><ele>267.0</ele><time>2026-04-12T10:54:38.679Z</time></trkpt><trkpt lat="45.0427584" lon="7.9907828"><ele>264.0</ele><time>2026-04-12T10:54:39.679Z</time></trkpt><trkpt lat="45.0428764" lon="7.990647"><ele>264.0</ele><time>2026-04-12T10:54:40.678Z</time></trkpt><trkpt lat="45.043006" lon="7.9905063"><ele>264.0</ele><time>2026-04-12T10:54:41.679Z</time></trkpt><trkpt lat="45.0431415" lon="7.9903774"><ele>264.0</ele><time>2026-04-12T10:54:42.679Z</time></trkpt><trkpt lat="45.0432781" lon="7.9902431"><ele>264.3333333333333</ele><time>2026-04-12T10:54:43.679Z</time></trkpt><trkpt lat="45.0434232" lon="7.9901109"><ele>264.66666666666663</ele><time>2026-04-12T10:54:44.679Z</time></trkpt><trkpt lat="45.0435518" lon="7.9899919"><ele>265.0</ele><time>2026-04-12T10:54:45.679Z</time></trkpt><trkpt lat="45.0436883" lon="7.9898757"><ele>265.0</ele><time>2026-04-12T10:54:46.679Z</time></trkpt><trkpt lat="45.0438331" lon="7.9897721"><ele>265.0</ele><time>2026-04-12T10:54:47.679Z</time></trkpt><trkpt lat="45.0439823" lon="7.9896911"><ele>265.0</ele><time>2026-04-12T10:54:48.679Z</time></trkpt><trkpt lat="45.0441339" lon="7.9896154"><ele>267.3333333333333</ele><time>2026-04-12T10:54:49.679Z</time></trkpt><trkpt lat="45.044296" lon="7.9895617"><ele>269.6666666666667</ele><time>2026-04-12T10:54:50.679Z</time></trkpt><trkpt lat="45.0444424" lon="7.9895307"><ele>272.0</ele><time>2026-04-12T10:54:51.679Z</time></trkpt><trkpt lat="45.0446025" lon="7.9895092"><ele>272.0</ele><time>2026-04-12T10:54:52.679Z</time></trkpt><trkpt lat="45.0447688" lon="7.9894839"><ele>272.0</ele><time>2026-04-12T10:54:53.679Z</time></trkpt><trkpt lat="45.0449063" lon="7.9894097"><ele>272.0</ele><time>2026-04-12T10:54:54.679Z</time></trkpt><trkpt lat="45.0450344" lon="7.9892928"><ele>273.6666666666667</ele><time>2026-04-12T10:54:55.679Z</time></trkpt><trkpt lat="45.0451534" lon="7.9891577"><ele>275.3333333333333</ele><time>2026-04-12T10:54:56.679Z</time></trkpt><trkpt lat="45.0452731" lon="7.9890106"><ele>277.0</ele><time>2026-04-12T10:54:57.678Z</time></trkpt><trkpt lat="45.0453914" lon="7.9888667"><ele>277.0</ele><time>2026-04-12T10:54:58.679Z</time></trkpt><trkpt lat="45.0455178" lon="7.9887198"><ele>277.0</ele><time>2026-04-12T10:54:59.679Z</time></trkpt><trkpt lat="45.045654" lon="7.9886079"><ele>277.0</ele><time>2026-04-12T10:55:00.679Z</time></trkpt><trkpt lat="45.0457974" lon="7.9884937"><ele>279.3333333333333</ele><time>2026-04-12T10:55:01.679Z</time></trkpt><trkpt lat="45.045939" lon="7.9884102"><ele>281.6666666666667</ele><time>2026-04-12T10:55:02.679Z</time></trkpt><trkpt lat="45.0460926" lon="7.9883533"><ele>284.0</ele><time>2026-04-12T10:55:03.679Z</time></trkpt><trkpt lat="45.0462544" lon="7.9883071"><ele>284.0</ele><time>2026-04-12T10:55:04.679Z</time></trkpt><trkpt lat="45.0464204" lon="7.9882715"><ele>284.0</ele><time>2026-04-12T10:55:05.678Z</time></trkpt><trkpt lat="45.0465923" lon="7.9882555"><ele>284.0</ele><time>2026-04-12T10:55:06.679Z</time></trkpt><trkpt lat="45.0467493" lon="7.9882487"><ele>288.0</ele><time>2026-04-12T10:55:07.679Z</time></trkpt><trkpt lat="45.04691" lon="7.988237"><ele>292.0</ele><time>2026-04-12T10:55:08.679Z</time></trkpt><trkpt lat="45.0470715" lon="7.9882393"><ele>296.0</ele><time>2026-04-12T10:55:09.678Z</time></trkpt><trkpt lat="45.047244" lon="7.9882457"><ele>296.0</ele><time>2026-04-12T10:55:10.679Z</time></trkpt><trkpt lat="45.0474134" lon="7.9882484"><ele>296.0</ele><time>2026-04-12T10:55:11.678Z</time></trkpt><trkpt lat="45.0475693" lon="7.9882304"><ele>296.0</ele><time>2026-04-12T10:55:12.679Z</time></trkpt><trkpt lat="45.0477418" lon="7.9882156"><ele>297.0</ele><time>2026-04-12T10:55:13.679Z</time></trkpt><trkpt lat="45.0478943" lon="7.9881921"><ele>298.0</ele><time>2026-04-12T10:55:14.679Z</time></trkpt><trkpt lat="45.0480472" lon="7.9881528"><ele>299.0</ele><time>2026-04-12T10:55:15.679Z</time></trkpt><trkpt lat="45.0482001" lon="7.9880861"><ele>299.6666666666667</ele><time>2026-04-12T10:55:16.679Z</time></trkpt><trkpt lat="45.0483405" lon="7.9879904"><ele>300.3333333333333</ele><time>2026-04-12T10:55:17.679Z</time></trkpt><trkpt lat="45.0484706" lon="7.9879004"><ele>301.0</ele><time>2026-04-12T10:55:18.679Z</time></trkpt><trkpt lat="45.0485962" lon="7.9877763"><ele>301.0</ele><time>2026-04-12T10:55:19.678Z</time></trkpt><trkpt lat="45.0487227" lon="7.9876634"><ele>301.0</ele><time>2026-04-12T10:55:20.679Z</time></trkpt><trkpt lat="45.0488444" lon="7.9875531"><ele>301.0</ele><time>2026-04-12T10:55:21.679Z</time></trkpt><trkpt lat="45.048962" lon="7.9874604"><ele>301.0</ele><time>2026-04-12T10:55:22.679Z</time></trkpt><trkpt lat="45.0490884" lon="7.9873559"><ele>303.5</ele><time>2026-04-12T10:55:23.678Z</time></trkpt><trkpt lat="45.0492214" lon="7.9872743"><ele>306.0</ele><time>2026-04-12T10:55:24.678Z</time></trkpt><trkpt lat="45.0493527" lon="7.9871886"><ele>308.5</ele><time>2026-04-12T10:55:25.679Z</time></trkpt><trkpt lat="45.0495059" lon="7.9871368"><ele>311.0</ele><time>2026-04-12T10:55:26.679Z</time></trkpt><trkpt lat="45.0496565" lon="7.9870906"><ele>311.0</ele><time>2026-04-12T10:55:27.679Z</time></trkpt><trkpt lat="45.0498058" lon="7.9870707"><ele>311.0</ele><time>2026-04-12T10:55:28.679Z</time></trkpt><trkpt lat="45.0499615" lon="7.987055"><ele>311.0</ele><time>2026-04-12T10:55:29.679Z</time></trkpt><trkpt lat="45.0501136" lon="7.9870412"><ele>313.0</ele><time>2026-04-12T10:55:30.679Z</time></trkpt><trkpt lat="45.0502653" lon="7.9870249"><ele>315.0</ele><time>2026-04-12T10:55:31.679Z</time></trkpt><trkpt lat="45.0504269" lon="7.9870051"><ele>317.0</ele><time>2026-04-12T10:55:32.679Z</time></trkpt><trkpt lat="45.0505952" lon="7.98698"><ele>317.0</ele><time>2026-04-12T10:55:33.679Z</time></trkpt><trkpt lat="45.0507574" lon="7.9869724"><ele>317.0</ele><time>2026-04-12T10:55:34.679Z</time></trkpt><trkpt lat="45.050915" lon="7.9869633"><ele>317.0</ele><time>2026-04-12T10:55:35.678Z</time></trkpt><trkpt lat="45.0510696" lon="7.9869407"><ele>318.0</ele><time>2026-04-12T10:55:36.679Z</time></trkpt><trkpt lat="45.0512212" lon="7.9869232"><ele>319.0</ele><time>2026-04-12T10:55:37.679Z</time></trkpt><trkpt lat="45.0513871" lon="7.9869048"><ele>320.0</ele><time>2026-04-12T10:55:38.679Z</time></trkpt><trkpt lat="45.0515392" lon="7.9868846"><ele>321.6666666666667</ele><time>2026-04-12T10:55:39.679Z</time></trkpt><trkpt lat="45.0516977" lon="7.9868565"><ele>323.3333333333333</ele><time>2026-04-12T10:55:40.678Z</time></trkpt><trkpt lat="45.0518549" lon="7.9868363"><ele>325.0</ele><time>2026-04-12T10:55:41.679Z</time></trkpt><trkpt lat="45.0520198" lon="7.9868187"><ele>325.0</ele><time>2026-04-12T10:55:42.679Z</time></trkpt><trkpt lat="45.0521812" lon="7.9867989"><ele>325.0</ele><time>2026-04-12T10:55:43.678Z</time></trkpt><trkpt lat="45.052346" lon="7.9867679"><ele>325.0</ele><time>2026-04-12T10:55:44.679Z</time></trkpt><trkpt lat="45.0525044" lon="7.9867512"><ele>331.3333333333333</ele><time>2026-04-12T10:55:45.678Z</time></trkpt><trkpt lat="45.0526828" lon="7.9867289"><ele>337.6666666666667</ele><time>2026-04-12T10:55:46.679Z</time></trkpt><trkpt lat="45.052835" lon="7.9867155"><ele>344.0</ele><time>2026-04-12T10:55:47.679Z</time></trkpt><trkpt lat="45.0529939" lon="7.9867004"><ele>342.33333333333337</ele><time>2026-04-12T10:55:48.679Z</time></trkpt><trkpt lat="45.0531535" lon="7.986676"><ele>340.6666666666667</ele><time>2026-04-12T10:55:49.679Z</time></trkpt><trkpt lat="45.053312" lon="7.9866602"><ele>339.0</ele><time>2026-04-12T10:55:50.679Z</time></trkpt><trkpt lat="45.0534644" lon="7.9866471"><ele>341.75</ele><time>2026-04-12T10:55:51.679Z</time></trkpt><trkpt lat="45.0536135" lon="7.9866315"><ele>344.5</ele><time>2026-04-12T10:55:52.679Z</time></trkpt><trkpt lat="45.0537579" lon="7.9866167"><ele>347.25</ele><time>2026-04-12T10:55:53.679Z</time></trkpt><trkpt lat="45.0539003" lon="7.9866026"><ele>350.0</ele><time>2026-04-12T10:55:54.679Z</time></trkpt><trkpt lat="45.0540331" lon="7.9865849"><ele>350.6</ele><time>2026-04-12T10:55:55.679Z</time></trkpt><trkpt lat="45.0541497" lon="7.986578"><ele>351.2</ele><time>2026-04-12T10:55:56.679Z</time></trkpt><trkpt lat="45.0542534" lon="7.9865726"><ele>351.79999999999995</ele><time>2026-04-12T10:55:57.679Z</time></trkpt><trkpt lat="45.0543516" lon="7.9865661"><ele>352.4</ele><time>2026-04-12T10:55:58.679Z</time></trkpt><trkpt lat="45.0544492" lon="7.9865412"><ele>353.0</ele><time>2026-04-12T10:55:59.679Z</time></trkpt><trkpt lat="45.05453" lon="7.9865039"><ele>353.0</ele><time>2026-04-12T10:56:00.679Z</time></trkpt><trkpt lat="45.0546114" lon="7.9864617"><ele>353.0</ele><time>2026-04-12T10:56:01.679Z</time></trkpt><trkpt lat="45.0547116" lon="7.9864058"><ele>353.0</ele><time>2026-04-12T10:56:02.679Z</time></trkpt><trkpt lat="45.0548091" lon="7.9863541"><ele>353.0</ele><time>2026-04-12T10:56:03.679Z</time></trkpt><trkpt lat="45.0548993" lon="7.9862874"><ele>353.0</ele><time>2026-04-12T10:56:04.679Z</time></trkpt><trkpt lat="45.0549819" lon="7.986219"><ele>354.4</ele><time>2026-04-12T10:56:05.679Z</time></trkpt><trkpt lat="45.0550679" lon="7.9861416"><ele>355.79999999999995</ele><time>2026-04-12T10:56:06.679Z</time></trkpt><trkpt lat="45.0551513" lon="7.9860742"><ele>357.2</ele><time>2026-04-12T10:56:07.679Z</time></trkpt><trkpt lat="45.0552535" lon="7.9860329"><ele>358.6</ele><time>2026-04-12T10:56:08.679Z</time></trkpt><trkpt lat="45.0553451" lon="7.9859917"><ele>360.0</ele><time>2026-04-12T10:56:09.679Z</time></trkpt><trkpt lat="45.0554354" lon="7.9859569"><ele>360.0</ele><time>2026-04-12T10:56:10.679Z</time></trkpt><trkpt lat="45.0555254" lon="7.9859118"><ele>360.0</ele><time>2026-04-12T10:56:11.679Z</time></trkpt><trkpt lat="45.0556259" lon="7.9858757"><ele>360.0</ele><time>2026-04-12T10:56:12.679Z</time></trkpt><trkpt lat="45.0557127" lon="7.9857895"><ele>360.0</ele><time>2026-04-12T10:56:13.679Z</time></trkpt><trkpt lat="45.0558109" lon="7.9856974"><ele>360.0</ele><time>2026-04-12T10:56:14.679Z</time></trkpt><trkpt lat="45.0559056" lon="7.9855924"><ele>360.4</ele><time>2026-04-12T10:56:15.679Z</time></trkpt><trkpt lat="45.0559919" lon="7.9854912"><ele>360.8</ele><time>2026-04-12T10:56:16.679Z</time></trkpt><trkpt lat="45.0560847" lon="7.9854065"><ele>361.20000000000005</ele><time>2026-04-12T10:56:17.679Z</time></trkpt><trkpt lat="45.0561755" lon="7.9853399"><ele>361.6</ele><time>2026-04-12T10:56:18.679Z</time></trkpt><trkpt lat="45.0562996" lon="7.9853379"><ele>362.0</ele><time>2026-04-12T10:56:19.679Z</time></trkpt><trkpt lat="45.0564166" lon="7.9853149"><ele>362.0</ele><time>2026-04-12T10:56:20.679Z</time></trkpt><trkpt lat="45.0565321" lon="7.9852952"><ele>362.0</ele><time>2026-04-12T10:56:21.679Z</time></trkpt><trkpt lat="45.056646" lon="7.9852629"><ele>362.0</ele><time>2026-04-12T10:56:22.679Z</time></trkpt><trkpt lat="45.0567651" lon="7.9852449"><ele>362.0</ele><time>2026-04-12T10:56:23.679Z</time></trkpt><trkpt lat="45.0568844" lon="7.9852216"><ele>365.20000000000005</ele><time>2026-04-12T10:56:24.679Z</time></trkpt><trkpt lat="45.0569822" lon="7.9851946"><ele>368.4</ele><time>2026-04-12T10:56:25.679Z</time></trkpt><trkpt lat="45.0570717" lon="7.9851843"><ele>371.6</ele><time>2026-04-12T10:56:26.679Z</time></trkpt><trkpt lat="45.0571731" lon="7.9851991"><ele>374.79999999999995</ele><time>2026-04-12T10:56:27.678Z</time></trkpt><trkpt lat="45.0572762" lon="7.9852459"><ele>378.0</ele><time>2026-04-12T10:56:28.679Z</time></trkpt><trkpt lat="45.0573737" lon="7.9853037"><ele>380.0</ele><time>2026-04-12T10:56:29.678Z</time></trkpt><trkpt lat="45.0574754" lon="7.9853456"><ele>382.0</ele><time>2026-04-12T10:56:30.679Z</time></trkpt><trkpt lat="45.0575679" lon="7.9853746"><ele>384.0</ele><time>2026-04-12T10:56:31.679Z</time></trkpt><trkpt lat="45.0576653" lon="7.985421"><ele>386.0</ele><time>2026-04-12T10:56:32.679Z</time></trkpt><trkpt lat="45.0577412" lon="7.9854416"><ele>388.0</ele><time>2026-04-12T10:56:33.679Z</time></trkpt><trkpt lat="45.0578135" lon="7.9854531"><ele>388.00000000000006</ele><time>2026-04-12T10:56:34.679Z</time></trkpt><trkpt lat="45.0578809" lon="7.9854248"><ele>388.0</ele><time>2026-04-12T10:56:35.679Z</time></trkpt><trkpt lat="45.0579469" lon="7.9853702"><ele>388.0</ele><time>2026-04-12T10:56:36.679Z</time></trkpt><trkpt lat="45.0579918" lon="7.9852785"><ele>388.0</ele><time>2026-04-12T10:56:37.679Z</time></trkpt><trkpt lat="45.0580165" lon="7.9851687"><ele>388.00000000000006</ele><time>2026-04-12T10:56:38.679Z</time></trkpt><trkpt lat="45.0580279" lon="7.9850372"><ele>388.0</ele><time>2026-04-12T10:56:39.679Z</time></trkpt><trkpt lat="45.0580314" lon="7.984906"><ele>385.6666666666667</ele><time>2026-04-12T10:56:40.679Z</time></trkpt><trkpt lat="45.0580294" lon="7.9847843"><ele>383.33333333333337</ele><time>2026-04-12T10:56:41.679Z</time></trkpt><trkpt lat="45.0580281" lon="7.9846753"><ele>381.0</ele><time>2026-04-12T10:56:42.679Z</time></trkpt><trkpt lat="45.0580164" lon="7.98456"><ele>378.6666666666667</ele><time>2026-04-12T10:56:43.679Z</time></trkpt><trkpt lat="45.058003" lon="7.9844582"><ele>376.33333333333337</ele><time>2026-04-12T10:56:44.678Z</time></trkpt><trkpt lat="45.0579955" lon="7.9843675"><ele>374.0</ele><time>2026-04-12T10:56:45.679Z</time></trkpt><trkpt lat="45.0580392" lon="7.9842086"><ele>374.4</ele><time>2026-04-12T10:56:47.678Z</time></trkpt><trkpt lat="45.0580931" lon="7.9841472"><ele>374.79999999999995</ele><time>2026-04-12T10:56:48.679Z</time></trkpt><trkpt lat="45.0581672" lon="7.984096"><ele>375.20000000000005</ele><time>2026-04-12T10:56:49.679Z</time></trkpt><trkpt lat="45.0582717" lon="7.9840942"><ele>375.6</ele><time>2026-04-12T10:56:50.679Z</time></trkpt><trkpt lat="45.0583809" lon="7.9840987"><ele>376.0</ele><time>2026-04-12T10:56:51.679Z</time></trkpt><trkpt lat="45.0584821" lon="7.9840983"><ele>378.25</ele><time>2026-04-12T10:56:52.679Z</time></trkpt><trkpt lat="45.0585931" lon="7.9841246"><ele>380.5</ele><time>2026-04-12T10:56:53.679Z</time></trkpt><trkpt lat="45.0587118" lon="7.9841769"><ele>382.75</ele><time>2026-04-12T10:56:54.679Z</time></trkpt><trkpt lat="45.0588358" lon="7.9842277"><ele>385.0</ele><time>2026-04-12T10:56:55.679Z</time></trkpt><trkpt lat="45.0589414" lon="7.9842643"><ele>387.75</ele><time>2026-04-12T10:56:56.679Z</time></trkpt><trkpt lat="45.0590637" lon="7.9842936"><ele>390.5</ele><time>2026-04-12T10:56:57.679Z</time></trkpt><trkpt lat="45.0591725" lon="7.9843239"><ele>393.25</ele><time>2026-04-12T10:56:58.679Z</time></trkpt><trkpt lat="45.0592921" lon="7.9843318"><ele>396.0</ele><time>2026-04-12T10:56:59.679Z</time></trkpt><trkpt lat="45.0594143" lon="7.9843136"><ele>397.0</ele><time>2026-04-12T10:57:00.679Z</time></trkpt><trkpt lat="45.059535" lon="7.9842738"><ele>398.0</ele><time>2026-04-12T10:57:01.679Z</time></trkpt><trkpt lat="45.0596611" lon="7.9842295"><ele>399.0</ele><time>2026-04-12T10:57:02.679Z</time></trkpt><trkpt lat="45.059786" lon="7.9841678"><ele>400.0</ele><time>2026-04-12T10:57:03.679Z</time></trkpt><trkpt lat="45.0599077" lon="7.9841194"><ele>395.2</ele><time>2026-04-12T10:57:04.679Z</time></trkpt><trkpt lat="45.0600118" lon="7.9840518"><ele>390.4</ele><time>2026-04-12T10:57:05.678Z</time></trkpt><trkpt lat="45.0601074" lon="7.9839557"><ele>385.6</ele><time>2026-04-12T10:57:06.679Z</time></trkpt><trkpt lat="45.0602116" lon="7.983917"><ele>380.8</ele><time>2026-04-12T10:57:07.679Z</time></trkpt><trkpt lat="45.0603159" lon="7.9838762"><ele>376.0</ele><time>2026-04-12T10:57:08.679Z</time></trkpt><trkpt lat="45.0604169" lon="7.9838518"><ele>376.0</ele><time>2026-04-12T10:57:09.679Z</time></trkpt><trkpt lat="45.0605877" lon="7.9839049"><ele>376.0</ele><time>2026-04-12T10:57:10.679Z</time></trkpt><trkpt lat="45.0607149" lon="7.9839255"><ele>376.0</ele><time>2026-04-12T10:57:11.678Z</time></trkpt><trkpt lat="45.0608422" lon="7.9839483"><ele>376.0</ele><time>2026-04-12T10:57:12.679Z</time></trkpt><trkpt lat="45.0610022" lon="7.98399"><ele>375.0</ele><time>2026-04-12T10:57:13.679Z</time></trkpt><trkpt lat="45.0611321" lon="7.9840129"><ele>374.0</ele><time>2026-04-12T10:57:14.679Z</time></trkpt><trkpt lat="45.0612577" lon="7.9840754"><ele>373.0</ele><time>2026-04-12T10:57:15.679Z</time></trkpt><trkpt lat="45.0613622" lon="7.9841152"><ele>372.0</ele><time>2026-04-12T10:57:16.678Z</time></trkpt><trkpt lat="45.0614559" lon="7.9841657"><ele>372.20000000000005</ele><time>2026-04-12T10:57:17.679Z</time></trkpt><trkpt lat="45.0615408" lon="7.9842053"><ele>372.4</ele><time>2026-04-12T10:57:18.679Z</time></trkpt><trkpt lat="45.0616258" lon="7.9842208"><ele>372.6</ele><time>2026-04-12T10:57:19.679Z</time></trkpt><trkpt lat="45.0617138" lon="7.9842126"><ele>372.79999999999995</ele><time>2026-04-12T10:57:20.679Z</time></trkpt><trkpt lat="45.0618046" lon="7.9841212"><ele>373.0</ele><time>2026-04-12T10:57:21.679Z</time></trkpt><trkpt lat="45.061911" lon="7.9840239"><ele>371.0</ele><time>2026-04-12T10:57:22.679Z</time></trkpt><trkpt lat="45.0620198" lon="7.9839302"><ele>369.0</ele><time>2026-04-12T10:57:23.679Z</time></trkpt><trkpt lat="45.0621181" lon="7.9838377"><ele>367.0</ele><time>2026-04-12T10:57:24.679Z</time></trkpt><trkpt lat="45.0622229" lon="7.9837291"><ele>365.0</ele><time>2026-04-12T10:57:25.679Z</time></trkpt><trkpt lat="45.0623335" lon="7.9836064"><ele>365.0</ele><time>2026-04-12T10:57:26.679Z</time></trkpt><trkpt lat="45.0624428" lon="7.9834637"><ele>365.0</ele><time>2026-04-12T10:57:27.679Z</time></trkpt><trkpt lat="45.0625606" lon="7.9833138"><ele>365.0</ele><time>2026-04-12T10:57:28.679Z</time></trkpt><trkpt lat="45.0626702" lon="7.9831302"><ele>365.0</ele><time>2026-04-12T10:57:29.679Z</time></trkpt><trkpt lat="45.062789" lon="7.9829879"><ele>365.0</ele><time>2026-04-12T10:57:30.678Z</time></trkpt><trkpt lat="45.0629134" lon="7.9828384"><ele>365.0</ele><time>2026-04-12T10:57:31.679Z</time></trkpt><trkpt lat="45.0630275" lon="7.9826873"><ele>365.0</ele><time>2026-04-12T10:57:32.679Z</time></trkpt><trkpt lat="45.063149" lon="7.982532"><ele>365.0</ele><time>2026-04-12T10:57:33.678Z</time></trkpt><trkpt lat="45.0632655" lon="7.9823896"><ele>365.0</ele><time>2026-04-12T10:57:34.679Z</time></trkpt><trkpt lat="45.0633784" lon="7.9822388"><ele>366.75</ele><time>2026-04-12T10:57:35.679Z</time></trkpt><trkpt lat="45.063488" lon="7.982093"><ele>368.5</ele><time>2026-04-12T10:57:36.679Z</time></trkpt><trkpt lat="45.0635842" lon="7.9819464"><ele>370.25</ele><time>2026-04-12T10:57:37.679Z</time></trkpt><trkpt lat="45.0636645" lon="7.9817885"><ele>372.0</ele><time>2026-04-12T10:57:38.679Z</time></trkpt><trkpt lat="45.063735" lon="7.9816056"><ele>372.25</ele><time>2026-04-12T10:57:39.679Z</time></trkpt><trkpt lat="45.0637944" lon="7.9814469"><ele>372.5</ele><time>2026-04-12T10:57:40.679Z</time></trkpt><trkpt lat="45.063853" lon="7.9813024"><ele>372.75</ele><time>2026-04-12T10:57:41.679Z</time></trkpt><trkpt lat="45.0639391" lon="7.9811745"><ele>373.0</ele><time>2026-04-12T10:57:42.679Z</time></trkpt><trkpt lat="45.0640473" lon="7.9810787"><ele>373.75</ele><time>2026-04-12T10:57:43.679Z</time></trkpt><trkpt lat="45.0641713" lon="7.9810113"><ele>374.5</ele><time>2026-04-12T10:57:44.679Z</time></trkpt><trkpt lat="45.0643065" lon="7.980947"><ele>375.25</ele><time>2026-04-12T10:57:45.679Z</time></trkpt><trkpt lat="45.064444" lon="7.9808839"><ele>376.0</ele><time>2026-04-12T10:57:46.679Z</time></trkpt><trkpt lat="45.0645806" lon="7.9808005"><ele>376.0</ele><time>2026-04-12T10:57:47.679Z</time></trkpt><trkpt lat="45.0647149" lon="7.9806884"><ele>376.0</ele><time>2026-04-12T10:57:48.679Z</time></trkpt><trkpt lat="45.0648497" lon="7.9805671"><ele>376.0</ele><time>2026-04-12T10:57:49.679Z</time></trkpt><trkpt lat="45.0649728" lon="7.9804375"><ele>374.3333333333333</ele><time>2026-04-12T10:57:50.679Z</time></trkpt><trkpt lat="45.0650948" lon="7.9803076"><ele>372.6666666666667</ele><time>2026-04-12T10:57:51.679Z</time></trkpt><trkpt lat="45.0652164" lon="7.9801663"><ele>371.0</ele><time>2026-04-12T10:57:52.679Z</time></trkpt><trkpt lat="45.0653174" lon="7.980017"><ele>373.0</ele><time>2026-04-12T10:57:53.678Z</time></trkpt><trkpt lat="45.0654187" lon="7.979862"><ele>375.0</ele><time>2026-04-12T10:57:54.679Z</time></trkpt><trkpt lat="45.0655225" lon="7.979705"><ele>377.0</ele><time>2026-04-12T10:57:55.679Z</time></trkpt><trkpt lat="45.0656303" lon="7.97956"><ele>377.0</ele><time>2026-04-12T10:57:56.679Z</time></trkpt><trkpt lat="45.0657377" lon="7.9794108"><ele>377.0</ele><time>2026-04-12T10:57:57.679Z</time></trkpt><trkpt lat="45.0658389" lon="7.9792514"><ele>377.0</ele><time>2026-04-12T10:57:58.678Z</time></trkpt><trkpt lat="45.0659449" lon="7.9790982"><ele>380.0</ele><time>2026-04-12T10:57:59.679Z</time></trkpt><trkpt lat="45.0660391" lon="7.9789193"><ele>383.0</ele><time>2026-04-12T10:58:00.679Z</time></trkpt><trkpt lat="45.0661332" lon="7.9787499"><ele>386.0</ele><time>2026-04-12T10:58:01.679Z</time></trkpt><trkpt lat="45.0662355" lon="7.9785788"><ele>386.0</ele><time>2026-04-12T10:58:02.679Z</time></trkpt><trkpt lat="45.0663389" lon="7.9784165"><ele>386.0</ele><time>2026-04-12T10:58:03.679Z</time></trkpt><trkpt lat="45.066461" lon="7.9782637"><ele>386.0</ele><time>2026-04-12T10:58:04.679Z</time></trkpt><trkpt lat="45.0665791" lon="7.9781125"><ele>384.66666666666663</ele><time>2026-04-12T10:58:05.679Z</time></trkpt><trkpt lat="45.0666914" lon="7.9779575"><ele>383.3333333333333</ele><time>2026-04-12T10:58:06.679Z</time></trkpt><trkpt lat="45.0668143" lon="7.97779"><ele>382.0</ele><time>2026-04-12T10:58:07.678Z</time></trkpt><trkpt lat="45.0669203" lon="7.977624"><ele>384.3333333333333</ele><time>2026-04-12T10:58:08.679Z</time></trkpt><trkpt lat="45.067023" lon="7.9774691"><ele>386.66666666666663</ele><time>2026-04-12T10:58:09.679Z</time></trkpt><trkpt lat="45.0671384" lon="7.977314"><ele>389.0</ele><time>2026-04-12T10:58:10.679Z</time></trkpt><trkpt lat="45.0672505" lon="7.9771511"><ele>389.0</ele><time>2026-04-12T10:58:11.679Z</time></trkpt><trkpt lat="45.0673626" lon="7.9769932"><ele>389.0</ele><time>2026-04-12T10:58:12.679Z</time></trkpt><trkpt lat="45.0674708" lon="7.9768362"><ele>389.0</ele><time>2026-04-12T10:58:13.679Z</time></trkpt><trkpt lat="45.0675507" lon="7.9766461"><ele>391.0</ele><time>2026-04-12T10:58:14.679Z</time></trkpt><trkpt lat="45.067619" lon="7.9764543"><ele>393.0</ele><time>2026-04-12T10:58:15.679Z</time></trkpt><trkpt lat="45.0676873" lon="7.976263"><ele>395.0</ele><time>2026-04-12T10:58:16.679Z</time></trkpt><trkpt lat="45.0677613" lon="7.9760656"><ele>395.0</ele><time>2026-04-12T10:58:17.679Z</time></trkpt><trkpt lat="45.0678352" lon="7.9758659"><ele>395.0</ele><time>2026-04-12T10:58:18.678Z</time></trkpt><trkpt lat="45.0679091" lon="7.975665"><ele>395.0</ele><time>2026-04-12T10:58:19.679Z</time></trkpt><trkpt lat="45.0679739" lon="7.9754762"><ele>395.25</ele><time>2026-04-12T10:58:20.679Z</time></trkpt><trkpt lat="45.0680365" lon="7.9753018"><ele>395.5</ele><time>2026-04-12T10:58:21.679Z</time></trkpt><trkpt lat="45.068094" lon="7.9751212"><ele>395.75</ele><time>2026-04-12T10:58:22.679Z</time></trkpt><trkpt lat="45.0681631" lon="7.9749733"><ele>396.0</ele><time>2026-04-12T10:58:23.679Z</time></trkpt><trkpt lat="45.0682329" lon="7.9748063"><ele>399.5</ele><time>2026-04-12T10:58:24.679Z</time></trkpt><trkpt lat="45.0683224" lon="7.9746429"><ele>403.0</ele><time>2026-04-12T10:58:25.679Z</time></trkpt><trkpt lat="45.0684188" lon="7.9744967"><ele>406.5</ele><time>2026-04-12T10:58:26.679Z</time></trkpt><trkpt lat="45.0685213" lon="7.974376"><ele>410.0</ele><time>2026-04-12T10:58:27.679Z</time></trkpt><trkpt lat="45.0686411" lon="7.9742862"><ele>410.0</ele><time>2026-04-12T10:58:28.679Z</time></trkpt><trkpt lat="45.0687698" lon="7.9742201"><ele>410.0</ele><time>2026-04-12T10:58:29.679Z</time></trkpt><trkpt lat="45.0689008" lon="7.9741441"><ele>410.0</ele><time>2026-04-12T10:58:30.678Z</time></trkpt><trkpt lat="45.0690333" lon="7.9740573"><ele>410.0</ele><time>2026-04-12T10:58:31.679Z</time></trkpt><trkpt lat="45.0691668" lon="7.9739571"><ele>410.6</ele><time>2026-04-12T10:58:32.679Z</time></trkpt><trkpt lat="45.0692903" lon="7.9738882"><ele>411.2</ele><time>2026-04-12T10:58:33.679Z</time></trkpt><trkpt lat="45.0694068" lon="7.9738409"><ele>411.79999999999995</ele><time>2026-04-12T10:58:34.679Z</time></trkpt><trkpt lat="45.0694987" lon="7.9737899"><ele>412.4</ele><time>2026-04-12T10:58:35.679Z</time></trkpt><trkpt lat="45.0695831" lon="7.9737372"><ele>413.0</ele><time>2026-04-12T10:58:36.679Z</time></trkpt><trkpt lat="45.0696385" lon="7.973623"><ele>413.0</ele><time>2026-04-12T10:58:37.679Z</time></trkpt><trkpt lat="45.0697036" lon="7.9734702"><ele>413.0</ele><time>2026-04-12T10:58:38.679Z</time></trkpt><trkpt lat="45.069728" lon="7.9733168"><ele>413.0</ele><time>2026-04-12T10:58:39.679Z</time></trkpt><trkpt lat="45.0697509" lon="7.9731475"><ele>413.0</ele><time>2026-04-12T10:58:40.679Z</time></trkpt><trkpt lat="45.0697762" lon="7.9729982"><ele>414.0</ele><time>2026-04-12T10:58:41.679Z</time></trkpt><trkpt lat="45.069822" lon="7.9728737"><ele>415.0</ele><time>2026-04-12T10:58:42.679Z</time></trkpt><trkpt lat="45.069883" lon="7.9727685"><ele>416.0</ele><time>2026-04-12T10:58:43.679Z</time></trkpt><trkpt lat="45.0699662" lon="7.9726875"><ele>417.0</ele><time>2026-04-12T10:58:44.679Z</time></trkpt><trkpt lat="45.0700684" lon="7.9726091"><ele>418.0</ele><time>2026-04-12T10:58:45.679Z</time></trkpt><trkpt lat="45.0701704" lon="7.972512"><ele>419.79999999999995</ele><time>2026-04-12T10:58:46.679Z</time></trkpt><trkpt lat="45.0702603" lon="7.9724162"><ele>421.6</ele><time>2026-04-12T10:58:47.679Z</time></trkpt><trkpt lat="45.070351" lon="7.9723122"><ele>423.40000000000003</ele><time>2026-04-12T10:58:48.679Z</time></trkpt><trkpt lat="45.0704308" lon="7.9722241"><ele>425.20000000000005</ele><time>2026-04-12T10:58:49.679Z</time></trkpt><trkpt lat="45.070522" lon="7.9721681"><ele>427.0</ele><time>2026-04-12T10:58:50.679Z</time></trkpt><trkpt lat="45.0706073" lon="7.972138"><ele>427.0</ele><time>2026-04-12T10:58:51.679Z</time></trkpt><trkpt lat="45.070689" lon="7.9721131"><ele>427.00000000000006</ele><time>2026-04-12T10:58:52.678Z</time></trkpt><trkpt lat="45.070758" lon="7.9720782"><ele>427.00000000000006</ele><time>2026-04-12T10:58:53.679Z</time></trkpt><trkpt lat="45.0708281" lon="7.9720151"><ele>427.0</ele><time>2026-04-12T10:58:54.679Z</time></trkpt><trkpt lat="45.0709126" lon="7.9719412"><ele>427.0</ele><time>2026-04-12T10:58:55.679Z</time></trkpt><trkpt lat="45.0710109" lon="7.9718684"><ele>427.25</ele><time>2026-04-12T10:58:56.679Z</time></trkpt><trkpt lat="45.0711217" lon="7.971789"><ele>427.5</ele><time>2026-04-12T10:58:57.679Z</time></trkpt><trkpt lat="45.0712292" lon="7.9717166"><ele>427.75</ele><time>2026-04-12T10:58:58.679Z</time></trkpt><trkpt lat="45.07134" lon="7.9716469"><ele>428.0</ele><time>2026-04-12T10:58:59.679Z</time></trkpt><trkpt lat="45.0714559" lon="7.9715695"><ele>428.0</ele><time>2026-04-12T10:59:00.679Z</time></trkpt><trkpt lat="45.0715823" lon="7.9714946"><ele>428.0</ele><time>2026-04-12T10:59:01.679Z</time></trkpt><trkpt lat="45.0717111" lon="7.9714065"><ele>428.0</ele><time>2026-04-12T10:59:02.679Z</time></trkpt><trkpt lat="45.0718435" lon="7.971322"><ele>428.0</ele><time>2026-04-12T10:59:03.679Z</time></trkpt><trkpt lat="45.0719818" lon="7.9712272"><ele>428.3333333333333</ele><time>2026-04-12T10:59:04.679Z</time></trkpt><trkpt lat="45.0721253" lon="7.971138"><ele>428.66666666666663</ele><time>2026-04-12T10:59:05.679Z</time></trkpt><trkpt lat="45.0722607" lon="7.9710436"><ele>429.0</ele><time>2026-04-12T10:59:06.679Z</time></trkpt><trkpt lat="45.0723928" lon="7.9709499"><ele>433.33333333333337</ele><time>2026-04-12T10:59:07.679Z</time></trkpt><trkpt lat="45.0725351" lon="7.9708428"><ele>437.6666666666667</ele><time>2026-04-12T10:59:08.679Z</time></trkpt><trkpt lat="45.0726747" lon="7.9707445"><ele>442.0</ele><time>2026-04-12T10:59:09.679Z</time></trkpt><trkpt lat="45.0728125" lon="7.9706452"><ele>442.0</ele><time>2026-04-12T10:59:10.679Z</time></trkpt><trkpt lat="45.0729516" lon="7.970548"><ele>442.0</ele><time>2026-04-12T10:59:11.679Z</time></trkpt><trkpt lat="45.073098" lon="7.9704426"><ele>442.0</ele><time>2026-04-12T10:59:12.679Z</time></trkpt><trkpt lat="45.0732333" lon="7.9703456"><ele>441.33333333333337</ele><time>2026-04-12T10:59:13.679Z</time></trkpt><trkpt lat="45.0733694" lon="7.9702334"><ele>440.66666666666663</ele><time>2026-04-12T10:59:14.679Z</time></trkpt><trkpt lat="45.0734946" lon="7.9701104"><ele>440.0</ele><time>2026-04-12T10:59:15.679Z</time></trkpt><trkpt lat="45.0736163" lon="7.9699777"><ele>446.66666666666663</ele><time>2026-04-12T10:59:16.679Z</time></trkpt><trkpt lat="45.0737352" lon="7.9698344"><ele>453.33333333333337</ele><time>2026-04-12T10:59:17.679Z</time></trkpt><trkpt lat="45.0738556" lon="7.9696891"><ele>460.0</ele><time>2026-04-12T10:59:18.679Z</time></trkpt><trkpt lat="45.0739638" lon="7.96956"><ele>460.0</ele><time>2026-04-12T10:59:19.679Z</time></trkpt><trkpt lat="45.0740689" lon="7.9694642"><ele>460.0</ele><time>2026-04-12T10:59:20.679Z</time></trkpt><trkpt lat="45.0741836" lon="7.9694015"><ele>460.0</ele><time>2026-04-12T10:59:21.679Z</time></trkpt><trkpt lat="45.0743063" lon="7.9694055"><ele>460.0</ele><time>2026-04-12T10:59:22.679Z</time></trkpt><trkpt lat="45.0744247" lon="7.969439"><ele>460.5</ele><time>2026-04-12T10:59:23.678Z</time></trkpt><trkpt lat="45.0745563" lon="7.9695022"><ele>461.0</ele><time>2026-04-12T10:59:24.678Z</time></trkpt><trkpt lat="45.0746844" lon="7.9695703"><ele>461.5</ele><time>2026-04-12T10:59:25.679Z</time></trkpt><trkpt lat="45.0748299" lon="7.9696219"><ele>462.0</ele><time>2026-04-12T10:59:26.679Z</time></trkpt><trkpt lat="45.074958" lon="7.969678"><ele>462.0</ele><time>2026-04-12T10:59:27.679Z</time></trkpt><trkpt lat="45.0750734" lon="7.9697452"><ele>462.0</ele><time>2026-04-12T10:59:28.679Z</time></trkpt><trkpt lat="45.0751821" lon="7.9698482"><ele>462.0</ele><time>2026-04-12T10:59:29.679Z</time></trkpt><trkpt lat="45.0752473" lon="7.9699886"><ele>462.0</ele><time>2026-04-12T10:59:30.679Z</time></trkpt><trkpt lat="45.075278" lon="7.9701511"><ele>460.75</ele><time>2026-04-12T10:59:31.679Z</time></trkpt><trkpt lat="45.0752853" lon="7.9703295"><ele>459.5</ele><time>2026-04-12T10:59:32.679Z</time></trkpt><trkpt lat="45.075319" lon="7.9705024"><ele>458.25</ele><time>2026-04-12T10:59:33.679Z</time></trkpt><trkpt lat="45.0753764" lon="7.9706672"><ele>457.0</ele><time>2026-04-12T10:59:34.679Z</time></trkpt><trkpt lat="45.0754636" lon="7.9708307"><ele>456.0</ele><time>2026-04-12T10:59:35.679Z</time></trkpt><trkpt lat="45.075559" lon="7.9709767"><ele>455.0</ele><time>2026-04-12T10:59:36.679Z</time></trkpt><trkpt lat="45.0756366" lon="7.9711269"><ele>454.0</ele><time>2026-04-12T10:59:37.679Z</time></trkpt><trkpt lat="45.0756974" lon="7.9712909"><ele>453.0</ele><time>2026-04-12T10:59:38.679Z</time></trkpt><trkpt lat="45.0757214" lon="7.9714789"><ele>453.0</ele><time>2026-04-12T10:59:39.679Z</time></trkpt><trkpt lat="45.0757243" lon="7.9716708"><ele>453.0</ele><time>2026-04-12T10:59:40.678Z</time></trkpt><trkpt lat="45.0757088" lon="7.9718753"><ele>453.0</ele><time>2026-04-12T10:59:41.678Z</time></trkpt><trkpt lat="45.0756764" lon="7.9720724"><ele>453.0</ele><time>2026-04-12T10:59:42.679Z</time></trkpt><trkpt lat="45.0756158" lon="7.9722515"><ele>455.2</ele><time>2026-04-12T10:59:43.679Z</time></trkpt><trkpt lat="45.0755269" lon="7.9724049"><ele>457.4</ele><time>2026-04-12T10:59:44.679Z</time></trkpt><trkpt lat="45.0754338" lon="7.9725144"><ele>459.59999999999997</ele><time>2026-04-12T10:59:45.679Z</time></trkpt><trkpt lat="45.0753546" lon="7.9726162"><ele>461.79999999999995</ele><time>2026-04-12T10:59:46.679Z</time></trkpt><trkpt lat="45.0752974" lon="7.9726969"><ele>464.0</ele><time>2026-04-12T10:59:47.679Z</time></trkpt><trkpt lat="45.0752586" lon="7.9727944"><ele>465.0</ele><time>2026-04-12T10:59:48.679Z</time></trkpt><trkpt lat="45.0752539" lon="7.9728963"><ele>466.0</ele><time>2026-04-12T10:59:49.679Z</time></trkpt><trkpt lat="45.0753583" lon="7.9729974"><ele>467.0</ele><time>2026-04-12T10:59:51.679Z</time></trkpt><trkpt lat="45.0754284" lon="7.9729568"><ele>468.0</ele><time>2026-04-12T10:59:52.679Z</time></trkpt><trkpt lat="45.0754903" lon="7.9728641"><ele>469.0</ele><time>2026-04-12T10:59:53.679Z</time></trkpt><trkpt lat="45.0755646" lon="7.9727521"><ele>469.0</ele><time>2026-04-12T10:59:54.679Z</time></trkpt><trkpt lat="45.0756552" lon="7.9726216"><ele>469.0</ele><time>2026-04-12T10:59:55.679Z</time></trkpt><trkpt lat="45.075748" lon="7.9724921"><ele>469.0</ele><time>2026-04-12T10:59:56.679Z</time></trkpt><trkpt lat="45.0758375" lon="7.9723503"><ele>469.0</ele><time>2026-04-12T10:59:57.678Z</time></trkpt><trkpt lat="45.0759095" lon="7.9721873"><ele>471.5</ele><time>2026-04-12T10:59:58.679Z</time></trkpt><trkpt lat="45.0759626" lon="7.9720108"><ele>474.0</ele><time>2026-04-12T10:59:59.679Z</time></trkpt><trkpt lat="45.0760211" lon="7.9718318"><ele>476.5</ele><time>2026-04-12T11:00:00.679Z</time></trkpt><trkpt lat="45.0760939" lon="7.9716685"><ele>479.0</ele><time>2026-04-12T11:00:01.679Z</time></trkpt><trkpt lat="45.0761736" lon="7.9715355"><ele>479.0</ele><time>2026-04-12T11:00:02.679Z</time></trkpt><trkpt lat="45.076237" lon="7.9714018"><ele>479.0</ele><time>2026-04-12T11:00:03.679Z</time></trkpt><trkpt lat="45.0762732" lon="7.9712572"><ele>479.0</ele><time>2026-04-12T11:00:04.679Z</time></trkpt><trkpt lat="45.0762753" lon="7.9710954"><ele>479.0</ele><time>2026-04-12T11:00:05.679Z</time></trkpt><trkpt lat="45.076247" lon="7.9709335"><ele>479.5</ele><time>2026-04-12T11:00:06.679Z</time></trkpt><trkpt lat="45.07618" lon="7.9707858"><ele>480.0</ele><time>2026-04-12T11:00:07.679Z</time></trkpt><trkpt lat="45.076124" lon="7.9706316"><ele>480.5</ele><time>2026-04-12T11:00:08.679Z</time></trkpt><trkpt lat="45.0760751" lon="7.9704659"><ele>481.0</ele><time>2026-04-12T11:00:09.679Z</time></trkpt><trkpt lat="45.0760851" lon="7.9702792"><ele>481.0</ele><time>2026-04-12T11:00:10.679Z</time></trkpt><trkpt lat="45.0761036" lon="7.9700916"><ele>481.0</ele><time>2026-04-12T11:00:11.679Z</time></trkpt><trkpt lat="45.0761196" lon="7.9698959"><ele>481.0</ele><time>2026-04-12T11:00:12.679Z</time></trkpt><trkpt lat="45.07614" lon="7.9697037"><ele>481.0</ele><time>2026-04-12T11:00:13.679Z</time></trkpt><trkpt lat="45.0761629" lon="7.969513"><ele>482.5</ele><time>2026-04-12T11:00:14.679Z</time></trkpt><trkpt lat="45.0761974" lon="7.9693166"><ele>484.0</ele><time>2026-04-12T11:00:15.679Z</time></trkpt><trkpt lat="45.0762444" lon="7.969138"><ele>485.5</ele><time>2026-04-12T11:00:16.679Z</time></trkpt><trkpt lat="45.076304" lon="7.9689699"><ele>487.0</ele><time>2026-04-12T11:00:17.679Z</time></trkpt><trkpt lat="45.0763739" lon="7.9687975"><ele>488.0</ele><time>2026-04-12T11:00:18.679Z</time></trkpt><trkpt lat="45.0764458" lon="7.9686749"><ele>489.0</ele><time>2026-04-12T11:00:19.679Z</time></trkpt><trkpt lat="45.0765396" lon="7.9685598"><ele>490.0</ele><time>2026-04-12T11:00:20.678Z</time></trkpt><trkpt lat="45.0766447" lon="7.9684611"><ele>491.0</ele><time>2026-04-12T11:00:21.679Z</time></trkpt><trkpt lat="45.0767715" lon="7.9683682"><ele>493.0</ele><time>2026-04-12T11:00:22.679Z</time></trkpt><trkpt lat="45.0769023" lon="7.9682733"><ele>495.0</ele><time>2026-04-12T11:00:23.679Z</time></trkpt><trkpt lat="45.0770343" lon="7.9681761"><ele>497.0</ele><time>2026-04-12T11:00:24.679Z</time></trkpt><trkpt lat="45.0771704" lon="7.9680843"><ele>499.0</ele><time>2026-04-12T11:00:25.679Z</time></trkpt><trkpt lat="45.0773083" lon="7.9679957"><ele>501.6666666666667</ele><time>2026-04-12T11:00:26.679Z</time></trkpt><trkpt lat="45.0774504" lon="7.9679049"><ele>504.33333333333337</ele><time>2026-04-12T11:00:27.679Z</time></trkpt><trkpt lat="45.0775917" lon="7.96781"><ele>507.0</ele><time>2026-04-12T11:00:28.679Z</time></trkpt><trkpt lat="45.0777255" lon="7.9677258"><ele>507.0</ele><time>2026-04-12T11:00:29.679Z</time></trkpt><trkpt lat="45.0778536" lon="7.9676495"><ele>507.0</ele><time>2026-04-12T11:00:30.679Z</time></trkpt><trkpt lat="45.0779893" lon="7.9676041"><ele>507.0</ele><time>2026-04-12T11:00:31.678Z</time></trkpt><trkpt lat="45.0781378" lon="7.9675683"><ele>507.0</ele><time>2026-04-12T11:00:32.679Z</time></trkpt><trkpt lat="45.0782902" lon="7.967593"><ele>507.75</ele><time>2026-04-12T11:00:33.679Z</time></trkpt><trkpt lat="45.0784288" lon="7.9676531"><ele>508.5</ele><time>2026-04-12T11:00:34.679Z</time></trkpt><trkpt lat="45.0785652" lon="7.9677535"><ele>509.25</ele><time>2026-04-12T11:00:35.679Z</time></trkpt><trkpt lat="45.078685" lon="7.9678759"><ele>510.0</ele><time>2026-04-12T11:00:36.679Z</time></trkpt><trkpt lat="45.0788004" lon="7.9680203"><ele>510.0</ele><time>2026-04-12T11:00:37.679Z</time></trkpt><trkpt lat="45.0789108" lon="7.9681612"><ele>510.0</ele><time>2026-04-12T11:00:38.679Z</time></trkpt><trkpt lat="45.0790147" lon="7.9683"><ele>510.0</ele><time>2026-04-12T11:00:39.678Z</time></trkpt><trkpt lat="45.0791154" lon="7.9684277"><ele>510.0</ele><time>2026-04-12T11:00:40.679Z</time></trkpt><trkpt lat="45.0792128" lon="7.9685338"><ele>512.4</ele><time>2026-04-12T11:00:41.679Z</time></trkpt><trkpt lat="45.0793054" lon="7.9686224"><ele>514.8</ele><time>2026-04-12T11:00:42.678Z</time></trkpt><trkpt lat="45.0793942" lon="7.9686895"><ele>517.2</ele><time>2026-04-12T11:00:43.679Z</time></trkpt><trkpt lat="45.0794663" lon="7.9687608"><ele>519.6</ele><time>2026-04-12T11:00:44.679Z</time></trkpt><trkpt lat="45.0795481" lon="7.9688034"><ele>522.0</ele><time>2026-04-12T11:00:45.679Z</time></trkpt><trkpt lat="45.0796231" lon="7.968796"><ele>522.0</ele><time>2026-04-12T11:00:46.678Z</time></trkpt><trkpt lat="45.0796998" lon="7.9687368"><ele>522.0</ele><time>2026-04-12T11:00:47.678Z</time></trkpt><trkpt lat="45.0797647" lon="7.9686236"><ele>522.0</ele><time>2026-04-12T11:00:48.679Z</time></trkpt><trkpt lat="45.079849" lon="7.9684999"><ele>522.0</ele><time>2026-04-12T11:00:49.678Z</time></trkpt><trkpt lat="45.0799311" lon="7.9683687"><ele>522.0</ele><time>2026-04-12T11:00:50.679Z</time></trkpt><trkpt lat="45.08002" lon="7.9682342"><ele>518.0</ele><time>2026-04-12T11:00:51.679Z</time></trkpt><trkpt lat="45.0801037" lon="7.9680813"><ele>514.0</ele><time>2026-04-12T11:00:52.679Z</time></trkpt><trkpt lat="45.080193" lon="7.9679284"><ele>510.0</ele><time>2026-04-12T11:00:53.679Z</time></trkpt><trkpt lat="45.0802898" lon="7.9677598"><ele>506.0</ele><time>2026-04-12T11:00:54.679Z</time></trkpt><trkpt lat="45.0803877" lon="7.9675859"><ele>503.0</ele><time>2026-04-12T11:00:55.679Z</time></trkpt><trkpt lat="45.0804831" lon="7.9674117"><ele>500.0</ele><time>2026-04-12T11:00:56.679Z</time></trkpt><trkpt lat="45.0805726" lon="7.9672228"><ele>497.0</ele><time>2026-04-12T11:00:57.679Z</time></trkpt><trkpt lat="45.0806621" lon="7.9670368"><ele>497.0</ele><time>2026-04-12T11:00:58.679Z</time></trkpt><trkpt lat="45.0807472" lon="7.9668516"><ele>497.0</ele><time>2026-04-12T11:00:59.679Z</time></trkpt><trkpt lat="45.0808332" lon="7.9666595"><ele>497.0</ele><time>2026-04-12T11:01:00.679Z</time></trkpt><trkpt lat="45.0809204" lon="7.966478"><ele>501.0</ele><time>2026-04-12T11:01:01.678Z</time></trkpt><trkpt lat="45.0810135" lon="7.9662903"><ele>505.0</ele><time>2026-04-12T11:01:02.679Z</time></trkpt><trkpt lat="45.0811022" lon="7.9661108"><ele>509.0</ele><time>2026-04-12T11:01:03.679Z</time></trkpt><trkpt lat="45.0811886" lon="7.9659279"><ele>506.66666666666663</ele><time>2026-04-12T11:01:04.679Z</time></trkpt><trkpt lat="45.0812696" lon="7.9657317"><ele>504.33333333333337</ele><time>2026-04-12T11:01:05.679Z</time></trkpt><trkpt lat="45.0813342" lon="7.9655322"><ele>502.0</ele><time>2026-04-12T11:01:06.679Z</time></trkpt><trkpt lat="45.0813818" lon="7.9653304"><ele>502.0</ele><time>2026-04-12T11:01:07.679Z</time></trkpt><trkpt lat="45.0814084" lon="7.9651183"><ele>502.0</ele><time>2026-04-12T11:01:08.679Z</time></trkpt><trkpt lat="45.0814273" lon="7.9649194"><ele>502.0</ele><time>2026-04-12T11:01:09.679Z</time></trkpt><trkpt lat="45.0814532" lon="7.9647426"><ele>502.0</ele><time>2026-04-12T11:01:10.678Z</time></trkpt><trkpt lat="45.0815041" lon="7.9645826"><ele>502.25</ele><time>2026-04-12T11:01:11.679Z</time></trkpt><trkpt lat="45.0815654" lon="7.9644525"><ele>502.5</ele><time>2026-04-12T11:01:12.679Z</time></trkpt><trkpt lat="45.081676" lon="7.9643589"><ele>502.75</ele><time>2026-04-12T11:01:13.679Z</time></trkpt><trkpt lat="45.0817843" lon="7.9642741"><ele>503.0</ele><time>2026-04-12T11:01:14.679Z</time></trkpt><trkpt lat="45.0819254" lon="7.9641957"><ele>508.0</ele><time>2026-04-12T11:01:15.679Z</time></trkpt><trkpt lat="45.082067" lon="7.9640977"><ele>513.0</ele><time>2026-04-12T11:01:16.678Z</time></trkpt><trkpt lat="45.0822131" lon="7.9640033"><ele>518.0</ele><time>2026-04-12T11:01:17.679Z</time></trkpt><trkpt lat="45.0823657" lon="7.9639025"><ele>513.0</ele><time>2026-04-12T11:01:18.679Z</time></trkpt><trkpt lat="45.0825186" lon="7.9637884"><ele>508.0</ele><time>2026-04-12T11:01:19.679Z</time></trkpt><trkpt lat="45.0826693" lon="7.9636638"><ele>503.0</ele><time>2026-04-12T11:01:20.679Z</time></trkpt><trkpt lat="45.0828052" lon="7.9635297"><ele>503.0</ele><time>2026-04-12T11:01:21.679Z</time></trkpt><trkpt lat="45.0829525" lon="7.9634125"><ele>503.0</ele><time>2026-04-12T11:01:22.679Z</time></trkpt><trkpt lat="45.0830865" lon="7.9632929"><ele>503.0</ele><time>2026-04-12T11:01:23.679Z</time></trkpt><trkpt lat="45.0832299" lon="7.9632061"><ele>500.0</ele><time>2026-04-12T11:01:24.678Z</time></trkpt><trkpt lat="45.0833738" lon="7.9631569"><ele>497.0</ele><time>2026-04-12T11:01:25.679Z</time></trkpt><trkpt lat="45.0835225" lon="7.9631173"><ele>494.0</ele><time>2026-04-12T11:01:26.679Z</time></trkpt><trkpt lat="45.0836668" lon="7.963066"><ele>491.0</ele><time>2026-04-12T11:01:27.679Z</time></trkpt><trkpt lat="45.083817" lon="7.9630163"><ele>491.0</ele><time>2026-04-12T11:01:28.679Z</time></trkpt><trkpt lat="45.0839662" lon="7.9629879"><ele>491.0</ele><time>2026-04-12T11:01:29.679Z</time></trkpt><trkpt lat="45.0841059" lon="7.9629963"><ele>491.0</ele><time>2026-04-12T11:01:30.679Z</time></trkpt><trkpt lat="45.0842451" lon="7.9630275"><ele>491.0</ele><time>2026-04-12T11:01:31.679Z</time></trkpt><trkpt lat="45.0843782" lon="7.9630831"><ele>490.0</ele><time>2026-04-12T11:01:32.679Z</time></trkpt><trkpt lat="45.0844999" lon="7.9631866"><ele>489.0</ele><time>2026-04-12T11:01:33.679Z</time></trkpt><trkpt lat="45.0846065" lon="7.9633079"><ele>488.0</ele><time>2026-04-12T11:01:34.679Z</time></trkpt><trkpt lat="45.084695" lon="7.9634349"><ele>487.0</ele><time>2026-04-12T11:01:35.679Z</time></trkpt><trkpt lat="45.0847821" lon="7.9635442"><ele>487.0</ele><time>2026-04-12T11:01:36.679Z</time></trkpt><trkpt lat="45.0848834" lon="7.963623"><ele>487.00000000000006</ele><time>2026-04-12T11:01:37.679Z</time></trkpt><trkpt lat="45.084985" lon="7.9636022"><ele>487.00000000000006</ele><time>2026-04-12T11:01:38.679Z</time></trkpt><trkpt lat="45.0850837" lon="7.9635488"><ele>487.0</ele><time>2026-04-12T11:01:39.679Z</time></trkpt><trkpt lat="45.0851508" lon="7.9634218"><ele>487.0</ele><time>2026-04-12T11:01:40.679Z</time></trkpt><trkpt lat="45.085193" lon="7.9632703"><ele>487.0</ele><time>2026-04-12T11:01:41.679Z</time></trkpt><trkpt lat="45.0852513" lon="7.9631032"><ele>487.0</ele><time>2026-04-12T11:01:42.679Z</time></trkpt><trkpt lat="45.0853325" lon="7.9629644"><ele>487.0</ele><time>2026-04-12T11:01:43.679Z</time></trkpt><trkpt lat="45.0854388" lon="7.9628642"><ele>487.0</ele><time>2026-04-12T11:01:44.679Z</time></trkpt><trkpt lat="45.0855679" lon="7.9628225"><ele>487.0</ele><time>2026-04-12T11:01:45.679Z</time></trkpt><trkpt lat="45.0857002" lon="7.962808"><ele>487.0</ele><time>2026-04-12T11:01:46.679Z</time></trkpt><trkpt lat="45.0858395" lon="7.9628158"><ele>487.0</ele><time>2026-04-12T11:01:47.679Z</time></trkpt><trkpt lat="45.085978" lon="7.962822"><ele>487.0</ele><time>2026-04-12T11:01:48.679Z</time></trkpt><trkpt lat="45.0861262" lon="7.9628224"><ele>479.33333333333337</ele><time>2026-04-12T11:01:49.679Z</time></trkpt><trkpt lat="45.0862752" lon="7.9628197"><ele>471.66666666666663</ele><time>2026-04-12T11:01:50.679Z</time></trkpt><trkpt lat="45.0864256" lon="7.962814"><ele>464.0</ele><time>2026-04-12T11:01:51.679Z</time></trkpt><trkpt lat="45.0865741" lon="7.9627833"><ele>461.0</ele><time>2026-04-12T11:01:52.679Z</time></trkpt><trkpt lat="45.0867272" lon="7.9627365"><ele>458.0</ele><time>2026-04-12T11:01:53.679Z</time></trkpt><trkpt lat="45.0868771" lon="7.9626623"><ele>455.0</ele><time>2026-04-12T11:01:54.679Z</time></trkpt><trkpt lat="45.0870215" lon="7.962582"><ele>454.75</ele><time>2026-04-12T11:01:55.679Z</time></trkpt><trkpt lat="45.0871615" lon="7.9625064"><ele>454.5</ele><time>2026-04-12T11:01:56.679Z</time></trkpt><trkpt lat="45.0872991" lon="7.9624339"><ele>454.25</ele><time>2026-04-12T11:01:57.679Z</time></trkpt><trkpt lat="45.0874312" lon="7.9623577"><ele>454.0</ele><time>2026-04-12T11:01:58.679Z</time></trkpt><trkpt lat="45.0875541" lon="7.9622937"><ele>454.00000000000006</ele><time>2026-04-12T11:01:59.679Z</time></trkpt><trkpt lat="45.087654" lon="7.9622313"><ele>454.0</ele><time>2026-04-12T11:02:00.679Z</time></trkpt><trkpt lat="45.0877316" lon="7.9621931"><ele>454.0</ele><time>2026-04-12T11:02:01.679Z</time></trkpt><trkpt lat="45.0878094" lon="7.9621952"><ele>454.0</ele><time>2026-04-12T11:02:02.679Z</time></trkpt><trkpt lat="45.0878789" lon="7.962237"><ele>454.00000000000006</ele><time>2026-04-12T11:02:03.679Z</time></trkpt><trkpt lat="45.0879382" lon="7.9622987"><ele>454.0</ele><time>2026-04-12T11:02:04.679Z</time></trkpt><trkpt lat="45.0879892" lon="7.9623884"><ele>454.0</ele><time>2026-04-12T11:02:05.678Z</time></trkpt><trkpt lat="45.0879656" lon="7.9625219"><ele>454.0</ele><time>2026-04-12T11:02:06.679Z</time></trkpt><trkpt lat="45.0879286" lon="7.9626335"><ele>454.0</ele><time>2026-04-12T11:02:07.679Z</time></trkpt><trkpt lat="45.0878506" lon="7.9627121"><ele>454.0</ele><time>2026-04-12T11:02:08.679Z</time></trkpt><trkpt lat="45.0877624" lon="7.9627796"><ele>454.0</ele><time>2026-04-12T11:02:09.679Z</time></trkpt><trkpt lat="45.0876784" lon="7.9628603"><ele>453.33333333333337</ele><time>2026-04-12T11:02:10.679Z</time></trkpt><trkpt lat="45.0876153" lon="7.9629611"><ele>452.6666666666667</ele><time>2026-04-12T11:02:11.679Z</time></trkpt><trkpt lat="45.0875678" lon="7.9630735"><ele>452.0</ele><time>2026-04-12T11:02:12.679Z</time></trkpt><trkpt lat="45.087527" lon="7.9631923"><ele>451.33333333333337</ele><time>2026-04-12T11:02:13.679Z</time></trkpt><trkpt lat="45.0875277" lon="7.963301"><ele>450.6666666666667</ele><time>2026-04-12T11:02:14.679Z</time></trkpt><trkpt lat="45.0875583" lon="7.9634126"><ele>450.0</ele><time>2026-04-12T11:02:15.679Z</time></trkpt><trkpt lat="45.0876363" lon="7.9634933"><ele>450.0</ele><time>2026-04-12T11:02:16.678Z</time></trkpt><trkpt lat="45.0877365" lon="7.963536"><ele>450.0</ele><time>2026-04-12T11:02:17.679Z</time></trkpt><trkpt lat="45.0878509" lon="7.9635814"><ele>450.0</ele><time>2026-04-12T11:02:18.679Z</time></trkpt><trkpt lat="45.0879635" lon="7.9636607"><ele>450.0</ele><time>2026-04-12T11:02:19.679Z</time></trkpt><trkpt lat="45.0880833" lon="7.9637631"><ele>450.0</ele><time>2026-04-12T11:02:20.679Z</time></trkpt><trkpt lat="45.088211" lon="7.9638793"><ele>450.0</ele><time>2026-04-12T11:02:21.679Z</time></trkpt><trkpt lat="45.0883411" lon="7.963999"><ele>450.0</ele><time>2026-04-12T11:02:22.679Z</time></trkpt><trkpt lat="45.0884723" lon="7.9641162"><ele>444.66666666666663</ele><time>2026-04-12T11:02:23.679Z</time></trkpt><trkpt lat="45.0886022" lon="7.9642308"><ele>439.3333333333333</ele><time>2026-04-12T11:02:24.679Z</time></trkpt><trkpt lat="45.0887243" lon="7.9643558"><ele>434.0</ele><time>2026-04-12T11:02:25.679Z</time></trkpt><trkpt lat="45.0888328" lon="7.9645153"><ele>434.0</ele><time>2026-04-12T11:02:26.679Z</time></trkpt><trkpt lat="45.0889316" lon="7.9646787"><ele>434.0</ele><time>2026-04-12T11:02:27.679Z</time></trkpt><trkpt lat="45.0890329" lon="7.9648259"><ele>434.0</ele><time>2026-04-12T11:02:28.679Z</time></trkpt><trkpt lat="45.0891085" lon="7.9649682"><ele>434.0</ele><time>2026-04-12T11:02:29.679Z</time></trkpt><trkpt lat="45.0891738" lon="7.9650895"><ele>432.16666666666663</ele><time>2026-04-12T11:02:30.679Z</time></trkpt><trkpt lat="45.0892385" lon="7.9651817"><ele>430.3333333333333</ele><time>2026-04-12T11:02:31.679Z</time></trkpt><trkpt lat="45.0893144" lon="7.9652235"><ele>428.5</ele><time>2026-04-12T11:02:32.679Z</time></trkpt><trkpt lat="45.0893979" lon="7.965233"><ele>426.66666666666663</ele><time>2026-04-12T11:02:33.679Z</time></trkpt><trkpt lat="45.0894644" lon="7.9651926"><ele>424.8333333333333</ele><time>2026-04-12T11:02:34.679Z</time></trkpt><trkpt lat="45.0895192" lon="7.9651045"><ele>423.0</ele><time>2026-04-12T11:02:35.679Z</time></trkpt><trkpt lat="45.0895476" lon="7.9649876"><ele>423.0</ele><time>2026-04-12T11:02:36.679Z</time></trkpt><trkpt lat="45.0895359" lon="7.964858"><ele>423.0</ele><time>2026-04-12T11:02:37.678Z</time></trkpt><trkpt lat="45.0894896" lon="7.9647135"><ele>423.0</ele><time>2026-04-12T11:02:38.679Z</time></trkpt><trkpt lat="45.0894339" lon="7.9645823"><ele>423.0</ele><time>2026-04-12T11:02:39.679Z</time></trkpt><trkpt lat="45.089384" lon="7.9644605"><ele>423.0</ele><time>2026-04-12T11:02:40.679Z</time></trkpt><trkpt lat="45.0893428" lon="7.9643494"><ele>423.0</ele><time>2026-04-12T11:02:41.679Z</time></trkpt><trkpt lat="45.089333" lon="7.9642445"><ele>423.0</ele><time>2026-04-12T11:02:42.678Z</time></trkpt><trkpt lat="45.0893547" lon="7.9641423"><ele>423.0</ele><time>2026-04-12T11:02:43.679Z</time></trkpt><trkpt lat="45.0894059" lon="7.9640641"><ele>423.0</ele><time>2026-04-12T11:02:44.679Z</time></trkpt><trkpt lat="45.0894807" lon="7.9640584"><ele>423.0</ele><time>2026-04-12T11:02:45.679Z</time></trkpt><trkpt lat="45.0895552" lon="7.964113"><ele>423.0</ele><time>2026-04-12T11:02:46.679Z</time></trkpt><trkpt lat="45.0896266" lon="7.9642095"><ele>423.0</ele><time>2026-04-12T11:02:47.679Z</time></trkpt><trkpt lat="45.0896995" lon="7.9643252"><ele>423.0</ele><time>2026-04-12T11:02:48.678Z</time></trkpt><trkpt lat="45.0897882" lon="7.9644317"><ele>423.0</ele><time>2026-04-12T11:02:49.679Z</time></trkpt><trkpt lat="45.0898921" lon="7.9645028"><ele>423.0</ele><time>2026-04-12T11:02:50.679Z</time></trkpt><trkpt lat="45.0900096" lon="7.9645279"><ele>422.5</ele><time>2026-04-12T11:02:51.679Z</time></trkpt><trkpt lat="45.0901366" lon="7.9645274"><ele>422.0</ele><time>2026-04-12T11:02:52.679Z</time></trkpt><trkpt lat="45.0902859" lon="7.9644786"><ele>421.5</ele><time>2026-04-12T11:02:53.679Z</time></trkpt><trkpt lat="45.0904402" lon="7.9644383"><ele>421.0</ele><time>2026-04-12T11:02:54.679Z</time></trkpt><trkpt lat="45.0906089" lon="7.9644061"><ele>421.0</ele><time>2026-04-12T11:02:55.679Z</time></trkpt><trkpt lat="45.0907707" lon="7.9643655"><ele>421.0</ele><time>2026-04-12T11:02:56.679Z</time></trkpt><trkpt lat="45.0909255" lon="7.9643156"><ele>421.0</ele><time>2026-04-12T11:02:57.679Z</time></trkpt><trkpt lat="45.0910766" lon="7.9643016"><ele>421.0</ele><time>2026-04-12T11:02:58.679Z</time></trkpt><trkpt lat="45.0912064" lon="7.9642544"><ele>421.0</ele><time>2026-04-12T11:02:59.679Z</time></trkpt><trkpt lat="45.0913332" lon="7.9642114"><ele>421.0</ele><time>2026-04-12T11:03:00.679Z</time></trkpt><trkpt lat="45.0913949" lon="7.9641338"><ele>421.0</ele><time>2026-04-12T11:03:01.679Z</time></trkpt><trkpt lat="45.0914631" lon="7.9639972"><ele>417.25</ele><time>2026-04-12T11:03:02.679Z</time></trkpt><trkpt lat="45.0915025" lon="7.9638495"><ele>413.5</ele><time>2026-04-12T11:03:03.679Z</time></trkpt><trkpt lat="45.0915038" lon="7.9637009"><ele>409.75</ele><time>2026-04-12T11:03:04.678Z</time></trkpt><trkpt lat="45.0914809" lon="7.963534"><ele>406.0</ele><time>2026-04-12T11:03:05.679Z</time></trkpt><trkpt lat="45.091436" lon="7.9633623"><ele>403.75</ele><time>2026-04-12T11:03:06.679Z</time></trkpt><trkpt lat="45.0913866" lon="7.9631689"><ele>401.5</ele><time>2026-04-12T11:03:07.679Z</time></trkpt><trkpt lat="45.0913277" lon="7.9629739"><ele>399.25</ele><time>2026-04-12T11:03:08.679Z</time></trkpt><trkpt lat="45.09128" lon="7.9627875"><ele>397.0</ele><time>2026-04-12T11:03:09.679Z</time></trkpt><trkpt lat="45.0912617" lon="7.962602"><ele>397.75</ele><time>2026-04-12T11:03:10.679Z</time></trkpt><trkpt lat="45.0912742" lon="7.9624088"><ele>398.5</ele><time>2026-04-12T11:03:11.679Z</time></trkpt><trkpt lat="45.0913194" lon="7.9622251"><ele>399.25</ele><time>2026-04-12T11:03:12.679Z</time></trkpt><trkpt lat="45.0913925" lon="7.9620563"><ele>400.0</ele><time>2026-04-12T11:03:13.679Z</time></trkpt><trkpt lat="45.0914752" lon="7.9618934"><ele>400.0</ele><time>2026-04-12T11:03:14.679Z</time></trkpt><trkpt lat="45.0915637" lon="7.9617091"><ele>400.0</ele><time>2026-04-12T11:03:15.679Z</time></trkpt><trkpt lat="45.0916659" lon="7.9615217"><ele>400.0</ele><time>2026-04-12T11:03:16.679Z</time></trkpt><trkpt lat="45.0917615" lon="7.9613164"><ele>394.6666666666667</ele><time>2026-04-12T11:03:17.679Z</time></trkpt><trkpt lat="45.091857" lon="7.9611196"><ele>389.33333333333337</ele><time>2026-04-12T11:03:18.679Z</time></trkpt><trkpt lat="45.0919559" lon="7.9609151"><ele>384.0</ele><time>2026-04-12T11:03:19.679Z</time></trkpt><trkpt lat="45.0920586" lon="7.9607145"><ele>384.0</ele><time>2026-04-12T11:03:20.679Z</time></trkpt><trkpt lat="45.0921524" lon="7.9605264"><ele>384.0</ele><time>2026-04-12T11:03:21.679Z</time></trkpt><trkpt lat="45.0922477" lon="7.9603406"><ele>384.0</ele><time>2026-04-12T11:03:22.679Z</time></trkpt><trkpt lat="45.0923458" lon="7.9601545"><ele>382.3333333333333</ele><time>2026-04-12T11:03:23.679Z</time></trkpt><trkpt lat="45.0924425" lon="7.9599672"><ele>380.66666666666663</ele><time>2026-04-12T11:03:24.679Z</time></trkpt><trkpt lat="45.0925364" lon="7.9597799"><ele>379.0</ele><time>2026-04-12T11:03:25.679Z</time></trkpt><trkpt lat="45.0926267" lon="7.9595888"><ele>379.0</ele><time>2026-04-12T11:03:26.679Z</time></trkpt><trkpt lat="45.0926985" lon="7.9593906"><ele>379.0</ele><time>2026-04-12T11:03:27.679Z</time></trkpt><trkpt lat="45.0927472" lon="7.9591704"><ele>379.0</ele><time>2026-04-12T11:03:28.679Z</time></trkpt><trkpt lat="45.0927767" lon="7.9589587"><ele>378.3333333333333</ele><time>2026-04-12T11:03:29.678Z</time></trkpt><trkpt lat="45.0927815" lon="7.9587291"><ele>377.6666666666667</ele><time>2026-04-12T11:03:30.679Z</time></trkpt><trkpt lat="45.0927867" lon="7.9584832"><ele>377.0</ele><time>2026-04-12T11:03:31.679Z</time></trkpt><trkpt lat="45.0927938" lon="7.9582466"><ele>377.0</ele><time>2026-04-12T11:03:32.679Z</time></trkpt><trkpt lat="45.0928039" lon="7.9580191"><ele>377.0</ele><time>2026-04-12T11:03:33.679Z</time></trkpt><trkpt lat="45.0928062" lon="7.9577927"><ele>377.0</ele><time>2026-04-12T11:03:34.679Z</time></trkpt><trkpt lat="45.0928181" lon="7.9575832"><ele>377.5</ele><time>2026-04-12T11:03:35.678Z</time></trkpt><trkpt lat="45.0928504" lon="7.9574031"><ele>378.0</ele><time>2026-04-12T11:03:36.679Z</time></trkpt><trkpt lat="45.0929159" lon="7.9572467"><ele>378.5</ele><time>2026-04-12T11:03:37.679Z</time></trkpt><trkpt lat="45.0930117" lon="7.9571182"><ele>379.0</ele><time>2026-04-12T11:03:38.679Z</time></trkpt><trkpt lat="45.0931331" lon="7.9569886"><ele>382.3333333333333</ele><time>2026-04-12T11:03:39.679Z</time></trkpt><trkpt lat="45.0932623" lon="7.956879"><ele>385.66666666666663</ele><time>2026-04-12T11:03:40.679Z</time></trkpt><trkpt lat="45.0933921" lon="7.9567608"><ele>389.0</ele><time>2026-04-12T11:03:41.679Z</time></trkpt><trkpt lat="45.0935253" lon="7.956643"><ele>389.0</ele><time>2026-04-12T11:03:42.679Z</time></trkpt><trkpt lat="45.093661" lon="7.9565203"><ele>389.0</ele><time>2026-04-12T11:03:43.678Z</time></trkpt><trkpt lat="45.093792" lon="7.9563974"><ele>389.0</ele><time>2026-04-12T11:03:44.679Z</time></trkpt><trkpt lat="45.0939188" lon="7.9562617"><ele>389.0</ele><time>2026-04-12T11:03:45.679Z</time></trkpt><trkpt lat="45.0940327" lon="7.95612"><ele>389.0</ele><time>2026-04-12T11:03:46.679Z</time></trkpt><trkpt lat="45.0941539" lon="7.9559696"><ele>389.0</ele><time>2026-04-12T11:03:47.679Z</time></trkpt><trkpt lat="45.0942676" lon="7.955829"><ele>390.0</ele><time>2026-04-12T11:03:48.679Z</time></trkpt><trkpt lat="45.0943738" lon="7.9556944"><ele>391.0</ele><time>2026-04-12T11:03:49.679Z</time></trkpt><trkpt lat="45.0944728" lon="7.9555726"><ele>392.0</ele><time>2026-04-12T11:03:50.679Z</time></trkpt><trkpt lat="45.0945672" lon="7.9554568"><ele>393.0</ele><time>2026-04-12T11:03:51.679Z</time></trkpt><trkpt lat="45.0946693" lon="7.9553397"><ele>393.0</ele><time>2026-04-12T11:03:52.679Z</time></trkpt><trkpt lat="45.0947659" lon="7.9552133"><ele>393.0</ele><time>2026-04-12T11:03:53.679Z</time></trkpt><trkpt lat="45.0948534" lon="7.9551077"><ele>393.0</ele><time>2026-04-12T11:03:54.679Z</time></trkpt><trkpt lat="45.0949411" lon="7.9549855"><ele>393.0</ele><time>2026-04-12T11:03:55.679Z</time></trkpt><trkpt lat="45.0950295" lon="7.9548592"><ele>393.5</ele><time>2026-04-12T11:03:56.679Z</time></trkpt><trkpt lat="45.0951099" lon="7.9547397"><ele>394.0</ele><time>2026-04-12T11:03:57.679Z</time></trkpt><trkpt lat="45.0951909" lon="7.9546136"><ele>394.5</ele><time>2026-04-12T11:03:58.679Z</time></trkpt><trkpt lat="45.0952686" lon="7.9544886"><ele>395.0</ele><time>2026-04-12T11:03:59.679Z</time></trkpt><trkpt lat="45.0953302" lon="7.9543725"><ele>395.0</ele><time>2026-04-12T11:04:00.679Z</time></trkpt><trkpt lat="45.0953729" lon="7.9542566"><ele>395.0</ele><time>2026-04-12T11:04:01.679Z</time></trkpt><trkpt lat="45.0954131" lon="7.9541245"><ele>395.0</ele><time>2026-04-12T11:04:02.679Z</time></trkpt><trkpt lat="45.0954378" lon="7.9539847"><ele>395.0</ele><time>2026-04-12T11:04:03.679Z</time></trkpt><trkpt lat="45.0954631" lon="7.9538434"><ele>395.0</ele><time>2026-04-12T11:04:04.679Z</time></trkpt><trkpt lat="45.0954697" lon="7.9537079"><ele>394.8</ele><time>2026-04-12T11:04:05.679Z</time></trkpt><trkpt lat="45.0954609" lon="7.9535701"><ele>394.6</ele><time>2026-04-12T11:04:06.679Z</time></trkpt><trkpt lat="45.0954283" lon="7.9534412"><ele>394.4</ele><time>2026-04-12T11:04:07.679Z</time></trkpt><trkpt lat="45.095392" lon="7.953338"><ele>394.2</ele><time>2026-04-12T11:04:08.679Z</time></trkpt><trkpt lat="45.095361" lon="7.9532469"><ele>394.0</ele><time>2026-04-12T11:04:09.678Z</time></trkpt><trkpt lat="45.0952949" lon="7.953123"><ele>394.00000000000006</ele><time>2026-04-12T11:04:11.679Z</time></trkpt><trkpt lat="45.0952937" lon="7.9530197"><ele>394.0</ele><time>2026-04-12T11:04:13.679Z</time></trkpt><trkpt lat="45.0953669" lon="7.952975"><ele>394.0</ele><time>2026-04-12T11:04:15.679Z</time></trkpt><trkpt lat="45.0954863" lon="7.9529109"><ele>394.0</ele><time>2026-04-12T11:04:17.679Z</time></trkpt><trkpt lat="45.0955427" lon="7.9528499"><ele>394.00000000000006</ele><time>2026-04-12T11:04:18.679Z</time></trkpt><trkpt lat="45.0956013" lon="7.9527789"><ele>394.0</ele><time>2026-04-12T11:04:19.679Z</time></trkpt><trkpt lat="45.0956632" lon="7.9526926"><ele>394.0</ele><time>2026-04-12T11:04:20.679Z</time></trkpt><trkpt lat="45.0957266" lon="7.9525987"><ele>394.0</ele><time>2026-04-12T11:04:21.678Z</time></trkpt><trkpt lat="45.0958008" lon="7.9524976"><ele>394.0</ele><time>2026-04-12T11:04:22.679Z</time></trkpt><trkpt lat="45.0958835" lon="7.9524025"><ele>394.0</ele><time>2026-04-12T11:04:23.679Z</time></trkpt><trkpt lat="45.0959833" lon="7.9522989"><ele>394.0</ele><time>2026-04-12T11:04:24.679Z</time></trkpt><trkpt lat="45.0960876" lon="7.9522238"><ele>393.5</ele><time>2026-04-12T11:04:25.679Z</time></trkpt><trkpt lat="45.0962192" lon="7.9521604"><ele>393.0</ele><time>2026-04-12T11:04:26.679Z</time></trkpt><trkpt lat="45.0963538" lon="7.9520992"><ele>392.5</ele><time>2026-04-12T11:04:27.679Z</time></trkpt><trkpt lat="45.096488" lon="7.9520351"><ele>392.0</ele><time>2026-04-12T11:04:28.679Z</time></trkpt><trkpt lat="45.0966331" lon="7.951976"><ele>393.0</ele><time>2026-04-12T11:04:29.679Z</time></trkpt><trkpt lat="45.0967723" lon="7.9518916"><ele>394.0</ele><time>2026-04-12T11:04:30.679Z</time></trkpt><trkpt lat="45.096913" lon="7.9517945"><ele>395.0</ele><time>2026-04-12T11:04:31.679Z</time></trkpt><trkpt lat="45.0970333" lon="7.9516916"><ele>396.0</ele><time>2026-04-12T11:04:32.678Z</time></trkpt><trkpt lat="45.0971562" lon="7.951591"><ele>393.6</ele><time>2026-04-12T11:04:33.679Z</time></trkpt><trkpt lat="45.0972741" lon="7.9514949"><ele>391.20000000000005</ele><time>2026-04-12T11:04:34.679Z</time></trkpt><trkpt lat="45.0973793" lon="7.9514092"><ele>388.79999999999995</ele><time>2026-04-12T11:04:35.679Z</time></trkpt><trkpt lat="45.0974668" lon="7.9513294"><ele>386.4</ele><time>2026-04-12T11:04:36.679Z</time></trkpt><trkpt lat="45.0975287" lon="7.9512689"><ele>384.0</ele><time>2026-04-12T11:04:37.679Z</time></trkpt><trkpt lat="45.0975749" lon="7.9512036"><ele>384.0</ele><time>2026-04-12T11:04:38.679Z</time></trkpt><trkpt lat="45.0976145" lon="7.951127"><ele>384.0</ele><time>2026-04-12T11:04:39.679Z</time></trkpt><trkpt lat="45.0975627" lon="7.9510316"><ele>384.0</ele><time>2026-04-12T11:04:40.679Z</time></trkpt><trkpt lat="45.0975151" lon="7.950952"><ele>384.0</ele><time>2026-04-12T11:04:41.679Z</time></trkpt><trkpt lat="45.0974325" lon="7.9509494"><ele>384.0</ele><time>2026-04-12T11:04:42.679Z</time></trkpt><trkpt lat="45.0973526" lon="7.9510075"><ele>384.0</ele><time>2026-04-12T11:04:43.679Z</time></trkpt><trkpt lat="45.0972562" lon="7.9510831"><ele>382.5</ele><time>2026-04-12T11:04:44.679Z</time></trkpt><trkpt lat="45.0971424" lon="7.9511819"><ele>381.0</ele><time>2026-04-12T11:04:45.679Z</time></trkpt><trkpt lat="45.0970209" lon="7.9512742"><ele>379.5</ele><time>2026-04-12T11:04:46.679Z</time></trkpt><trkpt lat="45.0968973" lon="7.9513491"><ele>378.0</ele><time>2026-04-12T11:04:47.679Z</time></trkpt><trkpt lat="45.0967896" lon="7.9513947"><ele>378.0</ele><time>2026-04-12T11:04:48.679Z</time></trkpt><trkpt lat="45.0966755" lon="7.9514397"><ele>378.0</ele><time>2026-04-12T11:04:49.679Z</time></trkpt><trkpt lat="45.0965653" lon="7.9514723"><ele>378.0</ele><time>2026-04-12T11:04:50.679Z</time></trkpt><trkpt lat="45.0964927" lon="7.9514245"><ele>378.0</ele><time>2026-04-12T11:04:51.679Z</time></trkpt><trkpt lat="45.0964244" lon="7.9513601"><ele>378.0</ele><time>2026-04-12T11:04:52.679Z</time></trkpt><trkpt lat="45.096384" lon="7.9512535"><ele>378.0</ele><time>2026-04-12T11:04:53.679Z</time></trkpt><trkpt lat="45.0963915" lon="7.9511447"><ele>378.0</ele><time>2026-04-12T11:04:54.679Z</time></trkpt><trkpt lat="45.0964402" lon="7.9510638"><ele>378.0</ele><time>2026-04-12T11:04:55.679Z</time></trkpt><trkpt lat="45.096491" lon="7.9509824"><ele>378.0</ele><time>2026-04-12T11:04:56.679Z</time></trkpt><trkpt lat="45.0965941" lon="7.950927"><ele>378.0</ele><time>2026-04-12T11:04:57.679Z</time></trkpt><trkpt lat="45.0967368" lon="7.9509021"><ele>374.25</ele><time>2026-04-12T11:04:58.678Z</time></trkpt><trkpt lat="45.0968682" lon="7.9508212"><ele>370.5</ele><time>2026-04-12T11:04:59.679Z</time></trkpt><trkpt lat="45.0969991" lon="7.9507108"><ele>366.75</ele><time>2026-04-12T11:05:00.679Z</time></trkpt><trkpt lat="45.0971215" lon="7.9506029"><ele>363.0</ele><time>2026-04-12T11:05:01.679Z</time></trkpt><trkpt lat="45.0972256" lon="7.9504501"><ele>363.0</ele><time>2026-04-12T11:05:02.678Z</time></trkpt><trkpt lat="45.0973293" lon="7.9502966"><ele>363.0</ele><time>2026-04-12T11:05:03.679Z</time></trkpt><trkpt lat="45.0974194" lon="7.9501268"><ele>363.0</ele><time>2026-04-12T11:05:04.679Z</time></trkpt><trkpt lat="45.0975023" lon="7.9499597"><ele>363.0</ele><time>2026-04-12T11:05:05.679Z</time></trkpt><trkpt lat="45.0975847" lon="7.9497822"><ele>361.0</ele><time>2026-04-12T11:05:06.679Z</time></trkpt><trkpt lat="45.0976699" lon="7.9496213"><ele>359.0</ele><time>2026-04-12T11:05:07.679Z</time></trkpt><trkpt lat="45.0977653" lon="7.9494621"><ele>357.0</ele><time>2026-04-12T11:05:08.679Z</time></trkpt><trkpt lat="45.0978849" lon="7.9493499"><ele>355.0</ele><time>2026-04-12T11:05:09.679Z</time></trkpt><trkpt lat="45.098014" lon="7.9492471"><ele>353.66666666666663</ele><time>2026-04-12T11:05:10.679Z</time></trkpt><trkpt lat="45.0981535" lon="7.9491363"><ele>352.3333333333333</ele><time>2026-04-12T11:05:11.679Z</time></trkpt><trkpt lat="45.0982806" lon="7.9490136"><ele>351.0</ele><time>2026-04-12T11:05:12.679Z</time></trkpt><trkpt lat="45.0984049" lon="7.948872"><ele>351.0</ele><time>2026-04-12T11:05:13.679Z</time></trkpt><trkpt lat="45.0985256" lon="7.9487178"><ele>351.0</ele><time>2026-04-12T11:05:14.679Z</time></trkpt><trkpt lat="45.0986301" lon="7.9485646"><ele>351.0</ele><time>2026-04-12T11:05:15.679Z</time></trkpt><trkpt lat="45.0987401" lon="7.9484126"><ele>347.6666666666667</ele><time>2026-04-12T11:05:16.679Z</time></trkpt><trkpt lat="45.0988543" lon="7.9482545"><ele>344.33333333333337</ele><time>2026-04-12T11:05:17.679Z</time></trkpt><trkpt lat="45.098966" lon="7.9480996"><ele>341.0</ele><time>2026-04-12T11:05:18.679Z</time></trkpt><trkpt lat="45.0990819" lon="7.947939"><ele>341.6666666666667</ele><time>2026-04-12T11:05:19.679Z</time></trkpt><trkpt lat="45.0992009" lon="7.947805"><ele>342.3333333333333</ele><time>2026-04-12T11:05:20.679Z</time></trkpt><trkpt lat="45.0993321" lon="7.9477059"><ele>343.0</ele><time>2026-04-12T11:05:21.679Z</time></trkpt><trkpt lat="45.0994707" lon="7.9476274"><ele>343.0</ele><time>2026-04-12T11:05:22.679Z</time></trkpt><trkpt lat="45.099618" lon="7.9475644"><ele>343.0</ele><time>2026-04-12T11:05:23.679Z</time></trkpt><trkpt lat="45.0997658" lon="7.947502"><ele>343.0</ele><time>2026-04-12T11:05:24.679Z</time></trkpt><trkpt lat="45.0999219" lon="7.9474249"><ele>340.5</ele><time>2026-04-12T11:05:25.679Z</time></trkpt><trkpt lat="45.100073" lon="7.9473771"><ele>338.0</ele><time>2026-04-12T11:05:26.679Z</time></trkpt><trkpt lat="45.1002208" lon="7.9473333"><ele>335.5</ele><time>2026-04-12T11:05:27.679Z</time></trkpt><trkpt lat="45.1003466" lon="7.9472807"><ele>333.0</ele><time>2026-04-12T11:05:28.679Z</time></trkpt><trkpt lat="45.1004536" lon="7.94722"><ele>333.0</ele><time>2026-04-12T11:05:29.679Z</time></trkpt><trkpt lat="45.1005448" lon="7.9471321"><ele>333.0</ele><time>2026-04-12T11:05:30.679Z</time></trkpt><trkpt lat="45.1006388" lon="7.9470191"><ele>333.0</ele><time>2026-04-12T11:05:31.679Z</time></trkpt><trkpt lat="45.1007011" lon="7.9468751"><ele>333.0</ele><time>2026-04-12T11:05:32.679Z</time></trkpt><trkpt lat="45.100713" lon="7.9466989"><ele>329.25</ele><time>2026-04-12T11:05:33.679Z</time></trkpt><trkpt lat="45.1006844" lon="7.9465097"><ele>325.5</ele><time>2026-04-12T11:05:34.679Z</time></trkpt><trkpt lat="45.1006395" lon="7.9463095"><ele>321.75</ele><time>2026-04-12T11:05:35.679Z</time></trkpt><trkpt lat="45.1005835" lon="7.946095"><ele>318.0</ele><time>2026-04-12T11:05:36.679Z</time></trkpt><trkpt lat="45.1005291" lon="7.9458956"><ele>315.25</ele><time>2026-04-12T11:05:37.679Z</time></trkpt><trkpt lat="45.1004903" lon="7.9456938"><ele>312.5</ele><time>2026-04-12T11:05:38.679Z</time></trkpt><trkpt lat="45.1004799" lon="7.9454961"><ele>309.75</ele><time>2026-04-12T11:05:39.679Z</time></trkpt><trkpt lat="45.1005026" lon="7.9452927"><ele>307.0</ele><time>2026-04-12T11:05:40.679Z</time></trkpt><trkpt lat="45.1005527" lon="7.9451026"><ele>305.66666666666663</ele><time>2026-04-12T11:05:41.679Z</time></trkpt><trkpt lat="45.1006245" lon="7.9449043"><ele>304.3333333333333</ele><time>2026-04-12T11:05:42.679Z</time></trkpt><trkpt lat="45.1006989" lon="7.944713"><ele>303.0</ele><time>2026-04-12T11:05:43.679Z</time></trkpt><trkpt lat="45.1007626" lon="7.9445339"><ele>304.5</ele><time>2026-04-12T11:05:44.678Z</time></trkpt><trkpt lat="45.1008389" lon="7.9443744"><ele>306.0</ele><time>2026-04-12T11:05:45.679Z</time></trkpt><trkpt lat="45.1009203" lon="7.9442532"><ele>307.5</ele><time>2026-04-12T11:05:46.679Z</time></trkpt><trkpt lat="45.1010213" lon="7.9441943"><ele>309.0</ele><time>2026-04-12T11:05:47.679Z</time></trkpt><trkpt lat="45.1011178" lon="7.9441717"><ele>309.0</ele><time>2026-04-12T11:05:48.679Z</time></trkpt><trkpt lat="45.1012083" lon="7.9441703"><ele>309.0</ele><time>2026-04-12T11:05:49.679Z</time></trkpt><trkpt lat="45.1012913" lon="7.9441414"><ele>309.0</ele><time>2026-04-12T11:05:50.679Z</time></trkpt><trkpt lat="45.1013497" lon="7.9440626"><ele>309.0</ele><time>2026-04-12T11:05:51.679Z</time></trkpt><trkpt lat="45.1013732" lon="7.9439623"><ele>309.0</ele><time>2026-04-12T11:05:52.678Z</time></trkpt><trkpt lat="45.1013574" lon="7.9438608"><ele>309.0</ele><time>2026-04-12T11:05:53.679Z</time></trkpt><trkpt lat="45.1012957" lon="7.9437804"><ele>309.0</ele><time>2026-04-12T11:05:54.679Z</time></trkpt><trkpt lat="45.1012147" lon="7.9437444"><ele>309.0</ele><time>2026-04-12T11:05:55.679Z</time></trkpt><trkpt lat="45.1011158" lon="7.9437595"><ele>309.0</ele><time>2026-04-12T11:05:56.679Z</time></trkpt><trkpt lat="45.1010117" lon="7.9437879"><ele>309.0</ele><time>2026-04-12T11:05:57.678Z</time></trkpt><trkpt lat="45.1008882" lon="7.9438948"><ele>309.0</ele><time>2026-04-12T11:05:58.679Z</time></trkpt><trkpt lat="45.1007699" lon="7.944011"><ele>307.5</ele><time>2026-04-12T11:05:59.679Z</time></trkpt><trkpt lat="45.1006578" lon="7.9441324"><ele>306.0</ele><time>2026-04-12T11:06:00.679Z</time></trkpt><trkpt lat="45.1005475" lon="7.9442686"><ele>304.5</ele><time>2026-04-12T11:06:01.679Z</time></trkpt><trkpt lat="45.1004319" lon="7.9444086"><ele>303.0</ele><time>2026-04-12T11:06:02.679Z</time></trkpt><trkpt lat="45.1003173" lon="7.9445568"><ele>303.0</ele><time>2026-04-12T11:06:03.679Z</time></trkpt><trkpt lat="45.1002095" lon="7.9446876"><ele>303.0</ele><time>2026-04-12T11:06:04.679Z</time></trkpt><trkpt lat="45.1001138" lon="7.9448289"><ele>303.0</ele><time>2026-04-12T11:06:05.679Z</time></trkpt><trkpt lat="45.1000476" lon="7.9449794"><ele>303.0</ele><time>2026-04-12T11:06:06.678Z</time></trkpt><trkpt lat="45.1000278" lon="7.9451752"><ele>304.0</ele><time>2026-04-12T11:06:07.679Z</time></trkpt><trkpt lat="45.1000131" lon="7.9453518"><ele>305.0</ele><time>2026-04-12T11:06:08.679Z</time></trkpt><trkpt lat="45.1000088" lon="7.9455279"><ele>306.0</ele><time>2026-04-12T11:06:09.679Z</time></trkpt><trkpt lat="45.0999908" lon="7.9456868"><ele>307.0</ele><time>2026-04-12T11:06:10.679Z</time></trkpt><trkpt lat="45.0999599" lon="7.9458164"><ele>306.8333333333333</ele><time>2026-04-12T11:06:11.679Z</time></trkpt><trkpt lat="45.0999149" lon="7.9459187"><ele>306.66666666666663</ele><time>2026-04-12T11:06:12.679Z</time></trkpt><trkpt lat="45.0998286" lon="7.9459163"><ele>306.5</ele><time>2026-04-12T11:06:13.679Z</time></trkpt><trkpt lat="45.0997706" lon="7.9458752"><ele>306.3333333333333</ele><time>2026-04-12T11:06:14.679Z</time></trkpt><trkpt lat="45.0997403" lon="7.9457696"><ele>306.1666666666667</ele><time>2026-04-12T11:06:15.679Z</time></trkpt><trkpt lat="45.0997455" lon="7.9456544"><ele>306.0</ele><time>2026-04-12T11:06:16.679Z</time></trkpt><trkpt lat="45.0997907" lon="7.9455489"><ele>306.0</ele><time>2026-04-12T11:06:17.679Z</time></trkpt><trkpt lat="45.0998364" lon="7.9454123"><ele>306.0</ele><time>2026-04-12T11:06:18.679Z</time></trkpt><trkpt lat="45.0998722" lon="7.9452837"><ele>306.0</ele><time>2026-04-12T11:06:19.679Z</time></trkpt><trkpt lat="45.0998276" lon="7.945103"><ele>306.0</ele><time>2026-04-12T11:06:20.679Z</time></trkpt><trkpt lat="45.0998009" lon="7.9449364"><ele>302.0</ele><time>2026-04-12T11:06:21.679Z</time></trkpt><trkpt lat="45.0997799" lon="7.9447821"><ele>298.0</ele><time>2026-04-12T11:06:22.679Z</time></trkpt><trkpt lat="45.0998157" lon="7.9446159"><ele>294.0</ele><time>2026-04-12T11:06:23.679Z</time></trkpt><trkpt lat="45.0998522" lon="7.9444459"><ele>290.0</ele><time>2026-04-12T11:06:24.679Z</time></trkpt><trkpt lat="45.0999098" lon="7.9442571"><ele>292.0</ele><time>2026-04-12T11:06:25.679Z</time></trkpt><trkpt lat="45.0999706" lon="7.9440742"><ele>294.0</ele><time>2026-04-12T11:06:26.679Z</time></trkpt><trkpt lat="45.100032" lon="7.9438771"><ele>296.0</ele><time>2026-04-12T11:06:27.678Z</time></trkpt><trkpt lat="45.1000933" lon="7.943679"><ele>298.0</ele><time>2026-04-12T11:06:28.678Z</time></trkpt><trkpt lat="45.1001572" lon="7.9434721"><ele>295.66666666666663</ele><time>2026-04-12T11:06:29.679Z</time></trkpt><trkpt lat="45.1002269" lon="7.9432577"><ele>293.3333333333333</ele><time>2026-04-12T11:06:30.679Z</time></trkpt><trkpt lat="45.1003008" lon="7.9430417"><ele>291.0</ele><time>2026-04-12T11:06:31.679Z</time></trkpt><trkpt lat="45.1003709" lon="7.9428279"><ele>291.0</ele><time>2026-04-12T11:06:32.679Z</time></trkpt><trkpt lat="45.100443" lon="7.9426273"><ele>291.0</ele><time>2026-04-12T11:06:33.679Z</time></trkpt><trkpt lat="45.1005123" lon="7.9424228"><ele>291.0</ele><time>2026-04-12T11:06:34.679Z</time></trkpt><trkpt lat="45.1005818" lon="7.9422257"><ele>291.75</ele><time>2026-04-12T11:06:35.678Z</time></trkpt><trkpt lat="45.1006425" lon="7.942036"><ele>292.5</ele><time>2026-04-12T11:06:36.679Z</time></trkpt><trkpt lat="45.100711" lon="7.9418667"><ele>293.25</ele><time>2026-04-12T11:06:37.679Z</time></trkpt><trkpt lat="45.1007871" lon="7.9417213"><ele>294.0</ele><time>2026-04-12T11:06:38.679Z</time></trkpt><trkpt lat="45.1008901" lon="7.9415801"><ele>292.2</ele><time>2026-04-12T11:06:39.679Z</time></trkpt><trkpt lat="45.1009826" lon="7.9414591"><ele>290.4</ele><time>2026-04-12T11:06:40.679Z</time></trkpt><trkpt lat="45.1010683" lon="7.9413621"><ele>288.6</ele><time>2026-04-12T11:06:41.679Z</time></trkpt><trkpt lat="45.1011773" lon="7.9414236"><ele>286.8</ele><time>2026-04-12T11:06:42.679Z</time></trkpt><trkpt lat="45.1012666" lon="7.9414374"><ele>285.0</ele><time>2026-04-12T11:06:43.679Z</time></trkpt><trkpt lat="45.1013633" lon="7.9414647"><ele>285.0</ele><time>2026-04-12T11:06:44.679Z</time></trkpt><trkpt lat="45.1014523" lon="7.9414052"><ele>285.0</ele><time>2026-04-12T11:06:45.679Z</time></trkpt><trkpt lat="45.1015316" lon="7.9413306"><ele>285.0</ele><time>2026-04-12T11:06:46.678Z</time></trkpt><trkpt lat="45.1015959" lon="7.9412246"><ele>285.0</ele><time>2026-04-12T11:06:47.679Z</time></trkpt><trkpt lat="45.101664" lon="7.9410951"><ele>285.0</ele><time>2026-04-12T11:06:48.679Z</time></trkpt><trkpt lat="45.101693" lon="7.9409018"><ele>282.5</ele><time>2026-04-12T11:06:49.679Z</time></trkpt><trkpt lat="45.1017281" lon="7.9407243"><ele>280.0</ele><time>2026-04-12T11:06:50.679Z</time></trkpt><trkpt lat="45.1017708" lon="7.9405758"><ele>277.5</ele><time>2026-04-12T11:06:51.679Z</time></trkpt><trkpt lat="45.1018295" lon="7.9404266"><ele>275.0</ele><time>2026-04-12T11:06:52.679Z</time></trkpt><trkpt lat="45.1018965" lon="7.9403091"><ele>275.0</ele><time>2026-04-12T11:06:53.678Z</time></trkpt><trkpt lat="45.102047" lon="7.9402912"><ele>275.0</ele><time>2026-04-12T11:06:54.679Z</time></trkpt><trkpt lat="45.1021697" lon="7.9402453"><ele>275.0</ele><time>2026-04-12T11:06:55.679Z</time></trkpt><trkpt lat="45.102318" lon="7.9402119"><ele>275.0</ele><time>2026-04-12T11:06:56.679Z</time></trkpt><trkpt lat="45.1024676" lon="7.9401741"><ele>275.75</ele><time>2026-04-12T11:06:57.678Z</time></trkpt><trkpt lat="45.1026052" lon="7.9401295"><ele>276.5</ele><time>2026-04-12T11:06:58.679Z</time></trkpt><trkpt lat="45.1027354" lon="7.9400938"><ele>277.25</ele><time>2026-04-12T11:06:59.678Z</time></trkpt><trkpt lat="45.1028527" lon="7.9400771"><ele>278.0</ele><time>2026-04-12T11:07:00.679Z</time></trkpt><trkpt lat="45.1029632" lon="7.9401065"><ele>278.0</ele><time>2026-04-12T11:07:01.679Z</time></trkpt><trkpt lat="45.1030686" lon="7.9401759"><ele>278.0</ele><time>2026-04-12T11:07:02.679Z</time></trkpt><trkpt lat="45.103141" lon="7.9402935"><ele>278.0</ele><time>2026-04-12T11:07:03.679Z</time></trkpt><trkpt lat="45.1032428" lon="7.9403798"><ele>278.0</ele><time>2026-04-12T11:07:04.679Z</time></trkpt><trkpt lat="45.1033542" lon="7.9404466"><ele>276.75</ele><time>2026-04-12T11:07:05.678Z</time></trkpt><trkpt lat="45.1034802" lon="7.9403958"><ele>275.5</ele><time>2026-04-12T11:07:06.679Z</time></trkpt><trkpt lat="45.1036113" lon="7.9403353"><ele>274.25</ele><time>2026-04-12T11:07:07.679Z</time></trkpt><trkpt lat="45.1037621" lon="7.9403003"><ele>273.0</ele><time>2026-04-12T11:07:08.679Z</time></trkpt><trkpt lat="45.103903" lon="7.9402612"><ele>273.0</ele><time>2026-04-12T11:07:09.679Z</time></trkpt><trkpt lat="45.1040346" lon="7.9402678"><ele>273.0</ele><time>2026-04-12T11:07:10.679Z</time></trkpt><trkpt lat="45.1041763" lon="7.9403105"><ele>273.0</ele><time>2026-04-12T11:07:11.679Z</time></trkpt><trkpt lat="45.1043101" lon="7.9403752"><ele>273.0</ele><time>2026-04-12T11:07:12.678Z</time></trkpt><trkpt lat="45.1044681" lon="7.9404944"><ele>269.3333333333333</ele><time>2026-04-12T11:07:13.679Z</time></trkpt><trkpt lat="45.1046155" lon="7.9405984"><ele>265.66666666666663</ele><time>2026-04-12T11:07:14.679Z</time></trkpt><trkpt lat="45.1047992" lon="7.9407301"><ele>262.0</ele><time>2026-04-12T11:07:15.679Z</time></trkpt><trkpt lat="45.1049595" lon="7.9408185"><ele>259.66666666666663</ele><time>2026-04-12T11:07:16.679Z</time></trkpt><trkpt lat="45.1051158" lon="7.9408783"><ele>257.3333333333333</ele><time>2026-04-12T11:07:17.679Z</time></trkpt><trkpt lat="45.1052823" lon="7.9409419"><ele>255.0</ele><time>2026-04-12T11:07:18.679Z</time></trkpt><trkpt lat="45.1054461" lon="7.9409999"><ele>255.0</ele><time>2026-04-12T11:07:19.679Z</time></trkpt><trkpt lat="45.1056084" lon="7.9410457"><ele>255.0</ele><time>2026-04-12T11:07:20.679Z</time></trkpt><trkpt lat="45.1057698" lon="7.9411052"><ele>255.0</ele><time>2026-04-12T11:07:21.679Z</time></trkpt><trkpt lat="45.1059422" lon="7.9411549"><ele>251.66666666666669</ele><time>2026-04-12T11:07:22.679Z</time></trkpt><trkpt lat="45.1061145" lon="7.9412094"><ele>248.33333333333334</ele><time>2026-04-12T11:07:23.679Z</time></trkpt><trkpt lat="45.1062904" lon="7.9412695"><ele>245.0</ele><time>2026-04-12T11:07:24.678Z</time></trkpt><trkpt lat="45.1064647" lon="7.9413579"><ele>244.0</ele><time>2026-04-12T11:07:25.679Z</time></trkpt><trkpt lat="45.1066395" lon="7.9414465"><ele>243.0</ele><time>2026-04-12T11:07:26.679Z</time></trkpt><trkpt lat="45.1068136" lon="7.9415441"><ele>242.0</ele><time>2026-04-12T11:07:27.679Z</time></trkpt><trkpt lat="45.1069713" lon="7.94164"><ele>242.66666666666669</ele><time>2026-04-12T11:07:28.679Z</time></trkpt><trkpt lat="45.1071327" lon="7.9417245"><ele>243.33333333333331</ele><time>2026-04-12T11:07:29.679Z</time></trkpt><trkpt lat="45.1072861" lon="7.9418054"><ele>244.0</ele><time>2026-04-12T11:07:30.679Z</time></trkpt><trkpt lat="45.107421" lon="7.9418579"><ele>242.25</ele><time>2026-04-12T11:07:31.679Z</time></trkpt><trkpt lat="45.10755" lon="7.9418914"><ele>240.5</ele><time>2026-04-12T11:07:32.678Z</time></trkpt><trkpt lat="45.1076915" lon="7.941875"><ele>238.75</ele><time>2026-04-12T11:07:33.678Z</time></trkpt><trkpt lat="45.1078299" lon="7.9418288"><ele>237.0</ele><time>2026-04-12T11:07:34.679Z</time></trkpt><trkpt lat="45.1079656" lon="7.9417373"><ele>238.33333333333331</ele><time>2026-04-12T11:07:35.678Z</time></trkpt><trkpt lat="45.1081179" lon="7.9416392"><ele>239.66666666666666</ele><time>2026-04-12T11:07:36.679Z</time></trkpt><trkpt lat="45.1082526" lon="7.9415579"><ele>241.0</ele><time>2026-04-12T11:07:37.679Z</time></trkpt><trkpt lat="45.1083945" lon="7.9414852"><ele>241.0</ele><time>2026-04-12T11:07:38.679Z</time></trkpt><trkpt lat="45.1085344" lon="7.9414108"><ele>241.0</ele><time>2026-04-12T11:07:39.679Z</time></trkpt><trkpt lat="45.1086763" lon="7.9413513"><ele>241.0</ele><time>2026-04-12T11:07:40.679Z</time></trkpt><trkpt lat="45.1088324" lon="7.9413159"><ele>241.0</ele><time>2026-04-12T11:07:41.679Z</time></trkpt><trkpt lat="45.108982" lon="7.941315"><ele>241.0</ele><time>2026-04-12T11:07:42.678Z</time></trkpt><trkpt lat="45.1091439" lon="7.9413379"><ele>241.0</ele><time>2026-04-12T11:07:43.679Z</time></trkpt><trkpt lat="45.1093021" lon="7.9413685"><ele>240.33333333333331</ele><time>2026-04-12T11:07:44.679Z</time></trkpt><trkpt lat="45.1094677" lon="7.9413877"><ele>239.66666666666669</ele><time>2026-04-12T11:07:45.679Z</time></trkpt><trkpt lat="45.1096299" lon="7.9414145"><ele>239.0</ele><time>2026-04-12T11:07:46.679Z</time></trkpt><trkpt lat="45.1097982" lon="7.9414391"><ele>238.66666666666669</ele><time>2026-04-12T11:07:47.679Z</time></trkpt><trkpt lat="45.1099667" lon="7.9414719"><ele>238.33333333333331</ele><time>2026-04-12T11:07:48.679Z</time></trkpt><trkpt lat="45.1101361" lon="7.9415013"><ele>238.0</ele><time>2026-04-12T11:07:49.679Z</time></trkpt><trkpt lat="45.1103076" lon="7.9415306"><ele>238.0</ele><time>2026-04-12T11:07:50.679Z</time></trkpt><trkpt lat="45.1104714" lon="7.9415674"><ele>238.0</ele><time>2026-04-12T11:07:51.679Z</time></trkpt><trkpt lat="45.1106471" lon="7.9416248"><ele>238.0</ele><time>2026-04-12T11:07:52.679Z</time></trkpt><trkpt lat="45.1108047" lon="7.9416892"><ele>236.0</ele><time>2026-04-12T11:07:53.679Z</time></trkpt><trkpt lat="45.1109664" lon="7.9417524"><ele>234.0</ele><time>2026-04-12T11:07:54.678Z</time></trkpt><trkpt lat="45.1111176" lon="7.9418056"><ele>232.0</ele><time>2026-04-12T11:07:55.679Z</time></trkpt><trkpt lat="45.1112652" lon="7.9418475"><ele>232.0</ele><time>2026-04-12T11:07:56.679Z</time></trkpt><trkpt lat="45.1114138" lon="7.9418653"><ele>232.0</ele><time>2026-04-12T11:07:57.679Z</time></trkpt><trkpt lat="45.1115685" lon="7.9418486"><ele>232.0</ele><time>2026-04-12T11:07:58.679Z</time></trkpt><trkpt lat="45.1117162" lon="7.9418162"><ele>232.25</ele><time>2026-04-12T11:07:59.679Z</time></trkpt><trkpt lat="45.1118485" lon="7.9417942"><ele>232.5</ele><time>2026-04-12T11:08:00.679Z</time></trkpt><trkpt lat="45.1119692" lon="7.9417673"><ele>232.75</ele><time>2026-04-12T11:08:01.679Z</time></trkpt><trkpt lat="45.1120818" lon="7.9417556"><ele>233.0</ele><time>2026-04-12T11:08:02.679Z</time></trkpt><trkpt lat="45.1121848" lon="7.9418079"><ele>233.0</ele><time>2026-04-12T11:08:03.679Z</time></trkpt><trkpt lat="45.1122757" lon="7.941869"><ele>233.0</ele><time>2026-04-12T11:08:04.679Z</time></trkpt><trkpt lat="45.1123697" lon="7.9419593"><ele>233.0</ele><time>2026-04-12T11:08:05.679Z</time></trkpt><trkpt lat="45.1124701" lon="7.9420455"><ele>233.0</ele><time>2026-04-12T11:08:06.679Z</time></trkpt><trkpt lat="45.1125842" lon="7.9421009"><ele>233.5</ele><time>2026-04-12T11:08:07.679Z</time></trkpt><trkpt lat="45.1127167" lon="7.9421037"><ele>234.0</ele><time>2026-04-12T11:08:08.679Z</time></trkpt><trkpt lat="45.1128565" lon="7.9420733"><ele>234.5</ele><time>2026-04-12T11:08:09.679Z</time></trkpt><trkpt lat="45.1130031" lon="7.9420312"><ele>235.0</ele><time>2026-04-12T11:08:10.679Z</time></trkpt><trkpt lat="45.113162" lon="7.9419932"><ele>233.66666666666666</ele><time>2026-04-12T11:08:11.678Z</time></trkpt><trkpt lat="45.1133161" lon="7.9419698"><ele>232.33333333333331</ele><time>2026-04-12T11:08:12.678Z</time></trkpt><trkpt lat="45.113478" lon="7.9419516"><ele>231.0</ele><time>2026-04-12T11:08:13.678Z</time></trkpt><trkpt lat="45.1136318" lon="7.9419314"><ele>231.0</ele><time>2026-04-12T11:08:14.679Z</time></trkpt><trkpt lat="45.1137965" lon="7.9419235"><ele>231.0</ele><time>2026-04-12T11:08:15.679Z</time></trkpt><trkpt lat="45.1139553" lon="7.9419055"><ele>231.0</ele><time>2026-04-12T11:08:16.679Z</time></trkpt><trkpt lat="45.1141141" lon="7.9418789"><ele>231.33333333333331</ele><time>2026-04-12T11:08:17.679Z</time></trkpt><trkpt lat="45.1142723" lon="7.9418435"><ele>231.66666666666666</ele><time>2026-04-12T11:08:18.679Z</time></trkpt><trkpt lat="45.1144209" lon="7.9417736"><ele>232.0</ele><time>2026-04-12T11:08:19.679Z</time></trkpt><trkpt lat="45.11457" lon="7.9416923"><ele>233.33333333333331</ele><time>2026-04-12T11:08:20.678Z</time></trkpt><trkpt lat="45.1147196" lon="7.9416238"><ele>234.66666666666669</ele><time>2026-04-12T11:08:21.679Z</time></trkpt><trkpt lat="45.1148759" lon="7.9415696"><ele>236.0</ele><time>2026-04-12T11:08:22.679Z</time></trkpt><trkpt lat="45.1150251" lon="7.9415332"><ele>236.0</ele><time>2026-04-12T11:08:23.679Z</time></trkpt><trkpt lat="45.1151695" lon="7.9414823"><ele>236.0</ele><time>2026-04-12T11:08:24.679Z</time></trkpt><trkpt lat="45.1153265" lon="7.9414417"><ele>236.0</ele><time>2026-04-12T11:08:25.678Z</time></trkpt><trkpt lat="45.1154787" lon="7.9413805"><ele>236.0</ele><time>2026-04-12T11:08:26.679Z</time></trkpt><trkpt lat="45.1156275" lon="7.9413363"><ele>236.0</ele><time>2026-04-12T11:08:27.679Z</time></trkpt><trkpt lat="45.1157686" lon="7.9412873"><ele>236.0</ele><time>2026-04-12T11:08:28.678Z</time></trkpt><trkpt lat="45.1159087" lon="7.9412585"><ele>236.0</ele><time>2026-04-12T11:08:29.679Z</time></trkpt><trkpt lat="45.1160454" lon="7.9412387"><ele>234.5</ele><time>2026-04-12T11:08:30.679Z</time></trkpt><trkpt lat="45.1161874" lon="7.9412738"><ele>233.0</ele><time>2026-04-12T11:08:31.678Z</time></trkpt><trkpt lat="45.1163267" lon="7.9413531"><ele>231.5</ele><time>2026-04-12T11:08:32.679Z</time></trkpt><trkpt lat="45.1164522" lon="7.9414635"><ele>230.0</ele><time>2026-04-12T11:08:33.679Z</time></trkpt><trkpt lat="45.1165805" lon="7.9415637"><ele>229.66666666666669</ele><time>2026-04-12T11:08:34.679Z</time></trkpt><trkpt lat="45.1167217" lon="7.9416466"><ele>229.33333333333331</ele><time>2026-04-12T11:08:35.679Z</time></trkpt><trkpt lat="45.1168655" lon="7.9417071"><ele>229.0</ele><time>2026-04-12T11:08:36.679Z</time></trkpt><trkpt lat="45.1170152" lon="7.9417219"><ele>229.0</ele><time>2026-04-12T11:08:37.679Z</time></trkpt><trkpt lat="45.1171683" lon="7.9417117"><ele>229.0</ele><time>2026-04-12T11:08:38.679Z</time></trkpt><trkpt lat="45.1173121" lon="7.9416819"><ele>229.0</ele><time>2026-04-12T11:08:39.679Z</time></trkpt><trkpt lat="45.1174611" lon="7.9416445"><ele>228.0</ele><time>2026-04-12T11:08:40.679Z</time></trkpt><trkpt lat="45.1176111" lon="7.9415967"><ele>227.0</ele><time>2026-04-12T11:08:41.679Z</time></trkpt><trkpt lat="45.117762" lon="7.9415592"><ele>226.0</ele><time>2026-04-12T11:08:42.679Z</time></trkpt><trkpt lat="45.1179201" lon="7.9415239"><ele>226.0</ele><time>2026-04-12T11:08:43.679Z</time></trkpt><trkpt lat="45.1180747" lon="7.9415018"><ele>226.0</ele><time>2026-04-12T11:08:44.679Z</time></trkpt><trkpt lat="45.1182306" lon="7.9414749"><ele>226.0</ele><time>2026-04-12T11:08:45.679Z</time></trkpt><trkpt lat="45.1183922" lon="7.9414453"><ele>225.0</ele><time>2026-04-12T11:08:46.679Z</time></trkpt><trkpt lat="45.1185445" lon="7.9414069"><ele>224.0</ele><time>2026-04-12T11:08:47.679Z</time></trkpt><trkpt lat="45.1187011" lon="7.9413464"><ele>223.0</ele><time>2026-04-12T11:08:48.678Z</time></trkpt><trkpt lat="45.1188481" lon="7.9412719"><ele>223.0</ele><time>2026-04-12T11:08:49.679Z</time></trkpt><trkpt lat="45.1189972" lon="7.941195"><ele>223.0</ele><time>2026-04-12T11:08:50.679Z</time></trkpt><trkpt lat="45.1191472" lon="7.9411142"><ele>223.0</ele><time>2026-04-12T11:08:51.679Z</time></trkpt><trkpt lat="45.1192912" lon="7.9410112"><ele>223.33333333333331</ele><time>2026-04-12T11:08:52.678Z</time></trkpt><trkpt lat="45.1194386" lon="7.9409057"><ele>223.66666666666669</ele><time>2026-04-12T11:08:53.679Z</time></trkpt><trkpt lat="45.1195699" lon="7.9407728"><ele>224.0</ele><time>2026-04-12T11:08:54.679Z</time></trkpt><trkpt lat="45.1196991" lon="7.9406377"><ele>224.0</ele><time>2026-04-12T11:08:55.679Z</time></trkpt><trkpt lat="45.1198253" lon="7.9405057"><ele>224.0</ele><time>2026-04-12T11:08:56.679Z</time></trkpt><trkpt lat="45.1199528" lon="7.940365"><ele>224.0</ele><time>2026-04-12T11:08:57.679Z</time></trkpt><trkpt lat="45.1200899" lon="7.9402442"><ele>221.66666666666669</ele><time>2026-04-12T11:08:58.679Z</time></trkpt><trkpt lat="45.1202307" lon="7.9401494"><ele>219.33333333333331</ele><time>2026-04-12T11:08:59.679Z</time></trkpt><trkpt lat="45.1203765" lon="7.9400803"><ele>217.0</ele><time>2026-04-12T11:09:00.679Z</time></trkpt><trkpt lat="45.1205274" lon="7.9400256"><ele>216.66666666666666</ele><time>2026-04-12T11:09:01.679Z</time></trkpt><trkpt lat="45.1206787" lon="7.9399996"><ele>216.33333333333331</ele><time>2026-04-12T11:09:02.679Z</time></trkpt><trkpt lat="45.1208404" lon="7.9399942"><ele>216.0</ele><time>2026-04-12T11:09:03.679Z</time></trkpt><trkpt lat="45.1209959" lon="7.9400336"><ele>215.66666666666669</ele><time>2026-04-12T11:09:04.679Z</time></trkpt><trkpt lat="45.1211477" lon="7.9401035"><ele>215.33333333333334</ele><time>2026-04-12T11:09:05.679Z</time></trkpt><trkpt lat="45.1212964" lon="7.9401791"><ele>215.0</ele><time>2026-04-12T11:09:06.679Z</time></trkpt><trkpt lat="45.1214405" lon="7.9402601"><ele>214.66666666666669</ele><time>2026-04-12T11:09:07.679Z</time></trkpt><trkpt lat="45.121586" lon="7.940344"><ele>214.33333333333331</ele><time>2026-04-12T11:09:08.679Z</time></trkpt><trkpt lat="45.1217326" lon="7.9404361"><ele>214.0</ele><time>2026-04-12T11:09:09.679Z</time></trkpt><trkpt lat="45.1218754" lon="7.9405386"><ele>214.0</ele><time>2026-04-12T11:09:10.679Z</time></trkpt><trkpt lat="45.1220153" lon="7.9406509"><ele>214.0</ele><time>2026-04-12T11:09:11.679Z</time></trkpt><trkpt lat="45.1221467" lon="7.9407799"><ele>214.0</ele><time>2026-04-12T11:09:12.678Z</time></trkpt><trkpt lat="45.1222788" lon="7.9409024"><ele>213.0</ele><time>2026-04-12T11:09:13.679Z</time></trkpt><trkpt lat="45.1224153" lon="7.9410268"><ele>212.0</ele><time>2026-04-12T11:09:14.679Z</time></trkpt><trkpt lat="45.1225547" lon="7.9411445"><ele>211.0</ele><time>2026-04-12T11:09:15.678Z</time></trkpt><trkpt lat="45.1227023" lon="7.9412506"><ele>211.0</ele><time>2026-04-12T11:09:16.679Z</time></trkpt><trkpt lat="45.1228473" lon="7.9413519"><ele>211.0</ele><time>2026-04-12T11:09:17.679Z</time></trkpt><trkpt lat="45.1229994" lon="7.9414473"><ele>211.0</ele><time>2026-04-12T11:09:18.679Z</time></trkpt><trkpt lat="45.1231558" lon="7.9415449"><ele>210.66666666666666</ele><time>2026-04-12T11:09:19.679Z</time></trkpt><trkpt lat="45.1233078" lon="7.9416476"><ele>210.33333333333331</ele><time>2026-04-12T11:09:20.678Z</time></trkpt><trkpt lat="45.1234493" lon="7.9417609"><ele>210.0</ele><time>2026-04-12T11:09:21.679Z</time></trkpt><trkpt lat="45.1235845" lon="7.941894"><ele>210.0</ele><time>2026-04-12T11:09:22.679Z</time></trkpt><trkpt lat="45.1237146" lon="7.9420317"><ele>210.0</ele><time>2026-04-12T11:09:23.679Z</time></trkpt><trkpt lat="45.1238423" lon="7.942173"><ele>210.0</ele><time>2026-04-12T11:09:24.679Z</time></trkpt><trkpt lat="45.123971" lon="7.9423148"><ele>209.33333333333331</ele><time>2026-04-12T11:09:25.679Z</time></trkpt><trkpt lat="45.1241001" lon="7.9424555"><ele>208.66666666666666</ele><time>2026-04-12T11:09:26.679Z</time></trkpt><trkpt lat="45.1242338" lon="7.9425921"><ele>208.0</ele><time>2026-04-12T11:09:27.678Z</time></trkpt><trkpt lat="45.1243695" lon="7.9427207"><ele>208.0</ele><time>2026-04-12T11:09:28.679Z</time></trkpt><trkpt lat="45.1245043" lon="7.9428498"><ele>208.0</ele><time>2026-04-12T11:09:29.679Z</time></trkpt><trkpt lat="45.1246403" lon="7.9429714"><ele>208.0</ele><time>2026-04-12T11:09:30.679Z</time></trkpt><trkpt lat="45.1247782" lon="7.9430839"><ele>207.66666666666666</ele><time>2026-04-12T11:09:31.679Z</time></trkpt><trkpt lat="45.1249281" lon="7.9431939"><ele>207.33333333333331</ele><time>2026-04-12T11:09:32.679Z</time></trkpt><trkpt lat="45.1250762" lon="7.9432804"><ele>207.0</ele><time>2026-04-12T11:09:33.679Z</time></trkpt><trkpt lat="45.1252301" lon="7.9433496"><ele>207.33333333333331</ele><time>2026-04-12T11:09:34.679Z</time></trkpt><trkpt lat="45.1253865" lon="7.9434035"><ele>207.66666666666666</ele><time>2026-04-12T11:09:35.679Z</time></trkpt><trkpt lat="45.1255479" lon="7.9434409"><ele>208.0</ele><time>2026-04-12T11:09:36.679Z</time></trkpt><trkpt lat="45.1257048" lon="7.9434637"><ele>207.66666666666666</ele><time>2026-04-12T11:09:37.679Z</time></trkpt><trkpt lat="45.1258629" lon="7.9434832"><ele>207.33333333333331</ele><time>2026-04-12T11:09:38.679Z</time></trkpt><trkpt lat="45.1260268" lon="7.943496"><ele>207.0</ele><time>2026-04-12T11:09:39.679Z</time></trkpt><trkpt lat="45.1261882" lon="7.9435167"><ele>207.0</ele><time>2026-04-12T11:09:40.679Z</time></trkpt><trkpt lat="45.1263513" lon="7.9435356"><ele>207.0</ele><time>2026-04-12T11:09:41.679Z</time></trkpt><trkpt lat="45.1265048" lon="7.9435578"><ele>207.0</ele><time>2026-04-12T11:09:42.679Z</time></trkpt><trkpt lat="45.1266605" lon="7.9435759"><ele>207.0</ele><time>2026-04-12T11:09:43.679Z</time></trkpt><trkpt lat="45.1268149" lon="7.9435974"><ele>207.0</ele><time>2026-04-12T11:09:44.679Z</time></trkpt><trkpt lat="45.1269697" lon="7.9436217"><ele>207.0</ele><time>2026-04-12T11:09:45.679Z</time></trkpt><trkpt lat="45.1271215" lon="7.9436347"><ele>207.0</ele><time>2026-04-12T11:09:46.679Z</time></trkpt><trkpt lat="45.1272803" lon="7.9436577"><ele>207.0</ele><time>2026-04-12T11:09:47.679Z</time></trkpt><trkpt lat="45.1274318" lon="7.9436654"><ele>207.0</ele><time>2026-04-12T11:09:48.679Z</time></trkpt><trkpt lat="45.1275719" lon="7.9436786"><ele>207.25</ele><time>2026-04-12T11:09:49.679Z</time></trkpt><trkpt lat="45.1277064" lon="7.943668"><ele>207.5</ele><time>2026-04-12T11:09:50.679Z</time></trkpt><trkpt lat="45.1278351" lon="7.9436334"><ele>207.75</ele><time>2026-04-12T11:09:51.679Z</time></trkpt><trkpt lat="45.1279619" lon="7.9435756"><ele>208.0</ele><time>2026-04-12T11:09:52.679Z</time></trkpt><trkpt lat="45.1280909" lon="7.9435132"><ele>208.0</ele><time>2026-04-12T11:09:53.679Z</time></trkpt><trkpt lat="45.1282184" lon="7.9434428"><ele>208.0</ele><time>2026-04-12T11:09:54.679Z</time></trkpt><trkpt lat="45.1283437" lon="7.9433746"><ele>208.0</ele><time>2026-04-12T11:09:55.679Z</time></trkpt><trkpt lat="45.1284645" lon="7.9433117"><ele>208.0</ele><time>2026-04-12T11:09:56.679Z</time></trkpt><trkpt lat="45.1285845" lon="7.9432465"><ele>208.2</ele><time>2026-04-12T11:09:57.679Z</time></trkpt><trkpt lat="45.1286873" lon="7.9431746"><ele>208.4</ele><time>2026-04-12T11:09:58.679Z</time></trkpt><trkpt lat="45.1287949" lon="7.9431117"><ele>208.6</ele><time>2026-04-12T11:09:59.678Z</time></trkpt><trkpt lat="45.1288915" lon="7.943062"><ele>208.79999999999998</ele><time>2026-04-12T11:10:00.678Z</time></trkpt><trkpt lat="45.1289716" lon="7.9430122"><ele>209.0</ele><time>2026-04-12T11:10:01.679Z</time></trkpt><trkpt lat="45.1290503" lon="7.9429692"><ele>208.83333333333334</ele><time>2026-04-12T11:10:02.679Z</time></trkpt><trkpt lat="45.129115" lon="7.9429361"><ele>208.66666666666669</ele><time>2026-04-12T11:10:03.679Z</time></trkpt><trkpt lat="45.12918" lon="7.9429174"><ele>208.5</ele><time>2026-04-12T11:10:04.679Z</time></trkpt><trkpt lat="45.1292527" lon="7.9429757"><ele>208.33333333333331</ele><time>2026-04-12T11:10:06.679Z</time></trkpt><trkpt lat="45.1293144" lon="7.9431316"><ele>208.16666666666666</ele><time>2026-04-12T11:10:08.679Z</time></trkpt><trkpt lat="45.1292997" lon="7.943239"><ele>208.0</ele><time>2026-04-12T11:10:09.678Z</time></trkpt><trkpt lat="45.1292498" lon="7.9433176"><ele>208.0</ele><time>2026-04-12T11:10:10.679Z</time></trkpt><trkpt lat="45.1291995" lon="7.9434188"><ele>208.0</ele><time>2026-04-12T11:10:11.679Z</time></trkpt><trkpt lat="45.1291429" lon="7.9435242"><ele>208.0</ele><time>2026-04-12T11:10:12.679Z</time></trkpt><trkpt lat="45.1290989" lon="7.9436553"><ele>208.0</ele><time>2026-04-12T11:10:13.679Z</time></trkpt><trkpt lat="45.1290488" lon="7.943792"><ele>208.0</ele><time>2026-04-12T11:10:14.679Z</time></trkpt><trkpt lat="45.1289995" lon="7.943948"><ele>208.0</ele><time>2026-04-12T11:10:15.679Z</time></trkpt><trkpt lat="45.1289478" lon="7.9441047"><ele>208.0</ele><time>2026-04-12T11:10:16.679Z</time></trkpt><trkpt lat="45.128897" lon="7.9442707"><ele>208.0</ele><time>2026-04-12T11:10:17.679Z</time></trkpt><trkpt lat="45.1288432" lon="7.9444436"><ele>208.0</ele><time>2026-04-12T11:10:18.679Z</time></trkpt><trkpt lat="45.1287921" lon="7.9446107"><ele>207.75</ele><time>2026-04-12T11:10:19.678Z</time></trkpt><trkpt lat="45.1287433" lon="7.9447893"><ele>207.5</ele><time>2026-04-12T11:10:20.678Z</time></trkpt><trkpt lat="45.1286995" lon="7.9449577"><ele>207.25</ele><time>2026-04-12T11:10:21.679Z</time></trkpt><trkpt lat="45.1286568" lon="7.945107"><ele>207.0</ele><time>2026-04-12T11:10:22.678Z</time></trkpt><trkpt lat="45.1286289" lon="7.9452485"><ele>206.8</ele><time>2026-04-12T11:10:23.679Z</time></trkpt><trkpt lat="45.1286146" lon="7.9453889"><ele>206.6</ele><time>2026-04-12T11:10:24.679Z</time></trkpt><trkpt lat="45.1286326" lon="7.9455562"><ele>206.4</ele><time>2026-04-12T11:10:25.679Z</time></trkpt><trkpt lat="45.1286601" lon="7.9457094"><ele>206.20000000000002</ele><time>2026-04-12T11:10:26.679Z</time></trkpt><trkpt lat="45.1286886" lon="7.9458669"><ele>206.0</ele><time>2026-04-12T11:10:27.679Z</time></trkpt><trkpt lat="45.1287169" lon="7.9460319"><ele>205.75</ele><time>2026-04-12T11:10:28.679Z</time></trkpt><trkpt lat="45.1287515" lon="7.946212"><ele>205.5</ele><time>2026-04-12T11:10:29.679Z</time></trkpt><trkpt lat="45.1287842" lon="7.9463963"><ele>205.25</ele><time>2026-04-12T11:10:30.679Z</time></trkpt><trkpt lat="45.1288203" lon="7.9465807"><ele>205.0</ele><time>2026-04-12T11:10:31.679Z</time></trkpt><trkpt lat="45.1288616" lon="7.9467773"><ele>205.75</ele><time>2026-04-12T11:10:32.679Z</time></trkpt><trkpt lat="45.1288983" lon="7.9469629"><ele>206.5</ele><time>2026-04-12T11:10:33.679Z</time></trkpt><trkpt lat="45.1289345" lon="7.9471496"><ele>207.25</ele><time>2026-04-12T11:10:34.679Z</time></trkpt><trkpt lat="45.1289697" lon="7.9473415"><ele>208.0</ele><time>2026-04-12T11:10:35.679Z</time></trkpt><trkpt lat="45.1290054" lon="7.9475362"><ele>207.5</ele><time>2026-04-12T11:10:36.679Z</time></trkpt><trkpt lat="45.1290488" lon="7.9477285"><ele>207.0</ele><time>2026-04-12T11:10:37.679Z</time></trkpt><trkpt lat="45.1291027" lon="7.9479229"><ele>206.5</ele><time>2026-04-12T11:10:38.679Z</time></trkpt><trkpt lat="45.1291773" lon="7.9481045"><ele>206.0</ele><time>2026-04-12T11:10:39.679Z</time></trkpt><trkpt lat="45.1292637" lon="7.9482715"><ele>205.33333333333334</ele><time>2026-04-12T11:10:40.679Z</time></trkpt><trkpt lat="45.1293532" lon="7.9484445"><ele>204.66666666666669</ele><time>2026-04-12T11:10:41.679Z</time></trkpt><trkpt lat="45.1294473" lon="7.9486164"><ele>204.0</ele><time>2026-04-12T11:10:42.678Z</time></trkpt><trkpt lat="45.1295483" lon="7.9487893"><ele>204.0</ele><time>2026-04-12T11:10:43.679Z</time></trkpt><trkpt lat="45.1296497" lon="7.9489647"><ele>204.0</ele><time>2026-04-12T11:10:44.679Z</time></trkpt><trkpt lat="45.1297485" lon="7.9491501"><ele>204.0</ele><time>2026-04-12T11:10:45.678Z</time></trkpt><trkpt lat="45.129839" lon="7.9493281"><ele>205.66666666666669</ele><time>2026-04-12T11:10:46.679Z</time></trkpt><trkpt lat="45.1299165" lon="7.9495253"><ele>207.33333333333334</ele><time>2026-04-12T11:10:47.679Z</time></trkpt><trkpt lat="45.129985" lon="7.949727"><ele>209.0</ele><time>2026-04-12T11:10:48.679Z</time></trkpt><trkpt lat="45.1300415" lon="7.9499409"><ele>210.75</ele><time>2026-04-12T11:10:49.679Z</time></trkpt><trkpt lat="45.1300557" lon="7.9501311"><ele>212.5</ele><time>2026-04-12T11:10:50.679Z</time></trkpt><trkpt lat="45.130046" lon="7.9503329"><ele>214.25</ele><time>2026-04-12T11:10:51.679Z</time></trkpt><trkpt lat="45.1300079" lon="7.9505387"><ele>216.0</ele><time>2026-04-12T11:10:52.679Z</time></trkpt><trkpt lat="45.1299687" lon="7.9507557"><ele>218.0</ele><time>2026-04-12T11:10:53.679Z</time></trkpt><trkpt lat="45.1299352" lon="7.9509625"><ele>220.0</ele><time>2026-04-12T11:10:54.679Z</time></trkpt><trkpt lat="45.1299255" lon="7.9511827"><ele>222.0</ele><time>2026-04-12T11:10:55.679Z</time></trkpt><trkpt lat="45.1299333" lon="7.9514051"><ele>222.0</ele><time>2026-04-12T11:10:56.679Z</time></trkpt><trkpt lat="45.129952" lon="7.9516221"><ele>222.0</ele><time>2026-04-12T11:10:57.679Z</time></trkpt><trkpt lat="45.1299841" lon="7.951838"><ele>222.0</ele><time>2026-04-12T11:10:58.679Z</time></trkpt><trkpt lat="45.1300331" lon="7.9520582"><ele>221.66666666666669</ele><time>2026-04-12T11:10:59.679Z</time></trkpt><trkpt lat="45.1300875" lon="7.9522718"><ele>221.33333333333334</ele><time>2026-04-12T11:11:00.679Z</time></trkpt><trkpt lat="45.1301589" lon="7.9524917"><ele>221.0</ele><time>2026-04-12T11:11:01.679Z</time></trkpt><trkpt lat="45.1302316" lon="7.9527084"><ele>220.0</ele><time>2026-04-12T11:11:02.679Z</time></trkpt><trkpt lat="45.1302876" lon="7.9529302"><ele>219.0</ele><time>2026-04-12T11:11:03.679Z</time></trkpt><trkpt lat="45.1303297" lon="7.9531534"><ele>218.0</ele><time>2026-04-12T11:11:04.679Z</time></trkpt><trkpt lat="45.1303753" lon="7.9533893"><ele>216.66666666666669</ele><time>2026-04-12T11:11:05.679Z</time></trkpt><trkpt lat="45.130407" lon="7.9536096"><ele>215.33333333333331</ele><time>2026-04-12T11:11:06.679Z</time></trkpt><trkpt lat="45.13045" lon="7.9538226"><ele>214.0</ele><time>2026-04-12T11:11:07.678Z</time></trkpt><trkpt lat="45.1305191" lon="7.9540197"><ele>214.0</ele><time>2026-04-12T11:11:08.678Z</time></trkpt><trkpt lat="45.1305905" lon="7.9541909"><ele>214.0</ele><time>2026-04-12T11:11:09.679Z</time></trkpt><trkpt lat="45.1306435" lon="7.9543486"><ele>214.0</ele><time>2026-04-12T11:11:10.679Z</time></trkpt><trkpt lat="45.1306606" lon="7.9545007"><ele>214.0</ele><time>2026-04-12T11:11:11.678Z</time></trkpt><trkpt lat="45.130653" lon="7.9546692"><ele>213.79999999999998</ele><time>2026-04-12T11:11:12.679Z</time></trkpt><trkpt lat="45.1306604" lon="7.9548328"><ele>213.59999999999997</ele><time>2026-04-12T11:11:13.679Z</time></trkpt><trkpt lat="45.1306669" lon="7.9549815"><ele>213.4</ele><time>2026-04-12T11:11:14.679Z</time></trkpt><trkpt lat="45.130656" lon="7.9551333"><ele>213.2</ele><time>2026-04-12T11:11:15.679Z</time></trkpt><trkpt lat="45.1306123" lon="7.9552694"><ele>213.0</ele><time>2026-04-12T11:11:16.679Z</time></trkpt><trkpt lat="45.1305403" lon="7.9553845"><ele>212.8</ele><time>2026-04-12T11:11:17.679Z</time></trkpt><trkpt lat="45.1304425" lon="7.9554768"><ele>212.60000000000002</ele><time>2026-04-12T11:11:18.678Z</time></trkpt><trkpt lat="45.1303557" lon="7.9555619"><ele>212.39999999999998</ele><time>2026-04-12T11:11:19.679Z</time></trkpt><trkpt lat="45.1302864" lon="7.9556803"><ele>212.2</ele><time>2026-04-12T11:11:20.679Z</time></trkpt><trkpt lat="45.1302533" lon="7.9558369"><ele>212.0</ele><time>2026-04-12T11:11:21.679Z</time></trkpt><trkpt lat="45.130255" lon="7.9560085"><ele>212.0</ele><time>2026-04-12T11:11:22.679Z</time></trkpt><trkpt lat="45.1302739" lon="7.9561942"><ele>212.0</ele><time>2026-04-12T11:11:23.679Z</time></trkpt><trkpt lat="45.130298" lon="7.9563986"><ele>212.0</ele><time>2026-04-12T11:11:24.679Z</time></trkpt><trkpt lat="45.1303266" lon="7.9566222"><ele>212.0</ele><time>2026-04-12T11:11:25.679Z</time></trkpt><trkpt lat="45.1303579" lon="7.9568538"><ele>213.33333333333334</ele><time>2026-04-12T11:11:26.678Z</time></trkpt><trkpt lat="45.1303956" lon="7.9570949"><ele>214.66666666666669</ele><time>2026-04-12T11:11:27.678Z</time></trkpt><trkpt lat="45.1304329" lon="7.9573276"><ele>216.0</ele><time>2026-04-12T11:11:28.679Z</time></trkpt><trkpt lat="45.1304724" lon="7.9575647"><ele>217.0</ele><time>2026-04-12T11:11:29.679Z</time></trkpt><trkpt lat="45.1305162" lon="7.9577833"><ele>218.0</ele><time>2026-04-12T11:11:30.679Z</time></trkpt><trkpt lat="45.1305363" lon="7.9580098"><ele>219.0</ele><time>2026-04-12T11:11:31.679Z</time></trkpt><trkpt lat="45.1305325" lon="7.9582432"><ele>221.0</ele><time>2026-04-12T11:11:32.679Z</time></trkpt><trkpt lat="45.130502" lon="7.9584619"><ele>223.0</ele><time>2026-04-12T11:11:33.679Z</time></trkpt><trkpt lat="45.1304681" lon="7.9586815"><ele>225.0</ele><time>2026-04-12T11:11:34.679Z</time></trkpt><trkpt lat="45.1304492" lon="7.9589167"><ele>225.0</ele><time>2026-04-12T11:11:35.679Z</time></trkpt><trkpt lat="45.1304505" lon="7.9591607"><ele>225.0</ele><time>2026-04-12T11:11:36.679Z</time></trkpt><trkpt lat="45.1304554" lon="7.9593857"><ele>225.0</ele><time>2026-04-12T11:11:37.679Z</time></trkpt><trkpt lat="45.1304646" lon="7.9596124"><ele>227.0</ele><time>2026-04-12T11:11:38.679Z</time></trkpt><trkpt lat="45.1304561" lon="7.9598324"><ele>229.0</ele><time>2026-04-12T11:11:39.679Z</time></trkpt><trkpt lat="45.1304393" lon="7.9600497"><ele>231.0</ele><time>2026-04-12T11:11:40.679Z</time></trkpt><trkpt lat="45.1304177" lon="7.9602688"><ele>232.0</ele><time>2026-04-12T11:11:41.679Z</time></trkpt><trkpt lat="45.1303983" lon="7.9604867"><ele>233.0</ele><time>2026-04-12T11:11:42.679Z</time></trkpt><trkpt lat="45.1303905" lon="7.9606938"><ele>234.0</ele><time>2026-04-12T11:11:43.679Z</time></trkpt><trkpt lat="45.1303844" lon="7.9608923"><ele>235.0</ele><time>2026-04-12T11:11:44.679Z</time></trkpt><trkpt lat="45.130395" lon="7.961088"><ele>235.75</ele><time>2026-04-12T11:11:45.679Z</time></trkpt><trkpt lat="45.130437" lon="7.9612748"><ele>236.5</ele><time>2026-04-12T11:11:46.678Z</time></trkpt><trkpt lat="45.1304694" lon="7.9614399"><ele>237.25</ele><time>2026-04-12T11:11:47.678Z</time></trkpt><trkpt lat="45.1305429" lon="7.9616655"><ele>238.0</ele><time>2026-04-12T11:11:48.679Z</time></trkpt><trkpt lat="45.1306048" lon="7.961877"><ele>239.33333333333331</ele><time>2026-04-12T11:11:49.679Z</time></trkpt><trkpt lat="45.1306617" lon="7.9620761"><ele>240.66666666666669</ele><time>2026-04-12T11:11:50.679Z</time></trkpt><trkpt lat="45.1307263" lon="7.9622828"><ele>242.0</ele><time>2026-04-12T11:11:51.679Z</time></trkpt><trkpt lat="45.1307895" lon="7.9624832"><ele>246.75</ele><time>2026-04-12T11:11:52.679Z</time></trkpt><trkpt lat="45.1308508" lon="7.9626696"><ele>251.5</ele><time>2026-04-12T11:11:53.679Z</time></trkpt><trkpt lat="45.1309122" lon="7.9628497"><ele>256.25</ele><time>2026-04-12T11:11:54.679Z</time></trkpt><trkpt lat="45.1309573" lon="7.9630369"><ele>261.0</ele><time>2026-04-12T11:11:55.679Z</time></trkpt><trkpt lat="45.1309636" lon="7.9632173"><ele>262.5</ele><time>2026-04-12T11:11:56.679Z</time></trkpt><trkpt lat="45.1309715" lon="7.9634237"><ele>264.0</ele><time>2026-04-12T11:11:57.679Z</time></trkpt><trkpt lat="45.1309677" lon="7.9636151"><ele>265.5</ele><time>2026-04-12T11:11:58.679Z</time></trkpt><trkpt lat="45.1308768" lon="7.9637777"><ele>267.0</ele><time>2026-04-12T11:11:59.679Z</time></trkpt><trkpt lat="45.1308377" lon="7.9639867"><ele>267.0</ele><time>2026-04-12T11:12:00.679Z</time></trkpt><trkpt lat="45.1307906" lon="7.9641883"><ele>267.0</ele><time>2026-04-12T11:12:01.679Z</time></trkpt><trkpt lat="45.1307326" lon="7.9644017"><ele>267.0</ele><time>2026-04-12T11:12:02.679Z</time></trkpt><trkpt lat="45.1306861" lon="7.9646159"><ele>267.0</ele><time>2026-04-12T11:12:03.679Z</time></trkpt><trkpt lat="45.1306352" lon="7.9648217"><ele>267.0</ele><time>2026-04-12T11:12:04.679Z</time></trkpt><trkpt lat="45.1305787" lon="7.9650328"><ele>267.0</ele><time>2026-04-12T11:12:05.679Z</time></trkpt><trkpt lat="45.1305297" lon="7.9652533"><ele>270.0</ele><time>2026-04-12T11:12:06.678Z</time></trkpt><trkpt lat="45.1304764" lon="7.9654663"><ele>273.0</ele><time>2026-04-12T11:12:07.678Z</time></trkpt><trkpt lat="45.1304266" lon="7.9656814"><ele>276.0</ele><time>2026-04-12T11:12:08.678Z</time></trkpt><trkpt lat="45.1303825" lon="7.9659128"><ele>280.0</ele><time>2026-04-12T11:12:09.679Z</time></trkpt><trkpt lat="45.1303429" lon="7.9661337"><ele>284.0</ele><time>2026-04-12T11:12:10.679Z</time></trkpt><trkpt lat="45.130302" lon="7.9663587"><ele>288.0</ele><time>2026-04-12T11:12:11.679Z</time></trkpt><trkpt lat="45.1302788" lon="7.9665753"><ele>291.6666666666667</ele><time>2026-04-12T11:12:12.679Z</time></trkpt><trkpt lat="45.1302752" lon="7.9668023"><ele>295.33333333333337</ele><time>2026-04-12T11:12:13.679Z</time></trkpt><trkpt lat="45.1302732" lon="7.967026"><ele>299.0</ele><time>2026-04-12T11:12:14.679Z</time></trkpt><trkpt lat="45.1302765" lon="7.9672488"><ele>299.0</ele><time>2026-04-12T11:12:15.679Z</time></trkpt><trkpt lat="45.1302764" lon="7.9674682"><ele>299.0</ele><time>2026-04-12T11:12:16.678Z</time></trkpt><trkpt lat="45.1302566" lon="7.967682"><ele>299.0</ele><time>2026-04-12T11:12:17.679Z</time></trkpt><trkpt lat="45.1301783" lon="7.967863"><ele>302.0</ele><time>2026-04-12T11:12:18.679Z</time></trkpt><trkpt lat="45.1301244" lon="7.9680843"><ele>305.0</ele><time>2026-04-12T11:12:19.678Z</time></trkpt><trkpt lat="45.130065" lon="7.9682874"><ele>308.0</ele><time>2026-04-12T11:12:20.679Z</time></trkpt><trkpt lat="45.130002" lon="7.9684708"><ele>308.33333333333337</ele><time>2026-04-12T11:12:21.679Z</time></trkpt><trkpt lat="45.1299447" lon="7.9686634"><ele>308.6666666666667</ele><time>2026-04-12T11:12:22.679Z</time></trkpt><trkpt lat="45.1298939" lon="7.9688691"><ele>309.0</ele><time>2026-04-12T11:12:23.679Z</time></trkpt><trkpt lat="45.1298379" lon="7.9690683"><ele>310.3333333333333</ele><time>2026-04-12T11:12:24.679Z</time></trkpt><trkpt lat="45.1298152" lon="7.9692766"><ele>311.66666666666663</ele><time>2026-04-12T11:12:25.679Z</time></trkpt><trkpt lat="45.1298288" lon="7.9695091"><ele>313.0</ele><time>2026-04-12T11:12:26.679Z</time></trkpt><trkpt lat="45.1298441" lon="7.9697109"><ele>314.5</ele><time>2026-04-12T11:12:27.679Z</time></trkpt><trkpt lat="45.1298924" lon="7.9699105"><ele>316.0</ele><time>2026-04-12T11:12:28.679Z</time></trkpt><trkpt lat="45.1299199" lon="7.9700806"><ele>317.5</ele><time>2026-04-12T11:12:29.679Z</time></trkpt><trkpt lat="45.1299433" lon="7.9702327"><ele>319.0</ele><time>2026-04-12T11:12:30.679Z</time></trkpt><trkpt lat="45.1299585" lon="7.9703943"><ele>318.2</ele><time>2026-04-12T11:12:31.679Z</time></trkpt><trkpt lat="45.1299547" lon="7.970559"><ele>317.4</ele><time>2026-04-12T11:12:32.678Z</time></trkpt><trkpt lat="45.1298854" lon="7.9706606"><ele>316.6</ele><time>2026-04-12T11:12:33.679Z</time></trkpt><trkpt lat="45.1298354" lon="7.9707839"><ele>315.8</ele><time>2026-04-12T11:12:34.679Z</time></trkpt><trkpt lat="45.1297906" lon="7.9709262"><ele>315.0</ele><time>2026-04-12T11:12:35.679Z</time></trkpt><trkpt lat="45.1297658" lon="7.9710662"><ele>317.0</ele><time>2026-04-12T11:12:36.679Z</time></trkpt><trkpt lat="45.1297426" lon="7.9712249"><ele>319.0</ele><time>2026-04-12T11:12:37.679Z</time></trkpt><trkpt lat="45.129731" lon="7.9713877"><ele>321.0</ele><time>2026-04-12T11:12:38.679Z</time></trkpt><trkpt lat="45.1297193" lon="7.9715432"><ele>323.0</ele><time>2026-04-12T11:12:39.679Z</time></trkpt><trkpt lat="45.1297423" lon="7.9716915"><ele>325.0</ele><time>2026-04-12T11:12:40.678Z</time></trkpt><trkpt lat="45.129742" lon="7.9718193"><ele>329.0</ele><time>2026-04-12T11:12:41.679Z</time></trkpt><trkpt lat="45.1297129" lon="7.9719666"><ele>333.0</ele><time>2026-04-12T11:12:42.679Z</time></trkpt><trkpt lat="45.1296564" lon="7.9721097"><ele>337.0</ele><time>2026-04-12T11:12:43.679Z</time></trkpt><trkpt lat="45.1295807" lon="7.9722625"><ele>341.0</ele><time>2026-04-12T11:12:44.679Z</time></trkpt><trkpt lat="45.1295108" lon="7.9724218"><ele>345.0</ele><time>2026-04-12T11:12:45.679Z</time></trkpt><trkpt lat="45.1294324" lon="7.9725786"><ele>349.0</ele><time>2026-04-12T11:12:46.678Z</time></trkpt><trkpt lat="45.1293568" lon="7.9727296"><ele>353.0</ele><time>2026-04-12T11:12:47.679Z</time></trkpt><trkpt lat="45.1292867" lon="7.9728519"><ele>357.0</ele><time>2026-04-12T11:12:48.679Z</time></trkpt><trkpt lat="45.1292206" lon="7.9729679"><ele>357.0</ele><time>2026-04-12T11:12:49.679Z</time></trkpt><trkpt lat="45.1291498" lon="7.9730534"><ele>357.0</ele><time>2026-04-12T11:12:50.679Z</time></trkpt><trkpt lat="45.1290553" lon="7.9730809"><ele>357.0</ele><time>2026-04-12T11:12:51.679Z</time></trkpt><trkpt lat="45.1289594" lon="7.9730942"><ele>357.0</ele><time>2026-04-12T11:12:52.679Z</time></trkpt><trkpt lat="45.128862" lon="7.9730958"><ele>357.0</ele><time>2026-04-12T11:12:53.679Z</time></trkpt><trkpt lat="45.1287732" lon="7.9731185"><ele>354.8</ele><time>2026-04-12T11:12:54.679Z</time></trkpt><trkpt lat="45.1286947" lon="7.9732067"><ele>352.6</ele><time>2026-04-12T11:12:55.679Z</time></trkpt><trkpt lat="45.1286305" lon="7.9732763"><ele>350.40000000000003</ele><time>2026-04-12T11:12:56.679Z</time></trkpt><trkpt lat="45.1285781" lon="7.9733922"><ele>348.20000000000005</ele><time>2026-04-12T11:12:57.679Z</time></trkpt><trkpt lat="45.1285453" lon="7.9735558"><ele>346.0</ele><time>2026-04-12T11:12:58.679Z</time></trkpt><trkpt lat="45.1285418" lon="7.9737162"><ele>346.0</ele><time>2026-04-12T11:12:59.679Z</time></trkpt><trkpt lat="45.1285855" lon="7.9739483"><ele>346.0</ele><time>2026-04-12T11:13:00.679Z</time></trkpt><trkpt lat="45.1285862" lon="7.9741241"><ele>346.0</ele><time>2026-04-12T11:13:01.679Z</time></trkpt><trkpt lat="45.1285547" lon="7.9742856"><ele>346.0</ele><time>2026-04-12T11:13:02.679Z</time></trkpt><trkpt lat="45.1284941" lon="7.9744282"><ele>347.8</ele><time>2026-04-12T11:13:03.679Z</time></trkpt><trkpt lat="45.1284484" lon="7.9745686"><ele>349.6</ele><time>2026-04-12T11:13:04.679Z</time></trkpt><trkpt lat="45.1284346" lon="7.9747209"><ele>351.4</ele><time>2026-04-12T11:13:05.679Z</time></trkpt><trkpt lat="45.1284266" lon="7.9748732"><ele>353.2</ele><time>2026-04-12T11:13:06.679Z</time></trkpt><trkpt lat="45.1284815" lon="7.9750241"><ele>355.0</ele><time>2026-04-12T11:13:07.679Z</time></trkpt><trkpt lat="45.1285411" lon="7.9751758"><ele>356.6</ele><time>2026-04-12T11:13:08.679Z</time></trkpt><trkpt lat="45.1286191" lon="7.9752622"><ele>358.2</ele><time>2026-04-12T11:13:09.679Z</time></trkpt><trkpt lat="45.1286877" lon="7.9753445"><ele>359.79999999999995</ele><time>2026-04-12T11:13:10.679Z</time></trkpt><trkpt lat="45.1287439" lon="7.9754374"><ele>361.4</ele><time>2026-04-12T11:13:11.679Z</time></trkpt><trkpt lat="45.1287651" lon="7.9755645"><ele>363.0</ele><time>2026-04-12T11:13:12.679Z</time></trkpt><trkpt lat="45.1287618" lon="7.9757006"><ele>363.0</ele><time>2026-04-12T11:13:13.679Z</time></trkpt><trkpt lat="45.1287016" lon="7.9758067"><ele>363.0</ele><time>2026-04-12T11:13:14.679Z</time></trkpt><trkpt lat="45.128636" lon="7.9759123"><ele>363.0</ele><time>2026-04-12T11:13:15.679Z</time></trkpt><trkpt lat="45.1285791" lon="7.9760307"><ele>363.0</ele><time>2026-04-12T11:13:16.679Z</time></trkpt><trkpt lat="45.1285208" lon="7.9761568"><ele>363.0</ele><time>2026-04-12T11:13:17.679Z</time></trkpt><trkpt lat="45.1284345" lon="7.9762632"><ele>367.25</ele><time>2026-04-12T11:13:18.679Z</time></trkpt><trkpt lat="45.1283198" lon="7.9763216"><ele>371.5</ele><time>2026-04-12T11:13:19.679Z</time></trkpt><trkpt lat="45.1281868" lon="7.9763228"><ele>375.75</ele><time>2026-04-12T11:13:20.679Z</time></trkpt><trkpt lat="45.1280644" lon="7.9762893"><ele>380.0</ele><time>2026-04-12T11:13:21.679Z</time></trkpt><trkpt lat="45.1279515" lon="7.9762829"><ele>380.0</ele><time>2026-04-12T11:13:22.679Z</time></trkpt><trkpt lat="45.1278461" lon="7.9763097"><ele>380.0</ele><time>2026-04-12T11:13:23.678Z</time></trkpt><trkpt lat="45.127757" lon="7.9763882"><ele>380.0</ele><time>2026-04-12T11:13:24.679Z</time></trkpt><trkpt lat="45.1276667" lon="7.9764805"><ele>380.0</ele><time>2026-04-12T11:13:25.679Z</time></trkpt><trkpt lat="45.1275589" lon="7.9765522"><ele>380.0</ele><time>2026-04-12T11:13:26.679Z</time></trkpt><trkpt lat="45.1274548" lon="7.9765441"><ele>375.6666666666667</ele><time>2026-04-12T11:13:27.679Z</time></trkpt><trkpt lat="45.1273652" lon="7.9765251"><ele>371.33333333333337</ele><time>2026-04-12T11:13:28.679Z</time></trkpt><trkpt lat="45.1272831" lon="7.9765418"><ele>367.0</ele><time>2026-04-12T11:13:29.679Z</time></trkpt><trkpt lat="45.127212" lon="7.9765854"><ele>362.6666666666667</ele><time>2026-04-12T11:13:30.679Z</time></trkpt><trkpt lat="45.1271546" lon="7.9766426"><ele>358.3333333333333</ele><time>2026-04-12T11:13:31.679Z</time></trkpt><trkpt lat="45.1271322" lon="7.9767335"><ele>354.0</ele><time>2026-04-12T11:13:32.679Z</time></trkpt><trkpt lat="45.1271307" lon="7.9768407"><ele>352.6666666666667</ele><time>2026-04-12T11:13:33.679Z</time></trkpt><trkpt lat="45.1271391" lon="7.9770059"><ele>351.33333333333337</ele><time>2026-04-12T11:13:34.679Z</time></trkpt><trkpt lat="45.1272192" lon="7.9772612"><ele>350.0</ele><time>2026-04-12T11:13:35.679Z</time></trkpt><trkpt lat="45.1272405" lon="7.9774532"><ele>352.5</ele><time>2026-04-12T11:13:36.679Z</time></trkpt><trkpt lat="45.1272229" lon="7.9776443"><ele>355.0</ele><time>2026-04-12T11:13:37.679Z</time></trkpt><trkpt lat="45.1271775" lon="7.9778421"><ele>357.5</ele><time>2026-04-12T11:13:38.679Z</time></trkpt><trkpt lat="45.1271845" lon="7.9780371"><ele>360.0</ele><time>2026-04-12T11:13:39.679Z</time></trkpt><trkpt lat="45.1271908" lon="7.9782403"><ele>363.5</ele><time>2026-04-12T11:13:40.679Z</time></trkpt><trkpt lat="45.1272053" lon="7.9784368"><ele>367.0</ele><time>2026-04-12T11:13:41.678Z</time></trkpt><trkpt lat="45.1272031" lon="7.9786437"><ele>370.5</ele><time>2026-04-12T11:13:42.678Z</time></trkpt><trkpt lat="45.1272065" lon="7.9788266"><ele>374.0</ele><time>2026-04-12T11:13:43.679Z</time></trkpt><trkpt lat="45.1271571" lon="7.9789896"><ele>374.0</ele><time>2026-04-12T11:13:44.679Z</time></trkpt><trkpt lat="45.1271" lon="7.9791445"><ele>374.0</ele><time>2026-04-12T11:13:45.679Z</time></trkpt><trkpt lat="45.1270296" lon="7.9792893"><ele>374.0</ele><time>2026-04-12T11:13:46.679Z</time></trkpt><trkpt lat="45.1269039" lon="7.9793179"><ele>374.0</ele><time>2026-04-12T11:13:47.679Z</time></trkpt><trkpt lat="45.1267912" lon="7.9793452"><ele>372.75</ele><time>2026-04-12T11:13:48.679Z</time></trkpt><trkpt lat="45.1266517" lon="7.9792811"><ele>371.5</ele><time>2026-04-12T11:13:49.679Z</time></trkpt><trkpt lat="45.1265192" lon="7.9792239"><ele>370.25</ele><time>2026-04-12T11:13:50.679Z</time></trkpt><trkpt lat="45.1263755" lon="7.979159"><ele>369.0</ele><time>2026-04-12T11:13:51.679Z</time></trkpt><trkpt lat="45.1262245" lon="7.9791102"><ele>371.5</ele><time>2026-04-12T11:13:52.679Z</time></trkpt><trkpt lat="45.12608" lon="7.9790749"><ele>374.0</ele><time>2026-04-12T11:13:53.679Z</time></trkpt><trkpt lat="45.1259321" lon="7.9790775"><ele>376.5</ele><time>2026-04-12T11:13:54.679Z</time></trkpt><trkpt lat="45.1257831" lon="7.9790942"><ele>379.0</ele><time>2026-04-12T11:13:55.679Z</time></trkpt><trkpt lat="45.1256146" lon="7.9791417"><ele>382.25</ele><time>2026-04-12T11:13:56.679Z</time></trkpt><trkpt lat="45.1254656" lon="7.9791795"><ele>385.5</ele><time>2026-04-12T11:13:57.679Z</time></trkpt><trkpt lat="45.1253185" lon="7.9792044"><ele>388.75</ele><time>2026-04-12T11:13:58.679Z</time></trkpt><trkpt lat="45.1251843" lon="7.9792589"><ele>392.0</ele><time>2026-04-12T11:13:59.679Z</time></trkpt><trkpt lat="45.1250437" lon="7.9793071"><ele>394.3333333333333</ele><time>2026-04-12T11:14:00.679Z</time></trkpt><trkpt lat="45.1249063" lon="7.9794103"><ele>396.66666666666663</ele><time>2026-04-12T11:14:01.679Z</time></trkpt><trkpt lat="45.1247601" lon="7.9795086"><ele>399.0</ele><time>2026-04-12T11:14:02.679Z</time></trkpt><trkpt lat="45.1246203" lon="7.9795797"><ele>399.25</ele><time>2026-04-12T11:14:03.679Z</time></trkpt><trkpt lat="45.1244956" lon="7.9796422"><ele>399.5</ele><time>2026-04-12T11:14:04.679Z</time></trkpt><trkpt lat="45.1243852" lon="7.9797287"><ele>399.75</ele><time>2026-04-12T11:14:05.679Z</time></trkpt><trkpt lat="45.1242849" lon="7.9798733"><ele>400.0</ele><time>2026-04-12T11:14:06.679Z</time></trkpt><trkpt lat="45.1241683" lon="7.9800245"><ele>399.6666666666667</ele><time>2026-04-12T11:14:07.679Z</time></trkpt><trkpt lat="45.1240353" lon="7.9801504"><ele>399.33333333333337</ele><time>2026-04-12T11:14:08.679Z</time></trkpt><trkpt lat="45.1238972" lon="7.980287"><ele>399.0</ele><time>2026-04-12T11:14:09.679Z</time></trkpt><trkpt lat="45.123745" lon="7.9803733"><ele>399.0</ele><time>2026-04-12T11:14:10.679Z</time></trkpt><trkpt lat="45.1235826" lon="7.9804556"><ele>399.0</ele><time>2026-04-12T11:14:11.679Z</time></trkpt><trkpt lat="45.1234374" lon="7.9805319"><ele>399.0</ele><time>2026-04-12T11:14:12.679Z</time></trkpt><trkpt lat="45.1232888" lon="7.9805882"><ele>394.33333333333337</ele><time>2026-04-12T11:14:13.679Z</time></trkpt><trkpt lat="45.1231505" lon="7.9806503"><ele>389.6666666666667</ele><time>2026-04-12T11:14:14.679Z</time></trkpt><trkpt lat="45.1230205" lon="7.9807375"><ele>385.0</ele><time>2026-04-12T11:14:15.678Z</time></trkpt><trkpt lat="45.1228673" lon="7.980829"><ele>387.0</ele><time>2026-04-12T11:14:16.679Z</time></trkpt><trkpt lat="45.122749" lon="7.9809338"><ele>389.0</ele><time>2026-04-12T11:14:17.679Z</time></trkpt><trkpt lat="45.1226278" lon="7.98104"><ele>391.0</ele><time>2026-04-12T11:14:18.679Z</time></trkpt><trkpt lat="45.1225209" lon="7.9811327"><ele>393.0</ele><time>2026-04-12T11:14:19.678Z</time></trkpt><trkpt lat="45.1224281" lon="7.9812186"><ele>391.0</ele><time>2026-04-12T11:14:20.679Z</time></trkpt><trkpt lat="45.1223539" lon="7.9813015"><ele>389.0</ele><time>2026-04-12T11:14:21.679Z</time></trkpt><trkpt lat="45.1222936" lon="7.981402"><ele>387.0</ele><time>2026-04-12T11:14:22.678Z</time></trkpt><trkpt lat="45.1222477" lon="7.9815137"><ele>385.0</ele><time>2026-04-12T11:14:23.679Z</time></trkpt><trkpt lat="45.1222008" lon="7.9816519"><ele>383.0</ele><time>2026-04-12T11:14:24.679Z</time></trkpt><trkpt lat="45.1221547" lon="7.9818071"><ele>383.0</ele><time>2026-04-12T11:14:25.679Z</time></trkpt><trkpt lat="45.1221126" lon="7.9819707"><ele>383.0</ele><time>2026-04-12T11:14:26.679Z</time></trkpt><trkpt lat="45.1220554" lon="7.9821438"><ele>383.0</ele><time>2026-04-12T11:14:27.679Z</time></trkpt><trkpt lat="45.1219986" lon="7.9823054"><ele>383.0</ele><time>2026-04-12T11:14:28.679Z</time></trkpt><trkpt lat="45.1219162" lon="7.9824405"><ele>381.25</ele><time>2026-04-12T11:14:29.679Z</time></trkpt><trkpt lat="45.1218255" lon="7.9825394"><ele>379.5</ele><time>2026-04-12T11:14:30.679Z</time></trkpt><trkpt lat="45.1217154" lon="7.9826529"><ele>377.75</ele><time>2026-04-12T11:14:31.678Z</time></trkpt><trkpt lat="45.1215931" lon="7.982728"><ele>376.0</ele><time>2026-04-12T11:14:32.679Z</time></trkpt><trkpt lat="45.1214693" lon="7.9827932"><ele>380.75</ele><time>2026-04-12T11:14:33.679Z</time></trkpt><trkpt lat="45.1213321" lon="7.9828195"><ele>385.5</ele><time>2026-04-12T11:14:34.679Z</time></trkpt><trkpt lat="45.1211945" lon="7.9828203"><ele>390.25</ele><time>2026-04-12T11:14:35.679Z</time></trkpt><trkpt lat="45.1210615" lon="7.9827999"><ele>395.0</ele><time>2026-04-12T11:14:36.679Z</time></trkpt><trkpt lat="45.1209209" lon="7.9827654"><ele>395.0</ele><time>2026-04-12T11:14:37.679Z</time></trkpt><trkpt lat="45.1207847" lon="7.9827343"><ele>395.0</ele><time>2026-04-12T11:14:38.679Z</time></trkpt><trkpt lat="45.1206511" lon="7.982717"><ele>395.0</ele><time>2026-04-12T11:14:39.679Z</time></trkpt><trkpt lat="45.120522" lon="7.9827461"><ele>395.0</ele><time>2026-04-12T11:14:40.679Z</time></trkpt><trkpt lat="45.1204108" lon="7.9828312"><ele>397.5</ele><time>2026-04-12T11:14:41.679Z</time></trkpt><trkpt lat="45.1202882" lon="7.9828978"><ele>400.0</ele><time>2026-04-12T11:14:42.679Z</time></trkpt><trkpt lat="45.1201674" lon="7.9829991"><ele>402.5</ele><time>2026-04-12T11:14:43.679Z</time></trkpt><trkpt lat="45.1200611" lon="7.9831467"><ele>405.0</ele><time>2026-04-12T11:14:44.679Z</time></trkpt><trkpt lat="45.1199632" lon="7.983275"><ele>407.0</ele><time>2026-04-12T11:14:45.679Z</time></trkpt><trkpt lat="45.1198932" lon="7.9834611"><ele>409.0</ele><time>2026-04-12T11:14:46.679Z</time></trkpt><trkpt lat="45.1198238" lon="7.9836361"><ele>411.0</ele><time>2026-04-12T11:14:47.679Z</time></trkpt><trkpt lat="45.1197581" lon="7.9837997"><ele>413.0</ele><time>2026-04-12T11:14:48.679Z</time></trkpt><trkpt lat="45.1196992" lon="7.9839671"><ele>413.0</ele><time>2026-04-12T11:14:49.679Z</time></trkpt><trkpt lat="45.1196413" lon="7.9841348"><ele>413.0</ele><time>2026-04-12T11:14:50.679Z</time></trkpt><trkpt lat="45.1195792" lon="7.9842682"><ele>413.0</ele><time>2026-04-12T11:14:51.679Z</time></trkpt><trkpt lat="45.1195255" lon="7.9843185"><ele>413.0</ele><time>2026-04-12T11:14:52.679Z</time></trkpt><trkpt lat="45.1194487" lon="7.9844532"><ele>413.0</ele><time>2026-04-12T11:14:54.679Z</time></trkpt><trkpt lat="45.1193978" lon="7.9845528"><ele>416.0</ele><time>2026-04-12T11:14:55.679Z</time></trkpt><trkpt lat="45.1193594" lon="7.984654"><ele>419.0</ele><time>2026-04-12T11:14:56.679Z</time></trkpt><trkpt lat="45.1193152" lon="7.9847757"><ele>421.99999999999994</ele><time>2026-04-12T11:14:57.679Z</time></trkpt><trkpt lat="45.1192632" lon="7.9849124"><ele>425.0</ele><time>2026-04-12T11:14:58.679Z</time></trkpt><trkpt lat="45.1191991" lon="7.9850587"><ele>428.0</ele><time>2026-04-12T11:14:59.679Z</time></trkpt><trkpt lat="45.1191573" lon="7.9851977"><ele>428.5</ele><time>2026-04-12T11:15:00.679Z</time></trkpt><trkpt lat="45.1191063" lon="7.9853322"><ele>429.0</ele><time>2026-04-12T11:15:01.679Z</time></trkpt><trkpt lat="45.1190683" lon="7.9854841"><ele>429.5</ele><time>2026-04-12T11:15:02.679Z</time></trkpt><trkpt lat="45.1190805" lon="7.985651"><ele>430.0</ele><time>2026-04-12T11:15:03.679Z</time></trkpt><trkpt lat="45.1191086" lon="7.9858107"><ele>433.0</ele><time>2026-04-12T11:15:04.679Z</time></trkpt><trkpt lat="45.1192145" lon="7.9859902"><ele>436.0</ele><time>2026-04-12T11:15:05.676Z</time></trkpt><trkpt lat="45.1192879" lon="7.9861607"><ele>439.0</ele><time>2026-04-12T11:15:06.677Z</time></trkpt><trkpt lat="45.1193304" lon="7.9863047"><ele>442.0</ele><time>2026-04-12T11:15:07.678Z</time></trkpt><trkpt lat="45.1193823" lon="7.9864616"><ele>442.0</ele><time>2026-04-12T11:15:08.678Z</time></trkpt><trkpt lat="45.1194511" lon="7.9865821"><ele>442.00000000000006</ele><time>2026-04-12T11:15:09.676Z</time></trkpt><trkpt lat="45.1194861" lon="7.9866902"><ele>442.00000000000006</ele><time>2026-04-12T11:15:10.677Z</time></trkpt><trkpt lat="45.1195176" lon="7.9868"><ele>442.0</ele><time>2026-04-12T11:15:11.677Z</time></trkpt><trkpt lat="45.1195426" lon="7.9869328"><ele>442.0</ele><time>2026-04-12T11:15:12.677Z</time></trkpt><trkpt lat="45.1195277" lon="7.9870876"><ele>442.8</ele><time>2026-04-12T11:15:13.676Z</time></trkpt><trkpt lat="45.1194992" lon="7.9872184"><ele>443.6</ele><time>2026-04-12T11:15:14.676Z</time></trkpt><trkpt lat="45.119444" lon="7.9873056"><ele>444.40000000000003</ele><time>2026-04-12T11:15:15.677Z</time></trkpt><trkpt lat="45.1194062" lon="7.9873985"><ele>445.20000000000005</ele><time>2026-04-12T11:15:16.677Z</time></trkpt><trkpt lat="45.1192996" lon="7.9874215"><ele>446.0</ele><time>2026-04-12T11:15:17.677Z</time></trkpt><trkpt lat="45.1192686" lon="7.9876029"><ele>447.20000000000005</ele><time>2026-04-12T11:15:19.677Z</time></trkpt><trkpt lat="45.1192497" lon="7.9877023"><ele>448.40000000000003</ele><time>2026-04-12T11:15:20.677Z</time></trkpt><trkpt lat="45.1192863" lon="7.9878786"><ele>449.6</ele><time>2026-04-12T11:15:21.677Z</time></trkpt><trkpt lat="45.1193168" lon="7.9880597"><ele>450.8</ele><time>2026-04-12T11:15:22.677Z</time></trkpt><trkpt lat="45.1193184" lon="7.9882167"><ele>452.0</ele><time>2026-04-12T11:15:23.677Z</time></trkpt><trkpt lat="45.1193596" lon="7.988402"><ele>456.75</ele><time>2026-04-12T11:15:24.676Z</time></trkpt><trkpt lat="45.1194024" lon="7.988566"><ele>461.5</ele><time>2026-04-12T11:15:25.677Z</time></trkpt><trkpt lat="45.1194912" lon="7.9887227"><ele>466.25</ele><time>2026-04-12T11:15:26.676Z</time></trkpt><trkpt lat="45.1195812" lon="7.9888473"><ele>471.0</ele><time>2026-04-12T11:15:27.677Z</time></trkpt><trkpt lat="45.1196605" lon="7.988958"><ele>471.0</ele><time>2026-04-12T11:15:28.677Z</time></trkpt><trkpt lat="45.119742" lon="7.9890704"><ele>471.0</ele><time>2026-04-12T11:15:29.677Z</time></trkpt><trkpt lat="45.1198166" lon="7.9892097"><ele>471.0</ele><time>2026-04-12T11:15:30.677Z</time></trkpt><trkpt lat="45.1198768" lon="7.9893415"><ele>471.0</ele><time>2026-04-12T11:15:31.677Z</time></trkpt><trkpt lat="45.119953" lon="7.989469"><ele>469.25</ele><time>2026-04-12T11:15:32.677Z</time></trkpt><trkpt lat="45.1200364" lon="7.9895974"><ele>467.5</ele><time>2026-04-12T11:15:33.677Z</time></trkpt><trkpt lat="45.1201385" lon="7.9897233"><ele>465.75</ele><time>2026-04-12T11:15:34.677Z</time></trkpt><trkpt lat="45.1202037" lon="7.9898517"><ele>464.0</ele><time>2026-04-12T11:15:35.677Z</time></trkpt><trkpt lat="45.120253" lon="7.9899412"><ele>466.2</ele><time>2026-04-12T11:15:36.676Z</time></trkpt><trkpt lat="45.1203112" lon="7.9900401"><ele>468.4</ele><time>2026-04-12T11:15:37.677Z</time></trkpt><trkpt lat="45.1203789" lon="7.9901209"><ele>470.6</ele><time>2026-04-12T11:15:38.677Z</time></trkpt><trkpt lat="45.1204918" lon="7.9901729"><ele>472.8</ele><time>2026-04-12T11:15:39.677Z</time></trkpt><trkpt lat="45.1205815" lon="7.9902028"><ele>475.0</ele><time>2026-04-12T11:15:40.677Z</time></trkpt><trkpt lat="45.1206826" lon="7.9902439"><ele>470.0</ele><time>2026-04-12T11:15:41.677Z</time></trkpt><trkpt lat="45.120764" lon="7.9903035"><ele>465.0</ele><time>2026-04-12T11:15:42.677Z</time></trkpt><trkpt lat="45.120828" lon="7.9903493"><ele>460.0</ele><time>2026-04-12T11:15:43.677Z</time></trkpt><trkpt lat="45.1208829" lon="7.9904705"><ele>455.0</ele><time>2026-04-12T11:15:45.676Z</time></trkpt><trkpt lat="45.120851" lon="7.9905624"><ele>450.0</ele><time>2026-04-12T11:15:46.677Z</time></trkpt><trkpt lat="45.1207755" lon="7.9908175"><ele>450.5</ele><time>2026-04-12T11:15:48.676Z</time></trkpt><trkpt lat="45.1207551" lon="7.9909445"><ele>451.0</ele><time>2026-04-12T11:15:49.677Z</time></trkpt><trkpt lat="45.1206844" lon="7.9911114"><ele>451.5</ele><time>2026-04-12T11:15:50.677Z</time></trkpt><trkpt lat="45.1206339" lon="7.9912804"><ele>452.0</ele><time>2026-04-12T11:15:51.677Z</time></trkpt><trkpt lat="45.1205889" lon="7.9914515"><ele>451.75</ele><time>2026-04-12T11:15:52.677Z</time></trkpt><trkpt lat="45.1205755" lon="7.9916391"><ele>451.5</ele><time>2026-04-12T11:15:53.677Z</time></trkpt><trkpt lat="45.1205561" lon="7.991816"><ele>451.25</ele><time>2026-04-12T11:15:54.677Z</time></trkpt><trkpt lat="45.1205617" lon="7.9919855"><ele>451.0</ele><time>2026-04-12T11:15:55.677Z</time></trkpt><trkpt lat="45.1205738" lon="7.9921569"><ele>451.00000000000006</ele><time>2026-04-12T11:15:56.677Z</time></trkpt><trkpt lat="45.1205949" lon="7.9923235"><ele>451.0</ele><time>2026-04-12T11:15:57.677Z</time></trkpt><trkpt lat="45.1206087" lon="7.9924403"><ele>451.0</ele><time>2026-04-12T11:15:58.677Z</time></trkpt><trkpt lat="45.1206286" lon="7.9925353"><ele>451.0</ele><time>2026-04-12T11:15:59.677Z</time></trkpt><trkpt lat="45.1206573" lon="7.992631"><ele>451.00000000000006</ele><time>2026-04-12T11:16:00.677Z</time></trkpt><trkpt lat="45.1206762" lon="7.9927283"><ele>451.0</ele><time>2026-04-12T11:16:01.677Z</time></trkpt><trkpt lat="45.1207109" lon="7.9928408"><ele>454.4</ele><time>2026-04-12T11:16:02.677Z</time></trkpt><trkpt lat="45.1207409" lon="7.9929566"><ele>457.8</ele><time>2026-04-12T11:16:03.677Z</time></trkpt><trkpt lat="45.1207605" lon="7.993086"><ele>461.19999999999993</ele><time>2026-04-12T11:16:04.677Z</time></trkpt><trkpt lat="45.1207842" lon="7.9932208"><ele>464.59999999999997</ele><time>2026-04-12T11:16:05.677Z</time></trkpt><trkpt lat="45.1208103" lon="7.9933612"><ele>468.0</ele><time>2026-04-12T11:16:06.677Z</time></trkpt><trkpt lat="45.1208578" lon="7.993513"><ele>470.25</ele><time>2026-04-12T11:16:07.677Z</time></trkpt><trkpt lat="45.1209186" lon="7.9936475"><ele>472.5</ele><time>2026-04-12T11:16:08.677Z</time></trkpt><trkpt lat="45.1210072" lon="7.9937588"><ele>474.75</ele><time>2026-04-12T11:16:09.677Z</time></trkpt><trkpt lat="45.1211123" lon="7.99386"><ele>477.0</ele><time>2026-04-12T11:16:10.677Z</time></trkpt><trkpt lat="45.1212131" lon="7.993951"><ele>477.0</ele><time>2026-04-12T11:16:11.677Z</time></trkpt><trkpt lat="45.1213127" lon="7.9940539"><ele>477.0</ele><time>2026-04-12T11:16:12.677Z</time></trkpt><trkpt lat="45.1214078" lon="7.9941553"><ele>477.0</ele><time>2026-04-12T11:16:13.677Z</time></trkpt><trkpt lat="45.1214935" lon="7.994259"><ele>477.0</ele><time>2026-04-12T11:16:14.677Z</time></trkpt><trkpt lat="45.1215708" lon="7.9943539"><ele>473.6</ele><time>2026-04-12T11:16:15.677Z</time></trkpt><trkpt lat="45.1216366" lon="7.9944557"><ele>470.20000000000005</ele><time>2026-04-12T11:16:16.677Z</time></trkpt><trkpt lat="45.1217033" lon="7.9945544"><ele>466.8</ele><time>2026-04-12T11:16:17.677Z</time></trkpt><trkpt lat="45.1217728" lon="7.9946461"><ele>463.4</ele><time>2026-04-12T11:16:18.677Z</time></trkpt><trkpt lat="45.1218567" lon="7.9947329"><ele>460.0</ele><time>2026-04-12T11:16:19.677Z</time></trkpt><trkpt lat="45.1219518" lon="7.9948078"><ele>460.0</ele><time>2026-04-12T11:16:20.677Z</time></trkpt><trkpt lat="45.1220591" lon="7.9949047"><ele>460.0</ele><time>2026-04-12T11:16:21.676Z</time></trkpt><trkpt lat="45.122152" lon="7.994972"><ele>460.0</ele><time>2026-04-12T11:16:22.677Z</time></trkpt><trkpt lat="45.1222539" lon="7.995033"><ele>460.0</ele><time>2026-04-12T11:16:23.677Z</time></trkpt><trkpt lat="45.122365" lon="7.995088"><ele>456.75</ele><time>2026-04-12T11:16:24.676Z</time></trkpt><trkpt lat="45.1224926" lon="7.9951312"><ele>453.5</ele><time>2026-04-12T11:16:25.676Z</time></trkpt><trkpt lat="45.1226331" lon="7.9951607"><ele>450.25</ele><time>2026-04-12T11:16:26.677Z</time></trkpt><trkpt lat="45.1227695" lon="7.9951807"><ele>447.0</ele><time>2026-04-12T11:16:27.677Z</time></trkpt><trkpt lat="45.1229014" lon="7.9951929"><ele>447.0</ele><time>2026-04-12T11:16:28.676Z</time></trkpt><trkpt lat="45.1230291" lon="7.995224"><ele>447.0</ele><time>2026-04-12T11:16:29.677Z</time></trkpt><trkpt lat="45.1231466" lon="7.9952781"><ele>447.0</ele><time>2026-04-12T11:16:30.677Z</time></trkpt><trkpt lat="45.1232487" lon="7.9953796"><ele>447.0</ele><time>2026-04-12T11:16:31.677Z</time></trkpt><trkpt lat="45.1233193" lon="7.9955033"><ele>450.75</ele><time>2026-04-12T11:16:32.677Z</time></trkpt><trkpt lat="45.1233548" lon="7.9956501"><ele>454.5</ele><time>2026-04-12T11:16:33.677Z</time></trkpt><trkpt lat="45.1233512" lon="7.9958201"><ele>458.25</ele><time>2026-04-12T11:16:34.677Z</time></trkpt><trkpt lat="45.1233241" lon="7.9959955"><ele>462.0</ele><time>2026-04-12T11:16:35.677Z</time></trkpt><trkpt lat="45.1232936" lon="7.9961843"><ele>462.5</ele><time>2026-04-12T11:16:36.677Z</time></trkpt><trkpt lat="45.1232501" lon="7.9963664"><ele>463.0</ele><time>2026-04-12T11:16:37.677Z</time></trkpt><trkpt lat="45.123207" lon="7.9965532"><ele>463.5</ele><time>2026-04-12T11:16:38.677Z</time></trkpt><trkpt lat="45.123171" lon="7.9967452"><ele>464.0</ele><time>2026-04-12T11:16:39.677Z</time></trkpt><trkpt lat="45.1231512" lon="7.9969211"><ele>457.75</ele><time>2026-04-12T11:16:40.677Z</time></trkpt><trkpt lat="45.1231295" lon="7.997107"><ele>451.5</ele><time>2026-04-12T11:16:41.677Z</time></trkpt><trkpt lat="45.1231149" lon="7.9972796"><ele>445.25</ele><time>2026-04-12T11:16:42.676Z</time></trkpt><trkpt lat="45.1230909" lon="7.99744"><ele>439.0</ele><time>2026-04-12T11:16:43.677Z</time></trkpt><trkpt lat="45.1230558" lon="7.9975788"><ele>439.0</ele><time>2026-04-12T11:16:44.677Z</time></trkpt><trkpt lat="45.123006" lon="7.9976925"><ele>439.0</ele><time>2026-04-12T11:16:45.677Z</time></trkpt><trkpt lat="45.1229452" lon="7.9977793"><ele>439.0</ele><time>2026-04-12T11:16:46.677Z</time></trkpt><trkpt lat="45.1228508" lon="7.9978442"><ele>439.0</ele><time>2026-04-12T11:16:47.677Z</time></trkpt><trkpt lat="45.1227465" lon="7.9979036"><ele>439.0</ele><time>2026-04-12T11:16:48.676Z</time></trkpt><trkpt lat="45.1226281" lon="7.997987"><ele>439.0</ele><time>2026-04-12T11:16:49.676Z</time></trkpt><trkpt lat="45.1225143" lon="7.9980847"><ele>439.0</ele><time>2026-04-12T11:16:50.677Z</time></trkpt><trkpt lat="45.1223932" lon="7.9981852"><ele>439.0</ele><time>2026-04-12T11:16:51.677Z</time></trkpt><trkpt lat="45.1222717" lon="7.9983012"><ele>439.0</ele><time>2026-04-12T11:16:52.677Z</time></trkpt><trkpt lat="45.1221542" lon="7.9984297"><ele>436.5</ele><time>2026-04-12T11:16:53.677Z</time></trkpt><trkpt lat="45.1220427" lon="7.9985563"><ele>434.0</ele><time>2026-04-12T11:16:54.677Z</time></trkpt><trkpt lat="45.1219403" lon="7.9987088"><ele>431.5</ele><time>2026-04-12T11:16:55.677Z</time></trkpt><trkpt lat="45.1218394" lon="7.9988468"><ele>429.0</ele><time>2026-04-12T11:16:56.677Z</time></trkpt><trkpt lat="45.1217444" lon="7.9989781"><ele>429.0</ele><time>2026-04-12T11:16:57.677Z</time></trkpt><trkpt lat="45.1216588" lon="7.9991043"><ele>429.0</ele><time>2026-04-12T11:16:58.677Z</time></trkpt><trkpt lat="45.1215915" lon="7.9992385"><ele>429.0</ele><time>2026-04-12T11:16:59.677Z</time></trkpt><trkpt lat="45.1215439" lon="7.9993745"><ele>429.0</ele><time>2026-04-12T11:17:00.676Z</time></trkpt><trkpt lat="45.1215306" lon="7.9995401"><ele>426.0</ele><time>2026-04-12T11:17:01.677Z</time></trkpt><trkpt lat="45.1215314" lon="7.9997245"><ele>423.0</ele><time>2026-04-12T11:17:02.677Z</time></trkpt><trkpt lat="45.1215274" lon="7.9999026"><ele>420.0</ele><time>2026-04-12T11:17:03.677Z</time></trkpt><trkpt lat="45.1215075" lon="8.000074"><ele>417.0</ele><time>2026-04-12T11:17:04.677Z</time></trkpt><trkpt lat="45.1214638" lon="8.000242"><ele>417.0</ele><time>2026-04-12T11:17:05.677Z</time></trkpt><trkpt lat="45.12138" lon="8.0003794"><ele>417.0</ele><time>2026-04-12T11:17:06.677Z</time></trkpt><trkpt lat="45.1212826" lon="8.0005143"><ele>417.0</ele><time>2026-04-12T11:17:07.677Z</time></trkpt><trkpt lat="45.1211811" lon="8.0006494"><ele>417.0</ele><time>2026-04-12T11:17:08.677Z</time></trkpt><trkpt lat="45.1210701" lon="8.0007493"><ele>417.0</ele><time>2026-04-12T11:17:09.677Z</time></trkpt><trkpt lat="45.1209398" lon="8.0008114"><ele>417.0</ele><time>2026-04-12T11:17:10.677Z</time></trkpt><trkpt lat="45.1208054" lon="8.0008639"><ele>417.0</ele><time>2026-04-12T11:17:11.677Z</time></trkpt><trkpt lat="45.1206717" lon="8.0009385"><ele>417.0</ele><time>2026-04-12T11:17:12.676Z</time></trkpt><trkpt lat="45.1205402" lon="8.001032"><ele>418.25</ele><time>2026-04-12T11:17:13.677Z</time></trkpt><trkpt lat="45.120414" lon="8.0011235"><ele>419.5</ele><time>2026-04-12T11:17:14.677Z</time></trkpt><trkpt lat="45.1202911" lon="8.0012278"><ele>420.75</ele><time>2026-04-12T11:17:15.677Z</time></trkpt><trkpt lat="45.1201691" lon="8.001315"><ele>422.0</ele><time>2026-04-12T11:17:16.677Z</time></trkpt><trkpt lat="45.1200451" lon="8.001407"><ele>422.0</ele><time>2026-04-12T11:17:17.676Z</time></trkpt><trkpt lat="45.1199255" lon="8.0015156"><ele>422.0</ele><time>2026-04-12T11:17:18.676Z</time></trkpt><trkpt lat="45.119801" lon="8.0016138"><ele>422.0</ele><time>2026-04-12T11:17:19.677Z</time></trkpt><trkpt lat="45.1196843" lon="8.0017174"><ele>422.0</ele><time>2026-04-12T11:17:20.677Z</time></trkpt><trkpt lat="45.1195777" lon="8.0018209"><ele>423.5</ele><time>2026-04-12T11:17:21.677Z</time></trkpt><trkpt lat="45.1194687" lon="8.001907"><ele>425.0</ele><time>2026-04-12T11:17:22.677Z</time></trkpt><trkpt lat="45.1193468" lon="8.0019712"><ele>426.5</ele><time>2026-04-12T11:17:23.677Z</time></trkpt><trkpt lat="45.1192252" lon="8.0020042"><ele>428.0</ele><time>2026-04-12T11:17:24.677Z</time></trkpt><trkpt lat="45.1191011" lon="8.0020189"><ele>429.75</ele><time>2026-04-12T11:17:25.677Z</time></trkpt><trkpt lat="45.1189731" lon="8.0020357"><ele>431.5</ele><time>2026-04-12T11:17:26.677Z</time></trkpt><trkpt lat="45.1188535" lon="8.0020696"><ele>433.25</ele><time>2026-04-12T11:17:27.677Z</time></trkpt><trkpt lat="45.1187259" lon="8.002132"><ele>435.0</ele><time>2026-04-12T11:17:28.677Z</time></trkpt><trkpt lat="45.1186107" lon="8.0021925"><ele>435.0</ele><time>2026-04-12T11:17:29.677Z</time></trkpt><trkpt lat="45.1185071" lon="8.0022396"><ele>435.0</ele><time>2026-04-12T11:17:30.677Z</time></trkpt><trkpt lat="45.118406" lon="8.0022654"><ele>435.0</ele><time>2026-04-12T11:17:31.677Z</time></trkpt><trkpt lat="45.1183035" lon="8.0022805"><ele>435.0</ele><time>2026-04-12T11:17:32.677Z</time></trkpt><trkpt lat="45.1181894" lon="8.0022857"><ele>435.0</ele><time>2026-04-12T11:17:33.677Z</time></trkpt><trkpt lat="45.1180721" lon="8.0022772"><ele>438.5</ele><time>2026-04-12T11:17:34.677Z</time></trkpt><trkpt lat="45.117955" lon="8.0022582"><ele>442.0</ele><time>2026-04-12T11:17:35.677Z</time></trkpt><trkpt lat="45.1178379" lon="8.0022432"><ele>445.5</ele><time>2026-04-12T11:17:36.677Z</time></trkpt><trkpt lat="45.1177155" lon="8.0022572"><ele>449.0</ele><time>2026-04-12T11:17:37.677Z</time></trkpt><trkpt lat="45.1175966" lon="8.0022974"><ele>449.0</ele><time>2026-04-12T11:17:38.677Z</time></trkpt><trkpt lat="45.1174857" lon="8.0023686"><ele>449.0</ele><time>2026-04-12T11:17:39.677Z</time></trkpt><trkpt lat="45.1173786" lon="8.0024341"><ele>449.0</ele><time>2026-04-12T11:17:40.677Z</time></trkpt><trkpt lat="45.1172921" lon="8.0024946"><ele>449.0</ele><time>2026-04-12T11:17:41.677Z</time></trkpt><trkpt lat="45.1172095" lon="8.0025305"><ele>449.0</ele><time>2026-04-12T11:17:42.677Z</time></trkpt><trkpt lat="45.1171328" lon="8.0025766"><ele>446.66666666666663</ele><time>2026-04-12T11:17:43.677Z</time></trkpt><trkpt lat="45.1170669" lon="8.0026499"><ele>444.3333333333333</ele><time>2026-04-12T11:17:44.677Z</time></trkpt><trkpt lat="45.1170124" lon="8.0027468"><ele>442.0</ele><time>2026-04-12T11:17:45.677Z</time></trkpt><trkpt lat="45.1169766" lon="8.0028592"><ele>439.66666666666663</ele><time>2026-04-12T11:17:46.677Z</time></trkpt><trkpt lat="45.1169364" lon="8.0029465"><ele>437.3333333333333</ele><time>2026-04-12T11:17:47.676Z</time></trkpt><trkpt lat="45.1168934" lon="8.0030446"><ele>435.0</ele><time>2026-04-12T11:17:48.677Z</time></trkpt><trkpt lat="45.1168449" lon="8.0031391"><ele>435.0</ele><time>2026-04-12T11:17:49.677Z</time></trkpt><trkpt lat="45.1167814" lon="8.0032442"><ele>435.0</ele><time>2026-04-12T11:17:50.676Z</time></trkpt><trkpt lat="45.1167175" lon="8.0033468"><ele>435.0</ele><time>2026-04-12T11:17:51.677Z</time></trkpt><trkpt lat="45.1166551" lon="8.0034529"><ele>435.0</ele><time>2026-04-12T11:17:52.677Z</time></trkpt><trkpt lat="45.1165928" lon="8.0035534"><ele>435.0</ele><time>2026-04-12T11:17:53.677Z</time></trkpt><trkpt lat="45.1165284" lon="8.0036519"><ele>432.6</ele><time>2026-04-12T11:17:54.677Z</time></trkpt><trkpt lat="45.1164418" lon="8.0037483"><ele>430.2</ele><time>2026-04-12T11:17:55.677Z</time></trkpt><trkpt lat="45.1163598" lon="8.003826"><ele>427.79999999999995</ele><time>2026-04-12T11:17:56.677Z</time></trkpt><trkpt lat="45.1162799" lon="8.0038924"><ele>425.4</ele><time>2026-04-12T11:17:57.677Z</time></trkpt><trkpt lat="45.1162073" lon="8.0039485"><ele>423.0</ele><time>2026-04-12T11:17:58.677Z</time></trkpt><trkpt lat="45.116111" lon="8.0040497"><ele>423.0</ele><time>2026-04-12T11:18:00.677Z</time></trkpt><trkpt lat="45.116087" lon="8.0041377"><ele>423.0</ele><time>2026-04-12T11:18:01.676Z</time></trkpt><trkpt lat="45.1160757" lon="8.0042312"><ele>423.0</ele><time>2026-04-12T11:18:02.677Z</time></trkpt><trkpt lat="45.11607" lon="8.0043531"><ele>423.0</ele><time>2026-04-12T11:18:03.676Z</time></trkpt><trkpt lat="45.1160632" lon="8.0044616"><ele>423.0</ele><time>2026-04-12T11:18:04.677Z</time></trkpt><trkpt lat="45.1160722" lon="8.0045792"><ele>423.0</ele><time>2026-04-12T11:18:05.677Z</time></trkpt><trkpt lat="45.1161029" lon="8.0046913"><ele>426.59999999999997</ele><time>2026-04-12T11:18:06.677Z</time></trkpt><trkpt lat="45.116154" lon="8.0047904"><ele>430.2</ele><time>2026-04-12T11:18:07.677Z</time></trkpt><trkpt lat="45.1162234" lon="8.0048831"><ele>433.8</ele><time>2026-04-12T11:18:08.677Z</time></trkpt><trkpt lat="45.116292" lon="8.0049804"><ele>437.4</ele><time>2026-04-12T11:18:09.677Z</time></trkpt><trkpt lat="45.116367" lon="8.0050775"><ele>441.0</ele><time>2026-04-12T11:18:10.676Z</time></trkpt><trkpt lat="45.1164394" lon="8.0051728"><ele>444.4</ele><time>2026-04-12T11:18:11.677Z</time></trkpt><trkpt lat="45.1165119" lon="8.0052659"><ele>447.8</ele><time>2026-04-12T11:18:12.677Z</time></trkpt><trkpt lat="45.116593" lon="8.005331"><ele>451.19999999999993</ele><time>2026-04-12T11:18:13.677Z</time></trkpt><trkpt lat="45.1166793" lon="8.0053773"><ele>454.59999999999997</ele><time>2026-04-12T11:18:14.677Z</time></trkpt><trkpt lat="45.1167641" lon="8.0054062"><ele>458.0</ele><time>2026-04-12T11:18:15.677Z</time></trkpt><trkpt lat="45.1168483" lon="8.0054354"><ele>454.3333333333333</ele><time>2026-04-12T11:18:16.677Z</time></trkpt><trkpt lat="45.1169247" lon="8.0054606"><ele>450.66666666666663</ele><time>2026-04-12T11:18:17.677Z</time></trkpt><trkpt lat="45.1170102" lon="8.0055436"><ele>447.0</ele><time>2026-04-12T11:18:18.677Z</time></trkpt><trkpt lat="45.1170745" lon="8.0055979"><ele>443.33333333333337</ele><time>2026-04-12T11:18:19.677Z</time></trkpt><trkpt lat="45.1171278" lon="8.0056656"><ele>439.6666666666667</ele><time>2026-04-12T11:18:20.677Z</time></trkpt><trkpt lat="45.117166" lon="8.0057457"><ele>436.0</ele><time>2026-04-12T11:18:21.677Z</time></trkpt><trkpt lat="45.1171927" lon="8.0058483"><ele>436.0</ele><time>2026-04-12T11:18:22.677Z</time></trkpt><trkpt lat="45.1172179" lon="8.0059564"><ele>436.0</ele><time>2026-04-12T11:18:23.677Z</time></trkpt><trkpt lat="45.1171895" lon="8.0060684"><ele>436.0</ele><time>2026-04-12T11:18:24.677Z</time></trkpt><trkpt lat="45.1171289" lon="8.0061506"><ele>436.0</ele><time>2026-04-12T11:18:25.677Z</time></trkpt><trkpt lat="45.1170597" lon="8.0062426"><ele>436.0</ele><time>2026-04-12T11:18:26.677Z</time></trkpt><trkpt lat="45.116965" lon="8.006314"><ele>436.0</ele><time>2026-04-12T11:18:27.677Z</time></trkpt><trkpt lat="45.1168874" lon="8.006387"><ele>436.0</ele><time>2026-04-12T11:18:28.677Z</time></trkpt><trkpt lat="45.1168017" lon="8.006458"><ele>436.0</ele><time>2026-04-12T11:18:29.677Z</time></trkpt><trkpt lat="45.116731" lon="8.0065775"><ele>436.0</ele><time>2026-04-12T11:18:30.677Z</time></trkpt><trkpt lat="45.1166752" lon="8.0067007"><ele>436.0</ele><time>2026-04-12T11:18:31.677Z</time></trkpt><trkpt lat="45.116632" lon="8.0068198"><ele>435.0</ele><time>2026-04-12T11:18:32.676Z</time></trkpt><trkpt lat="45.116606" lon="8.0069889"><ele>434.0</ele><time>2026-04-12T11:18:33.677Z</time></trkpt><trkpt lat="45.1166054" lon="8.0071658"><ele>433.0</ele><time>2026-04-12T11:18:34.677Z</time></trkpt><trkpt lat="45.1166203" lon="8.007327"><ele>432.0</ele><time>2026-04-12T11:18:35.677Z</time></trkpt><trkpt lat="45.1166486" lon="8.0074976"><ele>431.0</ele><time>2026-04-12T11:18:36.677Z</time></trkpt><trkpt lat="45.1166657" lon="8.0076585"><ele>430.0</ele><time>2026-04-12T11:18:37.677Z</time></trkpt><trkpt lat="45.1166723" lon="8.0078319"><ele>429.0</ele><time>2026-04-12T11:18:38.677Z</time></trkpt><trkpt lat="45.1166751" lon="8.0080008"><ele>428.0</ele><time>2026-04-12T11:18:39.676Z</time></trkpt><trkpt lat="45.1166558" lon="8.0081806"><ele>428.0</ele><time>2026-04-12T11:18:40.677Z</time></trkpt><trkpt lat="45.1166273" lon="8.0083184"><ele>428.0</ele><time>2026-04-12T11:18:41.677Z</time></trkpt><trkpt lat="45.1165115" lon="8.0084405"><ele>428.0</ele><time>2026-04-12T11:18:42.677Z</time></trkpt><trkpt lat="45.1164601" lon="8.0085988"><ele>428.0</ele><time>2026-04-12T11:18:43.677Z</time></trkpt><trkpt lat="45.1164021" lon="8.0087498"><ele>431.75</ele><time>2026-04-12T11:18:44.677Z</time></trkpt><trkpt lat="45.1163533" lon="8.0088998"><ele>435.5</ele><time>2026-04-12T11:18:45.677Z</time></trkpt><trkpt lat="45.1162915" lon="8.0090531"><ele>439.25</ele><time>2026-04-12T11:18:46.677Z</time></trkpt><trkpt lat="45.1162354" lon="8.0092155"><ele>443.0</ele><time>2026-04-12T11:18:47.677Z</time></trkpt><trkpt lat="45.1161873" lon="8.0093799"><ele>443.0</ele><time>2026-04-12T11:18:48.677Z</time></trkpt><trkpt lat="45.1161463" lon="8.0095313"><ele>443.0</ele><time>2026-04-12T11:18:49.677Z</time></trkpt><trkpt lat="45.1161198" lon="8.009694"><ele>443.0</ele><time>2026-04-12T11:18:50.676Z</time></trkpt><trkpt lat="45.1160944" lon="8.0098581"><ele>443.0</ele><time>2026-04-12T11:18:51.676Z</time></trkpt><trkpt lat="45.1160988" lon="8.010027"><ele>440.5</ele><time>2026-04-12T11:18:52.677Z</time></trkpt><trkpt lat="45.1161145" lon="8.0101892"><ele>438.0</ele><time>2026-04-12T11:18:53.677Z</time></trkpt><trkpt lat="45.1161662" lon="8.0103169"><ele>435.5</ele><time>2026-04-12T11:18:54.677Z</time></trkpt><trkpt lat="45.1162421" lon="8.0104615"><ele>433.0</ele><time>2026-04-12T11:18:55.677Z</time></trkpt><trkpt lat="45.116319" lon="8.0105954"><ele>433.0</ele><time>2026-04-12T11:18:56.677Z</time></trkpt><trkpt lat="45.1163865" lon="8.0107214"><ele>433.0</ele><time>2026-04-12T11:18:57.677Z</time></trkpt><trkpt lat="45.1164398" lon="8.0108636"><ele>433.0</ele><time>2026-04-12T11:18:58.677Z</time></trkpt><trkpt lat="45.1164847" lon="8.0110109"><ele>433.0</ele><time>2026-04-12T11:18:59.676Z</time></trkpt><trkpt lat="45.1164668" lon="8.0111954"><ele>434.0</ele><time>2026-04-12T11:19:00.677Z</time></trkpt><trkpt lat="45.1164794" lon="8.0113668"><ele>434.99999999999994</ele><time>2026-04-12T11:19:01.677Z</time></trkpt><trkpt lat="45.1164785" lon="8.0115394"><ele>435.99999999999994</ele><time>2026-04-12T11:19:02.677Z</time></trkpt><trkpt lat="45.1164937" lon="8.0116862"><ele>437.0</ele><time>2026-04-12T11:19:03.677Z</time></trkpt><trkpt lat="45.1165155" lon="8.0118114"><ele>438.0</ele><time>2026-04-12T11:19:04.677Z</time></trkpt><trkpt lat="45.1165417" lon="8.0119465"><ele>432.0</ele><time>2026-04-12T11:19:05.677Z</time></trkpt><trkpt lat="45.1165719" lon="8.0120756"><ele>426.0</ele><time>2026-04-12T11:19:06.677Z</time></trkpt><trkpt lat="45.1166071" lon="8.0121694"><ele>420.0</ele><time>2026-04-12T11:19:07.677Z</time></trkpt><trkpt lat="45.1166477" lon="8.0122598"><ele>414.0</ele><time>2026-04-12T11:19:08.676Z</time></trkpt><trkpt lat="45.1167186" lon="8.0123328"><ele>408.0</ele><time>2026-04-12T11:19:09.677Z</time></trkpt><trkpt lat="45.1167923" lon="8.0123972"><ele>402.0</ele><time>2026-04-12T11:19:10.677Z</time></trkpt><trkpt lat="45.1169044" lon="8.0124523"><ele>405.75</ele><time>2026-04-12T11:19:11.677Z</time></trkpt><trkpt lat="45.1170023" lon="8.0124922"><ele>409.5</ele><time>2026-04-12T11:19:12.677Z</time></trkpt><trkpt lat="45.1171254" lon="8.0125641"><ele>413.25</ele><time>2026-04-12T11:19:13.677Z</time></trkpt><trkpt lat="45.1172483" lon="8.0126147"><ele>417.0</ele><time>2026-04-12T11:19:14.677Z</time></trkpt><trkpt lat="45.1173745" lon="8.0126767"><ele>412.25</ele><time>2026-04-12T11:19:15.677Z</time></trkpt><trkpt lat="45.11752" lon="8.0127372"><ele>407.5</ele><time>2026-04-12T11:19:16.677Z</time></trkpt><trkpt lat="45.1176386" lon="8.012754"><ele>402.75</ele><time>2026-04-12T11:19:17.677Z</time></trkpt><trkpt lat="45.1177498" lon="8.0127879"><ele>398.0</ele><time>2026-04-12T11:19:18.677Z</time></trkpt><trkpt lat="45.1178459" lon="8.0128177"><ele>398.0</ele><time>2026-04-12T11:19:19.677Z</time></trkpt><trkpt lat="45.1179801" lon="8.0129252"><ele>398.0</ele><time>2026-04-12T11:19:20.677Z</time></trkpt><trkpt lat="45.1180539" lon="8.0129706"><ele>398.0</ele><time>2026-04-12T11:19:21.677Z</time></trkpt><trkpt lat="45.118123" lon="8.0130415"><ele>398.0</ele><time>2026-04-12T11:19:22.677Z</time></trkpt><trkpt lat="45.1182018" lon="8.0131234"><ele>398.0</ele><time>2026-04-12T11:19:23.677Z</time></trkpt><trkpt lat="45.1182847" lon="8.0131878"><ele>398.4</ele><time>2026-04-12T11:19:24.677Z</time></trkpt><trkpt lat="45.1183773" lon="8.0132428"><ele>398.79999999999995</ele><time>2026-04-12T11:19:25.677Z</time></trkpt><trkpt lat="45.1184677" lon="8.0132954"><ele>399.2</ele><time>2026-04-12T11:19:26.677Z</time></trkpt><trkpt lat="45.1185661" lon="8.013367"><ele>399.6</ele><time>2026-04-12T11:19:27.677Z</time></trkpt><trkpt lat="45.1186621" lon="8.0134679"><ele>400.0</ele><time>2026-04-12T11:19:28.677Z</time></trkpt><trkpt lat="45.1187323" lon="8.0135785"><ele>400.0</ele><time>2026-04-12T11:19:29.677Z</time></trkpt><trkpt lat="45.118804" lon="8.0136965"><ele>400.0</ele><time>2026-04-12T11:19:30.677Z</time></trkpt><trkpt lat="45.1188859" lon="8.0137872"><ele>400.0</ele><time>2026-04-12T11:19:31.677Z</time></trkpt><trkpt lat="45.1189851" lon="8.0138514"><ele>400.0</ele><time>2026-04-12T11:19:32.677Z</time></trkpt><trkpt lat="45.119087" lon="8.0139146"><ele>400.0</ele><time>2026-04-12T11:19:33.677Z</time></trkpt><trkpt lat="45.1191907" lon="8.0139992"><ele>399.25</ele><time>2026-04-12T11:19:34.677Z</time></trkpt><trkpt lat="45.1192921" lon="8.0140721"><ele>398.5</ele><time>2026-04-12T11:19:35.677Z</time></trkpt><trkpt lat="45.1193906" lon="8.0141625"><ele>397.75</ele><time>2026-04-12T11:19:36.677Z</time></trkpt><trkpt lat="45.1194998" lon="8.0142675"><ele>397.0</ele><time>2026-04-12T11:19:37.677Z</time></trkpt><trkpt lat="45.1195974" lon="8.0143654"><ele>397.0</ele><time>2026-04-12T11:19:38.677Z</time></trkpt><trkpt lat="45.1196998" lon="8.0144646"><ele>397.0</ele><time>2026-04-12T11:19:39.676Z</time></trkpt><trkpt lat="45.1198082" lon="8.0145674"><ele>397.0</ele><time>2026-04-12T11:19:40.677Z</time></trkpt><trkpt lat="45.1199282" lon="8.0146532"><ele>397.0</ele><time>2026-04-12T11:19:41.677Z</time></trkpt><trkpt lat="45.1200568" lon="8.0147445"><ele>399.0</ele><time>2026-04-12T11:19:42.676Z</time></trkpt><trkpt lat="45.1201707" lon="8.0148318"><ele>401.0</ele><time>2026-04-12T11:19:43.677Z</time></trkpt><trkpt lat="45.1202692" lon="8.014908"><ele>403.0</ele><time>2026-04-12T11:19:44.677Z</time></trkpt><trkpt lat="45.1203962" lon="8.0149525"><ele>405.0</ele><time>2026-04-12T11:19:45.677Z</time></trkpt><trkpt lat="45.1204927" lon="8.0150293"><ele>406.0</ele><time>2026-04-12T11:19:46.677Z</time></trkpt><trkpt lat="45.1205712" lon="8.0150647"><ele>407.0</ele><time>2026-04-12T11:19:47.676Z</time></trkpt><trkpt lat="45.1206443" lon="8.0151787"><ele>408.0</ele><time>2026-04-12T11:19:48.677Z</time></trkpt><trkpt lat="45.1207142" lon="8.0152602"><ele>409.0</ele><time>2026-04-12T11:19:49.677Z</time></trkpt><trkpt lat="45.1207939" lon="8.0153385"><ele>410.0</ele><time>2026-04-12T11:19:50.677Z</time></trkpt><trkpt lat="45.1208732" lon="8.015418"><ele>410.0</ele><time>2026-04-12T11:19:51.677Z</time></trkpt><trkpt lat="45.1209556" lon="8.015469"><ele>410.0</ele><time>2026-04-12T11:19:52.677Z</time></trkpt><trkpt lat="45.1210594" lon="8.0155259"><ele>410.0</ele><time>2026-04-12T11:19:53.677Z</time></trkpt><trkpt lat="45.1211736" lon="8.0155636"><ele>410.0</ele><time>2026-04-12T11:19:54.677Z</time></trkpt><trkpt lat="45.1212841" lon="8.015628"><ele>410.0</ele><time>2026-04-12T11:19:55.676Z</time></trkpt><trkpt lat="45.1213914" lon="8.015656"><ele>410.0</ele><time>2026-04-12T11:19:56.676Z</time></trkpt><trkpt lat="45.1215258" lon="8.0156765"><ele>410.0</ele><time>2026-04-12T11:19:57.677Z</time></trkpt><trkpt lat="45.1216556" lon="8.0156643"><ele>410.0</ele><time>2026-04-12T11:19:58.677Z</time></trkpt><trkpt lat="45.121791" lon="8.0156701"><ele>410.0</ele><time>2026-04-12T11:19:59.677Z</time></trkpt><trkpt lat="45.121925" lon="8.0156336"><ele>407.75</ele><time>2026-04-12T11:20:00.677Z</time></trkpt><trkpt lat="45.1220461" lon="8.0155982"><ele>405.5</ele><time>2026-04-12T11:20:01.676Z</time></trkpt><trkpt lat="45.1221782" lon="8.0155902"><ele>403.25</ele><time>2026-04-12T11:20:02.677Z</time></trkpt><trkpt lat="45.1222925" lon="8.0155509"><ele>401.0</ele><time>2026-04-12T11:20:03.677Z</time></trkpt><trkpt lat="45.1224016" lon="8.0154814"><ele>401.0</ele><time>2026-04-12T11:20:04.677Z</time></trkpt><trkpt lat="45.1225156" lon="8.0153974"><ele>401.0</ele><time>2026-04-12T11:20:05.677Z</time></trkpt><trkpt lat="45.1226146" lon="8.0153231"><ele>401.0</ele><time>2026-04-12T11:20:06.677Z</time></trkpt><trkpt lat="45.122728" lon="8.0152487"><ele>401.0</ele><time>2026-04-12T11:20:07.677Z</time></trkpt><trkpt lat="45.1228498" lon="8.0151816"><ele>401.0</ele><time>2026-04-12T11:20:08.676Z</time></trkpt><trkpt lat="45.1229682" lon="8.0151262"><ele>401.0</ele><time>2026-04-12T11:20:09.677Z</time></trkpt><trkpt lat="45.1230888" lon="8.0150604"><ele>401.0</ele><time>2026-04-12T11:20:10.677Z</time></trkpt><trkpt lat="45.1232093" lon="8.0150063"><ele>401.0</ele><time>2026-04-12T11:20:11.677Z</time></trkpt><trkpt lat="45.1233257" lon="8.0149327"><ele>401.25</ele><time>2026-04-12T11:20:12.677Z</time></trkpt><trkpt lat="45.1234491" lon="8.0148595"><ele>401.5</ele><time>2026-04-12T11:20:13.677Z</time></trkpt><trkpt lat="45.1235642" lon="8.0147657"><ele>401.75</ele><time>2026-04-12T11:20:14.677Z</time></trkpt><trkpt lat="45.1236702" lon="8.0146952"><ele>402.0</ele><time>2026-04-12T11:20:15.677Z</time></trkpt><trkpt lat="45.1237919" lon="8.0146423"><ele>402.0</ele><time>2026-04-12T11:20:16.677Z</time></trkpt><trkpt lat="45.1239194" lon="8.0146102"><ele>402.0</ele><time>2026-04-12T11:20:17.677Z</time></trkpt><trkpt lat="45.1240436" lon="8.0146073"><ele>402.0</ele><time>2026-04-12T11:20:18.677Z</time></trkpt><trkpt lat="45.1241538" lon="8.0146174"><ele>402.0</ele><time>2026-04-12T11:20:19.677Z</time></trkpt><trkpt lat="45.1242621" lon="8.0146187"><ele>402.0</ele><time>2026-04-12T11:20:20.677Z</time></trkpt><trkpt lat="45.1243767" lon="8.0146058"><ele>402.0</ele><time>2026-04-12T11:20:21.677Z</time></trkpt><trkpt lat="45.124495" lon="8.0145856"><ele>402.0</ele><time>2026-04-12T11:20:22.677Z</time></trkpt><trkpt lat="45.124612" lon="8.014539"><ele>402.0</ele><time>2026-04-12T11:20:23.677Z</time></trkpt><trkpt lat="45.1247262" lon="8.0144973"><ele>402.0</ele><time>2026-04-12T11:20:24.676Z</time></trkpt><trkpt lat="45.1248455" lon="8.014433"><ele>402.0</ele><time>2026-04-12T11:20:25.677Z</time></trkpt><trkpt lat="45.1249585" lon="8.0143762"><ele>402.0</ele><time>2026-04-12T11:20:26.677Z</time></trkpt><trkpt lat="45.1250753" lon="8.0143194"><ele>402.0</ele><time>2026-04-12T11:20:27.677Z</time></trkpt><trkpt lat="45.1251853" lon="8.014271"><ele>400.6</ele><time>2026-04-12T11:20:28.677Z</time></trkpt><trkpt lat="45.1252874" lon="8.0142213"><ele>399.20000000000005</ele><time>2026-04-12T11:20:29.677Z</time></trkpt><trkpt lat="45.1253828" lon="8.0141729"><ele>397.8</ele><time>2026-04-12T11:20:30.676Z</time></trkpt><trkpt lat="45.1254824" lon="8.0140936"><ele>396.4</ele><time>2026-04-12T11:20:31.677Z</time></trkpt><trkpt lat="45.1255827" lon="8.0139877"><ele>395.0</ele><time>2026-04-12T11:20:32.677Z</time></trkpt><trkpt lat="45.1256658" lon="8.0138777"><ele>397.4</ele><time>2026-04-12T11:20:33.677Z</time></trkpt><trkpt lat="45.1257354" lon="8.0137678"><ele>399.8</ele><time>2026-04-12T11:20:34.677Z</time></trkpt><trkpt lat="45.1258028" lon="8.0136631"><ele>402.20000000000005</ele><time>2026-04-12T11:20:35.677Z</time></trkpt><trkpt lat="45.1258894" lon="8.0135897"><ele>404.6</ele><time>2026-04-12T11:20:36.677Z</time></trkpt><trkpt lat="45.1259655" lon="8.0135296"><ele>407.0</ele><time>2026-04-12T11:20:37.677Z</time></trkpt><trkpt lat="45.126053" lon="8.0135014"><ele>407.0</ele><time>2026-04-12T11:20:38.677Z</time></trkpt><trkpt lat="45.1261462" lon="8.0134798"><ele>407.0</ele><time>2026-04-12T11:20:39.677Z</time></trkpt><trkpt lat="45.1262314" lon="8.0134634"><ele>407.0</ele><time>2026-04-12T11:20:40.677Z</time></trkpt><trkpt lat="45.1263305" lon="8.0134455"><ele>407.0</ele><time>2026-04-12T11:20:41.677Z</time></trkpt><trkpt lat="45.1264283" lon="8.0134183"><ele>407.0</ele><time>2026-04-12T11:20:42.677Z</time></trkpt><trkpt lat="45.126525" lon="8.0133699"><ele>402.8</ele><time>2026-04-12T11:20:43.677Z</time></trkpt><trkpt lat="45.1266204" lon="8.0132906"><ele>398.6</ele><time>2026-04-12T11:20:44.677Z</time></trkpt><trkpt lat="45.1267154" lon="8.0132142"><ele>394.40000000000003</ele><time>2026-04-12T11:20:45.677Z</time></trkpt><trkpt lat="45.1268065" lon="8.0131311"><ele>390.20000000000005</ele><time>2026-04-12T11:20:46.677Z</time></trkpt><trkpt lat="45.1269225" lon="8.013103"><ele>386.0</ele><time>2026-04-12T11:20:47.676Z</time></trkpt><trkpt lat="45.1270294" lon="8.0130334"><ele>386.0</ele><time>2026-04-12T11:20:48.677Z</time></trkpt><trkpt lat="45.1271359" lon="8.0129619"><ele>386.0</ele><time>2026-04-12T11:20:49.677Z</time></trkpt><trkpt lat="45.1272318" lon="8.0129033"><ele>386.0</ele><time>2026-04-12T11:20:50.677Z</time></trkpt><trkpt lat="45.1273241" lon="8.012841"><ele>386.0</ele><time>2026-04-12T11:20:51.677Z</time></trkpt><trkpt lat="45.1274121" lon="8.0127802"><ele>386.0</ele><time>2026-04-12T11:20:52.676Z</time></trkpt><trkpt lat="45.1274687" lon="8.0126983"><ele>385.99999999999994</ele><time>2026-04-12T11:20:53.677Z</time></trkpt><trkpt lat="45.1275101" lon="8.0126293"><ele>386.0</ele><time>2026-04-12T11:20:54.677Z</time></trkpt><trkpt lat="45.1275488" lon="8.0125518"><ele>386.0</ele><time>2026-04-12T11:20:55.677Z</time></trkpt><trkpt lat="45.1275672" lon="8.0124445"><ele>386.0</ele><time>2026-04-12T11:20:56.677Z</time></trkpt><trkpt lat="45.1275754" lon="8.0123175"><ele>385.99999999999994</ele><time>2026-04-12T11:20:57.677Z</time></trkpt><trkpt lat="45.1275732" lon="8.0121561"><ele>386.0</ele><time>2026-04-12T11:20:58.676Z</time></trkpt><trkpt lat="45.127578" lon="8.0120247"><ele>385.99999999999994</ele><time>2026-04-12T11:20:59.677Z</time></trkpt><trkpt lat="45.1275664" lon="8.0118949"><ele>386.0</ele><time>2026-04-12T11:21:00.677Z</time></trkpt><trkpt lat="45.1275439" lon="8.0117785"><ele>386.0</ele><time>2026-04-12T11:21:01.677Z</time></trkpt><trkpt lat="45.1275175" lon="8.0116866"><ele>386.0</ele><time>2026-04-12T11:21:02.677Z</time></trkpt><trkpt lat="45.1275115" lon="8.0115209"><ele>385.99999999999994</ele><time>2026-04-12T11:21:04.677Z</time></trkpt><trkpt lat="45.1275956" lon="8.0115164"><ele>386.0</ele><time>2026-04-12T11:21:06.677Z</time></trkpt><trkpt lat="45.1276679" lon="8.0116229"><ele>386.0</ele><time>2026-04-12T11:21:08.677Z</time></trkpt><trkpt lat="45.1277722" lon="8.0117463"><ele>386.0</ele><time>2026-04-12T11:21:10.677Z</time></trkpt><trkpt lat="45.1278499" lon="8.0117976"><ele>386.0</ele><time>2026-04-12T11:21:11.677Z</time></trkpt><trkpt lat="45.1279429" lon="8.0118219"><ele>386.0</ele><time>2026-04-12T11:21:12.677Z</time></trkpt><trkpt lat="45.1280343" lon="8.0118292"><ele>386.0</ele><time>2026-04-12T11:21:13.677Z</time></trkpt><trkpt lat="45.1281374" lon="8.011861"><ele>384.20000000000005</ele><time>2026-04-12T11:21:14.677Z</time></trkpt><trkpt lat="45.1282633" lon="8.0119512"><ele>382.40000000000003</ele><time>2026-04-12T11:21:16.676Z</time></trkpt><trkpt lat="45.1283383" lon="8.0120325"><ele>380.6</ele><time>2026-04-12T11:21:17.677Z</time></trkpt><trkpt lat="45.1284184" lon="8.012099"><ele>378.8</ele><time>2026-04-12T11:21:18.677Z</time></trkpt><trkpt lat="45.1285081" lon="8.0121646"><ele>377.0</ele><time>2026-04-12T11:21:19.677Z</time></trkpt><trkpt lat="45.1286038" lon="8.0122447"><ele>377.0</ele><time>2026-04-12T11:21:20.677Z</time></trkpt><trkpt lat="45.1286908" lon="8.0123071"><ele>377.0</ele><time>2026-04-12T11:21:21.677Z</time></trkpt><trkpt lat="45.1287831" lon="8.0123472"><ele>377.0</ele><time>2026-04-12T11:21:22.677Z</time></trkpt><trkpt lat="45.1288635" lon="8.0123749"><ele>377.0</ele><time>2026-04-12T11:21:23.677Z</time></trkpt><trkpt lat="45.1289568" lon="8.0123631"><ele>377.0</ele><time>2026-04-12T11:21:24.677Z</time></trkpt><trkpt lat="45.1290692" lon="8.0123628"><ele>378.20000000000005</ele><time>2026-04-12T11:21:25.677Z</time></trkpt><trkpt lat="45.1291684" lon="8.0123692"><ele>379.4</ele><time>2026-04-12T11:21:26.677Z</time></trkpt><trkpt lat="45.1292753" lon="8.0123793"><ele>380.6</ele><time>2026-04-12T11:21:27.677Z</time></trkpt><trkpt lat="45.1293814" lon="8.0123914"><ele>381.79999999999995</ele><time>2026-04-12T11:21:28.677Z</time></trkpt><trkpt lat="45.1294768" lon="8.0124038"><ele>383.0</ele><time>2026-04-12T11:21:29.677Z</time></trkpt><trkpt lat="45.1295879" lon="8.0124097"><ele>383.0</ele><time>2026-04-12T11:21:30.677Z</time></trkpt><trkpt lat="45.1296981" lon="8.0123976"><ele>383.0</ele><time>2026-04-12T11:21:31.676Z</time></trkpt><trkpt lat="45.1298117" lon="8.0123879"><ele>383.0</ele><time>2026-04-12T11:21:32.677Z</time></trkpt><trkpt lat="45.1299147" lon="8.0123576"><ele>383.0</ele><time>2026-04-12T11:21:33.677Z</time></trkpt><trkpt lat="45.1300064" lon="8.0123386"><ele>383.0</ele><time>2026-04-12T11:21:34.677Z</time></trkpt><trkpt lat="45.1300803" lon="8.0123459"><ele>382.0</ele><time>2026-04-12T11:21:35.677Z</time></trkpt><trkpt lat="45.1301834" lon="8.0124169"><ele>381.0</ele><time>2026-04-12T11:21:36.677Z</time></trkpt><trkpt lat="45.1302798" lon="8.0124969"><ele>380.0</ele><time>2026-04-12T11:21:37.677Z</time></trkpt><trkpt lat="45.1303804" lon="8.0125385"><ele>379.0</ele><time>2026-04-12T11:21:38.677Z</time></trkpt><trkpt lat="45.1304618" lon="8.0125901"><ele>378.0</ele><time>2026-04-12T11:21:39.677Z</time></trkpt><trkpt lat="45.1305469" lon="8.0125867"><ele>377.5</ele><time>2026-04-12T11:21:40.677Z</time></trkpt><trkpt lat="45.1306225" lon="8.0125777"><ele>377.0</ele><time>2026-04-12T11:21:41.677Z</time></trkpt><trkpt lat="45.1306939" lon="8.0125162"><ele>376.5</ele><time>2026-04-12T11:21:42.676Z</time></trkpt><trkpt lat="45.1307555" lon="8.0124399"><ele>376.0</ele><time>2026-04-12T11:21:43.676Z</time></trkpt><trkpt lat="45.1308344" lon="8.0123592"><ele>375.5</ele><time>2026-04-12T11:21:44.677Z</time></trkpt><trkpt lat="45.1309243" lon="8.0122671"><ele>375.0</ele><time>2026-04-12T11:21:45.677Z</time></trkpt><trkpt lat="45.1310132" lon="8.0122042"><ele>375.0</ele><time>2026-04-12T11:21:46.677Z</time></trkpt><trkpt lat="45.1310939" lon="8.0121477"><ele>375.0</ele><time>2026-04-12T11:21:47.677Z</time></trkpt><trkpt lat="45.1311717" lon="8.0121111"><ele>375.0</ele><time>2026-04-12T11:21:48.677Z</time></trkpt><trkpt lat="45.1312539" lon="8.0120944"><ele>375.0</ele><time>2026-04-12T11:21:49.677Z</time></trkpt><trkpt lat="45.1313304" lon="8.0120975"><ele>375.0</ele><time>2026-04-12T11:21:50.677Z</time></trkpt><trkpt lat="45.1314068" lon="8.012105"><ele>375.0</ele><time>2026-04-12T11:21:51.676Z</time></trkpt><trkpt lat="45.1314786" lon="8.0121483"><ele>375.0</ele><time>2026-04-12T11:21:52.677Z</time></trkpt><trkpt lat="45.1315392" lon="8.012221"><ele>375.0</ele><time>2026-04-12T11:21:53.677Z</time></trkpt><trkpt lat="45.1315938" lon="8.0123138"><ele>375.0</ele><time>2026-04-12T11:21:54.677Z</time></trkpt><trkpt lat="45.1316595" lon="8.0124206"><ele>375.0</ele><time>2026-04-12T11:21:55.677Z</time></trkpt><trkpt lat="45.1317283" lon="8.0125309"><ele>375.0</ele><time>2026-04-12T11:21:56.677Z</time></trkpt><trkpt lat="45.1318099" lon="8.0126214"><ele>367.25</ele><time>2026-04-12T11:21:57.676Z</time></trkpt><trkpt lat="45.1318963" lon="8.0127226"><ele>359.5</ele><time>2026-04-12T11:21:58.677Z</time></trkpt><trkpt lat="45.1320023" lon="8.0127937"><ele>351.75</ele><time>2026-04-12T11:21:59.677Z</time></trkpt><trkpt lat="45.1321087" lon="8.0128529"><ele>344.0</ele><time>2026-04-12T11:22:00.677Z</time></trkpt><trkpt lat="45.1322211" lon="8.0129038"><ele>344.0</ele><time>2026-04-12T11:22:01.677Z</time></trkpt><trkpt lat="45.1323432" lon="8.0129517"><ele>344.0</ele><time>2026-04-12T11:22:02.677Z</time></trkpt><trkpt lat="45.1324648" lon="8.012994"><ele>344.0</ele><time>2026-04-12T11:22:03.677Z</time></trkpt><trkpt lat="45.1325874" lon="8.0130426"><ele>344.0</ele><time>2026-04-12T11:22:04.677Z</time></trkpt><trkpt lat="45.1326943" lon="8.0130861"><ele>343.79999999999995</ele><time>2026-04-12T11:22:05.677Z</time></trkpt><trkpt lat="45.1328061" lon="8.0131264"><ele>343.59999999999997</ele><time>2026-04-12T11:22:06.677Z</time></trkpt><trkpt lat="45.1328991" lon="8.0131676"><ele>343.4</ele><time>2026-04-12T11:22:07.677Z</time></trkpt><trkpt lat="45.1330027" lon="8.0132325"><ele>343.2</ele><time>2026-04-12T11:22:08.677Z</time></trkpt><trkpt lat="45.1331086" lon="8.0133119"><ele>343.0</ele><time>2026-04-12T11:22:09.677Z</time></trkpt><trkpt lat="45.1332202" lon="8.0133903"><ele>343.5</ele><time>2026-04-12T11:22:10.677Z</time></trkpt><trkpt lat="45.1333444" lon="8.0134652"><ele>344.0</ele><time>2026-04-12T11:22:11.677Z</time></trkpt><trkpt lat="45.1334661" lon="8.0135389"><ele>344.5</ele><time>2026-04-12T11:22:12.676Z</time></trkpt><trkpt lat="45.1335962" lon="8.0136067"><ele>345.0</ele><time>2026-04-12T11:22:13.677Z</time></trkpt><trkpt lat="45.1337349" lon="8.0136818"><ele>345.0</ele><time>2026-04-12T11:22:14.677Z</time></trkpt><trkpt lat="45.1338717" lon="8.0137603"><ele>345.0</ele><time>2026-04-12T11:22:15.677Z</time></trkpt><trkpt lat="45.1340097" lon="8.0138277"><ele>345.0</ele><time>2026-04-12T11:22:16.677Z</time></trkpt><trkpt lat="45.1341489" lon="8.0138904"><ele>345.0</ele><time>2026-04-12T11:22:17.676Z</time></trkpt><trkpt lat="45.1342898" lon="8.0139601"><ele>342.25</ele><time>2026-04-12T11:22:18.677Z</time></trkpt><trkpt lat="45.1344216" lon="8.0140362"><ele>339.5</ele><time>2026-04-12T11:22:19.677Z</time></trkpt><trkpt lat="45.1345529" lon="8.0141301"><ele>336.75</ele><time>2026-04-12T11:22:20.677Z</time></trkpt><trkpt lat="45.1346857" lon="8.0142348"><ele>334.0</ele><time>2026-04-12T11:22:21.677Z</time></trkpt><trkpt lat="45.1348212" lon="8.0143394"><ele>330.3333333333333</ele><time>2026-04-12T11:22:22.677Z</time></trkpt><trkpt lat="45.1349619" lon="8.014469"><ele>326.6666666666667</ele><time>2026-04-12T11:22:23.677Z</time></trkpt><trkpt lat="45.1351013" lon="8.0145768"><ele>323.0</ele><time>2026-04-12T11:22:24.677Z</time></trkpt><trkpt lat="45.1352406" lon="8.0146619"><ele>323.0</ele><time>2026-04-12T11:22:25.677Z</time></trkpt><trkpt lat="45.1353875" lon="8.0147574"><ele>323.0</ele><time>2026-04-12T11:22:26.676Z</time></trkpt><trkpt lat="45.1355303" lon="8.0148589"><ele>323.0</ele><time>2026-04-12T11:22:27.677Z</time></trkpt><trkpt lat="45.1356677" lon="8.0149636"><ele>321.5</ele><time>2026-04-12T11:22:28.677Z</time></trkpt><trkpt lat="45.1358017" lon="8.015063"><ele>320.0</ele><time>2026-04-12T11:22:29.677Z</time></trkpt><trkpt lat="45.1359349" lon="8.0151623"><ele>318.5</ele><time>2026-04-12T11:22:30.677Z</time></trkpt><trkpt lat="45.136068" lon="8.0152531"><ele>317.0</ele><time>2026-04-12T11:22:31.677Z</time></trkpt><trkpt lat="45.1361963" lon="8.0153585"><ele>317.0</ele><time>2026-04-12T11:22:32.677Z</time></trkpt><trkpt lat="45.136317" lon="8.0154387"><ele>317.0</ele><time>2026-04-12T11:22:33.677Z</time></trkpt><trkpt lat="45.1364415" lon="8.0155388"><ele>317.0</ele><time>2026-04-12T11:22:34.677Z</time></trkpt><trkpt lat="45.1365583" lon="8.0156093"><ele>317.0</ele><time>2026-04-12T11:22:35.676Z</time></trkpt><trkpt lat="45.1366519" lon="8.0156845"><ele>316.4</ele><time>2026-04-12T11:22:36.676Z</time></trkpt><trkpt lat="45.1367273" lon="8.0157602"><ele>315.79999999999995</ele><time>2026-04-12T11:22:37.677Z</time></trkpt><trkpt lat="45.1367962" lon="8.0158483"><ele>315.2</ele><time>2026-04-12T11:22:38.677Z</time></trkpt><trkpt lat="45.1368102" lon="8.0159814"><ele>314.59999999999997</ele><time>2026-04-12T11:22:39.677Z</time></trkpt><trkpt lat="45.1368055" lon="8.0161194"><ele>314.0</ele><time>2026-04-12T11:22:40.676Z</time></trkpt><trkpt lat="45.1367905" lon="8.0162658"><ele>314.0</ele><time>2026-04-12T11:22:41.677Z</time></trkpt><trkpt lat="45.1367753" lon="8.0163937"><ele>314.0</ele><time>2026-04-12T11:22:42.677Z</time></trkpt><trkpt lat="45.1367557" lon="8.0165406"><ele>314.0</ele><time>2026-04-12T11:22:43.677Z</time></trkpt><trkpt lat="45.1367653" lon="8.0166772"><ele>314.0</ele><time>2026-04-12T11:22:44.677Z</time></trkpt><trkpt lat="45.1367939" lon="8.016824"><ele>314.0</ele><time>2026-04-12T11:22:45.677Z</time></trkpt><trkpt lat="45.1368376" lon="8.0169578"><ele>313.0</ele><time>2026-04-12T11:22:46.677Z</time></trkpt><trkpt lat="45.1369008" lon="8.0171012"><ele>312.0</ele><time>2026-04-12T11:22:47.676Z</time></trkpt><trkpt lat="45.1369642" lon="8.0172317"><ele>311.0</ele><time>2026-04-12T11:22:48.677Z</time></trkpt><trkpt lat="45.1370268" lon="8.0173566"><ele>310.0</ele><time>2026-04-12T11:22:49.677Z</time></trkpt><trkpt lat="45.1371091" lon="8.0174894"><ele>306.5</ele><time>2026-04-12T11:22:50.677Z</time></trkpt><trkpt lat="45.1372173" lon="8.0175884"><ele>303.0</ele><time>2026-04-12T11:22:51.677Z</time></trkpt><trkpt lat="45.1373426" lon="8.017684"><ele>299.5</ele><time>2026-04-12T11:22:52.677Z</time></trkpt><trkpt lat="45.1374665" lon="8.0177891"><ele>296.0</ele><time>2026-04-12T11:22:53.677Z</time></trkpt><trkpt lat="45.1375823" lon="8.017929"><ele>295.25</ele><time>2026-04-12T11:22:54.677Z</time></trkpt><trkpt lat="45.1376769" lon="8.0180668"><ele>294.5</ele><time>2026-04-12T11:22:55.677Z</time></trkpt><trkpt lat="45.1377791" lon="8.018214"><ele>293.75</ele><time>2026-04-12T11:22:56.677Z</time></trkpt><trkpt lat="45.1378913" lon="8.0183495"><ele>293.0</ele><time>2026-04-12T11:22:57.677Z</time></trkpt><trkpt lat="45.1380013" lon="8.0184623"><ele>291.0</ele><time>2026-04-12T11:22:58.676Z</time></trkpt><trkpt lat="45.1381064" lon="8.0185771"><ele>289.0</ele><time>2026-04-12T11:22:59.677Z</time></trkpt><trkpt lat="45.1381962" lon="8.0187085"><ele>287.0</ele><time>2026-04-12T11:23:00.676Z</time></trkpt><trkpt lat="45.1382611" lon="8.0188331"><ele>285.0</ele><time>2026-04-12T11:23:01.677Z</time></trkpt><trkpt lat="45.1383225" lon="8.0189332"><ele>284.8333333333333</ele><time>2026-04-12T11:23:02.677Z</time></trkpt><trkpt lat="45.1383968" lon="8.0190142"><ele>284.6666666666667</ele><time>2026-04-12T11:23:03.677Z</time></trkpt><trkpt lat="45.1384783" lon="8.0190579"><ele>284.5</ele><time>2026-04-12T11:23:04.677Z</time></trkpt><trkpt lat="45.1385667" lon="8.0190704"><ele>284.33333333333337</ele><time>2026-04-12T11:23:05.677Z</time></trkpt><trkpt lat="45.1386513" lon="8.0190553"><ele>284.1666666666667</ele><time>2026-04-12T11:23:06.677Z</time></trkpt><trkpt lat="45.1387348" lon="8.019013"><ele>284.0</ele><time>2026-04-12T11:23:07.677Z</time></trkpt><trkpt lat="45.1388107" lon="8.0189724"><ele>284.0</ele><time>2026-04-12T11:23:08.677Z</time></trkpt><trkpt lat="45.138899" lon="8.0189598"><ele>284.0</ele><time>2026-04-12T11:23:09.677Z</time></trkpt><trkpt lat="45.1389772" lon="8.0189787"><ele>284.0</ele><time>2026-04-12T11:23:10.677Z</time></trkpt><trkpt lat="45.1390487" lon="8.0190357"><ele>284.0</ele><time>2026-04-12T11:23:11.677Z</time></trkpt><trkpt lat="45.1391161" lon="8.0191183"><ele>284.0</ele><time>2026-04-12T11:23:12.677Z</time></trkpt><trkpt lat="45.1391911" lon="8.0192073"><ele>284.0</ele><time>2026-04-12T11:23:13.677Z</time></trkpt><trkpt lat="45.1392709" lon="8.0192953"><ele>284.5</ele><time>2026-04-12T11:23:14.677Z</time></trkpt><trkpt lat="45.1393593" lon="8.0194023"><ele>285.0</ele><time>2026-04-12T11:23:15.677Z</time></trkpt><trkpt lat="45.1394575" lon="8.0195071"><ele>285.5</ele><time>2026-04-12T11:23:16.677Z</time></trkpt><trkpt lat="45.1395595" lon="8.0195976"><ele>286.0</ele><time>2026-04-12T11:23:17.677Z</time></trkpt><trkpt lat="45.1396552" lon="8.0196958"><ele>286.0</ele><time>2026-04-12T11:23:18.677Z</time></trkpt><trkpt lat="45.1397608" lon="8.0197848"><ele>286.0</ele><time>2026-04-12T11:23:19.677Z</time></trkpt><trkpt lat="45.1398649" lon="8.0198815"><ele>286.0</ele><time>2026-04-12T11:23:20.677Z</time></trkpt><trkpt lat="45.1399579" lon="8.0199803"><ele>286.0</ele><time>2026-04-12T11:23:21.677Z</time></trkpt><trkpt lat="45.140046" lon="8.0200738"><ele>287.6</ele><time>2026-04-12T11:23:22.677Z</time></trkpt><trkpt lat="45.1401177" lon="8.0201826"><ele>289.20000000000005</ele><time>2026-04-12T11:23:23.677Z</time></trkpt><trkpt lat="45.1401808" lon="8.020296"><ele>290.79999999999995</ele><time>2026-04-12T11:23:24.677Z</time></trkpt><trkpt lat="45.1401748" lon="8.0204084"><ele>292.4</ele><time>2026-04-12T11:23:25.677Z</time></trkpt><trkpt lat="45.1402163" lon="8.0205311"><ele>294.0</ele><time>2026-04-12T11:23:26.677Z</time></trkpt><trkpt lat="45.1402717" lon="8.0206411"><ele>294.0</ele><time>2026-04-12T11:23:27.677Z</time></trkpt><trkpt lat="45.1403619" lon="8.0207275"><ele>294.0</ele><time>2026-04-12T11:23:28.677Z</time></trkpt><trkpt lat="45.1404588" lon="8.0207961"><ele>294.0</ele><time>2026-04-12T11:23:29.677Z</time></trkpt><trkpt lat="45.1405662" lon="8.0208752"><ele>294.0</ele><time>2026-04-12T11:23:30.677Z</time></trkpt><trkpt lat="45.1406582" lon="8.0209621"><ele>294.0</ele><time>2026-04-12T11:23:31.677Z</time></trkpt><trkpt lat="45.1407663" lon="8.021071"><ele>296.5</ele><time>2026-04-12T11:23:32.677Z</time></trkpt><trkpt lat="45.1408741" lon="8.0211903"><ele>299.0</ele><time>2026-04-12T11:23:33.677Z</time></trkpt><trkpt lat="45.1409749" lon="8.0212967"><ele>301.5</ele><time>2026-04-12T11:23:34.677Z</time></trkpt><trkpt lat="45.141064" lon="8.0214019"><ele>304.0</ele><time>2026-04-12T11:23:35.677Z</time></trkpt><trkpt lat="45.1411471" lon="8.0215051"><ele>304.0</ele><time>2026-04-12T11:23:36.677Z</time></trkpt><trkpt lat="45.1412129" lon="8.0215742"><ele>304.0</ele><time>2026-04-12T11:23:37.677Z</time></trkpt><trkpt lat="45.1413" lon="8.0216225"><ele>304.0</ele><time>2026-04-12T11:23:38.677Z</time></trkpt><trkpt lat="45.1413869" lon="8.0216672"><ele>304.0</ele><time>2026-04-12T11:23:39.677Z</time></trkpt><trkpt lat="45.1414987" lon="8.0217282"><ele>304.0</ele><time>2026-04-12T11:23:40.677Z</time></trkpt><trkpt lat="45.1415978" lon="8.0217759"><ele>305.0</ele><time>2026-04-12T11:23:41.677Z</time></trkpt><trkpt lat="45.1417109" lon="8.021872"><ele>306.0</ele><time>2026-04-12T11:23:42.676Z</time></trkpt><trkpt lat="45.1418257" lon="8.0219763"><ele>307.0</ele><time>2026-04-12T11:23:43.677Z</time></trkpt><trkpt lat="45.1419435" lon="8.0220882"><ele>308.0</ele><time>2026-04-12T11:23:44.676Z</time></trkpt><trkpt lat="45.1420649" lon="8.022202"><ele>308.0</ele><time>2026-04-12T11:23:45.677Z</time></trkpt><trkpt lat="45.1421932" lon="8.0222952"><ele>308.0</ele><time>2026-04-12T11:23:46.677Z</time></trkpt><trkpt lat="45.1423168" lon="8.0223772"><ele>308.0</ele><time>2026-04-12T11:23:47.677Z</time></trkpt><trkpt lat="45.1424407" lon="8.0224707"><ele>308.0</ele><time>2026-04-12T11:23:48.677Z</time></trkpt><trkpt lat="45.1425692" lon="8.0225661"><ele>307.0</ele><time>2026-04-12T11:23:49.677Z</time></trkpt><trkpt lat="45.1426834" lon="8.0226688"><ele>306.0</ele><time>2026-04-12T11:23:50.677Z</time></trkpt><trkpt lat="45.1427807" lon="8.0227867"><ele>305.0</ele><time>2026-04-12T11:23:51.677Z</time></trkpt><trkpt lat="45.1428655" lon="8.0229273"><ele>304.0</ele><time>2026-04-12T11:23:52.677Z</time></trkpt><trkpt lat="45.1429339" lon="8.0230451"><ele>304.0</ele><time>2026-04-12T11:23:53.677Z</time></trkpt><trkpt lat="45.1429755" lon="8.023184"><ele>304.0</ele><time>2026-04-12T11:23:54.677Z</time></trkpt><trkpt lat="45.1430268" lon="8.0233316"><ele>304.0</ele><time>2026-04-12T11:23:55.677Z</time></trkpt><trkpt lat="45.143087" lon="8.0234545"><ele>304.0</ele><time>2026-04-12T11:23:56.677Z</time></trkpt><trkpt lat="45.1431776" lon="8.0235725"><ele>304.75</ele><time>2026-04-12T11:23:57.677Z</time></trkpt><trkpt lat="45.1432775" lon="8.023638"><ele>305.5</ele><time>2026-04-12T11:23:58.677Z</time></trkpt><trkpt lat="45.1433878" lon="8.0236749"><ele>306.25</ele><time>2026-04-12T11:23:59.677Z</time></trkpt><trkpt lat="45.1435131" lon="8.0237006"><ele>307.0</ele><time>2026-04-12T11:24:00.676Z</time></trkpt><trkpt lat="45.1436324" lon="8.0237129"><ele>307.0</ele><time>2026-04-12T11:24:01.677Z</time></trkpt><trkpt lat="45.1437448" lon="8.0237358"><ele>307.0</ele><time>2026-04-12T11:24:02.676Z</time></trkpt><trkpt lat="45.1438428" lon="8.023798"><ele>307.0</ele><time>2026-04-12T11:24:03.676Z</time></trkpt><trkpt lat="45.14395" lon="8.0238643"><ele>307.0</ele><time>2026-04-12T11:24:04.677Z</time></trkpt><trkpt lat="45.144048" lon="8.023943"><ele>309.2</ele><time>2026-04-12T11:24:05.677Z</time></trkpt><trkpt lat="45.1441455" lon="8.0240256"><ele>311.4</ele><time>2026-04-12T11:24:06.677Z</time></trkpt><trkpt lat="45.1442372" lon="8.0240787"><ele>313.6</ele><time>2026-04-12T11:24:07.677Z</time></trkpt><trkpt lat="45.1443261" lon="8.0241254"><ele>315.8</ele><time>2026-04-12T11:24:08.677Z</time></trkpt><trkpt lat="45.1444137" lon="8.024194"><ele>318.0</ele><time>2026-04-12T11:24:09.677Z</time></trkpt><trkpt lat="45.1444957" lon="8.0242915"><ele>319.25</ele><time>2026-04-12T11:24:10.677Z</time></trkpt><trkpt lat="45.1445705" lon="8.0244131"><ele>320.5</ele><time>2026-04-12T11:24:11.677Z</time></trkpt><trkpt lat="45.1446352" lon="8.0245551"><ele>321.75</ele><time>2026-04-12T11:24:12.677Z</time></trkpt><trkpt lat="45.1446917" lon="8.024714"><ele>323.0</ele><time>2026-04-12T11:24:13.676Z</time></trkpt><trkpt lat="45.1447382" lon="8.0248817"><ele>321.25</ele><time>2026-04-12T11:24:14.677Z</time></trkpt><trkpt lat="45.1447786" lon="8.0250463"><ele>319.5</ele><time>2026-04-12T11:24:15.677Z</time></trkpt><trkpt lat="45.144821" lon="8.0252058"><ele>317.75</ele><time>2026-04-12T11:24:16.677Z</time></trkpt><trkpt lat="45.1448419" lon="8.025348"><ele>316.0</ele><time>2026-04-12T11:24:17.677Z</time></trkpt><trkpt lat="45.1448671" lon="8.0254932"><ele>316.0</ele><time>2026-04-12T11:24:18.677Z</time></trkpt><trkpt lat="45.1448415" lon="8.0256569"><ele>316.0</ele><time>2026-04-12T11:24:19.677Z</time></trkpt><trkpt lat="45.1448203" lon="8.0258306"><ele>316.0</ele><time>2026-04-12T11:24:20.677Z</time></trkpt><trkpt lat="45.1447809" lon="8.0259471"><ele>316.0</ele><time>2026-04-12T11:24:21.677Z</time></trkpt><trkpt lat="45.1447489" lon="8.0260595"><ele>316.0</ele><time>2026-04-12T11:24:22.677Z</time></trkpt><trkpt lat="45.1446813" lon="8.0261344"><ele>316.6</ele><time>2026-04-12T11:24:23.677Z</time></trkpt><trkpt lat="45.1446558" lon="8.026233"><ele>317.20000000000005</ele><time>2026-04-12T11:24:24.677Z</time></trkpt><trkpt lat="45.1446437" lon="8.0263501"><ele>317.79999999999995</ele><time>2026-04-12T11:24:25.677Z</time></trkpt><trkpt lat="45.1446537" lon="8.0264814"><ele>318.4</ele><time>2026-04-12T11:24:26.677Z</time></trkpt><trkpt lat="45.1446686" lon="8.0266157"><ele>319.0</ele><time>2026-04-12T11:24:27.677Z</time></trkpt><trkpt lat="45.1446945" lon="8.0267814"><ele>319.0</ele><time>2026-04-12T11:24:28.677Z</time></trkpt><trkpt lat="45.1447398" lon="8.0269632"><ele>319.0</ele><time>2026-04-12T11:24:29.676Z</time></trkpt><trkpt lat="45.1447775" lon="8.0271278"><ele>319.0</ele><time>2026-04-12T11:24:30.677Z</time></trkpt><trkpt lat="45.1448177" lon="8.0273117"><ele>319.0</ele><time>2026-04-12T11:24:31.677Z</time></trkpt><trkpt lat="45.1448373" lon="8.02748"><ele>314.75</ele><time>2026-04-12T11:24:32.677Z</time></trkpt><trkpt lat="45.1448407" lon="8.0276393"><ele>310.5</ele><time>2026-04-12T11:24:33.677Z</time></trkpt><trkpt lat="45.1448421" lon="8.0278077"><ele>306.25</ele><time>2026-04-12T11:24:34.677Z</time></trkpt><trkpt lat="45.1448374" lon="8.0279635"><ele>302.0</ele><time>2026-04-12T11:24:35.677Z</time></trkpt><trkpt lat="45.1448383" lon="8.0281262"><ele>302.0</ele><time>2026-04-12T11:24:36.676Z</time></trkpt><trkpt lat="45.1448517" lon="8.0282794"><ele>302.0</ele><time>2026-04-12T11:24:37.677Z</time></trkpt><trkpt lat="45.1448812" lon="8.0284713"><ele>302.0</ele><time>2026-04-12T11:24:38.677Z</time></trkpt><trkpt lat="45.1449087" lon="8.0286574"><ele>302.0</ele><time>2026-04-12T11:24:39.676Z</time></trkpt><trkpt lat="45.1449552" lon="8.0289126"><ele>305.25</ele><time>2026-04-12T11:24:40.677Z</time></trkpt><trkpt lat="45.1449871" lon="8.0290982"><ele>308.5</ele><time>2026-04-12T11:24:41.677Z</time></trkpt><trkpt lat="45.1450262" lon="8.0293079"><ele>311.75</ele><time>2026-04-12T11:24:42.677Z</time></trkpt><trkpt lat="45.1450554" lon="8.0294745"><ele>315.0</ele><time>2026-04-12T11:24:43.677Z</time></trkpt><trkpt lat="45.1450918" lon="8.0296647"><ele>315.4</ele><time>2026-04-12T11:24:44.677Z</time></trkpt><trkpt lat="45.1451208" lon="8.0298649"><ele>315.8</ele><time>2026-04-12T11:24:45.677Z</time></trkpt><trkpt lat="45.1451692" lon="8.0299457"><ele>316.2</ele><time>2026-04-12T11:24:46.677Z</time></trkpt><trkpt lat="45.1452255" lon="8.0300823"><ele>316.6</ele><time>2026-04-12T11:24:47.677Z</time></trkpt><trkpt lat="45.1452938" lon="8.030179"><ele>317.0</ele><time>2026-04-12T11:24:48.677Z</time></trkpt><trkpt lat="45.1454275" lon="8.030281"><ele>317.0</ele><time>2026-04-12T11:24:49.677Z</time></trkpt><trkpt lat="45.1454996" lon="8.0303626"><ele>317.0</ele><time>2026-04-12T11:24:50.677Z</time></trkpt><trkpt lat="45.1456006" lon="8.0304085"><ele>317.0</ele><time>2026-04-12T11:24:51.677Z</time></trkpt><trkpt lat="45.1456958" lon="8.0304386"><ele>317.0</ele><time>2026-04-12T11:24:52.676Z</time></trkpt><trkpt lat="45.1457868" lon="8.0304313"><ele>317.0</ele><time>2026-04-12T11:24:53.677Z</time></trkpt><trkpt lat="45.14588" lon="8.0304191"><ele>311.6</ele><time>2026-04-12T11:24:54.677Z</time></trkpt><trkpt lat="45.1459596" lon="8.0303731"><ele>306.2</ele><time>2026-04-12T11:24:55.677Z</time></trkpt><trkpt lat="45.1460516" lon="8.0303433"><ele>300.8</ele><time>2026-04-12T11:24:56.677Z</time></trkpt><trkpt lat="45.1461392" lon="8.030342"><ele>295.4</ele><time>2026-04-12T11:24:57.677Z</time></trkpt><trkpt lat="45.1462413" lon="8.0303542"><ele>290.0</ele><time>2026-04-12T11:24:58.677Z</time></trkpt><trkpt lat="45.146339" lon="8.0303692"><ele>290.0</ele><time>2026-04-12T11:24:59.677Z</time></trkpt><trkpt lat="45.1464467" lon="8.0303892"><ele>290.0</ele><time>2026-04-12T11:25:00.677Z</time></trkpt><trkpt lat="45.1465528" lon="8.0304034"><ele>290.0</ele><time>2026-04-12T11:25:01.677Z</time></trkpt><trkpt lat="45.146659" lon="8.0304258"><ele>290.0</ele><time>2026-04-12T11:25:02.677Z</time></trkpt><trkpt lat="45.1467678" lon="8.030454"><ele>290.0</ele><time>2026-04-12T11:25:03.677Z</time></trkpt><trkpt lat="45.1468758" lon="8.0304858"><ele>287.2</ele><time>2026-04-12T11:25:04.677Z</time></trkpt><trkpt lat="45.1469847" lon="8.0305372"><ele>284.4</ele><time>2026-04-12T11:25:05.677Z</time></trkpt><trkpt lat="45.1470846" lon="8.0305822"><ele>281.6</ele><time>2026-04-12T11:25:06.677Z</time></trkpt><trkpt lat="45.1471859" lon="8.0306333"><ele>278.8</ele><time>2026-04-12T11:25:07.677Z</time></trkpt><trkpt lat="45.1472767" lon="8.0306708"><ele>276.0</ele><time>2026-04-12T11:25:08.676Z</time></trkpt><trkpt lat="45.1473676" lon="8.0306955"><ele>275.5</ele><time>2026-04-12T11:25:09.677Z</time></trkpt><trkpt lat="45.1474408" lon="8.0307091"><ele>275.0</ele><time>2026-04-12T11:25:10.677Z</time></trkpt><trkpt lat="45.1475253" lon="8.0307305"><ele>274.5</ele><time>2026-04-12T11:25:11.677Z</time></trkpt><trkpt lat="45.1475928" lon="8.0307858"><ele>274.0</ele><time>2026-04-12T11:25:12.677Z</time></trkpt><trkpt lat="45.1476631" lon="8.0308472"><ele>273.5</ele><time>2026-04-12T11:25:13.676Z</time></trkpt><trkpt lat="45.1477202" lon="8.0309632"><ele>273.0</ele><time>2026-04-12T11:25:14.677Z</time></trkpt><trkpt lat="45.1477794" lon="8.0310566"><ele>275.4</ele><time>2026-04-12T11:25:15.677Z</time></trkpt><trkpt lat="45.1478452" lon="8.0311804"><ele>277.8</ele><time>2026-04-12T11:25:16.677Z</time></trkpt><trkpt lat="45.1479247" lon="8.0312873"><ele>280.2</ele><time>2026-04-12T11:25:17.677Z</time></trkpt><trkpt lat="45.1480132" lon="8.031373"><ele>282.6</ele><time>2026-04-12T11:25:18.677Z</time></trkpt><trkpt lat="45.1481124" lon="8.0314464"><ele>285.0</ele><time>2026-04-12T11:25:19.677Z</time></trkpt><trkpt lat="45.1482111" lon="8.0315263"><ele>285.0</ele><time>2026-04-12T11:25:20.677Z</time></trkpt><trkpt lat="45.1483033" lon="8.0315965"><ele>285.0</ele><time>2026-04-12T11:25:21.677Z</time></trkpt><trkpt lat="45.1483812" lon="8.0316641"><ele>285.0</ele><time>2026-04-12T11:25:22.677Z</time></trkpt><trkpt lat="45.1484574" lon="8.0316995"><ele>285.0</ele><time>2026-04-12T11:25:23.677Z</time></trkpt><trkpt lat="45.1485461" lon="8.0317107"><ele>285.0</ele><time>2026-04-12T11:25:24.677Z</time></trkpt><trkpt lat="45.1486396" lon="8.0317148"><ele>284.8</ele><time>2026-04-12T11:25:25.677Z</time></trkpt><trkpt lat="45.1487293" lon="8.0317287"><ele>284.6</ele><time>2026-04-12T11:25:26.677Z</time></trkpt><trkpt lat="45.1488136" lon="8.0317447"><ele>284.4</ele><time>2026-04-12T11:25:27.676Z</time></trkpt><trkpt lat="45.1489047" lon="8.0317923"><ele>284.2</ele><time>2026-04-12T11:25:28.677Z</time></trkpt><trkpt lat="45.1490037" lon="8.031857"><ele>284.0</ele><time>2026-04-12T11:25:29.677Z</time></trkpt><trkpt lat="45.1490704" lon="8.0318797"><ele>284.0</ele><time>2026-04-12T11:25:30.676Z</time></trkpt><trkpt lat="45.1491588" lon="8.0319832"><ele>284.0</ele><time>2026-04-12T11:25:32.677Z</time></trkpt><trkpt lat="45.1491768" lon="8.0321344"><ele>284.0</ele><time>2026-04-12T11:25:34.677Z</time></trkpt><trkpt lat="45.1491348" lon="8.0323201"><ele>284.0</ele><time>2026-04-12T11:25:36.677Z</time></trkpt><trkpt lat="45.1491328" lon="8.0324848"><ele>282.4</ele><time>2026-04-12T11:25:37.677Z</time></trkpt><trkpt lat="45.1491277" lon="8.0326433"><ele>280.79999999999995</ele><time>2026-04-12T11:25:38.677Z</time></trkpt><trkpt lat="45.1491056" lon="8.0327885"><ele>279.20000000000005</ele><time>2026-04-12T11:25:39.677Z</time></trkpt><trkpt lat="45.1490846" lon="8.0329243"><ele>277.6</ele><time>2026-04-12T11:25:40.677Z</time></trkpt><trkpt lat="45.1490672" lon="8.0330785"><ele>276.0</ele><time>2026-04-12T11:25:41.677Z</time></trkpt><trkpt lat="45.1490062" lon="8.0331624"><ele>276.0</ele><time>2026-04-12T11:25:42.677Z</time></trkpt><trkpt lat="45.1489473" lon="8.0332559"><ele>276.0</ele><time>2026-04-12T11:25:43.677Z</time></trkpt><trkpt lat="45.148903" lon="8.0333388"><ele>276.0</ele><time>2026-04-12T11:25:44.677Z</time></trkpt><trkpt lat="45.1488681" lon="8.0334198"><ele>276.0</ele><time>2026-04-12T11:25:45.677Z</time></trkpt><trkpt lat="45.1487873" lon="8.0335221"><ele>276.0</ele><time>2026-04-12T11:25:47.677Z</time></trkpt><trkpt lat="45.1487679" lon="8.0336473"><ele>276.0</ele><time>2026-04-12T11:25:49.677Z</time></trkpt><trkpt lat="45.1487778" lon="8.0337416"><ele>276.0</ele><time>2026-04-12T11:25:50.677Z</time></trkpt><trkpt lat="45.1488094" lon="8.0339245"><ele>276.0</ele><time>2026-04-12T11:25:52.677Z</time></trkpt><trkpt lat="45.1488418" lon="8.0340884"><ele>276.0</ele><time>2026-04-12T11:25:53.677Z</time></trkpt><trkpt lat="45.1488531" lon="8.0341975"><ele>276.0</ele><time>2026-04-12T11:25:54.676Z</time></trkpt><trkpt lat="45.1489024" lon="8.0343084"><ele>276.0</ele><time>2026-04-12T11:25:55.677Z</time></trkpt><trkpt lat="45.1489513" lon="8.0344508"><ele>275.1666666666667</ele><time>2026-04-12T11:25:57.677Z</time></trkpt><trkpt lat="45.148895" lon="8.0346007"><ele>274.3333333333333</ele><time>2026-04-12T11:25:59.677Z</time></trkpt><trkpt lat="45.1488436" lon="8.0346542"><ele>273.5</ele><time>2026-04-12T11:26:00.676Z</time></trkpt><trkpt lat="45.148761" lon="8.0347055"><ele>272.66666666666663</ele><time>2026-04-12T11:26:01.676Z</time></trkpt><trkpt lat="45.1486914" lon="8.034736"><ele>271.8333333333333</ele><time>2026-04-12T11:26:02.677Z</time></trkpt><trkpt lat="45.1486097" lon="8.0347902"><ele>271.0</ele><time>2026-04-12T11:26:03.677Z</time></trkpt><trkpt lat="45.1485194" lon="8.0348809"><ele>271.0</ele><time>2026-04-12T11:26:04.676Z</time></trkpt><trkpt lat="45.1484375" lon="8.0349539"><ele>271.0</ele><time>2026-04-12T11:26:05.676Z</time></trkpt><trkpt lat="45.1483483" lon="8.0350271"><ele>271.0</ele><time>2026-04-12T11:26:06.677Z</time></trkpt><trkpt lat="45.1482652" lon="8.0351213"><ele>271.0</ele><time>2026-04-12T11:26:07.677Z</time></trkpt><trkpt lat="45.1481861" lon="8.0352491"><ele>271.0</ele><time>2026-04-12T11:26:08.677Z</time></trkpt><trkpt lat="45.148124" lon="8.0352974"><ele>268.2</ele><time>2026-04-12T11:26:09.677Z</time></trkpt><trkpt lat="45.1480691" lon="8.0354047"><ele>265.40000000000003</ele><time>2026-04-12T11:26:10.677Z</time></trkpt><trkpt lat="45.14803" lon="8.0355174"><ele>262.6</ele><time>2026-04-12T11:26:11.677Z</time></trkpt><trkpt lat="45.1480253" lon="8.0356423"><ele>259.8</ele><time>2026-04-12T11:26:12.677Z</time></trkpt><trkpt lat="45.1480258" lon="8.0357713"><ele>257.0</ele><time>2026-04-12T11:26:13.677Z</time></trkpt><trkpt lat="45.1480442" lon="8.0359032"><ele>257.0</ele><time>2026-04-12T11:26:14.677Z</time></trkpt><trkpt lat="45.1481011" lon="8.0360606"><ele>257.0</ele><time>2026-04-12T11:26:15.677Z</time></trkpt><trkpt lat="45.1481424" lon="8.0362294"><ele>257.0</ele><time>2026-04-12T11:26:16.677Z</time></trkpt><trkpt lat="45.1481621" lon="8.0364195"><ele>257.0</ele><time>2026-04-12T11:26:17.677Z</time></trkpt><trkpt lat="45.148159" lon="8.0366065"><ele>254.0</ele><time>2026-04-12T11:26:18.677Z</time></trkpt><trkpt lat="45.1481642" lon="8.0368129"><ele>251.0</ele><time>2026-04-12T11:26:19.677Z</time></trkpt><trkpt lat="45.1481631" lon="8.0370176"><ele>248.0</ele><time>2026-04-12T11:26:20.677Z</time></trkpt><trkpt lat="45.1481539" lon="8.0372141"><ele>245.0</ele><time>2026-04-12T11:26:21.676Z</time></trkpt><trkpt lat="45.148149" lon="8.037395"><ele>242.5</ele><time>2026-04-12T11:26:22.677Z</time></trkpt><trkpt lat="45.1481416" lon="8.0375777"><ele>240.0</ele><time>2026-04-12T11:26:23.677Z</time></trkpt><trkpt lat="45.1481203" lon="8.0377557"><ele>237.5</ele><time>2026-04-12T11:26:24.677Z</time></trkpt><trkpt lat="45.1480748" lon="8.0379291"><ele>235.0</ele><time>2026-04-12T11:26:25.677Z</time></trkpt><trkpt lat="45.1480061" lon="8.0380393"><ele>235.0</ele><time>2026-04-12T11:26:26.677Z</time></trkpt><trkpt lat="45.1479416" lon="8.0381776"><ele>235.0</ele><time>2026-04-12T11:26:27.677Z</time></trkpt><trkpt lat="45.1478634" lon="8.0383094"><ele>235.0</ele><time>2026-04-12T11:26:28.677Z</time></trkpt><trkpt lat="45.147775" lon="8.0383761"><ele>235.0</ele><time>2026-04-12T11:26:29.677Z</time></trkpt><trkpt lat="45.1476632" lon="8.0384417"><ele>235.0</ele><time>2026-04-12T11:26:30.677Z</time></trkpt><trkpt lat="45.1475443" lon="8.0384845"><ele>235.0</ele><time>2026-04-12T11:26:31.677Z</time></trkpt><trkpt lat="45.1474421" lon="8.0385334"><ele>235.0</ele><time>2026-04-12T11:26:32.677Z</time></trkpt><trkpt lat="45.1473494" lon="8.0385774"><ele>235.0</ele><time>2026-04-12T11:26:33.677Z</time></trkpt><trkpt lat="45.1472564" lon="8.0386276"><ele>235.0</ele><time>2026-04-12T11:26:34.677Z</time></trkpt><trkpt lat="45.1472147" lon="8.038775"><ele>234.0</ele><time>2026-04-12T11:26:36.677Z</time></trkpt><trkpt lat="45.1472398" lon="8.0388782"><ele>233.0</ele><time>2026-04-12T11:26:37.677Z</time></trkpt><trkpt lat="45.1472612" lon="8.0389905"><ele>232.0</ele><time>2026-04-12T11:26:38.677Z</time></trkpt><trkpt lat="45.1472897" lon="8.0390922"><ele>231.0</ele><time>2026-04-12T11:26:39.677Z</time></trkpt><trkpt lat="45.1473033" lon="8.0391925"><ele>230.0</ele><time>2026-04-12T11:26:40.677Z</time></trkpt><trkpt lat="45.1474425" lon="8.039234"><ele>230.0</ele><time>2026-04-12T11:26:41.677Z</time></trkpt><trkpt lat="45.1475308" lon="8.039317"><ele>230.0</ele><time>2026-04-12T11:26:42.677Z</time></trkpt><trkpt lat="45.1476113" lon="8.0394246"><ele>230.0</ele><time>2026-04-12T11:26:43.677Z</time></trkpt><trkpt lat="45.1476868" lon="8.0395383"><ele>230.0</ele><time>2026-04-12T11:26:44.677Z</time></trkpt><trkpt lat="45.1477522" lon="8.0396729"><ele>230.0</ele><time>2026-04-12T11:26:45.677Z</time></trkpt><trkpt lat="45.1478217" lon="8.0397951"><ele>230.0</ele><time>2026-04-12T11:26:46.677Z</time></trkpt><trkpt lat="45.1479126" lon="8.0399254"><ele>230.0</ele><time>2026-04-12T11:26:47.677Z</time></trkpt><trkpt lat="45.1480085" lon="8.0400579"><ele>230.0</ele><time>2026-04-12T11:26:48.677Z</time></trkpt><trkpt lat="45.1481027" lon="8.0401822"><ele>230.0</ele><time>2026-04-12T11:26:49.676Z</time></trkpt><trkpt lat="45.148191" lon="8.0402972"><ele>230.00000000000003</ele><time>2026-04-12T11:26:50.677Z</time></trkpt><trkpt lat="45.1482696" lon="8.0403968"><ele>230.0</ele><time>2026-04-12T11:26:51.677Z</time></trkpt><trkpt lat="45.1483308" lon="8.0404949"><ele>230.0</ele><time>2026-04-12T11:26:52.677Z</time></trkpt><trkpt lat="45.1483758" lon="8.0405879"><ele>230.0</ele><time>2026-04-12T11:26:53.677Z</time></trkpt><trkpt lat="45.1484135" lon="8.0406919"><ele>230.00000000000003</ele><time>2026-04-12T11:26:54.677Z</time></trkpt><trkpt lat="45.1484351" lon="8.0408062"><ele>230.0</ele><time>2026-04-12T11:26:55.677Z</time></trkpt><trkpt lat="45.1483903" lon="8.0409461"><ele>228.5</ele><time>2026-04-12T11:26:56.677Z</time></trkpt><trkpt lat="45.1483991" lon="8.0410863"><ele>227.0</ele><time>2026-04-12T11:26:57.676Z</time></trkpt><trkpt lat="45.1484671" lon="8.0412631"><ele>225.5</ele><time>2026-04-12T11:26:58.677Z</time></trkpt><trkpt lat="45.1484891" lon="8.0414095"><ele>224.0</ele><time>2026-04-12T11:26:59.676Z</time></trkpt><trkpt lat="45.1485174" lon="8.0415664"><ele>222.0</ele><time>2026-04-12T11:27:00.676Z</time></trkpt><trkpt lat="45.1485519" lon="8.0417178"><ele>220.0</ele><time>2026-04-12T11:27:01.677Z</time></trkpt><trkpt lat="45.1485864" lon="8.0418785"><ele>218.0</ele><time>2026-04-12T11:27:02.677Z</time></trkpt><trkpt lat="45.1486336" lon="8.0419991"><ele>216.0</ele><time>2026-04-12T11:27:03.677Z</time></trkpt><trkpt lat="45.1486427" lon="8.0421921"><ele>216.0</ele><time>2026-04-12T11:27:04.677Z</time></trkpt><trkpt lat="45.1485633" lon="8.0422988"><ele>216.00000000000003</ele><time>2026-04-12T11:27:05.676Z</time></trkpt><trkpt lat="45.148571" lon="8.0424369"><ele>216.00000000000003</ele><time>2026-04-12T11:27:06.677Z</time></trkpt><trkpt lat="45.1485834" lon="8.0425874"><ele>216.0</ele><time>2026-04-12T11:27:07.677Z</time></trkpt><trkpt lat="45.14862" lon="8.0427289"><ele>216.0</ele><time>2026-04-12T11:27:08.677Z</time></trkpt><trkpt lat="45.1486956" lon="8.0428731"><ele>214.25</ele><time>2026-04-12T11:27:09.677Z</time></trkpt><trkpt lat="45.1487758" lon="8.0430016"><ele>212.5</ele><time>2026-04-12T11:27:10.677Z</time></trkpt><trkpt lat="45.1488638" lon="8.0431416"><ele>210.75</ele><time>2026-04-12T11:27:11.677Z</time></trkpt><trkpt lat="45.1489484" lon="8.0432793"><ele>209.0</ele><time>2026-04-12T11:27:12.677Z</time></trkpt><trkpt lat="45.1490345" lon="8.0434265"><ele>211.25</ele><time>2026-04-12T11:27:13.677Z</time></trkpt><trkpt lat="45.1491207" lon="8.0435703"><ele>213.5</ele><time>2026-04-12T11:27:14.677Z</time></trkpt><trkpt lat="45.1492094" lon="8.0437129"><ele>215.75</ele><time>2026-04-12T11:27:15.677Z</time></trkpt><trkpt lat="45.1492897" lon="8.0438625"><ele>218.0</ele><time>2026-04-12T11:27:16.676Z</time></trkpt><trkpt lat="45.1493683" lon="8.0440208"><ele>215.0</ele><time>2026-04-12T11:27:17.677Z</time></trkpt><trkpt lat="45.1494447" lon="8.0441774"><ele>212.0</ele><time>2026-04-12T11:27:18.677Z</time></trkpt><trkpt lat="45.149514" lon="8.0443344"><ele>209.0</ele><time>2026-04-12T11:27:19.677Z</time></trkpt><trkpt lat="45.149586" lon="8.0444875"><ele>206.0</ele><time>2026-04-12T11:27:20.677Z</time></trkpt><trkpt lat="45.1496552" lon="8.0446397"><ele>206.0</ele><time>2026-04-12T11:27:21.677Z</time></trkpt><trkpt lat="45.1497297" lon="8.0447813"><ele>206.0</ele><time>2026-04-12T11:27:22.677Z</time></trkpt><trkpt lat="45.1498072" lon="8.0449185"><ele>206.0</ele><time>2026-04-12T11:27:23.677Z</time></trkpt><trkpt lat="45.1498738" lon="8.0450391"><ele>206.0</ele><time>2026-04-12T11:27:24.677Z</time></trkpt><trkpt lat="45.1499254" lon="8.0451725"><ele>206.20000000000002</ele><time>2026-04-12T11:27:25.677Z</time></trkpt><trkpt lat="45.1499668" lon="8.0453182"><ele>206.4</ele><time>2026-04-12T11:27:26.677Z</time></trkpt><trkpt lat="45.1499904" lon="8.0454725"><ele>206.6</ele><time>2026-04-12T11:27:27.677Z</time></trkpt><trkpt lat="45.150021" lon="8.0456177"><ele>206.8</ele><time>2026-04-12T11:27:28.677Z</time></trkpt><trkpt lat="45.1500576" lon="8.0457602"><ele>207.0</ele><time>2026-04-12T11:27:29.676Z</time></trkpt><trkpt lat="45.1501172" lon="8.045887"><ele>207.0</ele><time>2026-04-12T11:27:30.677Z</time></trkpt><trkpt lat="45.150193" lon="8.0459789"><ele>207.0</ele><time>2026-04-12T11:27:31.677Z</time></trkpt><trkpt lat="45.1502941" lon="8.0460717"><ele>207.0</ele><time>2026-04-12T11:27:32.677Z</time></trkpt><trkpt lat="45.1504061" lon="8.0461375"><ele>207.0</ele><time>2026-04-12T11:27:33.677Z</time></trkpt><trkpt lat="45.1505163" lon="8.046207"><ele>207.0</ele><time>2026-04-12T11:27:34.677Z</time></trkpt><trkpt lat="45.150623" lon="8.0462807"><ele>207.0</ele><time>2026-04-12T11:27:35.676Z</time></trkpt><trkpt lat="45.1507189" lon="8.0463514"><ele>207.0</ele><time>2026-04-12T11:27:36.677Z</time></trkpt><trkpt lat="45.1507974" lon="8.0464044"><ele>207.0</ele><time>2026-04-12T11:27:37.677Z</time></trkpt><trkpt lat="45.1508933" lon="8.0464871"><ele>207.0</ele><time>2026-04-12T11:27:38.677Z</time></trkpt><trkpt lat="45.1509655" lon="8.0465551"><ele>207.0</ele><time>2026-04-12T11:27:39.676Z</time></trkpt><trkpt lat="45.1510286" lon="8.0466528"><ele>207.0</ele><time>2026-04-12T11:27:40.677Z</time></trkpt><trkpt lat="45.1510908" lon="8.0467576"><ele>207.0</ele><time>2026-04-12T11:27:41.677Z</time></trkpt><trkpt lat="45.1511551" lon="8.046899"><ele>207.0</ele><time>2026-04-12T11:27:42.677Z</time></trkpt><trkpt lat="45.1511937" lon="8.0470139"><ele>207.0</ele><time>2026-04-12T11:27:43.677Z</time></trkpt><trkpt lat="45.1512378" lon="8.0471445"><ele>207.0</ele><time>2026-04-12T11:27:44.677Z</time></trkpt><trkpt lat="45.1512799" lon="8.0472582"><ele>207.0</ele><time>2026-04-12T11:27:45.677Z</time></trkpt><trkpt lat="45.1513203" lon="8.0473709"><ele>207.0</ele><time>2026-04-12T11:27:46.677Z</time></trkpt><trkpt lat="45.1513638" lon="8.0474763"><ele>207.0</ele><time>2026-04-12T11:27:47.677Z</time></trkpt><trkpt lat="45.1513858" lon="8.0475892"><ele>207.0</ele><time>2026-04-12T11:27:48.676Z</time></trkpt><trkpt lat="45.1514219" lon="8.0476896"><ele>207.0</ele><time>2026-04-12T11:27:49.677Z</time></trkpt><trkpt lat="45.1514523" lon="8.0477789"><ele>206.2</ele><time>2026-04-12T11:27:50.677Z</time></trkpt><trkpt lat="45.1514915" lon="8.0478747"><ele>205.39999999999998</ele><time>2026-04-12T11:27:51.677Z</time></trkpt><trkpt lat="45.1515485" lon="8.0479901"><ele>204.60000000000002</ele><time>2026-04-12T11:27:52.676Z</time></trkpt><trkpt lat="45.1516015" lon="8.0481027"><ele>203.8</ele><time>2026-04-12T11:27:53.677Z</time></trkpt><trkpt lat="45.1516604" lon="8.0481973"><ele>203.0</ele><time>2026-04-12T11:27:54.677Z</time></trkpt><trkpt lat="45.1517312" lon="8.0482881"><ele>202.60000000000002</ele><time>2026-04-12T11:27:55.677Z</time></trkpt><trkpt lat="45.1517914" lon="8.0483854"><ele>202.20000000000002</ele><time>2026-04-12T11:27:56.677Z</time></trkpt><trkpt lat="45.1518531" lon="8.0484809"><ele>201.8</ele><time>2026-04-12T11:27:57.677Z</time></trkpt><trkpt lat="45.151912" lon="8.0485742"><ele>201.4</ele><time>2026-04-12T11:27:58.676Z</time></trkpt><trkpt lat="45.1519773" lon="8.0486772"><ele>201.0</ele><time>2026-04-12T11:27:59.677Z</time></trkpt><trkpt lat="45.1520526" lon="8.0487764"><ele>201.0</ele><time>2026-04-12T11:28:00.677Z</time></trkpt><trkpt lat="45.1521328" lon="8.04887"><ele>201.0</ele><time>2026-04-12T11:28:01.677Z</time></trkpt><trkpt lat="45.1522158" lon="8.0489506"><ele>201.0</ele><time>2026-04-12T11:28:02.677Z</time></trkpt><trkpt lat="45.1522946" lon="8.049026"><ele>201.0</ele><time>2026-04-12T11:28:03.677Z</time></trkpt><trkpt lat="45.1523854" lon="8.0490913"><ele>201.0</ele><time>2026-04-12T11:28:04.677Z</time></trkpt><trkpt lat="45.1524688" lon="8.0491574"><ele>199.16666666666666</ele><time>2026-04-12T11:28:05.677Z</time></trkpt><trkpt lat="45.152548" lon="8.0492226"><ele>197.33333333333334</ele><time>2026-04-12T11:28:06.677Z</time></trkpt><trkpt lat="45.1526251" lon="8.0492923"><ele>195.5</ele><time>2026-04-12T11:28:07.677Z</time></trkpt><trkpt lat="45.1526928" lon="8.0493622"><ele>193.66666666666669</ele><time>2026-04-12T11:28:08.677Z</time></trkpt><trkpt lat="45.1527549" lon="8.0494402"><ele>191.83333333333334</ele><time>2026-04-12T11:28:09.677Z</time></trkpt><trkpt lat="45.1528009" lon="8.0495032"><ele>190.0</ele><time>2026-04-12T11:28:10.677Z</time></trkpt><trkpt lat="45.1528569" lon="8.0496716"><ele>190.0</ele><time>2026-04-12T11:28:12.677Z</time></trkpt><trkpt lat="45.1528535" lon="8.049781"><ele>190.0</ele><time>2026-04-12T11:28:13.677Z</time></trkpt><trkpt lat="45.1528491" lon="8.0498933"><ele>190.0</ele><time>2026-04-12T11:28:14.677Z</time></trkpt><trkpt lat="45.1528427" lon="8.0499959"><ele>190.0</ele><time>2026-04-12T11:28:15.677Z</time></trkpt><trkpt lat="45.1528451" lon="8.0501213"><ele>190.0</ele><time>2026-04-12T11:28:16.677Z</time></trkpt><trkpt lat="45.1528677" lon="8.0502401"><ele>190.0</ele><time>2026-04-12T11:28:17.677Z</time></trkpt><trkpt lat="45.1528964" lon="8.0503404"><ele>188.33333333333334</ele><time>2026-04-12T11:28:18.677Z</time></trkpt><trkpt lat="45.1529359" lon="8.0504302"><ele>186.66666666666669</ele><time>2026-04-12T11:28:19.677Z</time></trkpt><trkpt lat="45.1529811" lon="8.0505071"><ele>185.0</ele><time>2026-04-12T11:28:20.677Z</time></trkpt><trkpt lat="45.1530272" lon="8.0505733"><ele>183.33333333333334</ele><time>2026-04-12T11:28:21.677Z</time></trkpt><trkpt lat="45.1530962" lon="8.050678"><ele>181.66666666666666</ele><time>2026-04-12T11:28:23.677Z</time></trkpt><trkpt lat="45.1531454" lon="8.0507365"><ele>180.0</ele><time>2026-04-12T11:28:26.677Z</time></trkpt><trkpt lat="45.1532176" lon="8.0507988"><ele>179.42857142857142</ele><time>2026-04-12T11:28:53.677Z</time></trkpt><trkpt lat="45.1532342" lon="8.0508924"><ele>178.85714285714286</ele><time>2026-04-12T11:28:55.677Z</time></trkpt><trkpt lat="45.1531565" lon="8.0509703"><ele>178.28571428571428</ele><time>2026-04-12T11:28:57.677Z</time></trkpt><trkpt lat="45.1530978" lon="8.0510028"><ele>177.71428571428572</ele><time>2026-04-12T11:28:58.677Z</time></trkpt><trkpt lat="45.1530345" lon="8.0510376"><ele>177.14285714285714</ele><time>2026-04-12T11:28:59.676Z</time></trkpt><trkpt lat="45.1529681" lon="8.0510701"><ele>176.57142857142858</ele><time>2026-04-12T11:29:00.677Z</time></trkpt><trkpt lat="45.1528995" lon="8.0511056"><ele>176.0</ele><time>2026-04-12T11:29:01.677Z</time></trkpt><trkpt lat="45.1528302" lon="8.0511568"><ele>176.0</ele><time>2026-04-12T11:29:02.677Z</time></trkpt><trkpt lat="45.1527609" lon="8.0512076"><ele>176.0</ele><time>2026-04-12T11:29:03.677Z</time></trkpt><trkpt lat="45.1526887" lon="8.0512371"><ele>176.0</ele><time>2026-04-12T11:29:04.677Z</time></trkpt><trkpt lat="45.1526206" lon="8.051279"><ele>176.0</ele><time>2026-04-12T11:29:05.677Z</time></trkpt><trkpt lat="45.1525536" lon="8.0513193"><ele>176.0</ele><time>2026-04-12T11:29:06.677Z</time></trkpt><trkpt lat="45.1524969" lon="8.0513684"><ele>176.0</ele><time>2026-04-12T11:29:07.677Z</time></trkpt><trkpt lat="45.1524408" lon="8.0514166"><ele>176.0</ele><time>2026-04-12T11:29:08.677Z</time></trkpt><trkpt lat="45.1523751" lon="8.0514552"><ele>176.16666666666666</ele><time>2026-04-12T11:29:09.677Z</time></trkpt><trkpt lat="45.1523152" lon="8.0514979"><ele>176.33333333333331</ele><time>2026-04-12T11:29:10.677Z</time></trkpt><trkpt lat="45.152244" lon="8.0516047"><ele>176.5</ele><time>2026-04-12T11:29:12.677Z</time></trkpt><trkpt lat="45.1522315" lon="8.0517013"><ele>176.66666666666666</ele><time>2026-04-12T11:29:13.677Z</time></trkpt><trkpt lat="45.1522491" lon="8.0518148"><ele>176.83333333333334</ele><time>2026-04-12T11:29:14.677Z</time></trkpt><trkpt lat="45.1522804" lon="8.0519238"><ele>177.0</ele><time>2026-04-12T11:29:15.677Z</time></trkpt><trkpt lat="45.1523243" lon="8.0520433"><ele>177.0</ele><time>2026-04-12T11:29:16.677Z</time></trkpt><trkpt lat="45.1523658" lon="8.0521592"><ele>177.0</ele><time>2026-04-12T11:29:17.677Z</time></trkpt><trkpt lat="45.1524076" lon="8.0522802"><ele>177.0</ele><time>2026-04-12T11:29:18.677Z</time></trkpt><trkpt lat="45.1524497" lon="8.0524024"><ele>177.0</ele><time>2026-04-12T11:29:19.676Z</time></trkpt><trkpt lat="45.1525017" lon="8.0525469"><ele>177.0</ele><time>2026-04-12T11:29:20.677Z</time></trkpt><trkpt lat="45.1525497" lon="8.052681"><ele>176.75</ele><time>2026-04-12T11:29:21.677Z</time></trkpt><trkpt lat="45.152597" lon="8.0528227"><ele>176.5</ele><time>2026-04-12T11:29:22.677Z</time></trkpt><trkpt lat="45.1526414" lon="8.0529706"><ele>176.25</ele><time>2026-04-12T11:29:23.677Z</time></trkpt><trkpt lat="45.1526823" lon="8.0531122"><ele>176.0</ele><time>2026-04-12T11:29:24.677Z</time></trkpt><trkpt lat="45.1527337" lon="8.0532653"><ele>175.5</ele><time>2026-04-12T11:29:25.677Z</time></trkpt><trkpt lat="45.1527823" lon="8.0534124"><ele>175.0</ele><time>2026-04-12T11:29:26.677Z</time></trkpt><trkpt lat="45.1528329" lon="8.053564"><ele>174.5</ele><time>2026-04-12T11:29:27.677Z</time></trkpt><trkpt lat="45.152884" lon="8.0537119"><ele>174.0</ele><time>2026-04-12T11:29:28.676Z</time></trkpt><trkpt lat="45.1529382" lon="8.0538693"><ele>174.0</ele><time>2026-04-12T11:29:29.677Z</time></trkpt><trkpt lat="45.1529921" lon="8.0540341"><ele>174.0</ele><time>2026-04-12T11:29:30.677Z</time></trkpt><trkpt lat="45.1530419" lon="8.0541809"><ele>174.0</ele><time>2026-04-12T11:29:31.677Z</time></trkpt><trkpt lat="45.1530979" lon="8.054338"><ele>174.0</ele><time>2026-04-12T11:29:32.676Z</time></trkpt><trkpt lat="45.1531547" lon="8.0544952"><ele>174.0</ele><time>2026-04-12T11:29:33.677Z</time></trkpt><trkpt lat="45.1532079" lon="8.0546322"><ele>174.0</ele><time>2026-04-12T11:29:34.677Z</time></trkpt><trkpt lat="45.153268" lon="8.0547931"><ele>174.0</ele><time>2026-04-12T11:29:35.677Z</time></trkpt><trkpt lat="45.1533169" lon="8.0549458"><ele>174.0</ele><time>2026-04-12T11:29:36.677Z</time></trkpt><trkpt lat="45.1533647" lon="8.0551"><ele>174.0</ele><time>2026-04-12T11:29:37.677Z</time></trkpt><trkpt lat="45.1534147" lon="8.055249"><ele>174.0</ele><time>2026-04-12T11:29:38.677Z</time></trkpt><trkpt lat="45.1534682" lon="8.0554078"><ele>174.0</ele><time>2026-04-12T11:29:39.677Z</time></trkpt><trkpt lat="45.1535269" lon="8.0555561"><ele>174.0</ele><time>2026-04-12T11:29:40.677Z</time></trkpt><trkpt lat="45.1535787" lon="8.0557059"><ele>174.0</ele><time>2026-04-12T11:29:41.676Z</time></trkpt><trkpt lat="45.1536216" lon="8.0558528"><ele>174.0</ele><time>2026-04-12T11:29:42.677Z</time></trkpt><trkpt lat="45.1536614" lon="8.055985"><ele>174.0</ele><time>2026-04-12T11:29:43.677Z</time></trkpt><trkpt lat="45.1537175" lon="8.0561018"><ele>174.0</ele><time>2026-04-12T11:29:44.677Z</time></trkpt><trkpt lat="45.1537922" lon="8.0561903"><ele>174.0</ele><time>2026-04-12T11:29:45.677Z</time></trkpt><trkpt lat="45.1538894" lon="8.0562657"><ele>174.0</ele><time>2026-04-12T11:29:46.677Z</time></trkpt><trkpt lat="45.153994" lon="8.056345"><ele>174.0</ele><time>2026-04-12T11:29:47.677Z</time></trkpt><trkpt lat="45.1540822" lon="8.056445"><ele>174.0</ele><time>2026-04-12T11:29:48.677Z</time></trkpt><trkpt lat="45.1541792" lon="8.056559"><ele>174.0</ele><time>2026-04-12T11:29:49.676Z</time></trkpt><trkpt lat="45.15427" lon="8.056676"><ele>173.5</ele><time>2026-04-12T11:29:50.677Z</time></trkpt><trkpt lat="45.1543661" lon="8.0567981"><ele>173.0</ele><time>2026-04-12T11:29:51.677Z</time></trkpt><trkpt lat="45.1544528" lon="8.0569253"><ele>172.5</ele><time>2026-04-12T11:29:52.676Z</time></trkpt><trkpt lat="45.1545485" lon="8.0570475"><ele>172.0</ele><time>2026-04-12T11:29:53.677Z</time></trkpt><trkpt lat="45.1546541" lon="8.0571657"><ele>172.0</ele><time>2026-04-12T11:29:54.677Z</time></trkpt><trkpt lat="45.1547571" lon="8.0572843"><ele>172.0</ele><time>2026-04-12T11:29:55.676Z</time></trkpt><trkpt lat="45.1548693" lon="8.0574096"><ele>172.0</ele><time>2026-04-12T11:29:56.677Z</time></trkpt><trkpt lat="45.1549711" lon="8.057536"><ele>172.0</ele><time>2026-04-12T11:29:57.677Z</time></trkpt><trkpt lat="45.1550735" lon="8.0576616"><ele>172.0</ele><time>2026-04-12T11:29:58.677Z</time></trkpt><trkpt lat="45.1551799" lon="8.0577997"><ele>172.0</ele><time>2026-04-12T11:29:59.677Z</time></trkpt><trkpt lat="45.1552787" lon="8.0579256"><ele>172.0</ele><time>2026-04-12T11:30:00.677Z</time></trkpt><trkpt lat="45.1553872" lon="8.0580546"><ele>172.0</ele><time>2026-04-12T11:30:01.677Z</time></trkpt><trkpt lat="45.1554886" lon="8.0581772"><ele>171.75</ele><time>2026-04-12T11:30:02.677Z</time></trkpt><trkpt lat="45.1555859" lon="8.0583088"><ele>171.5</ele><time>2026-04-12T11:30:03.677Z</time></trkpt><trkpt lat="45.1556821" lon="8.0584505"><ele>171.25</ele><time>2026-04-12T11:30:04.677Z</time></trkpt><trkpt lat="45.1557699" lon="8.0585987"><ele>171.0</ele><time>2026-04-12T11:30:05.677Z</time></trkpt><trkpt lat="45.1558431" lon="8.0587452"><ele>171.0</ele><time>2026-04-12T11:30:06.677Z</time></trkpt><trkpt lat="45.1559035" lon="8.0588914"><ele>171.0</ele><time>2026-04-12T11:30:07.677Z</time></trkpt><trkpt lat="45.1559578" lon="8.0590213"><ele>171.0</ele><time>2026-04-12T11:30:08.677Z</time></trkpt><trkpt lat="45.1559934" lon="8.0591448"><ele>171.0</ele><time>2026-04-12T11:30:09.677Z</time></trkpt><trkpt lat="45.156027" lon="8.0592667"><ele>171.0</ele><time>2026-04-12T11:30:10.677Z</time></trkpt><trkpt lat="45.1560578" lon="8.0594045"><ele>171.0</ele><time>2026-04-12T11:30:11.677Z</time></trkpt><trkpt lat="45.1560857" lon="8.0595391"><ele>171.0</ele><time>2026-04-12T11:30:12.677Z</time></trkpt><trkpt lat="45.1561094" lon="8.0596645"><ele>171.0</ele><time>2026-04-12T11:30:13.677Z</time></trkpt><trkpt lat="45.1561327" lon="8.0597929"><ele>171.0</ele><time>2026-04-12T11:30:14.677Z</time></trkpt><trkpt lat="45.1561405" lon="8.0599084"><ele>171.0</ele><time>2026-04-12T11:30:15.677Z</time></trkpt><trkpt lat="45.1561488" lon="8.060034"><ele>171.0</ele><time>2026-04-12T11:30:16.677Z</time></trkpt><trkpt lat="45.1561618" lon="8.0601866"><ele>171.0</ele><time>2026-04-12T11:30:17.677Z</time></trkpt><trkpt lat="45.1561656" lon="8.06035"><ele>171.0</ele><time>2026-04-12T11:30:18.677Z</time></trkpt><trkpt lat="45.156168" lon="8.0605363"><ele>171.0</ele><time>2026-04-12T11:30:19.677Z</time></trkpt><trkpt lat="45.156154" lon="8.060737"><ele>170.75</ele><time>2026-04-12T11:30:20.677Z</time></trkpt><trkpt lat="45.1561342" lon="8.0609334"><ele>170.5</ele><time>2026-04-12T11:30:21.677Z</time></trkpt><trkpt lat="45.1561206" lon="8.0611268"><ele>170.25</ele><time>2026-04-12T11:30:22.677Z</time></trkpt><trkpt lat="45.1561084" lon="8.0613139"><ele>170.0</ele><time>2026-04-12T11:30:23.677Z</time></trkpt><trkpt lat="45.1561" lon="8.0615227"><ele>169.75</ele><time>2026-04-12T11:30:24.676Z</time></trkpt><trkpt lat="45.1560842" lon="8.0617284"><ele>169.5</ele><time>2026-04-12T11:30:25.676Z</time></trkpt><trkpt lat="45.1560708" lon="8.0619316"><ele>169.25</ele><time>2026-04-12T11:30:26.676Z</time></trkpt><trkpt lat="45.1560507" lon="8.0621393"><ele>169.0</ele><time>2026-04-12T11:30:27.677Z</time></trkpt><trkpt lat="45.15603" lon="8.0623543"><ele>169.5</ele><time>2026-04-12T11:30:28.677Z</time></trkpt><trkpt lat="45.156003" lon="8.0625677"><ele>170.0</ele><time>2026-04-12T11:30:29.677Z</time></trkpt><trkpt lat="45.1559754" lon="8.0627779"><ele>170.5</ele><time>2026-04-12T11:30:30.677Z</time></trkpt><trkpt lat="45.1559547" lon="8.0629767"><ele>171.0</ele><time>2026-04-12T11:30:31.677Z</time></trkpt><trkpt lat="45.1559223" lon="8.0631852"><ele>170.66666666666666</ele><time>2026-04-12T11:30:32.677Z</time></trkpt><trkpt lat="45.1558909" lon="8.0633984"><ele>170.33333333333331</ele><time>2026-04-12T11:30:33.677Z</time></trkpt><trkpt lat="45.1558534" lon="8.0636058"><ele>170.0</ele><time>2026-04-12T11:30:34.677Z</time></trkpt><trkpt lat="45.1558244" lon="8.0638116"><ele>170.0</ele><time>2026-04-12T11:30:35.677Z</time></trkpt><trkpt lat="45.1557952" lon="8.0640185"><ele>170.0</ele><time>2026-04-12T11:30:36.677Z</time></trkpt><trkpt lat="45.1557628" lon="8.0642241"><ele>170.0</ele><time>2026-04-12T11:30:37.677Z</time></trkpt><trkpt lat="45.1557283" lon="8.0644374"><ele>171.25</ele><time>2026-04-12T11:30:38.677Z</time></trkpt><trkpt lat="45.1556996" lon="8.0646412"><ele>172.5</ele><time>2026-04-12T11:30:39.677Z</time></trkpt><trkpt lat="45.1556625" lon="8.0648591"><ele>173.75</ele><time>2026-04-12T11:30:40.677Z</time></trkpt><trkpt lat="45.1556359" lon="8.0650512"><ele>175.0</ele><time>2026-04-12T11:30:41.676Z</time></trkpt><trkpt lat="45.1556178" lon="8.0652295"><ele>175.0</ele><time>2026-04-12T11:30:42.677Z</time></trkpt><trkpt lat="45.1555983" lon="8.065394"><ele>175.0</ele><time>2026-04-12T11:30:43.677Z</time></trkpt><trkpt lat="45.15557" lon="8.0655309"><ele>175.0</ele><time>2026-04-12T11:30:44.677Z</time></trkpt><trkpt lat="45.1555141" lon="8.0656447"><ele>175.0</ele><time>2026-04-12T11:30:45.677Z</time></trkpt><trkpt lat="45.1554409" lon="8.0657375"><ele>175.0</ele><time>2026-04-12T11:30:46.677Z</time></trkpt><trkpt lat="45.1553922" lon="8.0658222"><ele>175.0</ele><time>2026-04-12T11:30:47.677Z</time></trkpt><trkpt lat="45.1553655" lon="8.0659113"><ele>175.0</ele><time>2026-04-12T11:30:48.677Z</time></trkpt><trkpt lat="45.1553642" lon="8.0660153"><ele>175.0</ele><time>2026-04-12T11:30:49.676Z</time></trkpt><trkpt lat="45.1554018" lon="8.0661028"><ele>175.0</ele><time>2026-04-12T11:30:50.677Z</time></trkpt><trkpt lat="45.1554724" lon="8.0661602"><ele>175.0</ele><time>2026-04-12T11:30:51.677Z</time></trkpt><trkpt lat="45.1555659" lon="8.0662163"><ele>175.0</ele><time>2026-04-12T11:30:52.677Z</time></trkpt><trkpt lat="45.1556414" lon="8.0663212"><ele>175.0</ele><time>2026-04-12T11:30:53.677Z</time></trkpt><trkpt lat="45.1557031" lon="8.0664621"><ele>175.0</ele><time>2026-04-12T11:30:54.676Z</time></trkpt><trkpt lat="45.1557561" lon="8.0666378"><ele>175.0</ele><time>2026-04-12T11:30:55.677Z</time></trkpt><trkpt lat="45.1558036" lon="8.066811"><ele>175.0</ele><time>2026-04-12T11:30:56.677Z</time></trkpt><trkpt lat="45.1558552" lon="8.066982"><ele>174.25</ele><time>2026-04-12T11:30:57.677Z</time></trkpt><trkpt lat="45.1559088" lon="8.0671729"><ele>173.5</ele><time>2026-04-12T11:30:58.676Z</time></trkpt><trkpt lat="45.1559631" lon="8.0673653"><ele>172.75</ele><time>2026-04-12T11:30:59.677Z</time></trkpt><trkpt lat="45.1560161" lon="8.0675629"><ele>172.0</ele><time>2026-04-12T11:31:00.677Z</time></trkpt><trkpt lat="45.1560693" lon="8.0677728"><ele>172.0</ele><time>2026-04-12T11:31:01.677Z</time></trkpt><trkpt lat="45.1561282" lon="8.067976"><ele>172.0</ele><time>2026-04-12T11:31:02.677Z</time></trkpt><trkpt lat="45.1561857" lon="8.0681875"><ele>172.0</ele><time>2026-04-12T11:31:03.677Z</time></trkpt><trkpt lat="45.1562425" lon="8.0683952"><ele>172.66666666666669</ele><time>2026-04-12T11:31:04.677Z</time></trkpt><trkpt lat="45.156293" lon="8.0686075"><ele>173.33333333333334</ele><time>2026-04-12T11:31:05.677Z</time></trkpt><trkpt lat="45.1563541" lon="8.0688211"><ele>174.0</ele><time>2026-04-12T11:31:06.677Z</time></trkpt><trkpt lat="45.1564117" lon="8.06903"><ele>173.66666666666666</ele><time>2026-04-12T11:31:07.677Z</time></trkpt><trkpt lat="45.1564708" lon="8.0692414"><ele>173.33333333333331</ele><time>2026-04-12T11:31:08.677Z</time></trkpt><trkpt lat="45.1565236" lon="8.0694491"><ele>173.0</ele><time>2026-04-12T11:31:09.677Z</time></trkpt><trkpt lat="45.1565798" lon="8.0696676"><ele>173.0</ele><time>2026-04-12T11:31:10.676Z</time></trkpt><trkpt lat="45.1566404" lon="8.0698694"><ele>173.0</ele><time>2026-04-12T11:31:11.677Z</time></trkpt><trkpt lat="45.1566985" lon="8.0700773"><ele>173.0</ele><time>2026-04-12T11:31:12.676Z</time></trkpt><trkpt lat="45.1567593" lon="8.0702865"><ele>172.66666666666666</ele><time>2026-04-12T11:31:13.677Z</time></trkpt><trkpt lat="45.1568141" lon="8.070503"><ele>172.33333333333334</ele><time>2026-04-12T11:31:14.677Z</time></trkpt><trkpt lat="45.1568703" lon="8.07071"><ele>172.0</ele><time>2026-04-12T11:31:15.677Z</time></trkpt><trkpt lat="45.1569351" lon="8.0709158"><ele>172.0</ele><time>2026-04-12T11:31:16.676Z</time></trkpt><trkpt lat="45.1569918" lon="8.0711273"><ele>172.0</ele><time>2026-04-12T11:31:17.676Z</time></trkpt><trkpt lat="45.1570468" lon="8.071343"><ele>172.0</ele><time>2026-04-12T11:31:18.677Z</time></trkpt><trkpt lat="45.157103" lon="8.0715563"><ele>172.33333333333334</ele><time>2026-04-12T11:31:19.677Z</time></trkpt><trkpt lat="45.1571607" lon="8.0717594"><ele>172.66666666666666</ele><time>2026-04-12T11:31:20.677Z</time></trkpt><trkpt lat="45.1572161" lon="8.0719656"><ele>173.0</ele><time>2026-04-12T11:31:21.677Z</time></trkpt><trkpt lat="45.1572685" lon="8.0721673"><ele>173.0</ele><time>2026-04-12T11:31:22.677Z</time></trkpt><trkpt lat="45.1573239" lon="8.072387"><ele>173.0</ele><time>2026-04-12T11:31:23.677Z</time></trkpt><trkpt lat="45.1573806" lon="8.0726019"><ele>173.0</ele><time>2026-04-12T11:31:24.677Z</time></trkpt><trkpt lat="45.1574428" lon="8.0728097"><ele>172.75</ele><time>2026-04-12T11:31:25.677Z</time></trkpt><trkpt lat="45.1575018" lon="8.0730128"><ele>172.5</ele><time>2026-04-12T11:31:26.677Z</time></trkpt><trkpt lat="45.1575577" lon="8.0732024"><ele>172.25</ele><time>2026-04-12T11:31:27.676Z</time></trkpt><trkpt lat="45.1576168" lon="8.0733865"><ele>172.0</ele><time>2026-04-12T11:31:28.677Z</time></trkpt><trkpt lat="45.1576621" lon="8.073537"><ele>171.8</ele><time>2026-04-12T11:31:29.677Z</time></trkpt><trkpt lat="45.1576995" lon="8.0736759"><ele>171.6</ele><time>2026-04-12T11:31:30.677Z</time></trkpt><trkpt lat="45.1577227" lon="8.0738272"><ele>171.4</ele><time>2026-04-12T11:31:31.677Z</time></trkpt><trkpt lat="45.1577372" lon="8.0739817"><ele>171.20000000000002</ele><time>2026-04-12T11:31:32.677Z</time></trkpt><trkpt lat="45.1577264" lon="8.0741369"><ele>171.0</ele><time>2026-04-12T11:31:33.677Z</time></trkpt><trkpt lat="45.1577218" lon="8.0742897"><ele>171.0</ele><time>2026-04-12T11:31:34.677Z</time></trkpt><trkpt lat="45.15766" lon="8.0744734"><ele>171.0</ele><time>2026-04-12T11:31:35.677Z</time></trkpt><trkpt lat="45.1576325" lon="8.0746569"><ele>171.0</ele><time>2026-04-12T11:31:36.677Z</time></trkpt><trkpt lat="45.15757" lon="8.0748354"><ele>171.0</ele><time>2026-04-12T11:31:37.677Z</time></trkpt><trkpt lat="45.1575063" lon="8.0750235"><ele>172.0</ele><time>2026-04-12T11:31:38.677Z</time></trkpt><trkpt lat="45.1574335" lon="8.0752061"><ele>173.0</ele><time>2026-04-12T11:31:39.677Z</time></trkpt><trkpt lat="45.1573725" lon="8.0753972"><ele>174.0</ele><time>2026-04-12T11:31:40.677Z</time></trkpt><trkpt lat="45.1573106" lon="8.0755819"><ele>175.0</ele><time>2026-04-12T11:31:41.676Z</time></trkpt><trkpt lat="45.1572473" lon="8.0757698"><ele>176.66666666666669</ele><time>2026-04-12T11:31:42.677Z</time></trkpt><trkpt lat="45.1571851" lon="8.0759615"><ele>178.33333333333334</ele><time>2026-04-12T11:31:43.677Z</time></trkpt><trkpt lat="45.1571223" lon="8.0761587"><ele>180.0</ele><time>2026-04-12T11:31:44.677Z</time></trkpt><trkpt lat="45.1570561" lon="8.0763693"><ele>180.0</ele><time>2026-04-12T11:31:45.677Z</time></trkpt><trkpt lat="45.1569683" lon="8.0765513"><ele>180.0</ele><time>2026-04-12T11:31:46.677Z</time></trkpt><trkpt lat="45.1568643" lon="8.0767002"><ele>180.0</ele><time>2026-04-12T11:31:47.677Z</time></trkpt><trkpt lat="45.1567416" lon="8.0768318"><ele>180.25</ele><time>2026-04-12T11:31:48.677Z</time></trkpt><trkpt lat="45.1566254" lon="8.0769642"><ele>180.5</ele><time>2026-04-12T11:31:49.677Z</time></trkpt><trkpt lat="45.1565114" lon="8.0770706"><ele>180.75</ele><time>2026-04-12T11:31:50.677Z</time></trkpt><trkpt lat="45.1564222" lon="8.0772005"><ele>181.0</ele><time>2026-04-12T11:31:51.677Z</time></trkpt><trkpt lat="45.1563684" lon="8.0773367"><ele>182.5</ele><time>2026-04-12T11:31:52.677Z</time></trkpt><trkpt lat="45.1563371" lon="8.077509"><ele>184.0</ele><time>2026-04-12T11:31:53.677Z</time></trkpt><trkpt lat="45.1563506" lon="8.0777012"><ele>185.5</ele><time>2026-04-12T11:31:54.677Z</time></trkpt><trkpt lat="45.1563774" lon="8.0778971"><ele>187.0</ele><time>2026-04-12T11:31:55.677Z</time></trkpt><trkpt lat="45.156395" lon="8.0781031"><ele>189.0</ele><time>2026-04-12T11:31:56.676Z</time></trkpt><trkpt lat="45.1563901" lon="8.0783229"><ele>191.0</ele><time>2026-04-12T11:31:57.677Z</time></trkpt><trkpt lat="45.1563661" lon="8.0785351"><ele>193.0</ele><time>2026-04-12T11:31:58.677Z</time></trkpt><trkpt lat="45.1563174" lon="8.0787453"><ele>193.0</ele><time>2026-04-12T11:31:59.677Z</time></trkpt><trkpt lat="45.1562531" lon="8.0789535"><ele>193.0</ele><time>2026-04-12T11:32:00.676Z</time></trkpt><trkpt lat="45.156144" lon="8.0791255"><ele>193.0</ele><time>2026-04-12T11:32:01.677Z</time></trkpt><trkpt lat="45.1560302" lon="8.0792982"><ele>194.66666666666666</ele><time>2026-04-12T11:32:02.677Z</time></trkpt><trkpt lat="45.1559146" lon="8.0794614"><ele>196.33333333333331</ele><time>2026-04-12T11:32:03.677Z</time></trkpt><trkpt lat="45.1558091" lon="8.0796387"><ele>198.0</ele><time>2026-04-12T11:32:04.677Z</time></trkpt><trkpt lat="45.1557163" lon="8.0798229"><ele>198.0</ele><time>2026-04-12T11:32:05.677Z</time></trkpt><trkpt lat="45.1556258" lon="8.0800215"><ele>198.0</ele><time>2026-04-12T11:32:06.677Z</time></trkpt><trkpt lat="45.1555482" lon="8.0802271"><ele>198.0</ele><time>2026-04-12T11:32:07.677Z</time></trkpt><trkpt lat="45.1554843" lon="8.0804177"><ele>198.0</ele><time>2026-04-12T11:32:08.677Z</time></trkpt><trkpt lat="45.1554231" lon="8.0805989"><ele>198.0</ele><time>2026-04-12T11:32:09.676Z</time></trkpt><trkpt lat="45.1553695" lon="8.0807695"><ele>198.0</ele><time>2026-04-12T11:32:10.677Z</time></trkpt><trkpt lat="45.1553225" lon="8.0808967"><ele>198.0</ele><time>2026-04-12T11:32:11.677Z</time></trkpt><trkpt lat="45.1552849" lon="8.0810012"><ele>199.33333333333334</ele><time>2026-04-12T11:32:12.677Z</time></trkpt><trkpt lat="45.1552685" lon="8.0810961"><ele>200.66666666666669</ele><time>2026-04-12T11:32:13.677Z</time></trkpt><trkpt lat="45.1552951" lon="8.081207"><ele>202.0</ele><time>2026-04-12T11:32:14.677Z</time></trkpt><trkpt lat="45.1553424" lon="8.081273"><ele>203.33333333333334</ele><time>2026-04-12T11:32:15.677Z</time></trkpt><trkpt lat="45.1554095" lon="8.0812927"><ele>204.66666666666669</ele><time>2026-04-12T11:32:16.677Z</time></trkpt><trkpt lat="45.1554794" lon="8.0812576"><ele>206.0</ele><time>2026-04-12T11:32:17.677Z</time></trkpt><trkpt lat="45.155555" lon="8.0811795"><ele>206.0</ele><time>2026-04-12T11:32:18.677Z</time></trkpt><trkpt lat="45.1556253" lon="8.0810788"><ele>206.0</ele><time>2026-04-12T11:32:19.677Z</time></trkpt><trkpt lat="45.1556932" lon="8.0809649"><ele>206.0</ele><time>2026-04-12T11:32:20.677Z</time></trkpt><trkpt lat="45.1557664" lon="8.0808481"><ele>206.0</ele><time>2026-04-12T11:32:21.677Z</time></trkpt><trkpt lat="45.1558381" lon="8.0807263"><ele>206.0</ele><time>2026-04-12T11:32:22.677Z</time></trkpt><trkpt lat="45.1559039" lon="8.0806203"><ele>206.50000000000003</ele><time>2026-04-12T11:32:23.677Z</time></trkpt><trkpt lat="45.1559656" lon="8.0805077"><ele>207.0</ele><time>2026-04-12T11:32:24.677Z</time></trkpt><trkpt lat="45.1560329" lon="8.0804267"><ele>207.5</ele><time>2026-04-12T11:32:25.677Z</time></trkpt><trkpt lat="45.1561026" lon="8.080385"><ele>208.0</ele><time>2026-04-12T11:32:26.676Z</time></trkpt><trkpt lat="45.1561689" lon="8.0803812"><ele>208.50000000000003</ele><time>2026-04-12T11:32:27.677Z</time></trkpt><trkpt lat="45.1562395" lon="8.0805128"><ele>209.0</ele><time>2026-04-12T11:32:29.676Z</time></trkpt><trkpt lat="45.156231" lon="8.0806274"><ele>211.2</ele><time>2026-04-12T11:32:30.677Z</time></trkpt><trkpt lat="45.1562105" lon="8.0807694"><ele>213.39999999999998</ele><time>2026-04-12T11:32:31.677Z</time></trkpt><trkpt lat="45.1561811" lon="8.0809029"><ele>215.6</ele><time>2026-04-12T11:32:32.677Z</time></trkpt><trkpt lat="45.1561505" lon="8.0810517"><ele>217.8</ele><time>2026-04-12T11:32:33.677Z</time></trkpt><trkpt lat="45.156124" lon="8.0811995"><ele>220.0</ele><time>2026-04-12T11:32:34.677Z</time></trkpt><trkpt lat="45.156098" lon="8.0813661"><ele>220.0</ele><time>2026-04-12T11:32:35.677Z</time></trkpt><trkpt lat="45.1560666" lon="8.0815481"><ele>220.0</ele><time>2026-04-12T11:32:36.677Z</time></trkpt><trkpt lat="45.1560304" lon="8.08172"><ele>220.0</ele><time>2026-04-12T11:32:37.677Z</time></trkpt><trkpt lat="45.1560026" lon="8.0818818"><ele>220.0</ele><time>2026-04-12T11:32:38.676Z</time></trkpt><trkpt lat="45.1559698" lon="8.0820351"><ele>221.4</ele><time>2026-04-12T11:32:39.677Z</time></trkpt><trkpt lat="45.1559361" lon="8.0821758"><ele>222.8</ele><time>2026-04-12T11:32:40.677Z</time></trkpt><trkpt lat="45.1558967" lon="8.0823121"><ele>224.2</ele><time>2026-04-12T11:32:41.677Z</time></trkpt><trkpt lat="45.1558484" lon="8.0824295"><ele>225.6</ele><time>2026-04-12T11:32:42.677Z</time></trkpt><trkpt lat="45.155803" lon="8.08255"><ele>227.0</ele><time>2026-04-12T11:32:43.677Z</time></trkpt><trkpt lat="45.1557463" lon="8.0826559"><ele>226.8</ele><time>2026-04-12T11:32:44.677Z</time></trkpt><trkpt lat="45.1556984" lon="8.0827717"><ele>226.6</ele><time>2026-04-12T11:32:45.676Z</time></trkpt><trkpt lat="45.1555962" lon="8.0829082"><ele>226.40000000000003</ele><time>2026-04-12T11:32:46.677Z</time></trkpt><trkpt lat="45.1555296" lon="8.0830002"><ele>226.20000000000002</ele><time>2026-04-12T11:32:47.677Z</time></trkpt><trkpt lat="45.1554884" lon="8.0831098"><ele>226.0</ele><time>2026-04-12T11:32:48.677Z</time></trkpt><trkpt lat="45.1554588" lon="8.0832249"><ele>229.0</ele><time>2026-04-12T11:32:49.676Z</time></trkpt><trkpt lat="45.1554495" lon="8.0833374"><ele>232.00000000000003</ele><time>2026-04-12T11:32:50.677Z</time></trkpt><trkpt lat="45.1554668" lon="8.0834568"><ele>235.00000000000003</ele><time>2026-04-12T11:32:51.677Z</time></trkpt><trkpt lat="45.1555139" lon="8.0835727"><ele>238.0</ele><time>2026-04-12T11:32:52.677Z</time></trkpt><trkpt lat="45.1555792" lon="8.0836971"><ele>241.0</ele><time>2026-04-12T11:32:53.677Z</time></trkpt><trkpt lat="45.155644" lon="8.0838086"><ele>241.0</ele><time>2026-04-12T11:32:54.677Z</time></trkpt><trkpt lat="45.1557028" lon="8.0839207"><ele>241.00000000000003</ele><time>2026-04-12T11:32:55.677Z</time></trkpt><trkpt lat="45.1557442" lon="8.0840499"><ele>241.00000000000003</ele><time>2026-04-12T11:32:56.676Z</time></trkpt><trkpt lat="45.1557628" lon="8.0841997"><ele>241.0</ele><time>2026-04-12T11:32:57.677Z</time></trkpt><trkpt lat="45.1557552" lon="8.0843539"><ele>241.0</ele><time>2026-04-12T11:32:58.676Z</time></trkpt><trkpt lat="45.1557161" lon="8.084547"><ele>243.25</ele><time>2026-04-12T11:32:59.677Z</time></trkpt><trkpt lat="45.1556812" lon="8.0847499"><ele>245.5</ele><time>2026-04-12T11:33:00.677Z</time></trkpt><trkpt lat="45.1556218" lon="8.0849271"><ele>247.75</ele><time>2026-04-12T11:33:01.677Z</time></trkpt><trkpt lat="45.1555526" lon="8.0850935"><ele>250.0</ele><time>2026-04-12T11:33:02.677Z</time></trkpt><trkpt lat="45.1554843" lon="8.0852643"><ele>250.75</ele><time>2026-04-12T11:33:03.677Z</time></trkpt><trkpt lat="45.1554229" lon="8.0854521"><ele>251.5</ele><time>2026-04-12T11:33:04.677Z</time></trkpt><trkpt lat="45.1553597" lon="8.0856358"><ele>252.25</ele><time>2026-04-12T11:33:05.677Z</time></trkpt><trkpt lat="45.1553012" lon="8.0858366"><ele>253.0</ele><time>2026-04-12T11:33:06.676Z</time></trkpt><trkpt lat="45.1552676" lon="8.0860472"><ele>254.66666666666666</ele><time>2026-04-12T11:33:07.677Z</time></trkpt><trkpt lat="45.1552528" lon="8.0862548"><ele>256.3333333333333</ele><time>2026-04-12T11:33:08.676Z</time></trkpt><trkpt lat="45.1552578" lon="8.0864734"><ele>258.0</ele><time>2026-04-12T11:33:09.677Z</time></trkpt><trkpt lat="45.1552682" lon="8.086691"><ele>258.0</ele><time>2026-04-12T11:33:10.677Z</time></trkpt><trkpt lat="45.1552653" lon="8.0869031"><ele>258.0</ele><time>2026-04-12T11:33:11.676Z</time></trkpt><trkpt lat="45.1552489" lon="8.0871232"><ele>258.0</ele><time>2026-04-12T11:33:12.677Z</time></trkpt><trkpt lat="45.1551837" lon="8.0872873"><ele>258.0</ele><time>2026-04-12T11:33:13.677Z</time></trkpt><trkpt lat="45.1551061" lon="8.0874425"><ele>258.75</ele><time>2026-04-12T11:33:14.677Z</time></trkpt><trkpt lat="45.1550143" lon="8.0875809"><ele>259.5</ele><time>2026-04-12T11:33:15.677Z</time></trkpt><trkpt lat="45.1549187" lon="8.0876993"><ele>260.25</ele><time>2026-04-12T11:33:16.677Z</time></trkpt><trkpt lat="45.1548492" lon="8.0878345"><ele>261.0</ele><time>2026-04-12T11:33:17.677Z</time></trkpt><trkpt lat="45.1547981" lon="8.0879863"><ele>261.0</ele><time>2026-04-12T11:33:18.677Z</time></trkpt><trkpt lat="45.154783" lon="8.0881446"><ele>261.0</ele><time>2026-04-12T11:33:19.677Z</time></trkpt><trkpt lat="45.1548142" lon="8.0883103"><ele>261.0</ele><time>2026-04-12T11:33:20.677Z</time></trkpt><trkpt lat="45.1548753" lon="8.0884759"><ele>261.0</ele><time>2026-04-12T11:33:21.677Z</time></trkpt><trkpt lat="45.1549501" lon="8.0886503"><ele>261.0</ele><time>2026-04-12T11:33:22.677Z</time></trkpt><trkpt lat="45.15503" lon="8.0888203"><ele>261.0</ele><time>2026-04-12T11:33:23.677Z</time></trkpt><trkpt lat="45.155105" lon="8.0889792"><ele>261.0</ele><time>2026-04-12T11:33:24.676Z</time></trkpt><trkpt lat="45.1551843" lon="8.0891508"><ele>261.0</ele><time>2026-04-12T11:33:25.677Z</time></trkpt><trkpt lat="45.1552684" lon="8.0893271"><ele>263.6666666666667</ele><time>2026-04-12T11:33:26.677Z</time></trkpt><trkpt lat="45.1553567" lon="8.0894992"><ele>266.33333333333337</ele><time>2026-04-12T11:33:27.677Z</time></trkpt><trkpt lat="45.1554583" lon="8.0896841"><ele>269.0</ele><time>2026-04-12T11:33:28.677Z</time></trkpt><trkpt lat="45.1555583" lon="8.0898426"><ele>269.5</ele><time>2026-04-12T11:33:29.677Z</time></trkpt><trkpt lat="45.1556742" lon="8.0899651"><ele>270.0</ele><time>2026-04-12T11:33:30.677Z</time></trkpt><trkpt lat="45.1557856" lon="8.0900912"><ele>270.5</ele><time>2026-04-12T11:33:31.677Z</time></trkpt><trkpt lat="45.1558828" lon="8.0902366"><ele>271.0</ele><time>2026-04-12T11:33:32.677Z</time></trkpt><trkpt lat="45.1559719" lon="8.0903954"><ele>271.0</ele><time>2026-04-12T11:33:33.677Z</time></trkpt><trkpt lat="45.1560579" lon="8.0905592"><ele>271.0</ele><time>2026-04-12T11:33:34.677Z</time></trkpt><trkpt lat="45.1561482" lon="8.0907162"><ele>271.0</ele><time>2026-04-12T11:33:35.676Z</time></trkpt><trkpt lat="45.1562397" lon="8.0908691"><ele>271.0</ele><time>2026-04-12T11:33:36.677Z</time></trkpt><trkpt lat="45.1563281" lon="8.0910395"><ele>270.0</ele><time>2026-04-12T11:33:37.677Z</time></trkpt><trkpt lat="45.156424" lon="8.0912041"><ele>269.0</ele><time>2026-04-12T11:33:38.677Z</time></trkpt><trkpt lat="45.1565196" lon="8.0913736"><ele>268.0</ele><time>2026-04-12T11:33:39.677Z</time></trkpt><trkpt lat="45.1565965" lon="8.0915403"><ele>267.0</ele><time>2026-04-12T11:33:40.677Z</time></trkpt><trkpt lat="45.1566556" lon="8.0917157"><ele>269.75</ele><time>2026-04-12T11:33:41.677Z</time></trkpt><trkpt lat="45.156723" lon="8.0918976"><ele>272.5</ele><time>2026-04-12T11:33:42.677Z</time></trkpt><trkpt lat="45.156778" lon="8.0920654"><ele>275.25</ele><time>2026-04-12T11:33:43.677Z</time></trkpt><trkpt lat="45.1568342" lon="8.0922092"><ele>278.0</ele><time>2026-04-12T11:33:44.677Z</time></trkpt><trkpt lat="45.156889" lon="8.0923231"><ele>280.0</ele><time>2026-04-12T11:33:45.677Z</time></trkpt><trkpt lat="45.1569428" lon="8.09244"><ele>282.0</ele><time>2026-04-12T11:33:46.677Z</time></trkpt><trkpt lat="45.1570006" lon="8.0925552"><ele>284.0</ele><time>2026-04-12T11:33:47.677Z</time></trkpt><trkpt lat="45.1570571" lon="8.0926681"><ele>286.0</ele><time>2026-04-12T11:33:48.676Z</time></trkpt><trkpt lat="45.1571138" lon="8.0927827"><ele>288.0</ele><time>2026-04-12T11:33:49.677Z</time></trkpt><trkpt lat="45.1571649" lon="8.0928983"><ele>288.0</ele><time>2026-04-12T11:33:50.677Z</time></trkpt><trkpt lat="45.1571994" lon="8.0929809"><ele>288.0</ele><time>2026-04-12T11:33:51.677Z</time></trkpt><trkpt lat="45.1572278" lon="8.0930628"><ele>288.0</ele><time>2026-04-12T11:33:52.677Z</time></trkpt><trkpt lat="45.1571903" lon="8.0931707"><ele>288.0</ele><time>2026-04-12T11:33:54.677Z</time></trkpt><trkpt lat="45.157112" lon="8.0932671"><ele>288.0</ele><time>2026-04-12T11:33:56.676Z</time></trkpt><trkpt lat="45.1569628" lon="8.0933341"><ele>288.2</ele><time>2026-04-12T11:33:58.677Z</time></trkpt><trkpt lat="45.1568838" lon="8.0933634"><ele>288.4</ele><time>2026-04-12T11:33:59.677Z</time></trkpt><trkpt lat="45.1567895" lon="8.0933856"><ele>288.59999999999997</ele><time>2026-04-12T11:34:00.677Z</time></trkpt><trkpt lat="45.1566925" lon="8.0934032"><ele>288.8</ele><time>2026-04-12T11:34:01.677Z</time></trkpt><trkpt lat="45.1565983" lon="8.0934191"><ele>289.0</ele><time>2026-04-12T11:34:02.677Z</time></trkpt><trkpt lat="45.1564992" lon="8.0934234"><ele>289.8</ele><time>2026-04-12T11:34:03.677Z</time></trkpt><trkpt lat="45.1564008" lon="8.0934423"><ele>290.59999999999997</ele><time>2026-04-12T11:34:04.677Z</time></trkpt><trkpt lat="45.1562951" lon="8.0934636"><ele>291.4</ele><time>2026-04-12T11:34:05.676Z</time></trkpt><trkpt lat="45.1561884" lon="8.0934791"><ele>292.2</ele><time>2026-04-12T11:34:06.677Z</time></trkpt><trkpt lat="45.1560801" lon="8.0935013"><ele>293.0</ele><time>2026-04-12T11:34:07.677Z</time></trkpt><trkpt lat="45.1559703" lon="8.0935154"><ele>293.0</ele><time>2026-04-12T11:34:08.677Z</time></trkpt><trkpt lat="45.1558585" lon="8.0935345"><ele>293.0</ele><time>2026-04-12T11:34:09.677Z</time></trkpt><trkpt lat="45.1557493" lon="8.0935529"><ele>293.0</ele><time>2026-04-12T11:34:10.677Z</time></trkpt><trkpt lat="45.1556408" lon="8.0935711"><ele>293.0</ele><time>2026-04-12T11:34:11.676Z</time></trkpt><trkpt lat="45.155528" lon="8.093589"><ele>293.0</ele><time>2026-04-12T11:34:12.677Z</time></trkpt><trkpt lat="45.1554169" lon="8.0936134"><ele>293.8</ele><time>2026-04-12T11:34:13.677Z</time></trkpt><trkpt lat="45.1553136" lon="8.0936357"><ele>294.6</ele><time>2026-04-12T11:34:14.677Z</time></trkpt><trkpt lat="45.1552247" lon="8.0936543"><ele>295.4</ele><time>2026-04-12T11:34:15.676Z</time></trkpt><trkpt lat="45.1551463" lon="8.093689"><ele>296.2</ele><time>2026-04-12T11:34:16.677Z</time></trkpt><trkpt lat="45.1550816" lon="8.0937683"><ele>297.0</ele><time>2026-04-12T11:34:17.677Z</time></trkpt><trkpt lat="45.1550377" lon="8.0938806"><ele>297.0</ele><time>2026-04-12T11:34:18.676Z</time></trkpt><trkpt lat="45.1550078" lon="8.0940267"><ele>297.0</ele><time>2026-04-12T11:34:19.677Z</time></trkpt><trkpt lat="45.1549783" lon="8.0941816"><ele>297.0</ele><time>2026-04-12T11:34:20.677Z</time></trkpt><trkpt lat="45.154938" lon="8.0943564"><ele>297.0</ele><time>2026-04-12T11:34:21.677Z</time></trkpt><trkpt lat="45.1548931" lon="8.0945298"><ele>297.0</ele><time>2026-04-12T11:34:22.677Z</time></trkpt><trkpt lat="45.1548637" lon="8.0946891"><ele>297.0</ele><time>2026-04-12T11:34:23.677Z</time></trkpt><trkpt lat="45.1548188" lon="8.0948573"><ele>297.0</ele><time>2026-04-12T11:34:24.677Z</time></trkpt><trkpt lat="45.1547749" lon="8.0950365"><ele>297.0</ele><time>2026-04-12T11:34:25.677Z</time></trkpt><trkpt lat="45.1547175" lon="8.0952188"><ele>296.0</ele><time>2026-04-12T11:34:26.677Z</time></trkpt><trkpt lat="45.1546612" lon="8.0953976"><ele>295.0</ele><time>2026-04-12T11:34:27.677Z</time></trkpt><trkpt lat="45.1546125" lon="8.0955875"><ele>294.0</ele><time>2026-04-12T11:34:28.676Z</time></trkpt><trkpt lat="45.1545618" lon="8.0957751"><ele>293.0</ele><time>2026-04-12T11:34:29.677Z</time></trkpt><trkpt lat="45.1545247" lon="8.0959679"><ele>291.5</ele><time>2026-04-12T11:34:30.677Z</time></trkpt><trkpt lat="45.1544949" lon="8.0961777"><ele>290.0</ele><time>2026-04-12T11:34:31.677Z</time></trkpt><trkpt lat="45.1544787" lon="8.0963737"><ele>288.5</ele><time>2026-04-12T11:34:32.677Z</time></trkpt><trkpt lat="45.154461" lon="8.0965657"><ele>287.0</ele><time>2026-04-12T11:34:33.677Z</time></trkpt><trkpt lat="45.1544532" lon="8.0967436"><ele>286.5</ele><time>2026-04-12T11:34:34.677Z</time></trkpt><trkpt lat="45.1544325" lon="8.0969237"><ele>286.0</ele><time>2026-04-12T11:34:35.677Z</time></trkpt><trkpt lat="45.1543983" lon="8.0971075"><ele>285.5</ele><time>2026-04-12T11:34:36.677Z</time></trkpt><trkpt lat="45.154332" lon="8.0972626"><ele>285.0</ele><time>2026-04-12T11:34:37.677Z</time></trkpt><trkpt lat="45.1542633" lon="8.0974396"><ele>284.5</ele><time>2026-04-12T11:34:38.677Z</time></trkpt><trkpt lat="45.1541896" lon="8.0976107"><ele>284.0</ele><time>2026-04-12T11:34:39.677Z</time></trkpt><trkpt lat="45.1541047" lon="8.0977671"><ele>283.5</ele><time>2026-04-12T11:34:40.677Z</time></trkpt><trkpt lat="45.1540229" lon="8.0979536"><ele>283.0</ele><time>2026-04-12T11:34:41.677Z</time></trkpt><trkpt lat="45.1539417" lon="8.0981372"><ele>283.66666666666663</ele><time>2026-04-12T11:34:42.677Z</time></trkpt><trkpt lat="45.1538552" lon="8.0983096"><ele>284.3333333333333</ele><time>2026-04-12T11:34:43.677Z</time></trkpt><trkpt lat="45.1537727" lon="8.0984801"><ele>285.0</ele><time>2026-04-12T11:34:44.677Z</time></trkpt><trkpt lat="45.1536835" lon="8.0986648"><ele>285.0</ele><time>2026-04-12T11:34:45.677Z</time></trkpt><trkpt lat="45.1535911" lon="8.0988481"><ele>285.0</ele><time>2026-04-12T11:34:46.677Z</time></trkpt><trkpt lat="45.1535082" lon="8.099031"><ele>285.0</ele><time>2026-04-12T11:34:47.677Z</time></trkpt><trkpt lat="45.1534187" lon="8.0992116"><ele>285.25</ele><time>2026-04-12T11:34:48.677Z</time></trkpt><trkpt lat="45.1533328" lon="8.0993855"><ele>285.5</ele><time>2026-04-12T11:34:49.677Z</time></trkpt><trkpt lat="45.1532596" lon="8.0995631"><ele>285.75</ele><time>2026-04-12T11:34:50.677Z</time></trkpt><trkpt lat="45.1532043" lon="8.099738"><ele>286.0</ele><time>2026-04-12T11:34:51.677Z</time></trkpt><trkpt lat="45.1531538" lon="8.0999159"><ele>282.5</ele><time>2026-04-12T11:34:52.677Z</time></trkpt><trkpt lat="45.1531384" lon="8.1001009"><ele>279.0</ele><time>2026-04-12T11:34:53.677Z</time></trkpt><trkpt lat="45.1531442" lon="8.1002893"><ele>275.5</ele><time>2026-04-12T11:34:54.677Z</time></trkpt><trkpt lat="45.1531721" lon="8.1004724"><ele>272.0</ele><time>2026-04-12T11:34:55.677Z</time></trkpt><trkpt lat="45.1531895" lon="8.1006311"><ele>270.0</ele><time>2026-04-12T11:34:56.677Z</time></trkpt><trkpt lat="45.1531723" lon="8.1007876"><ele>268.0</ele><time>2026-04-12T11:34:57.677Z</time></trkpt><trkpt lat="45.1531333" lon="8.1009365"><ele>266.0</ele><time>2026-04-12T11:34:58.676Z</time></trkpt><trkpt lat="45.1530754" lon="8.1010781"><ele>264.0</ele><time>2026-04-12T11:34:59.676Z</time></trkpt><trkpt lat="45.1530318" lon="8.1012449"><ele>264.0</ele><time>2026-04-12T11:35:00.677Z</time></trkpt><trkpt lat="45.153005" lon="8.1014298"><ele>264.0</ele><time>2026-04-12T11:35:01.677Z</time></trkpt><trkpt lat="45.1529991" lon="8.101628"><ele>264.0</ele><time>2026-04-12T11:35:02.677Z</time></trkpt><trkpt lat="45.152992" lon="8.1018177"><ele>264.0</ele><time>2026-04-12T11:35:03.677Z</time></trkpt><trkpt lat="45.1529873" lon="8.1020017"><ele>262.25</ele><time>2026-04-12T11:35:04.677Z</time></trkpt><trkpt lat="45.1530041" lon="8.1022006"><ele>260.5</ele><time>2026-04-12T11:35:05.676Z</time></trkpt><trkpt lat="45.1530428" lon="8.1023903"><ele>258.75</ele><time>2026-04-12T11:35:06.677Z</time></trkpt><trkpt lat="45.1530966" lon="8.1025661"><ele>257.0</ele><time>2026-04-12T11:35:07.677Z</time></trkpt><trkpt lat="45.1531527" lon="8.1027476"><ele>257.0</ele><time>2026-04-12T11:35:08.677Z</time></trkpt><trkpt lat="45.1532166" lon="8.1029104"><ele>257.0</ele><time>2026-04-12T11:35:09.677Z</time></trkpt><trkpt lat="45.1532876" lon="8.1030586"><ele>257.0</ele><time>2026-04-12T11:35:10.677Z</time></trkpt><trkpt lat="45.1533487" lon="8.103163"><ele>257.0</ele><time>2026-04-12T11:35:11.676Z</time></trkpt><trkpt lat="45.1533927" lon="8.103261"><ele>257.0</ele><time>2026-04-12T11:35:12.677Z</time></trkpt><trkpt lat="45.1534081" lon="8.103352"><ele>257.0</ele><time>2026-04-12T11:35:13.677Z</time></trkpt><trkpt lat="45.1533892" lon="8.1034434"><ele>257.0</ele><time>2026-04-12T11:35:14.676Z</time></trkpt><trkpt lat="45.1532755" lon="8.1034994"><ele>257.0</ele><time>2026-04-12T11:35:16.677Z</time></trkpt><trkpt lat="45.1532035" lon="8.1034935"><ele>257.0</ele><time>2026-04-12T11:35:17.677Z</time></trkpt><trkpt lat="45.1531028" lon="8.1033948"><ele>257.0</ele><time>2026-04-12T11:35:18.676Z</time></trkpt><trkpt lat="45.1530039" lon="8.1032937"><ele>256.0</ele><time>2026-04-12T11:35:19.677Z</time></trkpt><trkpt lat="45.1529197" lon="8.1031637"><ele>255.0</ele><time>2026-04-12T11:35:20.677Z</time></trkpt><trkpt lat="45.1528216" lon="8.1030575"><ele>254.0</ele><time>2026-04-12T11:35:21.677Z</time></trkpt><trkpt lat="45.1527493" lon="8.1029674"><ele>253.0</ele><time>2026-04-12T11:35:22.677Z</time></trkpt><trkpt lat="45.1526924" lon="8.1029059"><ele>252.0</ele><time>2026-04-12T11:35:23.677Z</time></trkpt><trkpt lat="45.1526342" lon="8.1028682"><ele>252.0</ele><time>2026-04-12T11:35:24.676Z</time></trkpt><trkpt lat="45.1525267" lon="8.1029104"><ele>252.0</ele><time>2026-04-12T11:35:26.677Z</time></trkpt><trkpt lat="45.152529" lon="8.1030563"><ele>252.0</ele><time>2026-04-12T11:35:27.677Z</time></trkpt><trkpt lat="45.1525205" lon="8.1031837"><ele>252.0</ele><time>2026-04-12T11:35:28.677Z</time></trkpt><trkpt lat="45.1525917" lon="8.1033725"><ele>249.75</ele><time>2026-04-12T11:35:29.677Z</time></trkpt><trkpt lat="45.1526458" lon="8.1035448"><ele>247.5</ele><time>2026-04-12T11:35:30.677Z</time></trkpt><trkpt lat="45.1527082" lon="8.1037235"><ele>245.25</ele><time>2026-04-12T11:35:31.677Z</time></trkpt><trkpt lat="45.1527782" lon="8.1039138"><ele>243.0</ele><time>2026-04-12T11:35:32.677Z</time></trkpt><trkpt lat="45.152844" lon="8.1040973"><ele>240.0</ele><time>2026-04-12T11:35:33.677Z</time></trkpt><trkpt lat="45.1529054" lon="8.1042891"><ele>237.0</ele><time>2026-04-12T11:35:34.677Z</time></trkpt><trkpt lat="45.1529652" lon="8.1044687"><ele>234.0</ele><time>2026-04-12T11:35:35.677Z</time></trkpt><trkpt lat="45.1530192" lon="8.1046465"><ele>231.0</ele><time>2026-04-12T11:35:36.677Z</time></trkpt><trkpt lat="45.1530763" lon="8.1048132"><ele>231.75</ele><time>2026-04-12T11:35:37.677Z</time></trkpt><trkpt lat="45.1531371" lon="8.1049708"><ele>232.5</ele><time>2026-04-12T11:35:38.677Z</time></trkpt><trkpt lat="45.1532039" lon="8.1051188"><ele>233.25</ele><time>2026-04-12T11:35:39.677Z</time></trkpt><trkpt lat="45.1532906" lon="8.1052528"><ele>234.0</ele><time>2026-04-12T11:35:40.677Z</time></trkpt><trkpt lat="45.1534049" lon="8.1053298"><ele>234.0</ele><time>2026-04-12T11:35:41.677Z</time></trkpt><trkpt lat="45.1535111" lon="8.1054156"><ele>234.0</ele><time>2026-04-12T11:35:42.677Z</time></trkpt><trkpt lat="45.1536222" lon="8.1055035"><ele>234.0</ele><time>2026-04-12T11:35:43.676Z</time></trkpt><trkpt lat="45.153709" lon="8.1056331"><ele>234.0</ele><time>2026-04-12T11:35:44.677Z</time></trkpt><trkpt lat="45.1537768" lon="8.1057965"><ele>232.0</ele><time>2026-04-12T11:35:45.677Z</time></trkpt><trkpt lat="45.1538176" lon="8.1059806"><ele>230.0</ele><time>2026-04-12T11:35:46.677Z</time></trkpt><trkpt lat="45.1538427" lon="8.1061735"><ele>228.0</ele><time>2026-04-12T11:35:47.677Z</time></trkpt><trkpt lat="45.1538645" lon="8.1063731"><ele>226.0</ele><time>2026-04-12T11:35:48.677Z</time></trkpt><trkpt lat="45.153886" lon="8.106559"><ele>222.75</ele><time>2026-04-12T11:35:49.677Z</time></trkpt><trkpt lat="45.1539002" lon="8.1067346"><ele>219.5</ele><time>2026-04-12T11:35:50.677Z</time></trkpt><trkpt lat="45.153919" lon="8.1069111"><ele>216.25</ele><time>2026-04-12T11:35:51.677Z</time></trkpt><trkpt lat="45.15394" lon="8.1070622"><ele>213.0</ele><time>2026-04-12T11:35:52.677Z</time></trkpt><trkpt lat="45.1539782" lon="8.1072001"><ele>213.0</ele><time>2026-04-12T11:35:53.677Z</time></trkpt><trkpt lat="45.1540331" lon="8.107342"><ele>213.0</ele><time>2026-04-12T11:35:54.677Z</time></trkpt><trkpt lat="45.1540962" lon="8.1074935"><ele>213.0</ele><time>2026-04-12T11:35:55.677Z</time></trkpt><trkpt lat="45.1541702" lon="8.1076318"><ele>213.0</ele><time>2026-04-12T11:35:56.677Z</time></trkpt><trkpt lat="45.1542394" lon="8.1077445"><ele>215.2</ele><time>2026-04-12T11:35:57.676Z</time></trkpt><trkpt lat="45.1543091" lon="8.1078494"><ele>217.4</ele><time>2026-04-12T11:35:58.677Z</time></trkpt><trkpt lat="45.1543844" lon="8.1079081"><ele>219.59999999999997</ele><time>2026-04-12T11:35:59.677Z</time></trkpt><trkpt lat="45.154475" lon="8.107941"><ele>221.79999999999998</ele><time>2026-04-12T11:36:00.677Z</time></trkpt><trkpt lat="45.1545994" lon="8.1079104"><ele>224.0</ele><time>2026-04-12T11:36:01.677Z</time></trkpt><trkpt lat="45.1547233" lon="8.1078375"><ele>224.0</ele><time>2026-04-12T11:36:02.677Z</time></trkpt><trkpt lat="45.154844" lon="8.1077728"><ele>224.0</ele><time>2026-04-12T11:36:03.676Z</time></trkpt><trkpt lat="45.1549745" lon="8.1077028"><ele>224.0</ele><time>2026-04-12T11:36:04.677Z</time></trkpt><trkpt lat="45.1551064" lon="8.1076221"><ele>224.0</ele><time>2026-04-12T11:36:05.677Z</time></trkpt><trkpt lat="45.1552284" lon="8.1075521"><ele>224.39999999999998</ele><time>2026-04-12T11:36:06.677Z</time></trkpt><trkpt lat="45.1553339" lon="8.1075016"><ele>224.79999999999998</ele><time>2026-04-12T11:36:07.677Z</time></trkpt><trkpt lat="45.1554164" lon="8.1074604"><ele>225.20000000000002</ele><time>2026-04-12T11:36:08.677Z</time></trkpt><trkpt lat="45.1554879" lon="8.1074688"><ele>225.60000000000002</ele><time>2026-04-12T11:36:09.677Z</time></trkpt><trkpt lat="45.1555726" lon="8.1076139"><ele>226.0</ele><time>2026-04-12T11:36:11.677Z</time></trkpt><trkpt lat="45.1556047" lon="8.1077018"><ele>226.0</ele><time>2026-04-12T11:36:12.676Z</time></trkpt><trkpt lat="45.155436" lon="8.1078466"><ele>226.0</ele><time>2026-04-12T11:36:13.677Z</time></trkpt><trkpt lat="45.1553525" lon="8.1079894"><ele>226.0</ele><time>2026-04-12T11:36:14.677Z</time></trkpt><trkpt lat="45.1552697" lon="8.1081531"><ele>221.0</ele><time>2026-04-12T11:36:15.677Z</time></trkpt><trkpt lat="45.1551772" lon="8.108284"><ele>216.0</ele><time>2026-04-12T11:36:16.677Z</time></trkpt><trkpt lat="45.1550774" lon="8.1084236"><ele>211.0</ele><time>2026-04-12T11:36:17.677Z</time></trkpt><trkpt lat="45.1549855" lon="8.1085407"><ele>206.0</ele><time>2026-04-12T11:36:18.677Z</time></trkpt><trkpt lat="45.1548556" lon="8.1086084"><ele>205.5</ele><time>2026-04-12T11:36:19.677Z</time></trkpt><trkpt lat="45.1547244" lon="8.1086636"><ele>205.0</ele><time>2026-04-12T11:36:20.677Z</time></trkpt><trkpt lat="45.1545927" lon="8.1086581"><ele>204.5</ele><time>2026-04-12T11:36:21.677Z</time></trkpt><trkpt lat="45.1544574" lon="8.1086346"><ele>204.0</ele><time>2026-04-12T11:36:22.677Z</time></trkpt><trkpt lat="45.1543213" lon="8.1086234"><ele>204.0</ele><time>2026-04-12T11:36:23.677Z</time></trkpt><trkpt lat="45.1541925" lon="8.1085763"><ele>204.0</ele><time>2026-04-12T11:36:24.677Z</time></trkpt><trkpt lat="45.1540712" lon="8.1085343"><ele>204.0</ele><time>2026-04-12T11:36:25.677Z</time></trkpt><trkpt lat="45.1539599" lon="8.1085252"><ele>204.0</ele><time>2026-04-12T11:36:26.677Z</time></trkpt><trkpt lat="45.153861" lon="8.1085182"><ele>201.79999999999998</ele><time>2026-04-12T11:36:27.677Z</time></trkpt><trkpt lat="45.1537737" lon="8.1085337"><ele>199.6</ele><time>2026-04-12T11:36:28.677Z</time></trkpt><trkpt lat="45.1536918" lon="8.1085779"><ele>197.4</ele><time>2026-04-12T11:36:29.677Z</time></trkpt><trkpt lat="45.1536119" lon="8.1086789"><ele>195.2</ele><time>2026-04-12T11:36:30.677Z</time></trkpt><trkpt lat="45.1535479" lon="8.1088038"><ele>193.0</ele><time>2026-04-12T11:36:31.677Z</time></trkpt><trkpt lat="45.1535035" lon="8.1089501"><ele>193.25</ele><time>2026-04-12T11:36:32.677Z</time></trkpt><trkpt lat="45.1534912" lon="8.1091031"><ele>193.5</ele><time>2026-04-12T11:36:33.677Z</time></trkpt><trkpt lat="45.1534748" lon="8.1092532"><ele>193.75</ele><time>2026-04-12T11:36:34.677Z</time></trkpt><trkpt lat="45.1535187" lon="8.1094162"><ele>194.0</ele><time>2026-04-12T11:36:35.677Z</time></trkpt><trkpt lat="45.1535866" lon="8.1095882"><ele>194.0</ele><time>2026-04-12T11:36:36.677Z</time></trkpt><trkpt lat="45.1536622" lon="8.1097807"><ele>194.0</ele><time>2026-04-12T11:36:37.677Z</time></trkpt><trkpt lat="45.1537275" lon="8.1099532"><ele>194.0</ele><time>2026-04-12T11:36:38.677Z</time></trkpt><trkpt lat="45.1537969" lon="8.1101269"><ele>194.0</ele><time>2026-04-12T11:36:39.677Z</time></trkpt><trkpt lat="45.1538878" lon="8.1102961"><ele>194.25</ele><time>2026-04-12T11:36:40.677Z</time></trkpt><trkpt lat="45.1539754" lon="8.1104514"><ele>194.5</ele><time>2026-04-12T11:36:41.677Z</time></trkpt><trkpt lat="45.154053" lon="8.1105999"><ele>194.75</ele><time>2026-04-12T11:36:42.677Z</time></trkpt><trkpt lat="45.154104" lon="8.1107555"><ele>195.0</ele><time>2026-04-12T11:36:43.677Z</time></trkpt><trkpt lat="45.1541261" lon="8.1109286"><ele>196.0</ele><time>2026-04-12T11:36:44.677Z</time></trkpt><trkpt lat="45.1541405" lon="8.1111116"><ele>197.0</ele><time>2026-04-12T11:36:45.677Z</time></trkpt><trkpt lat="45.1541263" lon="8.1112964"><ele>198.0</ele><time>2026-04-12T11:36:46.676Z</time></trkpt><trkpt lat="45.1541324" lon="8.1115069"><ele>199.0</ele><time>2026-04-12T11:36:47.677Z</time></trkpt><trkpt lat="45.1541422" lon="8.1116983"><ele>200.75</ele><time>2026-04-12T11:36:48.677Z</time></trkpt><trkpt lat="45.1541849" lon="8.1118779"><ele>202.5</ele><time>2026-04-12T11:36:49.677Z</time></trkpt><trkpt lat="45.1542377" lon="8.1120371"><ele>204.25</ele><time>2026-04-12T11:36:50.677Z</time></trkpt><trkpt lat="45.1542938" lon="8.1121903"><ele>206.0</ele><time>2026-04-12T11:36:51.677Z</time></trkpt><trkpt lat="45.1544232" lon="8.1122941"><ele>206.0</ele><time>2026-04-12T11:36:52.677Z</time></trkpt><trkpt lat="45.1545414" lon="8.1123896"><ele>206.0</ele><time>2026-04-12T11:36:53.677Z</time></trkpt><trkpt lat="45.1546577" lon="8.112457"><ele>206.0</ele><time>2026-04-12T11:36:54.677Z</time></trkpt><trkpt lat="45.1547807" lon="8.1125451"><ele>206.0</ele><time>2026-04-12T11:36:55.677Z</time></trkpt><trkpt lat="45.1548944" lon="8.1126144"><ele>207.25</ele><time>2026-04-12T11:36:56.677Z</time></trkpt><trkpt lat="45.1550446" lon="8.1127099"><ele>208.5</ele><time>2026-04-12T11:36:57.677Z</time></trkpt><trkpt lat="45.1551753" lon="8.1127435"><ele>209.75</ele><time>2026-04-12T11:36:58.677Z</time></trkpt><trkpt lat="45.1553145" lon="8.112759"><ele>211.0</ele><time>2026-04-12T11:36:59.676Z</time></trkpt><trkpt lat="45.1554503" lon="8.1127796"><ele>211.0</ele><time>2026-04-12T11:37:00.677Z</time></trkpt><trkpt lat="45.1555812" lon="8.1128117"><ele>211.0</ele><time>2026-04-12T11:37:01.677Z</time></trkpt><trkpt lat="45.1557102" lon="8.1128477"><ele>211.0</ele><time>2026-04-12T11:37:02.677Z</time></trkpt><trkpt lat="45.1558177" lon="8.1128759"><ele>211.0</ele><time>2026-04-12T11:37:03.677Z</time></trkpt><trkpt lat="45.155923" lon="8.1129054"><ele>210.20000000000002</ele><time>2026-04-12T11:37:04.677Z</time></trkpt><trkpt lat="45.1560045" lon="8.1129274"><ele>209.4</ele><time>2026-04-12T11:37:05.677Z</time></trkpt><trkpt lat="45.156071" lon="8.1129514"><ele>208.6</ele><time>2026-04-12T11:37:06.677Z</time></trkpt><trkpt lat="45.1561537" lon="8.11306"><ele>207.8</ele><time>2026-04-12T11:37:08.677Z</time></trkpt><trkpt lat="45.1561675" lon="8.1132115"><ele>207.0</ele><time>2026-04-12T11:37:10.677Z</time></trkpt><trkpt lat="45.1560165" lon="8.1131777"><ele>207.0</ele><time>2026-04-12T11:37:11.677Z</time></trkpt><trkpt lat="45.1559005" lon="8.1132026"><ele>207.0</ele><time>2026-04-12T11:37:12.677Z</time></trkpt><trkpt lat="45.1557856" lon="8.1132299"><ele>207.0</ele><time>2026-04-12T11:37:13.677Z</time></trkpt><trkpt lat="45.1556716" lon="8.1132748"><ele>207.0</ele><time>2026-04-12T11:37:14.677Z</time></trkpt><trkpt lat="45.1555337" lon="8.1133009"><ele>211.5</ele><time>2026-04-12T11:37:15.677Z</time></trkpt><trkpt lat="45.1553885" lon="8.1133331"><ele>216.0</ele><time>2026-04-12T11:37:16.677Z</time></trkpt><trkpt lat="45.1552468" lon="8.1133688"><ele>220.5</ele><time>2026-04-12T11:37:17.677Z</time></trkpt><trkpt lat="45.1551021" lon="8.1133764"><ele>225.0</ele><time>2026-04-12T11:37:18.677Z</time></trkpt><trkpt lat="45.1549558" lon="8.1133904"><ele>225.75</ele><time>2026-04-12T11:37:19.677Z</time></trkpt><trkpt lat="45.1548384" lon="8.1134476"><ele>226.5</ele><time>2026-04-12T11:37:20.677Z</time></trkpt><trkpt lat="45.1547166" lon="8.1135314"><ele>227.25</ele><time>2026-04-12T11:37:21.677Z</time></trkpt><trkpt lat="45.1546014" lon="8.1136226"><ele>228.0</ele><time>2026-04-12T11:37:22.677Z</time></trkpt><trkpt lat="45.1544867" lon="8.1137176"><ele>228.0</ele><time>2026-04-12T11:37:23.677Z</time></trkpt><trkpt lat="45.1543655" lon="8.1138095"><ele>228.0</ele><time>2026-04-12T11:37:24.677Z</time></trkpt><trkpt lat="45.1542445" lon="8.1138579"><ele>228.0</ele><time>2026-04-12T11:37:25.677Z</time></trkpt><trkpt lat="45.1541218" lon="8.1138762"><ele>228.0</ele><time>2026-04-12T11:37:26.677Z</time></trkpt><trkpt lat="45.1540089" lon="8.1138832"><ele>230.8</ele><time>2026-04-12T11:37:27.677Z</time></trkpt><trkpt lat="45.1539102" lon="8.1139204"><ele>233.60000000000002</ele><time>2026-04-12T11:37:28.677Z</time></trkpt><trkpt lat="45.1538211" lon="8.1139831"><ele>236.39999999999998</ele><time>2026-04-12T11:37:29.677Z</time></trkpt><trkpt lat="45.1537406" lon="8.1140474"><ele>239.2</ele><time>2026-04-12T11:37:30.677Z</time></trkpt><trkpt lat="45.1536895" lon="8.1141675"><ele>242.0</ele><time>2026-04-12T11:37:31.677Z</time></trkpt><trkpt lat="45.1536469" lon="8.1142903"><ele>242.2</ele><time>2026-04-12T11:37:32.676Z</time></trkpt><trkpt lat="45.1536093" lon="8.1144265"><ele>242.39999999999998</ele><time>2026-04-12T11:37:33.677Z</time></trkpt><trkpt lat="45.1535828" lon="8.1145452"><ele>242.60000000000002</ele><time>2026-04-12T11:37:34.677Z</time></trkpt><trkpt lat="45.1535769" lon="8.114685"><ele>242.8</ele><time>2026-04-12T11:37:35.677Z</time></trkpt><trkpt lat="45.1535877" lon="8.1148104"><ele>243.0</ele><time>2026-04-12T11:37:36.676Z</time></trkpt><trkpt lat="45.153607" lon="8.1149311"><ele>242.0</ele><time>2026-04-12T11:37:37.677Z</time></trkpt><trkpt lat="45.1536891" lon="8.1150358"><ele>241.0</ele><time>2026-04-12T11:37:38.677Z</time></trkpt><trkpt lat="45.1537766" lon="8.1151284"><ele>240.0</ele><time>2026-04-12T11:37:39.676Z</time></trkpt><trkpt lat="45.1538858" lon="8.1152083"><ele>239.0</ele><time>2026-04-12T11:37:40.677Z</time></trkpt><trkpt lat="45.1539993" lon="8.1152589"><ele>238.75</ele><time>2026-04-12T11:37:41.677Z</time></trkpt><trkpt lat="45.1541173" lon="8.1152976"><ele>238.5</ele><time>2026-04-12T11:37:42.677Z</time></trkpt><trkpt lat="45.1542336" lon="8.1153893"><ele>238.25</ele><time>2026-04-12T11:37:43.677Z</time></trkpt><trkpt lat="45.1543214" lon="8.1154823"><ele>238.0</ele><time>2026-04-12T11:37:44.677Z</time></trkpt><trkpt lat="45.1544024" lon="8.1156128"><ele>235.75</ele><time>2026-04-12T11:37:45.677Z</time></trkpt><trkpt lat="45.1544722" lon="8.1157591"><ele>233.5</ele><time>2026-04-12T11:37:46.677Z</time></trkpt><trkpt lat="45.1545125" lon="8.1159401"><ele>231.25</ele><time>2026-04-12T11:37:47.677Z</time></trkpt><trkpt lat="45.1545572" lon="8.1161248"><ele>229.0</ele><time>2026-04-12T11:37:48.677Z</time></trkpt><trkpt lat="45.1545916" lon="8.1163231"><ele>229.0</ele><time>2026-04-12T11:37:49.677Z</time></trkpt><trkpt lat="45.1546276" lon="8.1165287"><ele>229.0</ele><time>2026-04-12T11:37:50.677Z</time></trkpt><trkpt lat="45.15467" lon="8.1167348"><ele>229.0</ele><time>2026-04-12T11:37:51.677Z</time></trkpt><trkpt lat="45.1547097" lon="8.1169467"><ele>227.0</ele><time>2026-04-12T11:37:52.677Z</time></trkpt><trkpt lat="45.1547504" lon="8.1171746"><ele>225.0</ele><time>2026-04-12T11:37:53.677Z</time></trkpt><trkpt lat="45.1547882" lon="8.1173951"><ele>223.0</ele><time>2026-04-12T11:37:54.677Z</time></trkpt><trkpt lat="45.1548281" lon="8.1176075"><ele>223.66666666666666</ele><time>2026-04-12T11:37:55.677Z</time></trkpt><trkpt lat="45.1548691" lon="8.1178216"><ele>224.33333333333331</ele><time>2026-04-12T11:37:56.676Z</time></trkpt><trkpt lat="45.1549094" lon="8.118049"><ele>225.0</ele><time>2026-04-12T11:37:57.677Z</time></trkpt><trkpt lat="45.1549482" lon="8.118269"><ele>221.66666666666669</ele><time>2026-04-12T11:37:58.677Z</time></trkpt><trkpt lat="45.1549819" lon="8.1184878"><ele>218.33333333333334</ele><time>2026-04-12T11:37:59.677Z</time></trkpt><trkpt lat="45.1550117" lon="8.1187097"><ele>215.0</ele><time>2026-04-12T11:38:00.677Z</time></trkpt><trkpt lat="45.1550301" lon="8.1189094"><ele>213.5</ele><time>2026-04-12T11:38:01.677Z</time></trkpt><trkpt lat="45.1550272" lon="8.1190949"><ele>212.0</ele><time>2026-04-12T11:38:02.677Z</time></trkpt><trkpt lat="45.1550016" lon="8.1192715"><ele>210.5</ele><time>2026-04-12T11:38:03.677Z</time></trkpt><trkpt lat="45.1549748" lon="8.1194283"><ele>209.0</ele><time>2026-04-12T11:38:04.677Z</time></trkpt><trkpt lat="45.1549506" lon="8.1195719"><ele>209.0</ele><time>2026-04-12T11:38:05.677Z</time></trkpt><trkpt lat="45.1549919" lon="8.1197102"><ele>209.0</ele><time>2026-04-12T11:38:06.677Z</time></trkpt><trkpt lat="45.1550416" lon="8.1198466"><ele>209.0</ele><time>2026-04-12T11:38:07.677Z</time></trkpt><trkpt lat="45.1550962" lon="8.1199644"><ele>209.0</ele><time>2026-04-12T11:38:08.677Z</time></trkpt><trkpt lat="45.1551394" lon="8.1200933"><ele>209.0</ele><time>2026-04-12T11:38:09.677Z</time></trkpt><trkpt lat="45.1551493" lon="8.1202335"><ele>208.5</ele><time>2026-04-12T11:38:10.677Z</time></trkpt><trkpt lat="45.1551156" lon="8.1203639"><ele>208.0</ele><time>2026-04-12T11:38:11.676Z</time></trkpt><trkpt lat="45.1550473" lon="8.1204972"><ele>207.5</ele><time>2026-04-12T11:38:12.677Z</time></trkpt><trkpt lat="45.154973" lon="8.1206326"><ele>207.0</ele><time>2026-04-12T11:38:13.677Z</time></trkpt><trkpt lat="45.1549081" lon="8.1207939"><ele>204.5</ele><time>2026-04-12T11:38:14.677Z</time></trkpt><trkpt lat="45.1548352" lon="8.1209403"><ele>202.0</ele><time>2026-04-12T11:38:15.677Z</time></trkpt><trkpt lat="45.1547457" lon="8.1211026"><ele>199.5</ele><time>2026-04-12T11:38:16.677Z</time></trkpt><trkpt lat="45.1546498" lon="8.121257"><ele>197.0</ele><time>2026-04-12T11:38:17.677Z</time></trkpt><trkpt lat="45.1545507" lon="8.1214265"><ele>196.66666666666669</ele><time>2026-04-12T11:38:18.677Z</time></trkpt><trkpt lat="45.1544542" lon="8.1216004"><ele>196.33333333333331</ele><time>2026-04-12T11:38:19.677Z</time></trkpt><trkpt lat="45.1543507" lon="8.1217764"><ele>196.0</ele><time>2026-04-12T11:38:20.677Z</time></trkpt><trkpt lat="45.1542488" lon="8.1219521"><ele>196.0</ele><time>2026-04-12T11:38:21.677Z</time></trkpt><trkpt lat="45.1541419" lon="8.1221275"><ele>196.0</ele><time>2026-04-12T11:38:22.677Z</time></trkpt><trkpt lat="45.1540439" lon="8.122309"><ele>196.0</ele><time>2026-04-12T11:38:23.676Z</time></trkpt><trkpt lat="45.1539276" lon="8.1224806"><ele>196.25</ele><time>2026-04-12T11:38:24.676Z</time></trkpt><trkpt lat="45.1538275" lon="8.1226412"><ele>196.5</ele><time>2026-04-12T11:38:25.677Z</time></trkpt><trkpt lat="45.1537428" lon="8.1227957"><ele>196.75</ele><time>2026-04-12T11:38:26.677Z</time></trkpt><trkpt lat="45.1536515" lon="8.1229376"><ele>197.0</ele><time>2026-04-12T11:38:27.677Z</time></trkpt><trkpt lat="45.1535637" lon="8.1230834"><ele>197.0</ele><time>2026-04-12T11:38:28.677Z</time></trkpt><trkpt lat="45.1534873" lon="8.1232277"><ele>197.0</ele><time>2026-04-12T11:38:29.677Z</time></trkpt><trkpt lat="45.153425" lon="8.123385"><ele>197.0</ele><time>2026-04-12T11:38:30.677Z</time></trkpt><trkpt lat="45.1533788" lon="8.1235392"><ele>197.0</ele><time>2026-04-12T11:38:31.677Z</time></trkpt><trkpt lat="45.1533462" lon="8.1237008"><ele>195.25</ele><time>2026-04-12T11:38:32.677Z</time></trkpt><trkpt lat="45.1533313" lon="8.1238751"><ele>193.5</ele><time>2026-04-12T11:38:33.676Z</time></trkpt><trkpt lat="45.1533343" lon="8.1240553"><ele>191.75</ele><time>2026-04-12T11:38:34.677Z</time></trkpt><trkpt lat="45.1533569" lon="8.1242478"><ele>190.0</ele><time>2026-04-12T11:38:35.677Z</time></trkpt><trkpt lat="45.153384" lon="8.1244462"><ele>190.0</ele><time>2026-04-12T11:38:36.677Z</time></trkpt><trkpt lat="45.1534205" lon="8.1246505"><ele>190.0</ele><time>2026-04-12T11:38:37.677Z</time></trkpt><trkpt lat="45.1534544" lon="8.1248493"><ele>190.0</ele><time>2026-04-12T11:38:38.677Z</time></trkpt><trkpt lat="45.1534858" lon="8.1250322"><ele>190.0</ele><time>2026-04-12T11:38:39.677Z</time></trkpt><trkpt lat="45.1535013" lon="8.1252119"><ele>190.25</ele><time>2026-04-12T11:38:40.677Z</time></trkpt><trkpt lat="45.1534939" lon="8.1253951"><ele>190.5</ele><time>2026-04-12T11:38:41.677Z</time></trkpt><trkpt lat="45.1534756" lon="8.1255642"><ele>190.75</ele><time>2026-04-12T11:38:42.677Z</time></trkpt><trkpt lat="45.1534284" lon="8.1257054"><ele>191.0</ele><time>2026-04-12T11:38:43.677Z</time></trkpt><trkpt lat="45.1534049" lon="8.1258413"><ele>190.25</ele><time>2026-04-12T11:38:44.677Z</time></trkpt><trkpt lat="45.1534058" lon="8.1260173"><ele>189.5</ele><time>2026-04-12T11:38:45.677Z</time></trkpt><trkpt lat="45.1534087" lon="8.1261884"><ele>188.75</ele><time>2026-04-12T11:38:46.677Z</time></trkpt><trkpt lat="45.1533953" lon="8.1263786"><ele>188.0</ele><time>2026-04-12T11:38:47.677Z</time></trkpt><trkpt lat="45.1533923" lon="8.1265792"><ele>187.0</ele><time>2026-04-12T11:38:48.677Z</time></trkpt><trkpt lat="45.1533913" lon="8.1267684"><ele>186.0</ele><time>2026-04-12T11:38:49.677Z</time></trkpt><trkpt lat="45.1533872" lon="8.1269523"><ele>185.0</ele><time>2026-04-12T11:38:50.677Z</time></trkpt><trkpt lat="45.1533889" lon="8.1271491"><ele>184.0</ele><time>2026-04-12T11:38:51.677Z</time></trkpt><trkpt lat="45.15339" lon="8.1273211"><ele>181.75</ele><time>2026-04-12T11:38:52.676Z</time></trkpt><trkpt lat="45.1533957" lon="8.1274968"><ele>179.5</ele><time>2026-04-12T11:38:53.677Z</time></trkpt><trkpt lat="45.153397" lon="8.1276591"><ele>177.25</ele><time>2026-04-12T11:38:54.677Z</time></trkpt><trkpt lat="45.1533975" lon="8.1278206"><ele>175.0</ele><time>2026-04-12T11:38:55.677Z</time></trkpt><trkpt lat="45.1533995" lon="8.1279774"><ele>175.0</ele><time>2026-04-12T11:38:56.676Z</time></trkpt><trkpt lat="45.1534045" lon="8.1281294"><ele>175.0</ele><time>2026-04-12T11:38:57.677Z</time></trkpt><trkpt lat="45.1534065" lon="8.1282667"><ele>175.0</ele><time>2026-04-12T11:38:58.677Z</time></trkpt><trkpt lat="45.1534109" lon="8.1283934"><ele>175.0</ele><time>2026-04-12T11:38:59.677Z</time></trkpt><trkpt lat="45.1534152" lon="8.1285131"><ele>175.0</ele><time>2026-04-12T11:39:00.677Z</time></trkpt><trkpt lat="45.1534348" lon="8.1286319"><ele>174.0</ele><time>2026-04-12T11:39:01.677Z</time></trkpt><trkpt lat="45.1534611" lon="8.1287255"><ele>173.0</ele><time>2026-04-12T11:39:02.677Z</time></trkpt><trkpt lat="45.1535038" lon="8.1288004"><ele>172.0</ele><time>2026-04-12T11:39:03.677Z</time></trkpt><trkpt lat="45.1535679" lon="8.1288806"><ele>171.0</ele><time>2026-04-12T11:39:04.677Z</time></trkpt><trkpt lat="45.1536457" lon="8.1289685"><ele>170.0</ele><time>2026-04-12T11:39:05.677Z</time></trkpt><trkpt lat="45.1537252" lon="8.1290632"><ele>169.0</ele><time>2026-04-12T11:39:06.677Z</time></trkpt><trkpt lat="45.1538088" lon="8.1291596"><ele>167.75</ele><time>2026-04-12T11:39:07.676Z</time></trkpt><trkpt lat="45.1539005" lon="8.1292578"><ele>166.5</ele><time>2026-04-12T11:39:08.677Z</time></trkpt><trkpt lat="45.1539955" lon="8.1293602"><ele>165.25</ele><time>2026-04-12T11:39:09.677Z</time></trkpt><trkpt lat="45.1540955" lon="8.1294715"><ele>164.0</ele><time>2026-04-12T11:39:10.676Z</time></trkpt><trkpt lat="45.1541974" lon="8.1295911"><ele>164.0</ele><time>2026-04-12T11:39:11.677Z</time></trkpt><trkpt lat="45.1542954" lon="8.1297045"><ele>164.0</ele><time>2026-04-12T11:39:12.677Z</time></trkpt><trkpt lat="45.1543964" lon="8.1297946"><ele>164.0</ele><time>2026-04-12T11:39:13.676Z</time></trkpt><trkpt lat="45.1545057" lon="8.129879"><ele>164.0</ele><time>2026-04-12T11:39:14.676Z</time></trkpt><trkpt lat="45.1546287" lon="8.1299473"><ele>163.75</ele><time>2026-04-12T11:39:15.677Z</time></trkpt><trkpt lat="45.154761" lon="8.130012"><ele>163.5</ele><time>2026-04-12T11:39:16.676Z</time></trkpt><trkpt lat="45.1548939" lon="8.1300713"><ele>163.25</ele><time>2026-04-12T11:39:17.677Z</time></trkpt><trkpt lat="45.15503" lon="8.1301502"><ele>163.0</ele><time>2026-04-12T11:39:18.676Z</time></trkpt><trkpt lat="45.1551663" lon="8.1302381"><ele>163.0</ele><time>2026-04-12T11:39:19.677Z</time></trkpt><trkpt lat="45.1553066" lon="8.1303394"><ele>163.0</ele><time>2026-04-12T11:39:20.677Z</time></trkpt><trkpt lat="45.1554465" lon="8.1304414"><ele>163.0</ele><time>2026-04-12T11:39:21.677Z</time></trkpt><trkpt lat="45.1555846" lon="8.130532"><ele>164.33333333333334</ele><time>2026-04-12T11:39:22.677Z</time></trkpt><trkpt lat="45.1557291" lon="8.1306051"><ele>165.66666666666666</ele><time>2026-04-12T11:39:23.677Z</time></trkpt><trkpt lat="45.1558769" lon="8.1306641"><ele>167.0</ele><time>2026-04-12T11:39:24.677Z</time></trkpt><trkpt lat="45.1560277" lon="8.1307346"><ele>164.33333333333331</ele><time>2026-04-12T11:39:25.677Z</time></trkpt><trkpt lat="45.1561758" lon="8.1307877"><ele>161.66666666666666</ele><time>2026-04-12T11:39:26.677Z</time></trkpt><trkpt lat="45.1563173" lon="8.130851"><ele>159.0</ele><time>2026-04-12T11:39:27.677Z</time></trkpt><trkpt lat="45.156462" lon="8.1309096"><ele>160.33333333333334</ele><time>2026-04-12T11:39:28.677Z</time></trkpt><trkpt lat="45.1566083" lon="8.1309562"><ele>161.66666666666669</ele><time>2026-04-12T11:39:29.677Z</time></trkpt><trkpt lat="45.1567557" lon="8.1309801"><ele>163.0</ele><time>2026-04-12T11:39:30.677Z</time></trkpt><trkpt lat="45.1569103" lon="8.1310082"><ele>163.0</ele><time>2026-04-12T11:39:31.677Z</time></trkpt><trkpt lat="45.1570585" lon="8.131032"><ele>163.0</ele><time>2026-04-12T11:39:32.677Z</time></trkpt><trkpt lat="45.1572056" lon="8.1310616"><ele>163.0</ele><time>2026-04-12T11:39:33.677Z</time></trkpt><trkpt lat="45.1573549" lon="8.1310892"><ele>163.0</ele><time>2026-04-12T11:39:34.677Z</time></trkpt><trkpt lat="45.157507" lon="8.1311172"><ele>162.0</ele><time>2026-04-12T11:39:35.677Z</time></trkpt><trkpt lat="45.1576596" lon="8.1311527"><ele>161.0</ele><time>2026-04-12T11:39:36.677Z</time></trkpt><trkpt lat="45.157802" lon="8.1311731"><ele>160.0</ele><time>2026-04-12T11:39:37.677Z</time></trkpt><trkpt lat="45.1579425" lon="8.1312189"><ele>159.0</ele><time>2026-04-12T11:39:38.677Z</time></trkpt><trkpt lat="45.158086" lon="8.1312683"><ele>158.5</ele><time>2026-04-12T11:39:39.677Z</time></trkpt><trkpt lat="45.1582182" lon="8.1313197"><ele>158.0</ele><time>2026-04-12T11:39:40.677Z</time></trkpt><trkpt lat="45.1583585" lon="8.1313414"><ele>157.5</ele><time>2026-04-12T11:39:41.677Z</time></trkpt><trkpt lat="45.1584863" lon="8.1313718"><ele>157.0</ele><time>2026-04-12T11:39:42.677Z</time></trkpt><trkpt lat="45.1586109" lon="8.1314156"><ele>157.0</ele><time>2026-04-12T11:39:43.677Z</time></trkpt><trkpt lat="45.1587334" lon="8.1314766"><ele>157.0</ele><time>2026-04-12T11:39:44.677Z</time></trkpt><trkpt lat="45.1588551" lon="8.1315599"><ele>157.0</ele><time>2026-04-12T11:39:45.677Z</time></trkpt><trkpt lat="45.1589727" lon="8.1316549"><ele>157.0</ele><time>2026-04-12T11:39:46.677Z</time></trkpt><trkpt lat="45.1590804" lon="8.1317434"><ele>156.25</ele><time>2026-04-12T11:39:47.677Z</time></trkpt><trkpt lat="45.159191" lon="8.1318275"><ele>155.5</ele><time>2026-04-12T11:39:48.677Z</time></trkpt><trkpt lat="45.1593097" lon="8.1319204"><ele>154.75</ele><time>2026-04-12T11:39:49.677Z</time></trkpt><trkpt lat="45.1594263" lon="8.1319972"><ele>154.0</ele><time>2026-04-12T11:39:50.676Z</time></trkpt><trkpt lat="45.1595536" lon="8.1320697"><ele>154.0</ele><time>2026-04-12T11:39:51.677Z</time></trkpt><trkpt lat="45.159683" lon="8.1321408"><ele>154.0</ele><time>2026-04-12T11:39:52.677Z</time></trkpt><trkpt lat="45.159814" lon="8.1322167"><ele>154.0</ele><time>2026-04-12T11:39:53.677Z</time></trkpt><trkpt lat="45.1599467" lon="8.132283"><ele>154.0</ele><time>2026-04-12T11:39:54.676Z</time></trkpt><trkpt lat="45.1600753" lon="8.1323626"><ele>152.25</ele><time>2026-04-12T11:39:55.677Z</time></trkpt><trkpt lat="45.1602001" lon="8.132426"><ele>150.5</ele><time>2026-04-12T11:39:56.677Z</time></trkpt><trkpt lat="45.1603306" lon="8.1324914"><ele>148.75</ele><time>2026-04-12T11:39:57.677Z</time></trkpt><trkpt lat="45.1604635" lon="8.1325631"><ele>147.0</ele><time>2026-04-12T11:39:58.677Z</time></trkpt><trkpt lat="45.1605909" lon="8.1326306"><ele>147.2</ele><time>2026-04-12T11:39:59.677Z</time></trkpt><trkpt lat="45.1607014" lon="8.1326911"><ele>147.39999999999998</ele><time>2026-04-12T11:40:00.677Z</time></trkpt><trkpt lat="45.1608004" lon="8.1327433"><ele>147.60000000000002</ele><time>2026-04-12T11:40:01.677Z</time></trkpt><trkpt lat="45.1608853" lon="8.1327979"><ele>147.8</ele><time>2026-04-12T11:40:02.677Z</time></trkpt><trkpt lat="45.1609465" lon="8.1328659"><ele>148.0</ele><time>2026-04-12T11:40:03.677Z</time></trkpt><trkpt lat="45.1610065" lon="8.1329625"><ele>148.0</ele><time>2026-04-12T11:40:05.677Z</time></trkpt></trkseg><trkseg><trkpt lat="45.1610214" lon="8.1328935"><ele>148.0</ele><time>2026-04-12T11:56:14.672Z</time></trkpt><trkpt lat="45.1609841" lon="8.1328096"><ele>148.0</ele><time>2026-04-12T11:56:16.672Z</time></trkpt><trkpt lat="45.1609022" lon="8.132759"><ele>148.0</ele><time>2026-04-12T11:56:18.672Z</time></trkpt><trkpt lat="45.1608263" lon="8.1327079"><ele>148.0</ele><time>2026-04-12T11:56:20.672Z</time></trkpt><trkpt lat="45.1607112" lon="8.1326473"><ele>148.0</ele><time>2026-04-12T11:56:22.672Z</time></trkpt><trkpt lat="45.1606429" lon="8.1326089"><ele>148.0</ele><time>2026-04-12T11:56:23.672Z</time></trkpt><trkpt lat="45.1605628" lon="8.1325727"><ele>148.0</ele><time>2026-04-12T11:56:24.672Z</time></trkpt><trkpt lat="45.1604757" lon="8.1325284"><ele>148.0</ele><time>2026-04-12T11:56:25.672Z</time></trkpt><trkpt lat="45.160386" lon="8.1324749"><ele>148.0</ele><time>2026-04-12T11:56:26.672Z</time></trkpt><trkpt lat="45.1603034" lon="8.1324273"><ele>148.0</ele><time>2026-04-12T11:56:27.672Z</time></trkpt><trkpt lat="45.1602265" lon="8.1323877"><ele>148.0</ele><time>2026-04-12T11:56:28.672Z</time></trkpt><trkpt lat="45.1601458" lon="8.1323461"><ele>148.0</ele><time>2026-04-12T11:56:29.672Z</time></trkpt><trkpt lat="45.160054" lon="8.1323031"><ele>148.0</ele><time>2026-04-12T11:56:30.672Z</time></trkpt><trkpt lat="45.1599583" lon="8.1322575"><ele>148.0</ele><time>2026-04-12T11:56:31.672Z</time></trkpt><trkpt lat="45.159864" lon="8.1322061"><ele>148.0</ele><time>2026-04-12T11:56:32.672Z</time></trkpt><trkpt lat="45.1597635" lon="8.1321573"><ele>148.0</ele><time>2026-04-12T11:56:33.672Z</time></trkpt><trkpt lat="45.1596559" lon="8.1321035"><ele>148.0</ele><time>2026-04-12T11:56:34.672Z</time></trkpt><trkpt lat="45.1595453" lon="8.1320439"><ele>149.5</ele><time>2026-04-12T11:56:35.672Z</time></trkpt><trkpt lat="45.1594373" lon="8.1319843"><ele>151.0</ele><time>2026-04-12T11:56:36.672Z</time></trkpt><trkpt lat="45.1593269" lon="8.1319142"><ele>152.5</ele><time>2026-04-12T11:56:37.672Z</time></trkpt><trkpt lat="45.1592184" lon="8.1318305"><ele>154.0</ele><time>2026-04-12T11:56:38.672Z</time></trkpt><trkpt lat="45.1591113" lon="8.1317475"><ele>154.0</ele><time>2026-04-12T11:56:39.672Z</time></trkpt><trkpt lat="45.1590129" lon="8.1316605"><ele>154.0</ele><time>2026-04-12T11:56:40.672Z</time></trkpt><trkpt lat="45.1589142" lon="8.1315786"><ele>154.0</ele><time>2026-04-12T11:56:41.671Z</time></trkpt><trkpt lat="45.1588004" lon="8.1314934"><ele>154.0</ele><time>2026-04-12T11:56:42.672Z</time></trkpt><trkpt lat="45.1586866" lon="8.1314313"><ele>154.75</ele><time>2026-04-12T11:56:43.672Z</time></trkpt><trkpt lat="45.1585656" lon="8.131389"><ele>155.5</ele><time>2026-04-12T11:56:44.672Z</time></trkpt><trkpt lat="45.15844" lon="8.131351"><ele>156.25</ele><time>2026-04-12T11:56:45.672Z</time></trkpt><trkpt lat="45.1583129" lon="8.1313325"><ele>157.0</ele><time>2026-04-12T11:56:46.672Z</time></trkpt><trkpt lat="45.1581971" lon="8.1312953"><ele>157.5</ele><time>2026-04-12T11:56:47.672Z</time></trkpt><trkpt lat="45.1580729" lon="8.1312517"><ele>158.0</ele><time>2026-04-12T11:56:48.672Z</time></trkpt><trkpt lat="45.1579505" lon="8.1311996"><ele>158.5</ele><time>2026-04-12T11:56:49.672Z</time></trkpt><trkpt lat="45.157824" lon="8.1311551"><ele>159.0</ele><time>2026-04-12T11:56:50.672Z</time></trkpt><trkpt lat="45.1576907" lon="8.131128"><ele>159.0</ele><time>2026-04-12T11:56:51.672Z</time></trkpt><trkpt lat="45.157554" lon="8.1311082"><ele>159.0</ele><time>2026-04-12T11:56:52.672Z</time></trkpt><trkpt lat="45.1574186" lon="8.1310755"><ele>159.0</ele><time>2026-04-12T11:56:53.671Z</time></trkpt><trkpt lat="45.1572823" lon="8.131047"><ele>159.0</ele><time>2026-04-12T11:56:54.672Z</time></trkpt><trkpt lat="45.1571507" lon="8.1310193"><ele>160.0</ele><time>2026-04-12T11:56:55.672Z</time></trkpt><trkpt lat="45.1570149" lon="8.1309942"><ele>161.0</ele><time>2026-04-12T11:56:56.672Z</time></trkpt><trkpt lat="45.1568834" lon="8.1309754"><ele>162.0</ele><time>2026-04-12T11:56:57.672Z</time></trkpt><trkpt lat="45.1567493" lon="8.1309532"><ele>163.0</ele><time>2026-04-12T11:56:58.672Z</time></trkpt><trkpt lat="45.1566183" lon="8.1309152"><ele>162.0</ele><time>2026-04-12T11:56:59.672Z</time></trkpt><trkpt lat="45.1564902" lon="8.1308748"><ele>161.0</ele><time>2026-04-12T11:57:00.672Z</time></trkpt><trkpt lat="45.1563616" lon="8.1308264"><ele>160.0</ele><time>2026-04-12T11:57:01.672Z</time></trkpt><trkpt lat="45.1562239" lon="8.1307873"><ele>159.0</ele><time>2026-04-12T11:57:02.671Z</time></trkpt><trkpt lat="45.1560838" lon="8.1307304"><ele>160.0</ele><time>2026-04-12T11:57:03.671Z</time></trkpt><trkpt lat="45.1559449" lon="8.1306685"><ele>161.0</ele><time>2026-04-12T11:57:04.671Z</time></trkpt><trkpt lat="45.1558104" lon="8.1306149"><ele>162.0</ele><time>2026-04-12T11:57:05.672Z</time></trkpt><trkpt lat="45.155675" lon="8.1305554"><ele>163.0</ele><time>2026-04-12T11:57:06.672Z</time></trkpt><trkpt lat="45.1555438" lon="8.1304938"><ele>163.0</ele><time>2026-04-12T11:57:07.672Z</time></trkpt><trkpt lat="45.1554143" lon="8.1304107"><ele>163.0</ele><time>2026-04-12T11:57:08.672Z</time></trkpt><trkpt lat="45.1552918" lon="8.1303217"><ele>163.0</ele><time>2026-04-12T11:57:09.672Z</time></trkpt><trkpt lat="45.1551593" lon="8.1302304"><ele>163.0</ele><time>2026-04-12T11:57:10.672Z</time></trkpt><trkpt lat="45.155036" lon="8.1301366"><ele>163.0</ele><time>2026-04-12T11:57:11.672Z</time></trkpt><trkpt lat="45.1549023" lon="8.1300682"><ele>163.0</ele><time>2026-04-12T11:57:12.672Z</time></trkpt><trkpt lat="45.1547696" lon="8.1299972"><ele>163.0</ele><time>2026-04-12T11:57:13.672Z</time></trkpt><trkpt lat="45.1546572" lon="8.1299324"><ele>163.0</ele><time>2026-04-12T11:57:14.672Z</time></trkpt><trkpt lat="45.1545382" lon="8.1298626"><ele>163.25</ele><time>2026-04-12T11:57:15.672Z</time></trkpt><trkpt lat="45.1544252" lon="8.1297813"><ele>163.5</ele><time>2026-04-12T11:57:16.672Z</time></trkpt><trkpt lat="45.1543154" lon="8.1296856"><ele>163.75</ele><time>2026-04-12T11:57:17.672Z</time></trkpt><trkpt lat="45.1542173" lon="8.1295752"><ele>164.0</ele><time>2026-04-12T11:57:18.671Z</time></trkpt><trkpt lat="45.1541177" lon="8.1294658"><ele>162.75</ele><time>2026-04-12T11:57:19.672Z</time></trkpt><trkpt lat="45.1540209" lon="8.1293558"><ele>161.5</ele><time>2026-04-12T11:57:20.672Z</time></trkpt><trkpt lat="45.1539301" lon="8.1292492"><ele>160.25</ele><time>2026-04-12T11:57:21.671Z</time></trkpt><trkpt lat="45.1538471" lon="8.1291476"><ele>159.0</ele><time>2026-04-12T11:57:22.672Z</time></trkpt><trkpt lat="45.1537704" lon="8.1290593"><ele>160.66666666666666</ele><time>2026-04-12T11:57:23.672Z</time></trkpt><trkpt lat="45.1537044" lon="8.1289884"><ele>162.33333333333334</ele><time>2026-04-12T11:57:24.672Z</time></trkpt><trkpt lat="45.1536468" lon="8.1289306"><ele>164.0</ele><time>2026-04-12T11:57:25.672Z</time></trkpt><trkpt lat="45.1535449" lon="8.12888"><ele>165.66666666666669</ele><time>2026-04-12T11:57:27.672Z</time></trkpt><trkpt lat="45.1534779" lon="8.1288763"><ele>167.33333333333334</ele><time>2026-04-12T11:57:28.672Z</time></trkpt><trkpt lat="45.1534076" lon="8.1288742"><ele>169.0</ele><time>2026-04-12T11:57:29.672Z</time></trkpt><trkpt lat="45.1533266" lon="8.1288695"><ele>169.0</ele><time>2026-04-12T11:57:30.672Z</time></trkpt><trkpt lat="45.1532433" lon="8.1288436"><ele>169.0</ele><time>2026-04-12T11:57:31.672Z</time></trkpt><trkpt lat="45.1531465" lon="8.1288163"><ele>169.0</ele><time>2026-04-12T11:57:32.672Z</time></trkpt><trkpt lat="45.1530383" lon="8.1287927"><ele>169.0</ele><time>2026-04-12T11:57:33.672Z</time></trkpt><trkpt lat="45.1529209" lon="8.1287651"><ele>169.0</ele><time>2026-04-12T11:57:34.672Z</time></trkpt><trkpt lat="45.1527961" lon="8.1287513"><ele>171.25</ele><time>2026-04-12T11:57:35.672Z</time></trkpt><trkpt lat="45.1526852" lon="8.1287595"><ele>173.5</ele><time>2026-04-12T11:57:36.672Z</time></trkpt><trkpt lat="45.1525731" lon="8.1288013"><ele>175.75</ele><time>2026-04-12T11:57:37.672Z</time></trkpt><trkpt lat="45.1524817" lon="8.1289105"><ele>178.0</ele><time>2026-04-12T11:57:38.672Z</time></trkpt><trkpt lat="45.1524048" lon="8.1290176"><ele>177.0</ele><time>2026-04-12T11:57:39.672Z</time></trkpt><trkpt lat="45.1523236" lon="8.1291053"><ele>176.0</ele><time>2026-04-12T11:57:40.672Z</time></trkpt><trkpt lat="45.1522275" lon="8.1291531"><ele>175.0</ele><time>2026-04-12T11:57:41.672Z</time></trkpt><trkpt lat="45.1521335" lon="8.129177"><ele>174.0</ele><time>2026-04-12T11:57:42.672Z</time></trkpt><trkpt lat="45.1520467" lon="8.1291326"><ele>173.0</ele><time>2026-04-12T11:57:43.672Z</time></trkpt><trkpt lat="45.151948" lon="8.1290475"><ele>173.0</ele><time>2026-04-12T11:57:44.672Z</time></trkpt><trkpt lat="45.1518447" lon="8.1289591"><ele>173.0</ele><time>2026-04-12T11:57:45.672Z</time></trkpt><trkpt lat="45.1517386" lon="8.1288636"><ele>173.0</ele><time>2026-04-12T11:57:46.672Z</time></trkpt><trkpt lat="45.1516363" lon="8.128764"><ele>173.0</ele><time>2026-04-12T11:57:47.671Z</time></trkpt><trkpt lat="45.1515289" lon="8.1286586"><ele>173.5</ele><time>2026-04-12T11:57:48.672Z</time></trkpt><trkpt lat="45.1514194" lon="8.1285623"><ele>174.0</ele><time>2026-04-12T11:57:49.672Z</time></trkpt><trkpt lat="45.1513072" lon="8.1285083"><ele>174.5</ele><time>2026-04-12T11:57:50.672Z</time></trkpt><trkpt lat="45.1511908" lon="8.1284895"><ele>175.0</ele><time>2026-04-12T11:57:51.672Z</time></trkpt><trkpt lat="45.1510704" lon="8.1284942"><ele>175.0</ele><time>2026-04-12T11:57:52.672Z</time></trkpt><trkpt lat="45.1509486" lon="8.1285229"><ele>175.0</ele><time>2026-04-12T11:57:53.672Z</time></trkpt><trkpt lat="45.1508272" lon="8.1285644"><ele>175.0</ele><time>2026-04-12T11:57:54.672Z</time></trkpt><trkpt lat="45.1507081" lon="8.1286024"><ele>175.0</ele><time>2026-04-12T11:57:55.672Z</time></trkpt><trkpt lat="45.1506082" lon="8.1286033"><ele>176.0</ele><time>2026-04-12T11:57:56.672Z</time></trkpt><trkpt lat="45.1504943" lon="8.1285769"><ele>177.0</ele><time>2026-04-12T11:57:57.672Z</time></trkpt><trkpt lat="45.1503877" lon="8.1285224"><ele>178.0</ele><time>2026-04-12T11:57:58.671Z</time></trkpt><trkpt lat="45.1502697" lon="8.128472"><ele>179.0</ele><time>2026-04-12T11:57:59.672Z</time></trkpt><trkpt lat="45.1501449" lon="8.1284067"><ele>179.0</ele><time>2026-04-12T11:58:00.672Z</time></trkpt><trkpt lat="45.1500069" lon="8.128358"><ele>179.0</ele><time>2026-04-12T11:58:01.672Z</time></trkpt><trkpt lat="45.1498709" lon="8.1283406"><ele>179.0</ele><time>2026-04-12T11:58:02.672Z</time></trkpt><trkpt lat="45.1497392" lon="8.128364"><ele>179.0</ele><time>2026-04-12T11:58:03.672Z</time></trkpt><trkpt lat="45.1496102" lon="8.1283969"><ele>179.5</ele><time>2026-04-12T11:58:04.672Z</time></trkpt><trkpt lat="45.149487" lon="8.1284288"><ele>180.0</ele><time>2026-04-12T11:58:05.672Z</time></trkpt><trkpt lat="45.1493709" lon="8.1284426"><ele>180.5</ele><time>2026-04-12T11:58:06.672Z</time></trkpt><trkpt lat="45.1492585" lon="8.1284371"><ele>181.0</ele><time>2026-04-12T11:58:07.672Z</time></trkpt><trkpt lat="45.1491626" lon="8.1283966"><ele>181.0</ele><time>2026-04-12T11:58:08.672Z</time></trkpt><trkpt lat="45.1490524" lon="8.1283352"><ele>181.0</ele><time>2026-04-12T11:58:09.672Z</time></trkpt><trkpt lat="45.1489477" lon="8.1282563"><ele>181.0</ele><time>2026-04-12T11:58:10.672Z</time></trkpt><trkpt lat="45.1488403" lon="8.1281855"><ele>181.0</ele><time>2026-04-12T11:58:11.672Z</time></trkpt><trkpt lat="45.1487257" lon="8.128138"><ele>185.25</ele><time>2026-04-12T11:58:12.672Z</time></trkpt><trkpt lat="45.148605" lon="8.1281178"><ele>189.5</ele><time>2026-04-12T11:58:13.672Z</time></trkpt><trkpt lat="45.1484814" lon="8.1281287"><ele>193.75</ele><time>2026-04-12T11:58:14.672Z</time></trkpt><trkpt lat="45.1483552" lon="8.1281121"><ele>198.0</ele><time>2026-04-12T11:58:15.672Z</time></trkpt><trkpt lat="45.14822" lon="8.1280908"><ele>196.0</ele><time>2026-04-12T11:58:16.672Z</time></trkpt><trkpt lat="45.1480808" lon="8.1280499"><ele>194.0</ele><time>2026-04-12T11:58:17.672Z</time></trkpt><trkpt lat="45.147936" lon="8.1280143"><ele>192.0</ele><time>2026-04-12T11:58:18.672Z</time></trkpt><trkpt lat="45.1477848" lon="8.1280183"><ele>190.0</ele><time>2026-04-12T11:58:19.672Z</time></trkpt><trkpt lat="45.1476389" lon="8.1280247"><ele>190.0</ele><time>2026-04-12T11:58:20.672Z</time></trkpt><trkpt lat="45.1474904" lon="8.1280374"><ele>190.0</ele><time>2026-04-12T11:58:21.672Z</time></trkpt><trkpt lat="45.1473418" lon="8.1280409"><ele>190.0</ele><time>2026-04-12T11:58:22.672Z</time></trkpt><trkpt lat="45.1471923" lon="8.1280165"><ele>190.0</ele><time>2026-04-12T11:58:23.672Z</time></trkpt><trkpt lat="45.1470477" lon="8.1279881"><ele>188.25</ele><time>2026-04-12T11:58:24.672Z</time></trkpt><trkpt lat="45.1469006" lon="8.1279807"><ele>186.5</ele><time>2026-04-12T11:58:25.672Z</time></trkpt><trkpt lat="45.1467564" lon="8.1279795"><ele>184.75</ele><time>2026-04-12T11:58:26.672Z</time></trkpt><trkpt lat="45.1466028" lon="8.1279875"><ele>183.0</ele><time>2026-04-12T11:58:27.671Z</time></trkpt><trkpt lat="45.1464601" lon="8.1280343"><ele>181.5</ele><time>2026-04-12T11:58:28.672Z</time></trkpt><trkpt lat="45.1463106" lon="8.1280722"><ele>180.0</ele><time>2026-04-12T11:58:29.672Z</time></trkpt><trkpt lat="45.1461756" lon="8.128107"><ele>178.5</ele><time>2026-04-12T11:58:30.672Z</time></trkpt><trkpt lat="45.1460452" lon="8.128142"><ele>177.0</ele><time>2026-04-12T11:58:31.672Z</time></trkpt><trkpt lat="45.1459282" lon="8.128174"><ele>177.0</ele><time>2026-04-12T11:58:32.671Z</time></trkpt><trkpt lat="45.1458195" lon="8.1281741"><ele>177.0</ele><time>2026-04-12T11:58:33.672Z</time></trkpt><trkpt lat="45.1457118" lon="8.1281347"><ele>177.0</ele><time>2026-04-12T11:58:34.672Z</time></trkpt><trkpt lat="45.1455965" lon="8.128057"><ele>177.0</ele><time>2026-04-12T11:58:35.672Z</time></trkpt><trkpt lat="45.1454844" lon="8.1279665"><ele>176.25</ele><time>2026-04-12T11:58:36.672Z</time></trkpt><trkpt lat="45.1453627" lon="8.1278731"><ele>175.5</ele><time>2026-04-12T11:58:37.672Z</time></trkpt><trkpt lat="45.1452373" lon="8.1277891"><ele>174.75</ele><time>2026-04-12T11:58:38.672Z</time></trkpt><trkpt lat="45.1451115" lon="8.1276977"><ele>174.0</ele><time>2026-04-12T11:58:39.672Z</time></trkpt><trkpt lat="45.1449804" lon="8.1275911"><ele>173.33333333333334</ele><time>2026-04-12T11:58:40.672Z</time></trkpt><trkpt lat="45.1448459" lon="8.127484"><ele>172.66666666666669</ele><time>2026-04-12T11:58:41.672Z</time></trkpt><trkpt lat="45.1447098" lon="8.1273749"><ele>172.0</ele><time>2026-04-12T11:58:42.672Z</time></trkpt><trkpt lat="45.1445777" lon="8.1272663"><ele>173.5</ele><time>2026-04-12T11:58:43.672Z</time></trkpt><trkpt lat="45.1444497" lon="8.1271712"><ele>175.0</ele><time>2026-04-12T11:58:44.672Z</time></trkpt><trkpt lat="45.144337" lon="8.127078"><ele>176.5</ele><time>2026-04-12T11:58:45.672Z</time></trkpt><trkpt lat="45.1442315" lon="8.1269923"><ele>178.0</ele><time>2026-04-12T11:58:46.672Z</time></trkpt><trkpt lat="45.1441305" lon="8.1269098"><ele>177.60000000000002</ele><time>2026-04-12T11:58:47.672Z</time></trkpt><trkpt lat="45.1440352" lon="8.1268329"><ele>177.20000000000002</ele><time>2026-04-12T11:58:48.672Z</time></trkpt><trkpt lat="45.1439462" lon="8.1267575"><ele>176.8</ele><time>2026-04-12T11:58:49.672Z</time></trkpt><trkpt lat="45.1438602" lon="8.1266989"><ele>176.4</ele><time>2026-04-12T11:58:50.672Z</time></trkpt><trkpt lat="45.1437744" lon="8.1266395"><ele>176.0</ele><time>2026-04-12T11:58:51.672Z</time></trkpt><trkpt lat="45.1436741" lon="8.1265576"><ele>176.25</ele><time>2026-04-12T11:58:52.672Z</time></trkpt><trkpt lat="45.1435689" lon="8.1264656"><ele>176.5</ele><time>2026-04-12T11:58:53.672Z</time></trkpt><trkpt lat="45.1434541" lon="8.1263666"><ele>176.75</ele><time>2026-04-12T11:58:54.672Z</time></trkpt><trkpt lat="45.1433247" lon="8.1262625"><ele>177.0</ele><time>2026-04-12T11:58:55.672Z</time></trkpt><trkpt lat="45.1431875" lon="8.1261311"><ele>177.0</ele><time>2026-04-12T11:58:56.672Z</time></trkpt><trkpt lat="45.1430516" lon="8.1259909"><ele>177.0</ele><time>2026-04-12T11:58:57.672Z</time></trkpt><trkpt lat="45.142916" lon="8.1258677"><ele>177.0</ele><time>2026-04-12T11:58:58.672Z</time></trkpt><trkpt lat="45.1427879" lon="8.1257587"><ele>177.75</ele><time>2026-04-12T11:58:59.672Z</time></trkpt><trkpt lat="45.1426598" lon="8.1256575"><ele>178.5</ele><time>2026-04-12T11:59:00.672Z</time></trkpt><trkpt lat="45.1425236" lon="8.1255753"><ele>179.25</ele><time>2026-04-12T11:59:01.672Z</time></trkpt><trkpt lat="45.1423803" lon="8.125505"><ele>180.0</ele><time>2026-04-12T11:59:02.672Z</time></trkpt><trkpt lat="45.1422276" lon="8.1254507"><ele>180.0</ele><time>2026-04-12T11:59:03.672Z</time></trkpt><trkpt lat="45.142058" lon="8.1254156"><ele>180.0</ele><time>2026-04-12T11:59:04.672Z</time></trkpt><trkpt lat="45.141892" lon="8.1253881"><ele>180.0</ele><time>2026-04-12T11:59:05.672Z</time></trkpt><trkpt lat="45.1417314" lon="8.125368"><ele>180.0</ele><time>2026-04-12T11:59:06.672Z</time></trkpt><trkpt lat="45.1415611" lon="8.1253487"><ele>180.0</ele><time>2026-04-12T11:59:07.672Z</time></trkpt><trkpt lat="45.1413967" lon="8.1253394"><ele>180.0</ele><time>2026-04-12T11:59:08.672Z</time></trkpt><trkpt lat="45.1412338" lon="8.1253136"><ele>180.0</ele><time>2026-04-12T11:59:09.672Z</time></trkpt><trkpt lat="45.1410734" lon="8.1252754"><ele>180.0</ele><time>2026-04-12T11:59:10.672Z</time></trkpt><trkpt lat="45.1409163" lon="8.1252338"><ele>180.0</ele><time>2026-04-12T11:59:11.672Z</time></trkpt><trkpt lat="45.140762" lon="8.1252018"><ele>180.33333333333334</ele><time>2026-04-12T11:59:12.672Z</time></trkpt><trkpt lat="45.1406045" lon="8.1251813"><ele>180.66666666666669</ele><time>2026-04-12T11:59:13.672Z</time></trkpt><trkpt lat="45.1404495" lon="8.1251615"><ele>181.0</ele><time>2026-04-12T11:59:14.672Z</time></trkpt><trkpt lat="45.1402968" lon="8.125121"><ele>181.0</ele><time>2026-04-12T11:59:15.672Z</time></trkpt><trkpt lat="45.1401527" lon="8.1250712"><ele>181.0</ele><time>2026-04-12T11:59:16.671Z</time></trkpt><trkpt lat="45.1400063" lon="8.1250032"><ele>181.0</ele><time>2026-04-12T11:59:17.672Z</time></trkpt><trkpt lat="45.1398635" lon="8.1249241"><ele>183.33333333333334</ele><time>2026-04-12T11:59:18.672Z</time></trkpt><trkpt lat="45.1397187" lon="8.1248328"><ele>185.66666666666666</ele><time>2026-04-12T11:59:19.672Z</time></trkpt><trkpt lat="45.13958" lon="8.1247397"><ele>188.0</ele><time>2026-04-12T11:59:20.672Z</time></trkpt><trkpt lat="45.1394404" lon="8.1246349"><ele>188.0</ele><time>2026-04-12T11:59:21.672Z</time></trkpt><trkpt lat="45.1393023" lon="8.1245309"><ele>188.0</ele><time>2026-04-12T11:59:22.672Z</time></trkpt><trkpt lat="45.1391677" lon="8.1244184"><ele>188.0</ele><time>2026-04-12T11:59:23.672Z</time></trkpt><trkpt lat="45.1390356" lon="8.1243029"><ele>188.0</ele><time>2026-04-12T11:59:24.672Z</time></trkpt><trkpt lat="45.1388997" lon="8.1241816"><ele>188.0</ele><time>2026-04-12T11:59:25.672Z</time></trkpt><trkpt lat="45.1387678" lon="8.1240724"><ele>188.0</ele><time>2026-04-12T11:59:26.672Z</time></trkpt><trkpt lat="45.1386386" lon="8.1239697"><ele>189.75</ele><time>2026-04-12T11:59:27.672Z</time></trkpt><trkpt lat="45.1385166" lon="8.123863"><ele>191.5</ele><time>2026-04-12T11:59:28.672Z</time></trkpt><trkpt lat="45.1384035" lon="8.1237445"><ele>193.25</ele><time>2026-04-12T11:59:29.672Z</time></trkpt><trkpt lat="45.1383076" lon="8.1236167"><ele>195.0</ele><time>2026-04-12T11:59:30.672Z</time></trkpt><trkpt lat="45.1382202" lon="8.1234966"><ele>194.66666666666666</ele><time>2026-04-12T11:59:31.672Z</time></trkpt><trkpt lat="45.1381395" lon="8.1233798"><ele>194.33333333333331</ele><time>2026-04-12T11:59:32.672Z</time></trkpt><trkpt lat="45.1380734" lon="8.1232824"><ele>194.0</ele><time>2026-04-12T11:59:33.672Z</time></trkpt><trkpt lat="45.1380185" lon="8.1231983"><ele>193.66666666666666</ele><time>2026-04-12T11:59:34.672Z</time></trkpt><trkpt lat="45.1379619" lon="8.1231318"><ele>193.33333333333331</ele><time>2026-04-12T11:59:35.672Z</time></trkpt><trkpt lat="45.1378995" lon="8.123096"><ele>193.0</ele><time>2026-04-12T11:59:36.672Z</time></trkpt><trkpt lat="45.1378139" lon="8.1231258"><ele>193.0</ele><time>2026-04-12T11:59:37.672Z</time></trkpt><trkpt lat="45.1377346" lon="8.1231645"><ele>193.0</ele><time>2026-04-12T11:59:38.671Z</time></trkpt><trkpt lat="45.1376474" lon="8.1232172"><ele>193.0</ele><time>2026-04-12T11:59:39.672Z</time></trkpt><trkpt lat="45.1375527" lon="8.1232699"><ele>193.0</ele><time>2026-04-12T11:59:40.672Z</time></trkpt><trkpt lat="45.1374584" lon="8.1232996"><ele>193.0</ele><time>2026-04-12T11:59:41.672Z</time></trkpt><trkpt lat="45.1373616" lon="8.1233149"><ele>192.8</ele><time>2026-04-12T11:59:42.672Z</time></trkpt><trkpt lat="45.1372634" lon="8.1232963"><ele>192.60000000000002</ele><time>2026-04-12T11:59:43.672Z</time></trkpt><trkpt lat="45.1371653" lon="8.1232527"><ele>192.39999999999998</ele><time>2026-04-12T11:59:44.672Z</time></trkpt><trkpt lat="45.1370725" lon="8.1231914"><ele>192.2</ele><time>2026-04-12T11:59:45.672Z</time></trkpt><trkpt lat="45.1369809" lon="8.1230934"><ele>192.0</ele><time>2026-04-12T11:59:46.672Z</time></trkpt><trkpt lat="45.1368983" lon="8.1229812"><ele>192.0</ele><time>2026-04-12T11:59:47.672Z</time></trkpt><trkpt lat="45.1368191" lon="8.1228626"><ele>192.0</ele><time>2026-04-12T11:59:48.672Z</time></trkpt><trkpt lat="45.1367424" lon="8.1227711"><ele>192.0</ele><time>2026-04-12T11:59:49.672Z</time></trkpt><trkpt lat="45.1366561" lon="8.1227008"><ele>192.0</ele><time>2026-04-12T11:59:50.672Z</time></trkpt><trkpt lat="45.1365549" lon="8.1226694"><ele>192.0</ele><time>2026-04-12T11:59:51.672Z</time></trkpt><trkpt lat="45.1364442" lon="8.1226888"><ele>190.0</ele><time>2026-04-12T11:59:52.672Z</time></trkpt><trkpt lat="45.1363363" lon="8.1227426"><ele>188.0</ele><time>2026-04-12T11:59:53.672Z</time></trkpt><trkpt lat="45.1362345" lon="8.1228419"><ele>186.0</ele><time>2026-04-12T11:59:54.672Z</time></trkpt><trkpt lat="45.1361352" lon="8.1229459"><ele>184.0</ele><time>2026-04-12T11:59:55.672Z</time></trkpt><trkpt lat="45.1360409" lon="8.1230481"><ele>184.0</ele><time>2026-04-12T11:59:56.672Z</time></trkpt><trkpt lat="45.1359592" lon="8.1231494"><ele>184.0</ele><time>2026-04-12T11:59:57.672Z</time></trkpt><trkpt lat="45.1358989" lon="8.1232666"><ele>184.0</ele><time>2026-04-12T11:59:58.672Z</time></trkpt><trkpt lat="45.1358695" lon="8.123413"><ele>184.0</ele><time>2026-04-12T11:59:59.672Z</time></trkpt><trkpt lat="45.1358737" lon="8.1235787"><ele>184.0</ele><time>2026-04-12T12:00:00.672Z</time></trkpt><trkpt lat="45.1359085" lon="8.1237515"><ele>183.0</ele><time>2026-04-12T12:00:01.672Z</time></trkpt><trkpt lat="45.1359612" lon="8.1239152"><ele>182.0</ele><time>2026-04-12T12:00:02.672Z</time></trkpt><trkpt lat="45.1360131" lon="8.1240807"><ele>181.0</ele><time>2026-04-12T12:00:03.672Z</time></trkpt><trkpt lat="45.1360648" lon="8.1242313"><ele>180.0</ele><time>2026-04-12T12:00:04.672Z</time></trkpt><trkpt lat="45.1360963" lon="8.1243689"><ele>179.75</ele><time>2026-04-12T12:00:05.672Z</time></trkpt><trkpt lat="45.1360982" lon="8.1245077"><ele>179.5</ele><time>2026-04-12T12:00:06.672Z</time></trkpt><trkpt lat="45.1360685" lon="8.1246509"><ele>179.25</ele><time>2026-04-12T12:00:07.672Z</time></trkpt><trkpt lat="45.1360271" lon="8.1248195"><ele>179.0</ele><time>2026-04-12T12:00:08.672Z</time></trkpt><trkpt lat="45.1359696" lon="8.1249824"><ele>179.0</ele><time>2026-04-12T12:00:09.672Z</time></trkpt><trkpt lat="45.1359049" lon="8.125136"><ele>179.0</ele><time>2026-04-12T12:00:10.672Z</time></trkpt><trkpt lat="45.1358308" lon="8.1252792"><ele>179.0</ele><time>2026-04-12T12:00:11.672Z</time></trkpt><trkpt lat="45.1357297" lon="8.1253957"><ele>179.0</ele><time>2026-04-12T12:00:12.671Z</time></trkpt><trkpt lat="45.1355929" lon="8.1254756"><ele>180.25</ele><time>2026-04-12T12:00:13.672Z</time></trkpt><trkpt lat="45.1354609" lon="8.1255502"><ele>181.5</ele><time>2026-04-12T12:00:14.672Z</time></trkpt><trkpt lat="45.1353322" lon="8.1256338"><ele>182.75</ele><time>2026-04-12T12:00:15.671Z</time></trkpt><trkpt lat="45.1352098" lon="8.1257295"><ele>184.0</ele><time>2026-04-12T12:00:16.672Z</time></trkpt><trkpt lat="45.1350889" lon="8.125799"><ele>184.0</ele><time>2026-04-12T12:00:17.672Z</time></trkpt><trkpt lat="45.1349707" lon="8.1258477"><ele>184.0</ele><time>2026-04-12T12:00:18.671Z</time></trkpt><trkpt lat="45.1348637" lon="8.1259072"><ele>184.0</ele><time>2026-04-12T12:00:19.672Z</time></trkpt><trkpt lat="45.1347559" lon="8.1259986"><ele>184.0</ele><time>2026-04-12T12:00:20.671Z</time></trkpt><trkpt lat="45.1346772" lon="8.1261295"><ele>184.25</ele><time>2026-04-12T12:00:21.671Z</time></trkpt><trkpt lat="45.1345911" lon="8.1262656"><ele>184.5</ele><time>2026-04-12T12:00:22.672Z</time></trkpt><trkpt lat="45.1344996" lon="8.1263915"><ele>184.75</ele><time>2026-04-12T12:00:23.672Z</time></trkpt><trkpt lat="45.1343735" lon="8.1264753"><ele>185.0</ele><time>2026-04-12T12:00:24.672Z</time></trkpt><trkpt lat="45.1342461" lon="8.1265791"><ele>185.0</ele><time>2026-04-12T12:00:25.672Z</time></trkpt><trkpt lat="45.1341173" lon="8.126689"><ele>185.0</ele><time>2026-04-12T12:00:26.672Z</time></trkpt><trkpt lat="45.1339782" lon="8.1267774"><ele>185.0</ele><time>2026-04-12T12:00:27.672Z</time></trkpt><trkpt lat="45.1338426" lon="8.1268606"><ele>187.25</ele><time>2026-04-12T12:00:28.672Z</time></trkpt><trkpt lat="45.1337017" lon="8.1269215"><ele>189.5</ele><time>2026-04-12T12:00:29.671Z</time></trkpt><trkpt lat="45.1335748" lon="8.1269955"><ele>191.75</ele><time>2026-04-12T12:00:30.672Z</time></trkpt><trkpt lat="45.13344" lon="8.127076"><ele>194.0</ele><time>2026-04-12T12:00:31.672Z</time></trkpt><trkpt lat="45.133333" lon="8.1271693"><ele>195.75</ele><time>2026-04-12T12:00:32.672Z</time></trkpt><trkpt lat="45.1332222" lon="8.1272302"><ele>197.5</ele><time>2026-04-12T12:00:33.672Z</time></trkpt><trkpt lat="45.1331227" lon="8.1272948"><ele>199.25</ele><time>2026-04-12T12:00:34.672Z</time></trkpt><trkpt lat="45.1330094" lon="8.1272944"><ele>201.0</ele><time>2026-04-12T12:00:35.672Z</time></trkpt><trkpt lat="45.1329058" lon="8.1272501"><ele>201.0</ele><time>2026-04-12T12:00:36.672Z</time></trkpt><trkpt lat="45.1328202" lon="8.12711"><ele>201.0</ele><time>2026-04-12T12:00:37.671Z</time></trkpt><trkpt lat="45.1327063" lon="8.1270306"><ele>201.0</ele><time>2026-04-12T12:00:38.671Z</time></trkpt><trkpt lat="45.1325715" lon="8.126983"><ele>201.0</ele><time>2026-04-12T12:00:39.672Z</time></trkpt><trkpt lat="45.1324324" lon="8.1269539"><ele>202.0</ele><time>2026-04-12T12:00:40.671Z</time></trkpt><trkpt lat="45.1322873" lon="8.1269664"><ele>203.0</ele><time>2026-04-12T12:00:41.672Z</time></trkpt><trkpt lat="45.1321554" lon="8.1269969"><ele>204.0</ele><time>2026-04-12T12:00:42.671Z</time></trkpt><trkpt lat="45.1320156" lon="8.1270381"><ele>205.0</ele><time>2026-04-12T12:00:43.672Z</time></trkpt><trkpt lat="45.1318884" lon="8.1270605"><ele>205.0</ele><time>2026-04-12T12:00:44.672Z</time></trkpt><trkpt lat="45.1317617" lon="8.1270534"><ele>205.0</ele><time>2026-04-12T12:00:45.672Z</time></trkpt><trkpt lat="45.1316406" lon="8.1270221"><ele>205.0</ele><time>2026-04-12T12:00:46.672Z</time></trkpt><trkpt lat="45.1315403" lon="8.126943"><ele>205.0</ele><time>2026-04-12T12:00:47.672Z</time></trkpt><trkpt lat="45.1314284" lon="8.1268295"><ele>204.5</ele><time>2026-04-12T12:00:48.672Z</time></trkpt><trkpt lat="45.1313134" lon="8.1267069"><ele>204.0</ele><time>2026-04-12T12:00:49.672Z</time></trkpt><trkpt lat="45.1312003" lon="8.1265974"><ele>203.5</ele><time>2026-04-12T12:00:50.672Z</time></trkpt><trkpt lat="45.131061" lon="8.1265057"><ele>203.0</ele><time>2026-04-12T12:00:51.672Z</time></trkpt><trkpt lat="45.1309177" lon="8.1264219"><ele>203.66666666666669</ele><time>2026-04-12T12:00:52.672Z</time></trkpt><trkpt lat="45.1307692" lon="8.1263386"><ele>204.33333333333331</ele><time>2026-04-12T12:00:53.672Z</time></trkpt><trkpt lat="45.1306326" lon="8.126237"><ele>205.0</ele><time>2026-04-12T12:00:54.671Z</time></trkpt><trkpt lat="45.1305022" lon="8.1261412"><ele>205.0</ele><time>2026-04-12T12:00:55.671Z</time></trkpt><trkpt lat="45.1303774" lon="8.1260234"><ele>205.0</ele><time>2026-04-12T12:00:56.672Z</time></trkpt><trkpt lat="45.1302437" lon="8.1259019"><ele>205.0</ele><time>2026-04-12T12:00:57.671Z</time></trkpt><trkpt lat="45.1301167" lon="8.1257775"><ele>204.33333333333331</ele><time>2026-04-12T12:00:58.672Z</time></trkpt><trkpt lat="45.1299889" lon="8.1256623"><ele>203.66666666666669</ele><time>2026-04-12T12:00:59.672Z</time></trkpt><trkpt lat="45.1298602" lon="8.1255591"><ele>203.0</ele><time>2026-04-12T12:01:00.672Z</time></trkpt><trkpt lat="45.1297182" lon="8.125473"><ele>203.0</ele><time>2026-04-12T12:01:01.672Z</time></trkpt><trkpt lat="45.1295703" lon="8.1253799"><ele>203.0</ele><time>2026-04-12T12:01:02.672Z</time></trkpt><trkpt lat="45.1294198" lon="8.1253367"><ele>203.0</ele><time>2026-04-12T12:01:03.672Z</time></trkpt><trkpt lat="45.1292823" lon="8.12529"><ele>203.0</ele><time>2026-04-12T12:01:04.672Z</time></trkpt><trkpt lat="45.1291641" lon="8.1252012"><ele>203.0</ele><time>2026-04-12T12:01:05.672Z</time></trkpt><trkpt lat="45.1290475" lon="8.125079"><ele>203.0</ele><time>2026-04-12T12:01:06.671Z</time></trkpt><trkpt lat="45.1289364" lon="8.1249429"><ele>203.0</ele><time>2026-04-12T12:01:07.671Z</time></trkpt><trkpt lat="45.1288178" lon="8.1248195"><ele>204.33333333333334</ele><time>2026-04-12T12:01:08.672Z</time></trkpt><trkpt lat="45.1286813" lon="8.124703"><ele>205.66666666666669</ele><time>2026-04-12T12:01:09.672Z</time></trkpt><trkpt lat="45.1285286" lon="8.124619"><ele>207.0</ele><time>2026-04-12T12:01:10.672Z</time></trkpt><trkpt lat="45.1283701" lon="8.1245507"><ele>207.33333333333331</ele><time>2026-04-12T12:01:11.672Z</time></trkpt><trkpt lat="45.1282164" lon="8.1244889"><ele>207.66666666666666</ele><time>2026-04-12T12:01:12.672Z</time></trkpt><trkpt lat="45.1280624" lon="8.1244066"><ele>208.0</ele><time>2026-04-12T12:01:13.671Z</time></trkpt><trkpt lat="45.1279071" lon="8.1243246"><ele>208.0</ele><time>2026-04-12T12:01:14.672Z</time></trkpt><trkpt lat="45.1277616" lon="8.1242432"><ele>208.0</ele><time>2026-04-12T12:01:15.672Z</time></trkpt><trkpt lat="45.1276254" lon="8.124135"><ele>208.0</ele><time>2026-04-12T12:01:16.672Z</time></trkpt><trkpt lat="45.1274936" lon="8.1240173"><ele>209.33333333333331</ele><time>2026-04-12T12:01:17.672Z</time></trkpt><trkpt lat="45.1273735" lon="8.1238714"><ele>210.66666666666669</ele><time>2026-04-12T12:01:18.672Z</time></trkpt><trkpt lat="45.12726" lon="8.1237172"><ele>212.0</ele><time>2026-04-12T12:01:19.672Z</time></trkpt><trkpt lat="45.127162" lon="8.1235509"><ele>212.0</ele><time>2026-04-12T12:01:20.672Z</time></trkpt><trkpt lat="45.1270732" lon="8.123382"><ele>212.0</ele><time>2026-04-12T12:01:21.672Z</time></trkpt><trkpt lat="45.1269812" lon="8.1232086"><ele>212.0</ele><time>2026-04-12T12:01:22.672Z</time></trkpt><trkpt lat="45.1268678" lon="8.1230644"><ele>211.66666666666669</ele><time>2026-04-12T12:01:23.672Z</time></trkpt><trkpt lat="45.1267522" lon="8.122936"><ele>211.33333333333331</ele><time>2026-04-12T12:01:24.672Z</time></trkpt><trkpt lat="45.1266183" lon="8.1228223"><ele>211.0</ele><time>2026-04-12T12:01:25.672Z</time></trkpt><trkpt lat="45.1264815" lon="8.1227178"><ele>211.0</ele><time>2026-04-12T12:01:26.672Z</time></trkpt><trkpt lat="45.1263447" lon="8.1226266"><ele>211.0</ele><time>2026-04-12T12:01:27.672Z</time></trkpt><trkpt lat="45.1262043" lon="8.1225339"><ele>211.0</ele><time>2026-04-12T12:01:28.672Z</time></trkpt><trkpt lat="45.1260577" lon="8.1224695"><ele>211.0</ele><time>2026-04-12T12:01:29.672Z</time></trkpt><trkpt lat="45.1259119" lon="8.122434"><ele>211.0</ele><time>2026-04-12T12:01:30.672Z</time></trkpt><trkpt lat="45.1257779" lon="8.1223973"><ele>211.0</ele><time>2026-04-12T12:01:31.672Z</time></trkpt><trkpt lat="45.1256561" lon="8.1223524"><ele>211.0</ele><time>2026-04-12T12:01:32.671Z</time></trkpt><trkpt lat="45.1255431" lon="8.122268"><ele>212.0</ele><time>2026-04-12T12:01:33.672Z</time></trkpt><trkpt lat="45.1254452" lon="8.1221418"><ele>213.0</ele><time>2026-04-12T12:01:34.672Z</time></trkpt><trkpt lat="45.1253598" lon="8.1219859"><ele>214.0</ele><time>2026-04-12T12:01:35.672Z</time></trkpt><trkpt lat="45.125279" lon="8.1218161"><ele>215.0</ele><time>2026-04-12T12:01:36.672Z</time></trkpt><trkpt lat="45.1251939" lon="8.1216387"><ele>216.0</ele><time>2026-04-12T12:01:37.672Z</time></trkpt><trkpt lat="45.1250996" lon="8.1214593"><ele>217.0</ele><time>2026-04-12T12:01:38.672Z</time></trkpt><trkpt lat="45.1250075" lon="8.1212989"><ele>218.0</ele><time>2026-04-12T12:01:39.672Z</time></trkpt><trkpt lat="45.1249056" lon="8.1211499"><ele>218.0</ele><time>2026-04-12T12:01:40.672Z</time></trkpt><trkpt lat="45.1248118" lon="8.1210088"><ele>218.0</ele><time>2026-04-12T12:01:41.671Z</time></trkpt><trkpt lat="45.1247195" lon="8.1208775"><ele>218.0</ele><time>2026-04-12T12:01:42.672Z</time></trkpt><trkpt lat="45.1246319" lon="8.1207739"><ele>218.0</ele><time>2026-04-12T12:01:43.672Z</time></trkpt><trkpt lat="45.1245377" lon="8.1206979"><ele>218.0</ele><time>2026-04-12T12:01:44.672Z</time></trkpt><trkpt lat="45.1244358" lon="8.1206364"><ele>218.0</ele><time>2026-04-12T12:01:45.672Z</time></trkpt><trkpt lat="45.1243393" lon="8.1205805"><ele>218.0</ele><time>2026-04-12T12:01:46.672Z</time></trkpt><trkpt lat="45.1242436" lon="8.120527"><ele>218.0</ele><time>2026-04-12T12:01:47.672Z</time></trkpt><trkpt lat="45.1241637" lon="8.1204925"><ele>218.0</ele><time>2026-04-12T12:01:48.672Z</time></trkpt><trkpt lat="45.1240652" lon="8.1204772"><ele>221.0</ele><time>2026-04-12T12:01:49.672Z</time></trkpt><trkpt lat="45.1239662" lon="8.1204989"><ele>224.0</ele><time>2026-04-12T12:01:50.672Z</time></trkpt><trkpt lat="45.123868" lon="8.1205358"><ele>227.0</ele><time>2026-04-12T12:01:51.671Z</time></trkpt><trkpt lat="45.1237685" lon="8.1205802"><ele>230.0</ele><time>2026-04-12T12:01:52.671Z</time></trkpt><trkpt lat="45.1236652" lon="8.1206245"><ele>233.0</ele><time>2026-04-12T12:01:53.671Z</time></trkpt><trkpt lat="45.123563" lon="8.120657"><ele>233.25</ele><time>2026-04-12T12:01:54.672Z</time></trkpt><trkpt lat="45.123472" lon="8.1207475"><ele>233.5</ele><time>2026-04-12T12:01:55.672Z</time></trkpt><trkpt lat="45.1233794" lon="8.1208505"><ele>233.75</ele><time>2026-04-12T12:01:56.671Z</time></trkpt><trkpt lat="45.1232878" lon="8.1209576"><ele>234.0</ele><time>2026-04-12T12:01:57.672Z</time></trkpt><trkpt lat="45.1231964" lon="8.1210607"><ele>238.6</ele><time>2026-04-12T12:01:58.672Z</time></trkpt><trkpt lat="45.1231109" lon="8.1211487"><ele>243.2</ele><time>2026-04-12T12:01:59.672Z</time></trkpt><trkpt lat="45.1230449" lon="8.1212751"><ele>247.79999999999998</ele><time>2026-04-12T12:02:00.672Z</time></trkpt><trkpt lat="45.1229836" lon="8.1213708"><ele>252.39999999999998</ele><time>2026-04-12T12:02:01.672Z</time></trkpt><trkpt lat="45.1229267" lon="8.1214475"><ele>257.0</ele><time>2026-04-12T12:02:02.671Z</time></trkpt><trkpt lat="45.12287" lon="8.1215812"><ele>257.0</ele><time>2026-04-12T12:02:04.672Z</time></trkpt><trkpt lat="45.1228955" lon="8.1216721"><ele>257.0</ele><time>2026-04-12T12:02:05.672Z</time></trkpt><trkpt lat="45.1229687" lon="8.1217274"><ele>257.0</ele><time>2026-04-12T12:02:07.672Z</time></trkpt><trkpt lat="45.1230346" lon="8.1217257"><ele>257.0</ele><time>2026-04-12T12:02:08.672Z</time></trkpt><trkpt lat="45.123105" lon="8.1216515"><ele>257.0</ele><time>2026-04-12T12:02:09.672Z</time></trkpt><trkpt lat="45.1231717" lon="8.1215562"><ele>257.0</ele><time>2026-04-12T12:02:10.672Z</time></trkpt><trkpt lat="45.1232362" lon="8.121461"><ele>252.39999999999998</ele><time>2026-04-12T12:02:11.672Z</time></trkpt><trkpt lat="45.1233026" lon="8.1213737"><ele>247.79999999999998</ele><time>2026-04-12T12:02:12.672Z</time></trkpt><trkpt lat="45.1233692" lon="8.1213122"><ele>243.2</ele><time>2026-04-12T12:02:13.672Z</time></trkpt><trkpt lat="45.1234318" lon="8.1212401"><ele>238.6</ele><time>2026-04-12T12:02:14.672Z</time></trkpt><trkpt lat="45.1234915" lon="8.1212067"><ele>234.0</ele><time>2026-04-12T12:02:15.672Z</time></trkpt><trkpt lat="45.1235799" lon="8.1214022"><ele>234.0</ele><time>2026-04-12T12:02:17.672Z</time></trkpt><trkpt lat="45.1236259" lon="8.1215457"><ele>234.0</ele><time>2026-04-12T12:02:18.672Z</time></trkpt><trkpt lat="45.1236847" lon="8.1216859"><ele>234.0</ele><time>2026-04-12T12:02:19.671Z</time></trkpt><trkpt lat="45.1237444" lon="8.1218282"><ele>234.0</ele><time>2026-04-12T12:02:20.672Z</time></trkpt><trkpt lat="45.1238098" lon="8.1219613"><ele>235.33333333333334</ele><time>2026-04-12T12:02:21.671Z</time></trkpt><trkpt lat="45.1238506" lon="8.1220512"><ele>236.66666666666669</ele><time>2026-04-12T12:02:22.671Z</time></trkpt><trkpt lat="45.1238825" lon="8.1221647"><ele>238.0</ele><time>2026-04-12T12:02:23.672Z</time></trkpt><trkpt lat="45.1238797" lon="8.1222777"><ele>239.33333333333334</ele><time>2026-04-12T12:02:24.672Z</time></trkpt><trkpt lat="45.1238735" lon="8.1224104"><ele>240.66666666666669</ele><time>2026-04-12T12:02:25.672Z</time></trkpt><trkpt lat="45.1238593" lon="8.1225308"><ele>242.0</ele><time>2026-04-12T12:02:26.671Z</time></trkpt><trkpt lat="45.1238564" lon="8.1226692"><ele>243.83333333333334</ele><time>2026-04-12T12:02:27.672Z</time></trkpt><trkpt lat="45.1238673" lon="8.1228018"><ele>245.66666666666669</ele><time>2026-04-12T12:02:28.672Z</time></trkpt><trkpt lat="45.1238532" lon="8.1229001"><ele>247.5</ele><time>2026-04-12T12:02:29.672Z</time></trkpt><trkpt lat="45.1238356" lon="8.1229959"><ele>249.33333333333331</ele><time>2026-04-12T12:02:30.672Z</time></trkpt><trkpt lat="45.1238039" lon="8.1230757"><ele>251.16666666666666</ele><time>2026-04-12T12:02:31.672Z</time></trkpt><trkpt lat="45.1237276" lon="8.1231011"><ele>253.0</ele><time>2026-04-12T12:02:33.671Z</time></trkpt><trkpt lat="45.1237488" lon="8.1229878"><ele>253.00000000000003</ele><time>2026-04-12T12:02:34.671Z</time></trkpt><trkpt lat="45.1237581" lon="8.1228962"><ele>253.0</ele><time>2026-04-12T12:02:35.672Z</time></trkpt><trkpt lat="45.1237608" lon="8.1228032"><ele>253.00000000000003</ele><time>2026-04-12T12:02:36.672Z</time></trkpt><trkpt lat="45.1237594" lon="8.122705"><ele>253.00000000000003</ele><time>2026-04-12T12:02:37.672Z</time></trkpt><trkpt lat="45.1237257" lon="8.1225838"><ele>253.0</ele><time>2026-04-12T12:02:38.671Z</time></trkpt><trkpt lat="45.1236882" lon="8.1224919"><ele>253.00000000000003</ele><time>2026-04-12T12:02:39.672Z</time></trkpt><trkpt lat="45.1236379" lon="8.1224105"><ele>253.00000000000003</ele><time>2026-04-12T12:02:40.672Z</time></trkpt><trkpt lat="45.1235642" lon="8.1223763"><ele>253.0</ele><time>2026-04-12T12:02:41.672Z</time></trkpt><trkpt lat="45.1234822" lon="8.1223426"><ele>253.0</ele><time>2026-04-12T12:02:42.672Z</time></trkpt><trkpt lat="45.1234032" lon="8.1223816"><ele>253.0</ele><time>2026-04-12T12:02:43.672Z</time></trkpt><trkpt lat="45.1233305" lon="8.1224529"><ele>253.0</ele><time>2026-04-12T12:02:44.671Z</time></trkpt><trkpt lat="45.1232541" lon="8.1225455"><ele>253.0</ele><time>2026-04-12T12:02:45.672Z</time></trkpt><trkpt lat="45.1231816" lon="8.1226415"><ele>255.0</ele><time>2026-04-12T12:02:46.672Z</time></trkpt><trkpt lat="45.1231083" lon="8.1227584"><ele>257.0</ele><time>2026-04-12T12:02:47.672Z</time></trkpt><trkpt lat="45.1230299" lon="8.1228814"><ele>259.0</ele><time>2026-04-12T12:02:48.671Z</time></trkpt><trkpt lat="45.1229485" lon="8.1229973"><ele>261.0</ele><time>2026-04-12T12:02:49.671Z</time></trkpt><trkpt lat="45.1228631" lon="8.1231247"><ele>264.5</ele><time>2026-04-12T12:02:50.672Z</time></trkpt><trkpt lat="45.1227851" lon="8.1232513"><ele>268.0</ele><time>2026-04-12T12:02:51.672Z</time></trkpt><trkpt lat="45.1226905" lon="8.1233581"><ele>271.5</ele><time>2026-04-12T12:02:52.672Z</time></trkpt><trkpt lat="45.1225876" lon="8.1234459"><ele>275.0</ele><time>2026-04-12T12:02:53.672Z</time></trkpt><trkpt lat="45.122488" lon="8.1235384"><ele>278.4</ele><time>2026-04-12T12:02:54.672Z</time></trkpt><trkpt lat="45.1223667" lon="8.123634"><ele>281.8</ele><time>2026-04-12T12:02:55.672Z</time></trkpt><trkpt lat="45.1222587" lon="8.1237145"><ele>285.2</ele><time>2026-04-12T12:02:56.672Z</time></trkpt><trkpt lat="45.122172" lon="8.1237818"><ele>288.6</ele><time>2026-04-12T12:02:57.672Z</time></trkpt><trkpt lat="45.1220981" lon="8.1238389"><ele>292.0</ele><time>2026-04-12T12:02:58.672Z</time></trkpt><trkpt lat="45.1220246" lon="8.1238844"><ele>292.0</ele><time>2026-04-12T12:02:59.672Z</time></trkpt><trkpt lat="45.1219506" lon="8.1238834"><ele>292.0</ele><time>2026-04-12T12:03:00.672Z</time></trkpt><trkpt lat="45.1218805" lon="8.1238594"><ele>292.0</ele><time>2026-04-12T12:03:01.672Z</time></trkpt><trkpt lat="45.1218353" lon="8.1237472"><ele>292.0</ele><time>2026-04-12T12:03:02.672Z</time></trkpt><trkpt lat="45.1217923" lon="8.1236486"><ele>292.0</ele><time>2026-04-12T12:03:03.672Z</time></trkpt><trkpt lat="45.1217458" lon="8.1235252"><ele>292.0</ele><time>2026-04-12T12:03:04.671Z</time></trkpt><trkpt lat="45.1216854" lon="8.1234073"><ele>292.0</ele><time>2026-04-12T12:03:05.672Z</time></trkpt><trkpt lat="45.1216173" lon="8.1232861"><ele>292.0</ele><time>2026-04-12T12:03:06.672Z</time></trkpt><trkpt lat="45.121555" lon="8.1231681"><ele>292.0</ele><time>2026-04-12T12:03:07.672Z</time></trkpt><trkpt lat="45.1214785" lon="8.1230341"><ele>292.0</ele><time>2026-04-12T12:03:08.672Z</time></trkpt><trkpt lat="45.1214155" lon="8.1229047"><ele>292.0</ele><time>2026-04-12T12:03:09.672Z</time></trkpt><trkpt lat="45.1213605" lon="8.1227737"><ele>296.25</ele><time>2026-04-12T12:03:10.671Z</time></trkpt><trkpt lat="45.1213181" lon="8.1226274"><ele>300.5</ele><time>2026-04-12T12:03:11.672Z</time></trkpt><trkpt lat="45.121273" lon="8.1224758"><ele>304.75</ele><time>2026-04-12T12:03:12.672Z</time></trkpt><trkpt lat="45.1212563" lon="8.1223041"><ele>309.0</ele><time>2026-04-12T12:03:13.672Z</time></trkpt><trkpt lat="45.1212505" lon="8.122131"><ele>309.0</ele><time>2026-04-12T12:03:14.672Z</time></trkpt><trkpt lat="45.1212431" lon="8.1219605"><ele>309.0</ele><time>2026-04-12T12:03:15.671Z</time></trkpt><trkpt lat="45.1212297" lon="8.1217961"><ele>309.0</ele><time>2026-04-12T12:03:16.672Z</time></trkpt><trkpt lat="45.1212128" lon="8.1216293"><ele>309.0</ele><time>2026-04-12T12:03:17.672Z</time></trkpt><trkpt lat="45.1211981" lon="8.1214747"><ele>306.8</ele><time>2026-04-12T12:03:18.672Z</time></trkpt><trkpt lat="45.1211741" lon="8.1213216"><ele>304.59999999999997</ele><time>2026-04-12T12:03:19.672Z</time></trkpt><trkpt lat="45.1211209" lon="8.1211784"><ele>302.4</ele><time>2026-04-12T12:03:20.672Z</time></trkpt><trkpt lat="45.1210683" lon="8.1210487"><ele>300.2</ele><time>2026-04-12T12:03:21.672Z</time></trkpt><trkpt lat="45.1210149" lon="8.12093"><ele>298.0</ele><time>2026-04-12T12:03:22.672Z</time></trkpt><trkpt lat="45.1209837" lon="8.1208012"><ele>299.0</ele><time>2026-04-12T12:03:23.672Z</time></trkpt><trkpt lat="45.1209728" lon="8.1206451"><ele>300.0</ele><time>2026-04-12T12:03:24.672Z</time></trkpt><trkpt lat="45.1209754" lon="8.1204881"><ele>301.0</ele><time>2026-04-12T12:03:25.672Z</time></trkpt><trkpt lat="45.1209848" lon="8.1203238"><ele>302.0</ele><time>2026-04-12T12:03:26.672Z</time></trkpt><trkpt lat="45.1209753" lon="8.1201436"><ele>302.0</ele><time>2026-04-12T12:03:27.671Z</time></trkpt><trkpt lat="45.120957" lon="8.1199506"><ele>302.0</ele><time>2026-04-12T12:03:28.672Z</time></trkpt><trkpt lat="45.1209397" lon="8.1197729"><ele>302.0</ele><time>2026-04-12T12:03:29.672Z</time></trkpt><trkpt lat="45.1209172" lon="8.1195989"><ele>302.0</ele><time>2026-04-12T12:03:30.671Z</time></trkpt><trkpt lat="45.1209007" lon="8.1194227"><ele>302.25</ele><time>2026-04-12T12:03:31.672Z</time></trkpt><trkpt lat="45.120876" lon="8.1192387"><ele>302.5</ele><time>2026-04-12T12:03:32.672Z</time></trkpt><trkpt lat="45.1208539" lon="8.1190523"><ele>302.75</ele><time>2026-04-12T12:03:33.672Z</time></trkpt><trkpt lat="45.1208419" lon="8.1188608"><ele>303.0</ele><time>2026-04-12T12:03:34.672Z</time></trkpt><trkpt lat="45.1208313" lon="8.1186657"><ele>304.25</ele><time>2026-04-12T12:03:35.672Z</time></trkpt><trkpt lat="45.120823" lon="8.1184693"><ele>305.5</ele><time>2026-04-12T12:03:36.671Z</time></trkpt><trkpt lat="45.1208162" lon="8.1182677"><ele>306.75</ele><time>2026-04-12T12:03:37.671Z</time></trkpt><trkpt lat="45.1208143" lon="8.1180681"><ele>308.0</ele><time>2026-04-12T12:03:38.672Z</time></trkpt><trkpt lat="45.1207981" lon="8.1178732"><ele>309.75</ele><time>2026-04-12T12:03:39.671Z</time></trkpt><trkpt lat="45.1207715" lon="8.1176802"><ele>311.5</ele><time>2026-04-12T12:03:40.671Z</time></trkpt><trkpt lat="45.1207481" lon="8.1174831"><ele>313.25</ele><time>2026-04-12T12:03:41.672Z</time></trkpt><trkpt lat="45.1207041" lon="8.1172938"><ele>315.0</ele><time>2026-04-12T12:03:42.672Z</time></trkpt><trkpt lat="45.1206497" lon="8.1171175"><ele>315.25</ele><time>2026-04-12T12:03:43.672Z</time></trkpt><trkpt lat="45.1205995" lon="8.1169416"><ele>315.5</ele><time>2026-04-12T12:03:44.672Z</time></trkpt><trkpt lat="45.1205336" lon="8.1167717"><ele>315.75</ele><time>2026-04-12T12:03:45.672Z</time></trkpt><trkpt lat="45.120457" lon="8.1166114"><ele>316.0</ele><time>2026-04-12T12:03:46.672Z</time></trkpt><trkpt lat="45.120351" lon="8.1164877"><ele>318.20000000000005</ele><time>2026-04-12T12:03:47.672Z</time></trkpt><trkpt lat="45.1202407" lon="8.1163904"><ele>320.40000000000003</ele><time>2026-04-12T12:03:48.672Z</time></trkpt><trkpt lat="45.1201374" lon="8.1163083"><ele>322.6</ele><time>2026-04-12T12:03:49.671Z</time></trkpt><trkpt lat="45.1200539" lon="8.1162363"><ele>324.8</ele><time>2026-04-12T12:03:50.672Z</time></trkpt><trkpt lat="45.1199902" lon="8.1161538"><ele>327.0</ele><time>2026-04-12T12:03:51.672Z</time></trkpt><trkpt lat="45.1199395" lon="8.1160601"><ele>327.0</ele><time>2026-04-12T12:03:52.672Z</time></trkpt><trkpt lat="45.1199503" lon="8.1159325"><ele>327.0</ele><time>2026-04-12T12:03:53.671Z</time></trkpt><trkpt lat="45.1199701" lon="8.1157964"><ele>327.0</ele><time>2026-04-12T12:03:54.672Z</time></trkpt><trkpt lat="45.1199769" lon="8.115643"><ele>327.0</ele><time>2026-04-12T12:03:55.672Z</time></trkpt><trkpt lat="45.1199595" lon="8.115481"><ele>327.0</ele><time>2026-04-12T12:03:56.672Z</time></trkpt><trkpt lat="45.1199281" lon="8.1152916"><ele>319.5</ele><time>2026-04-12T12:03:57.672Z</time></trkpt><trkpt lat="45.1198913" lon="8.1151208"><ele>312.0</ele><time>2026-04-12T12:03:58.671Z</time></trkpt><trkpt lat="45.119866" lon="8.114932"><ele>304.5</ele><time>2026-04-12T12:03:59.672Z</time></trkpt><trkpt lat="45.119849" lon="8.1147393"><ele>297.0</ele><time>2026-04-12T12:04:00.672Z</time></trkpt><trkpt lat="45.1198354" lon="8.1145628"><ele>297.0</ele><time>2026-04-12T12:04:01.672Z</time></trkpt><trkpt lat="45.1198157" lon="8.1143332"><ele>297.0</ele><time>2026-04-12T12:04:02.672Z</time></trkpt><trkpt lat="45.1197955" lon="8.1141184"><ele>297.0</ele><time>2026-04-12T12:04:03.672Z</time></trkpt><trkpt lat="45.1197622" lon="8.1139186"><ele>300.3333333333333</ele><time>2026-04-12T12:04:04.672Z</time></trkpt><trkpt lat="45.119732" lon="8.1137238"><ele>303.66666666666663</ele><time>2026-04-12T12:04:05.672Z</time></trkpt><trkpt lat="45.1197075" lon="8.1134845"><ele>307.0</ele><time>2026-04-12T12:04:06.672Z</time></trkpt><trkpt lat="45.1196706" lon="8.1132895"><ele>308.5</ele><time>2026-04-12T12:04:07.672Z</time></trkpt><trkpt lat="45.11963" lon="8.1131113"><ele>310.0</ele><time>2026-04-12T12:04:08.672Z</time></trkpt><trkpt lat="45.1196049" lon="8.1129229"><ele>311.5</ele><time>2026-04-12T12:04:09.672Z</time></trkpt><trkpt lat="45.1195908" lon="8.112768"><ele>313.0</ele><time>2026-04-12T12:04:10.672Z</time></trkpt><trkpt lat="45.1195694" lon="8.1126059"><ele>313.0</ele><time>2026-04-12T12:04:11.672Z</time></trkpt><trkpt lat="45.1195392" lon="8.1124573"><ele>313.0</ele><time>2026-04-12T12:04:12.672Z</time></trkpt><trkpt lat="45.1194999" lon="8.1123104"><ele>313.0</ele><time>2026-04-12T12:04:13.672Z</time></trkpt><trkpt lat="45.1194479" lon="8.1121584"><ele>313.0</ele><time>2026-04-12T12:04:14.672Z</time></trkpt><trkpt lat="45.1193845" lon="8.1120012"><ele>313.75</ele><time>2026-04-12T12:04:15.672Z</time></trkpt><trkpt lat="45.1193168" lon="8.1118513"><ele>314.5</ele><time>2026-04-12T12:04:16.672Z</time></trkpt><trkpt lat="45.1192597" lon="8.1116977"><ele>315.25</ele><time>2026-04-12T12:04:17.672Z</time></trkpt><trkpt lat="45.1191793" lon="8.1115882"><ele>316.0</ele><time>2026-04-12T12:04:18.672Z</time></trkpt><trkpt lat="45.1190887" lon="8.1114874"><ele>316.0</ele><time>2026-04-12T12:04:19.672Z</time></trkpt><trkpt lat="45.1189748" lon="8.1113972"><ele>316.0</ele><time>2026-04-12T12:04:20.672Z</time></trkpt><trkpt lat="45.1188636" lon="8.1112934"><ele>316.0</ele><time>2026-04-12T12:04:21.672Z</time></trkpt><trkpt lat="45.1187591" lon="8.1111736"><ele>316.0</ele><time>2026-04-12T12:04:22.672Z</time></trkpt><trkpt lat="45.1186632" lon="8.1110478"><ele>316.0</ele><time>2026-04-12T12:04:23.672Z</time></trkpt><trkpt lat="45.1185824" lon="8.1109138"><ele>316.0</ele><time>2026-04-12T12:04:24.672Z</time></trkpt><trkpt lat="45.118494" lon="8.1107967"><ele>316.0</ele><time>2026-04-12T12:04:25.672Z</time></trkpt><trkpt lat="45.1183931" lon="8.1107097"><ele>316.0</ele><time>2026-04-12T12:04:26.671Z</time></trkpt><trkpt lat="45.1182746" lon="8.1106808"><ele>319.5</ele><time>2026-04-12T12:04:27.672Z</time></trkpt><trkpt lat="45.1181383" lon="8.1106659"><ele>323.0</ele><time>2026-04-12T12:04:28.672Z</time></trkpt><trkpt lat="45.1179956" lon="8.1106501"><ele>326.5</ele><time>2026-04-12T12:04:29.671Z</time></trkpt><trkpt lat="45.117859" lon="8.1106395"><ele>330.0</ele><time>2026-04-12T12:04:30.671Z</time></trkpt><trkpt lat="45.1177292" lon="8.1106414"><ele>330.0</ele><time>2026-04-12T12:04:31.672Z</time></trkpt><trkpt lat="45.1176124" lon="8.1106524"><ele>330.0</ele><time>2026-04-12T12:04:32.672Z</time></trkpt><trkpt lat="45.1175182" lon="8.1106438"><ele>330.0</ele><time>2026-04-12T12:04:33.672Z</time></trkpt><trkpt lat="45.1174402" lon="8.1105973"><ele>330.0</ele><time>2026-04-12T12:04:34.672Z</time></trkpt><trkpt lat="45.1173668" lon="8.1105076"><ele>330.0</ele><time>2026-04-12T12:04:35.672Z</time></trkpt><trkpt lat="45.1173161" lon="8.1103821"><ele>329.8</ele><time>2026-04-12T12:04:36.671Z</time></trkpt><trkpt lat="45.1172634" lon="8.1102747"><ele>329.6</ele><time>2026-04-12T12:04:37.672Z</time></trkpt><trkpt lat="45.1172082" lon="8.1101811"><ele>329.4</ele><time>2026-04-12T12:04:38.672Z</time></trkpt><trkpt lat="45.1171403" lon="8.1100916"><ele>329.2</ele><time>2026-04-12T12:04:39.672Z</time></trkpt><trkpt lat="45.1170343" lon="8.1100812"><ele>329.0</ele><time>2026-04-12T12:04:40.672Z</time></trkpt><trkpt lat="45.116929" lon="8.1100866"><ele>329.0</ele><time>2026-04-12T12:04:41.672Z</time></trkpt><trkpt lat="45.1168025" lon="8.1101007"><ele>329.0</ele><time>2026-04-12T12:04:42.672Z</time></trkpt><trkpt lat="45.1166842" lon="8.1101582"><ele>329.0</ele><time>2026-04-12T12:04:43.671Z</time></trkpt><trkpt lat="45.1165722" lon="8.1102339"><ele>329.0</ele><time>2026-04-12T12:04:44.672Z</time></trkpt><trkpt lat="45.1164557" lon="8.1103202"><ele>328.75</ele><time>2026-04-12T12:04:45.672Z</time></trkpt><trkpt lat="45.1163388" lon="8.1104316"><ele>328.5</ele><time>2026-04-12T12:04:46.672Z</time></trkpt><trkpt lat="45.1162266" lon="8.1105529"><ele>328.25</ele><time>2026-04-12T12:04:47.672Z</time></trkpt><trkpt lat="45.1161131" lon="8.1106841"><ele>328.0</ele><time>2026-04-12T12:04:48.672Z</time></trkpt><trkpt lat="45.1160023" lon="8.1108134"><ele>330.75</ele><time>2026-04-12T12:04:49.672Z</time></trkpt><trkpt lat="45.1158903" lon="8.110929"><ele>333.5</ele><time>2026-04-12T12:04:50.671Z</time></trkpt><trkpt lat="45.115781" lon="8.1110408"><ele>336.25</ele><time>2026-04-12T12:04:51.672Z</time></trkpt><trkpt lat="45.11566" lon="8.1111229"><ele>339.0</ele><time>2026-04-12T12:04:52.672Z</time></trkpt><trkpt lat="45.1155274" lon="8.1111735"><ele>340.75</ele><time>2026-04-12T12:04:53.672Z</time></trkpt><trkpt lat="45.1153985" lon="8.1112291"><ele>342.5</ele><time>2026-04-12T12:04:54.672Z</time></trkpt><trkpt lat="45.1152658" lon="8.1112818"><ele>344.25</ele><time>2026-04-12T12:04:55.672Z</time></trkpt><trkpt lat="45.1151524" lon="8.1113191"><ele>346.0</ele><time>2026-04-12T12:04:56.672Z</time></trkpt><trkpt lat="45.1150536" lon="8.1113419"><ele>346.0</ele><time>2026-04-12T12:04:57.672Z</time></trkpt><trkpt lat="45.1149544" lon="8.1113362"><ele>346.0</ele><time>2026-04-12T12:04:58.672Z</time></trkpt><trkpt lat="45.1148605" lon="8.1112832"><ele>346.0</ele><time>2026-04-12T12:04:59.672Z</time></trkpt><trkpt lat="45.1147825" lon="8.111198"><ele>346.0</ele><time>2026-04-12T12:05:00.672Z</time></trkpt><trkpt lat="45.114713" lon="8.1110742"><ele>346.0</ele><time>2026-04-12T12:05:01.672Z</time></trkpt><trkpt lat="45.1146576" lon="8.1109342"><ele>344.75</ele><time>2026-04-12T12:05:02.672Z</time></trkpt><trkpt lat="45.1146104" lon="8.1107679"><ele>343.5</ele><time>2026-04-12T12:05:03.672Z</time></trkpt><trkpt lat="45.1145729" lon="8.1106126"><ele>342.25</ele><time>2026-04-12T12:05:04.672Z</time></trkpt><trkpt lat="45.1145971" lon="8.1104626"><ele>341.0</ele><time>2026-04-12T12:05:05.672Z</time></trkpt><trkpt lat="45.1146313" lon="8.1103173"><ele>341.0</ele><time>2026-04-12T12:05:06.672Z</time></trkpt><trkpt lat="45.1146781" lon="8.1101518"><ele>341.0</ele><time>2026-04-12T12:05:07.671Z</time></trkpt><trkpt lat="45.1147313" lon="8.109987"><ele>341.0</ele><time>2026-04-12T12:05:08.672Z</time></trkpt><trkpt lat="45.1147795" lon="8.1098401"><ele>341.0</ele><time>2026-04-12T12:05:09.671Z</time></trkpt><trkpt lat="45.1148148" lon="8.1096716"><ele>340.5</ele><time>2026-04-12T12:05:10.672Z</time></trkpt><trkpt lat="45.1148237" lon="8.1094857"><ele>340.0</ele><time>2026-04-12T12:05:11.672Z</time></trkpt><trkpt lat="45.1148243" lon="8.1092834"><ele>339.5</ele><time>2026-04-12T12:05:12.672Z</time></trkpt><trkpt lat="45.1148116" lon="8.1090958"><ele>339.0</ele><time>2026-04-12T12:05:13.672Z</time></trkpt><trkpt lat="45.114786" lon="8.1089118"><ele>341.5</ele><time>2026-04-12T12:05:14.672Z</time></trkpt><trkpt lat="45.1147534" lon="8.1087276"><ele>344.0</ele><time>2026-04-12T12:05:15.672Z</time></trkpt><trkpt lat="45.1146954" lon="8.1085653"><ele>346.5</ele><time>2026-04-12T12:05:16.672Z</time></trkpt><trkpt lat="45.1146093" lon="8.1084259"><ele>349.0</ele><time>2026-04-12T12:05:17.672Z</time></trkpt><trkpt lat="45.1145126" lon="8.1083227"><ele>349.0</ele><time>2026-04-12T12:05:18.671Z</time></trkpt><trkpt lat="45.1144076" lon="8.1082193"><ele>349.0</ele><time>2026-04-12T12:05:19.672Z</time></trkpt><trkpt lat="45.1142609" lon="8.1081128"><ele>349.0</ele><time>2026-04-12T12:05:20.671Z</time></trkpt><trkpt lat="45.1141506" lon="8.1080248"><ele>349.0</ele><time>2026-04-12T12:05:21.672Z</time></trkpt><trkpt lat="45.1140329" lon="8.1079289"><ele>349.0</ele><time>2026-04-12T12:05:22.672Z</time></trkpt><trkpt lat="45.1139275" lon="8.1078256"><ele>349.0</ele><time>2026-04-12T12:05:23.672Z</time></trkpt><trkpt lat="45.1138336" lon="8.107706"><ele>349.0</ele><time>2026-04-12T12:05:24.672Z</time></trkpt><trkpt lat="45.113769" lon="8.1075917"><ele>349.0</ele><time>2026-04-12T12:05:25.672Z</time></trkpt><trkpt lat="45.1136965" lon="8.1074631"><ele>349.25</ele><time>2026-04-12T12:05:26.672Z</time></trkpt><trkpt lat="45.1136337" lon="8.1073189"><ele>349.5</ele><time>2026-04-12T12:05:27.672Z</time></trkpt><trkpt lat="45.1135772" lon="8.1071611"><ele>349.75</ele><time>2026-04-12T12:05:28.672Z</time></trkpt><trkpt lat="45.1135314" lon="8.1069876"><ele>350.0</ele><time>2026-04-12T12:05:29.672Z</time></trkpt><trkpt lat="45.1134971" lon="8.1068181"><ele>350.0</ele><time>2026-04-12T12:05:30.671Z</time></trkpt><trkpt lat="45.1134829" lon="8.1066395"><ele>350.0</ele><time>2026-04-12T12:05:31.672Z</time></trkpt><trkpt lat="45.1134748" lon="8.1064703"><ele>350.0</ele><time>2026-04-12T12:05:32.672Z</time></trkpt><trkpt lat="45.1134916" lon="8.1062933"><ele>350.0</ele><time>2026-04-12T12:05:33.672Z</time></trkpt><trkpt lat="45.1135113" lon="8.1061119"><ele>350.0</ele><time>2026-04-12T12:05:34.672Z</time></trkpt><trkpt lat="45.1135419" lon="8.105933"><ele>350.0</ele><time>2026-04-12T12:05:35.672Z</time></trkpt><trkpt lat="45.1135664" lon="8.1057493"><ele>350.0</ele><time>2026-04-12T12:05:36.672Z</time></trkpt><trkpt lat="45.1135889" lon="8.1055703"><ele>350.0</ele><time>2026-04-12T12:05:37.672Z</time></trkpt><trkpt lat="45.113605" lon="8.1053897"><ele>350.0</ele><time>2026-04-12T12:05:38.672Z</time></trkpt><trkpt lat="45.1136063" lon="8.1052156"><ele>350.0</ele><time>2026-04-12T12:05:39.672Z</time></trkpt><trkpt lat="45.1135958" lon="8.1050632"><ele>350.0</ele><time>2026-04-12T12:05:40.672Z</time></trkpt><trkpt lat="45.1135707" lon="8.1049198"><ele>350.0</ele><time>2026-04-12T12:05:41.672Z</time></trkpt><trkpt lat="45.1135377" lon="8.1048015"><ele>350.0</ele><time>2026-04-12T12:05:42.672Z</time></trkpt><trkpt lat="45.1134666" lon="8.1046933"><ele>349.5</ele><time>2026-04-12T12:05:43.672Z</time></trkpt><trkpt lat="45.1133874" lon="8.1045837"><ele>349.0</ele><time>2026-04-12T12:05:44.672Z</time></trkpt><trkpt lat="45.1133059" lon="8.1044595"><ele>348.5</ele><time>2026-04-12T12:05:45.672Z</time></trkpt><trkpt lat="45.1132214" lon="8.1043276"><ele>348.0</ele><time>2026-04-12T12:05:46.672Z</time></trkpt><trkpt lat="45.11313" lon="8.1042311"><ele>348.0</ele><time>2026-04-12T12:05:47.672Z</time></trkpt><trkpt lat="45.1130568" lon="8.1041321"><ele>348.0</ele><time>2026-04-12T12:05:48.672Z</time></trkpt><trkpt lat="45.1129706" lon="8.1040346"><ele>348.0</ele><time>2026-04-12T12:05:49.672Z</time></trkpt><trkpt lat="45.1129011" lon="8.1039253"><ele>348.0</ele><time>2026-04-12T12:05:50.672Z</time></trkpt><trkpt lat="45.1128343" lon="8.1038116"><ele>348.0</ele><time>2026-04-12T12:05:51.672Z</time></trkpt><trkpt lat="45.1127705" lon="8.1036922"><ele>348.2</ele><time>2026-04-12T12:05:52.671Z</time></trkpt><trkpt lat="45.112701" lon="8.1035833"><ele>348.4</ele><time>2026-04-12T12:05:53.672Z</time></trkpt><trkpt lat="45.1126348" lon="8.1034809"><ele>348.59999999999997</ele><time>2026-04-12T12:05:54.672Z</time></trkpt><trkpt lat="45.1125923" lon="8.1033829"><ele>348.79999999999995</ele><time>2026-04-12T12:05:55.672Z</time></trkpt><trkpt lat="45.1125649" lon="8.103255"><ele>349.0</ele><time>2026-04-12T12:05:56.672Z</time></trkpt><trkpt lat="45.112563" lon="8.1031109"><ele>347.4</ele><time>2026-04-12T12:05:57.672Z</time></trkpt><trkpt lat="45.1125897" lon="8.1029698"><ele>345.79999999999995</ele><time>2026-04-12T12:05:58.672Z</time></trkpt><trkpt lat="45.1126361" lon="8.1028345"><ele>344.20000000000005</ele><time>2026-04-12T12:05:59.672Z</time></trkpt><trkpt lat="45.1127032" lon="8.1027079"><ele>342.6</ele><time>2026-04-12T12:06:00.672Z</time></trkpt><trkpt lat="45.1127824" lon="8.1025951"><ele>341.0</ele><time>2026-04-12T12:06:01.672Z</time></trkpt><trkpt lat="45.1128601" lon="8.1024963"><ele>339.8</ele><time>2026-04-12T12:06:02.672Z</time></trkpt><trkpt lat="45.1129377" lon="8.1023919"><ele>338.6</ele><time>2026-04-12T12:06:03.671Z</time></trkpt><trkpt lat="45.1129965" lon="8.1022732"><ele>337.4</ele><time>2026-04-12T12:06:04.672Z</time></trkpt><trkpt lat="45.113035" lon="8.1021356"><ele>336.2</ele><time>2026-04-12T12:06:05.672Z</time></trkpt><trkpt lat="45.1130521" lon="8.1019654"><ele>335.0</ele><time>2026-04-12T12:06:06.672Z</time></trkpt><trkpt lat="45.1130466" lon="8.1017914"><ele>335.0</ele><time>2026-04-12T12:06:07.672Z</time></trkpt><trkpt lat="45.1130116" lon="8.1016169"><ele>335.0</ele><time>2026-04-12T12:06:08.672Z</time></trkpt><trkpt lat="45.1129582" lon="8.1014386"><ele>335.0</ele><time>2026-04-12T12:06:09.672Z</time></trkpt><trkpt lat="45.1129018" lon="8.1012625"><ele>335.0</ele><time>2026-04-12T12:06:10.671Z</time></trkpt><trkpt lat="45.1128325" lon="8.1010999"><ele>334.25</ele><time>2026-04-12T12:06:11.671Z</time></trkpt><trkpt lat="45.1127383" lon="8.1009754"><ele>333.5</ele><time>2026-04-12T12:06:12.672Z</time></trkpt><trkpt lat="45.1126209" lon="8.1008731"><ele>332.75</ele><time>2026-04-12T12:06:13.672Z</time></trkpt><trkpt lat="45.1124902" lon="8.1007943"><ele>332.0</ele><time>2026-04-12T12:06:14.672Z</time></trkpt><trkpt lat="45.1123613" lon="8.1007225"><ele>332.0</ele><time>2026-04-12T12:06:15.671Z</time></trkpt><trkpt lat="45.1122294" lon="8.1006639"><ele>332.0</ele><time>2026-04-12T12:06:16.672Z</time></trkpt><trkpt lat="45.1121081" lon="8.1005968"><ele>332.0</ele><time>2026-04-12T12:06:17.672Z</time></trkpt><trkpt lat="45.1120024" lon="8.1005272"><ele>332.0</ele><time>2026-04-12T12:06:18.671Z</time></trkpt><trkpt lat="45.1119149" lon="8.100436"><ele>332.0</ele><time>2026-04-12T12:06:19.672Z</time></trkpt><trkpt lat="45.1118424" lon="8.1003314"><ele>332.0</ele><time>2026-04-12T12:06:20.672Z</time></trkpt><trkpt lat="45.1117926" lon="8.100169"><ele>332.0</ele><time>2026-04-12T12:06:21.672Z</time></trkpt><trkpt lat="45.1117594" lon="8.1000006"><ele>332.0</ele><time>2026-04-12T12:06:22.672Z</time></trkpt><trkpt lat="45.1117396" lon="8.0998347"><ele>332.25</ele><time>2026-04-12T12:06:23.672Z</time></trkpt><trkpt lat="45.1117237" lon="8.0996527"><ele>332.5</ele><time>2026-04-12T12:06:24.672Z</time></trkpt><trkpt lat="45.1117082" lon="8.0994582"><ele>332.75</ele><time>2026-04-12T12:06:25.672Z</time></trkpt><trkpt lat="45.1116945" lon="8.0992375"><ele>333.0</ele><time>2026-04-12T12:06:26.671Z</time></trkpt><trkpt lat="45.1116778" lon="8.0990228"><ele>333.0</ele><time>2026-04-12T12:06:27.672Z</time></trkpt><trkpt lat="45.111659" lon="8.0988061"><ele>333.0</ele><time>2026-04-12T12:06:28.672Z</time></trkpt><trkpt lat="45.1116406" lon="8.098583"><ele>333.0</ele><time>2026-04-12T12:06:29.672Z</time></trkpt><trkpt lat="45.1116178" lon="8.0983598"><ele>334.3333333333333</ele><time>2026-04-12T12:06:30.672Z</time></trkpt><trkpt lat="45.1115952" lon="8.098143"><ele>335.66666666666663</ele><time>2026-04-12T12:06:31.672Z</time></trkpt><trkpt lat="45.1115791" lon="8.0979222"><ele>337.0</ele><time>2026-04-12T12:06:32.672Z</time></trkpt><trkpt lat="45.1115581" lon="8.0977047"><ele>338.25</ele><time>2026-04-12T12:06:33.672Z</time></trkpt><trkpt lat="45.1115434" lon="8.0974986"><ele>339.5</ele><time>2026-04-12T12:06:34.672Z</time></trkpt><trkpt lat="45.1115191" lon="8.0973135"><ele>340.75</ele><time>2026-04-12T12:06:35.672Z</time></trkpt><trkpt lat="45.11148" lon="8.0971607"><ele>342.0</ele><time>2026-04-12T12:06:36.672Z</time></trkpt><trkpt lat="45.1114176" lon="8.0970131"><ele>342.0</ele><time>2026-04-12T12:06:37.672Z</time></trkpt><trkpt lat="45.1113284" lon="8.0968909"><ele>342.0</ele><time>2026-04-12T12:06:38.672Z</time></trkpt><trkpt lat="45.1112422" lon="8.0967535"><ele>342.0</ele><time>2026-04-12T12:06:39.672Z</time></trkpt><trkpt lat="45.1111653" lon="8.0966444"><ele>342.0</ele><time>2026-04-12T12:06:40.672Z</time></trkpt><trkpt lat="45.1110993" lon="8.0965275"><ele>342.1666666666667</ele><time>2026-04-12T12:06:41.672Z</time></trkpt><trkpt lat="45.1110373" lon="8.0964413"><ele>342.3333333333333</ele><time>2026-04-12T12:06:42.672Z</time></trkpt><trkpt lat="45.1109715" lon="8.0963715"><ele>342.5</ele><time>2026-04-12T12:06:43.672Z</time></trkpt><trkpt lat="45.1108959" lon="8.0963295"><ele>342.66666666666663</ele><time>2026-04-12T12:06:44.672Z</time></trkpt><trkpt lat="45.1108112" lon="8.0963015"><ele>342.8333333333333</ele><time>2026-04-12T12:06:45.672Z</time></trkpt><trkpt lat="45.1107417" lon="8.0962999"><ele>343.0</ele><time>2026-04-12T12:06:46.672Z</time></trkpt><trkpt lat="45.1106349" lon="8.0962777"><ele>341.0</ele><time>2026-04-12T12:06:48.672Z</time></trkpt><trkpt lat="45.1105624" lon="8.0962183"><ele>339.0</ele><time>2026-04-12T12:06:50.672Z</time></trkpt><trkpt lat="45.1105151" lon="8.096049"><ele>337.0</ele><time>2026-04-12T12:06:52.672Z</time></trkpt><trkpt lat="45.1105171" lon="8.0959506"><ele>335.0</ele><time>2026-04-12T12:06:53.672Z</time></trkpt><trkpt lat="45.1105416" lon="8.0958431"><ele>333.0</ele><time>2026-04-12T12:06:54.672Z</time></trkpt><trkpt lat="45.1105733" lon="8.0957262"><ele>330.79999999999995</ele><time>2026-04-12T12:06:55.672Z</time></trkpt><trkpt lat="45.1105969" lon="8.0956359"><ele>328.6</ele><time>2026-04-12T12:06:56.672Z</time></trkpt><trkpt lat="45.1105918" lon="8.0954671"><ele>326.4</ele><time>2026-04-12T12:06:58.672Z</time></trkpt><trkpt lat="45.1105084" lon="8.0953569"><ele>324.20000000000005</ele><time>2026-04-12T12:07:00.672Z</time></trkpt><trkpt lat="45.1104259" lon="8.0954097"><ele>322.0</ele><time>2026-04-12T12:07:01.671Z</time></trkpt><trkpt lat="45.1103366" lon="8.0954565"><ele>322.0</ele><time>2026-04-12T12:07:02.672Z</time></trkpt><trkpt lat="45.110245" lon="8.0955013"><ele>322.0</ele><time>2026-04-12T12:07:03.672Z</time></trkpt><trkpt lat="45.110141" lon="8.095526"><ele>322.0</ele><time>2026-04-12T12:07:04.672Z</time></trkpt><trkpt lat="45.1100343" lon="8.0955252"><ele>322.0</ele><time>2026-04-12T12:07:05.672Z</time></trkpt><trkpt lat="45.1099143" lon="8.0955072"><ele>322.0</ele><time>2026-04-12T12:07:06.672Z</time></trkpt><trkpt lat="45.1097884" lon="8.095486"><ele>321.5</ele><time>2026-04-12T12:07:07.672Z</time></trkpt><trkpt lat="45.1096628" lon="8.0955092"><ele>321.0</ele><time>2026-04-12T12:07:08.672Z</time></trkpt><trkpt lat="45.1095482" lon="8.0955184"><ele>320.5</ele><time>2026-04-12T12:07:09.672Z</time></trkpt><trkpt lat="45.1094358" lon="8.0954864"><ele>320.0</ele><time>2026-04-12T12:07:10.672Z</time></trkpt><trkpt lat="45.1093194" lon="8.0954351"><ele>320.0</ele><time>2026-04-12T12:07:11.672Z</time></trkpt><trkpt lat="45.1092125" lon="8.0953788"><ele>320.0</ele><time>2026-04-12T12:07:12.672Z</time></trkpt><trkpt lat="45.1090971" lon="8.0953309"><ele>320.0</ele><time>2026-04-12T12:07:13.672Z</time></trkpt><trkpt lat="45.108969" lon="8.0952954"><ele>320.0</ele><time>2026-04-12T12:07:14.672Z</time></trkpt><trkpt lat="45.1088375" lon="8.0953005"><ele>318.0</ele><time>2026-04-12T12:07:15.672Z</time></trkpt><trkpt lat="45.1087081" lon="8.0953074"><ele>316.0</ele><time>2026-04-12T12:07:16.672Z</time></trkpt><trkpt lat="45.1085717" lon="8.0953046"><ele>314.0</ele><time>2026-04-12T12:07:17.672Z</time></trkpt><trkpt lat="45.1084332" lon="8.0952957"><ele>312.0</ele><time>2026-04-12T12:07:18.672Z</time></trkpt><trkpt lat="45.1083035" lon="8.0952635"><ele>311.75</ele><time>2026-04-12T12:07:19.672Z</time></trkpt><trkpt lat="45.108168" lon="8.0952227"><ele>311.5</ele><time>2026-04-12T12:07:20.672Z</time></trkpt><trkpt lat="45.1080288" lon="8.0951785"><ele>311.25</ele><time>2026-04-12T12:07:21.672Z</time></trkpt><trkpt lat="45.1078935" lon="8.095131"><ele>311.0</ele><time>2026-04-12T12:07:22.671Z</time></trkpt><trkpt lat="45.107752" lon="8.0950772"><ele>311.0</ele><time>2026-04-12T12:07:23.672Z</time></trkpt><trkpt lat="45.1076088" lon="8.0950204"><ele>311.0</ele><time>2026-04-12T12:07:24.672Z</time></trkpt><trkpt lat="45.1074799" lon="8.0949524"><ele>311.0</ele><time>2026-04-12T12:07:25.672Z</time></trkpt><trkpt lat="45.1073557" lon="8.0948694"><ele>311.0</ele><time>2026-04-12T12:07:26.672Z</time></trkpt><trkpt lat="45.1072473" lon="8.0947521"><ele>311.25</ele><time>2026-04-12T12:07:27.672Z</time></trkpt><trkpt lat="45.1071583" lon="8.0946063"><ele>311.5</ele><time>2026-04-12T12:07:28.672Z</time></trkpt><trkpt lat="45.1070953" lon="8.0944363"><ele>311.75</ele><time>2026-04-12T12:07:29.672Z</time></trkpt><trkpt lat="45.1070532" lon="8.0942499"><ele>312.0</ele><time>2026-04-12T12:07:30.672Z</time></trkpt><trkpt lat="45.1070191" lon="8.0940525"><ele>310.75</ele><time>2026-04-12T12:07:31.672Z</time></trkpt><trkpt lat="45.1069888" lon="8.0938579"><ele>309.5</ele><time>2026-04-12T12:07:32.671Z</time></trkpt><trkpt lat="45.1069605" lon="8.0936541"><ele>308.25</ele><time>2026-04-12T12:07:33.672Z</time></trkpt><trkpt lat="45.1069637" lon="8.0934627"><ele>307.0</ele><time>2026-04-12T12:07:34.672Z</time></trkpt><trkpt lat="45.1069941" lon="8.0932714"><ele>306.0</ele><time>2026-04-12T12:07:35.672Z</time></trkpt><trkpt lat="45.1070334" lon="8.0930903"><ele>305.0</ele><time>2026-04-12T12:07:36.672Z</time></trkpt><trkpt lat="45.1070743" lon="8.0929244"><ele>304.0</ele><time>2026-04-12T12:07:37.672Z</time></trkpt><trkpt lat="45.1071103" lon="8.0927627"><ele>303.0</ele><time>2026-04-12T12:07:38.672Z</time></trkpt><trkpt lat="45.1071238" lon="8.0925886"><ele>303.0</ele><time>2026-04-12T12:07:39.672Z</time></trkpt><trkpt lat="45.1071202" lon="8.0924344"><ele>303.0</ele><time>2026-04-12T12:07:40.672Z</time></trkpt><trkpt lat="45.1070926" lon="8.0922738"><ele>303.0</ele><time>2026-04-12T12:07:41.672Z</time></trkpt><trkpt lat="45.1070458" lon="8.0921083"><ele>303.0</ele><time>2026-04-12T12:07:42.672Z</time></trkpt><trkpt lat="45.106988" lon="8.0919296"><ele>301.0</ele><time>2026-04-12T12:07:43.672Z</time></trkpt><trkpt lat="45.1069177" lon="8.091756"><ele>299.0</ele><time>2026-04-12T12:07:44.672Z</time></trkpt><trkpt lat="45.1068337" lon="8.0915577"><ele>297.0</ele><time>2026-04-12T12:07:45.671Z</time></trkpt><trkpt lat="45.1067499" lon="8.0913623"><ele>297.0</ele><time>2026-04-12T12:07:46.672Z</time></trkpt><trkpt lat="45.1066713" lon="8.0911893"><ele>297.0</ele><time>2026-04-12T12:07:47.672Z</time></trkpt><trkpt lat="45.1065969" lon="8.0909996"><ele>297.0</ele><time>2026-04-12T12:07:48.672Z</time></trkpt><trkpt lat="45.106539" lon="8.0907974"><ele>296.25</ele><time>2026-04-12T12:07:49.672Z</time></trkpt><trkpt lat="45.1064999" lon="8.0905856"><ele>295.5</ele><time>2026-04-12T12:07:50.671Z</time></trkpt><trkpt lat="45.1064851" lon="8.0903715"><ele>294.75</ele><time>2026-04-12T12:07:51.671Z</time></trkpt><trkpt lat="45.1064717" lon="8.0901721"><ele>294.0</ele><time>2026-04-12T12:07:52.672Z</time></trkpt><trkpt lat="45.1064606" lon="8.0899991"><ele>292.75</ele><time>2026-04-12T12:07:53.672Z</time></trkpt><trkpt lat="45.1064251" lon="8.0898291"><ele>291.5</ele><time>2026-04-12T12:07:54.672Z</time></trkpt><trkpt lat="45.1063759" lon="8.0896572"><ele>290.25</ele><time>2026-04-12T12:07:55.672Z</time></trkpt><trkpt lat="45.1062827" lon="8.0894952"><ele>289.0</ele><time>2026-04-12T12:07:56.672Z</time></trkpt><trkpt lat="45.1061885" lon="8.0893195"><ele>289.0</ele><time>2026-04-12T12:07:57.672Z</time></trkpt><trkpt lat="45.1060945" lon="8.0891382"><ele>289.0</ele><time>2026-04-12T12:07:58.672Z</time></trkpt><trkpt lat="45.1060019" lon="8.0889719"><ele>289.0</ele><time>2026-04-12T12:07:59.672Z</time></trkpt><trkpt lat="45.1059145" lon="8.0888223"><ele>289.0</ele><time>2026-04-12T12:08:00.672Z</time></trkpt><trkpt lat="45.1058125" lon="8.0886735"><ele>287.3333333333333</ele><time>2026-04-12T12:08:01.671Z</time></trkpt><trkpt lat="45.1057007" lon="8.0885352"><ele>285.6666666666667</ele><time>2026-04-12T12:08:02.672Z</time></trkpt><trkpt lat="45.1055739" lon="8.0883973"><ele>284.0</ele><time>2026-04-12T12:08:03.672Z</time></trkpt><trkpt lat="45.1054484" lon="8.0882557"><ele>281.25</ele><time>2026-04-12T12:08:04.672Z</time></trkpt><trkpt lat="45.1053286" lon="8.088136"><ele>278.5</ele><time>2026-04-12T12:08:05.672Z</time></trkpt><trkpt lat="45.1052148" lon="8.0880314"><ele>275.75</ele><time>2026-04-12T12:08:06.672Z</time></trkpt><trkpt lat="45.1050878" lon="8.0879473"><ele>273.0</ele><time>2026-04-12T12:08:07.671Z</time></trkpt><trkpt lat="45.1049351" lon="8.0878959"><ele>274.0</ele><time>2026-04-12T12:08:08.672Z</time></trkpt><trkpt lat="45.104774" lon="8.0878643"><ele>275.0</ele><time>2026-04-12T12:08:09.672Z</time></trkpt><trkpt lat="45.1045965" lon="8.0878363"><ele>276.0</ele><time>2026-04-12T12:08:10.672Z</time></trkpt><trkpt lat="45.1044236" lon="8.0878146"><ele>276.0</ele><time>2026-04-12T12:08:11.672Z</time></trkpt><trkpt lat="45.1042474" lon="8.0877983"><ele>276.0</ele><time>2026-04-12T12:08:12.672Z</time></trkpt><trkpt lat="45.1040753" lon="8.0877865"><ele>276.0</ele><time>2026-04-12T12:08:13.672Z</time></trkpt><trkpt lat="45.1039149" lon="8.0877723"><ele>274.0</ele><time>2026-04-12T12:08:14.672Z</time></trkpt><trkpt lat="45.1037477" lon="8.087753"><ele>272.0</ele><time>2026-04-12T12:08:15.672Z</time></trkpt><trkpt lat="45.1035883" lon="8.0877356"><ele>270.0</ele><time>2026-04-12T12:08:16.672Z</time></trkpt><trkpt lat="45.1034248" lon="8.0877305"><ele>270.0</ele><time>2026-04-12T12:08:17.672Z</time></trkpt><trkpt lat="45.1032653" lon="8.0877231"><ele>270.0</ele><time>2026-04-12T12:08:18.672Z</time></trkpt><trkpt lat="45.1031074" lon="8.0877319"><ele>270.0</ele><time>2026-04-12T12:08:19.672Z</time></trkpt><trkpt lat="45.1029525" lon="8.0877501"><ele>270.3333333333333</ele><time>2026-04-12T12:08:20.672Z</time></trkpt><trkpt lat="45.1027909" lon="8.0877586"><ele>270.66666666666663</ele><time>2026-04-12T12:08:21.672Z</time></trkpt><trkpt lat="45.1026267" lon="8.0877678"><ele>271.0</ele><time>2026-04-12T12:08:22.672Z</time></trkpt><trkpt lat="45.1024718" lon="8.0877841"><ele>269.3333333333333</ele><time>2026-04-12T12:08:23.672Z</time></trkpt><trkpt lat="45.1023089" lon="8.0878005"><ele>267.6666666666667</ele><time>2026-04-12T12:08:24.672Z</time></trkpt><trkpt lat="45.1021601" lon="8.0878615"><ele>266.0</ele><time>2026-04-12T12:08:25.672Z</time></trkpt><trkpt lat="45.1020094" lon="8.0879274"><ele>266.0</ele><time>2026-04-12T12:08:26.672Z</time></trkpt><trkpt lat="45.1018561" lon="8.0879975"><ele>266.0</ele><time>2026-04-12T12:08:27.672Z</time></trkpt><trkpt lat="45.1017057" lon="8.0880397"><ele>266.0</ele><time>2026-04-12T12:08:28.672Z</time></trkpt><trkpt lat="45.1015572" lon="8.0880295"><ele>268.0</ele><time>2026-04-12T12:08:29.672Z</time></trkpt><trkpt lat="45.101402" lon="8.087971"><ele>270.0</ele><time>2026-04-12T12:08:30.672Z</time></trkpt><trkpt lat="45.1012631" lon="8.0879234"><ele>272.0</ele><time>2026-04-12T12:08:31.672Z</time></trkpt><trkpt lat="45.101114" lon="8.0878783"><ele>272.0</ele><time>2026-04-12T12:08:32.672Z</time></trkpt><trkpt lat="45.1009636" lon="8.0878715"><ele>272.0</ele><time>2026-04-12T12:08:33.672Z</time></trkpt><trkpt lat="45.1008103" lon="8.0878772"><ele>272.0</ele><time>2026-04-12T12:08:34.672Z</time></trkpt><trkpt lat="45.1006456" lon="8.0879411"><ele>271.0</ele><time>2026-04-12T12:08:35.672Z</time></trkpt><trkpt lat="45.1004897" lon="8.0879787"><ele>270.0</ele><time>2026-04-12T12:08:36.672Z</time></trkpt><trkpt lat="45.1003367" lon="8.0880311"><ele>269.0</ele><time>2026-04-12T12:08:37.672Z</time></trkpt><trkpt lat="45.1001754" lon="8.0880384"><ele>269.0</ele><time>2026-04-12T12:08:38.672Z</time></trkpt><trkpt lat="45.1000124" lon="8.0880097"><ele>269.0</ele><time>2026-04-12T12:08:39.672Z</time></trkpt><trkpt lat="45.0998504" lon="8.0879591"><ele>269.0</ele><time>2026-04-12T12:08:40.672Z</time></trkpt><trkpt lat="45.0996908" lon="8.0878951"><ele>268.0</ele><time>2026-04-12T12:08:41.672Z</time></trkpt><trkpt lat="45.0995377" lon="8.0878256"><ele>267.0</ele><time>2026-04-12T12:08:42.672Z</time></trkpt><trkpt lat="45.0993859" lon="8.0877455"><ele>266.0</ele><time>2026-04-12T12:08:43.672Z</time></trkpt><trkpt lat="45.0992314" lon="8.0876761"><ele>266.0</ele><time>2026-04-12T12:08:44.672Z</time></trkpt><trkpt lat="45.0990763" lon="8.0876017"><ele>266.0</ele><time>2026-04-12T12:08:45.672Z</time></trkpt><trkpt lat="45.0989313" lon="8.0875313"><ele>266.0</ele><time>2026-04-12T12:08:46.672Z</time></trkpt><trkpt lat="45.0987964" lon="8.0874673"><ele>265.0</ele><time>2026-04-12T12:08:47.672Z</time></trkpt><trkpt lat="45.0986581" lon="8.0874119"><ele>264.0</ele><time>2026-04-12T12:08:48.672Z</time></trkpt><trkpt lat="45.0985539" lon="8.0873865"><ele>263.0</ele><time>2026-04-12T12:08:49.672Z</time></trkpt><trkpt lat="45.0984496" lon="8.0873823"><ele>262.0</ele><time>2026-04-12T12:08:50.672Z</time></trkpt><trkpt lat="45.0983627" lon="8.0873718"><ele>261.0</ele><time>2026-04-12T12:08:51.672Z</time></trkpt><trkpt lat="45.0982854" lon="8.0873544"><ele>261.0</ele><time>2026-04-12T12:08:52.672Z</time></trkpt><trkpt lat="45.0982093" lon="8.087318"><ele>261.0</ele><time>2026-04-12T12:08:53.672Z</time></trkpt><trkpt lat="45.0981478" lon="8.0872803"><ele>261.0</ele><time>2026-04-12T12:08:54.672Z</time></trkpt><trkpt lat="45.0980679" lon="8.0872121"><ele>261.0</ele><time>2026-04-12T12:08:55.672Z</time></trkpt><trkpt lat="45.0979822" lon="8.0871306"><ele>261.0</ele><time>2026-04-12T12:08:56.672Z</time></trkpt><trkpt lat="45.0978871" lon="8.0870501"><ele>261.0</ele><time>2026-04-12T12:08:57.671Z</time></trkpt><trkpt lat="45.0977854" lon="8.0869572"><ele>261.0</ele><time>2026-04-12T12:08:58.672Z</time></trkpt><trkpt lat="45.0976817" lon="8.0868716"><ele>261.0</ele><time>2026-04-12T12:08:59.671Z</time></trkpt><trkpt lat="45.0975638" lon="8.0867619"><ele>261.0</ele><time>2026-04-12T12:09:00.672Z</time></trkpt><trkpt lat="45.097447" lon="8.0866681"><ele>259.5</ele><time>2026-04-12T12:09:01.672Z</time></trkpt><trkpt lat="45.0973263" lon="8.0865639"><ele>258.0</ele><time>2026-04-12T12:09:02.672Z</time></trkpt><trkpt lat="45.0972049" lon="8.0864618"><ele>256.5</ele><time>2026-04-12T12:09:03.672Z</time></trkpt><trkpt lat="45.0970846" lon="8.0863515"><ele>255.0</ele><time>2026-04-12T12:09:04.671Z</time></trkpt><trkpt lat="45.0969622" lon="8.0862393"><ele>255.0</ele><time>2026-04-12T12:09:05.672Z</time></trkpt><trkpt lat="45.0968455" lon="8.0861362"><ele>255.0</ele><time>2026-04-12T12:09:06.672Z</time></trkpt><trkpt lat="45.096728" lon="8.0860274"><ele>255.0</ele><time>2026-04-12T12:09:07.672Z</time></trkpt><trkpt lat="45.0966162" lon="8.0859264"><ele>255.0</ele><time>2026-04-12T12:09:08.672Z</time></trkpt><trkpt lat="45.0965059" lon="8.0858352"><ele>254.4</ele><time>2026-04-12T12:09:09.672Z</time></trkpt><trkpt lat="45.0964095" lon="8.0857598"><ele>253.8</ele><time>2026-04-12T12:09:10.672Z</time></trkpt><trkpt lat="45.0963308" lon="8.0856888"><ele>253.2</ele><time>2026-04-12T12:09:11.672Z</time></trkpt><trkpt lat="45.096266" lon="8.0856269"><ele>252.6</ele><time>2026-04-12T12:09:12.672Z</time></trkpt><trkpt lat="45.0962144" lon="8.0854869"><ele>252.0</ele><time>2026-04-12T12:09:14.672Z</time></trkpt><trkpt lat="45.0962733" lon="8.0853568"><ele>252.0</ele><time>2026-04-12T12:09:16.672Z</time></trkpt><trkpt lat="45.0963332" lon="8.0852971"><ele>252.0</ele><time>2026-04-12T12:09:17.672Z</time></trkpt><trkpt lat="45.0964021" lon="8.0852271"><ele>252.0</ele><time>2026-04-12T12:09:18.672Z</time></trkpt><trkpt lat="45.0964868" lon="8.0851375"><ele>252.0</ele><time>2026-04-12T12:09:19.672Z</time></trkpt><trkpt lat="45.0965723" lon="8.0850536"><ele>252.0</ele><time>2026-04-12T12:09:20.672Z</time></trkpt><trkpt lat="45.096665" lon="8.0849681"><ele>253.0</ele><time>2026-04-12T12:09:21.672Z</time></trkpt><trkpt lat="45.0967685" lon="8.084866"><ele>254.0</ele><time>2026-04-12T12:09:22.671Z</time></trkpt><trkpt lat="45.0968832" lon="8.084757"><ele>255.0</ele><time>2026-04-12T12:09:23.672Z</time></trkpt><trkpt lat="45.096994" lon="8.0846408"><ele>256.0</ele><time>2026-04-12T12:09:24.672Z</time></trkpt><trkpt lat="45.0971086" lon="8.0845092"><ele>256.0</ele><time>2026-04-12T12:09:25.672Z</time></trkpt><trkpt lat="45.0972228" lon="8.0843844"><ele>256.0</ele><time>2026-04-12T12:09:26.672Z</time></trkpt><trkpt lat="45.0973391" lon="8.0842608"><ele>256.0</ele><time>2026-04-12T12:09:27.672Z</time></trkpt><trkpt lat="45.0974615" lon="8.0841317"><ele>256.0</ele><time>2026-04-12T12:09:28.672Z</time></trkpt><trkpt lat="45.0975884" lon="8.0839947"><ele>256.66666666666663</ele><time>2026-04-12T12:09:29.672Z</time></trkpt><trkpt lat="45.0977173" lon="8.0838746"><ele>257.3333333333333</ele><time>2026-04-12T12:09:30.671Z</time></trkpt><trkpt lat="45.0978451" lon="8.0837423"><ele>258.0</ele><time>2026-04-12T12:09:31.672Z</time></trkpt><trkpt lat="45.097969" lon="8.0836144"><ele>258.0</ele><time>2026-04-12T12:09:32.672Z</time></trkpt><trkpt lat="45.0980946" lon="8.0834914"><ele>258.0</ele><time>2026-04-12T12:09:33.672Z</time></trkpt><trkpt lat="45.0982151" lon="8.0833691"><ele>258.0</ele><time>2026-04-12T12:09:34.671Z</time></trkpt><trkpt lat="45.0983314" lon="8.0832407"><ele>258.0</ele><time>2026-04-12T12:09:35.672Z</time></trkpt><trkpt lat="45.098449" lon="8.0830993"><ele>257.6666666666667</ele><time>2026-04-12T12:09:36.672Z</time></trkpt><trkpt lat="45.0985703" lon="8.0829608"><ele>257.33333333333337</ele><time>2026-04-12T12:09:37.672Z</time></trkpt><trkpt lat="45.0986848" lon="8.082814"><ele>257.0</ele><time>2026-04-12T12:09:38.672Z</time></trkpt><trkpt lat="45.0987876" lon="8.0826591"><ele>257.0</ele><time>2026-04-12T12:09:39.672Z</time></trkpt><trkpt lat="45.0988896" lon="8.082497"><ele>257.0</ele><time>2026-04-12T12:09:40.672Z</time></trkpt><trkpt lat="45.0989983" lon="8.0823452"><ele>257.0</ele><time>2026-04-12T12:09:41.672Z</time></trkpt><trkpt lat="45.0990941" lon="8.0821813"><ele>260.33333333333337</ele><time>2026-04-12T12:09:42.672Z</time></trkpt><trkpt lat="45.0991925" lon="8.0820108"><ele>263.6666666666667</ele><time>2026-04-12T12:09:43.672Z</time></trkpt><trkpt lat="45.0992825" lon="8.0818302"><ele>267.0</ele><time>2026-04-12T12:09:44.672Z</time></trkpt><trkpt lat="45.099376" lon="8.0816606"><ele>264.6666666666667</ele><time>2026-04-12T12:09:45.671Z</time></trkpt><trkpt lat="45.0994691" lon="8.0814818"><ele>262.33333333333337</ele><time>2026-04-12T12:09:46.672Z</time></trkpt><trkpt lat="45.0995611" lon="8.0813128"><ele>260.0</ele><time>2026-04-12T12:09:47.672Z</time></trkpt><trkpt lat="45.0996542" lon="8.0811507"><ele>260.0</ele><time>2026-04-12T12:09:48.672Z</time></trkpt><trkpt lat="45.0997412" lon="8.0809768"><ele>260.0</ele><time>2026-04-12T12:09:49.672Z</time></trkpt><trkpt lat="45.0998301" lon="8.0808104"><ele>260.0</ele><time>2026-04-12T12:09:50.672Z</time></trkpt><trkpt lat="45.0999134" lon="8.0806431"><ele>260.0</ele><time>2026-04-12T12:09:51.672Z</time></trkpt><trkpt lat="45.1000044" lon="8.0804822"><ele>262.33333333333337</ele><time>2026-04-12T12:09:52.672Z</time></trkpt><trkpt lat="45.1000943" lon="8.0803055"><ele>264.6666666666667</ele><time>2026-04-12T12:09:53.672Z</time></trkpt><trkpt lat="45.1001811" lon="8.0801317"><ele>267.0</ele><time>2026-04-12T12:09:54.672Z</time></trkpt><trkpt lat="45.1002749" lon="8.0799618"><ele>266.25</ele><time>2026-04-12T12:09:55.672Z</time></trkpt><trkpt lat="45.1003665" lon="8.0797963"><ele>265.5</ele><time>2026-04-12T12:09:56.672Z</time></trkpt><trkpt lat="45.1004574" lon="8.0796301"><ele>264.75</ele><time>2026-04-12T12:09:57.672Z</time></trkpt><trkpt lat="45.1005508" lon="8.0794632"><ele>264.0</ele><time>2026-04-12T12:09:58.671Z</time></trkpt><trkpt lat="45.100641" lon="8.0792888"><ele>264.0</ele><time>2026-04-12T12:09:59.672Z</time></trkpt><trkpt lat="45.1007344" lon="8.0791135"><ele>264.0</ele><time>2026-04-12T12:10:00.672Z</time></trkpt><trkpt lat="45.1008294" lon="8.0789563"><ele>264.0</ele><time>2026-04-12T12:10:01.671Z</time></trkpt><trkpt lat="45.1009184" lon="8.0787896"><ele>264.0</ele><time>2026-04-12T12:10:02.672Z</time></trkpt><trkpt lat="45.1010138" lon="8.0786236"><ele>264.3333333333333</ele><time>2026-04-12T12:10:03.672Z</time></trkpt><trkpt lat="45.1010988" lon="8.0784554"><ele>264.66666666666663</ele><time>2026-04-12T12:10:04.672Z</time></trkpt><trkpt lat="45.1011922" lon="8.0782828"><ele>265.0</ele><time>2026-04-12T12:10:05.672Z</time></trkpt><trkpt lat="45.1012919" lon="8.0781107"><ele>265.0</ele><time>2026-04-12T12:10:06.672Z</time></trkpt><trkpt lat="45.1013868" lon="8.077941"><ele>265.0</ele><time>2026-04-12T12:10:07.672Z</time></trkpt><trkpt lat="45.1014782" lon="8.0777777"><ele>265.0</ele><time>2026-04-12T12:10:08.671Z</time></trkpt><trkpt lat="45.1015653" lon="8.0776117"><ele>265.0</ele><time>2026-04-12T12:10:09.672Z</time></trkpt><trkpt lat="45.1016545" lon="8.0774466"><ele>266.3333333333333</ele><time>2026-04-12T12:10:10.671Z</time></trkpt><trkpt lat="45.1017445" lon="8.0772795"><ele>267.6666666666667</ele><time>2026-04-12T12:10:11.672Z</time></trkpt><trkpt lat="45.1018317" lon="8.0770921"><ele>269.0</ele><time>2026-04-12T12:10:12.672Z</time></trkpt><trkpt lat="45.1019253" lon="8.0769329"><ele>269.0</ele><time>2026-04-12T12:10:13.672Z</time></trkpt><trkpt lat="45.1020069" lon="8.0767596"><ele>269.0</ele><time>2026-04-12T12:10:14.672Z</time></trkpt><trkpt lat="45.1020858" lon="8.0766042"><ele>269.0</ele><time>2026-04-12T12:10:15.672Z</time></trkpt><trkpt lat="45.1021545" lon="8.0764553"><ele>269.0</ele><time>2026-04-12T12:10:16.672Z</time></trkpt><trkpt lat="45.102223" lon="8.0762972"><ele>268.4</ele><time>2026-04-12T12:10:17.672Z</time></trkpt><trkpt lat="45.1022763" lon="8.0761429"><ele>267.79999999999995</ele><time>2026-04-12T12:10:18.672Z</time></trkpt><trkpt lat="45.1023286" lon="8.0760014"><ele>267.20000000000005</ele><time>2026-04-12T12:10:19.672Z</time></trkpt><trkpt lat="45.1023669" lon="8.0758578"><ele>266.6</ele><time>2026-04-12T12:10:20.672Z</time></trkpt><trkpt lat="45.1023984" lon="8.0757271"><ele>266.0</ele><time>2026-04-12T12:10:21.672Z</time></trkpt><trkpt lat="45.1024148" lon="8.0756041"><ele>266.0</ele><time>2026-04-12T12:10:22.672Z</time></trkpt><trkpt lat="45.1023885" lon="8.0754451"><ele>266.0</ele><time>2026-04-12T12:10:24.672Z</time></trkpt><trkpt lat="45.1023394" lon="8.0753729"><ele>266.0</ele><time>2026-04-12T12:10:25.672Z</time></trkpt><trkpt lat="45.1022627" lon="8.0753061"><ele>266.0</ele><time>2026-04-12T12:10:26.672Z</time></trkpt><trkpt lat="45.1021749" lon="8.0752209"><ele>266.0</ele><time>2026-04-12T12:10:27.672Z</time></trkpt><trkpt lat="45.1020905" lon="8.0751112"><ele>266.0</ele><time>2026-04-12T12:10:28.672Z</time></trkpt><trkpt lat="45.1020046" lon="8.0750081"><ele>266.0</ele><time>2026-04-12T12:10:29.672Z</time></trkpt><trkpt lat="45.1019324" lon="8.0748885"><ele>266.0</ele><time>2026-04-12T12:10:30.672Z</time></trkpt><trkpt lat="45.1018603" lon="8.074742"><ele>266.0</ele><time>2026-04-12T12:10:31.672Z</time></trkpt><trkpt lat="45.1017972" lon="8.0745827"><ele>266.0</ele><time>2026-04-12T12:10:32.672Z</time></trkpt><trkpt lat="45.1017402" lon="8.0744129"><ele>266.0</ele><time>2026-04-12T12:10:33.672Z</time></trkpt><trkpt lat="45.1016921" lon="8.0742303"><ele>266.0</ele><time>2026-04-12T12:10:34.672Z</time></trkpt><trkpt lat="45.1016445" lon="8.0740509"><ele>266.0</ele><time>2026-04-12T12:10:35.672Z</time></trkpt><trkpt lat="45.1015954" lon="8.073866"><ele>266.25</ele><time>2026-04-12T12:10:36.672Z</time></trkpt><trkpt lat="45.1015406" lon="8.0736785"><ele>266.5</ele><time>2026-04-12T12:10:37.672Z</time></trkpt><trkpt lat="45.1014691" lon="8.0735106"><ele>266.75</ele><time>2026-04-12T12:10:38.672Z</time></trkpt><trkpt lat="45.1013949" lon="8.0733536"><ele>267.0</ele><time>2026-04-12T12:10:39.672Z</time></trkpt><trkpt lat="45.1013159" lon="8.0732052"><ele>267.8</ele><time>2026-04-12T12:10:40.672Z</time></trkpt><trkpt lat="45.1012414" lon="8.0730579"><ele>268.6</ele><time>2026-04-12T12:10:41.672Z</time></trkpt><trkpt lat="45.1011842" lon="8.0729221"><ele>269.40000000000003</ele><time>2026-04-12T12:10:42.672Z</time></trkpt><trkpt lat="45.1011499" lon="8.072778"><ele>270.2</ele><time>2026-04-12T12:10:43.672Z</time></trkpt><trkpt lat="45.101147" lon="8.0726477"><ele>271.0</ele><time>2026-04-12T12:10:44.672Z</time></trkpt><trkpt lat="45.101159" lon="8.0725163"><ele>271.3333333333333</ele><time>2026-04-12T12:10:45.672Z</time></trkpt><trkpt lat="45.1011749" lon="8.0724031"><ele>271.66666666666663</ele><time>2026-04-12T12:10:46.671Z</time></trkpt><trkpt lat="45.101206" lon="8.0722955"><ele>272.0</ele><time>2026-04-12T12:10:47.671Z</time></trkpt><trkpt lat="45.1012575" lon="8.0721973"><ele>272.3333333333333</ele><time>2026-04-12T12:10:48.672Z</time></trkpt><trkpt lat="45.1013217" lon="8.0720981"><ele>272.6666666666667</ele><time>2026-04-12T12:10:49.671Z</time></trkpt><trkpt lat="45.1013934" lon="8.0720077"><ele>273.0</ele><time>2026-04-12T12:10:50.672Z</time></trkpt><trkpt lat="45.1014509" lon="8.0719244"><ele>273.0</ele><time>2026-04-12T12:10:51.672Z</time></trkpt><trkpt lat="45.1014832" lon="8.0718335"><ele>273.0</ele><time>2026-04-12T12:10:52.671Z</time></trkpt><trkpt lat="45.1014808" lon="8.0717233"><ele>273.0</ele><time>2026-04-12T12:10:53.672Z</time></trkpt><trkpt lat="45.1014588" lon="8.0716191"><ele>273.0</ele><time>2026-04-12T12:10:54.672Z</time></trkpt><trkpt lat="45.1014189" lon="8.0714663"><ele>273.0</ele><time>2026-04-12T12:10:55.671Z</time></trkpt><trkpt lat="45.1013711" lon="8.0713094"><ele>272.25</ele><time>2026-04-12T12:10:56.672Z</time></trkpt><trkpt lat="45.1013229" lon="8.0711377"><ele>271.5</ele><time>2026-04-12T12:10:57.672Z</time></trkpt><trkpt lat="45.1012846" lon="8.0709608"><ele>270.75</ele><time>2026-04-12T12:10:58.672Z</time></trkpt><trkpt lat="45.1012549" lon="8.0707773"><ele>270.0</ele><time>2026-04-12T12:10:59.672Z</time></trkpt><trkpt lat="45.1012329" lon="8.0706034"><ele>270.0</ele><time>2026-04-12T12:11:00.672Z</time></trkpt><trkpt lat="45.1012288" lon="8.070418"><ele>270.0</ele><time>2026-04-12T12:11:01.672Z</time></trkpt><trkpt lat="45.1012315" lon="8.0702355"><ele>270.0</ele><time>2026-04-12T12:11:02.672Z</time></trkpt><trkpt lat="45.1012381" lon="8.0700455"><ele>270.0</ele><time>2026-04-12T12:11:03.672Z</time></trkpt><trkpt lat="45.1012455" lon="8.0698476"><ele>270.0</ele><time>2026-04-12T12:11:04.672Z</time></trkpt><trkpt lat="45.1012578" lon="8.0696449"><ele>270.0</ele><time>2026-04-12T12:11:05.672Z</time></trkpt><trkpt lat="45.1012669" lon="8.0694313"><ele>270.0</ele><time>2026-04-12T12:11:06.672Z</time></trkpt><trkpt lat="45.1012815" lon="8.0692243"><ele>270.0</ele><time>2026-04-12T12:11:07.672Z</time></trkpt><trkpt lat="45.1012903" lon="8.0690171"><ele>271.5</ele><time>2026-04-12T12:11:08.671Z</time></trkpt><trkpt lat="45.1012975" lon="8.0688108"><ele>273.0</ele><time>2026-04-12T12:11:09.672Z</time></trkpt><trkpt lat="45.1013142" lon="8.0686019"><ele>274.5</ele><time>2026-04-12T12:11:10.672Z</time></trkpt><trkpt lat="45.1013393" lon="8.0683895"><ele>276.0</ele><time>2026-04-12T12:11:11.672Z</time></trkpt><trkpt lat="45.1013758" lon="8.0681869"><ele>276.6666666666667</ele><time>2026-04-12T12:11:12.672Z</time></trkpt><trkpt lat="45.1014112" lon="8.0679809"><ele>277.33333333333337</ele><time>2026-04-12T12:11:13.672Z</time></trkpt><trkpt lat="45.1014494" lon="8.0677675"><ele>278.0</ele><time>2026-04-12T12:11:14.672Z</time></trkpt><trkpt lat="45.101491" lon="8.067559"><ele>279.33333333333337</ele><time>2026-04-12T12:11:15.672Z</time></trkpt><trkpt lat="45.1015392" lon="8.0673567"><ele>280.6666666666667</ele><time>2026-04-12T12:11:16.672Z</time></trkpt><trkpt lat="45.1015934" lon="8.0671618"><ele>282.0</ele><time>2026-04-12T12:11:17.671Z</time></trkpt><trkpt lat="45.101661" lon="8.0669474"><ele>282.0</ele><time>2026-04-12T12:11:18.672Z</time></trkpt><trkpt lat="45.1017251" lon="8.0667494"><ele>282.0</ele><time>2026-04-12T12:11:19.672Z</time></trkpt><trkpt lat="45.10179" lon="8.0665504"><ele>282.0</ele><time>2026-04-12T12:11:20.672Z</time></trkpt><trkpt lat="45.1018642" lon="8.0663656"><ele>281.0</ele><time>2026-04-12T12:11:21.672Z</time></trkpt><trkpt lat="45.1019474" lon="8.0661768"><ele>280.0</ele><time>2026-04-12T12:11:22.672Z</time></trkpt><trkpt lat="45.1020276" lon="8.0659919"><ele>279.0</ele><time>2026-04-12T12:11:23.672Z</time></trkpt><trkpt lat="45.102108" lon="8.0657965"><ele>279.6666666666667</ele><time>2026-04-12T12:11:24.672Z</time></trkpt><trkpt lat="45.1022002" lon="8.0656166"><ele>280.33333333333337</ele><time>2026-04-12T12:11:25.672Z</time></trkpt><trkpt lat="45.1022914" lon="8.0654406"><ele>281.0</ele><time>2026-04-12T12:11:26.672Z</time></trkpt><trkpt lat="45.1023792" lon="8.0652577"><ele>281.25</ele><time>2026-04-12T12:11:27.672Z</time></trkpt><trkpt lat="45.1024578" lon="8.0650861"><ele>281.5</ele><time>2026-04-12T12:11:28.672Z</time></trkpt><trkpt lat="45.1025431" lon="8.0649125"><ele>281.75</ele><time>2026-04-12T12:11:29.672Z</time></trkpt><trkpt lat="45.1026291" lon="8.0647415"><ele>282.0</ele><time>2026-04-12T12:11:30.672Z</time></trkpt><trkpt lat="45.1027124" lon="8.064568"><ele>282.0</ele><time>2026-04-12T12:11:31.672Z</time></trkpt><trkpt lat="45.1028053" lon="8.0644046"><ele>282.0</ele><time>2026-04-12T12:11:32.672Z</time></trkpt><trkpt lat="45.1029033" lon="8.0642431"><ele>282.0</ele><time>2026-04-12T12:11:33.672Z</time></trkpt><trkpt lat="45.1030056" lon="8.0640925"><ele>282.0</ele><time>2026-04-12T12:11:34.672Z</time></trkpt><trkpt lat="45.1031035" lon="8.0639398"><ele>281.5</ele><time>2026-04-12T12:11:35.672Z</time></trkpt><trkpt lat="45.1032085" lon="8.0637945"><ele>281.0</ele><time>2026-04-12T12:11:36.672Z</time></trkpt><trkpt lat="45.1033039" lon="8.0636408"><ele>280.5</ele><time>2026-04-12T12:11:37.672Z</time></trkpt><trkpt lat="45.1034032" lon="8.0634772"><ele>280.0</ele><time>2026-04-12T12:11:38.672Z</time></trkpt><trkpt lat="45.1034924" lon="8.0633302"><ele>280.25</ele><time>2026-04-12T12:11:39.672Z</time></trkpt><trkpt lat="45.103567" lon="8.0631543"><ele>280.5</ele><time>2026-04-12T12:11:40.672Z</time></trkpt><trkpt lat="45.1036366" lon="8.0629715"><ele>280.75</ele><time>2026-04-12T12:11:41.671Z</time></trkpt><trkpt lat="45.1037046" lon="8.0627838"><ele>281.0</ele><time>2026-04-12T12:11:42.672Z</time></trkpt><trkpt lat="45.1037833" lon="8.0626097"><ele>280.75</ele><time>2026-04-12T12:11:43.672Z</time></trkpt><trkpt lat="45.1038752" lon="8.0624412"><ele>280.5</ele><time>2026-04-12T12:11:44.672Z</time></trkpt><trkpt lat="45.103968" lon="8.0622738"><ele>280.25</ele><time>2026-04-12T12:11:45.672Z</time></trkpt><trkpt lat="45.1040755" lon="8.06213"><ele>280.0</ele><time>2026-04-12T12:11:46.672Z</time></trkpt><trkpt lat="45.1041832" lon="8.0619774"><ele>280.5</ele><time>2026-04-12T12:11:47.671Z</time></trkpt><trkpt lat="45.104271" lon="8.0618014"><ele>281.0</ele><time>2026-04-12T12:11:48.672Z</time></trkpt><trkpt lat="45.1043417" lon="8.0616165"><ele>281.5</ele><time>2026-04-12T12:11:49.672Z</time></trkpt><trkpt lat="45.1044085" lon="8.0614359"><ele>282.0</ele><time>2026-04-12T12:11:50.672Z</time></trkpt><trkpt lat="45.1044586" lon="8.0612447"><ele>282.0</ele><time>2026-04-12T12:11:51.672Z</time></trkpt><trkpt lat="45.1045051" lon="8.0610482"><ele>282.0</ele><time>2026-04-12T12:11:52.672Z</time></trkpt><trkpt lat="45.1045582" lon="8.0608602"><ele>282.0</ele><time>2026-04-12T12:11:53.672Z</time></trkpt><trkpt lat="45.1046364" lon="8.0606956"><ele>282.0</ele><time>2026-04-12T12:11:54.672Z</time></trkpt><trkpt lat="45.1047273" lon="8.0605465"><ele>282.75</ele><time>2026-04-12T12:11:55.671Z</time></trkpt><trkpt lat="45.1048219" lon="8.0603949"><ele>283.5</ele><time>2026-04-12T12:11:56.672Z</time></trkpt><trkpt lat="45.1049088" lon="8.0602193"><ele>284.25</ele><time>2026-04-12T12:11:57.672Z</time></trkpt><trkpt lat="45.1049841" lon="8.0600509"><ele>285.0</ele><time>2026-04-12T12:11:58.672Z</time></trkpt><trkpt lat="45.1050214" lon="8.0598515"><ele>286.25</ele><time>2026-04-12T12:11:59.671Z</time></trkpt><trkpt lat="45.1050468" lon="8.059651"><ele>287.5</ele><time>2026-04-12T12:12:00.672Z</time></trkpt><trkpt lat="45.1050553" lon="8.0594524"><ele>288.75</ele><time>2026-04-12T12:12:01.671Z</time></trkpt><trkpt lat="45.1050572" lon="8.0592506"><ele>290.0</ele><time>2026-04-12T12:12:02.672Z</time></trkpt><trkpt lat="45.1050676" lon="8.0590468"><ele>290.0</ele><time>2026-04-12T12:12:03.672Z</time></trkpt><trkpt lat="45.1050815" lon="8.0588369"><ele>290.0</ele><time>2026-04-12T12:12:04.672Z</time></trkpt><trkpt lat="45.1050946" lon="8.0586265"><ele>290.0</ele><time>2026-04-12T12:12:05.671Z</time></trkpt><trkpt lat="45.1051203" lon="8.0584239"><ele>290.0</ele><time>2026-04-12T12:12:06.672Z</time></trkpt><trkpt lat="45.1051665" lon="8.0582276"><ele>288.6666666666667</ele><time>2026-04-12T12:12:07.672Z</time></trkpt><trkpt lat="45.1052251" lon="8.0580281"><ele>287.3333333333333</ele><time>2026-04-12T12:12:08.672Z</time></trkpt><trkpt lat="45.105295" lon="8.057835"><ele>286.0</ele><time>2026-04-12T12:12:09.672Z</time></trkpt><trkpt lat="45.1053524" lon="8.0576168"><ele>287.0</ele><time>2026-04-12T12:12:10.672Z</time></trkpt><trkpt lat="45.1054134" lon="8.0574149"><ele>288.0</ele><time>2026-04-12T12:12:11.671Z</time></trkpt><trkpt lat="45.1054813" lon="8.0572063"><ele>289.0</ele><time>2026-04-12T12:12:12.671Z</time></trkpt><trkpt lat="45.1055506" lon="8.0570318"><ele>289.0</ele><time>2026-04-12T12:12:13.672Z</time></trkpt><trkpt lat="45.1056319" lon="8.0568431"><ele>289.0</ele><time>2026-04-12T12:12:14.672Z</time></trkpt><trkpt lat="45.1057095" lon="8.0566636"><ele>289.0</ele><time>2026-04-12T12:12:15.672Z</time></trkpt><trkpt lat="45.1057928" lon="8.0564833"><ele>289.66666666666663</ele><time>2026-04-12T12:12:16.672Z</time></trkpt><trkpt lat="45.1058727" lon="8.0563017"><ele>290.3333333333333</ele><time>2026-04-12T12:12:17.672Z</time></trkpt><trkpt lat="45.1059577" lon="8.0561265"><ele>291.0</ele><time>2026-04-12T12:12:18.672Z</time></trkpt><trkpt lat="45.1060445" lon="8.0559521"><ele>292.6666666666667</ele><time>2026-04-12T12:12:19.672Z</time></trkpt><trkpt lat="45.1061305" lon="8.0557639"><ele>294.33333333333337</ele><time>2026-04-12T12:12:20.672Z</time></trkpt><trkpt lat="45.1062083" lon="8.0555853"><ele>296.0</ele><time>2026-04-12T12:12:21.672Z</time></trkpt><trkpt lat="45.1062982" lon="8.0554108"><ele>296.0</ele><time>2026-04-12T12:12:22.672Z</time></trkpt><trkpt lat="45.1063937" lon="8.0552397"><ele>296.0</ele><time>2026-04-12T12:12:23.672Z</time></trkpt><trkpt lat="45.1064982" lon="8.0550948"><ele>296.0</ele><time>2026-04-12T12:12:24.672Z</time></trkpt><trkpt lat="45.1066074" lon="8.0549282"><ele>294.6666666666667</ele><time>2026-04-12T12:12:25.672Z</time></trkpt><trkpt lat="45.1067088" lon="8.0547682"><ele>293.3333333333333</ele><time>2026-04-12T12:12:26.672Z</time></trkpt><trkpt lat="45.1068027" lon="8.0545974"><ele>292.0</ele><time>2026-04-12T12:12:27.672Z</time></trkpt><trkpt lat="45.1068822" lon="8.0544125"><ele>292.0</ele><time>2026-04-12T12:12:28.672Z</time></trkpt><trkpt lat="45.1069655" lon="8.0542216"><ele>292.0</ele><time>2026-04-12T12:12:29.672Z</time></trkpt><trkpt lat="45.1070364" lon="8.0540291"><ele>292.0</ele><time>2026-04-12T12:12:30.672Z</time></trkpt><trkpt lat="45.1071106" lon="8.0538312"><ele>293.3333333333333</ele><time>2026-04-12T12:12:31.672Z</time></trkpt><trkpt lat="45.1071898" lon="8.0536468"><ele>294.6666666666667</ele><time>2026-04-12T12:12:32.672Z</time></trkpt><trkpt lat="45.1072638" lon="8.053459"><ele>296.0</ele><time>2026-04-12T12:12:33.672Z</time></trkpt><trkpt lat="45.1073315" lon="8.0532632"><ele>295.6666666666667</ele><time>2026-04-12T12:12:34.672Z</time></trkpt><trkpt lat="45.1073902" lon="8.0530635"><ele>295.3333333333333</ele><time>2026-04-12T12:12:35.671Z</time></trkpt><trkpt lat="45.1074432" lon="8.0528632"><ele>295.0</ele><time>2026-04-12T12:12:36.672Z</time></trkpt><trkpt lat="45.1074876" lon="8.0526582"><ele>294.66666666666663</ele><time>2026-04-12T12:12:37.672Z</time></trkpt><trkpt lat="45.1075351" lon="8.052446"><ele>294.3333333333333</ele><time>2026-04-12T12:12:38.672Z</time></trkpt><trkpt lat="45.1075879" lon="8.052239"><ele>294.0</ele><time>2026-04-12T12:12:39.672Z</time></trkpt><trkpt lat="45.1076488" lon="8.0520543"><ele>294.0</ele><time>2026-04-12T12:12:40.672Z</time></trkpt><trkpt lat="45.1077203" lon="8.0518799"><ele>294.0</ele><time>2026-04-12T12:12:41.672Z</time></trkpt><trkpt lat="45.1078123" lon="8.0517284"><ele>294.0</ele><time>2026-04-12T12:12:42.672Z</time></trkpt><trkpt lat="45.1079158" lon="8.0515828"><ele>294.0</ele><time>2026-04-12T12:12:43.672Z</time></trkpt><trkpt lat="45.1080134" lon="8.0514374"><ele>295.0</ele><time>2026-04-12T12:12:44.672Z</time></trkpt><trkpt lat="45.108107" lon="8.0512808"><ele>296.0</ele><time>2026-04-12T12:12:45.672Z</time></trkpt><trkpt lat="45.108184" lon="8.0511092"><ele>297.0</ele><time>2026-04-12T12:12:46.672Z</time></trkpt><trkpt lat="45.1082412" lon="8.0509244"><ele>298.0</ele><time>2026-04-12T12:12:47.672Z</time></trkpt><trkpt lat="45.1082817" lon="8.0507325"><ele>299.0</ele><time>2026-04-12T12:12:48.672Z</time></trkpt><trkpt lat="45.1083127" lon="8.050512"><ele>300.0</ele><time>2026-04-12T12:12:49.672Z</time></trkpt><trkpt lat="45.1083385" lon="8.0503014"><ele>301.0</ele><time>2026-04-12T12:12:50.672Z</time></trkpt><trkpt lat="45.1083798" lon="8.0501126"><ele>302.0</ele><time>2026-04-12T12:12:51.672Z</time></trkpt><trkpt lat="45.1084238" lon="8.0499125"><ele>302.0</ele><time>2026-04-12T12:12:52.672Z</time></trkpt><trkpt lat="45.1084675" lon="8.0497202"><ele>302.0</ele><time>2026-04-12T12:12:53.672Z</time></trkpt><trkpt lat="45.1085001" lon="8.0495215"><ele>302.0</ele><time>2026-04-12T12:12:54.671Z</time></trkpt><trkpt lat="45.1085158" lon="8.0493375"><ele>302.0</ele><time>2026-04-12T12:12:55.672Z</time></trkpt><trkpt lat="45.1084996" lon="8.0491486"><ele>302.75</ele><time>2026-04-12T12:12:56.672Z</time></trkpt><trkpt lat="45.1084699" lon="8.04894"><ele>303.5</ele><time>2026-04-12T12:12:57.672Z</time></trkpt><trkpt lat="45.1084346" lon="8.048746"><ele>304.25</ele><time>2026-04-12T12:12:58.671Z</time></trkpt><trkpt lat="45.1084009" lon="8.0485476"><ele>305.0</ele><time>2026-04-12T12:12:59.672Z</time></trkpt><trkpt lat="45.108388" lon="8.0483374"><ele>305.25</ele><time>2026-04-12T12:13:00.672Z</time></trkpt><trkpt lat="45.1083888" lon="8.0481382"><ele>305.5</ele><time>2026-04-12T12:13:01.672Z</time></trkpt><trkpt lat="45.1083906" lon="8.0479225"><ele>305.75</ele><time>2026-04-12T12:13:02.672Z</time></trkpt><trkpt lat="45.1083906" lon="8.0477082"><ele>306.0</ele><time>2026-04-12T12:13:03.671Z</time></trkpt><trkpt lat="45.1083817" lon="8.0475038"><ele>306.0</ele><time>2026-04-12T12:13:04.672Z</time></trkpt><trkpt lat="45.1083615" lon="8.0472916"><ele>306.0</ele><time>2026-04-12T12:13:05.672Z</time></trkpt><trkpt lat="45.1083352" lon="8.0470872"><ele>306.0</ele><time>2026-04-12T12:13:06.672Z</time></trkpt><trkpt lat="45.1083225" lon="8.0468792"><ele>306.0</ele><time>2026-04-12T12:13:07.672Z</time></trkpt><trkpt lat="45.1083271" lon="8.0466757"><ele>306.5</ele><time>2026-04-12T12:13:08.672Z</time></trkpt><trkpt lat="45.1083495" lon="8.0464702"><ele>307.0</ele><time>2026-04-12T12:13:09.672Z</time></trkpt><trkpt lat="45.1083846" lon="8.0462785"><ele>307.5</ele><time>2026-04-12T12:13:10.672Z</time></trkpt><trkpt lat="45.1084226" lon="8.0460777"><ele>308.0</ele><time>2026-04-12T12:13:11.672Z</time></trkpt><trkpt lat="45.1084608" lon="8.0458777"><ele>309.0</ele><time>2026-04-12T12:13:12.672Z</time></trkpt><trkpt lat="45.1084956" lon="8.0456743"><ele>310.0</ele><time>2026-04-12T12:13:13.672Z</time></trkpt><trkpt lat="45.1085367" lon="8.0454825"><ele>311.0</ele><time>2026-04-12T12:13:14.672Z</time></trkpt><trkpt lat="45.1085753" lon="8.0452779"><ele>312.0</ele><time>2026-04-12T12:13:15.672Z</time></trkpt><trkpt lat="45.1086191" lon="8.0450776"><ele>312.5</ele><time>2026-04-12T12:13:16.672Z</time></trkpt><trkpt lat="45.1086548" lon="8.0448747"><ele>313.0</ele><time>2026-04-12T12:13:17.672Z</time></trkpt><trkpt lat="45.1086912" lon="8.0446816"><ele>313.5</ele><time>2026-04-12T12:13:18.672Z</time></trkpt><trkpt lat="45.1087155" lon="8.0444788"><ele>314.0</ele><time>2026-04-12T12:13:19.671Z</time></trkpt><trkpt lat="45.1087311" lon="8.0442742"><ele>315.0</ele><time>2026-04-12T12:13:20.672Z</time></trkpt><trkpt lat="45.1087361" lon="8.0440795"><ele>316.0</ele><time>2026-04-12T12:13:21.672Z</time></trkpt><trkpt lat="45.1087301" lon="8.0438937"><ele>317.0</ele><time>2026-04-12T12:13:22.672Z</time></trkpt><trkpt lat="45.1087197" lon="8.0437138"><ele>318.0</ele><time>2026-04-12T12:13:23.672Z</time></trkpt><trkpt lat="45.1087028" lon="8.0435257"><ele>318.0</ele><time>2026-04-12T12:13:24.672Z</time></trkpt><trkpt lat="45.1086955" lon="8.0433375"><ele>318.0</ele><time>2026-04-12T12:13:25.672Z</time></trkpt><trkpt lat="45.108701" lon="8.0431503"><ele>318.0</ele><time>2026-04-12T12:13:26.672Z</time></trkpt><trkpt lat="45.108719" lon="8.0429671"><ele>318.0</ele><time>2026-04-12T12:13:27.672Z</time></trkpt><trkpt lat="45.1087454" lon="8.0428086"><ele>317.8333333333333</ele><time>2026-04-12T12:13:28.672Z</time></trkpt><trkpt lat="45.1087578" lon="8.0426577"><ele>317.6666666666667</ele><time>2026-04-12T12:13:29.672Z</time></trkpt><trkpt lat="45.1087726" lon="8.0425276"><ele>317.5</ele><time>2026-04-12T12:13:30.672Z</time></trkpt><trkpt lat="45.1087738" lon="8.0424104"><ele>317.33333333333337</ele><time>2026-04-12T12:13:31.672Z</time></trkpt><trkpt lat="45.108771" lon="8.0422977"><ele>317.1666666666667</ele><time>2026-04-12T12:13:32.672Z</time></trkpt><trkpt lat="45.1087712" lon="8.0421997"><ele>317.0</ele><time>2026-04-12T12:13:33.672Z</time></trkpt><trkpt lat="45.1087667" lon="8.0421073"><ele>317.0</ele><time>2026-04-12T12:13:34.672Z</time></trkpt><trkpt lat="45.1087647" lon="8.0419419"><ele>317.0</ele><time>2026-04-12T12:13:36.672Z</time></trkpt><trkpt lat="45.1087641" lon="8.0418398"><ele>317.0</ele><time>2026-04-12T12:13:37.672Z</time></trkpt><trkpt lat="45.1087599" lon="8.0417387"><ele>317.0</ele><time>2026-04-12T12:13:38.672Z</time></trkpt><trkpt lat="45.1087603" lon="8.0416448"><ele>317.0</ele><time>2026-04-12T12:13:39.672Z</time></trkpt><trkpt lat="45.1087586" lon="8.0415391"><ele>317.0</ele><time>2026-04-12T12:13:40.672Z</time></trkpt><trkpt lat="45.1087421" lon="8.0413677"><ele>317.0</ele><time>2026-04-12T12:13:42.672Z</time></trkpt><trkpt lat="45.1087186" lon="8.0412687"><ele>317.0</ele><time>2026-04-12T12:13:43.671Z</time></trkpt><trkpt lat="45.1086952" lon="8.0411576"><ele>317.0</ele><time>2026-04-12T12:13:44.672Z</time></trkpt><trkpt lat="45.1086671" lon="8.0410465"><ele>317.0</ele><time>2026-04-12T12:13:45.672Z</time></trkpt><trkpt lat="45.1086548" lon="8.0409491"><ele>317.0</ele><time>2026-04-12T12:13:46.672Z</time></trkpt><trkpt lat="45.1086469" lon="8.0408284"><ele>317.0</ele><time>2026-04-12T12:13:47.672Z</time></trkpt><trkpt lat="45.1086634" lon="8.040719"><ele>317.0</ele><time>2026-04-12T12:13:48.672Z</time></trkpt><trkpt lat="45.1086911" lon="8.0406118"><ele>317.0</ele><time>2026-04-12T12:13:49.672Z</time></trkpt><trkpt lat="45.1087283" lon="8.0405061"><ele>317.0</ele><time>2026-04-12T12:13:50.672Z</time></trkpt><trkpt lat="45.108767" lon="8.0403939"><ele>317.0</ele><time>2026-04-12T12:13:51.672Z</time></trkpt><trkpt lat="45.1088014" lon="8.0402807"><ele>317.0</ele><time>2026-04-12T12:13:52.672Z</time></trkpt><trkpt lat="45.1088383" lon="8.040171"><ele>317.0</ele><time>2026-04-12T12:13:53.671Z</time></trkpt><trkpt lat="45.1088836" lon="8.0400674"><ele>317.0</ele><time>2026-04-12T12:13:54.672Z</time></trkpt><trkpt lat="45.1089205" lon="8.0399615"><ele>317.0</ele><time>2026-04-12T12:13:55.672Z</time></trkpt><trkpt lat="45.1089654" lon="8.0398598"><ele>317.0</ele><time>2026-04-12T12:13:56.672Z</time></trkpt><trkpt lat="45.1090124" lon="8.0397598"><ele>317.0</ele><time>2026-04-12T12:13:57.672Z</time></trkpt><trkpt lat="45.109062" lon="8.0396622"><ele>317.0</ele><time>2026-04-12T12:13:58.672Z</time></trkpt><trkpt lat="45.1091219" lon="8.039578"><ele>317.0</ele><time>2026-04-12T12:13:59.672Z</time></trkpt><trkpt lat="45.1091768" lon="8.0394881"><ele>317.0</ele><time>2026-04-12T12:14:00.671Z</time></trkpt><trkpt lat="45.1092336" lon="8.0394028"><ele>317.0</ele><time>2026-04-12T12:14:01.672Z</time></trkpt><trkpt lat="45.109279" lon="8.0393163"><ele>317.0</ele><time>2026-04-12T12:14:02.672Z</time></trkpt><trkpt lat="45.1093246" lon="8.0392363"><ele>317.0</ele><time>2026-04-12T12:14:03.672Z</time></trkpt><trkpt lat="45.1093663" lon="8.0391461"><ele>317.0</ele><time>2026-04-12T12:14:04.672Z</time></trkpt><trkpt lat="45.1094077" lon="8.0390643"><ele>317.0</ele><time>2026-04-12T12:14:05.672Z</time></trkpt><trkpt lat="45.1094643" lon="8.0389726"><ele>317.5</ele><time>2026-04-12T12:14:06.672Z</time></trkpt><trkpt lat="45.1095301" lon="8.0389044"><ele>318.0</ele><time>2026-04-12T12:14:07.672Z</time></trkpt><trkpt lat="45.1096079" lon="8.0388571"><ele>318.5</ele><time>2026-04-12T12:14:08.672Z</time></trkpt><trkpt lat="45.1096871" lon="8.0388116"><ele>319.0</ele><time>2026-04-12T12:14:09.672Z</time></trkpt><trkpt lat="45.1097681" lon="8.0387414"><ele>319.5</ele><time>2026-04-12T12:14:10.672Z</time></trkpt><trkpt lat="45.1098497" lon="8.0386654"><ele>320.0</ele><time>2026-04-12T12:14:11.671Z</time></trkpt><trkpt lat="45.1099172" lon="8.0385785"><ele>321.6</ele><time>2026-04-12T12:14:12.671Z</time></trkpt><trkpt lat="45.1099785" lon="8.0384734"><ele>323.2</ele><time>2026-04-12T12:14:13.672Z</time></trkpt><trkpt lat="45.1100206" lon="8.0383404"><ele>324.79999999999995</ele><time>2026-04-12T12:14:14.672Z</time></trkpt><trkpt lat="45.1100611" lon="8.038205"><ele>326.4</ele><time>2026-04-12T12:14:15.672Z</time></trkpt><trkpt lat="45.1100677" lon="8.0380665"><ele>328.0</ele><time>2026-04-12T12:14:16.672Z</time></trkpt><trkpt lat="45.1100726" lon="8.0379254"><ele>328.59999999999997</ele><time>2026-04-12T12:14:17.672Z</time></trkpt><trkpt lat="45.1100705" lon="8.0377799"><ele>329.2</ele><time>2026-04-12T12:14:18.671Z</time></trkpt><trkpt lat="45.1100536" lon="8.0376394"><ele>329.8</ele><time>2026-04-12T12:14:19.672Z</time></trkpt><trkpt lat="45.1100277" lon="8.0374849"><ele>330.4</ele><time>2026-04-12T12:14:20.672Z</time></trkpt><trkpt lat="45.1099945" lon="8.0373452"><ele>331.0</ele><time>2026-04-12T12:14:21.672Z</time></trkpt><trkpt lat="45.1099659" lon="8.0372207"><ele>331.6</ele><time>2026-04-12T12:14:22.672Z</time></trkpt><trkpt lat="45.1099388" lon="8.0370993"><ele>332.20000000000005</ele><time>2026-04-12T12:14:23.672Z</time></trkpt><trkpt lat="45.1099234" lon="8.0369645"><ele>332.79999999999995</ele><time>2026-04-12T12:14:24.672Z</time></trkpt><trkpt lat="45.1099327" lon="8.0368242"><ele>333.4</ele><time>2026-04-12T12:14:25.672Z</time></trkpt><trkpt lat="45.1099575" lon="8.0366849"><ele>334.0</ele><time>2026-04-12T12:14:26.672Z</time></trkpt><trkpt lat="45.1099903" lon="8.0365159"><ele>334.5</ele><time>2026-04-12T12:14:27.672Z</time></trkpt><trkpt lat="45.1100312" lon="8.0363662"><ele>335.0</ele><time>2026-04-12T12:14:28.672Z</time></trkpt><trkpt lat="45.1100619" lon="8.0362021"><ele>335.5</ele><time>2026-04-12T12:14:29.672Z</time></trkpt><trkpt lat="45.1100956" lon="8.0360397"><ele>336.0</ele><time>2026-04-12T12:14:30.672Z</time></trkpt><trkpt lat="45.1101189" lon="8.0358681"><ele>335.5</ele><time>2026-04-12T12:14:31.671Z</time></trkpt><trkpt lat="45.1101376" lon="8.0357003"><ele>335.0</ele><time>2026-04-12T12:14:32.672Z</time></trkpt><trkpt lat="45.1101578" lon="8.0355426"><ele>334.5</ele><time>2026-04-12T12:14:33.672Z</time></trkpt><trkpt lat="45.1101844" lon="8.0353883"><ele>334.0</ele><time>2026-04-12T12:14:34.672Z</time></trkpt><trkpt lat="45.1102193" lon="8.035239"><ele>334.0</ele><time>2026-04-12T12:14:35.672Z</time></trkpt><trkpt lat="45.1102654" lon="8.0350936"><ele>334.0</ele><time>2026-04-12T12:14:36.672Z</time></trkpt><trkpt lat="45.1103348" lon="8.0349615"><ele>334.0</ele><time>2026-04-12T12:14:37.672Z</time></trkpt><trkpt lat="45.1104099" lon="8.0348438"><ele>334.0</ele><time>2026-04-12T12:14:38.672Z</time></trkpt><trkpt lat="45.1104746" lon="8.0347337"><ele>334.0</ele><time>2026-04-12T12:14:39.672Z</time></trkpt><trkpt lat="45.1105495" lon="8.0346397"><ele>333.2</ele><time>2026-04-12T12:14:40.671Z</time></trkpt><trkpt lat="45.1106327" lon="8.0345825"><ele>332.4</ele><time>2026-04-12T12:14:41.672Z</time></trkpt><trkpt lat="45.1107213" lon="8.0345449"><ele>331.6</ele><time>2026-04-12T12:14:42.671Z</time></trkpt><trkpt lat="45.1108157" lon="8.0345351"><ele>330.8</ele><time>2026-04-12T12:14:43.672Z</time></trkpt><trkpt lat="45.1109105" lon="8.0345061"><ele>330.0</ele><time>2026-04-12T12:14:44.672Z</time></trkpt><trkpt lat="45.1109985" lon="8.0344479"><ele>333.2</ele><time>2026-04-12T12:14:45.672Z</time></trkpt><trkpt lat="45.1110809" lon="8.0343586"><ele>336.4</ele><time>2026-04-12T12:14:46.672Z</time></trkpt><trkpt lat="45.1111618" lon="8.0342584"><ele>339.6</ele><time>2026-04-12T12:14:47.672Z</time></trkpt><trkpt lat="45.1112402" lon="8.0341622"><ele>342.8</ele><time>2026-04-12T12:14:48.671Z</time></trkpt><trkpt lat="45.1113071" lon="8.0340468"><ele>346.0</ele><time>2026-04-12T12:14:49.671Z</time></trkpt><trkpt lat="45.1113794" lon="8.0339383"><ele>346.0</ele><time>2026-04-12T12:14:50.672Z</time></trkpt><trkpt lat="45.1114577" lon="8.0338237"><ele>346.0</ele><time>2026-04-12T12:14:51.672Z</time></trkpt><trkpt lat="45.1115433" lon="8.0337135"><ele>346.0</ele><time>2026-04-12T12:14:52.671Z</time></trkpt><trkpt lat="45.1116326" lon="8.0335916"><ele>346.0</ele><time>2026-04-12T12:14:53.672Z</time></trkpt><trkpt lat="45.1117296" lon="8.0335047"><ele>347.25</ele><time>2026-04-12T12:14:54.672Z</time></trkpt><trkpt lat="45.1118329" lon="8.033423"><ele>348.5</ele><time>2026-04-12T12:14:55.671Z</time></trkpt><trkpt lat="45.1119401" lon="8.0333603"><ele>349.75</ele><time>2026-04-12T12:14:56.672Z</time></trkpt><trkpt lat="45.1120514" lon="8.0332842"><ele>351.0</ele><time>2026-04-12T12:14:57.672Z</time></trkpt><trkpt lat="45.1121607" lon="8.0332023"><ele>351.0</ele><time>2026-04-12T12:14:58.672Z</time></trkpt><trkpt lat="45.1122669" lon="8.0331079"><ele>351.0</ele><time>2026-04-12T12:14:59.672Z</time></trkpt><trkpt lat="45.1123755" lon="8.033015"><ele>351.0</ele><time>2026-04-12T12:15:00.672Z</time></trkpt><trkpt lat="45.1124908" lon="8.0329549"><ele>351.0</ele><time>2026-04-12T12:15:01.672Z</time></trkpt><trkpt lat="45.1126139" lon="8.0328944"><ele>353.5</ele><time>2026-04-12T12:15:02.672Z</time></trkpt><trkpt lat="45.1127377" lon="8.0328585"><ele>356.0</ele><time>2026-04-12T12:15:03.672Z</time></trkpt><trkpt lat="45.1128663" lon="8.0328498"><ele>358.5</ele><time>2026-04-12T12:15:04.672Z</time></trkpt><trkpt lat="45.1129944" lon="8.0328528"><ele>361.0</ele><time>2026-04-12T12:15:05.672Z</time></trkpt><trkpt lat="45.1131002" lon="8.0328618"><ele>361.0</ele><time>2026-04-12T12:15:06.672Z</time></trkpt><trkpt lat="45.1131913" lon="8.0328454"><ele>361.0</ele><time>2026-04-12T12:15:07.672Z</time></trkpt><trkpt lat="45.113274" lon="8.0328181"><ele>361.0</ele><time>2026-04-12T12:15:08.671Z</time></trkpt><trkpt lat="45.1133542" lon="8.0327636"><ele>361.0</ele><time>2026-04-12T12:15:09.672Z</time></trkpt><trkpt lat="45.1134165" lon="8.032685"><ele>361.0</ele><time>2026-04-12T12:15:10.672Z</time></trkpt><trkpt lat="45.1134591" lon="8.0325656"><ele>361.0</ele><time>2026-04-12T12:15:11.672Z</time></trkpt><trkpt lat="45.1134916" lon="8.0324374"><ele>365.25</ele><time>2026-04-12T12:15:12.672Z</time></trkpt><trkpt lat="45.1134918" lon="8.0322894"><ele>369.5</ele><time>2026-04-12T12:15:13.672Z</time></trkpt><trkpt lat="45.1134811" lon="8.0321305"><ele>373.75</ele><time>2026-04-12T12:15:14.672Z</time></trkpt><trkpt lat="45.1134587" lon="8.0319739"><ele>378.0</ele><time>2026-04-12T12:15:15.672Z</time></trkpt><trkpt lat="45.1134362" lon="8.0317927"><ele>381.5</ele><time>2026-04-12T12:15:16.672Z</time></trkpt><trkpt lat="45.1134158" lon="8.0316235"><ele>385.0</ele><time>2026-04-12T12:15:17.672Z</time></trkpt><trkpt lat="45.1134009" lon="8.0314571"><ele>388.5</ele><time>2026-04-12T12:15:18.672Z</time></trkpt><trkpt lat="45.1134032" lon="8.0312802"><ele>392.0</ele><time>2026-04-12T12:15:19.672Z</time></trkpt><trkpt lat="45.1134036" lon="8.0311024"><ele>392.0</ele><time>2026-04-12T12:15:20.672Z</time></trkpt><trkpt lat="45.1134012" lon="8.0309438"><ele>392.0</ele><time>2026-04-12T12:15:21.672Z</time></trkpt><trkpt lat="45.1133972" lon="8.0307943"><ele>392.0</ele><time>2026-04-12T12:15:22.672Z</time></trkpt><trkpt lat="45.1133921" lon="8.0306501"><ele>392.0</ele><time>2026-04-12T12:15:23.672Z</time></trkpt><trkpt lat="45.1133579" lon="8.0305137"><ele>392.0</ele><time>2026-04-12T12:15:24.671Z</time></trkpt><trkpt lat="45.1133073" lon="8.0304291"><ele>392.16666666666663</ele><time>2026-04-12T12:15:25.672Z</time></trkpt><trkpt lat="45.1132674" lon="8.0303596"><ele>392.3333333333333</ele><time>2026-04-12T12:15:26.672Z</time></trkpt><trkpt lat="45.1132322" lon="8.030206"><ele>392.5</ele><time>2026-04-12T12:15:28.672Z</time></trkpt><trkpt lat="45.1132138" lon="8.0301113"><ele>392.66666666666663</ele><time>2026-04-12T12:15:29.672Z</time></trkpt><trkpt lat="45.1132076" lon="8.0300073"><ele>392.8333333333333</ele><time>2026-04-12T12:15:30.672Z</time></trkpt><trkpt lat="45.1131966" lon="8.0298937"><ele>393.0</ele><time>2026-04-12T12:15:31.672Z</time></trkpt><trkpt lat="45.1131951" lon="8.0297782"><ele>392.59999999999997</ele><time>2026-04-12T12:15:32.672Z</time></trkpt><trkpt lat="45.1131965" lon="8.0296378"><ele>392.2</ele><time>2026-04-12T12:15:33.672Z</time></trkpt><trkpt lat="45.1132371" lon="8.0294705"><ele>391.8</ele><time>2026-04-12T12:15:34.672Z</time></trkpt><trkpt lat="45.1132677" lon="8.029324"><ele>391.4</ele><time>2026-04-12T12:15:35.672Z</time></trkpt><trkpt lat="45.1132996" lon="8.0291692"><ele>391.0</ele><time>2026-04-12T12:15:36.672Z</time></trkpt><trkpt lat="45.1133359" lon="8.0290129"><ele>390.25</ele><time>2026-04-12T12:15:37.672Z</time></trkpt><trkpt lat="45.1133733" lon="8.0288466"><ele>389.5</ele><time>2026-04-12T12:15:38.672Z</time></trkpt><trkpt lat="45.1134083" lon="8.0286849"><ele>388.75</ele><time>2026-04-12T12:15:39.672Z</time></trkpt><trkpt lat="45.1134472" lon="8.0285364"><ele>388.0</ele><time>2026-04-12T12:15:40.672Z</time></trkpt><trkpt lat="45.1134837" lon="8.028379"><ele>388.0</ele><time>2026-04-12T12:15:41.672Z</time></trkpt><trkpt lat="45.1135249" lon="8.028228"><ele>388.0</ele><time>2026-04-12T12:15:42.671Z</time></trkpt><trkpt lat="45.11356" lon="8.0280683"><ele>388.0</ele><time>2026-04-12T12:15:43.672Z</time></trkpt><trkpt lat="45.1136046" lon="8.027924"><ele>388.0</ele><time>2026-04-12T12:15:44.672Z</time></trkpt><trkpt lat="45.1136378" lon="8.0277726"><ele>388.0</ele><time>2026-04-12T12:15:45.672Z</time></trkpt><trkpt lat="45.1136657" lon="8.0276135"><ele>388.0</ele><time>2026-04-12T12:15:46.672Z</time></trkpt><trkpt lat="45.1136885" lon="8.0274511"><ele>388.0</ele><time>2026-04-12T12:15:47.671Z</time></trkpt><trkpt lat="45.1137057" lon="8.0272799"><ele>388.0</ele><time>2026-04-12T12:15:48.672Z</time></trkpt><trkpt lat="45.1137109" lon="8.0271147"><ele>387.75</ele><time>2026-04-12T12:15:49.672Z</time></trkpt><trkpt lat="45.1137053" lon="8.0269403"><ele>387.5</ele><time>2026-04-12T12:15:50.672Z</time></trkpt><trkpt lat="45.1136966" lon="8.0267811"><ele>387.25</ele><time>2026-04-12T12:15:51.672Z</time></trkpt><trkpt lat="45.1136986" lon="8.0266189"><ele>387.0</ele><time>2026-04-12T12:15:52.672Z</time></trkpt><trkpt lat="45.1137001" lon="8.0264668"><ele>386.6666666666667</ele><time>2026-04-12T12:15:53.672Z</time></trkpt><trkpt lat="45.113723" lon="8.0263354"><ele>386.33333333333337</ele><time>2026-04-12T12:15:54.672Z</time></trkpt><trkpt lat="45.1137474" lon="8.0262153"><ele>386.0</ele><time>2026-04-12T12:15:55.672Z</time></trkpt><trkpt lat="45.1137775" lon="8.0261137"><ele>385.6666666666667</ele><time>2026-04-12T12:15:56.672Z</time></trkpt><trkpt lat="45.1138171" lon="8.0260186"><ele>385.33333333333337</ele><time>2026-04-12T12:15:57.672Z</time></trkpt><trkpt lat="45.1138674" lon="8.025922"><ele>385.0</ele><time>2026-04-12T12:15:58.671Z</time></trkpt><trkpt lat="45.1139195" lon="8.0258344"><ele>384.50000000000006</ele><time>2026-04-12T12:15:59.672Z</time></trkpt><trkpt lat="45.1139691" lon="8.0257426"><ele>384.0</ele><time>2026-04-12T12:16:00.672Z</time></trkpt><trkpt lat="45.1140197" lon="8.0256548"><ele>383.5</ele><time>2026-04-12T12:16:01.672Z</time></trkpt><trkpt lat="45.1140727" lon="8.0255857"><ele>383.0</ele><time>2026-04-12T12:16:02.672Z</time></trkpt><trkpt lat="45.1141293" lon="8.0255081"><ele>382.5</ele><time>2026-04-12T12:16:03.672Z</time></trkpt><trkpt lat="45.1141862" lon="8.0254165"><ele>382.0</ele><time>2026-04-12T12:16:04.672Z</time></trkpt><trkpt lat="45.1142365" lon="8.0253249"><ele>382.16666666666663</ele><time>2026-04-12T12:16:05.672Z</time></trkpt><trkpt lat="45.1143158" lon="8.0252683"><ele>382.3333333333333</ele><time>2026-04-12T12:16:06.672Z</time></trkpt><trkpt lat="45.1143811" lon="8.0251935"><ele>382.5</ele><time>2026-04-12T12:16:07.672Z</time></trkpt><trkpt lat="45.1144496" lon="8.0251264"><ele>382.6666666666667</ele><time>2026-04-12T12:16:08.672Z</time></trkpt><trkpt lat="45.1145322" lon="8.0250697"><ele>382.83333333333337</ele><time>2026-04-12T12:16:09.672Z</time></trkpt><trkpt lat="45.11461" lon="8.0250023"><ele>383.0</ele><time>2026-04-12T12:16:10.672Z</time></trkpt><trkpt lat="45.1146819" lon="8.0249116"><ele>383.0</ele><time>2026-04-12T12:16:11.672Z</time></trkpt><trkpt lat="45.1147505" lon="8.0248356"><ele>383.0</ele><time>2026-04-12T12:16:12.672Z</time></trkpt><trkpt lat="45.1148317" lon="8.0247719"><ele>383.0</ele><time>2026-04-12T12:16:13.672Z</time></trkpt><trkpt lat="45.1149115" lon="8.0247092"><ele>383.0</ele><time>2026-04-12T12:16:14.672Z</time></trkpt><trkpt lat="45.1149809" lon="8.0246391"><ele>383.0</ele><time>2026-04-12T12:16:15.672Z</time></trkpt><trkpt lat="45.1150652" lon="8.0245871"><ele>383.0</ele><time>2026-04-12T12:16:16.672Z</time></trkpt><trkpt lat="45.1151464" lon="8.0245273"><ele>383.5</ele><time>2026-04-12T12:16:17.672Z</time></trkpt><trkpt lat="45.1152122" lon="8.0244713"><ele>384.0</ele><time>2026-04-12T12:16:18.672Z</time></trkpt><trkpt lat="45.1152674" lon="8.0244201"><ele>384.5</ele><time>2026-04-12T12:16:19.672Z</time></trkpt><trkpt lat="45.1153448" lon="8.0243317"><ele>385.0</ele><time>2026-04-12T12:16:21.672Z</time></trkpt><trkpt lat="45.1153941" lon="8.0242438"><ele>385.49999999999994</ele><time>2026-04-12T12:16:23.672Z</time></trkpt><trkpt lat="45.1154216" lon="8.0241611"><ele>386.0</ele><time>2026-04-12T12:17:49.672Z</time></trkpt><trkpt lat="45.1154688" lon="8.024036"><ele>386.0</ele><time>2026-04-12T12:17:52.672Z</time></trkpt><trkpt lat="45.1155196" lon="8.0238904"><ele>386.0</ele><time>2026-04-12T12:17:54.672Z</time></trkpt><trkpt lat="45.1155665" lon="8.0237358"><ele>386.0</ele><time>2026-04-12T12:17:56.672Z</time></trkpt><trkpt lat="45.1156152" lon="8.0235744"><ele>386.0</ele><time>2026-04-12T12:17:58.672Z</time></trkpt><trkpt lat="45.1156477" lon="8.0234911"><ele>386.0</ele><time>2026-04-12T12:17:59.672Z</time></trkpt><trkpt lat="45.1156811" lon="8.0233916"><ele>387.4</ele><time>2026-04-12T12:18:00.672Z</time></trkpt><trkpt lat="45.1157254" lon="8.0232794"><ele>388.8</ele><time>2026-04-12T12:18:01.671Z</time></trkpt><trkpt lat="45.1157663" lon="8.0231552"><ele>390.2</ele><time>2026-04-12T12:18:02.671Z</time></trkpt><trkpt lat="45.1158172" lon="8.0230509"><ele>391.59999999999997</ele><time>2026-04-12T12:18:03.672Z</time></trkpt><trkpt lat="45.1158832" lon="8.0229339"><ele>393.0</ele><time>2026-04-12T12:18:04.672Z</time></trkpt><trkpt lat="45.1159526" lon="8.0228174"><ele>393.0</ele><time>2026-04-12T12:18:05.671Z</time></trkpt><trkpt lat="45.1160351" lon="8.0226968"><ele>393.0</ele><time>2026-04-12T12:18:06.672Z</time></trkpt><trkpt lat="45.1161203" lon="8.0225735"><ele>393.0</ele><time>2026-04-12T12:18:07.672Z</time></trkpt><trkpt lat="45.1162045" lon="8.0224404"><ele>393.0</ele><time>2026-04-12T12:18:08.672Z</time></trkpt><trkpt lat="45.1162896" lon="8.0223023"><ele>389.5</ele><time>2026-04-12T12:18:09.672Z</time></trkpt><trkpt lat="45.1163703" lon="8.0221571"><ele>386.0</ele><time>2026-04-12T12:18:10.672Z</time></trkpt><trkpt lat="45.1164456" lon="8.0220248"><ele>382.5</ele><time>2026-04-12T12:18:11.672Z</time></trkpt><trkpt lat="45.1165044" lon="8.0218849"><ele>379.0</ele><time>2026-04-12T12:18:12.671Z</time></trkpt><trkpt lat="45.1165578" lon="8.0217761"><ele>380.0</ele><time>2026-04-12T12:18:13.672Z</time></trkpt><trkpt lat="45.1166025" lon="8.0216677"><ele>381.0</ele><time>2026-04-12T12:18:14.672Z</time></trkpt><trkpt lat="45.1166384" lon="8.0215651"><ele>382.0</ele><time>2026-04-12T12:18:15.672Z</time></trkpt><trkpt lat="45.1166769" lon="8.0214768"><ele>383.0</ele><time>2026-04-12T12:18:16.672Z</time></trkpt><trkpt lat="45.1167005" lon="8.0213837"><ele>384.00000000000006</ele><time>2026-04-12T12:18:17.672Z</time></trkpt><trkpt lat="45.1167275" lon="8.0213014"><ele>385.0</ele><time>2026-04-12T12:18:18.672Z</time></trkpt><trkpt lat="45.1167626" lon="8.0212075"><ele>385.0</ele><time>2026-04-12T12:18:19.672Z</time></trkpt><trkpt lat="45.1168012" lon="8.021101"><ele>385.0</ele><time>2026-04-12T12:18:20.672Z</time></trkpt><trkpt lat="45.1168479" lon="8.0210027"><ele>385.0</ele><time>2026-04-12T12:18:21.672Z</time></trkpt><trkpt lat="45.1169117" lon="8.0209041"><ele>385.0</ele><time>2026-04-12T12:18:22.672Z</time></trkpt><trkpt lat="45.1169884" lon="8.0208135"><ele>385.0</ele><time>2026-04-12T12:18:23.672Z</time></trkpt><trkpt lat="45.1170721" lon="8.0207111"><ele>382.5</ele><time>2026-04-12T12:18:24.672Z</time></trkpt><trkpt lat="45.1171541" lon="8.0205914"><ele>380.0</ele><time>2026-04-12T12:18:25.672Z</time></trkpt><trkpt lat="45.1172278" lon="8.0204562"><ele>377.5</ele><time>2026-04-12T12:18:26.672Z</time></trkpt><trkpt lat="45.1172848" lon="8.0202999"><ele>375.0</ele><time>2026-04-12T12:18:27.672Z</time></trkpt><trkpt lat="45.1173486" lon="8.0201363"><ele>376.75</ele><time>2026-04-12T12:18:28.672Z</time></trkpt><trkpt lat="45.1174113" lon="8.0199561"><ele>378.5</ele><time>2026-04-12T12:18:29.672Z</time></trkpt><trkpt lat="45.1174735" lon="8.0197837"><ele>380.25</ele><time>2026-04-12T12:18:30.672Z</time></trkpt><trkpt lat="45.1175237" lon="8.0196114"><ele>382.0</ele><time>2026-04-12T12:18:31.672Z</time></trkpt><trkpt lat="45.1175628" lon="8.0194509"><ele>382.0</ele><time>2026-04-12T12:18:32.672Z</time></trkpt><trkpt lat="45.1176051" lon="8.0193173"><ele>382.0</ele><time>2026-04-12T12:18:33.672Z</time></trkpt><trkpt lat="45.1176361" lon="8.0191918"><ele>382.0</ele><time>2026-04-12T12:18:34.672Z</time></trkpt><trkpt lat="45.1176699" lon="8.0190816"><ele>382.0</ele><time>2026-04-12T12:18:35.672Z</time></trkpt><trkpt lat="45.1177041" lon="8.0190051"><ele>382.0</ele><time>2026-04-12T12:18:36.672Z</time></trkpt><trkpt lat="45.1177626" lon="8.0189047"><ele>382.0</ele><time>2026-04-12T12:18:38.671Z</time></trkpt><trkpt lat="45.1177782" lon="8.0188064"><ele>381.0</ele><time>2026-04-12T12:18:45.672Z</time></trkpt><trkpt lat="45.1177948" lon="8.018685"><ele>380.0</ele><time>2026-04-12T12:18:47.672Z</time></trkpt><trkpt lat="45.1178463" lon="8.0185218"><ele>379.0</ele><time>2026-04-12T12:18:49.672Z</time></trkpt><trkpt lat="45.1178725" lon="8.0184145"><ele>378.0</ele><time>2026-04-12T12:18:50.671Z</time></trkpt><trkpt lat="45.1178854" lon="8.0182939"><ele>377.0</ele><time>2026-04-12T12:18:51.672Z</time></trkpt><trkpt lat="45.1178746" lon="8.0181602"><ele>377.0</ele><time>2026-04-12T12:18:52.672Z</time></trkpt><trkpt lat="45.1178393" lon="8.0180355"><ele>377.0</ele><time>2026-04-12T12:18:53.672Z</time></trkpt><trkpt lat="45.1177801" lon="8.0179124"><ele>377.0</ele><time>2026-04-12T12:18:54.672Z</time></trkpt><trkpt lat="45.1177207" lon="8.0178018"><ele>377.0</ele><time>2026-04-12T12:18:55.672Z</time></trkpt><trkpt lat="45.1176698" lon="8.0176869"><ele>377.0</ele><time>2026-04-12T12:18:56.671Z</time></trkpt><trkpt lat="45.1176189" lon="8.0175879"><ele>377.0</ele><time>2026-04-12T12:18:57.672Z</time></trkpt><trkpt lat="45.1175715" lon="8.0175023"><ele>377.0</ele><time>2026-04-12T12:18:58.672Z</time></trkpt><trkpt lat="45.1175122" lon="8.0174546"><ele>377.0</ele><time>2026-04-12T12:18:59.672Z</time></trkpt><trkpt lat="45.117429" lon="8.0174298"><ele>377.0</ele><time>2026-04-12T12:19:00.672Z</time></trkpt><trkpt lat="45.1173425" lon="8.0174456"><ele>377.0</ele><time>2026-04-12T12:19:01.672Z</time></trkpt><trkpt lat="45.1172479" lon="8.0175031"><ele>377.0</ele><time>2026-04-12T12:19:02.671Z</time></trkpt><trkpt lat="45.1171477" lon="8.0175863"><ele>379.25</ele><time>2026-04-12T12:19:03.671Z</time></trkpt><trkpt lat="45.1170442" lon="8.0176812"><ele>381.5</ele><time>2026-04-12T12:19:04.672Z</time></trkpt><trkpt lat="45.1169349" lon="8.0177746"><ele>383.75</ele><time>2026-04-12T12:19:05.672Z</time></trkpt><trkpt lat="45.1168152" lon="8.017844"><ele>386.0</ele><time>2026-04-12T12:19:06.672Z</time></trkpt><trkpt lat="45.1166839" lon="8.0178905"><ele>385.75</ele><time>2026-04-12T12:19:07.672Z</time></trkpt><trkpt lat="45.1165535" lon="8.0179291"><ele>385.5</ele><time>2026-04-12T12:19:08.672Z</time></trkpt><trkpt lat="45.1164157" lon="8.0179686"><ele>385.25</ele><time>2026-04-12T12:19:09.671Z</time></trkpt><trkpt lat="45.1162834" lon="8.0180176"><ele>385.0</ele><time>2026-04-12T12:19:10.672Z</time></trkpt><trkpt lat="45.1161507" lon="8.0180833"><ele>385.0</ele><time>2026-04-12T12:19:11.672Z</time></trkpt><trkpt lat="45.1160217" lon="8.0181654"><ele>385.0</ele><time>2026-04-12T12:19:12.672Z</time></trkpt><trkpt lat="45.1158949" lon="8.0182601"><ele>385.0</ele><time>2026-04-12T12:19:13.671Z</time></trkpt><trkpt lat="45.1157831" lon="8.0183632"><ele>385.0</ele><time>2026-04-12T12:19:14.672Z</time></trkpt><trkpt lat="45.1156715" lon="8.0184406"><ele>386.75</ele><time>2026-04-12T12:19:15.672Z</time></trkpt><trkpt lat="45.1155535" lon="8.0185044"><ele>388.5</ele><time>2026-04-12T12:19:16.672Z</time></trkpt><trkpt lat="45.1154191" lon="8.0184736"><ele>390.25</ele><time>2026-04-12T12:19:17.672Z</time></trkpt><trkpt lat="45.1153145" lon="8.0184543"><ele>392.0</ele><time>2026-04-12T12:19:18.672Z</time></trkpt><trkpt lat="45.1152032" lon="8.0184347"><ele>392.0</ele><time>2026-04-12T12:19:19.672Z</time></trkpt><trkpt lat="45.1150746" lon="8.0184214"><ele>392.0</ele><time>2026-04-12T12:19:20.672Z</time></trkpt><trkpt lat="45.1149426" lon="8.0184242"><ele>392.0</ele><time>2026-04-12T12:19:21.672Z</time></trkpt><trkpt lat="45.114815" lon="8.0184549"><ele>392.0</ele><time>2026-04-12T12:19:22.672Z</time></trkpt><trkpt lat="45.1146691" lon="8.0185146"><ele>398.25</ele><time>2026-04-12T12:19:23.672Z</time></trkpt><trkpt lat="45.1145426" lon="8.0186083"><ele>404.5</ele><time>2026-04-12T12:19:24.672Z</time></trkpt><trkpt lat="45.1144314" lon="8.0187401"><ele>410.75</ele><time>2026-04-12T12:19:25.672Z</time></trkpt><trkpt lat="45.114318" lon="8.0188414"><ele>417.0</ele><time>2026-04-12T12:19:26.672Z</time></trkpt><trkpt lat="45.114198" lon="8.0189178"><ele>417.0</ele><time>2026-04-12T12:19:27.672Z</time></trkpt><trkpt lat="45.1140843" lon="8.018981"><ele>417.0</ele><time>2026-04-12T12:19:28.672Z</time></trkpt><trkpt lat="45.1139835" lon="8.0190108"><ele>417.0</ele><time>2026-04-12T12:19:29.672Z</time></trkpt><trkpt lat="45.1138745" lon="8.0189944"><ele>417.0</ele><time>2026-04-12T12:19:30.672Z</time></trkpt><trkpt lat="45.1137596" lon="8.0189624"><ele>418.25</ele><time>2026-04-12T12:19:31.672Z</time></trkpt><trkpt lat="45.1136582" lon="8.0188569"><ele>419.5</ele><time>2026-04-12T12:19:32.671Z</time></trkpt><trkpt lat="45.113547" lon="8.0187562"><ele>420.75</ele><time>2026-04-12T12:19:33.672Z</time></trkpt><trkpt lat="45.1134512" lon="8.0186561"><ele>422.0</ele><time>2026-04-12T12:19:34.672Z</time></trkpt><trkpt lat="45.1133434" lon="8.0185784"><ele>421.20000000000005</ele><time>2026-04-12T12:19:35.672Z</time></trkpt><trkpt lat="45.1132316" lon="8.0184848"><ele>420.4</ele><time>2026-04-12T12:19:36.672Z</time></trkpt><trkpt lat="45.1131204" lon="8.0184658"><ele>419.6</ele><time>2026-04-12T12:19:37.672Z</time></trkpt><trkpt lat="45.1130156" lon="8.0184413"><ele>418.79999999999995</ele><time>2026-04-12T12:19:38.672Z</time></trkpt><trkpt lat="45.1129293" lon="8.0184418"><ele>418.0</ele><time>2026-04-12T12:19:39.672Z</time></trkpt><trkpt lat="45.1128468" lon="8.0184188"><ele>418.0</ele><time>2026-04-12T12:19:40.672Z</time></trkpt><trkpt lat="45.1127586" lon="8.0183716"><ele>418.0</ele><time>2026-04-12T12:19:41.672Z</time></trkpt><trkpt lat="45.1126786" lon="8.0182762"><ele>418.0</ele><time>2026-04-12T12:19:42.672Z</time></trkpt><trkpt lat="45.1125671" lon="8.0182023"><ele>418.0</ele><time>2026-04-12T12:19:43.672Z</time></trkpt><trkpt lat="45.112457" lon="8.0181834"><ele>418.0</ele><time>2026-04-12T12:19:44.672Z</time></trkpt><trkpt lat="45.1123479" lon="8.0181913"><ele>418.25</ele><time>2026-04-12T12:19:45.672Z</time></trkpt><trkpt lat="45.1122355" lon="8.0182455"><ele>418.5</ele><time>2026-04-12T12:19:46.672Z</time></trkpt><trkpt lat="45.112131" lon="8.0183319"><ele>418.75</ele><time>2026-04-12T12:19:47.672Z</time></trkpt><trkpt lat="45.1120547" lon="8.0184777"><ele>419.0</ele><time>2026-04-12T12:19:48.672Z</time></trkpt><trkpt lat="45.1119799" lon="8.0186315"><ele>419.75</ele><time>2026-04-12T12:19:49.672Z</time></trkpt><trkpt lat="45.1119295" lon="8.0188116"><ele>420.5</ele><time>2026-04-12T12:19:50.672Z</time></trkpt><trkpt lat="45.1118778" lon="8.0189945"><ele>421.25</ele><time>2026-04-12T12:19:51.672Z</time></trkpt><trkpt lat="45.1118442" lon="8.0191696"><ele>422.0</ele><time>2026-04-12T12:19:52.672Z</time></trkpt><trkpt lat="45.1118087" lon="8.0193083"><ele>422.6</ele><time>2026-04-12T12:19:53.672Z</time></trkpt><trkpt lat="45.1117752" lon="8.0194418"><ele>423.20000000000005</ele><time>2026-04-12T12:19:54.672Z</time></trkpt><trkpt lat="45.1117638" lon="8.0195638"><ele>423.8</ele><time>2026-04-12T12:19:55.672Z</time></trkpt><trkpt lat="45.111714" lon="8.0196801"><ele>424.4</ele><time>2026-04-12T12:19:56.672Z</time></trkpt><trkpt lat="45.1116674" lon="8.0197966"><ele>425.0</ele><time>2026-04-12T12:19:57.672Z</time></trkpt><trkpt lat="45.1115845" lon="8.0198988"><ele>424.0</ele><time>2026-04-12T12:19:58.672Z</time></trkpt><trkpt lat="45.1114812" lon="8.0199654"><ele>423.0</ele><time>2026-04-12T12:19:59.672Z</time></trkpt><trkpt lat="45.1113822" lon="8.0199988"><ele>422.0</ele><time>2026-04-12T12:20:00.672Z</time></trkpt><trkpt lat="45.1113103" lon="8.0200016"><ele>421.0</ele><time>2026-04-12T12:20:01.672Z</time></trkpt><trkpt lat="45.1111917" lon="8.0199799"><ele>420.0</ele><time>2026-04-12T12:20:03.672Z</time></trkpt><trkpt lat="45.1111597" lon="8.0199027"><ele>419.4</ele><time>2026-04-12T12:20:05.671Z</time></trkpt><trkpt lat="45.1111884" lon="8.0198093"><ele>418.8</ele><time>2026-04-12T12:20:07.672Z</time></trkpt><trkpt lat="45.1112684" lon="8.0196662"><ele>418.20000000000005</ele><time>2026-04-12T12:20:09.672Z</time></trkpt><trkpt lat="45.1113075" lon="8.0195805"><ele>417.6</ele><time>2026-04-12T12:20:10.672Z</time></trkpt><trkpt lat="45.1113625" lon="8.0194604"><ele>417.0</ele><time>2026-04-12T12:20:11.672Z</time></trkpt><trkpt lat="45.1114109" lon="8.0193224"><ele>417.0</ele><time>2026-04-12T12:20:12.672Z</time></trkpt><trkpt lat="45.1114674" lon="8.019188"><ele>417.0</ele><time>2026-04-12T12:20:13.672Z</time></trkpt><trkpt lat="45.1115308" lon="8.0190482"><ele>417.0</ele><time>2026-04-12T12:20:14.671Z</time></trkpt><trkpt lat="45.1115982" lon="8.0188937"><ele>417.0</ele><time>2026-04-12T12:20:15.672Z</time></trkpt><trkpt lat="45.1116646" lon="8.018728"><ele>417.5</ele><time>2026-04-12T12:20:16.672Z</time></trkpt><trkpt lat="45.111743" lon="8.0185725"><ele>418.0</ele><time>2026-04-12T12:20:17.672Z</time></trkpt><trkpt lat="45.1118213" lon="8.0184118"><ele>418.5</ele><time>2026-04-12T12:20:18.671Z</time></trkpt><trkpt lat="45.1118909" lon="8.0182439"><ele>419.0</ele><time>2026-04-12T12:20:19.672Z</time></trkpt><trkpt lat="45.1119633" lon="8.0180655"><ele>419.0</ele><time>2026-04-12T12:20:20.672Z</time></trkpt><trkpt lat="45.1120335" lon="8.0178985"><ele>419.0</ele><time>2026-04-12T12:20:21.672Z</time></trkpt><trkpt lat="45.1121" lon="8.0177242"><ele>419.0</ele><time>2026-04-12T12:20:22.672Z</time></trkpt><trkpt lat="45.1121616" lon="8.0175589"><ele>419.0</ele><time>2026-04-12T12:20:23.672Z</time></trkpt><trkpt lat="45.1122222" lon="8.0174008"><ele>417.5</ele><time>2026-04-12T12:20:24.672Z</time></trkpt><trkpt lat="45.1122941" lon="8.0172371"><ele>416.0</ele><time>2026-04-12T12:20:25.672Z</time></trkpt><trkpt lat="45.1123671" lon="8.0170796"><ele>414.5</ele><time>2026-04-12T12:20:26.672Z</time></trkpt><trkpt lat="45.1124361" lon="8.0169081"><ele>413.0</ele><time>2026-04-12T12:20:27.671Z</time></trkpt><trkpt lat="45.1124968" lon="8.0167501"><ele>417.5</ele><time>2026-04-12T12:20:28.672Z</time></trkpt><trkpt lat="45.1125579" lon="8.0165823"><ele>422.0</ele><time>2026-04-12T12:20:29.672Z</time></trkpt><trkpt lat="45.112603" lon="8.0164111"><ele>426.5</ele><time>2026-04-12T12:20:30.672Z</time></trkpt><trkpt lat="45.1126289" lon="8.0162423"><ele>431.0</ele><time>2026-04-12T12:20:31.672Z</time></trkpt><trkpt lat="45.1126416" lon="8.0160674"><ele>431.0</ele><time>2026-04-12T12:20:32.672Z</time></trkpt><trkpt lat="45.1126459" lon="8.0158931"><ele>431.0</ele><time>2026-04-12T12:20:33.672Z</time></trkpt><trkpt lat="45.1126583" lon="8.0157153"><ele>431.0</ele><time>2026-04-12T12:20:34.672Z</time></trkpt><trkpt lat="45.1126745" lon="8.0155548"><ele>431.0</ele><time>2026-04-12T12:20:35.671Z</time></trkpt><trkpt lat="45.1126833" lon="8.015406"><ele>430.4</ele><time>2026-04-12T12:20:36.672Z</time></trkpt><trkpt lat="45.1126922" lon="8.0152681"><ele>429.8</ele><time>2026-04-12T12:20:37.672Z</time></trkpt><trkpt lat="45.1127084" lon="8.0151421"><ele>429.19999999999993</ele><time>2026-04-12T12:20:38.672Z</time></trkpt><trkpt lat="45.1127344" lon="8.0150228"><ele>428.59999999999997</ele><time>2026-04-12T12:20:39.672Z</time></trkpt><trkpt lat="45.1127734" lon="8.01492"><ele>428.0</ele><time>2026-04-12T12:20:40.671Z</time></trkpt><trkpt lat="45.1128218" lon="8.0148045"><ele>428.0</ele><time>2026-04-12T12:20:41.672Z</time></trkpt><trkpt lat="45.1128931" lon="8.0146975"><ele>428.0</ele><time>2026-04-12T12:20:42.672Z</time></trkpt><trkpt lat="45.112961" lon="8.014574"><ele>428.0</ele><time>2026-04-12T12:20:43.672Z</time></trkpt><trkpt lat="45.113033" lon="8.0144415"><ele>428.0</ele><time>2026-04-12T12:20:44.671Z</time></trkpt><trkpt lat="45.1131144" lon="8.0143058"><ele>428.0</ele><time>2026-04-12T12:20:45.672Z</time></trkpt><trkpt lat="45.1131957" lon="8.0141648"><ele>428.0</ele><time>2026-04-12T12:20:46.672Z</time></trkpt><trkpt lat="45.1132749" lon="8.0140152"><ele>428.0</ele><time>2026-04-12T12:20:47.672Z</time></trkpt><trkpt lat="45.1133565" lon="8.0138759"><ele>428.0</ele><time>2026-04-12T12:20:48.672Z</time></trkpt><trkpt lat="45.1134392" lon="8.0137386"><ele>427.25</ele><time>2026-04-12T12:20:49.672Z</time></trkpt><trkpt lat="45.1135198" lon="8.0135997"><ele>426.5</ele><time>2026-04-12T12:20:50.672Z</time></trkpt><trkpt lat="45.113596" lon="8.0134723"><ele>425.75</ele><time>2026-04-12T12:20:51.672Z</time></trkpt><trkpt lat="45.113684" lon="8.0133512"><ele>425.0</ele><time>2026-04-12T12:20:52.672Z</time></trkpt><trkpt lat="45.1137734" lon="8.0132609"><ele>422.0</ele><time>2026-04-12T12:20:53.672Z</time></trkpt><trkpt lat="45.1138812" lon="8.0131812"><ele>419.0</ele><time>2026-04-12T12:20:54.672Z</time></trkpt><trkpt lat="45.1139884" lon="8.0131285"><ele>416.0</ele><time>2026-04-12T12:20:55.672Z</time></trkpt><trkpt lat="45.1140932" lon="8.0130687"><ele>413.0</ele><time>2026-04-12T12:20:56.672Z</time></trkpt><trkpt lat="45.114199" lon="8.0130128"><ele>419.0</ele><time>2026-04-12T12:20:57.672Z</time></trkpt><trkpt lat="45.1142969" lon="8.0129166"><ele>425.0</ele><time>2026-04-12T12:20:58.671Z</time></trkpt><trkpt lat="45.1143916" lon="8.0128217"><ele>431.0</ele><time>2026-04-12T12:20:59.671Z</time></trkpt><trkpt lat="45.1144846" lon="8.0126829"><ele>437.0</ele><time>2026-04-12T12:21:00.672Z</time></trkpt><trkpt lat="45.1145632" lon="8.012515"><ele>434.5</ele><time>2026-04-12T12:21:01.672Z</time></trkpt><trkpt lat="45.114629" lon="8.0123493"><ele>432.0</ele><time>2026-04-12T12:21:02.672Z</time></trkpt><trkpt lat="45.1146782" lon="8.0121419"><ele>429.5</ele><time>2026-04-12T12:21:03.672Z</time></trkpt><trkpt lat="45.1147155" lon="8.0119367"><ele>427.0</ele><time>2026-04-12T12:21:04.672Z</time></trkpt><trkpt lat="45.114741" lon="8.0117013"><ele>427.33333333333337</ele><time>2026-04-12T12:21:05.672Z</time></trkpt><trkpt lat="45.1147578" lon="8.0114745"><ele>427.66666666666663</ele><time>2026-04-12T12:21:06.672Z</time></trkpt><trkpt lat="45.1147765" lon="8.0112555"><ele>428.0</ele><time>2026-04-12T12:21:07.671Z</time></trkpt><trkpt lat="45.1147991" lon="8.0110393"><ele>429.0</ele><time>2026-04-12T12:21:08.672Z</time></trkpt><trkpt lat="45.1148272" lon="8.0108194"><ele>430.0</ele><time>2026-04-12T12:21:09.672Z</time></trkpt><trkpt lat="45.1148446" lon="8.0105901"><ele>431.0</ele><time>2026-04-12T12:21:10.672Z</time></trkpt><trkpt lat="45.114864" lon="8.010386"><ele>431.0</ele><time>2026-04-12T12:21:11.672Z</time></trkpt><trkpt lat="45.1148833" lon="8.0101738"><ele>431.0</ele><time>2026-04-12T12:21:12.672Z</time></trkpt><trkpt lat="45.1149015" lon="8.0099594"><ele>431.0</ele><time>2026-04-12T12:21:13.672Z</time></trkpt><trkpt lat="45.114905" lon="8.0097389"><ele>430.75</ele><time>2026-04-12T12:21:14.672Z</time></trkpt><trkpt lat="45.1149054" lon="8.0095211"><ele>430.5</ele><time>2026-04-12T12:21:15.672Z</time></trkpt><trkpt lat="45.1148946" lon="8.0093138"><ele>430.25</ele><time>2026-04-12T12:21:16.672Z</time></trkpt><trkpt lat="45.1148903" lon="8.0091096"><ele>430.0</ele><time>2026-04-12T12:21:17.672Z</time></trkpt><trkpt lat="45.1148792" lon="8.0088977"><ele>432.25</ele><time>2026-04-12T12:21:18.672Z</time></trkpt><trkpt lat="45.1148746" lon="8.008687"><ele>434.5</ele><time>2026-04-12T12:21:19.672Z</time></trkpt><trkpt lat="45.1148612" lon="8.0084616"><ele>436.75</ele><time>2026-04-12T12:21:20.672Z</time></trkpt><trkpt lat="45.1148526" lon="8.0082647"><ele>439.0</ele><time>2026-04-12T12:21:21.671Z</time></trkpt><trkpt lat="45.1148279" lon="8.0080723"><ele>444.0</ele><time>2026-04-12T12:21:22.672Z</time></trkpt><trkpt lat="45.1147842" lon="8.0079016"><ele>449.0</ele><time>2026-04-12T12:21:23.671Z</time></trkpt><trkpt lat="45.1147103" lon="8.0077454"><ele>454.0</ele><time>2026-04-12T12:21:24.672Z</time></trkpt><trkpt lat="45.1145995" lon="8.0076384"><ele>459.0</ele><time>2026-04-12T12:21:25.672Z</time></trkpt><trkpt lat="45.1144809" lon="8.0075333"><ele>460.5</ele><time>2026-04-12T12:21:26.672Z</time></trkpt><trkpt lat="45.1143541" lon="8.0074308"><ele>462.0</ele><time>2026-04-12T12:21:27.672Z</time></trkpt><trkpt lat="45.1142244" lon="8.007345"><ele>463.5</ele><time>2026-04-12T12:21:28.672Z</time></trkpt><trkpt lat="45.1140863" lon="8.0072634"><ele>465.0</ele><time>2026-04-12T12:21:29.672Z</time></trkpt><trkpt lat="45.1139575" lon="8.0071664"><ele>465.0</ele><time>2026-04-12T12:21:30.672Z</time></trkpt><trkpt lat="45.1138095" lon="8.0070632"><ele>465.0</ele><time>2026-04-12T12:21:31.672Z</time></trkpt><trkpt lat="45.1136756" lon="8.0069644"><ele>465.0</ele><time>2026-04-12T12:21:32.672Z</time></trkpt><trkpt lat="45.1135538" lon="8.0068795"><ele>465.0</ele><time>2026-04-12T12:21:33.672Z</time></trkpt><trkpt lat="45.113445" lon="8.0068046"><ele>465.0</ele><time>2026-04-12T12:21:34.672Z</time></trkpt><trkpt lat="45.1133503" lon="8.006745"><ele>465.0</ele><time>2026-04-12T12:21:35.672Z</time></trkpt><trkpt lat="45.1132512" lon="8.0066767"><ele>465.0</ele><time>2026-04-12T12:21:36.672Z</time></trkpt><trkpt lat="45.1131644" lon="8.0066241"><ele>465.0</ele><time>2026-04-12T12:21:37.672Z</time></trkpt><trkpt lat="45.1130875" lon="8.0065564"><ele>464.1666666666667</ele><time>2026-04-12T12:21:38.672Z</time></trkpt><trkpt lat="45.1130334" lon="8.0064519"><ele>463.33333333333337</ele><time>2026-04-12T12:21:39.671Z</time></trkpt><trkpt lat="45.1130172" lon="8.0063402"><ele>462.5</ele><time>2026-04-12T12:21:40.672Z</time></trkpt><trkpt lat="45.1130434" lon="8.0062367"><ele>461.6666666666667</ele><time>2026-04-12T12:21:41.671Z</time></trkpt><trkpt lat="45.1130983" lon="8.0061477"><ele>460.83333333333337</ele><time>2026-04-12T12:21:42.672Z</time></trkpt><trkpt lat="45.1131834" lon="8.0060911"><ele>460.0</ele><time>2026-04-12T12:21:43.672Z</time></trkpt><trkpt lat="45.1132888" lon="8.0060367"><ele>459.25</ele><time>2026-04-12T12:21:44.672Z</time></trkpt><trkpt lat="45.1133997" lon="8.0059808"><ele>458.5</ele><time>2026-04-12T12:21:45.672Z</time></trkpt><trkpt lat="45.1135052" lon="8.0059339"><ele>457.75</ele><time>2026-04-12T12:21:46.672Z</time></trkpt><trkpt lat="45.1136143" lon="8.0058985"><ele>457.0</ele><time>2026-04-12T12:21:47.672Z</time></trkpt><trkpt lat="45.1137236" lon="8.0058955"><ele>457.0</ele><time>2026-04-12T12:21:48.672Z</time></trkpt><trkpt lat="45.113842" lon="8.0059167"><ele>457.00000000000006</ele><time>2026-04-12T12:21:49.671Z</time></trkpt><trkpt lat="45.1139537" lon="8.0059349"><ele>457.00000000000006</ele><time>2026-04-12T12:21:50.672Z</time></trkpt><trkpt lat="45.1140587" lon="8.0059443"><ele>457.0</ele><time>2026-04-12T12:21:51.672Z</time></trkpt><trkpt lat="45.114157" lon="8.0059351"><ele>457.0</ele><time>2026-04-12T12:21:52.672Z</time></trkpt><trkpt lat="45.1142528" lon="8.0058822"><ele>451.0</ele><time>2026-04-12T12:21:53.672Z</time></trkpt><trkpt lat="45.1143505" lon="8.0057872"><ele>445.0</ele><time>2026-04-12T12:21:54.672Z</time></trkpt><trkpt lat="45.1144463" lon="8.0056696"><ele>439.0</ele><time>2026-04-12T12:21:55.672Z</time></trkpt><trkpt lat="45.114559" lon="8.0055368"><ele>433.0</ele><time>2026-04-12T12:21:56.671Z</time></trkpt><trkpt lat="45.1146547" lon="8.0054045"><ele>433.0</ele><time>2026-04-12T12:21:57.671Z</time></trkpt><trkpt lat="45.114734" lon="8.0052432"><ele>433.0</ele><time>2026-04-12T12:21:58.672Z</time></trkpt><trkpt lat="45.1148035" lon="8.0050825"><ele>433.0</ele><time>2026-04-12T12:21:59.671Z</time></trkpt><trkpt lat="45.1148685" lon="8.0049299"><ele>433.0</ele><time>2026-04-12T12:22:00.672Z</time></trkpt><trkpt lat="45.1149369" lon="8.0047928"><ele>433.5</ele><time>2026-04-12T12:22:01.672Z</time></trkpt><trkpt lat="45.1150367" lon="8.0046842"><ele>434.0</ele><time>2026-04-12T12:22:02.672Z</time></trkpt><trkpt lat="45.1151454" lon="8.0045798"><ele>434.5</ele><time>2026-04-12T12:22:03.672Z</time></trkpt><trkpt lat="45.1152529" lon="8.0044673"><ele>435.0</ele><time>2026-04-12T12:22:04.672Z</time></trkpt><trkpt lat="45.1153556" lon="8.0043418"><ele>435.0</ele><time>2026-04-12T12:22:05.672Z</time></trkpt><trkpt lat="45.1154465" lon="8.0042238"><ele>435.0</ele><time>2026-04-12T12:22:06.672Z</time></trkpt><trkpt lat="45.1155366" lon="8.0041276"><ele>435.0</ele><time>2026-04-12T12:22:07.672Z</time></trkpt><trkpt lat="45.1156224" lon="8.0040534"><ele>435.0</ele><time>2026-04-12T12:22:08.671Z</time></trkpt><trkpt lat="45.1157106" lon="8.0040055"><ele>435.0</ele><time>2026-04-12T12:22:09.672Z</time></trkpt><trkpt lat="45.1158187" lon="8.00397"><ele>432.6</ele><time>2026-04-12T12:22:10.672Z</time></trkpt><trkpt lat="45.1159298" lon="8.0039585"><ele>430.2</ele><time>2026-04-12T12:22:11.672Z</time></trkpt><trkpt lat="45.1160475" lon="8.0039682"><ele>427.79999999999995</ele><time>2026-04-12T12:22:12.672Z</time></trkpt><trkpt lat="45.1161536" lon="8.0039607"><ele>425.4</ele><time>2026-04-12T12:22:13.671Z</time></trkpt><trkpt lat="45.1162405" lon="8.0038963"><ele>423.0</ele><time>2026-04-12T12:22:14.672Z</time></trkpt><trkpt lat="45.1163268" lon="8.0038241"><ele>423.0</ele><time>2026-04-12T12:22:15.672Z</time></trkpt><trkpt lat="45.1164171" lon="8.0037393"><ele>423.0</ele><time>2026-04-12T12:22:16.671Z</time></trkpt><trkpt lat="45.116493" lon="8.0036536"><ele>423.0</ele><time>2026-04-12T12:22:17.672Z</time></trkpt><trkpt lat="45.1165638" lon="8.003563"><ele>423.0</ele><time>2026-04-12T12:22:18.672Z</time></trkpt><trkpt lat="45.1166327" lon="8.0034623"><ele>423.0</ele><time>2026-04-12T12:22:19.671Z</time></trkpt><trkpt lat="45.1166988" lon="8.0033646"><ele>425.4</ele><time>2026-04-12T12:22:20.672Z</time></trkpt><trkpt lat="45.1167587" lon="8.0032625"><ele>427.79999999999995</ele><time>2026-04-12T12:22:21.671Z</time></trkpt><trkpt lat="45.1168188" lon="8.0031566"><ele>430.2</ele><time>2026-04-12T12:22:22.672Z</time></trkpt><trkpt lat="45.1168786" lon="8.0030482"><ele>432.6</ele><time>2026-04-12T12:22:23.672Z</time></trkpt><trkpt lat="45.1169208" lon="8.0029317"><ele>435.0</ele><time>2026-04-12T12:22:24.672Z</time></trkpt><trkpt lat="45.1169576" lon="8.0028195"><ele>435.0</ele><time>2026-04-12T12:22:25.671Z</time></trkpt><trkpt lat="45.1170012" lon="8.0027052"><ele>435.0</ele><time>2026-04-12T12:22:26.672Z</time></trkpt><trkpt lat="45.1170831" lon="8.0026589"><ele>435.0</ele><time>2026-04-12T12:22:27.672Z</time></trkpt><trkpt lat="45.1171708" lon="8.0025944"><ele>435.0</ele><time>2026-04-12T12:22:28.671Z</time></trkpt><trkpt lat="45.1172691" lon="8.0025207"><ele>435.0</ele><time>2026-04-12T12:22:29.672Z</time></trkpt><trkpt lat="45.117378" lon="8.0024468"><ele>438.5</ele><time>2026-04-12T12:22:30.672Z</time></trkpt><trkpt lat="45.1174905" lon="8.0023695"><ele>442.0</ele><time>2026-04-12T12:22:31.672Z</time></trkpt><trkpt lat="45.1176069" lon="8.0023182"><ele>445.5</ele><time>2026-04-12T12:22:32.672Z</time></trkpt><trkpt lat="45.1177302" lon="8.0022706"><ele>449.0</ele><time>2026-04-12T12:22:33.672Z</time></trkpt><trkpt lat="45.117857" lon="8.0022635"><ele>449.0</ele><time>2026-04-12T12:22:34.672Z</time></trkpt><trkpt lat="45.1179829" lon="8.0022642"><ele>449.0</ele><time>2026-04-12T12:22:35.672Z</time></trkpt><trkpt lat="45.1181154" lon="8.002286"><ele>449.0</ele><time>2026-04-12T12:22:36.671Z</time></trkpt><trkpt lat="45.1182395" lon="8.0022989"><ele>449.0</ele><time>2026-04-12T12:22:37.672Z</time></trkpt><trkpt lat="45.1183611" lon="8.0022857"><ele>446.2</ele><time>2026-04-12T12:22:38.671Z</time></trkpt><trkpt lat="45.1184782" lon="8.0022531"><ele>443.4</ele><time>2026-04-12T12:22:39.672Z</time></trkpt><trkpt lat="45.1185799" lon="8.0022291"><ele>440.6</ele><time>2026-04-12T12:22:40.672Z</time></trkpt><trkpt lat="45.1186831" lon="8.0021813"><ele>437.8</ele><time>2026-04-12T12:22:41.672Z</time></trkpt><trkpt lat="45.1187938" lon="8.0021278"><ele>435.0</ele><time>2026-04-12T12:22:42.672Z</time></trkpt><trkpt lat="45.1189128" lon="8.002083"><ele>435.0</ele><time>2026-04-12T12:22:43.671Z</time></trkpt><trkpt lat="45.1190301" lon="8.002031"><ele>435.0</ele><time>2026-04-12T12:22:44.672Z</time></trkpt><trkpt lat="45.1191402" lon="8.0020555"><ele>435.0</ele><time>2026-04-12T12:22:45.672Z</time></trkpt><trkpt lat="45.1192554" lon="8.0020712"><ele>435.0</ele><time>2026-04-12T12:22:46.671Z</time></trkpt><trkpt lat="45.1193796" lon="8.0020387"><ele>433.25</ele><time>2026-04-12T12:22:47.672Z</time></trkpt><trkpt lat="45.1194972" lon="8.0019565"><ele>431.5</ele><time>2026-04-12T12:22:48.672Z</time></trkpt><trkpt lat="45.1196207" lon="8.0018574"><ele>429.75</ele><time>2026-04-12T12:22:49.672Z</time></trkpt><trkpt lat="45.1197348" lon="8.0017614"><ele>428.0</ele><time>2026-04-12T12:22:50.672Z</time></trkpt><trkpt lat="45.1198573" lon="8.0016585"><ele>426.0</ele><time>2026-04-12T12:22:51.672Z</time></trkpt><trkpt lat="45.1199847" lon="8.0015571"><ele>424.0</ele><time>2026-04-12T12:22:52.672Z</time></trkpt><trkpt lat="45.1201181" lon="8.0014464"><ele>422.0</ele><time>2026-04-12T12:22:53.672Z</time></trkpt><trkpt lat="45.1202483" lon="8.0013321"><ele>422.0</ele><time>2026-04-12T12:22:54.672Z</time></trkpt><trkpt lat="45.1203884" lon="8.001219"><ele>422.0</ele><time>2026-04-12T12:22:55.672Z</time></trkpt><trkpt lat="45.1205242" lon="8.0011093"><ele>422.0</ele><time>2026-04-12T12:22:56.672Z</time></trkpt><trkpt lat="45.1206532" lon="8.0010011"><ele>422.25</ele><time>2026-04-12T12:22:57.672Z</time></trkpt><trkpt lat="45.1207935" lon="8.0009176"><ele>422.5</ele><time>2026-04-12T12:22:58.672Z</time></trkpt><trkpt lat="45.1209188" lon="8.0008573"><ele>422.75</ele><time>2026-04-12T12:22:59.672Z</time></trkpt><trkpt lat="45.121048" lon="8.000808"><ele>423.0</ele><time>2026-04-12T12:23:00.672Z</time></trkpt><trkpt lat="45.1211643" lon="8.0007235"><ele>421.5</ele><time>2026-04-12T12:23:01.672Z</time></trkpt><trkpt lat="45.1212634" lon="8.0005966"><ele>420.0</ele><time>2026-04-12T12:23:02.672Z</time></trkpt><trkpt lat="45.121351" lon="8.0004752"><ele>418.5</ele><time>2026-04-12T12:23:03.672Z</time></trkpt><trkpt lat="45.1214321" lon="8.0003432"><ele>417.0</ele><time>2026-04-12T12:23:04.672Z</time></trkpt><trkpt lat="45.1214948" lon="8.0001965"><ele>417.0</ele><time>2026-04-12T12:23:05.671Z</time></trkpt><trkpt lat="45.1215383" lon="8.0000428"><ele>417.0</ele><time>2026-04-12T12:23:06.672Z</time></trkpt><trkpt lat="45.1215397" lon="7.9998589"><ele>417.0</ele><time>2026-04-12T12:23:07.672Z</time></trkpt><trkpt lat="45.1215414" lon="7.9996845"><ele>417.0</ele><time>2026-04-12T12:23:08.672Z</time></trkpt><trkpt lat="45.121551" lon="7.9995149"><ele>420.0</ele><time>2026-04-12T12:23:09.672Z</time></trkpt><trkpt lat="45.1215872" lon="7.9993462"><ele>423.0</ele><time>2026-04-12T12:23:10.672Z</time></trkpt><trkpt lat="45.1216518" lon="7.9992056"><ele>426.0</ele><time>2026-04-12T12:23:11.672Z</time></trkpt><trkpt lat="45.1217267" lon="7.9990674"><ele>429.0</ele><time>2026-04-12T12:23:12.672Z</time></trkpt><trkpt lat="45.1218154" lon="7.998935"><ele>429.0</ele><time>2026-04-12T12:23:13.672Z</time></trkpt><trkpt lat="45.1218988" lon="7.9987978"><ele>429.0</ele><time>2026-04-12T12:23:14.672Z</time></trkpt><trkpt lat="45.1219899" lon="7.9986643"><ele>429.0</ele><time>2026-04-12T12:23:15.672Z</time></trkpt><trkpt lat="45.1220821" lon="7.9985382"><ele>429.0</ele><time>2026-04-12T12:23:16.672Z</time></trkpt><trkpt lat="45.1221809" lon="7.9984254"><ele>427.0</ele><time>2026-04-12T12:23:17.672Z</time></trkpt><trkpt lat="45.1222844" lon="7.9983167"><ele>425.0</ele><time>2026-04-12T12:23:18.672Z</time></trkpt><trkpt lat="45.1224033" lon="7.998224"><ele>423.0</ele><time>2026-04-12T12:23:19.671Z</time></trkpt><trkpt lat="45.122518" lon="7.9981297"><ele>421.0</ele><time>2026-04-12T12:23:20.672Z</time></trkpt><trkpt lat="45.1226292" lon="7.9980426"><ele>424.6</ele><time>2026-04-12T12:23:21.672Z</time></trkpt><trkpt lat="45.1227298" lon="7.9979574"><ele>428.20000000000005</ele><time>2026-04-12T12:23:22.672Z</time></trkpt><trkpt lat="45.1228151" lon="7.9978987"><ele>431.79999999999995</ele><time>2026-04-12T12:23:23.672Z</time></trkpt><trkpt lat="45.1228953" lon="7.9978362"><ele>435.4</ele><time>2026-04-12T12:23:24.672Z</time></trkpt><trkpt lat="45.1229686" lon="7.9977644"><ele>439.0</ele><time>2026-04-12T12:23:25.672Z</time></trkpt><trkpt lat="45.1230225" lon="7.9976555"><ele>439.0</ele><time>2026-04-12T12:23:26.672Z</time></trkpt><trkpt lat="45.1230606" lon="7.9975358"><ele>439.0</ele><time>2026-04-12T12:23:27.672Z</time></trkpt><trkpt lat="45.1230836" lon="7.9973926"><ele>439.0</ele><time>2026-04-12T12:23:28.672Z</time></trkpt><trkpt lat="45.1230984" lon="7.9972385"><ele>439.0</ele><time>2026-04-12T12:23:29.672Z</time></trkpt><trkpt lat="45.1231145" lon="7.9970833"><ele>439.0</ele><time>2026-04-12T12:23:30.672Z</time></trkpt><trkpt lat="45.1231339" lon="7.9969219"><ele>437.75</ele><time>2026-04-12T12:23:31.672Z</time></trkpt><trkpt lat="45.1231619" lon="7.9967443"><ele>436.5</ele><time>2026-04-12T12:23:32.672Z</time></trkpt><trkpt lat="45.1232079" lon="7.9965598"><ele>435.25</ele><time>2026-04-12T12:23:33.671Z</time></trkpt><trkpt lat="45.1232478" lon="7.9963755"><ele>434.0</ele><time>2026-04-12T12:23:34.672Z</time></trkpt><trkpt lat="45.1232887" lon="7.9961936"><ele>441.0</ele><time>2026-04-12T12:23:35.672Z</time></trkpt><trkpt lat="45.1233218" lon="7.9960291"><ele>448.0</ele><time>2026-04-12T12:23:36.672Z</time></trkpt><trkpt lat="45.1233486" lon="7.9958564"><ele>455.0</ele><time>2026-04-12T12:23:37.672Z</time></trkpt><trkpt lat="45.1233631" lon="7.9957105"><ele>462.0</ele><time>2026-04-12T12:23:38.672Z</time></trkpt><trkpt lat="45.1233451" lon="7.9955588"><ele>462.0</ele><time>2026-04-12T12:23:39.672Z</time></trkpt><trkpt lat="45.1232955" lon="7.9954164"><ele>462.00000000000006</ele><time>2026-04-12T12:23:40.672Z</time></trkpt><trkpt lat="45.1232161" lon="7.995306"><ele>462.00000000000006</ele><time>2026-04-12T12:23:41.672Z</time></trkpt><trkpt lat="45.1231247" lon="7.9952377"><ele>462.0</ele><time>2026-04-12T12:23:42.672Z</time></trkpt><trkpt lat="45.1230121" lon="7.9951915"><ele>462.0</ele><time>2026-04-12T12:23:43.672Z</time></trkpt><trkpt lat="45.1228947" lon="7.9951639"><ele>458.25</ele><time>2026-04-12T12:23:44.672Z</time></trkpt><trkpt lat="45.1227751" lon="7.9951423"><ele>454.5</ele><time>2026-04-12T12:23:45.672Z</time></trkpt><trkpt lat="45.1226631" lon="7.9951113"><ele>450.75</ele><time>2026-04-12T12:23:46.672Z</time></trkpt><trkpt lat="45.1225366" lon="7.9950957"><ele>447.0</ele><time>2026-04-12T12:23:47.672Z</time></trkpt><trkpt lat="45.1224109" lon="7.9950693"><ele>446.75</ele><time>2026-04-12T12:23:48.672Z</time></trkpt><trkpt lat="45.1223031" lon="7.9950328"><ele>446.5</ele><time>2026-04-12T12:23:49.672Z</time></trkpt><trkpt lat="45.1222023" lon="7.9949659"><ele>446.25</ele><time>2026-04-12T12:23:50.671Z</time></trkpt><trkpt lat="45.1220973" lon="7.9948869"><ele>446.0</ele><time>2026-04-12T12:23:51.672Z</time></trkpt><trkpt lat="45.1219958" lon="7.9948045"><ele>449.5</ele><time>2026-04-12T12:23:52.672Z</time></trkpt><trkpt lat="45.121878" lon="7.9947283"><ele>453.0</ele><time>2026-04-12T12:23:53.672Z</time></trkpt><trkpt lat="45.1217696" lon="7.9946348"><ele>456.5</ele><time>2026-04-12T12:23:54.672Z</time></trkpt><trkpt lat="45.121667" lon="7.9945152"><ele>460.0</ele><time>2026-04-12T12:23:55.672Z</time></trkpt><trkpt lat="45.1215681" lon="7.9943847"><ele>462.25</ele><time>2026-04-12T12:23:56.672Z</time></trkpt><trkpt lat="45.121469" lon="7.9942569"><ele>464.5</ele><time>2026-04-12T12:23:57.672Z</time></trkpt><trkpt lat="45.1213743" lon="7.994136"><ele>466.75</ele><time>2026-04-12T12:23:58.672Z</time></trkpt><trkpt lat="45.1212724" lon="7.9940266"><ele>469.0</ele><time>2026-04-12T12:23:59.672Z</time></trkpt><trkpt lat="45.1211643" lon="7.9939253"><ele>471.0</ele><time>2026-04-12T12:24:00.672Z</time></trkpt><trkpt lat="45.1210529" lon="7.9938213"><ele>473.0</ele><time>2026-04-12T12:24:01.672Z</time></trkpt><trkpt lat="45.1209681" lon="7.9937204"><ele>475.0</ele><time>2026-04-12T12:24:02.672Z</time></trkpt><trkpt lat="45.1209013" lon="7.9935999"><ele>477.0</ele><time>2026-04-12T12:24:03.672Z</time></trkpt><trkpt lat="45.1208343" lon="7.9934515"><ele>474.75</ele><time>2026-04-12T12:24:04.672Z</time></trkpt><trkpt lat="45.120773" lon="7.9932938"><ele>472.5</ele><time>2026-04-12T12:24:05.672Z</time></trkpt><trkpt lat="45.1207468" lon="7.9931146"><ele>470.25</ele><time>2026-04-12T12:24:06.672Z</time></trkpt><trkpt lat="45.1207091" lon="7.9929426"><ele>468.0</ele><time>2026-04-12T12:24:07.671Z</time></trkpt><trkpt lat="45.1206605" lon="7.9928026"><ele>463.75</ele><time>2026-04-12T12:24:08.672Z</time></trkpt><trkpt lat="45.1206206" lon="7.9926487"><ele>459.5</ele><time>2026-04-12T12:24:09.671Z</time></trkpt><trkpt lat="45.1205864" lon="7.9924811"><ele>455.25</ele><time>2026-04-12T12:24:10.672Z</time></trkpt><trkpt lat="45.1205552" lon="7.9922933"><ele>451.0</ele><time>2026-04-12T12:24:11.672Z</time></trkpt><trkpt lat="45.1205278" lon="7.9921166"><ele>451.0</ele><time>2026-04-12T12:24:12.672Z</time></trkpt><trkpt lat="45.1205117" lon="7.9919611"><ele>451.0</ele><time>2026-04-12T12:24:13.672Z</time></trkpt><trkpt lat="45.1205016" lon="7.9918059"><ele>451.0</ele><time>2026-04-12T12:24:14.672Z</time></trkpt><trkpt lat="45.1205035" lon="7.9916371"><ele>451.0</ele><time>2026-04-12T12:24:15.672Z</time></trkpt><trkpt lat="45.120521" lon="7.9914768"><ele>453.8</ele><time>2026-04-12T12:24:16.672Z</time></trkpt><trkpt lat="45.1205546" lon="7.9913212"><ele>456.6</ele><time>2026-04-12T12:24:17.672Z</time></trkpt><trkpt lat="45.1205862" lon="7.9911844"><ele>459.4</ele><time>2026-04-12T12:24:18.672Z</time></trkpt><trkpt lat="45.1206303" lon="7.99105"><ele>462.2</ele><time>2026-04-12T12:24:19.672Z</time></trkpt><trkpt lat="45.1206536" lon="7.9908997"><ele>465.0</ele><time>2026-04-12T12:24:20.672Z</time></trkpt><trkpt lat="45.1206848" lon="7.9907766"><ele>466.6666666666667</ele><time>2026-04-12T12:24:21.672Z</time></trkpt><trkpt lat="45.1207119" lon="7.9906433"><ele>468.33333333333337</ele><time>2026-04-12T12:24:22.672Z</time></trkpt><trkpt lat="45.1207391" lon="7.9905325"><ele>470.0</ele><time>2026-04-12T12:24:23.672Z</time></trkpt><trkpt lat="45.1207762" lon="7.9904403"><ele>471.6666666666667</ele><time>2026-04-12T12:24:24.672Z</time></trkpt><trkpt lat="45.1207937" lon="7.9903493"><ele>473.33333333333337</ele><time>2026-04-12T12:24:25.672Z</time></trkpt><trkpt lat="45.1207738" lon="7.9902261"><ele>475.0</ele><time>2026-04-12T12:24:27.672Z</time></trkpt><trkpt lat="45.1206407" lon="7.9901657"><ele>475.00000000000006</ele><time>2026-04-12T12:24:29.672Z</time></trkpt><trkpt lat="45.1205385" lon="7.9901431"><ele>475.0</ele><time>2026-04-12T12:24:30.672Z</time></trkpt><trkpt lat="45.1204621" lon="7.9901185"><ele>475.0</ele><time>2026-04-12T12:24:31.672Z</time></trkpt><trkpt lat="45.1203789" lon="7.9900963"><ele>475.0</ele><time>2026-04-12T12:24:32.672Z</time></trkpt><trkpt lat="45.1203089" lon="7.990048"><ele>475.00000000000006</ele><time>2026-04-12T12:24:33.672Z</time></trkpt><trkpt lat="45.1202475" lon="7.9899573"><ele>475.0</ele><time>2026-04-12T12:24:34.672Z</time></trkpt><trkpt lat="45.120177" lon="7.9898518"><ele>472.8</ele><time>2026-04-12T12:24:35.672Z</time></trkpt><trkpt lat="45.1201124" lon="7.9897509"><ele>470.6</ele><time>2026-04-12T12:24:36.672Z</time></trkpt><trkpt lat="45.1200353" lon="7.9896489"><ele>468.4</ele><time>2026-04-12T12:24:37.672Z</time></trkpt><trkpt lat="45.119967" lon="7.9895439"><ele>466.2</ele><time>2026-04-12T12:24:38.672Z</time></trkpt><trkpt lat="45.119893" lon="7.9894354"><ele>464.0</ele><time>2026-04-12T12:24:39.671Z</time></trkpt><trkpt lat="45.1198362" lon="7.9893218"><ele>465.4</ele><time>2026-04-12T12:24:40.672Z</time></trkpt><trkpt lat="45.1197743" lon="7.9892023"><ele>466.79999999999995</ele><time>2026-04-12T12:24:41.672Z</time></trkpt><trkpt lat="45.1197219" lon="7.9890705"><ele>468.20000000000005</ele><time>2026-04-12T12:24:42.672Z</time></trkpt><trkpt lat="45.1196655" lon="7.9889671"><ele>469.6</ele><time>2026-04-12T12:24:43.672Z</time></trkpt><trkpt lat="45.1195978" lon="7.9888718"><ele>471.0</ele><time>2026-04-12T12:24:44.672Z</time></trkpt><trkpt lat="45.1195063" lon="7.9887727"><ele>471.0</ele><time>2026-04-12T12:24:45.672Z</time></trkpt><trkpt lat="45.1194286" lon="7.9886903"><ele>471.0</ele><time>2026-04-12T12:24:46.672Z</time></trkpt><trkpt lat="45.1193564" lon="7.9885668"><ele>471.0</ele><time>2026-04-12T12:24:47.672Z</time></trkpt><trkpt lat="45.1192958" lon="7.988425"><ele>471.0</ele><time>2026-04-12T12:24:48.672Z</time></trkpt><trkpt lat="45.1192614" lon="7.9882602"><ele>471.0</ele><time>2026-04-12T12:24:49.672Z</time></trkpt><trkpt lat="45.1192147" lon="7.9881082"><ele>467.20000000000005</ele><time>2026-04-12T12:24:50.672Z</time></trkpt><trkpt lat="45.1192188" lon="7.9879051"><ele>463.40000000000003</ele><time>2026-04-12T12:24:51.672Z</time></trkpt><trkpt lat="45.1192044" lon="7.9877763"><ele>459.6</ele><time>2026-04-12T12:24:52.672Z</time></trkpt><trkpt lat="45.1192012" lon="7.9876811"><ele>455.8</ele><time>2026-04-12T12:24:53.672Z</time></trkpt><trkpt lat="45.1191925" lon="7.9875865"><ele>452.0</ele><time>2026-04-12T12:24:54.671Z</time></trkpt><trkpt lat="45.1192277" lon="7.9874663"><ele>450.99999999999994</ele><time>2026-04-12T12:24:56.672Z</time></trkpt><trkpt lat="45.1193208" lon="7.9873807"><ele>450.0</ele><time>2026-04-12T12:24:58.672Z</time></trkpt><trkpt lat="45.1193802" lon="7.987318"><ele>449.0</ele><time>2026-04-12T12:24:59.672Z</time></trkpt><trkpt lat="45.1194114" lon="7.987238"><ele>448.0</ele><time>2026-04-12T12:25:00.672Z</time></trkpt><trkpt lat="45.1194461" lon="7.9871186"><ele>446.99999999999994</ele><time>2026-04-12T12:25:01.672Z</time></trkpt><trkpt lat="45.1194785" lon="7.9870001"><ele>446.0</ele><time>2026-04-12T12:25:02.672Z</time></trkpt><trkpt lat="45.1194404" lon="7.986776"><ele>445.20000000000005</ele><time>2026-04-12T12:25:04.672Z</time></trkpt><trkpt lat="45.119397" lon="7.9866451"><ele>444.40000000000003</ele><time>2026-04-12T12:25:05.672Z</time></trkpt><trkpt lat="45.1193527" lon="7.9865244"><ele>443.6</ele><time>2026-04-12T12:25:06.672Z</time></trkpt><trkpt lat="45.119313" lon="7.9863972"><ele>442.8</ele><time>2026-04-12T12:25:07.672Z</time></trkpt><trkpt lat="45.1192569" lon="7.9862522"><ele>442.0</ele><time>2026-04-12T12:25:08.672Z</time></trkpt><trkpt lat="45.1192081" lon="7.9861266"><ele>442.0</ele><time>2026-04-12T12:25:09.672Z</time></trkpt><trkpt lat="45.1191524" lon="7.9860103"><ele>442.00000000000006</ele><time>2026-04-12T12:25:10.672Z</time></trkpt><trkpt lat="45.1191105" lon="7.9858857"><ele>442.00000000000006</ele><time>2026-04-12T12:25:11.672Z</time></trkpt><trkpt lat="45.1190473" lon="7.9857345"><ele>442.0</ele><time>2026-04-12T12:25:12.672Z</time></trkpt><trkpt lat="45.1190169" lon="7.985593"><ele>442.0</ele><time>2026-04-12T12:25:13.671Z</time></trkpt><trkpt lat="45.1190123" lon="7.9854397"><ele>439.0</ele><time>2026-04-12T12:25:14.672Z</time></trkpt><trkpt lat="45.1190802" lon="7.9852682"><ele>436.0</ele><time>2026-04-12T12:25:15.672Z</time></trkpt><trkpt lat="45.1191288" lon="7.9851212"><ele>433.0</ele><time>2026-04-12T12:25:16.672Z</time></trkpt><trkpt lat="45.1191808" lon="7.9849934"><ele>430.0</ele><time>2026-04-12T12:25:17.672Z</time></trkpt><trkpt lat="45.1192376" lon="7.9848716"><ele>429.6666666666667</ele><time>2026-04-12T12:25:18.672Z</time></trkpt><trkpt lat="45.1193149" lon="7.9847619"><ele>429.33333333333337</ele><time>2026-04-12T12:25:19.672Z</time></trkpt><trkpt lat="45.1193799" lon="7.9846516"><ele>429.0</ele><time>2026-04-12T12:25:20.671Z</time></trkpt><trkpt lat="45.1194157" lon="7.9845418"><ele>428.66666666666663</ele><time>2026-04-12T12:25:21.672Z</time></trkpt><trkpt lat="45.1194617" lon="7.9844717"><ele>428.3333333333333</ele><time>2026-04-12T12:25:22.671Z</time></trkpt><trkpt lat="45.1195002" lon="7.9843723"><ele>428.0</ele><time>2026-04-12T12:25:23.672Z</time></trkpt><trkpt lat="45.1195643" lon="7.9842688"><ele>424.25</ele><time>2026-04-12T12:25:24.672Z</time></trkpt><trkpt lat="45.1196283" lon="7.9841564"><ele>420.5</ele><time>2026-04-12T12:25:25.672Z</time></trkpt><trkpt lat="45.1196732" lon="7.984002"><ele>416.75</ele><time>2026-04-12T12:25:26.672Z</time></trkpt><trkpt lat="45.1197322" lon="7.9838511"><ele>413.0</ele><time>2026-04-12T12:25:27.672Z</time></trkpt><trkpt lat="45.1197931" lon="7.9836867"><ele>413.0</ele><time>2026-04-12T12:25:28.671Z</time></trkpt><trkpt lat="45.1198525" lon="7.9835358"><ele>413.0</ele><time>2026-04-12T12:25:29.672Z</time></trkpt><trkpt lat="45.1199149" lon="7.9833868"><ele>413.0</ele><time>2026-04-12T12:25:30.671Z</time></trkpt><trkpt lat="45.1199865" lon="7.9832327"><ele>413.0</ele><time>2026-04-12T12:25:31.672Z</time></trkpt><trkpt lat="45.1200785" lon="7.983094"><ele>411.0</ele><time>2026-04-12T12:25:32.671Z</time></trkpt><trkpt lat="45.1201726" lon="7.9829759"><ele>409.0</ele><time>2026-04-12T12:25:33.671Z</time></trkpt><trkpt lat="45.1202815" lon="7.9828787"><ele>407.0</ele><time>2026-04-12T12:25:34.672Z</time></trkpt><trkpt lat="45.1203875" lon="7.982793"><ele>405.0</ele><time>2026-04-12T12:25:35.672Z</time></trkpt><trkpt lat="45.1204937" lon="7.9827398"><ele>405.0</ele><time>2026-04-12T12:25:36.672Z</time></trkpt><trkpt lat="45.1206044" lon="7.9826932"><ele>405.0</ele><time>2026-04-12T12:25:37.672Z</time></trkpt><trkpt lat="45.1207306" lon="7.9826792"><ele>405.0</ele><time>2026-04-12T12:25:38.672Z</time></trkpt><trkpt lat="45.1208501" lon="7.9826865"><ele>405.0</ele><time>2026-04-12T12:25:39.672Z</time></trkpt><trkpt lat="45.1209698" lon="7.9827189"><ele>402.5</ele><time>2026-04-12T12:25:40.672Z</time></trkpt><trkpt lat="45.1210951" lon="7.9827424"><ele>400.0</ele><time>2026-04-12T12:25:41.672Z</time></trkpt><trkpt lat="45.1212426" lon="7.982799"><ele>397.5</ele><time>2026-04-12T12:25:42.672Z</time></trkpt><trkpt lat="45.1213702" lon="7.982771"><ele>395.0</ele><time>2026-04-12T12:25:43.672Z</time></trkpt><trkpt lat="45.1215" lon="7.9827265"><ele>392.0</ele><time>2026-04-12T12:25:44.671Z</time></trkpt><trkpt lat="45.1216272" lon="7.9826375"><ele>389.0</ele><time>2026-04-12T12:25:45.672Z</time></trkpt><trkpt lat="45.1217375" lon="7.9825362"><ele>386.0</ele><time>2026-04-12T12:25:46.672Z</time></trkpt><trkpt lat="45.1218443" lon="7.9824268"><ele>383.0</ele><time>2026-04-12T12:25:47.672Z</time></trkpt><trkpt lat="45.1219348" lon="7.9822972"><ele>383.0</ele><time>2026-04-12T12:25:48.672Z</time></trkpt><trkpt lat="45.1220099" lon="7.9821344"><ele>383.0</ele><time>2026-04-12T12:25:49.671Z</time></trkpt><trkpt lat="45.122068" lon="7.9819867"><ele>383.0</ele><time>2026-04-12T12:25:50.672Z</time></trkpt><trkpt lat="45.1221098" lon="7.9818477"><ele>383.0</ele><time>2026-04-12T12:25:51.672Z</time></trkpt><trkpt lat="45.1221425" lon="7.9817053"><ele>382.59999999999997</ele><time>2026-04-12T12:25:52.672Z</time></trkpt><trkpt lat="45.1221797" lon="7.9815872"><ele>382.2</ele><time>2026-04-12T12:25:53.672Z</time></trkpt><trkpt lat="45.1222232" lon="7.9814737"><ele>381.8</ele><time>2026-04-12T12:25:54.672Z</time></trkpt><trkpt lat="45.1222906" lon="7.9813899"><ele>381.4</ele><time>2026-04-12T12:25:55.672Z</time></trkpt><trkpt lat="45.122367" lon="7.9812889"><ele>381.0</ele><time>2026-04-12T12:25:56.672Z</time></trkpt><trkpt lat="45.1224556" lon="7.9812067"><ele>382.0</ele><time>2026-04-12T12:25:57.671Z</time></trkpt><trkpt lat="45.1225519" lon="7.9811153"><ele>383.0</ele><time>2026-04-12T12:25:58.672Z</time></trkpt><trkpt lat="45.1226553" lon="7.9810294"><ele>384.0</ele><time>2026-04-12T12:25:59.671Z</time></trkpt><trkpt lat="45.1227519" lon="7.9809508"><ele>385.0</ele><time>2026-04-12T12:26:00.672Z</time></trkpt><trkpt lat="45.1228556" lon="7.9808428"><ele>385.0</ele><time>2026-04-12T12:26:01.672Z</time></trkpt><trkpt lat="45.1229688" lon="7.9807525"><ele>385.0</ele><time>2026-04-12T12:26:02.672Z</time></trkpt><trkpt lat="45.1230957" lon="7.9806702"><ele>385.0</ele><time>2026-04-12T12:26:03.672Z</time></trkpt><trkpt lat="45.1232274" lon="7.980605"><ele>385.0</ele><time>2026-04-12T12:26:04.672Z</time></trkpt><trkpt lat="45.1233518" lon="7.9805547"><ele>388.5</ele><time>2026-04-12T12:26:05.672Z</time></trkpt><trkpt lat="45.1234804" lon="7.9805022"><ele>392.0</ele><time>2026-04-12T12:26:06.672Z</time></trkpt><trkpt lat="45.1236099" lon="7.9804343"><ele>395.5</ele><time>2026-04-12T12:26:07.672Z</time></trkpt><trkpt lat="45.123743" lon="7.9803608"><ele>399.0</ele><time>2026-04-12T12:26:08.672Z</time></trkpt><trkpt lat="45.1238647" lon="7.9802867"><ele>399.0</ele><time>2026-04-12T12:26:09.672Z</time></trkpt><trkpt lat="45.123995" lon="7.9801846"><ele>399.0</ele><time>2026-04-12T12:26:10.672Z</time></trkpt><trkpt lat="45.1240992" lon="7.9800615"><ele>399.0</ele><time>2026-04-12T12:26:11.672Z</time></trkpt><trkpt lat="45.1241941" lon="7.9799342"><ele>399.0</ele><time>2026-04-12T12:26:12.672Z</time></trkpt><trkpt lat="45.1242844" lon="7.9798249"><ele>399.25</ele><time>2026-04-12T12:26:13.672Z</time></trkpt><trkpt lat="45.1243933" lon="7.9797371"><ele>399.5</ele><time>2026-04-12T12:26:14.672Z</time></trkpt><trkpt lat="45.1245031" lon="7.9796611"><ele>399.75</ele><time>2026-04-12T12:26:15.672Z</time></trkpt><trkpt lat="45.1246301" lon="7.9796035"><ele>400.0</ele><time>2026-04-12T12:26:16.672Z</time></trkpt><trkpt lat="45.1247611" lon="7.9795224"><ele>400.0</ele><time>2026-04-12T12:26:17.672Z</time></trkpt><trkpt lat="45.1248894" lon="7.9794395"><ele>400.0</ele><time>2026-04-12T12:26:18.672Z</time></trkpt><trkpt lat="45.1250214" lon="7.9793576"><ele>400.0</ele><time>2026-04-12T12:26:19.672Z</time></trkpt><trkpt lat="45.1251597" lon="7.9793037"><ele>400.0</ele><time>2026-04-12T12:26:20.672Z</time></trkpt><trkpt lat="45.1252958" lon="7.9792423"><ele>398.0</ele><time>2026-04-12T12:26:21.672Z</time></trkpt><trkpt lat="45.1254373" lon="7.9791723"><ele>396.0</ele><time>2026-04-12T12:26:22.672Z</time></trkpt><trkpt lat="45.1255695" lon="7.9791266"><ele>394.0</ele><time>2026-04-12T12:26:23.671Z</time></trkpt><trkpt lat="45.1257117" lon="7.9790599"><ele>392.0</ele><time>2026-04-12T12:26:24.672Z</time></trkpt><trkpt lat="45.1258541" lon="7.9790155"><ele>387.66666666666663</ele><time>2026-04-12T12:26:25.672Z</time></trkpt><trkpt lat="45.1260062" lon="7.9790399"><ele>383.3333333333333</ele><time>2026-04-12T12:26:26.671Z</time></trkpt><trkpt lat="45.1261504" lon="7.9790537"><ele>379.0</ele><time>2026-04-12T12:26:27.672Z</time></trkpt><trkpt lat="45.1263046" lon="7.9791204"><ele>376.5</ele><time>2026-04-12T12:26:28.672Z</time></trkpt><trkpt lat="45.1264352" lon="7.9791912"><ele>374.0</ele><time>2026-04-12T12:26:29.672Z</time></trkpt><trkpt lat="45.1265569" lon="7.9792489"><ele>371.5</ele><time>2026-04-12T12:26:30.672Z</time></trkpt><trkpt lat="45.1266877" lon="7.9792977"><ele>369.0</ele><time>2026-04-12T12:26:31.672Z</time></trkpt><trkpt lat="45.1268137" lon="7.9793214"><ele>368.25</ele><time>2026-04-12T12:26:32.672Z</time></trkpt><trkpt lat="45.1269278" lon="7.9792975"><ele>367.5</ele><time>2026-04-12T12:26:33.672Z</time></trkpt><trkpt lat="45.1270281" lon="7.9792183"><ele>366.75</ele><time>2026-04-12T12:26:34.672Z</time></trkpt><trkpt lat="45.1271118" lon="7.9790982"><ele>366.0</ele><time>2026-04-12T12:26:35.672Z</time></trkpt><trkpt lat="45.1271927" lon="7.9789626"><ele>364.5</ele><time>2026-04-12T12:26:36.672Z</time></trkpt><trkpt lat="45.1271981" lon="7.9787693"><ele>363.0</ele><time>2026-04-12T12:26:37.672Z</time></trkpt><trkpt lat="45.1272019" lon="7.9785869"><ele>361.5</ele><time>2026-04-12T12:26:38.672Z</time></trkpt><trkpt lat="45.1272074" lon="7.9783996"><ele>360.0</ele><time>2026-04-12T12:26:39.672Z</time></trkpt><trkpt lat="45.1271865" lon="7.9782014"><ele>360.0</ele><time>2026-04-12T12:26:40.672Z</time></trkpt><trkpt lat="45.1271917" lon="7.9779843"><ele>360.0</ele><time>2026-04-12T12:26:41.672Z</time></trkpt><trkpt lat="45.1272274" lon="7.9777958"><ele>360.0</ele><time>2026-04-12T12:26:42.672Z</time></trkpt><trkpt lat="45.1272561" lon="7.9775888"><ele>360.0</ele><time>2026-04-12T12:26:43.672Z</time></trkpt><trkpt lat="45.1272643" lon="7.9774019"><ele>357.5</ele><time>2026-04-12T12:26:44.672Z</time></trkpt><trkpt lat="45.1272342" lon="7.9772036"><ele>355.0</ele><time>2026-04-12T12:26:45.672Z</time></trkpt><trkpt lat="45.1272044" lon="7.977024"><ele>352.5</ele><time>2026-04-12T12:26:46.671Z</time></trkpt><trkpt lat="45.1271832" lon="7.9768728"><ele>350.0</ele><time>2026-04-12T12:26:47.672Z</time></trkpt><trkpt lat="45.1271659" lon="7.9767435"><ele>350.8</ele><time>2026-04-12T12:26:48.672Z</time></trkpt><trkpt lat="45.1271833" lon="7.9766341"><ele>351.6</ele><time>2026-04-12T12:26:49.672Z</time></trkpt><trkpt lat="45.1272337" lon="7.9765496"><ele>352.4</ele><time>2026-04-12T12:26:50.672Z</time></trkpt><trkpt lat="45.1273283" lon="7.9765294"><ele>353.2</ele><time>2026-04-12T12:26:51.672Z</time></trkpt><trkpt lat="45.1274354" lon="7.976529"><ele>354.0</ele><time>2026-04-12T12:26:52.672Z</time></trkpt><trkpt lat="45.1275384" lon="7.9765257"><ele>359.2</ele><time>2026-04-12T12:26:53.672Z</time></trkpt><trkpt lat="45.1276449" lon="7.9764893"><ele>364.4</ele><time>2026-04-12T12:26:54.672Z</time></trkpt><trkpt lat="45.1277475" lon="7.976411"><ele>369.6</ele><time>2026-04-12T12:26:55.672Z</time></trkpt><trkpt lat="45.1278486" lon="7.9763404"><ele>374.8</ele><time>2026-04-12T12:26:56.672Z</time></trkpt><trkpt lat="45.1279496" lon="7.9763048"><ele>380.0</ele><time>2026-04-12T12:26:57.672Z</time></trkpt><trkpt lat="45.1280552" lon="7.9763173"><ele>380.0</ele><time>2026-04-12T12:26:58.672Z</time></trkpt><trkpt lat="45.128177" lon="7.9763251"><ele>380.0</ele><time>2026-04-12T12:26:59.672Z</time></trkpt><trkpt lat="45.1282893" lon="7.9763198"><ele>380.0</ele><time>2026-04-12T12:27:00.672Z</time></trkpt><trkpt lat="45.1283999" lon="7.976279"><ele>380.0</ele><time>2026-04-12T12:27:01.672Z</time></trkpt><trkpt lat="45.1284813" lon="7.9761915"><ele>381.4</ele><time>2026-04-12T12:27:02.672Z</time></trkpt><trkpt lat="45.1285647" lon="7.9760805"><ele>382.8</ele><time>2026-04-12T12:27:03.672Z</time></trkpt><trkpt lat="45.1286342" lon="7.9759594"><ele>384.20000000000005</ele><time>2026-04-12T12:27:04.672Z</time></trkpt><trkpt lat="45.128699" lon="7.97585"><ele>385.6</ele><time>2026-04-12T12:27:05.672Z</time></trkpt><trkpt lat="45.128753" lon="7.9757549"><ele>387.0</ele><time>2026-04-12T12:27:06.672Z</time></trkpt><trkpt lat="45.1287861" lon="7.975651"><ele>382.20000000000005</ele><time>2026-04-12T12:27:07.671Z</time></trkpt><trkpt lat="45.1287878" lon="7.9755272"><ele>377.4</ele><time>2026-04-12T12:27:08.672Z</time></trkpt><trkpt lat="45.1287498" lon="7.9753917"><ele>372.6</ele><time>2026-04-12T12:27:09.672Z</time></trkpt><trkpt lat="45.1286872" lon="7.9752703"><ele>367.79999999999995</ele><time>2026-04-12T12:27:10.672Z</time></trkpt><trkpt lat="45.1286063" lon="7.9751634"><ele>363.0</ele><time>2026-04-12T12:27:11.672Z</time></trkpt><trkpt lat="45.1285397" lon="7.975056"><ele>361.4</ele><time>2026-04-12T12:27:12.672Z</time></trkpt><trkpt lat="45.1284898" lon="7.9749286"><ele>359.79999999999995</ele><time>2026-04-12T12:27:13.672Z</time></trkpt><trkpt lat="45.12843" lon="7.9747861"><ele>358.2</ele><time>2026-04-12T12:27:14.672Z</time></trkpt><trkpt lat="45.1284376" lon="7.9746357"><ele>356.6</ele><time>2026-04-12T12:27:15.672Z</time></trkpt><trkpt lat="45.1284371" lon="7.9744947"><ele>355.0</ele><time>2026-04-12T12:27:16.672Z</time></trkpt><trkpt lat="45.1284647" lon="7.9743629"><ele>355.0</ele><time>2026-04-12T12:27:17.672Z</time></trkpt><trkpt lat="45.1284973" lon="7.9742047"><ele>355.0</ele><time>2026-04-12T12:27:18.671Z</time></trkpt><trkpt lat="45.1285312" lon="7.9740386"><ele>355.0</ele><time>2026-04-12T12:27:19.672Z</time></trkpt><trkpt lat="45.1285562" lon="7.9738711"><ele>355.0</ele><time>2026-04-12T12:27:20.672Z</time></trkpt><trkpt lat="45.1285599" lon="7.9737121"><ele>353.5</ele><time>2026-04-12T12:27:21.672Z</time></trkpt><trkpt lat="45.1285702" lon="7.9735756"><ele>352.0</ele><time>2026-04-12T12:27:22.672Z</time></trkpt><trkpt lat="45.1285817" lon="7.9734638"><ele>350.5</ele><time>2026-04-12T12:27:23.672Z</time></trkpt><trkpt lat="45.128596" lon="7.9733574"><ele>349.0</ele><time>2026-04-12T12:27:24.672Z</time></trkpt><trkpt lat="45.1286262" lon="7.9732639"><ele>347.5</ele><time>2026-04-12T12:27:25.672Z</time></trkpt><trkpt lat="45.1286684" lon="7.9731817"><ele>346.0</ele><time>2026-04-12T12:27:26.672Z</time></trkpt><trkpt lat="45.1287239" lon="7.973101"><ele>345.16666666666663</ele><time>2026-04-12T12:27:27.671Z</time></trkpt><trkpt lat="45.128792" lon="7.9730464"><ele>344.3333333333333</ele><time>2026-04-12T12:27:28.672Z</time></trkpt><trkpt lat="45.1288749" lon="7.9730473"><ele>343.5</ele><time>2026-04-12T12:27:29.672Z</time></trkpt><trkpt lat="45.128979" lon="7.9730494"><ele>342.6666666666667</ele><time>2026-04-12T12:27:30.672Z</time></trkpt><trkpt lat="45.1290656" lon="7.9730322"><ele>341.83333333333337</ele><time>2026-04-12T12:27:31.672Z</time></trkpt><trkpt lat="45.1291383" lon="7.9729743"><ele>341.0</ele><time>2026-04-12T12:27:32.672Z</time></trkpt><trkpt lat="45.1292076" lon="7.9728976"><ele>341.0</ele><time>2026-04-12T12:27:33.672Z</time></trkpt><trkpt lat="45.1292749" lon="7.9727762"><ele>341.0</ele><time>2026-04-12T12:27:34.672Z</time></trkpt><trkpt lat="45.1293412" lon="7.9726342"><ele>341.0</ele><time>2026-04-12T12:27:35.671Z</time></trkpt><trkpt lat="45.129414" lon="7.972495"><ele>341.0</ele><time>2026-04-12T12:27:36.672Z</time></trkpt><trkpt lat="45.1294806" lon="7.9723465"><ele>341.0</ele><time>2026-04-12T12:27:37.672Z</time></trkpt><trkpt lat="45.129558" lon="7.9722085"><ele>341.0</ele><time>2026-04-12T12:27:38.672Z</time></trkpt><trkpt lat="45.1296179" lon="7.9720622"><ele>341.0</ele><time>2026-04-12T12:27:39.672Z</time></trkpt><trkpt lat="45.129669" lon="7.9719389"><ele>341.0</ele><time>2026-04-12T12:27:40.672Z</time></trkpt><trkpt lat="45.1296956" lon="7.9718151"><ele>341.0</ele><time>2026-04-12T12:27:41.672Z</time></trkpt><trkpt lat="45.1297067" lon="7.9717063"><ele>337.8</ele><time>2026-04-12T12:27:42.672Z</time></trkpt><trkpt lat="45.1296906" lon="7.9715886"><ele>334.6</ele><time>2026-04-12T12:27:43.672Z</time></trkpt><trkpt lat="45.1296855" lon="7.9714703"><ele>331.4</ele><time>2026-04-12T12:27:44.671Z</time></trkpt><trkpt lat="45.1296872" lon="7.9713387"><ele>328.2</ele><time>2026-04-12T12:27:45.672Z</time></trkpt><trkpt lat="45.1296969" lon="7.9711875"><ele>325.0</ele><time>2026-04-12T12:27:46.671Z</time></trkpt><trkpt lat="45.1297087" lon="7.9710495"><ele>325.0</ele><time>2026-04-12T12:27:47.672Z</time></trkpt><trkpt lat="45.1297221" lon="7.9709069"><ele>325.0</ele><time>2026-04-12T12:27:48.672Z</time></trkpt><trkpt lat="45.1297396" lon="7.9707574"><ele>325.0</ele><time>2026-04-12T12:27:49.672Z</time></trkpt><trkpt lat="45.12977" lon="7.9706316"><ele>325.0</ele><time>2026-04-12T12:27:50.672Z</time></trkpt><trkpt lat="45.1298285" lon="7.9705395"><ele>325.0</ele><time>2026-04-12T12:27:51.672Z</time></trkpt><trkpt lat="45.1298707" lon="7.9704173"><ele>325.4</ele><time>2026-04-12T12:27:52.672Z</time></trkpt><trkpt lat="45.1298898" lon="7.9702911"><ele>325.8</ele><time>2026-04-12T12:27:53.672Z</time></trkpt><trkpt lat="45.1299018" lon="7.9701544"><ele>326.20000000000005</ele><time>2026-04-12T12:27:54.672Z</time></trkpt><trkpt lat="45.1298815" lon="7.9699883"><ele>326.6</ele><time>2026-04-12T12:27:55.672Z</time></trkpt><trkpt lat="45.1298577" lon="7.9698115"><ele>327.0</ele><time>2026-04-12T12:27:56.672Z</time></trkpt><trkpt lat="45.1298335" lon="7.969654"><ele>323.5</ele><time>2026-04-12T12:27:57.672Z</time></trkpt><trkpt lat="45.129814" lon="7.9694835"><ele>320.0</ele><time>2026-04-12T12:27:58.672Z</time></trkpt><trkpt lat="45.1298169" lon="7.9693037"><ele>316.5</ele><time>2026-04-12T12:27:59.672Z</time></trkpt><trkpt lat="45.129834" lon="7.9691181"><ele>313.0</ele><time>2026-04-12T12:28:00.672Z</time></trkpt><trkpt lat="45.1298734" lon="7.9689382"><ele>312.0</ele><time>2026-04-12T12:28:01.672Z</time></trkpt><trkpt lat="45.1299236" lon="7.9687781"><ele>311.0</ele><time>2026-04-12T12:28:02.672Z</time></trkpt><trkpt lat="45.1299757" lon="7.968598"><ele>310.0</ele><time>2026-04-12T12:28:03.672Z</time></trkpt><trkpt lat="45.1300243" lon="7.9684264"><ele>309.0</ele><time>2026-04-12T12:28:04.672Z</time></trkpt><trkpt lat="45.1300689" lon="7.9682701"><ele>308.75</ele><time>2026-04-12T12:28:05.672Z</time></trkpt><trkpt lat="45.130109" lon="7.9680982"><ele>308.5</ele><time>2026-04-12T12:28:06.672Z</time></trkpt><trkpt lat="45.1301516" lon="7.9679246"><ele>308.25</ele><time>2026-04-12T12:28:07.672Z</time></trkpt><trkpt lat="45.1301924" lon="7.9677452"><ele>308.0</ele><time>2026-04-12T12:28:08.672Z</time></trkpt><trkpt lat="45.1302301" lon="7.967568"><ele>305.75</ele><time>2026-04-12T12:28:09.671Z</time></trkpt><trkpt lat="45.1302472" lon="7.967379"><ele>303.5</ele><time>2026-04-12T12:28:10.671Z</time></trkpt><trkpt lat="45.1302494" lon="7.967186"><ele>301.25</ele><time>2026-04-12T12:28:11.672Z</time></trkpt><trkpt lat="45.1302412" lon="7.9669905"><ele>299.0</ele><time>2026-04-12T12:28:12.672Z</time></trkpt><trkpt lat="45.1302403" lon="7.9667938"><ele>296.25</ele><time>2026-04-12T12:28:13.672Z</time></trkpt><trkpt lat="45.1302489" lon="7.9665999"><ele>293.5</ele><time>2026-04-12T12:28:14.672Z</time></trkpt><trkpt lat="45.1302706" lon="7.9664054"><ele>290.75</ele><time>2026-04-12T12:28:15.672Z</time></trkpt><trkpt lat="45.1303067" lon="7.9661966"><ele>288.0</ele><time>2026-04-12T12:28:16.672Z</time></trkpt><trkpt lat="45.1303331" lon="7.9659914"><ele>284.0</ele><time>2026-04-12T12:28:17.672Z</time></trkpt><trkpt lat="45.1303746" lon="7.965783"><ele>280.0</ele><time>2026-04-12T12:28:18.672Z</time></trkpt><trkpt lat="45.1304106" lon="7.9655727"><ele>276.0</ele><time>2026-04-12T12:28:19.672Z</time></trkpt><trkpt lat="45.1304453" lon="7.9653707"><ele>276.0</ele><time>2026-04-12T12:28:20.672Z</time></trkpt><trkpt lat="45.1304961" lon="7.9651672"><ele>276.0</ele><time>2026-04-12T12:28:21.672Z</time></trkpt><trkpt lat="45.1305463" lon="7.9649642"><ele>276.0</ele><time>2026-04-12T12:28:22.672Z</time></trkpt><trkpt lat="45.1305946" lon="7.964766"><ele>273.0</ele><time>2026-04-12T12:28:23.672Z</time></trkpt><trkpt lat="45.1306364" lon="7.964558"><ele>270.0</ele><time>2026-04-12T12:28:24.672Z</time></trkpt><trkpt lat="45.1306837" lon="7.964349"><ele>267.0</ele><time>2026-04-12T12:28:25.672Z</time></trkpt><trkpt lat="45.1307305" lon="7.9641437"><ele>267.0</ele><time>2026-04-12T12:28:26.672Z</time></trkpt><trkpt lat="45.1307662" lon="7.9639532"><ele>267.0</ele><time>2026-04-12T12:28:27.672Z</time></trkpt><trkpt lat="45.1308117" lon="7.9637741"><ele>267.0</ele><time>2026-04-12T12:28:28.672Z</time></trkpt><trkpt lat="45.1308703" lon="7.9636312"><ele>267.0</ele><time>2026-04-12T12:28:29.672Z</time></trkpt><trkpt lat="45.1309168" lon="7.9634693"><ele>265.5</ele><time>2026-04-12T12:28:30.672Z</time></trkpt><trkpt lat="45.130941" lon="7.9632894"><ele>264.0</ele><time>2026-04-12T12:28:31.672Z</time></trkpt><trkpt lat="45.1309407" lon="7.963117"><ele>262.5</ele><time>2026-04-12T12:28:32.671Z</time></trkpt><trkpt lat="45.1309225" lon="7.9629376"><ele>261.0</ele><time>2026-04-12T12:28:33.672Z</time></trkpt><trkpt lat="45.1308469" lon="7.9627497"><ele>261.0</ele><time>2026-04-12T12:28:34.672Z</time></trkpt><trkpt lat="45.1307749" lon="7.9625457"><ele>261.0</ele><time>2026-04-12T12:28:35.672Z</time></trkpt><trkpt lat="45.1307223" lon="7.9623386"><ele>261.0</ele><time>2026-04-12T12:28:36.671Z</time></trkpt><trkpt lat="45.1306651" lon="7.9621322"><ele>254.66666666666669</ele><time>2026-04-12T12:28:37.672Z</time></trkpt><trkpt lat="45.1306043" lon="7.9619362"><ele>248.33333333333334</ele><time>2026-04-12T12:28:38.672Z</time></trkpt><trkpt lat="45.1305404" lon="7.9617407"><ele>242.0</ele><time>2026-04-12T12:28:39.671Z</time></trkpt><trkpt lat="45.130486" lon="7.9615429"><ele>241.0</ele><time>2026-04-12T12:28:40.671Z</time></trkpt><trkpt lat="45.1304352" lon="7.9613661"><ele>240.0</ele><time>2026-04-12T12:28:41.672Z</time></trkpt><trkpt lat="45.1303938" lon="7.9611775"><ele>239.0</ele><time>2026-04-12T12:28:42.672Z</time></trkpt><trkpt lat="45.1303608" lon="7.9609786"><ele>238.0</ele><time>2026-04-12T12:28:43.671Z</time></trkpt><trkpt lat="45.1303481" lon="7.9607928"><ele>237.0</ele><time>2026-04-12T12:28:44.672Z</time></trkpt><trkpt lat="45.1303531" lon="7.9605898"><ele>236.0</ele><time>2026-04-12T12:28:45.671Z</time></trkpt><trkpt lat="45.1303626" lon="7.9603591"><ele>235.0</ele><time>2026-04-12T12:28:46.672Z</time></trkpt><trkpt lat="45.1303796" lon="7.9601436"><ele>234.0</ele><time>2026-04-12T12:28:47.671Z</time></trkpt><trkpt lat="45.1303927" lon="7.9599452"><ele>233.0</ele><time>2026-04-12T12:28:48.672Z</time></trkpt><trkpt lat="45.1303941" lon="7.9597467"><ele>232.0</ele><time>2026-04-12T12:28:49.672Z</time></trkpt><trkpt lat="45.1304013" lon="7.9595331"><ele>231.0</ele><time>2026-04-12T12:28:50.672Z</time></trkpt><trkpt lat="45.1303978" lon="7.9593149"><ele>229.5</ele><time>2026-04-12T12:28:51.672Z</time></trkpt><trkpt lat="45.1304216" lon="7.9591218"><ele>228.0</ele><time>2026-04-12T12:28:52.672Z</time></trkpt><trkpt lat="45.1304364" lon="7.9589082"><ele>226.5</ele><time>2026-04-12T12:28:53.672Z</time></trkpt><trkpt lat="45.13045" lon="7.9587031"><ele>225.0</ele><time>2026-04-12T12:28:54.672Z</time></trkpt><trkpt lat="45.1304759" lon="7.9584903"><ele>223.0</ele><time>2026-04-12T12:28:55.672Z</time></trkpt><trkpt lat="45.1305014" lon="7.9582705"><ele>221.0</ele><time>2026-04-12T12:28:56.671Z</time></trkpt><trkpt lat="45.1304924" lon="7.9580622"><ele>219.0</ele><time>2026-04-12T12:28:57.672Z</time></trkpt><trkpt lat="45.1304779" lon="7.9578565"><ele>219.0</ele><time>2026-04-12T12:28:58.672Z</time></trkpt><trkpt lat="45.1304412" lon="7.9576432"><ele>219.0</ele><time>2026-04-12T12:28:59.672Z</time></trkpt><trkpt lat="45.1304051" lon="7.9574217"><ele>219.0</ele><time>2026-04-12T12:29:00.671Z</time></trkpt><trkpt lat="45.1303818" lon="7.9571989"><ele>218.0</ele><time>2026-04-12T12:29:01.672Z</time></trkpt><trkpt lat="45.1303451" lon="7.9569687"><ele>217.0</ele><time>2026-04-12T12:29:02.672Z</time></trkpt><trkpt lat="45.1303037" lon="7.9567412"><ele>216.0</ele><time>2026-04-12T12:29:03.672Z</time></trkpt><trkpt lat="45.1302782" lon="7.956531"><ele>215.0</ele><time>2026-04-12T12:29:04.671Z</time></trkpt><trkpt lat="45.1302567" lon="7.9563383"><ele>214.0</ele><time>2026-04-12T12:29:05.672Z</time></trkpt><trkpt lat="45.1302324" lon="7.9561719"><ele>213.0</ele><time>2026-04-12T12:29:06.672Z</time></trkpt><trkpt lat="45.1302202" lon="7.956017"><ele>212.0</ele><time>2026-04-12T12:29:07.671Z</time></trkpt><trkpt lat="45.1302248" lon="7.9558824"><ele>212.6</ele><time>2026-04-12T12:29:08.672Z</time></trkpt><trkpt lat="45.1302636" lon="7.9557427"><ele>213.2</ele><time>2026-04-12T12:29:09.671Z</time></trkpt><trkpt lat="45.1303198" lon="7.9556286"><ele>213.8</ele><time>2026-04-12T12:29:10.671Z</time></trkpt><trkpt lat="45.1304011" lon="7.9555263"><ele>214.4</ele><time>2026-04-12T12:29:11.672Z</time></trkpt><trkpt lat="45.1304901" lon="7.9554455"><ele>215.0</ele><time>2026-04-12T12:29:12.672Z</time></trkpt><trkpt lat="45.1305631" lon="7.9553446"><ele>215.0</ele><time>2026-04-12T12:29:13.672Z</time></trkpt><trkpt lat="45.1306062" lon="7.9552323"><ele>215.0</ele><time>2026-04-12T12:29:14.672Z</time></trkpt><trkpt lat="45.1306314" lon="7.9551086"><ele>215.0</ele><time>2026-04-12T12:29:15.672Z</time></trkpt><trkpt lat="45.130644" lon="7.9549668"><ele>215.0</ele><time>2026-04-12T12:29:16.672Z</time></trkpt><trkpt lat="45.1306409" lon="7.954821"><ele>215.0</ele><time>2026-04-12T12:29:17.672Z</time></trkpt><trkpt lat="45.1306487" lon="7.9546879"><ele>214.8</ele><time>2026-04-12T12:29:18.672Z</time></trkpt><trkpt lat="45.1306561" lon="7.9545594"><ele>214.6</ele><time>2026-04-12T12:29:19.672Z</time></trkpt><trkpt lat="45.1306414" lon="7.9544223"><ele>214.39999999999998</ele><time>2026-04-12T12:29:20.672Z</time></trkpt><trkpt lat="45.1305942" lon="7.9542713"><ele>214.2</ele><time>2026-04-12T12:29:21.672Z</time></trkpt><trkpt lat="45.130532" lon="7.9541081"><ele>214.0</ele><time>2026-04-12T12:29:22.672Z</time></trkpt><trkpt lat="45.1304703" lon="7.9539599"><ele>214.0</ele><time>2026-04-12T12:29:23.672Z</time></trkpt><trkpt lat="45.1304261" lon="7.9537718"><ele>214.0</ele><time>2026-04-12T12:29:24.672Z</time></trkpt><trkpt lat="45.1303849" lon="7.9535629"><ele>214.0</ele><time>2026-04-12T12:29:25.672Z</time></trkpt><trkpt lat="45.1303545" lon="7.9533365"><ele>215.33333333333331</ele><time>2026-04-12T12:29:26.672Z</time></trkpt><trkpt lat="45.1303103" lon="7.9530966"><ele>216.66666666666669</ele><time>2026-04-12T12:29:27.672Z</time></trkpt><trkpt lat="45.1302616" lon="7.9528827"><ele>218.0</ele><time>2026-04-12T12:29:28.672Z</time></trkpt><trkpt lat="45.1302093" lon="7.9526743"><ele>218.75</ele><time>2026-04-12T12:29:29.672Z</time></trkpt><trkpt lat="45.1301417" lon="7.9524916"><ele>219.5</ele><time>2026-04-12T12:29:30.672Z</time></trkpt><trkpt lat="45.1300893" lon="7.9523137"><ele>220.25</ele><time>2026-04-12T12:29:31.672Z</time></trkpt><trkpt lat="45.1300328" lon="7.9521105"><ele>221.0</ele><time>2026-04-12T12:29:32.672Z</time></trkpt><trkpt lat="45.129993" lon="7.9519101"><ele>221.0</ele><time>2026-04-12T12:29:33.672Z</time></trkpt><trkpt lat="45.129967" lon="7.9517315"><ele>221.0</ele><time>2026-04-12T12:29:34.672Z</time></trkpt><trkpt lat="45.1299457" lon="7.9515497"><ele>221.0</ele><time>2026-04-12T12:29:35.671Z</time></trkpt><trkpt lat="45.1299247" lon="7.9513512"><ele>221.0</ele><time>2026-04-12T12:29:36.671Z</time></trkpt><trkpt lat="45.1299249" lon="7.9511498"><ele>221.25</ele><time>2026-04-12T12:29:37.672Z</time></trkpt><trkpt lat="45.1299467" lon="7.9509361"><ele>221.5</ele><time>2026-04-12T12:29:38.672Z</time></trkpt><trkpt lat="45.129982" lon="7.9507242"><ele>221.75</ele><time>2026-04-12T12:29:39.672Z</time></trkpt><trkpt lat="45.1300179" lon="7.9505309"><ele>222.0</ele><time>2026-04-12T12:29:40.672Z</time></trkpt><trkpt lat="45.1300479" lon="7.9503491"><ele>220.5</ele><time>2026-04-12T12:29:41.672Z</time></trkpt><trkpt lat="45.1300577" lon="7.9501798"><ele>219.0</ele><time>2026-04-12T12:29:42.672Z</time></trkpt><trkpt lat="45.1300545" lon="7.9500096"><ele>217.5</ele><time>2026-04-12T12:29:43.671Z</time></trkpt><trkpt lat="45.1300296" lon="7.9498384"><ele>216.0</ele><time>2026-04-12T12:29:44.671Z</time></trkpt><trkpt lat="45.1299859" lon="7.9496677"><ele>214.25</ele><time>2026-04-12T12:29:45.672Z</time></trkpt><trkpt lat="45.1299285" lon="7.9495069"><ele>212.5</ele><time>2026-04-12T12:29:46.672Z</time></trkpt><trkpt lat="45.1298606" lon="7.9493475"><ele>210.75</ele><time>2026-04-12T12:29:47.672Z</time></trkpt><trkpt lat="45.129788" lon="7.9492121"><ele>209.0</ele><time>2026-04-12T12:29:48.671Z</time></trkpt><trkpt lat="45.1296942" lon="7.9490574"><ele>207.75</ele><time>2026-04-12T12:29:49.672Z</time></trkpt><trkpt lat="45.1295932" lon="7.9488878"><ele>206.5</ele><time>2026-04-12T12:29:50.672Z</time></trkpt><trkpt lat="45.1295113" lon="7.9487337"><ele>205.25</ele><time>2026-04-12T12:29:51.672Z</time></trkpt><trkpt lat="45.1294194" lon="7.9485576"><ele>204.0</ele><time>2026-04-12T12:29:52.672Z</time></trkpt><trkpt lat="45.1293192" lon="7.9483772"><ele>204.66666666666669</ele><time>2026-04-12T12:29:53.672Z</time></trkpt><trkpt lat="45.1292272" lon="7.9481906"><ele>205.33333333333334</ele><time>2026-04-12T12:29:54.672Z</time></trkpt><trkpt lat="45.129145" lon="7.9479935"><ele>206.0</ele><time>2026-04-12T12:29:55.671Z</time></trkpt><trkpt lat="45.1290706" lon="7.9477903"><ele>205.66666666666669</ele><time>2026-04-12T12:29:56.672Z</time></trkpt><trkpt lat="45.1290184" lon="7.9475828"><ele>205.33333333333331</ele><time>2026-04-12T12:29:57.672Z</time></trkpt><trkpt lat="45.128964" lon="7.9473701"><ele>205.0</ele><time>2026-04-12T12:29:58.672Z</time></trkpt><trkpt lat="45.1289163" lon="7.9471552"><ele>205.0</ele><time>2026-04-12T12:29:59.672Z</time></trkpt><trkpt lat="45.1288772" lon="7.9469476"><ele>205.0</ele><time>2026-04-12T12:30:00.672Z</time></trkpt><trkpt lat="45.1288463" lon="7.9467403"><ele>205.0</ele><time>2026-04-12T12:30:01.672Z</time></trkpt><trkpt lat="45.1288032" lon="7.9465538"><ele>205.0</ele><time>2026-04-12T12:30:02.672Z</time></trkpt><trkpt lat="45.1287574" lon="7.9463704"><ele>205.0</ele><time>2026-04-12T12:30:03.672Z</time></trkpt><trkpt lat="45.1287178" lon="7.9461976"><ele>205.0</ele><time>2026-04-12T12:30:04.672Z</time></trkpt><trkpt lat="45.128688" lon="7.9460392"><ele>205.0</ele><time>2026-04-12T12:30:05.672Z</time></trkpt><trkpt lat="45.1286581" lon="7.9458992"><ele>205.0</ele><time>2026-04-12T12:30:06.671Z</time></trkpt><trkpt lat="45.1286377" lon="7.9457665"><ele>205.0</ele><time>2026-04-12T12:30:07.672Z</time></trkpt><trkpt lat="45.1286102" lon="7.945668"><ele>205.2</ele><time>2026-04-12T12:30:08.672Z</time></trkpt><trkpt lat="45.128602" lon="7.9455358"><ele>205.4</ele><time>2026-04-12T12:30:10.672Z</time></trkpt><trkpt lat="45.1286053" lon="7.9453885"><ele>205.60000000000002</ele><time>2026-04-12T12:30:12.672Z</time></trkpt><trkpt lat="45.1286314" lon="7.9452082"><ele>205.8</ele><time>2026-04-12T12:30:14.672Z</time></trkpt><trkpt lat="45.1286619" lon="7.9450981"><ele>206.0</ele><time>2026-04-12T12:30:15.672Z</time></trkpt><trkpt lat="45.1286978" lon="7.9449888"><ele>206.16666666666669</ele><time>2026-04-12T12:30:16.672Z</time></trkpt><trkpt lat="45.1287228" lon="7.9448881"><ele>206.33333333333334</ele><time>2026-04-12T12:30:17.672Z</time></trkpt><trkpt lat="45.1287602" lon="7.9447726"><ele>206.5</ele><time>2026-04-12T12:30:18.672Z</time></trkpt><trkpt lat="45.1287951" lon="7.9446475"><ele>206.66666666666669</ele><time>2026-04-12T12:30:19.672Z</time></trkpt><trkpt lat="45.1288351" lon="7.9445279"><ele>206.83333333333334</ele><time>2026-04-12T12:30:20.672Z</time></trkpt><trkpt lat="45.1288757" lon="7.9444178"><ele>207.0</ele><time>2026-04-12T12:30:21.672Z</time></trkpt><trkpt lat="45.1289055" lon="7.9442916"><ele>207.2</ele><time>2026-04-12T12:30:22.672Z</time></trkpt><trkpt lat="45.1289384" lon="7.9441718"><ele>207.39999999999998</ele><time>2026-04-12T12:30:23.672Z</time></trkpt><trkpt lat="45.128977" lon="7.9440478"><ele>207.60000000000002</ele><time>2026-04-12T12:30:24.672Z</time></trkpt><trkpt lat="45.129013" lon="7.9439254"><ele>207.8</ele><time>2026-04-12T12:30:25.672Z</time></trkpt><trkpt lat="45.1290483" lon="7.9438083"><ele>208.0</ele><time>2026-04-12T12:30:26.672Z</time></trkpt><trkpt lat="45.1290977" lon="7.9436875"><ele>208.0</ele><time>2026-04-12T12:30:27.672Z</time></trkpt><trkpt lat="45.129144" lon="7.9435778"><ele>208.0</ele><time>2026-04-12T12:30:28.672Z</time></trkpt><trkpt lat="45.1291897" lon="7.94347"><ele>208.0</ele><time>2026-04-12T12:30:29.672Z</time></trkpt><trkpt lat="45.1292379" lon="7.9433645"><ele>208.0</ele><time>2026-04-12T12:30:30.672Z</time></trkpt><trkpt lat="45.1293064" lon="7.9432166"><ele>208.0</ele><time>2026-04-12T12:30:32.672Z</time></trkpt><trkpt lat="45.1293698" lon="7.9431037"><ele>208.0</ele><time>2026-04-12T12:30:34.672Z</time></trkpt><trkpt lat="45.1294204" lon="7.9430424"><ele>208.0</ele><time>2026-04-12T12:30:35.672Z</time></trkpt><trkpt lat="45.1294753" lon="7.9429903"><ele>208.0</ele><time>2026-04-12T12:30:36.672Z</time></trkpt><trkpt lat="45.1295441" lon="7.9429275"><ele>208.0</ele><time>2026-04-12T12:30:37.672Z</time></trkpt><trkpt lat="45.1296136" lon="7.9428991"><ele>208.0</ele><time>2026-04-12T12:30:38.672Z</time></trkpt><trkpt lat="45.129678" lon="7.942855"><ele>208.0</ele><time>2026-04-12T12:30:39.671Z</time></trkpt><trkpt lat="45.1297498" lon="7.9428067"><ele>208.0</ele><time>2026-04-12T12:30:40.672Z</time></trkpt><trkpt lat="45.1298276" lon="7.9427583"><ele>207.60000000000002</ele><time>2026-04-12T12:30:41.672Z</time></trkpt><trkpt lat="45.1299062" lon="7.9427085"><ele>207.20000000000002</ele><time>2026-04-12T12:30:42.672Z</time></trkpt><trkpt lat="45.1299787" lon="7.9426539"><ele>206.8</ele><time>2026-04-12T12:30:43.672Z</time></trkpt><trkpt lat="45.1300631" lon="7.9426045"><ele>206.4</ele><time>2026-04-12T12:30:44.672Z</time></trkpt><trkpt lat="45.1301552" lon="7.9425661"><ele>206.0</ele><time>2026-04-12T12:30:45.671Z</time></trkpt><trkpt lat="45.1302436" lon="7.9425132"><ele>206.0</ele><time>2026-04-12T12:30:46.672Z</time></trkpt><trkpt lat="45.1303363" lon="7.9424633"><ele>206.0</ele><time>2026-04-12T12:30:47.672Z</time></trkpt><trkpt lat="45.1304236" lon="7.9424085"><ele>206.0</ele><time>2026-04-12T12:30:48.672Z</time></trkpt><trkpt lat="45.1305181" lon="7.9423536"><ele>206.0</ele><time>2026-04-12T12:30:49.671Z</time></trkpt><trkpt lat="45.1306097" lon="7.942296"><ele>206.0</ele><time>2026-04-12T12:30:50.672Z</time></trkpt><trkpt lat="45.1307018" lon="7.9422382"><ele>205.75</ele><time>2026-04-12T12:30:51.672Z</time></trkpt><trkpt lat="45.130803" lon="7.9421809"><ele>205.5</ele><time>2026-04-12T12:30:52.672Z</time></trkpt><trkpt lat="45.1309114" lon="7.9421421"><ele>205.25</ele><time>2026-04-12T12:30:53.672Z</time></trkpt><trkpt lat="45.1310236" lon="7.9421"><ele>205.0</ele><time>2026-04-12T12:30:54.672Z</time></trkpt><trkpt lat="45.1311356" lon="7.942064"><ele>205.0</ele><time>2026-04-12T12:30:55.671Z</time></trkpt><trkpt lat="45.1312412" lon="7.9420149"><ele>205.0</ele><time>2026-04-12T12:30:56.672Z</time></trkpt><trkpt lat="45.1313555" lon="7.9419581"><ele>205.0</ele><time>2026-04-12T12:30:57.672Z</time></trkpt><trkpt lat="45.1314666" lon="7.941896"><ele>205.0</ele><time>2026-04-12T12:30:58.672Z</time></trkpt><trkpt lat="45.1315712" lon="7.9418342"><ele>204.75</ele><time>2026-04-12T12:30:59.672Z</time></trkpt><trkpt lat="45.1316819" lon="7.9417695"><ele>204.5</ele><time>2026-04-12T12:31:00.672Z</time></trkpt><trkpt lat="45.1317912" lon="7.9417055"><ele>204.25</ele><time>2026-04-12T12:31:01.672Z</time></trkpt><trkpt lat="45.1318982" lon="7.9416454"><ele>204.0</ele><time>2026-04-12T12:31:02.672Z</time></trkpt><trkpt lat="45.1320059" lon="7.9415855"><ele>204.0</ele><time>2026-04-12T12:31:03.672Z</time></trkpt><trkpt lat="45.1321112" lon="7.9415216"><ele>204.0</ele><time>2026-04-12T12:31:04.672Z</time></trkpt><trkpt lat="45.1322173" lon="7.9414638"><ele>204.0</ele><time>2026-04-12T12:31:05.672Z</time></trkpt><trkpt lat="45.1323214" lon="7.9413943"><ele>204.0</ele><time>2026-04-12T12:31:06.672Z</time></trkpt><trkpt lat="45.1324303" lon="7.9413261"><ele>203.6</ele><time>2026-04-12T12:31:07.672Z</time></trkpt><trkpt lat="45.13254" lon="7.9412674"><ele>203.2</ele><time>2026-04-12T12:31:08.671Z</time></trkpt><trkpt lat="45.1326414" lon="7.9412075"><ele>202.79999999999998</ele><time>2026-04-12T12:31:09.672Z</time></trkpt><trkpt lat="45.1327476" lon="7.9411434"><ele>202.39999999999998</ele><time>2026-04-12T12:31:10.672Z</time></trkpt><trkpt lat="45.1328467" lon="7.9410913"><ele>202.0</ele><time>2026-04-12T12:31:11.672Z</time></trkpt><trkpt lat="45.1329431" lon="7.9410549"><ele>202.0</ele><time>2026-04-12T12:31:12.672Z</time></trkpt><trkpt lat="45.1330412" lon="7.9409935"><ele>202.0</ele><time>2026-04-12T12:31:13.671Z</time></trkpt><trkpt lat="45.1331418" lon="7.9409407"><ele>202.0</ele><time>2026-04-12T12:31:14.672Z</time></trkpt><trkpt lat="45.133231" lon="7.940891"><ele>202.0</ele><time>2026-04-12T12:31:15.672Z</time></trkpt><trkpt lat="45.1333133" lon="7.940835"><ele>202.0</ele><time>2026-04-12T12:31:16.672Z</time></trkpt><trkpt lat="45.133394" lon="7.9407912"><ele>201.83333333333331</ele><time>2026-04-12T12:31:17.671Z</time></trkpt><trkpt lat="45.1334685" lon="7.9407424"><ele>201.66666666666666</ele><time>2026-04-12T12:31:18.672Z</time></trkpt><trkpt lat="45.1335206" lon="7.9406825"><ele>201.5</ele><time>2026-04-12T12:31:19.672Z</time></trkpt><trkpt lat="45.1335667" lon="7.9405687"><ele>201.33333333333331</ele><time>2026-04-12T12:31:21.672Z</time></trkpt><trkpt lat="45.1336255" lon="7.9404834"><ele>201.16666666666666</ele><time>2026-04-12T12:31:24.672Z</time></trkpt><trkpt lat="45.1336589" lon="7.9405325"><ele>201.0</ele><time>2026-04-12T12:38:10.672Z</time></trkpt><trkpt lat="45.1336318" lon="7.9406355"><ele>201.0</ele><time>2026-04-12T12:38:13.672Z</time></trkpt><trkpt lat="45.1335335" lon="7.9406763"><ele>201.0</ele><time>2026-04-12T12:38:15.672Z</time></trkpt><trkpt lat="45.1334353" lon="7.9407312"><ele>201.0</ele><time>2026-04-12T12:38:17.672Z</time></trkpt><trkpt lat="45.1333734" lon="7.9407645"><ele>201.0</ele><time>2026-04-12T12:38:18.672Z</time></trkpt><trkpt lat="45.133301" lon="7.9408114"><ele>201.0</ele><time>2026-04-12T12:38:19.672Z</time></trkpt><trkpt lat="45.1332167" lon="7.9408629"><ele>201.0</ele><time>2026-04-12T12:38:20.672Z</time></trkpt><trkpt lat="45.1331356" lon="7.9409113"><ele>201.20000000000002</ele><time>2026-04-12T12:38:21.672Z</time></trkpt><trkpt lat="45.1330543" lon="7.9409589"><ele>201.4</ele><time>2026-04-12T12:38:22.671Z</time></trkpt><trkpt lat="45.1329568" lon="7.941005"><ele>201.6</ele><time>2026-04-12T12:38:23.672Z</time></trkpt><trkpt lat="45.1328647" lon="7.9410587"><ele>201.8</ele><time>2026-04-12T12:38:24.672Z</time></trkpt><trkpt lat="45.1327699" lon="7.9411131"><ele>202.0</ele><time>2026-04-12T12:38:25.672Z</time></trkpt><trkpt lat="45.1326702" lon="7.9411698"><ele>202.0</ele><time>2026-04-12T12:38:26.672Z</time></trkpt><trkpt lat="45.1325592" lon="7.9412281"><ele>202.0</ele><time>2026-04-12T12:38:27.672Z</time></trkpt><trkpt lat="45.1324542" lon="7.9412871"><ele>202.0</ele><time>2026-04-12T12:38:28.672Z</time></trkpt><trkpt lat="45.1323488" lon="7.9413501"><ele>202.0</ele><time>2026-04-12T12:38:29.672Z</time></trkpt><trkpt lat="45.1322406" lon="7.9414092"><ele>202.5</ele><time>2026-04-12T12:38:30.671Z</time></trkpt><trkpt lat="45.1321351" lon="7.94147"><ele>203.0</ele><time>2026-04-12T12:38:31.672Z</time></trkpt><trkpt lat="45.1320233" lon="7.9415232"><ele>203.5</ele><time>2026-04-12T12:38:32.672Z</time></trkpt><trkpt lat="45.1319152" lon="7.9415894"><ele>204.0</ele><time>2026-04-12T12:38:33.672Z</time></trkpt><trkpt lat="45.1318089" lon="7.9416517"><ele>204.0</ele><time>2026-04-12T12:38:34.671Z</time></trkpt><trkpt lat="45.131696" lon="7.9417131"><ele>204.0</ele><time>2026-04-12T12:38:35.672Z</time></trkpt><trkpt lat="45.1316017" lon="7.941765"><ele>204.0</ele><time>2026-04-12T12:38:36.671Z</time></trkpt><trkpt lat="45.1315054" lon="7.9418149"><ele>204.0</ele><time>2026-04-12T12:38:37.672Z</time></trkpt><trkpt lat="45.1314079" lon="7.9418742"><ele>204.0</ele><time>2026-04-12T12:38:38.672Z</time></trkpt><trkpt lat="45.1312994" lon="7.9419394"><ele>204.2</ele><time>2026-04-12T12:38:39.672Z</time></trkpt><trkpt lat="45.1311917" lon="7.9419881"><ele>204.39999999999998</ele><time>2026-04-12T12:38:40.671Z</time></trkpt><trkpt lat="45.1310837" lon="7.9420293"><ele>204.6</ele><time>2026-04-12T12:38:41.672Z</time></trkpt><trkpt lat="45.1309804" lon="7.942071"><ele>204.8</ele><time>2026-04-12T12:38:42.672Z</time></trkpt><trkpt lat="45.1308757" lon="7.9421197"><ele>205.0</ele><time>2026-04-12T12:38:43.672Z</time></trkpt><trkpt lat="45.130775" lon="7.9421878"><ele>205.2</ele><time>2026-04-12T12:38:44.672Z</time></trkpt><trkpt lat="45.1306824" lon="7.9422574"><ele>205.4</ele><time>2026-04-12T12:38:45.671Z</time></trkpt><trkpt lat="45.130578" lon="7.9423172"><ele>205.60000000000002</ele><time>2026-04-12T12:38:46.671Z</time></trkpt><trkpt lat="45.1304821" lon="7.9423679"><ele>205.8</ele><time>2026-04-12T12:38:47.672Z</time></trkpt><trkpt lat="45.1303979" lon="7.9424043"><ele>206.0</ele><time>2026-04-12T12:38:48.672Z</time></trkpt><trkpt lat="45.1302973" lon="7.9424667"><ele>206.0</ele><time>2026-04-12T12:38:49.672Z</time></trkpt><trkpt lat="45.1301997" lon="7.9425285"><ele>206.0</ele><time>2026-04-12T12:38:50.672Z</time></trkpt><trkpt lat="45.1300942" lon="7.9425807"><ele>206.0</ele><time>2026-04-12T12:38:51.672Z</time></trkpt><trkpt lat="45.1299767" lon="7.9426478"><ele>206.0</ele><time>2026-04-12T12:38:52.672Z</time></trkpt><trkpt lat="45.1298812" lon="7.9427121"><ele>206.4</ele><time>2026-04-12T12:38:53.672Z</time></trkpt><trkpt lat="45.1297923" lon="7.9427697"><ele>206.8</ele><time>2026-04-12T12:38:54.672Z</time></trkpt><trkpt lat="45.1297257" lon="7.9428252"><ele>207.20000000000002</ele><time>2026-04-12T12:38:55.672Z</time></trkpt><trkpt lat="45.1296474" lon="7.9428569"><ele>207.60000000000002</ele><time>2026-04-12T12:38:57.672Z</time></trkpt><trkpt lat="45.1295103" lon="7.9428487"><ele>208.0</ele><time>2026-04-12T12:38:59.672Z</time></trkpt><trkpt lat="45.1294296" lon="7.9428662"><ele>208.0</ele><time>2026-04-12T12:39:00.672Z</time></trkpt><trkpt lat="45.1293389" lon="7.9428969"><ele>208.0</ele><time>2026-04-12T12:39:01.672Z</time></trkpt><trkpt lat="45.129244" lon="7.9429227"><ele>208.0</ele><time>2026-04-12T12:39:02.672Z</time></trkpt><trkpt lat="45.1291344" lon="7.9429525"><ele>208.0</ele><time>2026-04-12T12:39:03.672Z</time></trkpt><trkpt lat="45.1290314" lon="7.9430041"><ele>208.0</ele><time>2026-04-12T12:39:04.672Z</time></trkpt><trkpt lat="45.1289289" lon="7.9430578"><ele>208.25</ele><time>2026-04-12T12:39:05.672Z</time></trkpt><trkpt lat="45.1288113" lon="7.9431176"><ele>208.5</ele><time>2026-04-12T12:39:06.672Z</time></trkpt><trkpt lat="45.1286897" lon="7.9431706"><ele>208.75</ele><time>2026-04-12T12:39:07.672Z</time></trkpt><trkpt lat="45.1285729" lon="7.9432288"><ele>209.0</ele><time>2026-04-12T12:39:08.672Z</time></trkpt><trkpt lat="45.1284473" lon="7.9432946"><ele>209.0</ele><time>2026-04-12T12:39:09.672Z</time></trkpt><trkpt lat="45.1283313" lon="7.9433569"><ele>209.0</ele><time>2026-04-12T12:39:10.672Z</time></trkpt><trkpt lat="45.1282002" lon="7.943412"><ele>209.0</ele><time>2026-04-12T12:39:11.672Z</time></trkpt><trkpt lat="45.1280763" lon="7.9434799"><ele>209.0</ele><time>2026-04-12T12:39:12.672Z</time></trkpt><trkpt lat="45.1279528" lon="7.9435453"><ele>208.75</ele><time>2026-04-12T12:39:13.672Z</time></trkpt><trkpt lat="45.1278437" lon="7.943595"><ele>208.5</ele><time>2026-04-12T12:39:14.672Z</time></trkpt><trkpt lat="45.1277295" lon="7.9436453"><ele>208.25</ele><time>2026-04-12T12:39:15.671Z</time></trkpt><trkpt lat="45.1276051" lon="7.9436613"><ele>208.0</ele><time>2026-04-12T12:39:16.672Z</time></trkpt><trkpt lat="45.1274707" lon="7.9436708"><ele>207.75</ele><time>2026-04-12T12:39:17.672Z</time></trkpt><trkpt lat="45.1273452" lon="7.9436671"><ele>207.5</ele><time>2026-04-12T12:39:18.672Z</time></trkpt><trkpt lat="45.1272247" lon="7.9436536"><ele>207.25</ele><time>2026-04-12T12:39:19.671Z</time></trkpt><trkpt lat="45.1270939" lon="7.9436393"><ele>207.0</ele><time>2026-04-12T12:39:20.672Z</time></trkpt><trkpt lat="45.1269458" lon="7.9436186"><ele>207.0</ele><time>2026-04-12T12:39:21.672Z</time></trkpt><trkpt lat="45.1268115" lon="7.9435991"><ele>207.0</ele><time>2026-04-12T12:39:22.672Z</time></trkpt><trkpt lat="45.1266716" lon="7.9435926"><ele>207.0</ele><time>2026-04-12T12:39:23.672Z</time></trkpt><trkpt lat="45.1265111" lon="7.9435722"><ele>207.0</ele><time>2026-04-12T12:39:24.672Z</time></trkpt><trkpt lat="45.1263584" lon="7.9435516"><ele>207.0</ele><time>2026-04-12T12:39:25.672Z</time></trkpt><trkpt lat="45.1262153" lon="7.9435349"><ele>207.0</ele><time>2026-04-12T12:39:26.672Z</time></trkpt><trkpt lat="45.1260618" lon="7.9435255"><ele>207.0</ele><time>2026-04-12T12:39:27.672Z</time></trkpt><trkpt lat="45.1259001" lon="7.9435077"><ele>207.0</ele><time>2026-04-12T12:39:28.672Z</time></trkpt><trkpt lat="45.125745" lon="7.9434936"><ele>207.0</ele><time>2026-04-12T12:39:29.672Z</time></trkpt><trkpt lat="45.1255926" lon="7.9434641"><ele>207.0</ele><time>2026-04-12T12:39:30.672Z</time></trkpt><trkpt lat="45.1254227" lon="7.9434186"><ele>207.0</ele><time>2026-04-12T12:39:31.672Z</time></trkpt><trkpt lat="45.1252698" lon="7.9433652"><ele>207.0</ele><time>2026-04-12T12:39:32.672Z</time></trkpt><trkpt lat="45.1251274" lon="7.9432967"><ele>207.0</ele><time>2026-04-12T12:39:33.672Z</time></trkpt><trkpt lat="45.1249783" lon="7.9432177"><ele>207.33333333333331</ele><time>2026-04-12T12:39:34.671Z</time></trkpt><trkpt lat="45.1248392" lon="7.9431145"><ele>207.66666666666666</ele><time>2026-04-12T12:39:35.672Z</time></trkpt><trkpt lat="45.1246954" lon="7.9430023"><ele>208.0</ele><time>2026-04-12T12:39:36.672Z</time></trkpt><trkpt lat="45.124557" lon="7.9428775"><ele>208.0</ele><time>2026-04-12T12:39:37.672Z</time></trkpt><trkpt lat="45.1244154" lon="7.9427436"><ele>208.0</ele><time>2026-04-12T12:39:38.672Z</time></trkpt><trkpt lat="45.1242835" lon="7.9426131"><ele>208.0</ele><time>2026-04-12T12:39:39.672Z</time></trkpt><trkpt lat="45.1241535" lon="7.9424776"><ele>208.66666666666666</ele><time>2026-04-12T12:39:40.672Z</time></trkpt><trkpt lat="45.1240254" lon="7.9423438"><ele>209.33333333333331</ele><time>2026-04-12T12:39:41.671Z</time></trkpt><trkpt lat="45.1238928" lon="7.9421971"><ele>210.0</ele><time>2026-04-12T12:39:42.672Z</time></trkpt><trkpt lat="45.1237663" lon="7.942058"><ele>210.0</ele><time>2026-04-12T12:39:43.672Z</time></trkpt><trkpt lat="45.1236367" lon="7.9419184"><ele>210.0</ele><time>2026-04-12T12:39:44.672Z</time></trkpt><trkpt lat="45.123502" lon="7.9417884"><ele>210.0</ele><time>2026-04-12T12:39:45.672Z</time></trkpt><trkpt lat="45.1233552" lon="7.9416797"><ele>210.33333333333331</ele><time>2026-04-12T12:39:46.672Z</time></trkpt><trkpt lat="45.123206" lon="7.9415816"><ele>210.66666666666666</ele><time>2026-04-12T12:39:47.672Z</time></trkpt><trkpt lat="45.123053" lon="7.9414825"><ele>211.0</ele><time>2026-04-12T12:39:48.672Z</time></trkpt><trkpt lat="45.1228976" lon="7.94139"><ele>211.0</ele><time>2026-04-12T12:39:49.672Z</time></trkpt><trkpt lat="45.1227472" lon="7.9412802"><ele>211.0</ele><time>2026-04-12T12:39:50.672Z</time></trkpt><trkpt lat="45.122605" lon="7.9411711"><ele>211.0</ele><time>2026-04-12T12:39:51.672Z</time></trkpt><trkpt lat="45.1224652" lon="7.941042"><ele>211.66666666666666</ele><time>2026-04-12T12:39:52.672Z</time></trkpt><trkpt lat="45.1223209" lon="7.9409105"><ele>212.33333333333331</ele><time>2026-04-12T12:39:53.672Z</time></trkpt><trkpt lat="45.1221882" lon="7.9407875"><ele>213.0</ele><time>2026-04-12T12:39:54.672Z</time></trkpt><trkpt lat="45.1220511" lon="7.9406617"><ele>213.33333333333331</ele><time>2026-04-12T12:39:55.672Z</time></trkpt><trkpt lat="45.1219168" lon="7.9405401"><ele>213.66666666666666</ele><time>2026-04-12T12:39:56.671Z</time></trkpt><trkpt lat="45.1217753" lon="7.9404302"><ele>214.0</ele><time>2026-04-12T12:39:57.672Z</time></trkpt><trkpt lat="45.1216268" lon="7.9403327"><ele>214.33333333333331</ele><time>2026-04-12T12:39:58.672Z</time></trkpt><trkpt lat="45.1214756" lon="7.9402476"><ele>214.66666666666669</ele><time>2026-04-12T12:39:59.672Z</time></trkpt><trkpt lat="45.1213244" lon="7.940168"><ele>215.0</ele><time>2026-04-12T12:40:00.671Z</time></trkpt><trkpt lat="45.1211704" lon="7.9400877"><ele>214.66666666666669</ele><time>2026-04-12T12:40:01.672Z</time></trkpt><trkpt lat="45.1210193" lon="7.9400177"><ele>214.33333333333331</ele><time>2026-04-12T12:40:02.672Z</time></trkpt><trkpt lat="45.1208668" lon="7.9399806"><ele>214.0</ele><time>2026-04-12T12:40:03.672Z</time></trkpt><trkpt lat="45.1207068" lon="7.9399849"><ele>214.66666666666666</ele><time>2026-04-12T12:40:04.672Z</time></trkpt><trkpt lat="45.1205416" lon="7.9400189"><ele>215.33333333333331</ele><time>2026-04-12T12:40:05.672Z</time></trkpt><trkpt lat="45.1203794" lon="7.9400595"><ele>216.0</ele><time>2026-04-12T12:40:06.672Z</time></trkpt><trkpt lat="45.1202174" lon="7.9401306"><ele>216.33333333333331</ele><time>2026-04-12T12:40:07.672Z</time></trkpt><trkpt lat="45.1200639" lon="7.9402215"><ele>216.66666666666666</ele><time>2026-04-12T12:40:08.672Z</time></trkpt><trkpt lat="45.1199255" lon="7.9403455"><ele>217.0</ele><time>2026-04-12T12:40:09.672Z</time></trkpt><trkpt lat="45.1197978" lon="7.9404886"><ele>219.33333333333331</ele><time>2026-04-12T12:40:10.672Z</time></trkpt><trkpt lat="45.1196676" lon="7.9406211"><ele>221.66666666666669</ele><time>2026-04-12T12:40:11.672Z</time></trkpt><trkpt lat="45.1195376" lon="7.9407533"><ele>224.0</ele><time>2026-04-12T12:40:12.672Z</time></trkpt><trkpt lat="45.119401" lon="7.9408745"><ele>223.66666666666669</ele><time>2026-04-12T12:40:13.672Z</time></trkpt><trkpt lat="45.1192619" lon="7.9409762"><ele>223.33333333333331</ele><time>2026-04-12T12:40:14.672Z</time></trkpt><trkpt lat="45.1191144" lon="7.9410741"><ele>223.0</ele><time>2026-04-12T12:40:15.672Z</time></trkpt><trkpt lat="45.1189653" lon="7.9411572"><ele>223.0</ele><time>2026-04-12T12:40:16.672Z</time></trkpt><trkpt lat="45.1188221" lon="7.9412458"><ele>223.0</ele><time>2026-04-12T12:40:17.672Z</time></trkpt><trkpt lat="45.1186778" lon="7.9413211"><ele>223.0</ele><time>2026-04-12T12:40:18.672Z</time></trkpt><trkpt lat="45.1185287" lon="7.941371"><ele>223.0</ele><time>2026-04-12T12:40:19.672Z</time></trkpt><trkpt lat="45.1183691" lon="7.941404"><ele>223.0</ele><time>2026-04-12T12:40:20.672Z</time></trkpt><trkpt lat="45.1182109" lon="7.9414411"><ele>223.0</ele><time>2026-04-12T12:40:21.672Z</time></trkpt><trkpt lat="45.118048" lon="7.9414752"><ele>224.0</ele><time>2026-04-12T12:40:22.672Z</time></trkpt><trkpt lat="45.1178876" lon="7.9415126"><ele>225.0</ele><time>2026-04-12T12:40:23.672Z</time></trkpt><trkpt lat="45.1177238" lon="7.9415438"><ele>226.0</ele><time>2026-04-12T12:40:24.672Z</time></trkpt><trkpt lat="45.1175578" lon="7.9415804"><ele>227.0</ele><time>2026-04-12T12:40:25.672Z</time></trkpt><trkpt lat="45.1173998" lon="7.9416207"><ele>228.0</ele><time>2026-04-12T12:40:26.672Z</time></trkpt><trkpt lat="45.1172477" lon="7.9416659"><ele>229.0</ele><time>2026-04-12T12:40:27.672Z</time></trkpt><trkpt lat="45.117085" lon="7.9416916"><ele>229.0</ele><time>2026-04-12T12:40:28.672Z</time></trkpt><trkpt lat="45.1169268" lon="7.9416752"><ele>229.0</ele><time>2026-04-12T12:40:29.671Z</time></trkpt><trkpt lat="45.1167777" lon="7.941622"><ele>229.0</ele><time>2026-04-12T12:40:30.672Z</time></trkpt><trkpt lat="45.1166288" lon="7.9415361"><ele>229.25</ele><time>2026-04-12T12:40:31.672Z</time></trkpt><trkpt lat="45.1164926" lon="7.9414335"><ele>229.5</ele><time>2026-04-12T12:40:32.672Z</time></trkpt><trkpt lat="45.1163655" lon="7.9413317"><ele>229.75</ele><time>2026-04-12T12:40:33.672Z</time></trkpt><trkpt lat="45.116236" lon="7.9412487"><ele>230.0</ele><time>2026-04-12T12:40:34.672Z</time></trkpt><trkpt lat="45.1161003" lon="7.9412071"><ele>230.0</ele><time>2026-04-12T12:40:35.671Z</time></trkpt><trkpt lat="45.1159577" lon="7.9412086"><ele>230.0</ele><time>2026-04-12T12:40:36.672Z</time></trkpt><trkpt lat="45.1158064" lon="7.9412412"><ele>230.0</ele><time>2026-04-12T12:40:37.672Z</time></trkpt><trkpt lat="45.1156516" lon="7.9412837"><ele>232.0</ele><time>2026-04-12T12:40:38.672Z</time></trkpt><trkpt lat="45.1154932" lon="7.9413329"><ele>234.0</ele><time>2026-04-12T12:40:39.672Z</time></trkpt><trkpt lat="45.115331" lon="7.9413793"><ele>236.0</ele><time>2026-04-12T12:40:40.672Z</time></trkpt><trkpt lat="45.115167" lon="7.9414374"><ele>236.0</ele><time>2026-04-12T12:40:41.672Z</time></trkpt><trkpt lat="45.1149933" lon="7.9414921"><ele>236.0</ele><time>2026-04-12T12:40:42.672Z</time></trkpt><trkpt lat="45.1148195" lon="7.9415421"><ele>236.0</ele><time>2026-04-12T12:40:43.671Z</time></trkpt><trkpt lat="45.1146615" lon="7.9416095"><ele>237.33333333333334</ele><time>2026-04-12T12:40:44.672Z</time></trkpt><trkpt lat="45.1145052" lon="7.941694"><ele>238.66666666666669</ele><time>2026-04-12T12:40:45.672Z</time></trkpt><trkpt lat="45.1143379" lon="7.9417667"><ele>240.0</ele><time>2026-04-12T12:40:46.672Z</time></trkpt><trkpt lat="45.1141718" lon="7.9418216"><ele>237.0</ele><time>2026-04-12T12:40:47.672Z</time></trkpt><trkpt lat="45.1140049" lon="7.9418528"><ele>234.0</ele><time>2026-04-12T12:40:48.672Z</time></trkpt><trkpt lat="45.1138308" lon="7.941874"><ele>231.0</ele><time>2026-04-12T12:40:49.672Z</time></trkpt><trkpt lat="45.113668" lon="7.9418933"><ele>231.0</ele><time>2026-04-12T12:40:50.672Z</time></trkpt><trkpt lat="45.1135004" lon="7.9419176"><ele>231.0</ele><time>2026-04-12T12:40:51.672Z</time></trkpt><trkpt lat="45.1133396" lon="7.9419397"><ele>231.0</ele><time>2026-04-12T12:40:52.672Z</time></trkpt><trkpt lat="45.1131636" lon="7.9419726"><ele>232.33333333333331</ele><time>2026-04-12T12:40:53.672Z</time></trkpt><trkpt lat="45.1129966" lon="7.9420149"><ele>233.66666666666666</ele><time>2026-04-12T12:40:54.672Z</time></trkpt><trkpt lat="45.1128417" lon="7.9420535"><ele>235.0</ele><time>2026-04-12T12:40:55.672Z</time></trkpt><trkpt lat="45.1127065" lon="7.9420819"><ele>235.0</ele><time>2026-04-12T12:40:56.672Z</time></trkpt><trkpt lat="45.1125849" lon="7.9420797"><ele>235.0</ele><time>2026-04-12T12:40:57.672Z</time></trkpt><trkpt lat="45.1124656" lon="7.9420468"><ele>235.0</ele><time>2026-04-12T12:40:58.672Z</time></trkpt><trkpt lat="45.112374" lon="7.9419313"><ele>235.0</ele><time>2026-04-12T12:40:59.672Z</time></trkpt><trkpt lat="45.1122791" lon="7.9418256"><ele>234.6</ele><time>2026-04-12T12:41:00.671Z</time></trkpt><trkpt lat="45.1121722" lon="7.9417628"><ele>234.2</ele><time>2026-04-12T12:41:01.672Z</time></trkpt><trkpt lat="45.112063" lon="7.9417229"><ele>233.8</ele><time>2026-04-12T12:41:02.672Z</time></trkpt><trkpt lat="45.1119627" lon="7.9417105"><ele>233.4</ele><time>2026-04-12T12:41:03.672Z</time></trkpt><trkpt lat="45.1118606" lon="7.9417143"><ele>233.0</ele><time>2026-04-12T12:41:04.672Z</time></trkpt><trkpt lat="45.1116788" lon="7.9417893"><ele>232.75</ele><time>2026-04-12T12:41:05.672Z</time></trkpt><trkpt lat="45.1115392" lon="7.9418237"><ele>232.5</ele><time>2026-04-12T12:41:06.672Z</time></trkpt><trkpt lat="45.1114049" lon="7.9418688"><ele>232.25</ele><time>2026-04-12T12:41:07.672Z</time></trkpt><trkpt lat="45.1112613" lon="7.9418506"><ele>232.0</ele><time>2026-04-12T12:41:08.672Z</time></trkpt><trkpt lat="45.111106" lon="7.9417973"><ele>232.0</ele><time>2026-04-12T12:41:09.672Z</time></trkpt><trkpt lat="45.1109667" lon="7.9417327"><ele>232.0</ele><time>2026-04-12T12:41:10.672Z</time></trkpt><trkpt lat="45.1107981" lon="7.9416846"><ele>232.0</ele><time>2026-04-12T12:41:11.672Z</time></trkpt><trkpt lat="45.1106152" lon="7.9416311"><ele>234.0</ele><time>2026-04-12T12:41:12.672Z</time></trkpt><trkpt lat="45.1104558" lon="7.9415632"><ele>236.0</ele><time>2026-04-12T12:41:13.672Z</time></trkpt><trkpt lat="45.1102869" lon="7.9415343"><ele>238.0</ele><time>2026-04-12T12:41:14.672Z</time></trkpt><trkpt lat="45.1101194" lon="7.9415056"><ele>238.0</ele><time>2026-04-12T12:41:15.672Z</time></trkpt><trkpt lat="45.1099633" lon="7.9414835"><ele>238.0</ele><time>2026-04-12T12:41:16.672Z</time></trkpt><trkpt lat="45.109799" lon="7.941453"><ele>238.0</ele><time>2026-04-12T12:41:17.672Z</time></trkpt><trkpt lat="45.1096322" lon="7.9414297"><ele>238.33333333333331</ele><time>2026-04-12T12:41:18.672Z</time></trkpt><trkpt lat="45.1094741" lon="7.9413948"><ele>238.66666666666669</ele><time>2026-04-12T12:41:19.672Z</time></trkpt><trkpt lat="45.1093107" lon="7.9413763"><ele>239.0</ele><time>2026-04-12T12:41:20.672Z</time></trkpt><trkpt lat="45.1091506" lon="7.9413705"><ele>239.66666666666669</ele><time>2026-04-12T12:41:21.671Z</time></trkpt><trkpt lat="45.108993" lon="7.9413466"><ele>240.33333333333331</ele><time>2026-04-12T12:41:22.671Z</time></trkpt><trkpt lat="45.1088394" lon="7.9413446"><ele>241.0</ele><time>2026-04-12T12:41:23.672Z</time></trkpt><trkpt lat="45.1086969" lon="7.9413791"><ele>241.0</ele><time>2026-04-12T12:41:24.672Z</time></trkpt><trkpt lat="45.1085473" lon="7.9414321"><ele>241.0</ele><time>2026-04-12T12:41:25.672Z</time></trkpt><trkpt lat="45.1083952" lon="7.9415064"><ele>241.0</ele><time>2026-04-12T12:41:26.672Z</time></trkpt><trkpt lat="45.1082428" lon="7.9415889"><ele>242.0</ele><time>2026-04-12T12:41:27.672Z</time></trkpt><trkpt lat="45.1080915" lon="7.9416692"><ele>243.0</ele><time>2026-04-12T12:41:28.672Z</time></trkpt><trkpt lat="45.1079485" lon="7.9417534"><ele>244.0</ele><time>2026-04-12T12:41:29.671Z</time></trkpt><trkpt lat="45.1078008" lon="7.9418298"><ele>244.0</ele><time>2026-04-12T12:41:30.672Z</time></trkpt><trkpt lat="45.107664" lon="7.9418649"><ele>244.0</ele><time>2026-04-12T12:41:31.672Z</time></trkpt><trkpt lat="45.1075196" lon="7.9418717"><ele>244.0</ele><time>2026-04-12T12:41:32.671Z</time></trkpt><trkpt lat="45.1073721" lon="7.9418315"><ele>244.0</ele><time>2026-04-12T12:41:33.672Z</time></trkpt><trkpt lat="45.1072305" lon="7.9417521"><ele>243.33333333333331</ele><time>2026-04-12T12:41:34.672Z</time></trkpt><trkpt lat="45.1070879" lon="7.9416635"><ele>242.66666666666669</ele><time>2026-04-12T12:41:35.672Z</time></trkpt><trkpt lat="45.1069335" lon="7.9415603"><ele>242.0</ele><time>2026-04-12T12:41:36.672Z</time></trkpt><trkpt lat="45.1067765" lon="7.9414631"><ele>242.0</ele><time>2026-04-12T12:41:37.672Z</time></trkpt><trkpt lat="45.106621" lon="7.9413795"><ele>242.0</ele><time>2026-04-12T12:41:38.671Z</time></trkpt><trkpt lat="45.1064734" lon="7.9413101"><ele>242.0</ele><time>2026-04-12T12:41:39.672Z</time></trkpt><trkpt lat="45.1063147" lon="7.9412515"><ele>243.0</ele><time>2026-04-12T12:41:40.672Z</time></trkpt><trkpt lat="45.1061433" lon="7.9411975"><ele>244.0</ele><time>2026-04-12T12:41:41.672Z</time></trkpt><trkpt lat="45.105986" lon="7.941144"><ele>245.0</ele><time>2026-04-12T12:41:42.672Z</time></trkpt><trkpt lat="45.1058118" lon="7.9410865"><ele>248.33333333333334</ele><time>2026-04-12T12:41:43.672Z</time></trkpt><trkpt lat="45.1056525" lon="7.941026"><ele>251.66666666666669</ele><time>2026-04-12T12:41:44.671Z</time></trkpt><trkpt lat="45.1054928" lon="7.9409702"><ele>255.0</ele><time>2026-04-12T12:41:45.672Z</time></trkpt><trkpt lat="45.1053328" lon="7.9409217"><ele>253.66666666666669</ele><time>2026-04-12T12:41:46.672Z</time></trkpt><trkpt lat="45.1051749" lon="7.940875"><ele>252.33333333333334</ele><time>2026-04-12T12:41:47.671Z</time></trkpt><trkpt lat="45.1050182" lon="7.9408216"><ele>251.0</ele><time>2026-04-12T12:41:48.672Z</time></trkpt><trkpt lat="45.1048635" lon="7.9407574"><ele>254.66666666666669</ele><time>2026-04-12T12:41:49.672Z</time></trkpt><trkpt lat="45.1047159" lon="7.9406571"><ele>258.3333333333333</ele><time>2026-04-12T12:41:50.672Z</time></trkpt><trkpt lat="45.1045819" lon="7.9405624"><ele>262.0</ele><time>2026-04-12T12:41:51.672Z</time></trkpt><trkpt lat="45.1044401" lon="7.9404585"><ele>262.0</ele><time>2026-04-12T12:41:52.672Z</time></trkpt><trkpt lat="45.1043074" lon="7.9403659"><ele>262.0</ele><time>2026-04-12T12:41:53.672Z</time></trkpt><trkpt lat="45.1041687" lon="7.9402937"><ele>262.0</ele><time>2026-04-12T12:41:54.672Z</time></trkpt><trkpt lat="45.1040074" lon="7.9402494"><ele>264.75</ele><time>2026-04-12T12:41:55.672Z</time></trkpt><trkpt lat="45.1038622" lon="7.9402575"><ele>267.5</ele><time>2026-04-12T12:41:56.672Z</time></trkpt><trkpt lat="45.1037079" lon="7.9402559"><ele>270.25</ele><time>2026-04-12T12:41:57.672Z</time></trkpt><trkpt lat="45.1035763" lon="7.9403262"><ele>273.0</ele><time>2026-04-12T12:41:58.672Z</time></trkpt><trkpt lat="45.1034576" lon="7.9403701"><ele>273.0</ele><time>2026-04-12T12:41:59.672Z</time></trkpt><trkpt lat="45.1033404" lon="7.9403941"><ele>273.0</ele><time>2026-04-12T12:42:00.672Z</time></trkpt><trkpt lat="45.103218" lon="7.9403864"><ele>273.0</ele><time>2026-04-12T12:42:01.672Z</time></trkpt><trkpt lat="45.1031355" lon="7.9402871"><ele>273.0</ele><time>2026-04-12T12:42:02.672Z</time></trkpt><trkpt lat="45.1030525" lon="7.9401809"><ele>274.25</ele><time>2026-04-12T12:42:03.671Z</time></trkpt><trkpt lat="45.1029691" lon="7.9401011"><ele>275.5</ele><time>2026-04-12T12:42:04.672Z</time></trkpt><trkpt lat="45.1028584" lon="7.9400525"><ele>276.75</ele><time>2026-04-12T12:42:05.672Z</time></trkpt><trkpt lat="45.1027583" lon="7.9400359"><ele>278.0</ele><time>2026-04-12T12:42:06.672Z</time></trkpt><trkpt lat="45.1026179" lon="7.9400691"><ele>278.0</ele><time>2026-04-12T12:42:07.672Z</time></trkpt><trkpt lat="45.1024819" lon="7.9401126"><ele>278.0</ele><time>2026-04-12T12:42:08.672Z</time></trkpt><trkpt lat="45.1023433" lon="7.9401567"><ele>278.0</ele><time>2026-04-12T12:42:09.672Z</time></trkpt><trkpt lat="45.1022107" lon="7.9401975"><ele>278.0</ele><time>2026-04-12T12:42:10.672Z</time></trkpt><trkpt lat="45.1020845" lon="7.9402359"><ele>277.25</ele><time>2026-04-12T12:42:11.671Z</time></trkpt><trkpt lat="45.1019643" lon="7.9402951"><ele>276.5</ele><time>2026-04-12T12:42:12.672Z</time></trkpt><trkpt lat="45.1018537" lon="7.9403673"><ele>275.75</ele><time>2026-04-12T12:42:13.672Z</time></trkpt><trkpt lat="45.101775" lon="7.940493"><ele>275.0</ele><time>2026-04-12T12:42:14.672Z</time></trkpt><trkpt lat="45.1017172" lon="7.9406654"><ele>275.0</ele><time>2026-04-12T12:42:15.672Z</time></trkpt><trkpt lat="45.101665" lon="7.9408508"><ele>275.0</ele><time>2026-04-12T12:42:16.671Z</time></trkpt><trkpt lat="45.1016231" lon="7.9410089"><ele>275.0</ele><time>2026-04-12T12:42:17.671Z</time></trkpt><trkpt lat="45.1015919" lon="7.941163"><ele>275.0</ele><time>2026-04-12T12:42:18.671Z</time></trkpt><trkpt lat="45.1015423" lon="7.9412909"><ele>277.0</ele><time>2026-04-12T12:42:19.672Z</time></trkpt><trkpt lat="45.1015003" lon="7.9414104"><ele>279.0</ele><time>2026-04-12T12:42:20.672Z</time></trkpt><trkpt lat="45.1014367" lon="7.941472"><ele>281.0</ele><time>2026-04-12T12:42:21.671Z</time></trkpt><trkpt lat="45.1013278" lon="7.9414824"><ele>283.0</ele><time>2026-04-12T12:42:22.672Z</time></trkpt><trkpt lat="45.1012089" lon="7.9414158"><ele>285.0</ele><time>2026-04-12T12:42:23.672Z</time></trkpt><trkpt lat="45.101113" lon="7.9414179"><ele>285.0</ele><time>2026-04-12T12:42:24.672Z</time></trkpt><trkpt lat="45.1010139" lon="7.9414412"><ele>285.0</ele><time>2026-04-12T12:42:25.672Z</time></trkpt><trkpt lat="45.1009138" lon="7.9415297"><ele>285.0</ele><time>2026-04-12T12:42:26.672Z</time></trkpt><trkpt lat="45.1008234" lon="7.9416385"><ele>285.0</ele><time>2026-04-12T12:42:27.672Z</time></trkpt><trkpt lat="45.1007519" lon="7.94178"><ele>283.6666666666667</ele><time>2026-04-12T12:42:28.672Z</time></trkpt><trkpt lat="45.1006681" lon="7.9419714"><ele>282.33333333333337</ele><time>2026-04-12T12:42:29.672Z</time></trkpt><trkpt lat="45.100598" lon="7.9421369"><ele>281.0</ele><time>2026-04-12T12:42:30.672Z</time></trkpt><trkpt lat="45.1005243" lon="7.9423322"><ele>281.0</ele><time>2026-04-12T12:42:31.671Z</time></trkpt><trkpt lat="45.1004546" lon="7.9425376"><ele>281.0</ele><time>2026-04-12T12:42:32.672Z</time></trkpt><trkpt lat="45.1003744" lon="7.9427375"><ele>281.0</ele><time>2026-04-12T12:42:33.672Z</time></trkpt><trkpt lat="45.1002972" lon="7.9429392"><ele>284.33333333333337</ele><time>2026-04-12T12:42:34.672Z</time></trkpt><trkpt lat="45.1002273" lon="7.9431433"><ele>287.6666666666667</ele><time>2026-04-12T12:42:35.672Z</time></trkpt><trkpt lat="45.1001594" lon="7.9433498"><ele>291.0</ele><time>2026-04-12T12:42:36.672Z</time></trkpt><trkpt lat="45.1000981" lon="7.9435685"><ele>289.0</ele><time>2026-04-12T12:42:37.672Z</time></trkpt><trkpt lat="45.1000256" lon="7.9437855"><ele>287.0</ele><time>2026-04-12T12:42:38.672Z</time></trkpt><trkpt lat="45.0999518" lon="7.9439904"><ele>285.0</ele><time>2026-04-12T12:42:39.672Z</time></trkpt><trkpt lat="45.0998803" lon="7.9441872"><ele>286.25</ele><time>2026-04-12T12:42:40.672Z</time></trkpt><trkpt lat="45.099818" lon="7.9443697"><ele>287.5</ele><time>2026-04-12T12:42:41.672Z</time></trkpt><trkpt lat="45.0997738" lon="7.9445347"><ele>288.75</ele><time>2026-04-12T12:42:42.672Z</time></trkpt><trkpt lat="45.099754" lon="7.9447044"><ele>290.0</ele><time>2026-04-12T12:42:43.671Z</time></trkpt><trkpt lat="45.0997592" lon="7.9448632"><ele>290.0</ele><time>2026-04-12T12:42:44.672Z</time></trkpt><trkpt lat="45.0997897" lon="7.9450333"><ele>290.0</ele><time>2026-04-12T12:42:45.672Z</time></trkpt><trkpt lat="45.0998197" lon="7.9452043"><ele>290.0</ele><time>2026-04-12T12:42:46.672Z</time></trkpt><trkpt lat="45.0998197" lon="7.9453717"><ele>290.0</ele><time>2026-04-12T12:42:47.671Z</time></trkpt><trkpt lat="45.099784" lon="7.9454972"><ele>292.6666666666667</ele><time>2026-04-12T12:42:48.671Z</time></trkpt><trkpt lat="45.0997234" lon="7.945585"><ele>295.33333333333337</ele><time>2026-04-12T12:42:49.672Z</time></trkpt><trkpt lat="45.0996746" lon="7.9456786"><ele>298.0</ele><time>2026-04-12T12:42:50.672Z</time></trkpt><trkpt lat="45.0996577" lon="7.9457874"><ele>300.6666666666667</ele><time>2026-04-12T12:42:51.672Z</time></trkpt><trkpt lat="45.0996867" lon="7.9458942"><ele>303.3333333333333</ele><time>2026-04-12T12:42:52.672Z</time></trkpt><trkpt lat="45.099746" lon="7.9459658"><ele>306.0</ele><time>2026-04-12T12:42:53.672Z</time></trkpt><trkpt lat="45.0998243" lon="7.9459583"><ele>306.2</ele><time>2026-04-12T12:42:54.672Z</time></trkpt><trkpt lat="45.0998954" lon="7.9459016"><ele>306.40000000000003</ele><time>2026-04-12T12:42:55.671Z</time></trkpt><trkpt lat="45.0999433" lon="7.9457922"><ele>306.6</ele><time>2026-04-12T12:42:56.672Z</time></trkpt><trkpt lat="45.0999728" lon="7.9456563"><ele>306.8</ele><time>2026-04-12T12:42:57.671Z</time></trkpt><trkpt lat="45.0999854" lon="7.945496"><ele>307.0</ele><time>2026-04-12T12:42:58.672Z</time></trkpt><trkpt lat="45.1000191" lon="7.945327"><ele>307.0</ele><time>2026-04-12T12:42:59.672Z</time></trkpt><trkpt lat="45.1000336" lon="7.9451857"><ele>307.0</ele><time>2026-04-12T12:43:00.672Z</time></trkpt><trkpt lat="45.1000637" lon="7.9450349"><ele>307.0</ele><time>2026-04-12T12:43:01.672Z</time></trkpt><trkpt lat="45.1001179" lon="7.9449041"><ele>307.0</ele><time>2026-04-12T12:43:02.672Z</time></trkpt><trkpt lat="45.1002016" lon="7.9447954"><ele>307.0</ele><time>2026-04-12T12:43:03.672Z</time></trkpt><trkpt lat="45.1002955" lon="7.9446743"><ele>306.0</ele><time>2026-04-12T12:43:04.672Z</time></trkpt><trkpt lat="45.1003956" lon="7.9445486"><ele>305.0</ele><time>2026-04-12T12:43:05.672Z</time></trkpt><trkpt lat="45.1004978" lon="7.9444156"><ele>304.0</ele><time>2026-04-12T12:43:06.672Z</time></trkpt><trkpt lat="45.1006018" lon="7.9442819"><ele>303.0</ele><time>2026-04-12T12:43:07.672Z</time></trkpt><trkpt lat="45.1007045" lon="7.9441446"><ele>304.5</ele><time>2026-04-12T12:43:08.672Z</time></trkpt><trkpt lat="45.100802" lon="7.9440272"><ele>306.0</ele><time>2026-04-12T12:43:09.672Z</time></trkpt><trkpt lat="45.1009024" lon="7.9439268"><ele>307.5</ele><time>2026-04-12T12:43:10.672Z</time></trkpt><trkpt lat="45.1010025" lon="7.9438543"><ele>309.0</ele><time>2026-04-12T12:43:11.672Z</time></trkpt><trkpt lat="45.101099" lon="7.943806"><ele>309.00000000000006</ele><time>2026-04-12T12:43:12.672Z</time></trkpt><trkpt lat="45.1011802" lon="7.9437868"><ele>309.0</ele><time>2026-04-12T12:43:13.672Z</time></trkpt><trkpt lat="45.1012672" lon="7.9438168"><ele>309.0</ele><time>2026-04-12T12:43:14.672Z</time></trkpt><trkpt lat="45.1013154" lon="7.9438851"><ele>309.0</ele><time>2026-04-12T12:43:15.672Z</time></trkpt><trkpt lat="45.1013408" lon="7.9439787"><ele>309.0</ele><time>2026-04-12T12:43:16.671Z</time></trkpt><trkpt lat="45.1013254" lon="7.9440741"><ele>309.00000000000006</ele><time>2026-04-12T12:43:17.671Z</time></trkpt><trkpt lat="45.1012736" lon="7.9441394"><ele>309.0</ele><time>2026-04-12T12:43:18.672Z</time></trkpt><trkpt lat="45.1011915" lon="7.9441553"><ele>309.0</ele><time>2026-04-12T12:43:19.672Z</time></trkpt><trkpt lat="45.1010939" lon="7.944159"><ele>309.0</ele><time>2026-04-12T12:43:20.672Z</time></trkpt><trkpt lat="45.1009958" lon="7.9442111"><ele>309.0</ele><time>2026-04-12T12:43:21.672Z</time></trkpt><trkpt lat="45.1009029" lon="7.9442913"><ele>309.0</ele><time>2026-04-12T12:43:22.672Z</time></trkpt><trkpt lat="45.1008083" lon="7.9444219"><ele>309.0</ele><time>2026-04-12T12:43:23.672Z</time></trkpt><trkpt lat="45.1007373" lon="7.944582"><ele>308.5</ele><time>2026-04-12T12:43:24.672Z</time></trkpt><trkpt lat="45.1006603" lon="7.9447423"><ele>308.0</ele><time>2026-04-12T12:43:25.672Z</time></trkpt><trkpt lat="45.1005908" lon="7.9449137"><ele>307.5</ele><time>2026-04-12T12:43:26.671Z</time></trkpt><trkpt lat="45.1005221" lon="7.9450905"><ele>307.0</ele><time>2026-04-12T12:43:27.672Z</time></trkpt><trkpt lat="45.1004618" lon="7.9452579"><ele>307.0</ele><time>2026-04-12T12:43:28.672Z</time></trkpt><trkpt lat="45.1004287" lon="7.9454328"><ele>307.0</ele><time>2026-04-12T12:43:29.671Z</time></trkpt><trkpt lat="45.1004249" lon="7.9455866"><ele>307.0</ele><time>2026-04-12T12:43:30.672Z</time></trkpt><trkpt lat="45.1004248" lon="7.9457357"><ele>307.0</ele><time>2026-04-12T12:43:31.672Z</time></trkpt><trkpt lat="45.1004548" lon="7.9459048"><ele>309.75</ele><time>2026-04-12T12:43:32.671Z</time></trkpt><trkpt lat="45.100507" lon="7.9460738"><ele>312.5</ele><time>2026-04-12T12:43:33.672Z</time></trkpt><trkpt lat="45.100565" lon="7.9462428"><ele>315.25</ele><time>2026-04-12T12:43:34.672Z</time></trkpt><trkpt lat="45.100612" lon="7.946406"><ele>318.0</ele><time>2026-04-12T12:43:35.672Z</time></trkpt><trkpt lat="45.1006486" lon="7.9465665"><ele>321.75</ele><time>2026-04-12T12:43:36.672Z</time></trkpt><trkpt lat="45.1006593" lon="7.9467344"><ele>325.5</ele><time>2026-04-12T12:43:37.672Z</time></trkpt><trkpt lat="45.100636" lon="7.9468959"><ele>329.25</ele><time>2026-04-12T12:43:38.672Z</time></trkpt><trkpt lat="45.1005823" lon="7.9470403"><ele>333.0</ele><time>2026-04-12T12:43:39.672Z</time></trkpt><trkpt lat="45.1005304" lon="7.9471729"><ele>333.0</ele><time>2026-04-12T12:43:40.672Z</time></trkpt><trkpt lat="45.100404" lon="7.9472299"><ele>333.0</ele><time>2026-04-12T12:43:41.672Z</time></trkpt><trkpt lat="45.1002698" lon="7.9472897"><ele>333.0</ele><time>2026-04-12T12:43:42.672Z</time></trkpt><trkpt lat="45.1001372" lon="7.9473434"><ele>333.0</ele><time>2026-04-12T12:43:43.672Z</time></trkpt><trkpt lat="45.0999971" lon="7.9474044"><ele>333.5</ele><time>2026-04-12T12:43:44.672Z</time></trkpt><trkpt lat="45.0998602" lon="7.9474593"><ele>334.0</ele><time>2026-04-12T12:43:45.672Z</time></trkpt><trkpt lat="45.0997128" lon="7.9475195"><ele>334.5</ele><time>2026-04-12T12:43:46.672Z</time></trkpt><trkpt lat="45.0995724" lon="7.9475783"><ele>335.0</ele><time>2026-04-12T12:43:47.672Z</time></trkpt><trkpt lat="45.0994399" lon="7.9476323"><ele>336.5</ele><time>2026-04-12T12:43:48.672Z</time></trkpt><trkpt lat="45.0993113" lon="7.9477066"><ele>338.0</ele><time>2026-04-12T12:43:49.672Z</time></trkpt><trkpt lat="45.0991869" lon="7.9477946"><ele>339.5</ele><time>2026-04-12T12:43:50.672Z</time></trkpt><trkpt lat="45.0990689" lon="7.9479183"><ele>341.0</ele><time>2026-04-12T12:43:51.672Z</time></trkpt><trkpt lat="45.098964" lon="7.9480496"><ele>341.0</ele><time>2026-04-12T12:43:52.672Z</time></trkpt><trkpt lat="45.09886" lon="7.9482037"><ele>341.0</ele><time>2026-04-12T12:43:53.672Z</time></trkpt><trkpt lat="45.0987549" lon="7.9483554"><ele>341.0</ele><time>2026-04-12T12:43:54.672Z</time></trkpt><trkpt lat="45.0986378" lon="7.948506"><ele>344.33333333333337</ele><time>2026-04-12T12:43:55.672Z</time></trkpt><trkpt lat="45.0985196" lon="7.9486644"><ele>347.6666666666667</ele><time>2026-04-12T12:43:56.672Z</time></trkpt><trkpt lat="45.0983988" lon="7.9488229"><ele>351.0</ele><time>2026-04-12T12:43:57.672Z</time></trkpt><trkpt lat="45.0982754" lon="7.9489574"><ele>352.3333333333333</ele><time>2026-04-12T12:43:58.672Z</time></trkpt><trkpt lat="45.0981352" lon="7.9490749"><ele>353.66666666666663</ele><time>2026-04-12T12:43:59.672Z</time></trkpt><trkpt lat="45.0980103" lon="7.949178"><ele>355.0</ele><time>2026-04-12T12:44:00.672Z</time></trkpt><trkpt lat="45.0978845" lon="7.9492799"><ele>355.0</ele><time>2026-04-12T12:44:01.672Z</time></trkpt><trkpt lat="45.0977701" lon="7.9494024"><ele>355.0</ele><time>2026-04-12T12:44:02.672Z</time></trkpt><trkpt lat="45.0976804" lon="7.9495777"><ele>355.0</ele><time>2026-04-12T12:44:03.672Z</time></trkpt><trkpt lat="45.0975802" lon="7.9497529"><ele>355.0</ele><time>2026-04-12T12:44:04.672Z</time></trkpt><trkpt lat="45.0974809" lon="7.9499399"><ele>355.0</ele><time>2026-04-12T12:44:05.672Z</time></trkpt><trkpt lat="45.0973847" lon="7.9501199"><ele>355.0</ele><time>2026-04-12T12:44:06.672Z</time></trkpt><trkpt lat="45.0972711" lon="7.9502931"><ele>357.66666666666663</ele><time>2026-04-12T12:44:07.671Z</time></trkpt><trkpt lat="45.0971609" lon="7.9504531"><ele>360.3333333333333</ele><time>2026-04-12T12:44:08.672Z</time></trkpt><trkpt lat="45.0970536" lon="7.9506027"><ele>363.0</ele><time>2026-04-12T12:44:09.671Z</time></trkpt><trkpt lat="45.0969406" lon="7.9507363"><ele>363.0</ele><time>2026-04-12T12:44:10.672Z</time></trkpt><trkpt lat="45.096787" lon="7.9508325"><ele>363.0</ele><time>2026-04-12T12:44:11.672Z</time></trkpt><trkpt lat="45.0966728" lon="7.9508847"><ele>363.0</ele><time>2026-04-12T12:44:12.672Z</time></trkpt><trkpt lat="45.0965645" lon="7.9509283"><ele>363.0</ele><time>2026-04-12T12:44:13.672Z</time></trkpt><trkpt lat="45.0964693" lon="7.9509744"><ele>364.6666666666667</ele><time>2026-04-12T12:44:14.672Z</time></trkpt><trkpt lat="45.0963865" lon="7.9510173"><ele>366.3333333333333</ele><time>2026-04-12T12:44:15.672Z</time></trkpt><trkpt lat="45.0963188" lon="7.9510814"><ele>368.0</ele><time>2026-04-12T12:44:16.672Z</time></trkpt><trkpt lat="45.0962838" lon="7.951178"><ele>369.66666666666663</ele><time>2026-04-12T12:44:17.671Z</time></trkpt><trkpt lat="45.0962636" lon="7.9512861"><ele>371.3333333333333</ele><time>2026-04-12T12:44:18.672Z</time></trkpt><trkpt lat="45.0962551" lon="7.9513892"><ele>373.0</ele><time>2026-04-12T12:44:19.672Z</time></trkpt><trkpt lat="45.0963455" lon="7.9514552"><ele>373.0</ele><time>2026-04-12T12:44:20.672Z</time></trkpt><trkpt lat="45.0964309" lon="7.9514981"><ele>373.0</ele><time>2026-04-12T12:44:21.672Z</time></trkpt><trkpt lat="45.0965404" lon="7.9515084"><ele>373.0</ele><time>2026-04-12T12:44:22.672Z</time></trkpt><trkpt lat="45.0966621" lon="7.9514796"><ele>373.0</ele><time>2026-04-12T12:44:23.672Z</time></trkpt><trkpt lat="45.0967903" lon="7.9514402"><ele>374.25</ele><time>2026-04-12T12:44:24.672Z</time></trkpt><trkpt lat="45.0969132" lon="7.9513719"><ele>375.5</ele><time>2026-04-12T12:44:25.672Z</time></trkpt><trkpt lat="45.0970347" lon="7.9512859"><ele>376.75</ele><time>2026-04-12T12:44:26.672Z</time></trkpt><trkpt lat="45.097137" lon="7.9511876"><ele>378.0</ele><time>2026-04-12T12:44:27.672Z</time></trkpt><trkpt lat="45.0972308" lon="7.9511074"><ele>378.0</ele><time>2026-04-12T12:44:28.671Z</time></trkpt><trkpt lat="45.0973136" lon="7.9510189"><ele>378.0</ele><time>2026-04-12T12:44:29.672Z</time></trkpt><trkpt lat="45.0973971" lon="7.950971"><ele>378.0</ele><time>2026-04-12T12:44:30.672Z</time></trkpt><trkpt lat="45.0974592" lon="7.9510005"><ele>378.0</ele><time>2026-04-12T12:44:31.672Z</time></trkpt><trkpt lat="45.0975087" lon="7.9510642"><ele>378.0</ele><time>2026-04-12T12:44:32.672Z</time></trkpt><trkpt lat="45.0974954" lon="7.9512429"><ele>378.0</ele><time>2026-04-12T12:44:34.672Z</time></trkpt><trkpt lat="45.0974317" lon="7.9513193"><ele>378.0</ele><time>2026-04-12T12:44:35.672Z</time></trkpt><trkpt lat="45.0973318" lon="7.9513907"><ele>378.0</ele><time>2026-04-12T12:44:36.672Z</time></trkpt><trkpt lat="45.0972265" lon="7.951476"><ele>378.0</ele><time>2026-04-12T12:44:37.672Z</time></trkpt><trkpt lat="45.0971054" lon="7.9515707"><ele>378.0</ele><time>2026-04-12T12:44:38.671Z</time></trkpt><trkpt lat="45.0969819" lon="7.9516784"><ele>378.0</ele><time>2026-04-12T12:44:39.672Z</time></trkpt><trkpt lat="45.0968578" lon="7.9517867"><ele>378.0</ele><time>2026-04-12T12:44:40.672Z</time></trkpt><trkpt lat="45.0967303" lon="7.9518686"><ele>378.0</ele><time>2026-04-12T12:44:41.672Z</time></trkpt><trkpt lat="45.0965953" lon="7.9519292"><ele>381.5</ele><time>2026-04-12T12:44:42.672Z</time></trkpt><trkpt lat="45.0964699" lon="7.9520029"><ele>385.0</ele><time>2026-04-12T12:44:43.671Z</time></trkpt><trkpt lat="45.0963398" lon="7.9520602"><ele>388.5</ele><time>2026-04-12T12:44:44.672Z</time></trkpt><trkpt lat="45.0962228" lon="7.952112"><ele>392.0</ele><time>2026-04-12T12:44:45.672Z</time></trkpt><trkpt lat="45.0961044" lon="7.9521676"><ele>392.0</ele><time>2026-04-12T12:44:46.672Z</time></trkpt><trkpt lat="45.0959995" lon="7.9522306"><ele>392.0</ele><time>2026-04-12T12:44:47.672Z</time></trkpt><trkpt lat="45.0958977" lon="7.9523222"><ele>392.0</ele><time>2026-04-12T12:44:48.672Z</time></trkpt><trkpt lat="45.0958057" lon="7.9524293"><ele>392.0</ele><time>2026-04-12T12:44:49.672Z</time></trkpt><trkpt lat="45.0957074" lon="7.9525237"><ele>392.40000000000003</ele><time>2026-04-12T12:44:50.671Z</time></trkpt><trkpt lat="45.0956343" lon="7.9526353"><ele>392.8</ele><time>2026-04-12T12:44:51.672Z</time></trkpt><trkpt lat="45.0955766" lon="7.9527349"><ele>393.2</ele><time>2026-04-12T12:44:52.672Z</time></trkpt><trkpt lat="45.0955164" lon="7.9528028"><ele>393.6</ele><time>2026-04-12T12:44:53.672Z</time></trkpt><trkpt lat="45.0954657" lon="7.952859"><ele>394.0</ele><time>2026-04-12T12:44:54.672Z</time></trkpt><trkpt lat="45.095369" lon="7.9529454"><ele>394.0</ele><time>2026-04-12T12:44:56.672Z</time></trkpt><trkpt lat="45.0952665" lon="7.9529671"><ele>394.0</ele><time>2026-04-12T12:44:58.672Z</time></trkpt><trkpt lat="45.095229" lon="7.9530777"><ele>394.0</ele><time>2026-04-12T12:45:01.672Z</time></trkpt><trkpt lat="45.0952582" lon="7.9532486"><ele>394.0</ele><time>2026-04-12T12:45:03.672Z</time></trkpt><trkpt lat="45.0952936" lon="7.9533306"><ele>394.0</ele><time>2026-04-12T12:45:04.671Z</time></trkpt><trkpt lat="45.0953361" lon="7.9534183"><ele>393.79999999999995</ele><time>2026-04-12T12:45:05.672Z</time></trkpt><trkpt lat="45.0953741" lon="7.9535272"><ele>393.59999999999997</ele><time>2026-04-12T12:45:06.671Z</time></trkpt><trkpt lat="45.095394" lon="7.9536564"><ele>393.4</ele><time>2026-04-12T12:45:07.672Z</time></trkpt><trkpt lat="45.0953855" lon="7.9537831"><ele>393.2</ele><time>2026-04-12T12:45:08.672Z</time></trkpt><trkpt lat="45.0953613" lon="7.9539179"><ele>393.0</ele><time>2026-04-12T12:45:09.672Z</time></trkpt><trkpt lat="45.0953449" lon="7.9540467"><ele>393.0</ele><time>2026-04-12T12:45:10.672Z</time></trkpt><trkpt lat="45.0953188" lon="7.954186"><ele>393.0</ele><time>2026-04-12T12:45:11.672Z</time></trkpt><trkpt lat="45.0952742" lon="7.9543198"><ele>393.0</ele><time>2026-04-12T12:45:12.671Z</time></trkpt><trkpt lat="45.0952279" lon="7.9544439"><ele>393.0</ele><time>2026-04-12T12:45:13.672Z</time></trkpt><trkpt lat="45.0951704" lon="7.9545648"><ele>393.0</ele><time>2026-04-12T12:45:14.672Z</time></trkpt><trkpt lat="45.0951076" lon="7.9546866"><ele>393.0</ele><time>2026-04-12T12:45:15.672Z</time></trkpt><trkpt lat="45.0950273" lon="7.9548098"><ele>393.0</ele><time>2026-04-12T12:45:16.672Z</time></trkpt><trkpt lat="45.0949512" lon="7.9549363"><ele>393.0</ele><time>2026-04-12T12:45:17.672Z</time></trkpt><trkpt lat="45.0948748" lon="7.9550574"><ele>393.0</ele><time>2026-04-12T12:45:18.672Z</time></trkpt><trkpt lat="45.0947937" lon="7.9551716"><ele>393.0</ele><time>2026-04-12T12:45:19.672Z</time></trkpt><trkpt lat="45.0946979" lon="7.9552897"><ele>393.0</ele><time>2026-04-12T12:45:20.672Z</time></trkpt><trkpt lat="45.0945949" lon="7.9554151"><ele>393.0</ele><time>2026-04-12T12:45:21.672Z</time></trkpt><trkpt lat="45.0944915" lon="7.9555358"><ele>393.0</ele><time>2026-04-12T12:45:22.671Z</time></trkpt><trkpt lat="45.0943845" lon="7.955652"><ele>393.0</ele><time>2026-04-12T12:45:23.672Z</time></trkpt><trkpt lat="45.0942723" lon="7.9557707"><ele>393.0</ele><time>2026-04-12T12:45:24.672Z</time></trkpt><trkpt lat="45.094172" lon="7.9558964"><ele>393.0</ele><time>2026-04-12T12:45:25.672Z</time></trkpt><trkpt lat="45.0940662" lon="7.9560147"><ele>393.0</ele><time>2026-04-12T12:45:26.672Z</time></trkpt><trkpt lat="45.0939647" lon="7.9561362"><ele>392.0</ele><time>2026-04-12T12:45:27.672Z</time></trkpt><trkpt lat="45.093858" lon="7.9562572"><ele>391.0</ele><time>2026-04-12T12:45:28.672Z</time></trkpt><trkpt lat="45.0937438" lon="7.9563822"><ele>390.0</ele><time>2026-04-12T12:45:29.672Z</time></trkpt><trkpt lat="45.0936271" lon="7.9564952"><ele>389.0</ele><time>2026-04-12T12:45:30.672Z</time></trkpt><trkpt lat="45.0935014" lon="7.9566111"><ele>390.66666666666663</ele><time>2026-04-12T12:45:31.672Z</time></trkpt><trkpt lat="45.0933681" lon="7.9567174"><ele>392.33333333333337</ele><time>2026-04-12T12:45:32.672Z</time></trkpt><trkpt lat="45.0932382" lon="7.9568274"><ele>394.0</ele><time>2026-04-12T12:45:33.672Z</time></trkpt><trkpt lat="45.0931132" lon="7.9569408"><ele>390.25</ele><time>2026-04-12T12:45:34.672Z</time></trkpt><trkpt lat="45.0929994" lon="7.9570365"><ele>386.5</ele><time>2026-04-12T12:45:35.672Z</time></trkpt><trkpt lat="45.0929007" lon="7.9571405"><ele>382.75</ele><time>2026-04-12T12:45:36.672Z</time></trkpt><trkpt lat="45.0928213" lon="7.9572716"><ele>379.0</ele><time>2026-04-12T12:45:37.672Z</time></trkpt><trkpt lat="45.0927589" lon="7.9574096"><ele>378.5</ele><time>2026-04-12T12:45:38.672Z</time></trkpt><trkpt lat="45.0927305" lon="7.9575947"><ele>378.0</ele><time>2026-04-12T12:45:39.672Z</time></trkpt><trkpt lat="45.0927497" lon="7.9577987"><ele>377.5</ele><time>2026-04-12T12:45:40.672Z</time></trkpt><trkpt lat="45.0927513" lon="7.9579977"><ele>377.0</ele><time>2026-04-12T12:45:41.671Z</time></trkpt><trkpt lat="45.0927388" lon="7.958204"><ele>377.0</ele><time>2026-04-12T12:45:42.672Z</time></trkpt><trkpt lat="45.0927331" lon="7.9584153"><ele>377.0</ele><time>2026-04-12T12:45:43.672Z</time></trkpt><trkpt lat="45.0927232" lon="7.9586241"><ele>377.0</ele><time>2026-04-12T12:45:44.672Z</time></trkpt><trkpt lat="45.0927168" lon="7.9588456"><ele>377.0</ele><time>2026-04-12T12:45:45.672Z</time></trkpt><trkpt lat="45.0927003" lon="7.9590609"><ele>377.0</ele><time>2026-04-12T12:45:46.672Z</time></trkpt><trkpt lat="45.092661" lon="7.9592721"><ele>377.0</ele><time>2026-04-12T12:45:47.672Z</time></trkpt><trkpt lat="45.0925977" lon="7.9594821"><ele>377.6666666666667</ele><time>2026-04-12T12:45:48.672Z</time></trkpt><trkpt lat="45.0925039" lon="7.9596815"><ele>378.3333333333333</ele><time>2026-04-12T12:45:49.672Z</time></trkpt><trkpt lat="45.0924189" lon="7.9598725"><ele>379.0</ele><time>2026-04-12T12:45:50.672Z</time></trkpt><trkpt lat="45.0923331" lon="7.9600695"><ele>380.66666666666663</ele><time>2026-04-12T12:45:51.672Z</time></trkpt><trkpt lat="45.0922393" lon="7.9602647"><ele>382.3333333333333</ele><time>2026-04-12T12:45:52.672Z</time></trkpt><trkpt lat="45.092143" lon="7.9604612"><ele>384.0</ele><time>2026-04-12T12:45:53.672Z</time></trkpt><trkpt lat="45.0920516" lon="7.9606642"><ele>384.0</ele><time>2026-04-12T12:45:54.672Z</time></trkpt><trkpt lat="45.0919524" lon="7.9608502"><ele>384.0</ele><time>2026-04-12T12:45:55.672Z</time></trkpt><trkpt lat="45.0918599" lon="7.9610489"><ele>384.0</ele><time>2026-04-12T12:45:56.672Z</time></trkpt><trkpt lat="45.0917724" lon="7.9612332"><ele>383.6666666666667</ele><time>2026-04-12T12:45:57.672Z</time></trkpt><trkpt lat="45.0916732" lon="7.9614152"><ele>383.33333333333337</ele><time>2026-04-12T12:45:58.672Z</time></trkpt><trkpt lat="45.0915778" lon="7.961605"><ele>383.0</ele><time>2026-04-12T12:45:59.672Z</time></trkpt><trkpt lat="45.0914801" lon="7.9617883"><ele>387.25</ele><time>2026-04-12T12:46:00.672Z</time></trkpt><trkpt lat="45.0913917" lon="7.9619637"><ele>391.5</ele><time>2026-04-12T12:46:01.672Z</time></trkpt><trkpt lat="45.0913165" lon="7.962132"><ele>395.75</ele><time>2026-04-12T12:46:02.672Z</time></trkpt><trkpt lat="45.0912589" lon="7.9623103"><ele>400.0</ele><time>2026-04-12T12:46:03.672Z</time></trkpt><trkpt lat="45.0912334" lon="7.9624883"><ele>399.25</ele><time>2026-04-12T12:46:04.672Z</time></trkpt><trkpt lat="45.0912367" lon="7.962677"><ele>398.5</ele><time>2026-04-12T12:46:05.672Z</time></trkpt><trkpt lat="45.0912687" lon="7.962873"><ele>397.75</ele><time>2026-04-12T12:46:06.672Z</time></trkpt><trkpt lat="45.091322" lon="7.9630828"><ele>397.0</ele><time>2026-04-12T12:46:07.672Z</time></trkpt><trkpt lat="45.091366" lon="7.9632671"><ele>399.25</ele><time>2026-04-12T12:46:08.672Z</time></trkpt><trkpt lat="45.0914254" lon="7.9634497"><ele>401.5</ele><time>2026-04-12T12:46:09.672Z</time></trkpt><trkpt lat="45.0914484" lon="7.9636086"><ele>403.75</ele><time>2026-04-12T12:46:10.671Z</time></trkpt><trkpt lat="45.0914566" lon="7.9637723"><ele>406.0</ele><time>2026-04-12T12:46:11.671Z</time></trkpt><trkpt lat="45.0914633" lon="7.9639411"><ele>406.0</ele><time>2026-04-12T12:46:12.672Z</time></trkpt><trkpt lat="45.0914169" lon="7.9640985"><ele>406.0</ele><time>2026-04-12T12:46:13.672Z</time></trkpt><trkpt lat="45.091319" lon="7.9642034"><ele>406.0</ele><time>2026-04-12T12:46:14.672Z</time></trkpt><trkpt lat="45.0912115" lon="7.9642844"><ele>406.0</ele><time>2026-04-12T12:46:15.672Z</time></trkpt><trkpt lat="45.0910989" lon="7.9643193"><ele>411.0</ele><time>2026-04-12T12:46:16.672Z</time></trkpt><trkpt lat="45.0909328" lon="7.9643495"><ele>416.0</ele><time>2026-04-12T12:46:17.672Z</time></trkpt><trkpt lat="45.090775" lon="7.9643938"><ele>421.0</ele><time>2026-04-12T12:46:18.672Z</time></trkpt><trkpt lat="45.0906169" lon="7.9644254"><ele>421.0</ele><time>2026-04-12T12:46:19.672Z</time></trkpt><trkpt lat="45.0904607" lon="7.9644664"><ele>421.0</ele><time>2026-04-12T12:46:20.672Z</time></trkpt><trkpt lat="45.0903033" lon="7.9645016"><ele>421.0</ele><time>2026-04-12T12:46:21.672Z</time></trkpt><trkpt lat="45.0901611" lon="7.9645411"><ele>421.0</ele><time>2026-04-12T12:46:22.671Z</time></trkpt><trkpt lat="45.0900458" lon="7.9645556"><ele>421.0</ele><time>2026-04-12T12:46:23.672Z</time></trkpt><trkpt lat="45.0899302" lon="7.9645358"><ele>421.0</ele><time>2026-04-12T12:46:24.672Z</time></trkpt><trkpt lat="45.0898179" lon="7.9644765"><ele>421.0</ele><time>2026-04-12T12:46:25.672Z</time></trkpt><trkpt lat="45.0897269" lon="7.9643792"><ele>420.8</ele><time>2026-04-12T12:46:26.672Z</time></trkpt><trkpt lat="45.0896506" lon="7.9642688"><ele>420.6</ele><time>2026-04-12T12:46:27.672Z</time></trkpt><trkpt lat="45.0895891" lon="7.9641651"><ele>420.4</ele><time>2026-04-12T12:46:28.672Z</time></trkpt><trkpt lat="45.089525" lon="7.9640988"><ele>420.2</ele><time>2026-04-12T12:46:29.672Z</time></trkpt><trkpt lat="45.0894301" lon="7.9640722"><ele>420.0</ele><time>2026-04-12T12:46:30.672Z</time></trkpt><trkpt lat="45.0893586" lon="7.9640798"><ele>420.0</ele><time>2026-04-12T12:46:31.672Z</time></trkpt><trkpt lat="45.0893153" lon="7.9641648"><ele>420.0</ele><time>2026-04-12T12:46:32.672Z</time></trkpt><trkpt lat="45.089312" lon="7.964255"><ele>420.0</ele><time>2026-04-12T12:46:33.672Z</time></trkpt><trkpt lat="45.0893253" lon="7.9643691"><ele>420.0</ele><time>2026-04-12T12:46:34.672Z</time></trkpt><trkpt lat="45.0893729" lon="7.9644921"><ele>420.0</ele><time>2026-04-12T12:46:35.672Z</time></trkpt><trkpt lat="45.0894346" lon="7.964632"><ele>420.0</ele><time>2026-04-12T12:46:36.672Z</time></trkpt><trkpt lat="45.089488" lon="7.9647706"><ele>420.5</ele><time>2026-04-12T12:46:37.672Z</time></trkpt><trkpt lat="45.0895117" lon="7.964894"><ele>421.0</ele><time>2026-04-12T12:46:38.671Z</time></trkpt><trkpt lat="45.0895163" lon="7.9650132"><ele>421.5</ele><time>2026-04-12T12:46:39.672Z</time></trkpt><trkpt lat="45.0894972" lon="7.9651288"><ele>422.0</ele><time>2026-04-12T12:46:40.671Z</time></trkpt><trkpt lat="45.0894488" lon="7.9652101"><ele>422.5</ele><time>2026-04-12T12:46:41.672Z</time></trkpt><trkpt lat="45.0893624" lon="7.9652283"><ele>423.0</ele><time>2026-04-12T12:46:42.672Z</time></trkpt><trkpt lat="45.0892769" lon="7.9652081"><ele>420.25</ele><time>2026-04-12T12:46:43.672Z</time></trkpt><trkpt lat="45.0891868" lon="7.9651308"><ele>417.5</ele><time>2026-04-12T12:46:44.672Z</time></trkpt><trkpt lat="45.0890992" lon="7.9650399"><ele>414.75</ele><time>2026-04-12T12:46:45.672Z</time></trkpt><trkpt lat="45.0890151" lon="7.9648854"><ele>412.0</ele><time>2026-04-12T12:46:46.672Z</time></trkpt><trkpt lat="45.0889295" lon="7.9647491"><ele>417.5</ele><time>2026-04-12T12:46:47.671Z</time></trkpt><trkpt lat="45.0888367" lon="7.9646011"><ele>423.0</ele><time>2026-04-12T12:46:48.672Z</time></trkpt><trkpt lat="45.0887365" lon="7.9644502"><ele>428.5</ele><time>2026-04-12T12:46:49.672Z</time></trkpt><trkpt lat="45.0886237" lon="7.9643183"><ele>434.0</ele><time>2026-04-12T12:46:50.672Z</time></trkpt><trkpt lat="45.0885098" lon="7.964199"><ele>435.0</ele><time>2026-04-12T12:46:51.672Z</time></trkpt><trkpt lat="45.0883816" lon="7.9640788"><ele>436.0</ele><time>2026-04-12T12:46:52.672Z</time></trkpt><trkpt lat="45.0882512" lon="7.963956"><ele>437.0</ele><time>2026-04-12T12:46:53.672Z</time></trkpt><trkpt lat="45.0881338" lon="7.9638407"><ele>440.25</ele><time>2026-04-12T12:46:54.672Z</time></trkpt><trkpt lat="45.0880119" lon="7.9637403"><ele>443.5</ele><time>2026-04-12T12:46:55.672Z</time></trkpt><trkpt lat="45.0878926" lon="7.9636555"><ele>446.75</ele><time>2026-04-12T12:46:56.671Z</time></trkpt><trkpt lat="45.0877868" lon="7.9635962"><ele>450.0</ele><time>2026-04-12T12:46:57.672Z</time></trkpt><trkpt lat="45.0876883" lon="7.9635534"><ele>450.0</ele><time>2026-04-12T12:46:58.672Z</time></trkpt><trkpt lat="45.0875991" lon="7.9635031"><ele>450.0</ele><time>2026-04-12T12:46:59.672Z</time></trkpt><trkpt lat="45.0875407" lon="7.963417"><ele>450.0</ele><time>2026-04-12T12:47:00.672Z</time></trkpt><trkpt lat="45.0875155" lon="7.9633061"><ele>450.0</ele><time>2026-04-12T12:47:01.672Z</time></trkpt><trkpt lat="45.0875258" lon="7.9631785"><ele>450.0</ele><time>2026-04-12T12:47:02.672Z</time></trkpt><trkpt lat="45.087567" lon="7.963043"><ele>449.6</ele><time>2026-04-12T12:47:03.672Z</time></trkpt><trkpt lat="45.0876404" lon="7.9629145"><ele>449.2</ele><time>2026-04-12T12:47:04.672Z</time></trkpt><trkpt lat="45.0877315" lon="7.9628191"><ele>448.79999999999995</ele><time>2026-04-12T12:47:05.672Z</time></trkpt><trkpt lat="45.0878179" lon="7.9627478"><ele>448.4</ele><time>2026-04-12T12:47:06.672Z</time></trkpt><trkpt lat="45.0878926" lon="7.9626711"><ele>448.0</ele><time>2026-04-12T12:47:07.672Z</time></trkpt><trkpt lat="45.0879644" lon="7.9625784"><ele>449.2</ele><time>2026-04-12T12:47:08.672Z</time></trkpt><trkpt lat="45.0879943" lon="7.9624592"><ele>450.4</ele><time>2026-04-12T12:47:09.672Z</time></trkpt><trkpt lat="45.0879906" lon="7.9623285"><ele>451.59999999999997</ele><time>2026-04-12T12:47:10.671Z</time></trkpt><trkpt lat="45.0879411" lon="7.9622122"><ele>452.79999999999995</ele><time>2026-04-12T12:47:11.672Z</time></trkpt><trkpt lat="45.0878655" lon="7.9621414"><ele>454.0</ele><time>2026-04-12T12:47:12.672Z</time></trkpt><trkpt lat="45.0877805" lon="7.9621291"><ele>454.0</ele><time>2026-04-12T12:47:13.672Z</time></trkpt><trkpt lat="45.0876849" lon="7.9621685"><ele>454.0</ele><time>2026-04-12T12:47:14.672Z</time></trkpt><trkpt lat="45.0875685" lon="7.9622338"><ele>454.0</ele><time>2026-04-12T12:47:15.671Z</time></trkpt><trkpt lat="45.0874398" lon="7.9622888"><ele>454.0</ele><time>2026-04-12T12:47:16.672Z</time></trkpt><trkpt lat="45.087314" lon="7.9623528"><ele>454.25</ele><time>2026-04-12T12:47:17.672Z</time></trkpt><trkpt lat="45.0871865" lon="7.962421"><ele>454.5</ele><time>2026-04-12T12:47:18.672Z</time></trkpt><trkpt lat="45.0870494" lon="7.9624831"><ele>454.75</ele><time>2026-04-12T12:47:19.672Z</time></trkpt><trkpt lat="45.0869042" lon="7.9625463"><ele>455.0</ele><time>2026-04-12T12:47:20.672Z</time></trkpt><trkpt lat="45.0867641" lon="7.9626177"><ele>455.0</ele><time>2026-04-12T12:47:21.672Z</time></trkpt><trkpt lat="45.0866216" lon="7.9626758"><ele>455.0</ele><time>2026-04-12T12:47:22.672Z</time></trkpt><trkpt lat="45.0864858" lon="7.9627069"><ele>455.0</ele><time>2026-04-12T12:47:23.672Z</time></trkpt><trkpt lat="45.0863382" lon="7.9627281"><ele>455.0</ele><time>2026-04-12T12:47:24.672Z</time></trkpt><trkpt lat="45.0861878" lon="7.9627389"><ele>457.25</ele><time>2026-04-12T12:47:25.672Z</time></trkpt><trkpt lat="45.0860406" lon="7.9627414"><ele>459.5</ele><time>2026-04-12T12:47:26.672Z</time></trkpt><trkpt lat="45.0858876" lon="7.9627302"><ele>461.75</ele><time>2026-04-12T12:47:27.672Z</time></trkpt><trkpt lat="45.0857449" lon="7.9627073"><ele>464.0</ele><time>2026-04-12T12:47:28.672Z</time></trkpt><trkpt lat="45.085605" lon="7.9627129"><ele>469.75</ele><time>2026-04-12T12:47:29.672Z</time></trkpt><trkpt lat="45.0854811" lon="7.9627386"><ele>475.5</ele><time>2026-04-12T12:47:30.671Z</time></trkpt><trkpt lat="45.0853628" lon="7.9627825"><ele>481.25</ele><time>2026-04-12T12:47:31.672Z</time></trkpt><trkpt lat="45.085263" lon="7.9628659"><ele>487.0</ele><time>2026-04-12T12:47:32.671Z</time></trkpt><trkpt lat="45.0851599" lon="7.9629701"><ele>487.0</ele><time>2026-04-12T12:47:33.672Z</time></trkpt><trkpt lat="45.085123" lon="7.963122"><ele>487.00000000000006</ele><time>2026-04-12T12:47:34.672Z</time></trkpt><trkpt lat="45.0850852" lon="7.9632603"><ele>487.00000000000006</ele><time>2026-04-12T12:47:35.672Z</time></trkpt><trkpt lat="45.0850344" lon="7.9633806"><ele>487.0</ele><time>2026-04-12T12:47:36.672Z</time></trkpt><trkpt lat="45.0849702" lon="7.9634733"><ele>487.0</ele><time>2026-04-12T12:47:37.672Z</time></trkpt><trkpt lat="45.084874" lon="7.9634748"><ele>487.0</ele><time>2026-04-12T12:47:38.671Z</time></trkpt><trkpt lat="45.0847844" lon="7.9634283"><ele>487.00000000000006</ele><time>2026-04-12T12:47:39.672Z</time></trkpt><trkpt lat="45.084681" lon="7.9633415"><ele>487.00000000000006</ele><time>2026-04-12T12:47:40.672Z</time></trkpt><trkpt lat="45.0845908" lon="7.9632345"><ele>487.0</ele><time>2026-04-12T12:47:41.672Z</time></trkpt><trkpt lat="45.0845188" lon="7.9631084"><ele>487.0</ele><time>2026-04-12T12:47:42.672Z</time></trkpt><trkpt lat="45.0844094" lon="7.9630071"><ele>487.0</ele><time>2026-04-12T12:47:43.672Z</time></trkpt><trkpt lat="45.0842985" lon="7.9629373"><ele>487.0</ele><time>2026-04-12T12:47:44.672Z</time></trkpt><trkpt lat="45.0841651" lon="7.9629099"><ele>487.0</ele><time>2026-04-12T12:47:45.672Z</time></trkpt><trkpt lat="45.0840306" lon="7.9628875"><ele>487.0</ele><time>2026-04-12T12:47:46.672Z</time></trkpt><trkpt lat="45.0838856" lon="7.9629259"><ele>488.33333333333337</ele><time>2026-04-12T12:47:47.672Z</time></trkpt><trkpt lat="45.0837357" lon="7.9629728"><ele>489.66666666666663</ele><time>2026-04-12T12:47:48.672Z</time></trkpt><trkpt lat="45.0835871" lon="7.9630171"><ele>491.0</ele><time>2026-04-12T12:47:49.672Z</time></trkpt><trkpt lat="45.0834395" lon="7.9630593"><ele>491.0</ele><time>2026-04-12T12:47:50.672Z</time></trkpt><trkpt lat="45.0832859" lon="7.9631116"><ele>491.0</ele><time>2026-04-12T12:47:51.672Z</time></trkpt><trkpt lat="45.0831459" lon="7.9632014"><ele>491.0</ele><time>2026-04-12T12:47:52.672Z</time></trkpt><trkpt lat="45.0829976" lon="7.9633241"><ele>495.0</ele><time>2026-04-12T12:47:53.672Z</time></trkpt><trkpt lat="45.0828641" lon="7.9634518"><ele>499.0</ele><time>2026-04-12T12:47:54.672Z</time></trkpt><trkpt lat="45.0827243" lon="7.9635876"><ele>503.0</ele><time>2026-04-12T12:47:55.672Z</time></trkpt><trkpt lat="45.0825849" lon="7.9637053"><ele>503.0</ele><time>2026-04-12T12:47:56.672Z</time></trkpt><trkpt lat="45.0824421" lon="7.9638141"><ele>503.0</ele><time>2026-04-12T12:47:57.672Z</time></trkpt><trkpt lat="45.0822986" lon="7.9639109"><ele>503.0</ele><time>2026-04-12T12:47:58.672Z</time></trkpt><trkpt lat="45.0821541" lon="7.9639901"><ele>506.75</ele><time>2026-04-12T12:47:59.672Z</time></trkpt><trkpt lat="45.0820144" lon="7.9640848"><ele>510.5</ele><time>2026-04-12T12:48:00.672Z</time></trkpt><trkpt lat="45.0818777" lon="7.9641679"><ele>514.25</ele><time>2026-04-12T12:48:01.672Z</time></trkpt><trkpt lat="45.0817674" lon="7.9642549"><ele>518.0</ele><time>2026-04-12T12:48:02.672Z</time></trkpt><trkpt lat="45.0816565" lon="7.9643285"><ele>514.25</ele><time>2026-04-12T12:48:03.672Z</time></trkpt><trkpt lat="45.0815552" lon="7.9644035"><ele>510.5</ele><time>2026-04-12T12:48:04.672Z</time></trkpt><trkpt lat="45.081487" lon="7.9645278"><ele>506.75</ele><time>2026-04-12T12:48:05.672Z</time></trkpt><trkpt lat="45.0814315" lon="7.964681"><ele>503.0</ele><time>2026-04-12T12:48:06.672Z</time></trkpt><trkpt lat="45.0814053" lon="7.9648633"><ele>502.75</ele><time>2026-04-12T12:48:07.672Z</time></trkpt><trkpt lat="45.0813833" lon="7.9650392"><ele>502.5</ele><time>2026-04-12T12:48:08.672Z</time></trkpt><trkpt lat="45.0813673" lon="7.9652515"><ele>502.25</ele><time>2026-04-12T12:48:09.672Z</time></trkpt><trkpt lat="45.0813317" lon="7.9654567"><ele>502.0</ele><time>2026-04-12T12:48:10.672Z</time></trkpt><trkpt lat="45.0812618" lon="7.9656603"><ele>502.0</ele><time>2026-04-12T12:48:11.672Z</time></trkpt><trkpt lat="45.0811843" lon="7.9658462"><ele>502.0</ele><time>2026-04-12T12:48:12.672Z</time></trkpt><trkpt lat="45.0810967" lon="7.9660335"><ele>502.0</ele><time>2026-04-12T12:48:13.671Z</time></trkpt><trkpt lat="45.0810025" lon="7.9662151"><ele>500.33333333333337</ele><time>2026-04-12T12:48:14.672Z</time></trkpt><trkpt lat="45.0809138" lon="7.966405"><ele>498.66666666666663</ele><time>2026-04-12T12:48:15.672Z</time></trkpt><trkpt lat="45.0808173" lon="7.9665952"><ele>497.0</ele><time>2026-04-12T12:48:16.672Z</time></trkpt><trkpt lat="45.0807209" lon="7.966797"><ele>497.0</ele><time>2026-04-12T12:48:17.672Z</time></trkpt><trkpt lat="45.0806261" lon="7.9669897"><ele>497.0</ele><time>2026-04-12T12:48:18.672Z</time></trkpt><trkpt lat="45.0805287" lon="7.9671851"><ele>497.0</ele><time>2026-04-12T12:48:19.672Z</time></trkpt><trkpt lat="45.0804298" lon="7.9673725"><ele>500.0</ele><time>2026-04-12T12:48:20.672Z</time></trkpt><trkpt lat="45.0803269" lon="7.9675477"><ele>503.0</ele><time>2026-04-12T12:48:21.671Z</time></trkpt><trkpt lat="45.0802297" lon="7.9677189"><ele>506.0</ele><time>2026-04-12T12:48:22.672Z</time></trkpt><trkpt lat="45.0801397" lon="7.9678811"><ele>506.0</ele><time>2026-04-12T12:48:23.672Z</time></trkpt><trkpt lat="45.0800548" lon="7.9680311"><ele>506.0</ele><time>2026-04-12T12:48:24.672Z</time></trkpt><trkpt lat="45.0799721" lon="7.9681797"><ele>506.0</ele><time>2026-04-12T12:48:25.672Z</time></trkpt><trkpt lat="45.0798958" lon="7.9683021"><ele>506.0</ele><time>2026-04-12T12:48:26.672Z</time></trkpt><trkpt lat="45.0798214" lon="7.9684038"><ele>509.20000000000005</ele><time>2026-04-12T12:48:27.672Z</time></trkpt><trkpt lat="45.0797518" lon="7.9684863"><ele>512.4000000000001</ele><time>2026-04-12T12:48:28.672Z</time></trkpt><trkpt lat="45.0796727" lon="7.9685404"><ele>515.6</ele><time>2026-04-12T12:48:29.672Z</time></trkpt><trkpt lat="45.0795846" lon="7.9685856"><ele>518.8000000000001</ele><time>2026-04-12T12:48:30.672Z</time></trkpt><trkpt lat="45.0794978" lon="7.9686237"><ele>522.0</ele><time>2026-04-12T12:48:31.671Z</time></trkpt><trkpt lat="45.0794024" lon="7.9686277"><ele>522.0</ele><time>2026-04-12T12:48:32.672Z</time></trkpt><trkpt lat="45.0793016" lon="7.9685933"><ele>522.0</ele><time>2026-04-12T12:48:33.672Z</time></trkpt><trkpt lat="45.0791953" lon="7.9685218"><ele>522.0</ele><time>2026-04-12T12:48:34.672Z</time></trkpt><trkpt lat="45.0790906" lon="7.9684197"><ele>522.0</ele><time>2026-04-12T12:48:35.671Z</time></trkpt><trkpt lat="45.0789872" lon="7.9682994"><ele>519.0</ele><time>2026-04-12T12:48:36.672Z</time></trkpt><trkpt lat="45.0788823" lon="7.9681735"><ele>516.0</ele><time>2026-04-12T12:48:37.672Z</time></trkpt><trkpt lat="45.0787653" lon="7.9680488"><ele>513.0</ele><time>2026-04-12T12:48:38.672Z</time></trkpt><trkpt lat="45.0786715" lon="7.9679252"><ele>510.0</ele><time>2026-04-12T12:48:39.672Z</time></trkpt><trkpt lat="45.0785652" lon="7.9678039"><ele>510.0</ele><time>2026-04-12T12:48:40.672Z</time></trkpt><trkpt lat="45.0784549" lon="7.9676997"><ele>510.0</ele><time>2026-04-12T12:48:41.671Z</time></trkpt><trkpt lat="45.0783338" lon="7.9676298"><ele>510.0</ele><time>2026-04-12T12:48:42.672Z</time></trkpt><trkpt lat="45.0781996" lon="7.9675784"><ele>510.0</ele><time>2026-04-12T12:48:43.672Z</time></trkpt><trkpt lat="45.0780626" lon="7.9675612"><ele>509.25</ele><time>2026-04-12T12:48:44.672Z</time></trkpt><trkpt lat="45.0779224" lon="7.9675909"><ele>508.5</ele><time>2026-04-12T12:48:45.671Z</time></trkpt><trkpt lat="45.0777894" lon="7.9676443"><ele>507.75</ele><time>2026-04-12T12:48:46.672Z</time></trkpt><trkpt lat="45.0776619" lon="7.9677217"><ele>507.0</ele><time>2026-04-12T12:48:47.672Z</time></trkpt><trkpt lat="45.0775395" lon="7.9678087"><ele>505.0</ele><time>2026-04-12T12:48:48.672Z</time></trkpt><trkpt lat="45.0774075" lon="7.9678972"><ele>503.0</ele><time>2026-04-12T12:48:49.672Z</time></trkpt><trkpt lat="45.0772727" lon="7.9679824"><ele>501.0</ele><time>2026-04-12T12:48:50.672Z</time></trkpt><trkpt lat="45.0771387" lon="7.9680707"><ele>499.0</ele><time>2026-04-12T12:48:51.672Z</time></trkpt><trkpt lat="45.0770106" lon="7.9681515"><ele>499.0</ele><time>2026-04-12T12:48:52.671Z</time></trkpt><trkpt lat="45.0768891" lon="7.9682315"><ele>499.0</ele><time>2026-04-12T12:48:53.672Z</time></trkpt><trkpt lat="45.0767679" lon="7.9683006"><ele>499.0</ele><time>2026-04-12T12:48:54.672Z</time></trkpt><trkpt lat="45.076664" lon="7.9683675"><ele>499.0</ele><time>2026-04-12T12:48:55.672Z</time></trkpt><trkpt lat="45.0765672" lon="7.9684372"><ele>497.4</ele><time>2026-04-12T12:48:56.672Z</time></trkpt><trkpt lat="45.0764789" lon="7.968521"><ele>495.79999999999995</ele><time>2026-04-12T12:48:57.671Z</time></trkpt><trkpt lat="45.0764014" lon="7.9686203"><ele>494.20000000000005</ele><time>2026-04-12T12:48:58.672Z</time></trkpt><trkpt lat="45.0763329" lon="7.9687423"><ele>492.6</ele><time>2026-04-12T12:48:59.672Z</time></trkpt><trkpt lat="45.0762717" lon="7.9688914"><ele>491.0</ele><time>2026-04-12T12:49:00.672Z</time></trkpt><trkpt lat="45.0762143" lon="7.9690546"><ele>490.0</ele><time>2026-04-12T12:49:01.672Z</time></trkpt><trkpt lat="45.0761615" lon="7.969226"><ele>489.0</ele><time>2026-04-12T12:49:02.672Z</time></trkpt><trkpt lat="45.0761291" lon="7.9694034"><ele>488.0</ele><time>2026-04-12T12:49:03.672Z</time></trkpt><trkpt lat="45.076103" lon="7.9695942"><ele>487.0</ele><time>2026-04-12T12:49:04.672Z</time></trkpt><trkpt lat="45.0760786" lon="7.9697967"><ele>487.0</ele><time>2026-04-12T12:49:05.672Z</time></trkpt><trkpt lat="45.0760516" lon="7.9699741"><ele>487.0</ele><time>2026-04-12T12:49:06.672Z</time></trkpt><trkpt lat="45.0760306" lon="7.9701382"><ele>487.0</ele><time>2026-04-12T12:49:07.672Z</time></trkpt><trkpt lat="45.0760261" lon="7.9703047"><ele>487.0</ele><time>2026-04-12T12:49:08.672Z</time></trkpt><trkpt lat="45.0760326" lon="7.9704698"><ele>485.5</ele><time>2026-04-12T12:49:09.672Z</time></trkpt><trkpt lat="45.0760728" lon="7.9706438"><ele>484.0</ele><time>2026-04-12T12:49:10.672Z</time></trkpt><trkpt lat="45.0761366" lon="7.9707954"><ele>482.5</ele><time>2026-04-12T12:49:11.672Z</time></trkpt><trkpt lat="45.0761935" lon="7.9709299"><ele>481.0</ele><time>2026-04-12T12:49:12.672Z</time></trkpt><trkpt lat="45.0762375" lon="7.9710697"><ele>480.5</ele><time>2026-04-12T12:49:13.672Z</time></trkpt><trkpt lat="45.0762441" lon="7.971219"><ele>480.0</ele><time>2026-04-12T12:49:14.672Z</time></trkpt><trkpt lat="45.0761994" lon="7.9713643"><ele>479.5</ele><time>2026-04-12T12:49:15.672Z</time></trkpt><trkpt lat="45.0761294" lon="7.9714987"><ele>479.0</ele><time>2026-04-12T12:49:16.672Z</time></trkpt><trkpt lat="45.0760495" lon="7.9716513"><ele>481.0</ele><time>2026-04-12T12:49:17.672Z</time></trkpt><trkpt lat="45.0759854" lon="7.9718286"><ele>483.0</ele><time>2026-04-12T12:49:18.672Z</time></trkpt><trkpt lat="45.0759236" lon="7.9720129"><ele>485.0</ele><time>2026-04-12T12:49:19.672Z</time></trkpt><trkpt lat="45.0758658" lon="7.9721899"><ele>487.0</ele><time>2026-04-12T12:49:20.672Z</time></trkpt><trkpt lat="45.0757881" lon="7.9723486"><ele>482.5</ele><time>2026-04-12T12:49:21.672Z</time></trkpt><trkpt lat="45.0756929" lon="7.9724881"><ele>478.0</ele><time>2026-04-12T12:49:22.672Z</time></trkpt><trkpt lat="45.0756067" lon="7.9726189"><ele>473.5</ele><time>2026-04-12T12:49:23.672Z</time></trkpt><trkpt lat="45.0755251" lon="7.9727473"><ele>469.0</ele><time>2026-04-12T12:49:24.672Z</time></trkpt><trkpt lat="45.0754613" lon="7.9728549"><ele>469.00000000000006</ele><time>2026-04-12T12:49:25.672Z</time></trkpt><trkpt lat="45.0754074" lon="7.9729274"><ele>469.0</ele><time>2026-04-12T12:49:26.672Z</time></trkpt><trkpt lat="45.0753416" lon="7.9729635"><ele>469.0</ele><time>2026-04-12T12:49:27.672Z</time></trkpt><trkpt lat="45.0752517" lon="7.972917"><ele>469.0</ele><time>2026-04-12T12:49:29.672Z</time></trkpt><trkpt lat="45.0752761" lon="7.9727498"><ele>469.00000000000006</ele><time>2026-04-12T12:49:31.672Z</time></trkpt><trkpt lat="45.0753396" lon="7.9726665"><ele>469.0</ele><time>2026-04-12T12:49:32.672Z</time></trkpt><trkpt lat="45.0754209" lon="7.9725784"><ele>467.75</ele><time>2026-04-12T12:49:33.672Z</time></trkpt><trkpt lat="45.0755008" lon="7.972469"><ele>466.5</ele><time>2026-04-12T12:49:34.672Z</time></trkpt><trkpt lat="45.0755855" lon="7.9723354"><ele>465.25</ele><time>2026-04-12T12:49:35.672Z</time></trkpt><trkpt lat="45.0756526" lon="7.972187"><ele>464.0</ele><time>2026-04-12T12:49:36.672Z</time></trkpt><trkpt lat="45.0756899" lon="7.9720062"><ele>464.0</ele><time>2026-04-12T12:49:37.672Z</time></trkpt><trkpt lat="45.0757073" lon="7.9718083"><ele>464.0</ele><time>2026-04-12T12:49:38.672Z</time></trkpt><trkpt lat="45.075726" lon="7.9716313"><ele>464.0</ele><time>2026-04-12T12:49:39.672Z</time></trkpt><trkpt lat="45.0757224" lon="7.9714647"><ele>464.0</ele><time>2026-04-12T12:49:40.672Z</time></trkpt><trkpt lat="45.0756833" lon="7.9712867"><ele>462.25</ele><time>2026-04-12T12:49:41.671Z</time></trkpt><trkpt lat="45.0756175" lon="7.9711182"><ele>460.5</ele><time>2026-04-12T12:49:42.672Z</time></trkpt><trkpt lat="45.0755316" lon="7.9709679"><ele>458.75</ele><time>2026-04-12T12:49:43.672Z</time></trkpt><trkpt lat="45.0754326" lon="7.970809"><ele>457.0</ele><time>2026-04-12T12:49:44.672Z</time></trkpt><trkpt lat="45.0753627" lon="7.9706411"><ele>457.0</ele><time>2026-04-12T12:49:45.672Z</time></trkpt><trkpt lat="45.0753186" lon="7.9704707"><ele>457.0</ele><time>2026-04-12T12:49:46.672Z</time></trkpt><trkpt lat="45.0752999" lon="7.9702919"><ele>457.0</ele><time>2026-04-12T12:49:47.672Z</time></trkpt><trkpt lat="45.0752819" lon="7.9701269"><ele>457.0</ele><time>2026-04-12T12:49:48.672Z</time></trkpt><trkpt lat="45.0752422" lon="7.9699776"><ele>456.5</ele><time>2026-04-12T12:49:49.672Z</time></trkpt><trkpt lat="45.0751737" lon="7.9698544"><ele>456.0</ele><time>2026-04-12T12:49:50.672Z</time></trkpt><trkpt lat="45.0750677" lon="7.9697624"><ele>455.5</ele><time>2026-04-12T12:49:51.672Z</time></trkpt><trkpt lat="45.074944" lon="7.9697001"><ele>455.0</ele><time>2026-04-12T12:49:52.672Z</time></trkpt><trkpt lat="45.0748115" lon="7.9696369"><ele>455.0</ele><time>2026-04-12T12:49:53.672Z</time></trkpt><trkpt lat="45.0746729" lon="7.9695681"><ele>455.0</ele><time>2026-04-12T12:49:54.672Z</time></trkpt><trkpt lat="45.0745385" lon="7.9694959"><ele>455.0</ele><time>2026-04-12T12:49:55.672Z</time></trkpt><trkpt lat="45.0744093" lon="7.9694322"><ele>455.0</ele><time>2026-04-12T12:49:56.672Z</time></trkpt><trkpt lat="45.0742994" lon="7.9693887"><ele>455.0</ele><time>2026-04-12T12:49:57.672Z</time></trkpt><trkpt lat="45.0741854" lon="7.9693968"><ele>455.0</ele><time>2026-04-12T12:49:58.672Z</time></trkpt><trkpt lat="45.0740625" lon="7.9694298"><ele>455.0</ele><time>2026-04-12T12:49:59.672Z</time></trkpt><trkpt lat="45.0739469" lon="7.9695323"><ele>455.0</ele><time>2026-04-12T12:50:00.671Z</time></trkpt><trkpt lat="45.073838" lon="7.9696568"><ele>456.25</ele><time>2026-04-12T12:50:01.672Z</time></trkpt><trkpt lat="45.0737303" lon="7.9697713"><ele>457.5</ele><time>2026-04-12T12:50:02.672Z</time></trkpt><trkpt lat="45.0736289" lon="7.9698977"><ele>458.75</ele><time>2026-04-12T12:50:03.672Z</time></trkpt><trkpt lat="45.0735162" lon="7.9700336"><ele>460.0</ele><time>2026-04-12T12:50:04.672Z</time></trkpt><trkpt lat="45.0734037" lon="7.9701614"><ele>455.5</ele><time>2026-04-12T12:50:05.672Z</time></trkpt><trkpt lat="45.0732762" lon="7.9702673"><ele>451.0</ele><time>2026-04-12T12:50:06.671Z</time></trkpt><trkpt lat="45.0731485" lon="7.9703728"><ele>446.5</ele><time>2026-04-12T12:50:07.672Z</time></trkpt><trkpt lat="45.0730159" lon="7.9704677"><ele>442.0</ele><time>2026-04-12T12:50:08.672Z</time></trkpt><trkpt lat="45.0728895" lon="7.9705759"><ele>442.0</ele><time>2026-04-12T12:50:09.672Z</time></trkpt><trkpt lat="45.0727532" lon="7.9706657"><ele>442.0</ele><time>2026-04-12T12:50:10.672Z</time></trkpt><trkpt lat="45.0725843" lon="7.9707478"><ele>442.0</ele><time>2026-04-12T12:50:11.672Z</time></trkpt><trkpt lat="45.0724329" lon="7.9708534"><ele>437.6666666666667</ele><time>2026-04-12T12:50:12.672Z</time></trkpt><trkpt lat="45.0722702" lon="7.9709509"><ele>433.33333333333337</ele><time>2026-04-12T12:50:13.671Z</time></trkpt><trkpt lat="45.0721265" lon="7.97104"><ele>429.0</ele><time>2026-04-12T12:50:14.672Z</time></trkpt><trkpt lat="45.071989" lon="7.9711496"><ele>429.0</ele><time>2026-04-12T12:50:15.672Z</time></trkpt><trkpt lat="45.0718548" lon="7.9712508"><ele>429.0</ele><time>2026-04-12T12:50:16.672Z</time></trkpt><trkpt lat="45.0717119" lon="7.9713382"><ele>429.0</ele><time>2026-04-12T12:50:17.672Z</time></trkpt><trkpt lat="45.0715926" lon="7.9714271"><ele>429.0</ele><time>2026-04-12T12:50:18.671Z</time></trkpt><trkpt lat="45.0714741" lon="7.9715147"><ele>428.75</ele><time>2026-04-12T12:50:19.672Z</time></trkpt><trkpt lat="45.0713604" lon="7.9715832"><ele>428.5</ele><time>2026-04-12T12:50:20.672Z</time></trkpt><trkpt lat="45.0712531" lon="7.9716611"><ele>428.25</ele><time>2026-04-12T12:50:21.672Z</time></trkpt><trkpt lat="45.0711563" lon="7.9717371"><ele>428.0</ele><time>2026-04-12T12:50:22.672Z</time></trkpt><trkpt lat="45.0710611" lon="7.971802"><ele>427.79999999999995</ele><time>2026-04-12T12:50:23.672Z</time></trkpt><trkpt lat="45.0709732" lon="7.9718702"><ele>427.59999999999997</ele><time>2026-04-12T12:50:24.672Z</time></trkpt><trkpt lat="45.0708844" lon="7.9719446"><ele>427.40000000000003</ele><time>2026-04-12T12:50:25.672Z</time></trkpt><trkpt lat="45.070794" lon="7.9720254"><ele>427.20000000000005</ele><time>2026-04-12T12:50:26.672Z</time></trkpt><trkpt lat="45.0707001" lon="7.9720808"><ele>427.0</ele><time>2026-04-12T12:50:27.672Z</time></trkpt><trkpt lat="45.0705977" lon="7.9721181"><ele>427.0</ele><time>2026-04-12T12:50:28.672Z</time></trkpt><trkpt lat="45.0705029" lon="7.9721472"><ele>427.00000000000006</ele><time>2026-04-12T12:50:29.671Z</time></trkpt><trkpt lat="45.0704072" lon="7.9722049"><ele>427.00000000000006</ele><time>2026-04-12T12:50:30.672Z</time></trkpt><trkpt lat="45.0703266" lon="7.9722941"><ele>427.0</ele><time>2026-04-12T12:50:31.672Z</time></trkpt><trkpt lat="45.0702342" lon="7.9723952"><ele>427.0</ele><time>2026-04-12T12:50:32.671Z</time></trkpt><trkpt lat="45.0701295" lon="7.9724893"><ele>426.0</ele><time>2026-04-12T12:50:33.672Z</time></trkpt><trkpt lat="45.0700129" lon="7.972573"><ele>425.0</ele><time>2026-04-12T12:50:34.671Z</time></trkpt><trkpt lat="45.0699092" lon="7.9726552"><ele>424.0</ele><time>2026-04-12T12:50:35.671Z</time></trkpt><trkpt lat="45.0698256" lon="7.9727463"><ele>423.0</ele><time>2026-04-12T12:50:36.672Z</time></trkpt><trkpt lat="45.0697558" lon="7.9728521"><ele>423.0</ele><time>2026-04-12T12:50:37.672Z</time></trkpt><trkpt lat="45.0697132" lon="7.9730017"><ele>423.0</ele><time>2026-04-12T12:50:38.672Z</time></trkpt><trkpt lat="45.0696892" lon="7.9731593"><ele>423.0</ele><time>2026-04-12T12:50:39.672Z</time></trkpt><trkpt lat="45.0696651" lon="7.9732978"><ele>423.0</ele><time>2026-04-12T12:50:40.672Z</time></trkpt><trkpt lat="45.0696388" lon="7.9734341"><ele>423.0</ele><time>2026-04-12T12:50:41.672Z</time></trkpt><trkpt lat="45.0696019" lon="7.9735468"><ele>421.0</ele><time>2026-04-12T12:50:42.672Z</time></trkpt><trkpt lat="45.0695626" lon="7.9736582"><ele>419.0</ele><time>2026-04-12T12:50:43.672Z</time></trkpt><trkpt lat="45.0695115" lon="7.9737705"><ele>417.0</ele><time>2026-04-12T12:50:44.672Z</time></trkpt><trkpt lat="45.0694308" lon="7.9738477"><ele>415.0</ele><time>2026-04-12T12:50:45.671Z</time></trkpt><trkpt lat="45.0693472" lon="7.9739322"><ele>413.0</ele><time>2026-04-12T12:50:46.672Z</time></trkpt><trkpt lat="45.0691991" lon="7.9740084"><ele>412.25</ele><time>2026-04-12T12:50:47.672Z</time></trkpt><trkpt lat="45.0690852" lon="7.9740566"><ele>411.5</ele><time>2026-04-12T12:50:48.672Z</time></trkpt><trkpt lat="45.0689279" lon="7.9741292"><ele>410.75</ele><time>2026-04-12T12:50:49.672Z</time></trkpt><trkpt lat="45.0687966" lon="7.9741938"><ele>410.0</ele><time>2026-04-12T12:50:50.672Z</time></trkpt><trkpt lat="45.0686877" lon="7.9742271"><ele>410.0</ele><time>2026-04-12T12:50:51.672Z</time></trkpt><trkpt lat="45.0685756" lon="7.974283"><ele>410.0</ele><time>2026-04-12T12:50:52.672Z</time></trkpt><trkpt lat="45.0684887" lon="7.9743461"><ele>410.0</ele><time>2026-04-12T12:50:53.671Z</time></trkpt><trkpt lat="45.0684083" lon="7.974425"><ele>410.0</ele><time>2026-04-12T12:50:54.672Z</time></trkpt><trkpt lat="45.0683346" lon="7.9745331"><ele>410.0</ele><time>2026-04-12T12:50:55.672Z</time></trkpt><trkpt lat="45.0682724" lon="7.9746563"><ele>406.5</ele><time>2026-04-12T12:50:56.672Z</time></trkpt><trkpt lat="45.0681962" lon="7.9747901"><ele>403.0</ele><time>2026-04-12T12:50:57.672Z</time></trkpt><trkpt lat="45.0681336" lon="7.9749292"><ele>399.5</ele><time>2026-04-12T12:50:58.671Z</time></trkpt><trkpt lat="45.0680743" lon="7.9750956"><ele>396.0</ele><time>2026-04-12T12:50:59.672Z</time></trkpt><trkpt lat="45.0680251" lon="7.9752429"><ele>396.0</ele><time>2026-04-12T12:51:00.672Z</time></trkpt><trkpt lat="45.0679707" lon="7.9753947"><ele>396.0</ele><time>2026-04-12T12:51:01.672Z</time></trkpt><trkpt lat="45.0679103" lon="7.9755495"><ele>396.0</ele><time>2026-04-12T12:51:02.672Z</time></trkpt><trkpt lat="45.0678472" lon="7.9757187"><ele>396.0</ele><time>2026-04-12T12:51:03.672Z</time></trkpt><trkpt lat="45.0677853" lon="7.975879"><ele>395.75</ele><time>2026-04-12T12:51:04.672Z</time></trkpt><trkpt lat="45.0677146" lon="7.9760486"><ele>395.5</ele><time>2026-04-12T12:51:05.672Z</time></trkpt><trkpt lat="45.0676577" lon="7.9762288"><ele>395.25</ele><time>2026-04-12T12:51:06.672Z</time></trkpt><trkpt lat="45.0675988" lon="7.976403"><ele>395.0</ele><time>2026-04-12T12:51:07.672Z</time></trkpt><trkpt lat="45.0675375" lon="7.9765805"><ele>393.0</ele><time>2026-04-12T12:51:08.672Z</time></trkpt><trkpt lat="45.0674623" lon="7.9767602"><ele>391.0</ele><time>2026-04-12T12:51:09.672Z</time></trkpt><trkpt lat="45.067368" lon="7.9769246"><ele>389.0</ele><time>2026-04-12T12:51:10.672Z</time></trkpt><trkpt lat="45.067257" lon="7.977076"><ele>389.0</ele><time>2026-04-12T12:51:11.672Z</time></trkpt><trkpt lat="45.0671453" lon="7.977231"><ele>389.0</ele><time>2026-04-12T12:51:12.672Z</time></trkpt><trkpt lat="45.0670189" lon="7.9773866"><ele>389.0</ele><time>2026-04-12T12:51:13.672Z</time></trkpt><trkpt lat="45.0669113" lon="7.9775529"><ele>387.66666666666663</ele><time>2026-04-12T12:51:14.672Z</time></trkpt><trkpt lat="45.066805" lon="7.9777162"><ele>386.33333333333337</ele><time>2026-04-12T12:51:15.672Z</time></trkpt><trkpt lat="45.0666974" lon="7.9778788"><ele>385.0</ele><time>2026-04-12T12:51:16.672Z</time></trkpt><trkpt lat="45.0665823" lon="7.9780314"><ele>385.0</ele><time>2026-04-12T12:51:17.672Z</time></trkpt><trkpt lat="45.0664741" lon="7.9781707"><ele>385.0</ele><time>2026-04-12T12:51:18.672Z</time></trkpt><trkpt lat="45.0663611" lon="7.9783099"><ele>385.0</ele><time>2026-04-12T12:51:19.672Z</time></trkpt><trkpt lat="45.0662541" lon="7.9784541"><ele>385.0</ele><time>2026-04-12T12:51:20.672Z</time></trkpt><trkpt lat="45.0661563" lon="7.9786248"><ele>385.33333333333337</ele><time>2026-04-12T12:51:21.672Z</time></trkpt><trkpt lat="45.0660535" lon="7.9787908"><ele>385.66666666666663</ele><time>2026-04-12T12:51:22.672Z</time></trkpt><trkpt lat="45.0659532" lon="7.9789643"><ele>386.0</ele><time>2026-04-12T12:51:23.672Z</time></trkpt><trkpt lat="45.0658533" lon="7.9791291"><ele>383.0</ele><time>2026-04-12T12:51:24.672Z</time></trkpt><trkpt lat="45.0657484" lon="7.9792948"><ele>380.0</ele><time>2026-04-12T12:51:25.672Z</time></trkpt><trkpt lat="45.0656428" lon="7.9794503"><ele>377.0</ele><time>2026-04-12T12:51:26.672Z</time></trkpt><trkpt lat="45.0655359" lon="7.9796118"><ele>377.0</ele><time>2026-04-12T12:51:27.672Z</time></trkpt><trkpt lat="45.0654275" lon="7.9797687"><ele>377.0</ele><time>2026-04-12T12:51:28.672Z</time></trkpt><trkpt lat="45.0653216" lon="7.979933"><ele>377.0</ele><time>2026-04-12T12:51:29.672Z</time></trkpt><trkpt lat="45.065205" lon="7.980081"><ele>376.6666666666667</ele><time>2026-04-12T12:51:30.671Z</time></trkpt><trkpt lat="45.0650787" lon="7.9802303"><ele>376.3333333333333</ele><time>2026-04-12T12:51:31.672Z</time></trkpt><trkpt lat="45.0649629" lon="7.980378"><ele>376.0</ele><time>2026-04-12T12:51:32.672Z</time></trkpt><trkpt lat="45.0648271" lon="7.980519"><ele>376.0</ele><time>2026-04-12T12:51:33.672Z</time></trkpt><trkpt lat="45.0646974" lon="7.9806506"><ele>376.0</ele><time>2026-04-12T12:51:34.671Z</time></trkpt><trkpt lat="45.064542" lon="7.9807605"><ele>376.0</ele><time>2026-04-12T12:51:35.672Z</time></trkpt><trkpt lat="45.0644054" lon="7.980858"><ele>376.75</ele><time>2026-04-12T12:51:36.672Z</time></trkpt><trkpt lat="45.0642668" lon="7.9809353"><ele>377.5</ele><time>2026-04-12T12:51:37.672Z</time></trkpt><trkpt lat="45.0641373" lon="7.9809933"><ele>378.25</ele><time>2026-04-12T12:51:38.672Z</time></trkpt><trkpt lat="45.064016" lon="7.9810526"><ele>379.0</ele><time>2026-04-12T12:51:39.672Z</time></trkpt><trkpt lat="45.0639308" lon="7.9811284"><ele>377.79999999999995</ele><time>2026-04-12T12:51:40.672Z</time></trkpt><trkpt lat="45.063855" lon="7.9812214"><ele>376.59999999999997</ele><time>2026-04-12T12:51:41.672Z</time></trkpt><trkpt lat="45.0637867" lon="7.9813311"><ele>375.4</ele><time>2026-04-12T12:51:42.672Z</time></trkpt><trkpt lat="45.063735" lon="7.9814741"><ele>374.2</ele><time>2026-04-12T12:51:43.672Z</time></trkpt><trkpt lat="45.0636843" lon="7.9816403"><ele>373.0</ele><time>2026-04-12T12:51:44.672Z</time></trkpt><trkpt lat="45.0636207" lon="7.9818046"><ele>372.66666666666663</ele><time>2026-04-12T12:51:45.672Z</time></trkpt><trkpt lat="45.0635194" lon="7.9819799"><ele>372.3333333333333</ele><time>2026-04-12T12:51:46.672Z</time></trkpt><trkpt lat="45.0634081" lon="7.9821351"><ele>372.0</ele><time>2026-04-12T12:51:47.672Z</time></trkpt><trkpt lat="45.0632919" lon="7.9822847"><ele>370.0</ele><time>2026-04-12T12:51:48.672Z</time></trkpt><trkpt lat="45.0631702" lon="7.9824266"><ele>368.0</ele><time>2026-04-12T12:51:49.671Z</time></trkpt><trkpt lat="45.0630538" lon="7.9825649"><ele>366.0</ele><time>2026-04-12T12:51:50.672Z</time></trkpt><trkpt lat="45.0629349" lon="7.9827101"><ele>365.6666666666667</ele><time>2026-04-12T12:51:51.672Z</time></trkpt><trkpt lat="45.0628151" lon="7.9828634"><ele>365.33333333333337</ele><time>2026-04-12T12:51:52.672Z</time></trkpt><trkpt lat="45.0627043" lon="7.9830099"><ele>365.0</ele><time>2026-04-12T12:51:53.672Z</time></trkpt><trkpt lat="45.0626011" lon="7.983142"><ele>365.0</ele><time>2026-04-12T12:51:54.672Z</time></trkpt><trkpt lat="45.0625112" lon="7.9832718"><ele>365.0</ele><time>2026-04-12T12:51:55.672Z</time></trkpt><trkpt lat="45.0624228" lon="7.9833829"><ele>365.0</ele><time>2026-04-12T12:51:56.672Z</time></trkpt><trkpt lat="45.0623453" lon="7.9834852"><ele>365.0</ele><time>2026-04-12T12:51:57.672Z</time></trkpt><trkpt lat="45.0622759" lon="7.9835877"><ele>365.0</ele><time>2026-04-12T12:51:58.672Z</time></trkpt><trkpt lat="45.0622024" lon="7.9836608"><ele>365.0</ele><time>2026-04-12T12:51:59.672Z</time></trkpt><trkpt lat="45.0621271" lon="7.9837409"><ele>365.0</ele><time>2026-04-12T12:52:00.672Z</time></trkpt><trkpt lat="45.0620588" lon="7.9838135"><ele>365.0</ele><time>2026-04-12T12:52:01.672Z</time></trkpt><trkpt lat="45.0619866" lon="7.9838842"><ele>365.0</ele><time>2026-04-12T12:52:02.672Z</time></trkpt><trkpt lat="45.0619102" lon="7.9839659"><ele>365.0</ele><time>2026-04-12T12:52:03.672Z</time></trkpt><trkpt lat="45.0618258" lon="7.9840409"><ele>365.0</ele><time>2026-04-12T12:52:04.671Z</time></trkpt><trkpt lat="45.0617406" lon="7.9841103"><ele>365.0</ele><time>2026-04-12T12:52:05.671Z</time></trkpt><trkpt lat="45.0616631" lon="7.9841575"><ele>365.0</ele><time>2026-04-12T12:52:06.672Z</time></trkpt><trkpt lat="45.0615893" lon="7.9841721"><ele>365.0</ele><time>2026-04-12T12:52:07.672Z</time></trkpt><trkpt lat="45.061518" lon="7.9841632"><ele>365.0</ele><time>2026-04-12T12:52:08.672Z</time></trkpt><trkpt lat="45.0614459" lon="7.9841209"><ele>366.75</ele><time>2026-04-12T12:52:09.672Z</time></trkpt><trkpt lat="45.0613532" lon="7.9840802"><ele>368.5</ele><time>2026-04-12T12:52:10.672Z</time></trkpt><trkpt lat="45.0612509" lon="7.9840453"><ele>370.25</ele><time>2026-04-12T12:52:11.672Z</time></trkpt><trkpt lat="45.0611368" lon="7.9840256"><ele>372.0</ele><time>2026-04-12T12:52:12.672Z</time></trkpt><trkpt lat="45.061" lon="7.9839835"><ele>372.0</ele><time>2026-04-12T12:52:13.672Z</time></trkpt><trkpt lat="45.0608698" lon="7.9839602"><ele>372.0</ele><time>2026-04-12T12:52:14.672Z</time></trkpt><trkpt lat="45.0607286" lon="7.9839371"><ele>372.0</ele><time>2026-04-12T12:52:15.672Z</time></trkpt><trkpt lat="45.0606013" lon="7.983921"><ele>372.0</ele><time>2026-04-12T12:52:16.672Z</time></trkpt><trkpt lat="45.0604786" lon="7.9839104"><ele>373.0</ele><time>2026-04-12T12:52:17.672Z</time></trkpt><trkpt lat="45.0603579" lon="7.9838975"><ele>374.0</ele><time>2026-04-12T12:52:18.671Z</time></trkpt><trkpt lat="45.0602506" lon="7.9839272"><ele>375.0</ele><time>2026-04-12T12:52:19.672Z</time></trkpt><trkpt lat="45.0601448" lon="7.9839621"><ele>376.0</ele><time>2026-04-12T12:52:20.672Z</time></trkpt><trkpt lat="45.0600424" lon="7.984031"><ele>377.25</ele><time>2026-04-12T12:52:21.672Z</time></trkpt><trkpt lat="45.0599363" lon="7.9841041"><ele>378.5</ele><time>2026-04-12T12:52:22.672Z</time></trkpt><trkpt lat="45.0598238" lon="7.9841672"><ele>379.75</ele><time>2026-04-12T12:52:23.672Z</time></trkpt><trkpt lat="45.059715" lon="7.9842195"><ele>381.0</ele><time>2026-04-12T12:52:24.672Z</time></trkpt><trkpt lat="45.0596071" lon="7.9842753"><ele>385.75</ele><time>2026-04-12T12:52:25.672Z</time></trkpt><trkpt lat="45.0594934" lon="7.9843204"><ele>390.5</ele><time>2026-04-12T12:52:26.672Z</time></trkpt><trkpt lat="45.0593765" lon="7.9843575"><ele>395.25</ele><time>2026-04-12T12:52:27.672Z</time></trkpt><trkpt lat="45.0592653" lon="7.9843832"><ele>400.0</ele><time>2026-04-12T12:52:28.671Z</time></trkpt><trkpt lat="45.0591573" lon="7.9843738"><ele>399.0</ele><time>2026-04-12T12:52:29.672Z</time></trkpt><trkpt lat="45.0590498" lon="7.9843461"><ele>398.0</ele><time>2026-04-12T12:52:30.672Z</time></trkpt><trkpt lat="45.0589425" lon="7.9843117"><ele>397.0</ele><time>2026-04-12T12:52:31.672Z</time></trkpt><trkpt lat="45.0588247" lon="7.9842655"><ele>396.0</ele><time>2026-04-12T12:52:32.672Z</time></trkpt><trkpt lat="45.058708" lon="7.9842287"><ele>396.0</ele><time>2026-04-12T12:52:33.672Z</time></trkpt><trkpt lat="45.0586158" lon="7.9841939"><ele>396.0</ele><time>2026-04-12T12:52:34.672Z</time></trkpt><trkpt lat="45.0585213" lon="7.9841643"><ele>396.0</ele><time>2026-04-12T12:52:35.672Z</time></trkpt><trkpt lat="45.0584289" lon="7.9841386"><ele>396.0</ele><time>2026-04-12T12:52:36.672Z</time></trkpt><trkpt lat="45.0583364" lon="7.9841226"><ele>396.0</ele><time>2026-04-12T12:52:37.672Z</time></trkpt><trkpt lat="45.0582403" lon="7.9841222"><ele>392.6666666666667</ele><time>2026-04-12T12:52:38.672Z</time></trkpt><trkpt lat="45.0581542" lon="7.9841397"><ele>389.3333333333333</ele><time>2026-04-12T12:52:39.672Z</time></trkpt><trkpt lat="45.0580857" lon="7.9841653"><ele>386.0</ele><time>2026-04-12T12:52:40.672Z</time></trkpt><trkpt lat="45.0580239" lon="7.9841946"><ele>382.66666666666663</ele><time>2026-04-12T12:52:41.672Z</time></trkpt><trkpt lat="45.0579603" lon="7.9842929"><ele>379.3333333333333</ele><time>2026-04-12T12:52:43.671Z</time></trkpt><trkpt lat="45.0579294" lon="7.9844567"><ele>376.0</ele><time>2026-04-12T12:52:45.672Z</time></trkpt><trkpt lat="45.0579454" lon="7.9845912"><ele>375.66666666666663</ele><time>2026-04-12T12:52:46.672Z</time></trkpt><trkpt lat="45.0579469" lon="7.9847103"><ele>375.3333333333333</ele><time>2026-04-12T12:52:47.672Z</time></trkpt><trkpt lat="45.0579524" lon="7.9848202"><ele>375.0</ele><time>2026-04-12T12:52:48.672Z</time></trkpt><trkpt lat="45.0579472" lon="7.9849339"><ele>374.6666666666667</ele><time>2026-04-12T12:52:49.672Z</time></trkpt><trkpt lat="45.0579474" lon="7.9850399"><ele>374.33333333333337</ele><time>2026-04-12T12:52:50.672Z</time></trkpt><trkpt lat="45.0579539" lon="7.9851362"><ele>374.0</ele><time>2026-04-12T12:52:51.671Z</time></trkpt><trkpt lat="45.057945" lon="7.9852295"><ele>376.0</ele><time>2026-04-12T12:52:52.672Z</time></trkpt><trkpt lat="45.0579045" lon="7.9853047"><ele>378.0</ele><time>2026-04-12T12:52:53.671Z</time></trkpt><trkpt lat="45.0578623" lon="7.985376"><ele>380.0</ele><time>2026-04-12T12:52:54.672Z</time></trkpt><trkpt lat="45.0578024" lon="7.9854266"><ele>382.0</ele><time>2026-04-12T12:52:55.671Z</time></trkpt><trkpt lat="45.0577306" lon="7.9854464"><ele>384.0</ele><time>2026-04-12T12:52:56.672Z</time></trkpt><trkpt lat="45.0576509" lon="7.9854356"><ele>386.0</ele><time>2026-04-12T12:52:57.671Z</time></trkpt><trkpt lat="45.057561" lon="7.9853976"><ele>388.0</ele><time>2026-04-12T12:52:58.672Z</time></trkpt><trkpt lat="45.0574715" lon="7.9853687"><ele>386.33333333333337</ele><time>2026-04-12T12:52:59.672Z</time></trkpt><trkpt lat="45.0573793" lon="7.9853312"><ele>384.6666666666667</ele><time>2026-04-12T12:53:00.672Z</time></trkpt><trkpt lat="45.0572898" lon="7.9852931"><ele>383.0</ele><time>2026-04-12T12:53:01.672Z</time></trkpt><trkpt lat="45.0572041" lon="7.9852573"><ele>381.33333333333337</ele><time>2026-04-12T12:53:02.672Z</time></trkpt><trkpt lat="45.0571249" lon="7.9852211"><ele>379.6666666666667</ele><time>2026-04-12T12:53:03.672Z</time></trkpt><trkpt lat="45.0570537" lon="7.9851969"><ele>378.0</ele><time>2026-04-12T12:53:04.672Z</time></trkpt><trkpt lat="45.0569668" lon="7.9851908"><ele>378.0</ele><time>2026-04-12T12:53:05.672Z</time></trkpt><trkpt lat="45.0568571" lon="7.9852094"><ele>378.0</ele><time>2026-04-12T12:53:06.672Z</time></trkpt><trkpt lat="45.0567526" lon="7.9852291"><ele>378.0</ele><time>2026-04-12T12:53:07.672Z</time></trkpt><trkpt lat="45.0566423" lon="7.9852462"><ele>378.0</ele><time>2026-04-12T12:53:08.672Z</time></trkpt><trkpt lat="45.0565285" lon="7.985257"><ele>378.0</ele><time>2026-04-12T12:53:09.672Z</time></trkpt><trkpt lat="45.0564221" lon="7.9852813"><ele>374.79999999999995</ele><time>2026-04-12T12:53:10.672Z</time></trkpt><trkpt lat="45.0563147" lon="7.9852982"><ele>371.6</ele><time>2026-04-12T12:53:11.672Z</time></trkpt><trkpt lat="45.0562048" lon="7.985319"><ele>368.4</ele><time>2026-04-12T12:53:12.672Z</time></trkpt><trkpt lat="45.0561077" lon="7.9853423"><ele>365.20000000000005</ele><time>2026-04-12T12:53:13.672Z</time></trkpt><trkpt lat="45.0560164" lon="7.9853926"><ele>362.0</ele><time>2026-04-12T12:53:14.672Z</time></trkpt><trkpt lat="45.0559231" lon="7.9854647"><ele>362.0</ele><time>2026-04-12T12:53:15.671Z</time></trkpt><trkpt lat="45.0558264" lon="7.9855583"><ele>362.0</ele><time>2026-04-12T12:53:16.672Z</time></trkpt><trkpt lat="45.0557223" lon="7.9856547"><ele>362.0</ele><time>2026-04-12T12:53:17.672Z</time></trkpt><trkpt lat="45.0556289" lon="7.9857442"><ele>362.0</ele><time>2026-04-12T12:53:18.672Z</time></trkpt><trkpt lat="45.0555399" lon="7.985831"><ele>361.6</ele><time>2026-04-12T12:53:19.672Z</time></trkpt><trkpt lat="45.0554442" lon="7.9858897"><ele>361.20000000000005</ele><time>2026-04-12T12:53:20.672Z</time></trkpt><trkpt lat="45.0553509" lon="7.9859489"><ele>360.8</ele><time>2026-04-12T12:53:21.671Z</time></trkpt><trkpt lat="45.0552501" lon="7.9859949"><ele>360.4</ele><time>2026-04-12T12:53:22.672Z</time></trkpt><trkpt lat="45.0551505" lon="7.9860477"><ele>360.0</ele><time>2026-04-12T12:53:23.672Z</time></trkpt><trkpt lat="45.0550537" lon="7.9861192"><ele>358.6</ele><time>2026-04-12T12:53:24.672Z</time></trkpt><trkpt lat="45.0549487" lon="7.9862074"><ele>357.2</ele><time>2026-04-12T12:53:25.672Z</time></trkpt><trkpt lat="45.0548525" lon="7.9862882"><ele>355.79999999999995</ele><time>2026-04-12T12:53:26.672Z</time></trkpt><trkpt lat="45.0547639" lon="7.9863578"><ele>354.4</ele><time>2026-04-12T12:53:27.672Z</time></trkpt><trkpt lat="45.0546762" lon="7.986387"><ele>353.0</ele><time>2026-04-12T12:53:28.672Z</time></trkpt><trkpt lat="45.0546135" lon="7.986408"><ele>353.0</ele><time>2026-04-12T12:53:29.672Z</time></trkpt><trkpt lat="45.0545247" lon="7.9864625"><ele>353.0</ele><time>2026-04-12T12:53:31.672Z</time></trkpt><trkpt lat="45.0544591" lon="7.9865014"><ele>353.0</ele><time>2026-04-12T12:53:32.672Z</time></trkpt><trkpt lat="45.0543782" lon="7.9865276"><ele>353.0</ele><time>2026-04-12T12:53:33.672Z</time></trkpt><trkpt lat="45.054288" lon="7.9865295"><ele>353.0</ele><time>2026-04-12T12:53:34.672Z</time></trkpt><trkpt lat="45.0541917" lon="7.9865375"><ele>353.0</ele><time>2026-04-12T12:53:35.672Z</time></trkpt><trkpt lat="45.0540844" lon="7.9865621"><ele>352.25</ele><time>2026-04-12T12:53:36.672Z</time></trkpt><trkpt lat="45.0539539" lon="7.9865732"><ele>351.5</ele><time>2026-04-12T12:53:37.671Z</time></trkpt><trkpt lat="45.0538208" lon="7.9865852"><ele>350.75</ele><time>2026-04-12T12:53:38.672Z</time></trkpt><trkpt lat="45.053686" lon="7.9865994"><ele>350.0</ele><time>2026-04-12T12:53:39.672Z</time></trkpt><trkpt lat="45.0535486" lon="7.9866137"><ele>350.0</ele><time>2026-04-12T12:53:40.672Z</time></trkpt><trkpt lat="45.0533988" lon="7.9866282"><ele>350.0</ele><time>2026-04-12T12:53:41.672Z</time></trkpt><trkpt lat="45.053248" lon="7.9866468"><ele>350.0</ele><time>2026-04-12T12:53:42.672Z</time></trkpt><trkpt lat="45.0530887" lon="7.9866698"><ele>348.0</ele><time>2026-04-12T12:53:43.671Z</time></trkpt><trkpt lat="45.0529221" lon="7.9866858"><ele>346.0</ele><time>2026-04-12T12:53:44.671Z</time></trkpt><trkpt lat="45.0527648" lon="7.9867021"><ele>344.0</ele><time>2026-04-12T12:53:45.671Z</time></trkpt><trkpt lat="45.0526187" lon="7.9867207"><ele>344.0</ele><time>2026-04-12T12:53:46.672Z</time></trkpt><trkpt lat="45.0524744" lon="7.9867346"><ele>344.0</ele><time>2026-04-12T12:53:47.672Z</time></trkpt><trkpt lat="45.0523253" lon="7.9867492"><ele>344.0</ele><time>2026-04-12T12:53:48.672Z</time></trkpt><trkpt lat="45.0521714" lon="7.9867714"><ele>344.0</ele><time>2026-04-12T12:53:49.672Z</time></trkpt><trkpt lat="45.0520224" lon="7.9867864"><ele>337.6666666666667</ele><time>2026-04-12T12:53:50.672Z</time></trkpt><trkpt lat="45.0518689" lon="7.9867996"><ele>331.3333333333333</ele><time>2026-04-12T12:53:51.671Z</time></trkpt><trkpt lat="45.0517161" lon="7.9868191"><ele>325.0</ele><time>2026-04-12T12:53:52.672Z</time></trkpt><trkpt lat="45.0515603" lon="7.9868315"><ele>323.3333333333333</ele><time>2026-04-12T12:53:53.672Z</time></trkpt><trkpt lat="45.0514049" lon="7.9868453"><ele>321.6666666666667</ele><time>2026-04-12T12:53:54.672Z</time></trkpt><trkpt lat="45.0512534" lon="7.9868585"><ele>320.0</ele><time>2026-04-12T12:53:55.672Z</time></trkpt><trkpt lat="45.0510993" lon="7.9868719"><ele>320.0</ele><time>2026-04-12T12:53:56.672Z</time></trkpt><trkpt lat="45.05095" lon="7.9868842"><ele>320.0</ele><time>2026-04-12T12:53:57.672Z</time></trkpt><trkpt lat="45.0507887" lon="7.9869032"><ele>320.0</ele><time>2026-04-12T12:53:58.672Z</time></trkpt><trkpt lat="45.0506223" lon="7.9869135"><ele>319.0</ele><time>2026-04-12T12:53:59.672Z</time></trkpt><trkpt lat="45.0504621" lon="7.9869282"><ele>318.0</ele><time>2026-04-12T12:54:00.672Z</time></trkpt><trkpt lat="45.0503008" lon="7.986947"><ele>317.0</ele><time>2026-04-12T12:54:01.672Z</time></trkpt><trkpt lat="45.0501388" lon="7.9869611"><ele>317.0</ele><time>2026-04-12T12:54:02.672Z</time></trkpt><trkpt lat="45.0499743" lon="7.9869844"><ele>317.0</ele><time>2026-04-12T12:54:03.672Z</time></trkpt><trkpt lat="45.0498132" lon="7.9870004"><ele>317.0</ele><time>2026-04-12T12:54:04.672Z</time></trkpt><trkpt lat="45.0496522" lon="7.9870234"><ele>315.0</ele><time>2026-04-12T12:54:05.672Z</time></trkpt><trkpt lat="45.0494915" lon="7.9870585"><ele>313.0</ele><time>2026-04-12T12:54:06.672Z</time></trkpt><trkpt lat="45.0493415" lon="7.9871262"><ele>311.0</ele><time>2026-04-12T12:54:07.672Z</time></trkpt><trkpt lat="45.0491908" lon="7.9872114"><ele>307.6666666666667</ele><time>2026-04-12T12:54:08.672Z</time></trkpt><trkpt lat="45.0490478" lon="7.9873155"><ele>304.3333333333333</ele><time>2026-04-12T12:54:09.672Z</time></trkpt><trkpt lat="45.0489065" lon="7.98743"><ele>301.0</ele><time>2026-04-12T12:54:10.671Z</time></trkpt><trkpt lat="45.0487675" lon="7.9875513"><ele>301.0</ele><time>2026-04-12T12:54:11.672Z</time></trkpt><trkpt lat="45.0486275" lon="7.987677"><ele>301.0</ele><time>2026-04-12T12:54:12.672Z</time></trkpt><trkpt lat="45.0484859" lon="7.9877976"><ele>301.0</ele><time>2026-04-12T12:54:13.672Z</time></trkpt><trkpt lat="45.0483439" lon="7.9879022"><ele>300.3333333333333</ele><time>2026-04-12T12:54:14.672Z</time></trkpt><trkpt lat="45.0481898" lon="7.9879956"><ele>299.6666666666667</ele><time>2026-04-12T12:54:15.672Z</time></trkpt><trkpt lat="45.0480394" lon="7.9880746"><ele>299.0</ele><time>2026-04-12T12:54:16.672Z</time></trkpt><trkpt lat="45.0478798" lon="7.9881179"><ele>299.0</ele><time>2026-04-12T12:54:17.672Z</time></trkpt><trkpt lat="45.0477203" lon="7.9881444"><ele>299.0</ele><time>2026-04-12T12:54:18.672Z</time></trkpt><trkpt lat="45.0475557" lon="7.9881506"><ele>299.0</ele><time>2026-04-12T12:54:19.672Z</time></trkpt><trkpt lat="45.0473913" lon="7.9881536"><ele>298.0</ele><time>2026-04-12T12:54:20.672Z</time></trkpt><trkpt lat="45.0472168" lon="7.9881577"><ele>297.0</ele><time>2026-04-12T12:54:21.672Z</time></trkpt><trkpt lat="45.047058" lon="7.9881598"><ele>296.0</ele><time>2026-04-12T12:54:22.672Z</time></trkpt><trkpt lat="45.0468981" lon="7.9881653"><ele>296.0</ele><time>2026-04-12T12:54:23.672Z</time></trkpt><trkpt lat="45.0467272" lon="7.9881701"><ele>296.0</ele><time>2026-04-12T12:54:24.672Z</time></trkpt><trkpt lat="45.0465625" lon="7.9881829"><ele>296.0</ele><time>2026-04-12T12:54:25.672Z</time></trkpt><trkpt lat="45.0463952" lon="7.9882054"><ele>292.0</ele><time>2026-04-12T12:54:26.672Z</time></trkpt><trkpt lat="45.0462407" lon="7.9882403"><ele>288.0</ele><time>2026-04-12T12:54:27.672Z</time></trkpt><trkpt lat="45.0460786" lon="7.9882751"><ele>284.0</ele><time>2026-04-12T12:54:28.672Z</time></trkpt><trkpt lat="45.0459228" lon="7.9883358"><ele>281.6666666666667</ele><time>2026-04-12T12:54:29.672Z</time></trkpt><trkpt lat="45.0457725" lon="7.9884173"><ele>279.3333333333333</ele><time>2026-04-12T12:54:30.672Z</time></trkpt><trkpt lat="45.0456271" lon="7.9885241"><ele>277.0</ele><time>2026-04-12T12:54:31.672Z</time></trkpt><trkpt lat="45.0454845" lon="7.9886522"><ele>277.0</ele><time>2026-04-12T12:54:32.671Z</time></trkpt><trkpt lat="45.0453505" lon="7.9887924"><ele>277.0</ele><time>2026-04-12T12:54:33.672Z</time></trkpt><trkpt lat="45.045218" lon="7.9889356"><ele>277.0</ele><time>2026-04-12T12:54:34.672Z</time></trkpt><trkpt lat="45.0451039" lon="7.9890887"><ele>276.5</ele><time>2026-04-12T12:54:35.672Z</time></trkpt><trkpt lat="45.044989" lon="7.98923"><ele>276.0</ele><time>2026-04-12T12:54:36.672Z</time></trkpt><trkpt lat="45.044875" lon="7.9893463"><ele>275.5</ele><time>2026-04-12T12:54:37.672Z</time></trkpt><trkpt lat="45.0447499" lon="7.9894293"><ele>275.0</ele><time>2026-04-12T12:54:38.672Z</time></trkpt><trkpt lat="45.0446041" lon="7.9894747"><ele>274.25</ele><time>2026-04-12T12:54:39.672Z</time></trkpt><trkpt lat="45.0444609" lon="7.9894985"><ele>273.5</ele><time>2026-04-12T12:54:40.672Z</time></trkpt><trkpt lat="45.0443161" lon="7.9895269"><ele>272.75</ele><time>2026-04-12T12:54:41.672Z</time></trkpt><trkpt lat="45.0441787" lon="7.9895532"><ele>272.0</ele><time>2026-04-12T12:54:42.671Z</time></trkpt><trkpt lat="45.0440505" lon="7.9895971"><ele>270.25</ele><time>2026-04-12T12:54:43.672Z</time></trkpt><trkpt lat="45.0439192" lon="7.9896597"><ele>268.5</ele><time>2026-04-12T12:54:44.672Z</time></trkpt><trkpt lat="45.0437816" lon="7.9897359"><ele>266.75</ele><time>2026-04-12T12:54:45.672Z</time></trkpt><trkpt lat="45.0436488" lon="7.9898299"><ele>265.0</ele><time>2026-04-12T12:54:46.672Z</time></trkpt><trkpt lat="45.0435135" lon="7.9899322"><ele>264.66666666666663</ele><time>2026-04-12T12:54:47.671Z</time></trkpt><trkpt lat="45.0433812" lon="7.9900579"><ele>264.3333333333333</ele><time>2026-04-12T12:54:48.672Z</time></trkpt><trkpt lat="45.0432527" lon="7.9901906"><ele>264.0</ele><time>2026-04-12T12:54:49.672Z</time></trkpt><trkpt lat="45.0431152" lon="7.9903105"><ele>264.0</ele><time>2026-04-12T12:54:50.672Z</time></trkpt><trkpt lat="45.0429808" lon="7.9904458"><ele>264.0</ele><time>2026-04-12T12:54:51.672Z</time></trkpt><trkpt lat="45.0428662" lon="7.9905682"><ele>264.0</ele><time>2026-04-12T12:54:52.672Z</time></trkpt><trkpt lat="45.0427527" lon="7.9906792"><ele>264.0</ele><time>2026-04-12T12:54:53.672Z</time></trkpt><trkpt lat="45.042662" lon="7.990782"><ele>263.75</ele><time>2026-04-12T12:54:54.672Z</time></trkpt><trkpt lat="45.042575" lon="7.9908823"><ele>263.5</ele><time>2026-04-12T12:54:55.672Z</time></trkpt><trkpt lat="45.0424803" lon="7.9909703"><ele>263.25</ele><time>2026-04-12T12:54:56.672Z</time></trkpt><trkpt lat="45.0423736" lon="7.9910357"><ele>263.0</ele><time>2026-04-12T12:54:57.672Z</time></trkpt><trkpt lat="45.0422605" lon="7.9910611"><ele>266.25</ele><time>2026-04-12T12:54:58.671Z</time></trkpt><trkpt lat="45.0421388" lon="7.991057"><ele>269.5</ele><time>2026-04-12T12:54:59.672Z</time></trkpt><trkpt lat="45.0420134" lon="7.9910454"><ele>272.75</ele><time>2026-04-12T12:55:00.672Z</time></trkpt><trkpt lat="45.0418772" lon="7.9910295"><ele>276.0</ele><time>2026-04-12T12:55:01.672Z</time></trkpt><trkpt lat="45.0417397" lon="7.9910369"><ele>274.25</ele><time>2026-04-12T12:55:02.672Z</time></trkpt><trkpt lat="45.0415909" lon="7.9910474"><ele>272.5</ele><time>2026-04-12T12:55:03.672Z</time></trkpt><trkpt lat="45.0414579" lon="7.9910656"><ele>270.75</ele><time>2026-04-12T12:55:04.672Z</time></trkpt><trkpt lat="45.0413028" lon="7.9910952"><ele>269.0</ele><time>2026-04-12T12:55:05.672Z</time></trkpt><trkpt lat="45.0411536" lon="7.9911366"><ele>269.0</ele><time>2026-04-12T12:55:06.672Z</time></trkpt><trkpt lat="45.0410009" lon="7.9911872"><ele>269.0</ele><time>2026-04-12T12:55:07.672Z</time></trkpt><trkpt lat="45.0408552" lon="7.9912546"><ele>269.0</ele><time>2026-04-12T12:55:08.671Z</time></trkpt><trkpt lat="45.0407075" lon="7.9913291"><ele>265.0</ele><time>2026-04-12T12:55:09.672Z</time></trkpt><trkpt lat="45.0405601" lon="7.9914019"><ele>261.0</ele><time>2026-04-12T12:55:10.671Z</time></trkpt><trkpt lat="45.0404178" lon="7.9914818"><ele>257.0</ele><time>2026-04-12T12:55:11.672Z</time></trkpt><trkpt lat="45.0402761" lon="7.9915625"><ele>257.0</ele><time>2026-04-12T12:55:12.672Z</time></trkpt><trkpt lat="45.0401455" lon="7.9916574"><ele>257.0</ele><time>2026-04-12T12:55:13.672Z</time></trkpt><trkpt lat="45.0400285" lon="7.9917725"><ele>257.0</ele><time>2026-04-12T12:55:14.672Z</time></trkpt><trkpt lat="45.0399061" lon="7.9919021"><ele>257.0</ele><time>2026-04-12T12:55:15.672Z</time></trkpt><trkpt lat="45.0397955" lon="7.9920429"><ele>255.66666666666669</ele><time>2026-04-12T12:55:16.672Z</time></trkpt><trkpt lat="45.0396786" lon="7.9921755"><ele>254.33333333333331</ele><time>2026-04-12T12:55:17.672Z</time></trkpt><trkpt lat="45.0395489" lon="7.9922948"><ele>253.0</ele><time>2026-04-12T12:55:18.672Z</time></trkpt><trkpt lat="45.0394256" lon="7.9924104"><ele>251.66666666666666</ele><time>2026-04-12T12:55:19.672Z</time></trkpt><trkpt lat="45.0392878" lon="7.9925359"><ele>250.33333333333331</ele><time>2026-04-12T12:55:20.672Z</time></trkpt><trkpt lat="45.0391701" lon="7.9926601"><ele>249.0</ele><time>2026-04-12T12:55:21.672Z</time></trkpt><trkpt lat="45.039043" lon="7.9927863"><ele>249.0</ele><time>2026-04-12T12:55:22.672Z</time></trkpt><trkpt lat="45.038925" lon="7.9929113"><ele>249.0</ele><time>2026-04-12T12:55:23.672Z</time></trkpt><trkpt lat="45.0388123" lon="7.9930553"><ele>249.0</ele><time>2026-04-12T12:55:24.672Z</time></trkpt><trkpt lat="45.0387104" lon="7.9932083"><ele>249.0</ele><time>2026-04-12T12:55:25.671Z</time></trkpt><trkpt lat="45.0386085" lon="7.9933693"><ele>250.0</ele><time>2026-04-12T12:55:26.672Z</time></trkpt><trkpt lat="45.0385091" lon="7.993508"><ele>251.0</ele><time>2026-04-12T12:55:27.672Z</time></trkpt><trkpt lat="45.0384135" lon="7.9936454"><ele>252.0</ele><time>2026-04-12T12:55:28.672Z</time></trkpt><trkpt lat="45.0383236" lon="7.9937908"><ele>253.0</ele><time>2026-04-12T12:55:29.672Z</time></trkpt><trkpt lat="45.038252" lon="7.9939404"><ele>251.66666666666666</ele><time>2026-04-12T12:55:30.672Z</time></trkpt><trkpt lat="45.0381809" lon="7.9940655"><ele>250.33333333333331</ele><time>2026-04-12T12:55:31.672Z</time></trkpt><trkpt lat="45.0381374" lon="7.9941744"><ele>249.0</ele><time>2026-04-12T12:55:32.672Z</time></trkpt><trkpt lat="45.0380934" lon="7.9942641"><ele>247.66666666666669</ele><time>2026-04-12T12:55:33.672Z</time></trkpt><trkpt lat="45.0380577" lon="7.9943441"><ele>246.33333333333334</ele><time>2026-04-12T12:55:34.672Z</time></trkpt><trkpt lat="45.0380034" lon="7.9944332"><ele>245.0</ele><time>2026-04-12T12:55:36.672Z</time></trkpt><trkpt lat="45.037942" lon="7.9944663"><ele>245.0</ele><time>2026-04-12T12:56:25.671Z</time></trkpt><trkpt lat="45.0378757" lon="7.9944262"><ele>245.0</ele><time>2026-04-12T12:56:27.672Z</time></trkpt><trkpt lat="45.0378363" lon="7.9942609"><ele>245.0</ele><time>2026-04-12T12:56:29.672Z</time></trkpt><trkpt lat="45.0378146" lon="7.9941477"><ele>245.0</ele><time>2026-04-12T12:56:30.672Z</time></trkpt><trkpt lat="45.0377864" lon="7.9940345"><ele>245.0</ele><time>2026-04-12T12:56:31.672Z</time></trkpt><trkpt lat="45.0377571" lon="7.9939053"><ele>245.0</ele><time>2026-04-12T12:56:32.672Z</time></trkpt><trkpt lat="45.0377245" lon="7.9937664"><ele>245.0</ele><time>2026-04-12T12:56:33.672Z</time></trkpt><trkpt lat="45.0377024" lon="7.9936345"><ele>245.0</ele><time>2026-04-12T12:56:34.672Z</time></trkpt><trkpt lat="45.0376699" lon="7.9934851"><ele>245.0</ele><time>2026-04-12T12:56:35.672Z</time></trkpt><trkpt lat="45.0376425" lon="7.9933195"><ele>245.0</ele><time>2026-04-12T12:56:36.672Z</time></trkpt><trkpt lat="45.0376073" lon="7.9931365"><ele>245.25</ele><time>2026-04-12T12:56:37.672Z</time></trkpt><trkpt lat="45.037578" lon="7.9929523"><ele>245.5</ele><time>2026-04-12T12:56:38.672Z</time></trkpt><trkpt lat="45.0375351" lon="7.9927615"><ele>245.75</ele><time>2026-04-12T12:56:39.672Z</time></trkpt><trkpt lat="45.0375087" lon="7.9925786"><ele>246.0</ele><time>2026-04-12T12:56:40.672Z</time></trkpt><trkpt lat="45.0374731" lon="7.9923855"><ele>247.0</ele><time>2026-04-12T12:56:41.672Z</time></trkpt><trkpt lat="45.0374275" lon="7.9921844"><ele>248.0</ele><time>2026-04-12T12:56:42.672Z</time></trkpt><trkpt lat="45.0373816" lon="7.9919833"><ele>249.0</ele><time>2026-04-12T12:56:43.672Z</time></trkpt><trkpt lat="45.037336" lon="7.991765"><ele>251.33333333333331</ele><time>2026-04-12T12:56:44.672Z</time></trkpt><trkpt lat="45.0372926" lon="7.9915523"><ele>253.66666666666666</ele><time>2026-04-12T12:56:45.672Z</time></trkpt><trkpt lat="45.0372567" lon="7.9913402"><ele>256.0</ele><time>2026-04-12T12:56:46.672Z</time></trkpt><trkpt lat="45.0372252" lon="7.9911286"><ele>256.0</ele><time>2026-04-12T12:56:47.672Z</time></trkpt><trkpt lat="45.0372117" lon="7.990934"><ele>256.0</ele><time>2026-04-12T12:56:48.672Z</time></trkpt><trkpt lat="45.0372334" lon="7.9907374"><ele>256.0</ele><time>2026-04-12T12:56:49.672Z</time></trkpt><trkpt lat="45.0372749" lon="7.9905387"><ele>256.0</ele><time>2026-04-12T12:56:50.672Z</time></trkpt><trkpt lat="45.0373408" lon="7.9903583"><ele>256.0</ele><time>2026-04-12T12:56:51.672Z</time></trkpt><trkpt lat="45.0374272" lon="7.9901276"><ele>256.0</ele><time>2026-04-12T12:56:52.672Z</time></trkpt><trkpt lat="45.0374927" lon="7.9898931"><ele>256.0</ele><time>2026-04-12T12:56:53.672Z</time></trkpt><trkpt lat="45.0375778" lon="7.9896756"><ele>256.0</ele><time>2026-04-12T12:56:54.672Z</time></trkpt><trkpt lat="45.0376685" lon="7.9894712"><ele>256.0</ele><time>2026-04-12T12:56:55.672Z</time></trkpt><trkpt lat="45.0377546" lon="7.9892497"><ele>256.0</ele><time>2026-04-12T12:56:56.672Z</time></trkpt><trkpt lat="45.0378499" lon="7.9890484"><ele>253.33333333333331</ele><time>2026-04-12T12:56:57.672Z</time></trkpt><trkpt lat="45.0379577" lon="7.9888585"><ele>250.66666666666669</ele><time>2026-04-12T12:56:58.672Z</time></trkpt><trkpt lat="45.0380793" lon="7.9886883"><ele>248.0</ele><time>2026-04-12T12:56:59.672Z</time></trkpt><trkpt lat="45.0382101" lon="7.9885429"><ele>250.0</ele><time>2026-04-12T12:57:00.672Z</time></trkpt><trkpt lat="45.038355" lon="7.9883917"><ele>252.0</ele><time>2026-04-12T12:57:01.672Z</time></trkpt><trkpt lat="45.0385235" lon="7.9882916"><ele>254.0</ele><time>2026-04-12T12:57:02.672Z</time></trkpt><trkpt lat="45.0386939" lon="7.9881803"><ele>254.0</ele><time>2026-04-12T12:57:03.672Z</time></trkpt><trkpt lat="45.0388705" lon="7.9881063"><ele>254.0</ele><time>2026-04-12T12:57:04.672Z</time></trkpt><trkpt lat="45.03904" lon="7.9880261"><ele>254.0</ele><time>2026-04-12T12:57:05.672Z</time></trkpt><trkpt lat="45.0392187" lon="7.9879413"><ele>256.6666666666667</ele><time>2026-04-12T12:57:06.672Z</time></trkpt><trkpt lat="45.0393857" lon="7.9878397"><ele>259.3333333333333</ele><time>2026-04-12T12:57:07.672Z</time></trkpt><trkpt lat="45.0395457" lon="7.9877067"><ele>262.0</ele><time>2026-04-12T12:57:08.672Z</time></trkpt><trkpt lat="45.0397014" lon="7.9875679"><ele>263.3333333333333</ele><time>2026-04-12T12:57:09.672Z</time></trkpt><trkpt lat="45.0398513" lon="7.9874255"><ele>264.6666666666667</ele><time>2026-04-12T12:57:10.672Z</time></trkpt><trkpt lat="45.0399966" lon="7.9872671"><ele>266.0</ele><time>2026-04-12T12:57:11.672Z</time></trkpt><trkpt lat="45.0401274" lon="7.9870971"><ele>266.0</ele><time>2026-04-12T12:57:12.672Z</time></trkpt><trkpt lat="45.0402546" lon="7.9869104"><ele>266.0</ele><time>2026-04-12T12:57:13.672Z</time></trkpt><trkpt lat="45.0403541" lon="7.9866939"><ele>266.0</ele><time>2026-04-12T12:57:14.672Z</time></trkpt><trkpt lat="45.0404492" lon="7.9864793"><ele>264.33333333333337</ele><time>2026-04-12T12:57:15.672Z</time></trkpt><trkpt lat="45.040538" lon="7.9862696"><ele>262.6666666666667</ele><time>2026-04-12T12:57:16.672Z</time></trkpt><trkpt lat="45.0406306" lon="7.9860634"><ele>261.0</ele><time>2026-04-12T12:57:17.672Z</time></trkpt><trkpt lat="45.0407256" lon="7.9858642"><ele>262.3333333333333</ele><time>2026-04-12T12:57:18.672Z</time></trkpt><trkpt lat="45.0408131" lon="7.98567"><ele>263.66666666666663</ele><time>2026-04-12T12:57:19.672Z</time></trkpt><trkpt lat="45.0409037" lon="7.9854701"><ele>265.0</ele><time>2026-04-12T12:57:20.672Z</time></trkpt><trkpt lat="45.0409903" lon="7.985274"><ele>265.0</ele><time>2026-04-12T12:57:21.672Z</time></trkpt><trkpt lat="45.0410937" lon="7.9850902"><ele>265.0</ele><time>2026-04-12T12:57:22.672Z</time></trkpt><trkpt lat="45.0411794" lon="7.9848883"><ele>265.0</ele><time>2026-04-12T12:57:23.672Z</time></trkpt><trkpt lat="45.0412664" lon="7.984697"><ele>266.3333333333333</ele><time>2026-04-12T12:57:24.671Z</time></trkpt><trkpt lat="45.0413664" lon="7.9845175"><ele>267.6666666666667</ele><time>2026-04-12T12:57:25.672Z</time></trkpt><trkpt lat="45.0414637" lon="7.9843443"><ele>269.0</ele><time>2026-04-12T12:57:26.672Z</time></trkpt><trkpt lat="45.0415778" lon="7.9841894"><ele>269.0</ele><time>2026-04-12T12:57:27.672Z</time></trkpt><trkpt lat="45.0416703" lon="7.9840201"><ele>269.0</ele><time>2026-04-12T12:57:28.672Z</time></trkpt><trkpt lat="45.0417697" lon="7.9838474"><ele>269.0</ele><time>2026-04-12T12:57:29.672Z</time></trkpt><trkpt lat="45.0418522" lon="7.9836664"><ele>269.0</ele><time>2026-04-12T12:57:30.671Z</time></trkpt><trkpt lat="45.04193" lon="7.983496"><ele>269.0</ele><time>2026-04-12T12:57:31.672Z</time></trkpt><trkpt lat="45.0419962" lon="7.9833438"><ele>269.0</ele><time>2026-04-12T12:57:32.672Z</time></trkpt><trkpt lat="45.04204" lon="7.9831823"><ele>269.0</ele><time>2026-04-12T12:57:33.672Z</time></trkpt><trkpt lat="45.0420725" lon="7.9830073"><ele>269.5</ele><time>2026-04-12T12:57:34.672Z</time></trkpt><trkpt lat="45.0420936" lon="7.982826"><ele>270.0</ele><time>2026-04-12T12:57:35.672Z</time></trkpt><trkpt lat="45.0420907" lon="7.9826398"><ele>270.5</ele><time>2026-04-12T12:57:36.672Z</time></trkpt><trkpt lat="45.0420647" lon="7.9824511"><ele>271.0</ele><time>2026-04-12T12:57:37.672Z</time></trkpt><trkpt lat="45.0420168" lon="7.9822668"><ele>275.66666666666663</ele><time>2026-04-12T12:57:38.672Z</time></trkpt><trkpt lat="45.0419598" lon="7.9820796"><ele>280.3333333333333</ele><time>2026-04-12T12:57:39.672Z</time></trkpt><trkpt lat="45.0419044" lon="7.9818766"><ele>285.0</ele><time>2026-04-12T12:57:40.672Z</time></trkpt><trkpt lat="45.0418258" lon="7.9816771"><ele>285.0</ele><time>2026-04-12T12:57:41.672Z</time></trkpt><trkpt lat="45.0417679" lon="7.9814669"><ele>285.0</ele><time>2026-04-12T12:57:42.672Z</time></trkpt><trkpt lat="45.0415534" lon="7.9802974"><ele>285.0</ele><time>2026-04-12T12:57:49.672Z</time></trkpt><trkpt lat="45.0415361" lon="7.9801418"><ele>285.0</ele><time>2026-04-12T12:57:50.672Z</time></trkpt><trkpt lat="45.0415344" lon="7.9800338"><ele>285.0</ele><time>2026-04-12T12:57:51.672Z</time></trkpt><trkpt lat="45.0414805" lon="7.9798705"><ele>285.0</ele><time>2026-04-12T12:57:52.672Z</time></trkpt><trkpt lat="45.0414466" lon="7.979732"><ele>285.0</ele><time>2026-04-12T12:57:53.672Z</time></trkpt><trkpt lat="45.0414154" lon="7.9796228"><ele>282.8333333333333</ele><time>2026-04-12T12:57:54.672Z</time></trkpt><trkpt lat="45.0413761" lon="7.9795486"><ele>280.6666666666667</ele><time>2026-04-12T12:57:55.672Z</time></trkpt><trkpt lat="45.0413204" lon="7.9794966"><ele>278.5</ele><time>2026-04-12T12:57:56.672Z</time></trkpt><trkpt lat="45.0412255" lon="7.9795061"><ele>276.33333333333337</ele><time>2026-04-12T12:57:58.672Z</time></trkpt><trkpt lat="45.0411638" lon="7.9796463"><ele>274.1666666666667</ele><time>2026-04-12T12:58:00.672Z</time></trkpt><trkpt lat="45.0411588" lon="7.9797828"><ele>272.0</ele><time>2026-04-12T12:58:01.672Z</time></trkpt><trkpt lat="45.0411601" lon="7.9799087"><ele>274.6</ele><time>2026-04-12T12:58:02.672Z</time></trkpt><trkpt lat="45.0411838" lon="7.980035"><ele>277.2</ele><time>2026-04-12T12:58:03.672Z</time></trkpt><trkpt lat="45.0412062" lon="7.9801694"><ele>279.8</ele><time>2026-04-12T12:58:04.672Z</time></trkpt><trkpt lat="45.0412247" lon="7.9803158"><ele>282.4</ele><time>2026-04-12T12:58:05.672Z</time></trkpt><trkpt lat="45.0412314" lon="7.9804554"><ele>285.0</ele><time>2026-04-12T12:58:06.672Z</time></trkpt><trkpt lat="45.0412764" lon="7.980607"><ele>285.0</ele><time>2026-04-12T12:58:07.672Z</time></trkpt><trkpt lat="45.0413389" lon="7.9807789"><ele>285.0</ele><time>2026-04-12T12:58:08.672Z</time></trkpt><trkpt lat="45.0413551" lon="7.9809536"><ele>285.0</ele><time>2026-04-12T12:58:09.672Z</time></trkpt><trkpt lat="45.0414088" lon="7.9811155"><ele>285.0</ele><time>2026-04-12T12:58:10.672Z</time></trkpt><trkpt lat="45.0414463" lon="7.9812755"><ele>287.5</ele><time>2026-04-12T12:58:11.672Z</time></trkpt><trkpt lat="45.0414823" lon="7.9814262"><ele>290.0</ele><time>2026-04-12T12:58:12.672Z</time></trkpt><trkpt lat="45.041494" lon="7.9815879"><ele>292.5</ele><time>2026-04-12T12:58:13.672Z</time></trkpt><trkpt lat="45.0414993" lon="7.9817564"><ele>295.0</ele><time>2026-04-12T12:58:14.672Z</time></trkpt><trkpt lat="45.041492" lon="7.981945"><ele>295.25</ele><time>2026-04-12T12:58:15.672Z</time></trkpt><trkpt lat="45.0414662" lon="7.9821221"><ele>295.5</ele><time>2026-04-12T12:58:16.672Z</time></trkpt><trkpt lat="45.0414182" lon="7.9822988"><ele>295.75</ele><time>2026-04-12T12:58:17.672Z</time></trkpt><trkpt lat="45.0414008" lon="7.9824849"><ele>296.0</ele><time>2026-04-12T12:58:18.672Z</time></trkpt><trkpt lat="45.0413101" lon="7.9826426"><ele>295.25</ele><time>2026-04-12T12:58:19.672Z</time></trkpt><trkpt lat="45.0411908" lon="7.9827696"><ele>294.5</ele><time>2026-04-12T12:58:20.672Z</time></trkpt><trkpt lat="45.0410952" lon="7.9828956"><ele>293.75</ele><time>2026-04-12T12:58:21.672Z</time></trkpt><trkpt lat="45.0409961" lon="7.983022"><ele>293.0</ele><time>2026-04-12T12:58:22.672Z</time></trkpt><trkpt lat="45.040888" lon="7.9831372"><ele>293.5</ele><time>2026-04-12T12:58:23.672Z</time></trkpt><trkpt lat="45.0407729" lon="7.9832283"><ele>294.0</ele><time>2026-04-12T12:58:24.672Z</time></trkpt><trkpt lat="45.0406107" lon="7.9832144"><ele>294.5</ele><time>2026-04-12T12:58:25.672Z</time></trkpt><trkpt lat="45.0404749" lon="7.9832573"><ele>295.0</ele><time>2026-04-12T12:58:26.672Z</time></trkpt><trkpt lat="45.0403376" lon="7.983358"><ele>295.0</ele><time>2026-04-12T12:58:27.672Z</time></trkpt><trkpt lat="45.0401929" lon="7.983467"><ele>295.0</ele><time>2026-04-12T12:58:28.672Z</time></trkpt><trkpt lat="45.0400418" lon="7.9835915"><ele>295.0</ele><time>2026-04-12T12:58:29.672Z</time></trkpt><trkpt lat="45.0398923" lon="7.983719"><ele>295.0</ele><time>2026-04-12T12:58:30.672Z</time></trkpt><trkpt lat="45.0397413" lon="7.9838401"><ele>295.0</ele><time>2026-04-12T12:58:31.672Z</time></trkpt><trkpt lat="45.0395903" lon="7.9839607"><ele>295.0</ele><time>2026-04-12T12:58:32.671Z</time></trkpt><trkpt lat="45.0394366" lon="7.9840794"><ele>293.0</ele><time>2026-04-12T12:58:33.672Z</time></trkpt><trkpt lat="45.0392797" lon="7.9841934"><ele>291.0</ele><time>2026-04-12T12:58:34.672Z</time></trkpt><trkpt lat="45.0391348" lon="7.9843013"><ele>289.0</ele><time>2026-04-12T12:58:35.671Z</time></trkpt><trkpt lat="45.0389792" lon="7.9844081"><ele>289.0</ele><time>2026-04-12T12:58:36.672Z</time></trkpt><trkpt lat="45.038835" lon="7.9845055"><ele>289.0</ele><time>2026-04-12T12:58:37.672Z</time></trkpt><trkpt lat="45.0386967" lon="7.9846082"><ele>289.0</ele><time>2026-04-12T12:58:38.672Z</time></trkpt><trkpt lat="45.0385678" lon="7.9847101"><ele>289.0</ele><time>2026-04-12T12:58:39.672Z</time></trkpt><trkpt lat="45.0384515" lon="7.9848206"><ele>289.0</ele><time>2026-04-12T12:58:40.672Z</time></trkpt><trkpt lat="45.0383384" lon="7.9849378"><ele>289.0</ele><time>2026-04-12T12:58:41.672Z</time></trkpt><trkpt lat="45.0382266" lon="7.9850434"><ele>289.0</ele><time>2026-04-12T12:58:42.672Z</time></trkpt><trkpt lat="45.0381024" lon="7.9851148"><ele>291.0</ele><time>2026-04-12T12:58:43.672Z</time></trkpt><trkpt lat="45.0379727" lon="7.9851479"><ele>293.0</ele><time>2026-04-12T12:58:44.672Z</time></trkpt><trkpt lat="45.037826" lon="7.9851467"><ele>295.0</ele><time>2026-04-12T12:58:45.672Z</time></trkpt><trkpt lat="45.0376738" lon="7.9851558"><ele>297.0</ele><time>2026-04-12T12:58:46.672Z</time></trkpt><trkpt lat="45.0375244" lon="7.9851991"><ele>295.75</ele><time>2026-04-12T12:58:47.672Z</time></trkpt><trkpt lat="45.0374063" lon="7.9852591"><ele>294.5</ele><time>2026-04-12T12:58:48.672Z</time></trkpt><trkpt lat="45.0372944" lon="7.9853271"><ele>293.25</ele><time>2026-04-12T12:58:49.672Z</time></trkpt><trkpt lat="45.0371675" lon="7.985484"><ele>292.0</ele><time>2026-04-12T12:58:50.672Z</time></trkpt><trkpt lat="45.0370606" lon="7.9855975"><ele>292.0</ele><time>2026-04-12T12:58:51.672Z</time></trkpt><trkpt lat="45.0369259" lon="7.9856827"><ele>292.0</ele><time>2026-04-12T12:58:52.672Z</time></trkpt><trkpt lat="45.0367791" lon="7.9857195"><ele>292.0</ele><time>2026-04-12T12:58:53.672Z</time></trkpt><trkpt lat="45.0366217" lon="7.9857249"><ele>290.0</ele><time>2026-04-12T12:58:54.672Z</time></trkpt><trkpt lat="45.0364607" lon="7.985728"><ele>288.0</ele><time>2026-04-12T12:58:55.672Z</time></trkpt><trkpt lat="45.0363107" lon="7.9857332"><ele>286.0</ele><time>2026-04-12T12:58:56.672Z</time></trkpt><trkpt lat="45.0361671" lon="7.9857339"><ele>286.0</ele><time>2026-04-12T12:58:57.672Z</time></trkpt><trkpt lat="45.0360356" lon="7.9857117"><ele>286.0</ele><time>2026-04-12T12:58:58.672Z</time></trkpt><trkpt lat="45.0359089" lon="7.9856494"><ele>286.0</ele><time>2026-04-12T12:58:59.672Z</time></trkpt><trkpt lat="45.0357889" lon="7.9855567"><ele>286.0</ele><time>2026-04-12T12:59:00.672Z</time></trkpt><trkpt lat="45.0356742" lon="7.9854516"><ele>284.75</ele><time>2026-04-12T12:59:01.671Z</time></trkpt><trkpt lat="45.0356076" lon="7.9852821"><ele>283.5</ele><time>2026-04-12T12:59:02.671Z</time></trkpt><trkpt lat="45.0355316" lon="7.9851404"><ele>282.25</ele><time>2026-04-12T12:59:03.672Z</time></trkpt><trkpt lat="45.0354182" lon="7.9850472"><ele>281.0</ele><time>2026-04-12T12:59:04.672Z</time></trkpt><trkpt lat="45.0352971" lon="7.9849787"><ele>281.0</ele><time>2026-04-12T12:59:05.672Z</time></trkpt><trkpt lat="45.0351628" lon="7.9849185"><ele>281.0</ele><time>2026-04-12T12:59:06.672Z</time></trkpt><trkpt lat="45.0350196" lon="7.9848626"><ele>281.0</ele><time>2026-04-12T12:59:07.672Z</time></trkpt><trkpt lat="45.0348749" lon="7.984804"><ele>281.0</ele><time>2026-04-12T12:59:08.672Z</time></trkpt><trkpt lat="45.0347275" lon="7.9848098"><ele>281.25</ele><time>2026-04-12T12:59:09.671Z</time></trkpt><trkpt lat="45.0345768" lon="7.9848549"><ele>281.5</ele><time>2026-04-12T12:59:10.671Z</time></trkpt><trkpt lat="45.0344316" lon="7.9849275"><ele>281.75</ele><time>2026-04-12T12:59:11.672Z</time></trkpt><trkpt lat="45.0343085" lon="7.9849996"><ele>282.0</ele><time>2026-04-12T12:59:12.672Z</time></trkpt><trkpt lat="45.0341876" lon="7.9850585"><ele>280.0</ele><time>2026-04-12T12:59:13.672Z</time></trkpt><trkpt lat="45.0340605" lon="7.9850959"><ele>278.0</ele><time>2026-04-12T12:59:14.672Z</time></trkpt><trkpt lat="45.033919" lon="7.9851088"><ele>276.0</ele><time>2026-04-12T12:59:15.672Z</time></trkpt><trkpt lat="45.0337732" lon="7.9850965"><ele>274.0</ele><time>2026-04-12T12:59:16.672Z</time></trkpt><trkpt lat="45.0336208" lon="7.985049"><ele>273.3333333333333</ele><time>2026-04-12T12:59:17.672Z</time></trkpt><trkpt lat="45.0334763" lon="7.9849852"><ele>272.6666666666667</ele><time>2026-04-12T12:59:18.672Z</time></trkpt><trkpt lat="45.0333394" lon="7.9848689"><ele>272.0</ele><time>2026-04-12T12:59:19.672Z</time></trkpt><trkpt lat="45.0332075" lon="7.9847464"><ele>272.0</ele><time>2026-04-12T12:59:20.672Z</time></trkpt><trkpt lat="45.0330849" lon="7.9846326"><ele>272.0</ele><time>2026-04-12T12:59:21.672Z</time></trkpt><trkpt lat="45.032963" lon="7.9845448"><ele>272.0</ele><time>2026-04-12T12:59:22.672Z</time></trkpt><trkpt lat="45.0328225" lon="7.9844932"><ele>272.0</ele><time>2026-04-12T12:59:23.672Z</time></trkpt><trkpt lat="45.0326663" lon="7.9844664"><ele>272.0</ele><time>2026-04-12T12:59:24.671Z</time></trkpt><trkpt lat="45.0325077" lon="7.9844743"><ele>272.0</ele><time>2026-04-12T12:59:25.672Z</time></trkpt><trkpt lat="45.0323474" lon="7.9845076"><ele>272.0</ele><time>2026-04-12T12:59:26.672Z</time></trkpt><trkpt lat="45.0321832" lon="7.9845572"><ele>272.0</ele><time>2026-04-12T12:59:27.671Z</time></trkpt><trkpt lat="45.0320234" lon="7.9846374"><ele>272.0</ele><time>2026-04-12T12:59:28.672Z</time></trkpt><trkpt lat="45.0318818" lon="7.9847574"><ele>272.0</ele><time>2026-04-12T12:59:29.672Z</time></trkpt><trkpt lat="45.0317395" lon="7.9848921"><ele>271.6666666666667</ele><time>2026-04-12T12:59:30.672Z</time></trkpt><trkpt lat="45.0315971" lon="7.9850195"><ele>271.3333333333333</ele><time>2026-04-12T12:59:31.672Z</time></trkpt><trkpt lat="45.0314457" lon="7.9851463"><ele>271.0</ele><time>2026-04-12T12:59:32.672Z</time></trkpt><trkpt lat="45.0312979" lon="7.9852745"><ele>271.0</ele><time>2026-04-12T12:59:33.671Z</time></trkpt><trkpt lat="45.0311542" lon="7.9854023"><ele>271.0</ele><time>2026-04-12T12:59:34.672Z</time></trkpt><trkpt lat="45.0310143" lon="7.9855262"><ele>271.0</ele><time>2026-04-12T12:59:35.672Z</time></trkpt><trkpt lat="45.0308903" lon="7.9856736"><ele>272.0</ele><time>2026-04-12T12:59:36.672Z</time></trkpt><trkpt lat="45.0307775" lon="7.9858282"><ele>273.0</ele><time>2026-04-12T12:59:37.672Z</time></trkpt><trkpt lat="45.0306695" lon="7.9859903"><ele>274.0</ele><time>2026-04-12T12:59:38.672Z</time></trkpt><trkpt lat="45.030583" lon="7.9861413"><ele>274.0</ele><time>2026-04-12T12:59:39.671Z</time></trkpt><trkpt lat="45.0305102" lon="7.9862759"><ele>274.0</ele><time>2026-04-12T12:59:40.672Z</time></trkpt><trkpt lat="45.0304193" lon="7.9863858"><ele>274.0</ele><time>2026-04-12T12:59:41.672Z</time></trkpt><trkpt lat="45.0303212" lon="7.9864832"><ele>274.0</ele><time>2026-04-12T12:59:42.671Z</time></trkpt><trkpt lat="45.030203" lon="7.9865594"><ele>274.0</ele><time>2026-04-12T12:59:43.672Z</time></trkpt><trkpt lat="45.0300549" lon="7.9866417"><ele>274.0</ele><time>2026-04-12T12:59:44.672Z</time></trkpt><trkpt lat="45.029902" lon="7.9867238"><ele>274.0</ele><time>2026-04-12T12:59:45.672Z</time></trkpt><trkpt lat="45.0297537" lon="7.9868258"><ele>272.66666666666663</ele><time>2026-04-12T12:59:46.672Z</time></trkpt><trkpt lat="45.029607" lon="7.9869334"><ele>271.3333333333333</ele><time>2026-04-12T12:59:47.672Z</time></trkpt><trkpt lat="45.0294484" lon="7.9870308"><ele>270.0</ele><time>2026-04-12T12:59:48.672Z</time></trkpt><trkpt lat="45.0292712" lon="7.9871046"><ele>270.3333333333333</ele><time>2026-04-12T12:59:49.672Z</time></trkpt><trkpt lat="45.0291008" lon="7.9871645"><ele>270.66666666666663</ele><time>2026-04-12T12:59:50.672Z</time></trkpt><trkpt lat="45.0289402" lon="7.9872137"><ele>271.0</ele><time>2026-04-12T12:59:51.672Z</time></trkpt><trkpt lat="45.0287748" lon="7.9872503"><ele>271.0</ele><time>2026-04-12T12:59:52.672Z</time></trkpt><trkpt lat="45.0286015" lon="7.9872736"><ele>271.0</ele><time>2026-04-12T12:59:53.672Z</time></trkpt><trkpt lat="45.028443" lon="7.9872781"><ele>271.0</ele><time>2026-04-12T12:59:54.672Z</time></trkpt><trkpt lat="45.0282852" lon="7.9872623"><ele>269.0</ele><time>2026-04-12T12:59:55.672Z</time></trkpt><trkpt lat="45.028127" lon="7.987215"><ele>267.0</ele><time>2026-04-12T12:59:56.672Z</time></trkpt><trkpt lat="45.0279698" lon="7.9871505"><ele>265.0</ele><time>2026-04-12T12:59:57.672Z</time></trkpt><trkpt lat="45.0278162" lon="7.9870904"><ele>265.0</ele><time>2026-04-12T12:59:58.672Z</time></trkpt><trkpt lat="45.0276529" lon="7.9870214"><ele>265.0</ele><time>2026-04-12T12:59:59.672Z</time></trkpt><trkpt lat="45.0274899" lon="7.986964"><ele>265.0</ele><time>2026-04-12T13:00:00.672Z</time></trkpt><trkpt lat="45.0273212" lon="7.9869093"><ele>265.0</ele><time>2026-04-12T13:00:01.672Z</time></trkpt><trkpt lat="45.0271595" lon="7.9868805"><ele>265.0</ele><time>2026-04-12T13:00:02.672Z</time></trkpt><trkpt lat="45.0269899" lon="7.9868988"><ele>265.0</ele><time>2026-04-12T13:00:03.672Z</time></trkpt><trkpt lat="45.0268243" lon="7.9869624"><ele>265.0</ele><time>2026-04-12T13:00:04.672Z</time></trkpt><trkpt lat="45.0266667" lon="7.9870425"><ele>265.0</ele><time>2026-04-12T13:00:05.671Z</time></trkpt><trkpt lat="45.0265091" lon="7.9871275"><ele>265.0</ele><time>2026-04-12T13:00:06.672Z</time></trkpt><trkpt lat="45.0263448" lon="7.9872105"><ele>265.0</ele><time>2026-04-12T13:00:07.672Z</time></trkpt><trkpt lat="45.0261883" lon="7.9873119"><ele>265.0</ele><time>2026-04-12T13:00:08.672Z</time></trkpt><trkpt lat="45.026038" lon="7.9874308"><ele>265.0</ele><time>2026-04-12T13:00:09.672Z</time></trkpt><trkpt lat="45.0259016" lon="7.987571"><ele>269.66666666666663</ele><time>2026-04-12T13:00:10.672Z</time></trkpt><trkpt lat="45.0257617" lon="7.9877154"><ele>274.3333333333333</ele><time>2026-04-12T13:00:11.672Z</time></trkpt><trkpt lat="45.0256527" lon="7.9879051"><ele>279.0</ele><time>2026-04-12T13:00:12.672Z</time></trkpt><trkpt lat="45.0255683" lon="7.9880968"><ele>279.0</ele><time>2026-04-12T13:00:13.672Z</time></trkpt><trkpt lat="45.0254665" lon="7.9882772"><ele>279.0</ele><time>2026-04-12T13:00:14.672Z</time></trkpt><trkpt lat="45.0253816" lon="7.9884384"><ele>279.0</ele><time>2026-04-12T13:00:15.672Z</time></trkpt><trkpt lat="45.025288" lon="7.9885895"><ele>279.0</ele><time>2026-04-12T13:00:16.672Z</time></trkpt><trkpt lat="45.0251676" lon="7.9886975"><ele>276.75</ele><time>2026-04-12T13:00:17.672Z</time></trkpt><trkpt lat="45.025049" lon="7.9888172"><ele>274.5</ele><time>2026-04-12T13:00:18.672Z</time></trkpt><trkpt lat="45.0249289" lon="7.9889292"><ele>272.25</ele><time>2026-04-12T13:00:19.672Z</time></trkpt><trkpt lat="45.0248138" lon="7.9890212"><ele>270.0</ele><time>2026-04-12T13:00:20.672Z</time></trkpt><trkpt lat="45.0247091" lon="7.9891067"><ele>269.2</ele><time>2026-04-12T13:00:21.672Z</time></trkpt><trkpt lat="45.0245996" lon="7.989164"><ele>268.4</ele><time>2026-04-12T13:00:22.672Z</time></trkpt><trkpt lat="45.024494" lon="7.9892069"><ele>267.6</ele><time>2026-04-12T13:00:23.672Z</time></trkpt><trkpt lat="45.0243955" lon="7.9891956"><ele>266.8</ele><time>2026-04-12T13:00:24.672Z</time></trkpt><trkpt lat="45.0242825" lon="7.9891333"><ele>266.0</ele><time>2026-04-12T13:00:25.672Z</time></trkpt><trkpt lat="45.0241754" lon="7.9890293"><ele>260.6666666666667</ele><time>2026-04-12T13:00:26.672Z</time></trkpt><trkpt lat="45.0240564" lon="7.9889157"><ele>255.33333333333331</ele><time>2026-04-12T13:00:27.672Z</time></trkpt><trkpt lat="45.0239112" lon="7.9887966"><ele>250.0</ele><time>2026-04-12T13:00:28.672Z</time></trkpt><trkpt lat="45.0237667" lon="7.9886866"><ele>250.0</ele><time>2026-04-12T13:00:29.672Z</time></trkpt><trkpt lat="45.023617" lon="7.9886004"><ele>250.0</ele><time>2026-04-12T13:00:30.672Z</time></trkpt><trkpt lat="45.0234644" lon="7.9885174"><ele>250.0</ele><time>2026-04-12T13:00:31.672Z</time></trkpt><trkpt lat="45.0233109" lon="7.9884321"><ele>248.66666666666666</ele><time>2026-04-12T13:00:32.672Z</time></trkpt><trkpt lat="45.0231605" lon="7.9883446"><ele>247.33333333333331</ele><time>2026-04-12T13:00:33.671Z</time></trkpt><trkpt lat="45.0229979" lon="7.9882535"><ele>246.0</ele><time>2026-04-12T13:00:34.672Z</time></trkpt><trkpt lat="45.0228423" lon="7.9881554"><ele>250.33333333333331</ele><time>2026-04-12T13:00:35.672Z</time></trkpt><trkpt lat="45.0226954" lon="7.9880581"><ele>254.66666666666666</ele><time>2026-04-12T13:00:36.671Z</time></trkpt><trkpt lat="45.0225478" lon="7.9879636"><ele>259.0</ele><time>2026-04-12T13:00:37.672Z</time></trkpt><trkpt lat="45.0224146" lon="7.9878836"><ele>260.75</ele><time>2026-04-12T13:00:38.672Z</time></trkpt><trkpt lat="45.0222772" lon="7.9878148"><ele>262.5</ele><time>2026-04-12T13:00:39.672Z</time></trkpt><trkpt lat="45.0221496" lon="7.9877752"><ele>264.25</ele><time>2026-04-12T13:00:40.672Z</time></trkpt><trkpt lat="45.0220323" lon="7.9877698"><ele>266.0</ele><time>2026-04-12T13:00:41.672Z</time></trkpt><trkpt lat="45.0219019" lon="7.987819"><ele>266.0</ele><time>2026-04-12T13:00:42.672Z</time></trkpt><trkpt lat="45.0217716" lon="7.9878783"><ele>266.0</ele><time>2026-04-12T13:00:43.671Z</time></trkpt><trkpt lat="45.0216356" lon="7.9879369"><ele>266.0</ele><time>2026-04-12T13:00:44.671Z</time></trkpt><trkpt lat="45.0214889" lon="7.9879921"><ele>266.0</ele><time>2026-04-12T13:00:45.672Z</time></trkpt><trkpt lat="45.0213513" lon="7.9880485"><ele>268.0</ele><time>2026-04-12T13:00:46.672Z</time></trkpt><trkpt lat="45.021215" lon="7.9880882"><ele>270.0</ele><time>2026-04-12T13:00:47.672Z</time></trkpt><trkpt lat="45.0210899" lon="7.9881178"><ele>272.0</ele><time>2026-04-12T13:00:48.672Z</time></trkpt><trkpt lat="45.0209651" lon="7.9881199"><ele>274.0</ele><time>2026-04-12T13:00:49.672Z</time></trkpt><trkpt lat="45.0208318" lon="7.9880796"><ele>274.3333333333333</ele><time>2026-04-12T13:00:50.672Z</time></trkpt><trkpt lat="45.0207039" lon="7.9880216"><ele>274.6666666666667</ele><time>2026-04-12T13:00:51.672Z</time></trkpt><trkpt lat="45.0205484" lon="7.9879456"><ele>275.0</ele><time>2026-04-12T13:00:52.672Z</time></trkpt><trkpt lat="45.0203977" lon="7.987883"><ele>275.0</ele><time>2026-04-12T13:00:53.672Z</time></trkpt><trkpt lat="45.0202652" lon="7.9878273"><ele>275.0</ele><time>2026-04-12T13:00:54.672Z</time></trkpt><trkpt lat="45.0201267" lon="7.9877641"><ele>275.0</ele><time>2026-04-12T13:00:55.672Z</time></trkpt><trkpt lat="45.0199929" lon="7.9877028"><ele>275.0</ele><time>2026-04-12T13:00:56.672Z</time></trkpt><trkpt lat="45.0198681" lon="7.9876516"><ele>274.75</ele><time>2026-04-12T13:00:57.671Z</time></trkpt><trkpt lat="45.0197407" lon="7.987631"><ele>274.5</ele><time>2026-04-12T13:00:58.672Z</time></trkpt><trkpt lat="45.0195983" lon="7.987652"><ele>274.25</ele><time>2026-04-12T13:00:59.672Z</time></trkpt><trkpt lat="45.0194575" lon="7.9877104"><ele>274.0</ele><time>2026-04-12T13:01:00.672Z</time></trkpt><trkpt lat="45.0193142" lon="7.9877865"><ele>274.0</ele><time>2026-04-12T13:01:01.672Z</time></trkpt><trkpt lat="45.0191814" lon="7.9878981"><ele>274.0</ele><time>2026-04-12T13:01:02.672Z</time></trkpt><trkpt lat="45.01906" lon="7.9880341"><ele>274.0</ele><time>2026-04-12T13:01:03.672Z</time></trkpt><trkpt lat="45.0189478" lon="7.9881953"><ele>274.3333333333333</ele><time>2026-04-12T13:01:04.671Z</time></trkpt><trkpt lat="45.0188477" lon="7.9883791"><ele>274.6666666666667</ele><time>2026-04-12T13:01:05.671Z</time></trkpt><trkpt lat="45.0187625" lon="7.9885854"><ele>275.0</ele><time>2026-04-12T13:01:06.672Z</time></trkpt><trkpt lat="45.0186861" lon="7.9888005"><ele>275.0</ele><time>2026-04-12T13:01:07.672Z</time></trkpt><trkpt lat="45.0186155" lon="7.9890182"><ele>275.0</ele><time>2026-04-12T13:01:08.672Z</time></trkpt><trkpt lat="45.0185452" lon="7.9892432"><ele>275.0</ele><time>2026-04-12T13:01:09.672Z</time></trkpt><trkpt lat="45.0184727" lon="7.9894826"><ele>273.33333333333337</ele><time>2026-04-12T13:01:10.672Z</time></trkpt><trkpt lat="45.0183832" lon="7.9897162"><ele>271.6666666666667</ele><time>2026-04-12T13:01:11.672Z</time></trkpt><trkpt lat="45.0182934" lon="7.9899616"><ele>270.0</ele><time>2026-04-12T13:01:12.672Z</time></trkpt><trkpt lat="45.0182066" lon="7.9902005"><ele>268.6666666666667</ele><time>2026-04-12T13:01:13.672Z</time></trkpt><trkpt lat="45.0181126" lon="7.9904444"><ele>267.33333333333337</ele><time>2026-04-12T13:01:14.672Z</time></trkpt><trkpt lat="45.0180175" lon="7.9906773"><ele>266.0</ele><time>2026-04-12T13:01:15.672Z</time></trkpt><trkpt lat="45.0179135" lon="7.9908932"><ele>266.0</ele><time>2026-04-12T13:01:16.672Z</time></trkpt><trkpt lat="45.0178145" lon="7.9910976"><ele>266.0</ele><time>2026-04-12T13:01:17.672Z</time></trkpt><trkpt lat="45.017705" lon="7.9913078"><ele>266.0</ele><time>2026-04-12T13:01:18.672Z</time></trkpt><trkpt lat="45.0175862" lon="7.9914914"><ele>265.0</ele><time>2026-04-12T13:01:19.672Z</time></trkpt><trkpt lat="45.0174475" lon="7.9916541"><ele>264.0</ele><time>2026-04-12T13:01:20.672Z</time></trkpt><trkpt lat="45.0173027" lon="7.9918016"><ele>263.0</ele><time>2026-04-12T13:01:21.672Z</time></trkpt><trkpt lat="45.0171574" lon="7.9919464"><ele>265.33333333333337</ele><time>2026-04-12T13:01:22.672Z</time></trkpt><trkpt lat="45.0170106" lon="7.9920836"><ele>267.6666666666667</ele><time>2026-04-12T13:01:23.672Z</time></trkpt><trkpt lat="45.0168548" lon="7.9922078"><ele>270.0</ele><time>2026-04-12T13:01:24.672Z</time></trkpt><trkpt lat="45.0167007" lon="7.992328"><ele>270.0</ele><time>2026-04-12T13:01:25.672Z</time></trkpt><trkpt lat="45.0165469" lon="7.9924345"><ele>270.0</ele><time>2026-04-12T13:01:26.672Z</time></trkpt><trkpt lat="45.0163897" lon="7.9925315"><ele>270.0</ele><time>2026-04-12T13:01:27.672Z</time></trkpt><trkpt lat="45.0162367" lon="7.9926102"><ele>270.0</ele><time>2026-04-12T13:01:28.672Z</time></trkpt><trkpt lat="45.0160835" lon="7.992667"><ele>270.0</ele><time>2026-04-12T13:01:29.672Z</time></trkpt><trkpt lat="45.0159217" lon="7.9927071"><ele>270.0</ele><time>2026-04-12T13:01:30.672Z</time></trkpt><trkpt lat="45.0157627" lon="7.9927327"><ele>268.6666666666667</ele><time>2026-04-12T13:01:31.672Z</time></trkpt><trkpt lat="45.015604" lon="7.9927354"><ele>267.33333333333337</ele><time>2026-04-12T13:01:32.672Z</time></trkpt><trkpt lat="45.0154417" lon="7.9927251"><ele>266.0</ele><time>2026-04-12T13:01:33.672Z</time></trkpt><trkpt lat="45.0152774" lon="7.9927018"><ele>266.0</ele><time>2026-04-12T13:01:34.672Z</time></trkpt><trkpt lat="45.0151136" lon="7.9926715"><ele>266.0</ele><time>2026-04-12T13:01:35.672Z</time></trkpt><trkpt lat="45.0149476" lon="7.9926257"><ele>266.0</ele><time>2026-04-12T13:01:36.672Z</time></trkpt><trkpt lat="45.0147854" lon="7.9925827"><ele>266.33333333333337</ele><time>2026-04-12T13:01:37.672Z</time></trkpt><trkpt lat="45.014621" lon="7.9925401"><ele>266.6666666666667</ele><time>2026-04-12T13:01:38.672Z</time></trkpt><trkpt lat="45.0144709" lon="7.9924806"><ele>267.0</ele><time>2026-04-12T13:01:39.672Z</time></trkpt><trkpt lat="45.0143168" lon="7.9924298"><ele>265.3333333333333</ele><time>2026-04-12T13:01:40.672Z</time></trkpt><trkpt lat="45.0141544" lon="7.9923897"><ele>263.66666666666663</ele><time>2026-04-12T13:01:41.672Z</time></trkpt><trkpt lat="45.0140027" lon="7.992341"><ele>262.0</ele><time>2026-04-12T13:01:42.672Z</time></trkpt><trkpt lat="45.0138477" lon="7.992296"><ele>262.0</ele><time>2026-04-12T13:01:43.671Z</time></trkpt><trkpt lat="45.0137018" lon="7.9922397"><ele>262.0</ele><time>2026-04-12T13:01:44.672Z</time></trkpt><trkpt lat="45.0135509" lon="7.9921633"><ele>262.0</ele><time>2026-04-12T13:01:45.672Z</time></trkpt><trkpt lat="45.0134039" lon="7.9920631"><ele>262.66666666666663</ele><time>2026-04-12T13:01:46.672Z</time></trkpt><trkpt lat="45.0132747" lon="7.9919341"><ele>263.3333333333333</ele><time>2026-04-12T13:01:47.672Z</time></trkpt><trkpt lat="45.0131576" lon="7.9917732"><ele>264.0</ele><time>2026-04-12T13:01:48.672Z</time></trkpt><trkpt lat="45.013043" lon="7.991586"><ele>264.0</ele><time>2026-04-12T13:01:49.672Z</time></trkpt><trkpt lat="45.0129484" lon="7.9913936"><ele>264.0</ele><time>2026-04-12T13:01:50.672Z</time></trkpt><trkpt lat="45.0128626" lon="7.9912026"><ele>264.0</ele><time>2026-04-12T13:01:51.672Z</time></trkpt><trkpt lat="45.012785" lon="7.9910191"><ele>264.0</ele><time>2026-04-12T13:01:52.672Z</time></trkpt><trkpt lat="45.0127106" lon="7.9908537"><ele>264.0</ele><time>2026-04-12T13:01:53.672Z</time></trkpt><trkpt lat="45.0126271" lon="7.9907027"><ele>264.0</ele><time>2026-04-12T13:01:54.672Z</time></trkpt><trkpt lat="45.0125231" lon="7.9905568"><ele>264.0</ele><time>2026-04-12T13:01:55.672Z</time></trkpt><trkpt lat="45.012417" lon="7.9904385"><ele>262.0</ele><time>2026-04-12T13:01:56.672Z</time></trkpt><trkpt lat="45.0122935" lon="7.9903476"><ele>260.0</ele><time>2026-04-12T13:01:57.672Z</time></trkpt><trkpt lat="45.0121542" lon="7.9902814"><ele>258.0</ele><time>2026-04-12T13:01:58.672Z</time></trkpt><trkpt lat="45.0120026" lon="7.9902178"><ele>256.0</ele><time>2026-04-12T13:01:59.672Z</time></trkpt><trkpt lat="45.0118506" lon="7.9901501"><ele>256.0</ele><time>2026-04-12T13:02:00.672Z</time></trkpt><trkpt lat="45.0117108" lon="7.9901002"><ele>256.0</ele><time>2026-04-12T13:02:01.672Z</time></trkpt><trkpt lat="45.0115691" lon="7.9900539"><ele>256.0</ele><time>2026-04-12T13:02:02.672Z</time></trkpt><trkpt lat="45.0114214" lon="7.9900387"><ele>256.0</ele><time>2026-04-12T13:02:03.672Z</time></trkpt><trkpt lat="45.0112658" lon="7.9900227"><ele>255.0</ele><time>2026-04-12T13:02:04.672Z</time></trkpt><trkpt lat="45.0111209" lon="7.990015"><ele>254.0</ele><time>2026-04-12T13:02:05.672Z</time></trkpt><trkpt lat="45.0109818" lon="7.9899981"><ele>253.0</ele><time>2026-04-12T13:02:06.672Z</time></trkpt><trkpt lat="45.0108313" lon="7.9899848"><ele>252.0</ele><time>2026-04-12T13:02:07.672Z</time></trkpt><trkpt lat="45.0106898" lon="7.9899626"><ele>250.25</ele><time>2026-04-12T13:02:08.672Z</time></trkpt><trkpt lat="45.0105521" lon="7.989943"><ele>248.5</ele><time>2026-04-12T13:02:09.671Z</time></trkpt><trkpt lat="45.0104199" lon="7.989923"><ele>246.75</ele><time>2026-04-12T13:02:10.672Z</time></trkpt><trkpt lat="45.0102956" lon="7.9898996"><ele>245.0</ele><time>2026-04-12T13:02:11.672Z</time></trkpt><trkpt lat="45.0101702" lon="7.9898744"><ele>245.00000000000003</ele><time>2026-04-12T13:02:12.672Z</time></trkpt><trkpt lat="45.0100558" lon="7.9898549"><ele>245.0</ele><time>2026-04-12T13:02:13.672Z</time></trkpt><trkpt lat="45.0099545" lon="7.9898353"><ele>245.0</ele><time>2026-04-12T13:02:14.672Z</time></trkpt><trkpt lat="45.0098889" lon="7.9898115"><ele>245.0</ele><time>2026-04-12T13:02:15.672Z</time></trkpt><trkpt lat="45.0098297" lon="7.9897663"><ele>245.00000000000003</ele><time>2026-04-12T13:02:16.672Z</time></trkpt><trkpt lat="45.0098083" lon="7.9896792"><ele>245.0</ele><time>2026-04-12T13:02:17.672Z</time></trkpt><trkpt lat="45.009873" lon="7.9895285"><ele>245.0</ele><time>2026-04-12T13:02:19.672Z</time></trkpt><trkpt lat="45.0099528" lon="7.9894765"><ele>245.0</ele><time>2026-04-12T13:02:20.672Z</time></trkpt><trkpt lat="45.010027" lon="7.9893962"><ele>245.0</ele><time>2026-04-12T13:02:21.672Z</time></trkpt><trkpt lat="45.0101206" lon="7.9893204"><ele>245.0</ele><time>2026-04-12T13:02:22.671Z</time></trkpt><trkpt lat="45.0101935" lon="7.9892148"><ele>245.0</ele><time>2026-04-12T13:02:23.671Z</time></trkpt><trkpt lat="45.0102613" lon="7.9890896"><ele>241.25</ele><time>2026-04-12T13:02:24.672Z</time></trkpt><trkpt lat="45.0103184" lon="7.9889252"><ele>237.5</ele><time>2026-04-12T13:02:25.671Z</time></trkpt><trkpt lat="45.0103232" lon="7.9887153"><ele>233.75</ele><time>2026-04-12T13:02:26.672Z</time></trkpt><trkpt lat="45.0103431" lon="7.9885134"><ele>230.0</ele><time>2026-04-12T13:02:27.672Z</time></trkpt><trkpt lat="45.0103602" lon="7.9882895"><ele>227.66666666666669</ele><time>2026-04-12T13:02:28.672Z</time></trkpt><trkpt lat="45.0103873" lon="7.9880606"><ele>225.33333333333331</ele><time>2026-04-12T13:02:29.672Z</time></trkpt><trkpt lat="45.0104205" lon="7.9878418"><ele>223.0</ele><time>2026-04-12T13:02:30.672Z</time></trkpt><trkpt lat="45.0104541" lon="7.9876273"><ele>221.75</ele><time>2026-04-12T13:02:31.672Z</time></trkpt><trkpt lat="45.01048" lon="7.9874247"><ele>220.5</ele><time>2026-04-12T13:02:32.672Z</time></trkpt><trkpt lat="45.0105139" lon="7.9872345"><ele>219.25</ele><time>2026-04-12T13:02:33.672Z</time></trkpt><trkpt lat="45.0105403" lon="7.9870607"><ele>218.0</ele><time>2026-04-12T13:02:34.672Z</time></trkpt><trkpt lat="45.010565" lon="7.9869035"><ele>218.00000000000003</ele><time>2026-04-12T13:02:35.672Z</time></trkpt><trkpt lat="45.0105809" lon="7.9867788"><ele>218.0</ele><time>2026-04-12T13:02:36.672Z</time></trkpt><trkpt lat="45.0105812" lon="7.986672"><ele>218.0</ele><time>2026-04-12T13:02:37.672Z</time></trkpt><trkpt lat="45.0105645" lon="7.9865821"><ele>218.0</ele><time>2026-04-12T13:02:38.672Z</time></trkpt><trkpt lat="45.0105343" lon="7.9864866"><ele>218.00000000000003</ele><time>2026-04-12T13:02:39.672Z</time></trkpt><trkpt lat="45.0104703" lon="7.9864108"><ele>218.0</ele><time>2026-04-12T13:02:40.672Z</time></trkpt><trkpt lat="45.0103807" lon="7.9863671"><ele>217.25</ele><time>2026-04-12T13:02:41.672Z</time></trkpt><trkpt lat="45.0102541" lon="7.9863248"><ele>216.5</ele><time>2026-04-12T13:02:42.672Z</time></trkpt><trkpt lat="45.0101212" lon="7.9862938"><ele>215.75</ele><time>2026-04-12T13:02:43.672Z</time></trkpt><trkpt lat="45.0099804" lon="7.9862528"><ele>215.0</ele><time>2026-04-12T13:02:44.671Z</time></trkpt><trkpt lat="45.0098314" lon="7.9862008"><ele>218.33333333333334</ele><time>2026-04-12T13:02:45.672Z</time></trkpt><trkpt lat="45.0096688" lon="7.9861396"><ele>221.66666666666669</ele><time>2026-04-12T13:02:46.671Z</time></trkpt><trkpt lat="45.0095025" lon="7.986073"><ele>225.0</ele><time>2026-04-12T13:02:47.672Z</time></trkpt><trkpt lat="45.0093451" lon="7.9860224"><ele>225.0</ele><time>2026-04-12T13:02:48.672Z</time></trkpt><trkpt lat="45.0091734" lon="7.9859881"><ele>225.0</ele><time>2026-04-12T13:02:49.672Z</time></trkpt><trkpt lat="45.0089912" lon="7.9859768"><ele>225.0</ele><time>2026-04-12T13:02:50.672Z</time></trkpt><trkpt lat="45.0088029" lon="7.9859997"><ele>224.66666666666669</ele><time>2026-04-12T13:02:51.672Z</time></trkpt><trkpt lat="45.0086111" lon="7.9860358"><ele>224.33333333333334</ele><time>2026-04-12T13:02:52.672Z</time></trkpt><trkpt lat="45.0084194" lon="7.9860791"><ele>224.0</ele><time>2026-04-12T13:02:53.672Z</time></trkpt><trkpt lat="45.0082166" lon="7.98612"><ele>224.0</ele><time>2026-04-12T13:02:54.672Z</time></trkpt><trkpt lat="45.0080169" lon="7.9861648"><ele>224.0</ele><time>2026-04-12T13:02:55.672Z</time></trkpt><trkpt lat="45.0078321" lon="7.9862067"><ele>224.0</ele><time>2026-04-12T13:02:56.672Z</time></trkpt><trkpt lat="45.0076578" lon="7.9862364"><ele>224.0</ele><time>2026-04-12T13:02:57.672Z</time></trkpt><trkpt lat="45.0074953" lon="7.9862632"><ele>224.0</ele><time>2026-04-12T13:02:58.671Z</time></trkpt><trkpt lat="45.0073257" lon="7.9862864"><ele>224.0</ele><time>2026-04-12T13:02:59.672Z</time></trkpt><trkpt lat="45.0071557" lon="7.9863243"><ele>223.66666666666669</ele><time>2026-04-12T13:03:00.672Z</time></trkpt><trkpt lat="45.0069876" lon="7.9863415"><ele>223.33333333333331</ele><time>2026-04-12T13:03:01.672Z</time></trkpt><trkpt lat="45.0068169" lon="7.9863597"><ele>223.0</ele><time>2026-04-12T13:03:02.672Z</time></trkpt><trkpt lat="45.0066485" lon="7.9863859"><ele>222.0</ele><time>2026-04-12T13:03:03.672Z</time></trkpt><trkpt lat="45.006478" lon="7.9864271"><ele>221.0</ele><time>2026-04-12T13:03:04.672Z</time></trkpt><trkpt lat="45.0063129" lon="7.9864831"><ele>220.0</ele><time>2026-04-12T13:03:05.672Z</time></trkpt><trkpt lat="45.0061476" lon="7.9865392"><ele>220.0</ele><time>2026-04-12T13:03:06.672Z</time></trkpt><trkpt lat="45.0059868" lon="7.9866091"><ele>220.0</ele><time>2026-04-12T13:03:07.672Z</time></trkpt><trkpt lat="45.00583" lon="7.986712"><ele>220.0</ele><time>2026-04-12T13:03:08.672Z</time></trkpt><trkpt lat="45.0056889" lon="7.9868437"><ele>219.33333333333331</ele><time>2026-04-12T13:03:09.672Z</time></trkpt><trkpt lat="45.0055483" lon="7.9869755"><ele>218.66666666666669</ele><time>2026-04-12T13:03:10.672Z</time></trkpt><trkpt lat="45.0054111" lon="7.9870957"><ele>218.0</ele><time>2026-04-12T13:03:11.672Z</time></trkpt><trkpt lat="45.0052698" lon="7.9872032"><ele>218.0</ele><time>2026-04-12T13:03:12.672Z</time></trkpt><trkpt lat="45.0051229" lon="7.9873021"><ele>218.0</ele><time>2026-04-12T13:03:13.671Z</time></trkpt><trkpt lat="45.0049924" lon="7.9874046"><ele>218.0</ele><time>2026-04-12T13:03:14.672Z</time></trkpt><trkpt lat="45.0048771" lon="7.9875315"><ele>215.0</ele><time>2026-04-12T13:03:15.672Z</time></trkpt><trkpt lat="45.0047693" lon="7.9876838"><ele>212.0</ele><time>2026-04-12T13:03:16.672Z</time></trkpt><trkpt lat="45.0046729" lon="7.9878715"><ele>209.0</ele><time>2026-04-12T13:03:17.672Z</time></trkpt><trkpt lat="45.0045789" lon="7.9880731"><ele>209.0</ele><time>2026-04-12T13:03:18.672Z</time></trkpt><trkpt lat="45.0044888" lon="7.9882813"><ele>209.0</ele><time>2026-04-12T13:03:19.672Z</time></trkpt><trkpt lat="45.0043964" lon="7.9884834"><ele>209.0</ele><time>2026-04-12T13:03:20.672Z</time></trkpt><trkpt lat="45.0043203" lon="7.9886858"><ele>209.0</ele><time>2026-04-12T13:03:21.672Z</time></trkpt><trkpt lat="45.0042361" lon="7.9888761"><ele>209.0</ele><time>2026-04-12T13:03:22.672Z</time></trkpt><trkpt lat="45.0041575" lon="7.9890638"><ele>209.0</ele><time>2026-04-12T13:03:23.672Z</time></trkpt><trkpt lat="45.0040829" lon="7.989254"><ele>211.0</ele><time>2026-04-12T13:03:24.672Z</time></trkpt><trkpt lat="45.0039968" lon="7.9894379"><ele>213.0</ele><time>2026-04-12T13:03:25.672Z</time></trkpt><trkpt lat="45.003925" lon="7.9896208"><ele>215.0</ele><time>2026-04-12T13:03:26.672Z</time></trkpt><trkpt lat="45.0038459" lon="7.9897989"><ele>215.0</ele><time>2026-04-12T13:03:27.672Z</time></trkpt><trkpt lat="45.0037789" lon="7.9899761"><ele>215.0</ele><time>2026-04-12T13:03:28.672Z</time></trkpt><trkpt lat="45.0037233" lon="7.990162"><ele>215.0</ele><time>2026-04-12T13:03:29.672Z</time></trkpt><trkpt lat="45.0036857" lon="7.9903751"><ele>215.0</ele><time>2026-04-12T13:03:30.672Z</time></trkpt><trkpt lat="45.0036644" lon="7.9905837"><ele>217.0</ele><time>2026-04-12T13:03:31.672Z</time></trkpt><trkpt lat="45.0036537" lon="7.9908081"><ele>219.0</ele><time>2026-04-12T13:03:32.672Z</time></trkpt><trkpt lat="45.0036464" lon="7.9910356"><ele>221.0</ele><time>2026-04-12T13:03:33.672Z</time></trkpt><trkpt lat="45.0036413" lon="7.9912429"><ele>221.5</ele><time>2026-04-12T13:03:34.672Z</time></trkpt><trkpt lat="45.0036418" lon="7.9914414"><ele>222.0</ele><time>2026-04-12T13:03:35.672Z</time></trkpt><trkpt lat="45.0036291" lon="7.9916198"><ele>222.5</ele><time>2026-04-12T13:03:36.672Z</time></trkpt><trkpt lat="45.003645" lon="7.9917806"><ele>223.0</ele><time>2026-04-12T13:03:37.672Z</time></trkpt><trkpt lat="45.0036918" lon="7.9919159"><ele>223.0</ele><time>2026-04-12T13:03:38.672Z</time></trkpt><trkpt lat="45.0037698" lon="7.9920411"><ele>223.0</ele><time>2026-04-12T13:03:39.672Z</time></trkpt><trkpt lat="45.003882" lon="7.9921281"><ele>223.0</ele><time>2026-04-12T13:03:40.672Z</time></trkpt><trkpt lat="45.0040045" lon="7.9922018"><ele>223.0</ele><time>2026-04-12T13:03:41.671Z</time></trkpt><trkpt lat="45.0041029" lon="7.9922778"><ele>225.4</ele><time>2026-04-12T13:03:42.672Z</time></trkpt><trkpt lat="45.0041826" lon="7.9923932"><ele>227.8</ele><time>2026-04-12T13:03:43.672Z</time></trkpt><trkpt lat="45.0042254" lon="7.9925321"><ele>230.2</ele><time>2026-04-12T13:03:44.672Z</time></trkpt><trkpt lat="45.0042378" lon="7.9926784"><ele>232.6</ele><time>2026-04-12T13:03:45.672Z</time></trkpt><trkpt lat="45.0042512" lon="7.9928261"><ele>235.0</ele><time>2026-04-12T13:03:46.672Z</time></trkpt><trkpt lat="45.0042671" lon="7.9929521"><ele>235.0</ele><time>2026-04-12T13:03:47.672Z</time></trkpt><trkpt lat="45.0043046" lon="7.9930799"><ele>235.0</ele><time>2026-04-12T13:03:48.672Z</time></trkpt><trkpt lat="45.0043926" lon="7.9932277"><ele>235.0</ele><time>2026-04-12T13:03:49.672Z</time></trkpt><trkpt lat="45.0044646" lon="7.9933583"><ele>235.0</ele><time>2026-04-12T13:03:50.672Z</time></trkpt><trkpt lat="45.004527" lon="7.9934997"><ele>236.25</ele><time>2026-04-12T13:03:51.672Z</time></trkpt><trkpt lat="45.0045595" lon="7.9936655"><ele>237.5</ele><time>2026-04-12T13:03:52.672Z</time></trkpt><trkpt lat="45.0045631" lon="7.9938541"><ele>238.75</ele><time>2026-04-12T13:03:53.672Z</time></trkpt><trkpt lat="45.0045663" lon="7.9940471"><ele>240.0</ele><time>2026-04-12T13:03:54.671Z</time></trkpt><trkpt lat="45.0045782" lon="7.9942383"><ele>242.33333333333331</ele><time>2026-04-12T13:03:55.671Z</time></trkpt><trkpt lat="45.0045751" lon="7.9944686"><ele>244.66666666666666</ele><time>2026-04-12T13:03:56.672Z</time></trkpt><trkpt lat="45.0045711" lon="7.9946765"><ele>247.0</ele><time>2026-04-12T13:03:57.672Z</time></trkpt><trkpt lat="45.0045847" lon="7.9948854"><ele>250.0</ele><time>2026-04-12T13:03:58.672Z</time></trkpt><trkpt lat="45.0045393" lon="7.9950715"><ele>253.0</ele><time>2026-04-12T13:03:59.672Z</time></trkpt><trkpt lat="45.0045229" lon="7.9952372"><ele>256.0</ele><time>2026-04-12T13:04:00.672Z</time></trkpt><trkpt lat="45.0044659" lon="7.995375"><ele>259.0</ele><time>2026-04-12T13:04:01.672Z</time></trkpt><trkpt lat="45.0043615" lon="7.9954664"><ele>259.0</ele><time>2026-04-12T13:04:02.672Z</time></trkpt><trkpt lat="45.0042487" lon="7.9955061"><ele>259.0</ele><time>2026-04-12T13:04:03.671Z</time></trkpt><trkpt lat="45.0041288" lon="7.9955124"><ele>259.0</ele><time>2026-04-12T13:04:04.672Z</time></trkpt><trkpt lat="45.0039805" lon="7.9955323"><ele>259.0</ele><time>2026-04-12T13:04:05.672Z</time></trkpt><trkpt lat="45.0038607" lon="7.9955545"><ele>258.75</ele><time>2026-04-12T13:04:06.672Z</time></trkpt><trkpt lat="45.003723" lon="7.9956591"><ele>258.5</ele><time>2026-04-12T13:04:07.672Z</time></trkpt><trkpt lat="45.0036045" lon="7.9957805"><ele>258.25</ele><time>2026-04-12T13:04:08.672Z</time></trkpt><trkpt lat="45.0035047" lon="7.9959319"><ele>258.0</ele><time>2026-04-12T13:04:09.671Z</time></trkpt><trkpt lat="45.0034147" lon="7.9960944"><ele>258.0</ele><time>2026-04-12T13:04:10.672Z</time></trkpt><trkpt lat="45.0033369" lon="7.9962385"><ele>258.0</ele><time>2026-04-12T13:04:11.672Z</time></trkpt><trkpt lat="45.0032642" lon="7.996374"><ele>258.0</ele><time>2026-04-12T13:04:12.672Z</time></trkpt><trkpt lat="45.0032061" lon="7.9964947"><ele>258.0</ele><time>2026-04-12T13:04:13.672Z</time></trkpt><trkpt lat="45.0031772" lon="7.9965907"><ele>258.0</ele><time>2026-04-12T13:04:14.672Z</time></trkpt><trkpt lat="45.0032188" lon="7.9967879"><ele>257.2</ele><time>2026-04-12T13:04:16.672Z</time></trkpt><trkpt lat="45.003273" lon="7.9968692"><ele>256.4</ele><time>2026-04-12T13:04:17.672Z</time></trkpt><trkpt lat="45.0033669" lon="7.9969436"><ele>255.59999999999997</ele><time>2026-04-12T13:04:18.672Z</time></trkpt><trkpt lat="45.0034662" lon="7.9970134"><ele>254.79999999999998</ele><time>2026-04-12T13:04:19.672Z</time></trkpt><trkpt lat="45.003567" lon="7.9970967"><ele>254.0</ele><time>2026-04-12T13:04:20.672Z</time></trkpt><trkpt lat="45.0036641" lon="7.9972134"><ele>253.0</ele><time>2026-04-12T13:04:21.672Z</time></trkpt><trkpt lat="45.0037632" lon="7.9973545"><ele>252.0</ele><time>2026-04-12T13:04:22.672Z</time></trkpt><trkpt lat="45.0038598" lon="7.9974899"><ele>251.0</ele><time>2026-04-12T13:04:23.672Z</time></trkpt><trkpt lat="45.0039248" lon="7.9976184"><ele>250.0</ele><time>2026-04-12T13:04:24.672Z</time></trkpt><trkpt lat="45.004008" lon="7.9977357"><ele>249.75</ele><time>2026-04-12T13:04:25.672Z</time></trkpt><trkpt lat="45.0040835" lon="7.9978621"><ele>249.5</ele><time>2026-04-12T13:04:26.672Z</time></trkpt><trkpt lat="45.0041384" lon="7.9980119"><ele>249.25</ele><time>2026-04-12T13:04:27.672Z</time></trkpt><trkpt lat="45.0041731" lon="7.9981753"><ele>249.0</ele><time>2026-04-12T13:04:28.672Z</time></trkpt><trkpt lat="45.004166" lon="7.9983528"><ele>246.5</ele><time>2026-04-12T13:04:29.672Z</time></trkpt><trkpt lat="45.0041253" lon="7.9985298"><ele>244.0</ele><time>2026-04-12T13:04:30.672Z</time></trkpt><trkpt lat="45.0040748" lon="7.9987112"><ele>241.5</ele><time>2026-04-12T13:04:31.672Z</time></trkpt><trkpt lat="45.0040256" lon="7.9989012"><ele>239.0</ele><time>2026-04-12T13:04:32.672Z</time></trkpt><trkpt lat="45.0039789" lon="7.9990942"><ele>239.25</ele><time>2026-04-12T13:04:33.672Z</time></trkpt><trkpt lat="45.0039412" lon="7.9992629"><ele>239.5</ele><time>2026-04-12T13:04:34.672Z</time></trkpt><trkpt lat="45.0039038" lon="7.9994194"><ele>239.75</ele><time>2026-04-12T13:04:35.672Z</time></trkpt><trkpt lat="45.0038565" lon="7.999578"><ele>240.0</ele><time>2026-04-12T13:04:36.672Z</time></trkpt><trkpt lat="45.0038169" lon="7.9997351"><ele>240.0</ele><time>2026-04-12T13:04:37.672Z</time></trkpt><trkpt lat="45.0037838" lon="7.9999016"><ele>240.0</ele><time>2026-04-12T13:04:38.672Z</time></trkpt><trkpt lat="45.0037494" lon="8.0000723"><ele>240.0</ele><time>2026-04-12T13:04:39.672Z</time></trkpt><trkpt lat="45.003688" lon="8.0002183"><ele>240.0</ele><time>2026-04-12T13:04:40.672Z</time></trkpt><trkpt lat="45.0036167" lon="8.0003816"><ele>240.0</ele><time>2026-04-12T13:04:41.672Z</time></trkpt><trkpt lat="45.0035517" lon="8.000532"><ele>240.0</ele><time>2026-04-12T13:04:42.672Z</time></trkpt><trkpt lat="45.0034751" lon="8.0006678"><ele>240.0</ele><time>2026-04-12T13:04:43.672Z</time></trkpt><trkpt lat="45.0033898" lon="8.0007945"><ele>240.0</ele><time>2026-04-12T13:04:44.672Z</time></trkpt><trkpt lat="45.0033142" lon="8.0009101"><ele>237.16666666666666</ele><time>2026-04-12T13:04:45.672Z</time></trkpt><trkpt lat="45.003245" lon="8.0010045"><ele>234.33333333333331</ele><time>2026-04-12T13:04:46.672Z</time></trkpt><trkpt lat="45.00317" lon="8.0010652"><ele>231.5</ele><time>2026-04-12T13:04:47.672Z</time></trkpt><trkpt lat="45.003092" lon="8.0010814"><ele>228.66666666666666</ele><time>2026-04-12T13:04:48.672Z</time></trkpt><trkpt lat="45.0030175" lon="8.0010394"><ele>225.83333333333331</ele><time>2026-04-12T13:04:49.672Z</time></trkpt><trkpt lat="45.0029741" lon="8.000966"><ele>223.0</ele><time>2026-04-12T13:04:50.672Z</time></trkpt><trkpt lat="45.002991" lon="8.0007493"><ele>222.4</ele><time>2026-04-12T13:04:52.672Z</time></trkpt><trkpt lat="45.0030421" lon="8.0006166"><ele>221.8</ele><time>2026-04-12T13:04:53.672Z</time></trkpt><trkpt lat="45.003086" lon="8.0004951"><ele>221.2</ele><time>2026-04-12T13:04:54.672Z</time></trkpt><trkpt lat="45.0031066" lon="8.0003722"><ele>220.6</ele><time>2026-04-12T13:04:55.672Z</time></trkpt><trkpt lat="45.0030952" lon="8.0002444"><ele>220.0</ele><time>2026-04-12T13:04:56.672Z</time></trkpt><trkpt lat="45.0030483" lon="8.0001294"><ele>220.0</ele><time>2026-04-12T13:04:57.671Z</time></trkpt><trkpt lat="45.0029592" lon="8.0000201"><ele>220.0</ele><time>2026-04-12T13:04:58.672Z</time></trkpt><trkpt lat="45.0028721" lon="7.9999748"><ele>220.0</ele><time>2026-04-12T13:04:59.672Z</time></trkpt><trkpt lat="45.0027455" lon="7.9999646"><ele>220.0</ele><time>2026-04-12T13:05:00.672Z</time></trkpt><trkpt lat="45.0026198" lon="8.00001"><ele>220.0</ele><time>2026-04-12T13:05:01.672Z</time></trkpt><trkpt lat="45.002517" lon="8.0001071"><ele>220.0</ele><time>2026-04-12T13:05:02.672Z</time></trkpt><trkpt lat="45.0024152" lon="8.0002182"><ele>220.0</ele><time>2026-04-12T13:05:03.672Z</time></trkpt><trkpt lat="45.002335" lon="8.0003903"><ele>220.0</ele><time>2026-04-12T13:05:04.672Z</time></trkpt><trkpt lat="45.0022525" lon="8.0005661"><ele>218.5</ele><time>2026-04-12T13:05:05.672Z</time></trkpt><trkpt lat="45.0021716" lon="8.0007278"><ele>217.0</ele><time>2026-04-12T13:05:06.672Z</time></trkpt><trkpt lat="45.0020964" lon="8.0008752"><ele>215.5</ele><time>2026-04-12T13:05:07.672Z</time></trkpt><trkpt lat="45.002036" lon="8.0010283"><ele>214.0</ele><time>2026-04-12T13:05:08.672Z</time></trkpt><trkpt lat="45.0019847" lon="8.0011963"><ele>214.0</ele><time>2026-04-12T13:05:09.672Z</time></trkpt><trkpt lat="45.0019672" lon="8.0013673"><ele>214.0</ele><time>2026-04-12T13:05:10.672Z</time></trkpt><trkpt lat="45.0019801" lon="8.0015456"><ele>214.0</ele><time>2026-04-12T13:05:11.672Z</time></trkpt><trkpt lat="45.002015" lon="8.0017424"><ele>214.0</ele><time>2026-04-12T13:05:12.672Z</time></trkpt><trkpt lat="45.0020636" lon="8.0019507"><ele>214.0</ele><time>2026-04-12T13:05:13.672Z</time></trkpt><trkpt lat="45.0021112" lon="8.0021696"><ele>214.0</ele><time>2026-04-12T13:05:14.672Z</time></trkpt><trkpt lat="45.0021693" lon="8.0023988"><ele>214.0</ele><time>2026-04-12T13:05:15.672Z</time></trkpt><trkpt lat="45.0022184" lon="8.0026154"><ele>214.0</ele><time>2026-04-12T13:05:16.672Z</time></trkpt><trkpt lat="45.0022473" lon="8.0028442"><ele>214.0</ele><time>2026-04-12T13:05:17.672Z</time></trkpt><trkpt lat="45.0023153" lon="8.003098"><ele>214.0</ele><time>2026-04-12T13:05:18.672Z</time></trkpt><trkpt lat="45.0023744" lon="8.0033538"><ele>215.0</ele><time>2026-04-12T13:05:19.672Z</time></trkpt><trkpt lat="45.002441" lon="8.0036158"><ele>216.0</ele><time>2026-04-12T13:05:20.672Z</time></trkpt><trkpt lat="45.0025115" lon="8.0038661"><ele>217.0</ele><time>2026-04-12T13:05:21.671Z</time></trkpt><trkpt lat="45.0025746" lon="8.0041177"><ele>211.33333333333331</ele><time>2026-04-12T13:05:22.672Z</time></trkpt><trkpt lat="45.0026354" lon="8.004363"><ele>205.66666666666669</ele><time>2026-04-12T13:05:23.672Z</time></trkpt><trkpt lat="45.0027024" lon="8.0046066"><ele>200.0</ele><time>2026-04-12T13:05:24.671Z</time></trkpt><trkpt lat="45.0027731" lon="8.004847"><ele>198.0</ele><time>2026-04-12T13:05:25.672Z</time></trkpt><trkpt lat="45.0028375" lon="8.0050777"><ele>196.0</ele><time>2026-04-12T13:05:26.671Z</time></trkpt><trkpt lat="45.0028985" lon="8.0052967"><ele>194.0</ele><time>2026-04-12T13:05:27.672Z</time></trkpt><trkpt lat="45.0029612" lon="8.0055028"><ele>194.0</ele><time>2026-04-12T13:05:28.672Z</time></trkpt><trkpt lat="45.0030133" lon="8.0056881"><ele>194.0</ele><time>2026-04-12T13:05:29.672Z</time></trkpt><trkpt lat="45.0030522" lon="8.0058535"><ele>194.0</ele><time>2026-04-12T13:05:30.672Z</time></trkpt><trkpt lat="45.0030662" lon="8.0059969"><ele>194.0</ele><time>2026-04-12T13:05:31.672Z</time></trkpt><trkpt lat="45.0030585" lon="8.0061417"><ele>193.75</ele><time>2026-04-12T13:05:32.672Z</time></trkpt><trkpt lat="45.0030197" lon="8.0062805"><ele>193.5</ele><time>2026-04-12T13:05:33.671Z</time></trkpt><trkpt lat="45.002931" lon="8.0063918"><ele>193.25</ele><time>2026-04-12T13:05:34.672Z</time></trkpt><trkpt lat="45.0028237" lon="8.0064796"><ele>193.0</ele><time>2026-04-12T13:05:35.672Z</time></trkpt><trkpt lat="45.0026879" lon="8.0065535"><ele>193.0</ele><time>2026-04-12T13:05:36.672Z</time></trkpt><trkpt lat="45.0025448" lon="8.0066578"><ele>193.0</ele><time>2026-04-12T13:05:37.672Z</time></trkpt><trkpt lat="45.0024071" lon="8.0067703"><ele>193.0</ele><time>2026-04-12T13:05:38.672Z</time></trkpt><trkpt lat="45.0022654" lon="8.0068828"><ele>193.0</ele><time>2026-04-12T13:05:39.672Z</time></trkpt><trkpt lat="45.0021166" lon="8.0070052"><ele>193.0</ele><time>2026-04-12T13:05:40.672Z</time></trkpt><trkpt lat="45.0019573" lon="8.0071259"><ele>193.0</ele><time>2026-04-12T13:05:41.672Z</time></trkpt><trkpt lat="45.0017971" lon="8.0072481"><ele>192.66666666666666</ele><time>2026-04-12T13:05:42.671Z</time></trkpt><trkpt lat="45.0016428" lon="8.0073781"><ele>192.33333333333331</ele><time>2026-04-12T13:05:43.672Z</time></trkpt><trkpt lat="45.0014805" lon="8.0075167"><ele>192.0</ele><time>2026-04-12T13:05:44.672Z</time></trkpt><trkpt lat="45.0013285" lon="8.0076704"><ele>194.33333333333331</ele><time>2026-04-12T13:05:45.672Z</time></trkpt><trkpt lat="45.0011832" lon="8.0078143"><ele>196.66666666666666</ele><time>2026-04-12T13:05:46.671Z</time></trkpt><trkpt lat="45.0010413" lon="8.0079545"><ele>199.0</ele><time>2026-04-12T13:05:47.672Z</time></trkpt><trkpt lat="45.000901" lon="8.0080719"><ele>197.33333333333331</ele><time>2026-04-12T13:05:48.672Z</time></trkpt><trkpt lat="45.0007595" lon="8.0081544"><ele>195.66666666666669</ele><time>2026-04-12T13:05:49.672Z</time></trkpt><trkpt lat="45.0006173" lon="8.0082021"><ele>194.0</ele><time>2026-04-12T13:05:50.672Z</time></trkpt><trkpt lat="45.0004404" lon="8.0081938"><ele>194.0</ele><time>2026-04-12T13:05:51.672Z</time></trkpt><trkpt lat="45.0002577" lon="8.0081763"><ele>194.0</ele><time>2026-04-12T13:05:52.672Z</time></trkpt><trkpt lat="45.0000797" lon="8.0081649"><ele>194.0</ele><time>2026-04-12T13:05:53.672Z</time></trkpt><trkpt lat="44.9999095" lon="8.0081925"><ele>194.0</ele><time>2026-04-12T13:05:54.672Z</time></trkpt><trkpt lat="44.9997413" lon="8.0082585"><ele>194.0</ele><time>2026-04-12T13:05:55.672Z</time></trkpt><trkpt lat="44.9995814" lon="8.0083713"><ele>194.0</ele><time>2026-04-12T13:05:56.672Z</time></trkpt><trkpt lat="44.9994422" lon="8.008503"><ele>194.66666666666669</ele><time>2026-04-12T13:05:57.672Z</time></trkpt><trkpt lat="44.9993025" lon="8.0086544"><ele>195.33333333333331</ele><time>2026-04-12T13:05:58.672Z</time></trkpt><trkpt lat="44.9991666" lon="8.0088153"><ele>196.0</ele><time>2026-04-12T13:05:59.672Z</time></trkpt><trkpt lat="44.9990235" lon="8.0089705"><ele>194.66666666666666</ele><time>2026-04-12T13:06:00.672Z</time></trkpt><trkpt lat="44.9988763" lon="8.0091267"><ele>193.33333333333331</ele><time>2026-04-12T13:06:01.672Z</time></trkpt><trkpt lat="44.9987255" lon="8.0092739"><ele>192.0</ele><time>2026-04-12T13:06:02.672Z</time></trkpt><trkpt lat="44.9985788" lon="8.0094235"><ele>192.0</ele><time>2026-04-12T13:06:03.672Z</time></trkpt><trkpt lat="44.9984347" lon="8.0095743"><ele>192.0</ele><time>2026-04-12T13:06:04.671Z</time></trkpt><trkpt lat="44.9983054" lon="8.0097218"><ele>192.0</ele><time>2026-04-12T13:06:05.672Z</time></trkpt><trkpt lat="44.998165" lon="8.0098648"><ele>191.33333333333334</ele><time>2026-04-12T13:06:06.672Z</time></trkpt><trkpt lat="44.9980363" lon="8.010013"><ele>190.66666666666669</ele><time>2026-04-12T13:06:07.672Z</time></trkpt><trkpt lat="44.9979102" lon="8.01015"><ele>190.0</ele><time>2026-04-12T13:06:08.672Z</time></trkpt><trkpt lat="44.9977831" lon="8.0102935"><ele>190.0</ele><time>2026-04-12T13:06:09.672Z</time></trkpt><trkpt lat="44.9976621" lon="8.0104323"><ele>190.0</ele><time>2026-04-12T13:06:10.672Z</time></trkpt><trkpt lat="44.9975382" lon="8.0105621"><ele>190.0</ele><time>2026-04-12T13:06:11.672Z</time></trkpt><trkpt lat="44.9974177" lon="8.0106952"><ele>190.33333333333334</ele><time>2026-04-12T13:06:12.672Z</time></trkpt><trkpt lat="44.997297" lon="8.0108211"><ele>190.66666666666666</ele><time>2026-04-12T13:06:13.672Z</time></trkpt><trkpt lat="44.9971782" lon="8.0109465"><ele>191.0</ele><time>2026-04-12T13:06:14.671Z</time></trkpt><trkpt lat="44.9970492" lon="8.0110763"><ele>190.33333333333331</ele><time>2026-04-12T13:06:15.672Z</time></trkpt><trkpt lat="44.9969324" lon="8.0112119"><ele>189.66666666666666</ele><time>2026-04-12T13:06:16.672Z</time></trkpt><trkpt lat="44.9968" lon="8.0113491"><ele>189.0</ele><time>2026-04-12T13:06:17.672Z</time></trkpt><trkpt lat="44.9966696" lon="8.0114824"><ele>189.0</ele><time>2026-04-12T13:06:18.672Z</time></trkpt><trkpt lat="44.996545" lon="8.0116315"><ele>189.0</ele><time>2026-04-12T13:06:19.672Z</time></trkpt><trkpt lat="44.9964085" lon="8.0117724"><ele>189.0</ele><time>2026-04-12T13:06:20.672Z</time></trkpt><trkpt lat="44.9962665" lon="8.0119062"><ele>189.0</ele><time>2026-04-12T13:06:21.671Z</time></trkpt><trkpt lat="44.9961278" lon="8.0120486"><ele>189.0</ele><time>2026-04-12T13:06:22.672Z</time></trkpt><trkpt lat="44.995983" lon="8.0121983"><ele>189.0</ele><time>2026-04-12T13:06:23.672Z</time></trkpt><trkpt lat="44.995836" lon="8.0123553"><ele>190.0</ele><time>2026-04-12T13:06:24.672Z</time></trkpt><trkpt lat="44.9956985" lon="8.0125095"><ele>191.0</ele><time>2026-04-12T13:06:25.672Z</time></trkpt><trkpt lat="44.995561" lon="8.0126683"><ele>192.0</ele><time>2026-04-12T13:06:26.671Z</time></trkpt><trkpt lat="44.9954242" lon="8.0128183"><ele>192.0</ele><time>2026-04-12T13:06:27.672Z</time></trkpt><trkpt lat="44.9952884" lon="8.0129699"><ele>192.0</ele><time>2026-04-12T13:06:28.672Z</time></trkpt><trkpt lat="44.9951652" lon="8.0131349"><ele>192.0</ele><time>2026-04-12T13:06:29.672Z</time></trkpt><trkpt lat="44.995057" lon="8.0133111"><ele>190.33333333333334</ele><time>2026-04-12T13:06:30.672Z</time></trkpt><trkpt lat="44.9949729" lon="8.0134921"><ele>188.66666666666669</ele><time>2026-04-12T13:06:31.672Z</time></trkpt><trkpt lat="44.9948968" lon="8.0136792"><ele>187.0</ele><time>2026-04-12T13:06:32.672Z</time></trkpt><trkpt lat="44.9948336" lon="8.0138869"><ele>187.0</ele><time>2026-04-12T13:06:33.672Z</time></trkpt><trkpt lat="44.9947816" lon="8.0141111"><ele>187.0</ele><time>2026-04-12T13:06:34.672Z</time></trkpt><trkpt lat="44.9947415" lon="8.0143383"><ele>187.0</ele><time>2026-04-12T13:06:35.672Z</time></trkpt><trkpt lat="44.9947073" lon="8.0145771"><ele>187.33333333333334</ele><time>2026-04-12T13:06:36.672Z</time></trkpt><trkpt lat="44.9946718" lon="8.0148108"><ele>187.66666666666666</ele><time>2026-04-12T13:06:37.672Z</time></trkpt><trkpt lat="44.9946393" lon="8.0150431"><ele>188.0</ele><time>2026-04-12T13:06:38.672Z</time></trkpt><trkpt lat="44.9946052" lon="8.0152706"><ele>188.0</ele><time>2026-04-12T13:06:39.672Z</time></trkpt><trkpt lat="44.9945728" lon="8.0155049"><ele>188.0</ele><time>2026-04-12T13:06:40.672Z</time></trkpt><trkpt lat="44.9945385" lon="8.015739"><ele>188.0</ele><time>2026-04-12T13:06:41.671Z</time></trkpt><trkpt lat="44.9945073" lon="8.0159727"><ele>187.66666666666666</ele><time>2026-04-12T13:06:42.672Z</time></trkpt><trkpt lat="44.9944721" lon="8.0162042"><ele>187.33333333333334</ele><time>2026-04-12T13:06:43.672Z</time></trkpt><trkpt lat="44.9944383" lon="8.0164361"><ele>187.0</ele><time>2026-04-12T13:06:44.672Z</time></trkpt><trkpt lat="44.9944054" lon="8.0166613"><ele>186.33333333333334</ele><time>2026-04-12T13:06:45.672Z</time></trkpt><trkpt lat="44.9943692" lon="8.0168768"><ele>185.66666666666666</ele><time>2026-04-12T13:06:46.672Z</time></trkpt><trkpt lat="44.9943418" lon="8.0170974"><ele>185.0</ele><time>2026-04-12T13:06:47.672Z</time></trkpt><trkpt lat="44.9943208" lon="8.0173245"><ele>185.0</ele><time>2026-04-12T13:06:48.671Z</time></trkpt><trkpt lat="44.9942849" lon="8.0175273"><ele>185.0</ele><time>2026-04-12T13:06:49.672Z</time></trkpt><trkpt lat="44.9942511" lon="8.0177396"><ele>185.0</ele><time>2026-04-12T13:06:50.672Z</time></trkpt><trkpt lat="44.9942105" lon="8.0179412"><ele>185.0</ele><time>2026-04-12T13:06:51.672Z</time></trkpt><trkpt lat="44.9941597" lon="8.0181393"><ele>185.0</ele><time>2026-04-12T13:06:52.671Z</time></trkpt><trkpt lat="44.9940892" lon="8.018323"><ele>185.0</ele><time>2026-04-12T13:06:53.672Z</time></trkpt><trkpt lat="44.9940025" lon="8.0184997"><ele>185.0</ele><time>2026-04-12T13:06:54.672Z</time></trkpt><trkpt lat="44.9939142" lon="8.0186749"><ele>185.0</ele><time>2026-04-12T13:06:55.672Z</time></trkpt><trkpt lat="44.993821" lon="8.0188486"><ele>185.0</ele><time>2026-04-12T13:06:56.672Z</time></trkpt><trkpt lat="44.9937312" lon="8.0190261"><ele>185.0</ele><time>2026-04-12T13:06:57.672Z</time></trkpt><trkpt lat="44.9936518" lon="8.0192164"><ele>185.0</ele><time>2026-04-12T13:06:58.671Z</time></trkpt><trkpt lat="44.9935622" lon="8.0193682"><ele>185.0</ele><time>2026-04-12T13:06:59.672Z</time></trkpt><trkpt lat="44.9934839" lon="8.0195231"><ele>185.0</ele><time>2026-04-12T13:07:00.672Z</time></trkpt><trkpt lat="44.9934139" lon="8.0196543"><ele>185.0</ele><time>2026-04-12T13:07:01.672Z</time></trkpt><trkpt lat="44.993354" lon="8.0197959"><ele>185.0</ele><time>2026-04-12T13:07:02.672Z</time></trkpt><trkpt lat="44.9933017" lon="8.0199141"><ele>185.0</ele><time>2026-04-12T13:07:03.672Z</time></trkpt><trkpt lat="44.9932482" lon="8.0199822"><ele>185.0</ele><time>2026-04-12T13:07:04.671Z</time></trkpt><trkpt lat="44.9931936" lon="8.0200753"><ele>185.0</ele><time>2026-04-12T13:07:06.672Z</time></trkpt><trkpt lat="44.9931412" lon="8.0201273"><ele>185.0</ele><time>2026-04-12T13:07:09.671Z</time></trkpt><trkpt lat="44.9931122" lon="8.0202392"><ele>185.0</ele><time>2026-04-12T13:07:12.672Z</time></trkpt><trkpt lat="44.9930759" lon="8.0204068"><ele>185.0</ele><time>2026-04-12T13:07:14.672Z</time></trkpt><trkpt lat="44.9930366" lon="8.020519"><ele>185.0</ele><time>2026-04-12T13:07:15.672Z</time></trkpt><trkpt lat="44.99299" lon="8.0206343"><ele>185.0</ele><time>2026-04-12T13:07:16.672Z</time></trkpt><trkpt lat="44.9929421" lon="8.0207544"><ele>185.0</ele><time>2026-04-12T13:07:17.672Z</time></trkpt><trkpt lat="44.9928922" lon="8.0209037"><ele>185.0</ele><time>2026-04-12T13:07:18.671Z</time></trkpt><trkpt lat="44.9928398" lon="8.0210642"><ele>185.0</ele><time>2026-04-12T13:07:19.672Z</time></trkpt><trkpt lat="44.9927855" lon="8.0212245"><ele>185.0</ele><time>2026-04-12T13:07:20.671Z</time></trkpt><trkpt lat="44.9927306" lon="8.0214107"><ele>185.0</ele><time>2026-04-12T13:07:21.672Z</time></trkpt><trkpt lat="44.9926696" lon="8.0215915"><ele>185.0</ele><time>2026-04-12T13:07:22.672Z</time></trkpt><trkpt lat="44.9926136" lon="8.0217743"><ele>185.5</ele><time>2026-04-12T13:07:23.672Z</time></trkpt><trkpt lat="44.9925667" lon="8.0219598"><ele>186.0</ele><time>2026-04-12T13:07:24.672Z</time></trkpt><trkpt lat="44.9925285" lon="8.0221521"><ele>186.5</ele><time>2026-04-12T13:07:25.672Z</time></trkpt><trkpt lat="44.9924867" lon="8.022342"><ele>187.0</ele><time>2026-04-12T13:07:26.672Z</time></trkpt><trkpt lat="44.9924922" lon="8.0225588"><ele>187.5</ele><time>2026-04-12T13:07:27.672Z</time></trkpt><trkpt lat="44.9924919" lon="8.0227634"><ele>188.0</ele><time>2026-04-12T13:07:28.672Z</time></trkpt><trkpt lat="44.9924951" lon="8.0229704"><ele>188.5</ele><time>2026-04-12T13:07:29.671Z</time></trkpt><trkpt lat="44.9924878" lon="8.0231722"><ele>189.0</ele><time>2026-04-12T13:07:30.671Z</time></trkpt><trkpt lat="44.9925084" lon="8.0233617"><ele>190.5</ele><time>2026-04-12T13:07:31.671Z</time></trkpt><trkpt lat="44.9925006" lon="8.0235571"><ele>192.0</ele><time>2026-04-12T13:07:32.672Z</time></trkpt><trkpt lat="44.9924956" lon="8.0237512"><ele>193.5</ele><time>2026-04-12T13:07:33.672Z</time></trkpt><trkpt lat="44.9924824" lon="8.0239506"><ele>195.0</ele><time>2026-04-12T13:07:34.672Z</time></trkpt><trkpt lat="44.9924318" lon="8.0241542"><ele>195.0</ele><time>2026-04-12T13:07:35.672Z</time></trkpt><trkpt lat="44.9923706" lon="8.0243471"><ele>195.0</ele><time>2026-04-12T13:07:36.671Z</time></trkpt><trkpt lat="44.9923284" lon="8.0245396"><ele>195.0</ele><time>2026-04-12T13:07:37.672Z</time></trkpt><trkpt lat="44.9922783" lon="8.0247254"><ele>195.0</ele><time>2026-04-12T13:07:38.672Z</time></trkpt><trkpt lat="44.9922185" lon="8.0249114"><ele>195.0</ele><time>2026-04-12T13:07:39.672Z</time></trkpt><trkpt lat="44.9921301" lon="8.0250833"><ele>195.0</ele><time>2026-04-12T13:07:40.671Z</time></trkpt><trkpt lat="44.992052" lon="8.0252467"><ele>195.0</ele><time>2026-04-12T13:07:41.672Z</time></trkpt><trkpt lat="44.9919608" lon="8.0254013"><ele>195.0</ele><time>2026-04-12T13:07:42.672Z</time></trkpt><trkpt lat="44.9918604" lon="8.0255293"><ele>195.0</ele><time>2026-04-12T13:07:43.672Z</time></trkpt><trkpt lat="44.9917375" lon="8.0256503"><ele>195.0</ele><time>2026-04-12T13:07:44.672Z</time></trkpt><trkpt lat="44.9916117" lon="8.0257568"><ele>195.0</ele><time>2026-04-12T13:07:45.672Z</time></trkpt><trkpt lat="44.9914885" lon="8.025844"><ele>195.0</ele><time>2026-04-12T13:07:46.672Z</time></trkpt><trkpt lat="44.9913982" lon="8.0259305"><ele>197.0</ele><time>2026-04-12T13:07:47.672Z</time></trkpt><trkpt lat="44.9912929" lon="8.0259808"><ele>199.0</ele><time>2026-04-12T13:07:48.672Z</time></trkpt><trkpt lat="44.9911793" lon="8.0259934"><ele>201.0</ele><time>2026-04-12T13:07:49.672Z</time></trkpt><trkpt lat="44.9910788" lon="8.0259756"><ele>203.0</ele><time>2026-04-12T13:07:50.672Z</time></trkpt><trkpt lat="44.9909543" lon="8.0259378"><ele>205.25</ele><time>2026-04-12T13:07:51.672Z</time></trkpt><trkpt lat="44.9908156" lon="8.0258958"><ele>207.5</ele><time>2026-04-12T13:07:52.672Z</time></trkpt><trkpt lat="44.9906839" lon="8.0258628"><ele>209.75</ele><time>2026-04-12T13:07:53.671Z</time></trkpt><trkpt lat="44.9905578" lon="8.0258246"><ele>212.0</ele><time>2026-04-12T13:07:54.672Z</time></trkpt><trkpt lat="44.9904277" lon="8.0257854"><ele>213.0</ele><time>2026-04-12T13:07:55.672Z</time></trkpt><trkpt lat="44.9903007" lon="8.0257659"><ele>214.0</ele><time>2026-04-12T13:07:56.671Z</time></trkpt><trkpt lat="44.990169" lon="8.0257549"><ele>215.0</ele><time>2026-04-12T13:07:57.672Z</time></trkpt><trkpt lat="44.9900237" lon="8.0257496"><ele>216.0</ele><time>2026-04-12T13:07:58.672Z</time></trkpt><trkpt lat="44.9898972" lon="8.0257564"><ele>219.5</ele><time>2026-04-12T13:07:59.672Z</time></trkpt><trkpt lat="44.9897691" lon="8.0257656"><ele>223.0</ele><time>2026-04-12T13:08:00.672Z</time></trkpt><trkpt lat="44.9896469" lon="8.0257915"><ele>226.5</ele><time>2026-04-12T13:08:01.672Z</time></trkpt><trkpt lat="44.9895408" lon="8.0258337"><ele>230.0</ele><time>2026-04-12T13:08:02.672Z</time></trkpt><trkpt lat="44.9894485" lon="8.0258677"><ele>230.00000000000003</ele><time>2026-04-12T13:08:03.672Z</time></trkpt><trkpt lat="44.9893829" lon="8.0259043"><ele>230.0</ele><time>2026-04-12T13:08:04.672Z</time></trkpt><trkpt lat="44.9893003" lon="8.025903"><ele>230.0</ele><time>2026-04-12T13:08:05.672Z</time></trkpt><trkpt lat="44.9892229" lon="8.0258932"><ele>230.0</ele><time>2026-04-12T13:08:06.672Z</time></trkpt><trkpt lat="44.9891465" lon="8.0258778"><ele>230.00000000000003</ele><time>2026-04-12T13:08:07.672Z</time></trkpt><trkpt lat="44.9890845" lon="8.0258192"><ele>230.0</ele><time>2026-04-12T13:08:09.672Z</time></trkpt><trkpt lat="44.9890155" lon="8.0257512"><ele>231.50000000000003</ele><time>2026-04-12T13:08:11.672Z</time></trkpt><trkpt lat="44.9889798" lon="8.0256387"><ele>233.0</ele><time>2026-04-12T13:08:13.672Z</time></trkpt><trkpt lat="44.9889724" lon="8.0255387"><ele>234.5</ele><time>2026-04-12T13:08:16.672Z</time></trkpt><trkpt lat="44.9889055" lon="8.0255481"><ele>236.0</ele><time>2026-04-12T13:08:19.672Z</time></trkpt><trkpt lat="44.9888672" lon="8.0256765"><ele>237.50000000000003</ele><time>2026-04-12T13:08:21.672Z</time></trkpt><trkpt lat="44.9888692" lon="8.0258013"><ele>239.0</ele><time>2026-04-12T13:08:23.672Z</time></trkpt><trkpt lat="44.9889188" lon="8.0259197"><ele>239.16666666666669</ele><time>2026-04-12T13:08:26.672Z</time></trkpt><trkpt lat="44.9889337" lon="8.026036"><ele>239.33333333333334</ele><time>2026-04-12T13:08:28.671Z</time></trkpt><trkpt lat="44.9889353" lon="8.026175"><ele>239.5</ele><time>2026-04-12T13:08:30.672Z</time></trkpt><trkpt lat="44.9889521" lon="8.026345"><ele>239.66666666666669</ele><time>2026-04-12T13:08:32.672Z</time></trkpt><trkpt lat="44.9889354" lon="8.0264314"><ele>239.83333333333334</ele><time>2026-04-12T13:08:33.672Z</time></trkpt><trkpt lat="44.9889618" lon="8.026517"><ele>240.0</ele><time>2026-04-12T13:08:34.672Z</time></trkpt><trkpt lat="44.9889812" lon="8.0266148"><ele>241.0</ele><time>2026-04-12T13:08:35.672Z</time></trkpt><trkpt lat="44.9890135" lon="8.0267071"><ele>242.0</ele><time>2026-04-12T13:08:36.672Z</time></trkpt><trkpt lat="44.989054" lon="8.0267985"><ele>243.0</ele><time>2026-04-12T13:08:37.672Z</time></trkpt><trkpt lat="44.9890987" lon="8.0269616"><ele>244.0</ele><time>2026-04-12T13:08:39.672Z</time></trkpt><trkpt lat="44.9891124" lon="8.0270752"><ele>245.0</ele><time>2026-04-12T13:08:40.672Z</time></trkpt><trkpt lat="44.989132" lon="8.0271968"><ele>246.0</ele><time>2026-04-12T13:08:41.672Z</time></trkpt><trkpt lat="44.9891587" lon="8.0273131"><ele>244.8</ele><time>2026-04-12T13:08:42.672Z</time></trkpt><trkpt lat="44.9891854" lon="8.0274434"><ele>243.60000000000002</ele><time>2026-04-12T13:08:43.672Z</time></trkpt><trkpt lat="44.9892068" lon="8.0275773"><ele>242.4</ele><time>2026-04-12T13:08:44.671Z</time></trkpt><trkpt lat="44.9892397" lon="8.0277089"><ele>241.2</ele><time>2026-04-12T13:08:45.672Z</time></trkpt><trkpt lat="44.9892491" lon="8.0278372"><ele>240.0</ele><time>2026-04-12T13:08:46.672Z</time></trkpt><trkpt lat="44.9892768" lon="8.0279739"><ele>238.8</ele><time>2026-04-12T13:08:47.672Z</time></trkpt><trkpt lat="44.9892954" lon="8.0280921"><ele>237.6</ele><time>2026-04-12T13:08:48.671Z</time></trkpt><trkpt lat="44.9893238" lon="8.0282306"><ele>236.39999999999998</ele><time>2026-04-12T13:08:49.672Z</time></trkpt><trkpt lat="44.9893336" lon="8.0283928"><ele>235.2</ele><time>2026-04-12T13:08:50.672Z</time></trkpt><trkpt lat="44.9893362" lon="8.0285592"><ele>234.0</ele><time>2026-04-12T13:08:51.672Z</time></trkpt><trkpt lat="44.9893363" lon="8.0287221"><ele>232.25</ele><time>2026-04-12T13:08:52.672Z</time></trkpt><trkpt lat="44.9892986" lon="8.028912"><ele>230.5</ele><time>2026-04-12T13:08:53.671Z</time></trkpt><trkpt lat="44.989267" lon="8.0291021"><ele>228.75</ele><time>2026-04-12T13:08:54.672Z</time></trkpt><trkpt lat="44.9892339" lon="8.0293008"><ele>227.0</ele><time>2026-04-12T13:08:55.672Z</time></trkpt><trkpt lat="44.9892129" lon="8.0295016"><ele>225.75</ele><time>2026-04-12T13:08:56.672Z</time></trkpt><trkpt lat="44.9891903" lon="8.029696"><ele>224.5</ele><time>2026-04-12T13:08:57.672Z</time></trkpt><trkpt lat="44.9891335" lon="8.0298937"><ele>223.25</ele><time>2026-04-12T13:08:58.672Z</time></trkpt><trkpt lat="44.9891324" lon="8.0300926"><ele>222.0</ele><time>2026-04-12T13:08:59.672Z</time></trkpt><trkpt lat="44.9891336" lon="8.0302896"><ele>224.0</ele><time>2026-04-12T13:09:00.672Z</time></trkpt><trkpt lat="44.9891622" lon="8.0304847"><ele>226.0</ele><time>2026-04-12T13:09:01.672Z</time></trkpt><trkpt lat="44.9891995" lon="8.0306789"><ele>228.0</ele><time>2026-04-12T13:09:02.672Z</time></trkpt><trkpt lat="44.9892306" lon="8.0308713"><ele>230.0</ele><time>2026-04-12T13:09:03.671Z</time></trkpt><trkpt lat="44.9892334" lon="8.0310627"><ele>235.0</ele><time>2026-04-12T13:09:04.672Z</time></trkpt><trkpt lat="44.9892539" lon="8.031267"><ele>240.0</ele><time>2026-04-12T13:09:05.672Z</time></trkpt><trkpt lat="44.9892555" lon="8.0314655"><ele>245.0</ele><time>2026-04-12T13:09:06.672Z</time></trkpt><trkpt lat="44.9892475" lon="8.0316529"><ele>250.0</ele><time>2026-04-12T13:09:07.672Z</time></trkpt><trkpt lat="44.9892465" lon="8.0318387"><ele>253.0</ele><time>2026-04-12T13:09:08.672Z</time></trkpt><trkpt lat="44.989257" lon="8.0320089"><ele>256.0</ele><time>2026-04-12T13:09:09.671Z</time></trkpt><trkpt lat="44.9892853" lon="8.0321802"><ele>259.0</ele><time>2026-04-12T13:09:10.672Z</time></trkpt><trkpt lat="44.9894042" lon="8.0323046"><ele>262.0</ele><time>2026-04-12T13:09:11.672Z</time></trkpt><trkpt lat="44.9895068" lon="8.0324264"><ele>261.0</ele><time>2026-04-12T13:09:12.672Z</time></trkpt><trkpt lat="44.9896065" lon="8.032546"><ele>260.0</ele><time>2026-04-12T13:09:13.672Z</time></trkpt><trkpt lat="44.98971" lon="8.0326895"><ele>259.0</ele><time>2026-04-12T13:09:14.672Z</time></trkpt><trkpt lat="44.9898006" lon="8.0328673"><ele>258.0</ele><time>2026-04-12T13:09:15.672Z</time></trkpt><trkpt lat="44.9898828" lon="8.0330471"><ele>258.0</ele><time>2026-04-12T13:09:16.672Z</time></trkpt><trkpt lat="44.9899631" lon="8.0332388"><ele>258.0</ele><time>2026-04-12T13:09:17.672Z</time></trkpt><trkpt lat="44.9900264" lon="8.033424"><ele>258.0</ele><time>2026-04-12T13:09:18.672Z</time></trkpt><trkpt lat="44.9900802" lon="8.0336011"><ele>258.0</ele><time>2026-04-12T13:09:19.671Z</time></trkpt><trkpt lat="44.9901364" lon="8.0337633"><ele>254.0</ele><time>2026-04-12T13:09:20.672Z</time></trkpt><trkpt lat="44.9902069" lon="8.0339058"><ele>250.0</ele><time>2026-04-12T13:09:21.672Z</time></trkpt><trkpt lat="44.9902873" lon="8.0340086"><ele>246.0</ele><time>2026-04-12T13:09:22.672Z</time></trkpt><trkpt lat="44.9903836" lon="8.0340781"><ele>242.0</ele><time>2026-04-12T13:09:23.672Z</time></trkpt><trkpt lat="44.9904793" lon="8.0340861"><ele>238.0</ele><time>2026-04-12T13:09:24.672Z</time></trkpt><trkpt lat="44.9906077" lon="8.0340534"><ele>238.0</ele><time>2026-04-12T13:09:25.672Z</time></trkpt><trkpt lat="44.9907311" lon="8.0339939"><ele>238.0</ele><time>2026-04-12T13:09:26.672Z</time></trkpt><trkpt lat="44.9908597" lon="8.033934"><ele>238.0</ele><time>2026-04-12T13:09:27.672Z</time></trkpt><trkpt lat="44.9909979" lon="8.0338924"><ele>238.0</ele><time>2026-04-12T13:09:28.672Z</time></trkpt><trkpt lat="44.991127" lon="8.0338709"><ele>238.0</ele><time>2026-04-12T13:09:29.672Z</time></trkpt><trkpt lat="44.991257" lon="8.0338706"><ele>238.0</ele><time>2026-04-12T13:09:30.672Z</time></trkpt><trkpt lat="44.9914056" lon="8.0339018"><ele>238.0</ele><time>2026-04-12T13:09:31.672Z</time></trkpt><trkpt lat="44.9915363" lon="8.0339487"><ele>238.0</ele><time>2026-04-12T13:09:32.671Z</time></trkpt><trkpt lat="44.9916721" lon="8.0340212"><ele>236.5</ele><time>2026-04-12T13:09:33.672Z</time></trkpt><trkpt lat="44.9917945" lon="8.0341027"><ele>235.0</ele><time>2026-04-12T13:09:34.672Z</time></trkpt><trkpt lat="44.9919207" lon="8.0341888"><ele>233.5</ele><time>2026-04-12T13:09:35.672Z</time></trkpt><trkpt lat="44.9920316" lon="8.0342829"><ele>232.0</ele><time>2026-04-12T13:09:36.672Z</time></trkpt><trkpt lat="44.9921411" lon="8.0344115"><ele>235.25</ele><time>2026-04-12T13:09:37.672Z</time></trkpt><trkpt lat="44.9922403" lon="8.0345531"><ele>238.5</ele><time>2026-04-12T13:09:38.672Z</time></trkpt><trkpt lat="44.9923275" lon="8.0346842"><ele>241.75</ele><time>2026-04-12T13:09:39.672Z</time></trkpt><trkpt lat="44.9924192" lon="8.0348203"><ele>245.0</ele><time>2026-04-12T13:09:40.672Z</time></trkpt><trkpt lat="44.9925017" lon="8.0349318"><ele>244.25</ele><time>2026-04-12T13:09:41.672Z</time></trkpt><trkpt lat="44.9926043" lon="8.035007"><ele>243.5</ele><time>2026-04-12T13:09:42.672Z</time></trkpt><trkpt lat="44.9927268" lon="8.0350405"><ele>242.75</ele><time>2026-04-12T13:09:43.672Z</time></trkpt><trkpt lat="44.9928794" lon="8.0350459"><ele>242.0</ele><time>2026-04-12T13:09:44.672Z</time></trkpt><trkpt lat="44.9930209" lon="8.0350397"><ele>242.0</ele><time>2026-04-12T13:09:45.672Z</time></trkpt><trkpt lat="44.9931592" lon="8.0350283"><ele>242.0</ele><time>2026-04-12T13:09:46.672Z</time></trkpt><trkpt lat="44.9932848" lon="8.0350476"><ele>242.0</ele><time>2026-04-12T13:09:47.672Z</time></trkpt><trkpt lat="44.9934088" lon="8.0351043"><ele>242.0</ele><time>2026-04-12T13:09:48.671Z</time></trkpt><trkpt lat="44.9934906" lon="8.0352136"><ele>242.8</ele><time>2026-04-12T13:09:49.672Z</time></trkpt><trkpt lat="44.9935446" lon="8.0353273"><ele>243.6</ele><time>2026-04-12T13:09:50.672Z</time></trkpt><trkpt lat="44.9935659" lon="8.0354677"><ele>244.40000000000003</ele><time>2026-04-12T13:09:51.671Z</time></trkpt><trkpt lat="44.9935473" lon="8.0356252"><ele>245.20000000000002</ele><time>2026-04-12T13:09:52.672Z</time></trkpt><trkpt lat="44.9934802" lon="8.0357555"><ele>246.0</ele><time>2026-04-12T13:09:53.672Z</time></trkpt><trkpt lat="44.9933703" lon="8.0358479"><ele>244.0</ele><time>2026-04-12T13:09:54.671Z</time></trkpt><trkpt lat="44.9932414" lon="8.0359289"><ele>242.0</ele><time>2026-04-12T13:09:55.672Z</time></trkpt><trkpt lat="44.9931121" lon="8.0360114"><ele>240.0</ele><time>2026-04-12T13:09:56.672Z</time></trkpt><trkpt lat="44.9929683" lon="8.0361043"><ele>238.0</ele><time>2026-04-12T13:09:57.672Z</time></trkpt><trkpt lat="44.9928179" lon="8.0361983"><ele>238.0</ele><time>2026-04-12T13:09:58.672Z</time></trkpt><trkpt lat="44.9926686" lon="8.0362941"><ele>238.0</ele><time>2026-04-12T13:09:59.672Z</time></trkpt><trkpt lat="44.9925146" lon="8.0363938"><ele>238.0</ele><time>2026-04-12T13:10:00.672Z</time></trkpt><trkpt lat="44.9923621" lon="8.0365055"><ele>237.66666666666666</ele><time>2026-04-12T13:10:01.672Z</time></trkpt><trkpt lat="44.9922168" lon="8.036638"><ele>237.33333333333331</ele><time>2026-04-12T13:10:02.672Z</time></trkpt><trkpt lat="44.9920824" lon="8.0367647"><ele>237.0</ele><time>2026-04-12T13:10:03.672Z</time></trkpt><trkpt lat="44.9919553" lon="8.0368973"><ele>237.0</ele><time>2026-04-12T13:10:04.672Z</time></trkpt><trkpt lat="44.9918233" lon="8.0370259"><ele>237.0</ele><time>2026-04-12T13:10:05.672Z</time></trkpt><trkpt lat="44.9917151" lon="8.0371814"><ele>237.0</ele><time>2026-04-12T13:10:06.671Z</time></trkpt><trkpt lat="44.9916292" lon="8.0373526"><ele>233.66666666666669</ele><time>2026-04-12T13:10:07.672Z</time></trkpt><trkpt lat="44.991561" lon="8.0375596"><ele>230.33333333333334</ele><time>2026-04-12T13:10:08.672Z</time></trkpt><trkpt lat="44.9915157" lon="8.0377783"><ele>227.0</ele><time>2026-04-12T13:10:09.672Z</time></trkpt><trkpt lat="44.9914824" lon="8.0380059"><ele>227.0</ele><time>2026-04-12T13:10:10.671Z</time></trkpt><trkpt lat="44.9914664" lon="8.0382515"><ele>227.0</ele><time>2026-04-12T13:10:11.672Z</time></trkpt><trkpt lat="44.9914496" lon="8.038498"><ele>227.0</ele><time>2026-04-12T13:10:12.672Z</time></trkpt><trkpt lat="44.9914313" lon="8.0387328"><ele>227.0</ele><time>2026-04-12T13:10:13.672Z</time></trkpt><trkpt lat="44.9914142" lon="8.0389763"><ele>227.0</ele><time>2026-04-12T13:10:14.672Z</time></trkpt><trkpt lat="44.9913942" lon="8.0392263"><ele>227.0</ele><time>2026-04-12T13:10:15.672Z</time></trkpt><trkpt lat="44.9913695" lon="8.0394821"><ele>227.0</ele><time>2026-04-12T13:10:16.671Z</time></trkpt><trkpt lat="44.9913548" lon="8.0397371"><ele>227.0</ele><time>2026-04-12T13:10:17.672Z</time></trkpt><trkpt lat="44.9913056" lon="8.0399818"><ele>227.0</ele><time>2026-04-12T13:10:18.672Z</time></trkpt><trkpt lat="44.9912694" lon="8.0402259"><ele>227.33333333333334</ele><time>2026-04-12T13:10:19.672Z</time></trkpt><trkpt lat="44.9912043" lon="8.0404672"><ele>227.66666666666669</ele><time>2026-04-12T13:10:20.672Z</time></trkpt><trkpt lat="44.9911161" lon="8.0407055"><ele>228.0</ele><time>2026-04-12T13:10:21.672Z</time></trkpt><trkpt lat="44.9910226" lon="8.0409312"><ele>228.0</ele><time>2026-04-12T13:10:22.672Z</time></trkpt><trkpt lat="44.9908995" lon="8.0411496"><ele>228.0</ele><time>2026-04-12T13:10:23.672Z</time></trkpt><trkpt lat="44.9907702" lon="8.0413492"><ele>228.0</ele><time>2026-04-12T13:10:24.672Z</time></trkpt><trkpt lat="44.9906381" lon="8.0415429"><ele>226.33333333333331</ele><time>2026-04-12T13:10:25.672Z</time></trkpt><trkpt lat="44.9905222" lon="8.0417408"><ele>224.66666666666666</ele><time>2026-04-12T13:10:26.672Z</time></trkpt><trkpt lat="44.9903989" lon="8.0419235"><ele>223.0</ele><time>2026-04-12T13:10:27.672Z</time></trkpt><trkpt lat="44.9902917" lon="8.0421151"><ele>223.0</ele><time>2026-04-12T13:10:28.672Z</time></trkpt><trkpt lat="44.9901735" lon="8.042295"><ele>223.0</ele><time>2026-04-12T13:10:29.672Z</time></trkpt><trkpt lat="44.9900545" lon="8.042481"><ele>223.0</ele><time>2026-04-12T13:10:30.672Z</time></trkpt><trkpt lat="44.9899415" lon="8.0426788"><ele>218.33333333333331</ele><time>2026-04-12T13:10:31.672Z</time></trkpt><trkpt lat="44.9898224" lon="8.0428675"><ele>213.66666666666669</ele><time>2026-04-12T13:10:32.672Z</time></trkpt><trkpt lat="44.9897084" lon="8.0430588"><ele>209.0</ele><time>2026-04-12T13:10:33.672Z</time></trkpt><trkpt lat="44.9895896" lon="8.0432454"><ele>214.33333333333334</ele><time>2026-04-12T13:10:34.671Z</time></trkpt><trkpt lat="44.98947" lon="8.0434428"><ele>219.66666666666669</ele><time>2026-04-12T13:10:35.672Z</time></trkpt><trkpt lat="44.9893476" lon="8.0436209"><ele>225.0</ele><time>2026-04-12T13:10:36.671Z</time></trkpt><trkpt lat="44.9892365" lon="8.0438115"><ele>219.33333333333331</ele><time>2026-04-12T13:10:37.671Z</time></trkpt><trkpt lat="44.9891348" lon="8.0439978"><ele>213.66666666666666</ele><time>2026-04-12T13:10:38.672Z</time></trkpt><trkpt lat="44.9890182" lon="8.0441815"><ele>208.0</ele><time>2026-04-12T13:10:39.672Z</time></trkpt><trkpt lat="44.9889018" lon="8.0443556"><ele>208.0</ele><time>2026-04-12T13:10:40.672Z</time></trkpt><trkpt lat="44.988785" lon="8.0445308"><ele>208.0</ele><time>2026-04-12T13:10:41.672Z</time></trkpt><trkpt lat="44.9886664" lon="8.0446858"><ele>208.0</ele><time>2026-04-12T13:10:42.672Z</time></trkpt><trkpt lat="44.988536" lon="8.0448349"><ele>206.33333333333331</ele><time>2026-04-12T13:10:43.672Z</time></trkpt><trkpt lat="44.9883866" lon="8.0449753"><ele>204.66666666666669</ele><time>2026-04-12T13:10:44.672Z</time></trkpt><trkpt lat="44.9882635" lon="8.0451242"><ele>203.0</ele><time>2026-04-12T13:10:45.672Z</time></trkpt><trkpt lat="44.9881391" lon="8.0452706"><ele>203.0</ele><time>2026-04-12T13:10:46.672Z</time></trkpt><trkpt lat="44.988023" lon="8.0454176"><ele>203.0</ele><time>2026-04-12T13:10:47.672Z</time></trkpt><trkpt lat="44.9878862" lon="8.0455574"><ele>203.0</ele><time>2026-04-12T13:10:48.671Z</time></trkpt><trkpt lat="44.9877579" lon="8.045704"><ele>202.33333333333334</ele><time>2026-04-12T13:10:49.672Z</time></trkpt><trkpt lat="44.9876387" lon="8.0458495"><ele>201.66666666666669</ele><time>2026-04-12T13:10:50.672Z</time></trkpt><trkpt lat="44.9875121" lon="8.0459909"><ele>201.0</ele><time>2026-04-12T13:10:51.672Z</time></trkpt><trkpt lat="44.9873912" lon="8.0461406"><ele>201.0</ele><time>2026-04-12T13:10:52.672Z</time></trkpt><trkpt lat="44.9872618" lon="8.0462909"><ele>201.0</ele><time>2026-04-12T13:10:53.672Z</time></trkpt><trkpt lat="44.9871377" lon="8.0464454"><ele>201.0</ele><time>2026-04-12T13:10:54.672Z</time></trkpt><trkpt lat="44.9870037" lon="8.0465889"><ele>200.33333333333331</ele><time>2026-04-12T13:10:55.672Z</time></trkpt><trkpt lat="44.9868657" lon="8.0467252"><ele>199.66666666666666</ele><time>2026-04-12T13:10:56.672Z</time></trkpt><trkpt lat="44.9867534" lon="8.046884"><ele>199.0</ele><time>2026-04-12T13:10:57.672Z</time></trkpt><trkpt lat="44.9866123" lon="8.0470268"><ele>199.0</ele><time>2026-04-12T13:10:58.672Z</time></trkpt><trkpt lat="44.9864862" lon="8.0471739"><ele>199.0</ele><time>2026-04-12T13:10:59.672Z</time></trkpt><trkpt lat="44.9863619" lon="8.0473186"><ele>199.0</ele><time>2026-04-12T13:11:00.672Z</time></trkpt><trkpt lat="44.9862399" lon="8.0474677"><ele>202.33333333333331</ele><time>2026-04-12T13:11:01.672Z</time></trkpt><trkpt lat="44.9861227" lon="8.0476088"><ele>205.66666666666669</ele><time>2026-04-12T13:11:02.672Z</time></trkpt><trkpt lat="44.9859957" lon="8.0477532"><ele>209.0</ele><time>2026-04-12T13:11:03.672Z</time></trkpt><trkpt lat="44.9858753" lon="8.0478965"><ele>208.0</ele><time>2026-04-12T13:11:04.671Z</time></trkpt><trkpt lat="44.9857497" lon="8.0480333"><ele>207.0</ele><time>2026-04-12T13:11:05.672Z</time></trkpt><trkpt lat="44.9856056" lon="8.0481729"><ele>206.0</ele><time>2026-04-12T13:11:06.671Z</time></trkpt><trkpt lat="44.985484" lon="8.0483223"><ele>206.0</ele><time>2026-04-12T13:11:07.672Z</time></trkpt><trkpt lat="44.9853602" lon="8.048465"><ele>206.0</ele><time>2026-04-12T13:11:08.672Z</time></trkpt><trkpt lat="44.9852276" lon="8.0486053"><ele>206.0</ele><time>2026-04-12T13:11:09.672Z</time></trkpt><trkpt lat="44.9851091" lon="8.0487541"><ele>203.33333333333334</ele><time>2026-04-12T13:11:10.672Z</time></trkpt><trkpt lat="44.9849903" lon="8.0489007"><ele>200.66666666666669</ele><time>2026-04-12T13:11:11.672Z</time></trkpt><trkpt lat="44.9848723" lon="8.0490576"><ele>198.0</ele><time>2026-04-12T13:11:12.672Z</time></trkpt><trkpt lat="44.9847638" lon="8.0492174"><ele>198.0</ele><time>2026-04-12T13:11:13.672Z</time></trkpt><trkpt lat="44.9846505" lon="8.049387"><ele>198.0</ele><time>2026-04-12T13:11:14.671Z</time></trkpt><trkpt lat="44.984543" lon="8.0495583"><ele>198.0</ele><time>2026-04-12T13:11:15.672Z</time></trkpt><trkpt lat="44.9844546" lon="8.0497438"><ele>198.0</ele><time>2026-04-12T13:11:16.672Z</time></trkpt><trkpt lat="44.98435" lon="8.0499242"><ele>198.0</ele><time>2026-04-12T13:11:17.672Z</time></trkpt><trkpt lat="44.9842511" lon="8.0501254"><ele>198.0</ele><time>2026-04-12T13:11:18.672Z</time></trkpt><trkpt lat="44.9841536" lon="8.0503161"><ele>197.33333333333331</ele><time>2026-04-12T13:11:19.672Z</time></trkpt><trkpt lat="44.9840573" lon="8.0505152"><ele>196.66666666666666</ele><time>2026-04-12T13:11:20.672Z</time></trkpt><trkpt lat="44.9839595" lon="8.0507154"><ele>196.0</ele><time>2026-04-12T13:11:21.672Z</time></trkpt><trkpt lat="44.9838597" lon="8.0509175"><ele>196.0</ele><time>2026-04-12T13:11:22.672Z</time></trkpt><trkpt lat="44.9837699" lon="8.0511153"><ele>196.0</ele><time>2026-04-12T13:11:23.672Z</time></trkpt><trkpt lat="44.9836678" lon="8.0513085"><ele>196.0</ele><time>2026-04-12T13:11:24.672Z</time></trkpt><trkpt lat="44.9835753" lon="8.0514927"><ele>194.66666666666666</ele><time>2026-04-12T13:11:25.672Z</time></trkpt><trkpt lat="44.9834857" lon="8.0516861"><ele>193.33333333333331</ele><time>2026-04-12T13:11:26.672Z</time></trkpt><trkpt lat="44.9833945" lon="8.0518778"><ele>192.0</ele><time>2026-04-12T13:11:27.672Z</time></trkpt><trkpt lat="44.9833006" lon="8.0520681"><ele>192.0</ele><time>2026-04-12T13:11:28.672Z</time></trkpt><trkpt lat="44.9831999" lon="8.0522462"><ele>192.0</ele><time>2026-04-12T13:11:29.672Z</time></trkpt><trkpt lat="44.9831082" lon="8.052436"><ele>192.0</ele><time>2026-04-12T13:11:30.672Z</time></trkpt><trkpt lat="44.9830216" lon="8.0526308"><ele>193.33333333333331</ele><time>2026-04-12T13:11:31.672Z</time></trkpt><trkpt lat="44.9829344" lon="8.0528232"><ele>194.66666666666666</ele><time>2026-04-12T13:11:32.672Z</time></trkpt><trkpt lat="44.9828546" lon="8.0530171"><ele>196.0</ele><time>2026-04-12T13:11:33.672Z</time></trkpt><trkpt lat="44.9827746" lon="8.0532171"><ele>199.0</ele><time>2026-04-12T13:11:34.672Z</time></trkpt><trkpt lat="44.9826985" lon="8.0534268"><ele>202.0</ele><time>2026-04-12T13:11:35.672Z</time></trkpt><trkpt lat="44.9826241" lon="8.0536242"><ele>205.0</ele><time>2026-04-12T13:11:36.671Z</time></trkpt><trkpt lat="44.9825537" lon="8.0538366"><ele>201.0</ele><time>2026-04-12T13:11:37.672Z</time></trkpt><trkpt lat="44.9824818" lon="8.0540513"><ele>197.0</ele><time>2026-04-12T13:11:38.672Z</time></trkpt><trkpt lat="44.982407" lon="8.0542539"><ele>193.0</ele><time>2026-04-12T13:11:39.672Z</time></trkpt><trkpt lat="44.982338" lon="8.0544545"><ele>193.0</ele><time>2026-04-12T13:11:40.671Z</time></trkpt><trkpt lat="44.9822645" lon="8.0546562"><ele>193.0</ele><time>2026-04-12T13:11:41.672Z</time></trkpt><trkpt lat="44.9821949" lon="8.0548514"><ele>193.0</ele><time>2026-04-12T13:11:42.672Z</time></trkpt><trkpt lat="44.982121" lon="8.0550473"><ele>193.0</ele><time>2026-04-12T13:11:43.672Z</time></trkpt><trkpt lat="44.9820518" lon="8.0552401"><ele>193.0</ele><time>2026-04-12T13:11:44.672Z</time></trkpt><trkpt lat="44.981982" lon="8.0554429"><ele>193.0</ele><time>2026-04-12T13:11:45.671Z</time></trkpt><trkpt lat="44.9819116" lon="8.0556372"><ele>192.75</ele><time>2026-04-12T13:11:46.672Z</time></trkpt><trkpt lat="44.9818601" lon="8.0558312"><ele>192.5</ele><time>2026-04-12T13:11:47.672Z</time></trkpt><trkpt lat="44.9817844" lon="8.0560251"><ele>192.25</ele><time>2026-04-12T13:11:48.671Z</time></trkpt><trkpt lat="44.9817169" lon="8.0561969"><ele>192.0</ele><time>2026-04-12T13:11:49.672Z</time></trkpt><trkpt lat="44.9816536" lon="8.0563535"><ele>190.6</ele><time>2026-04-12T13:11:50.671Z</time></trkpt><trkpt lat="44.9816025" lon="8.0564964"><ele>189.2</ele><time>2026-04-12T13:11:51.672Z</time></trkpt><trkpt lat="44.9815595" lon="8.0566244"><ele>187.8</ele><time>2026-04-12T13:11:52.672Z</time></trkpt><trkpt lat="44.981513" lon="8.0567266"><ele>186.4</ele><time>2026-04-12T13:11:53.671Z</time></trkpt><trkpt lat="44.9814522" lon="8.0568184"><ele>185.0</ele><time>2026-04-12T13:11:54.672Z</time></trkpt><trkpt lat="44.98138" lon="8.0568756"><ele>184.5</ele><time>2026-04-12T13:11:55.671Z</time></trkpt><trkpt lat="44.9812832" lon="8.0568736"><ele>184.0</ele><time>2026-04-12T13:11:56.672Z</time></trkpt><trkpt lat="44.9811712" lon="8.0568481"><ele>183.5</ele><time>2026-04-12T13:11:57.672Z</time></trkpt><trkpt lat="44.9810517" lon="8.0568051"><ele>183.0</ele><time>2026-04-12T13:11:58.672Z</time></trkpt><trkpt lat="44.9809287" lon="8.0567657"><ele>182.5</ele><time>2026-04-12T13:11:59.672Z</time></trkpt><trkpt lat="44.9807974" lon="8.0567279"><ele>182.0</ele><time>2026-04-12T13:12:00.672Z</time></trkpt><trkpt lat="44.9806654" lon="8.0566908"><ele>181.5</ele><time>2026-04-12T13:12:01.672Z</time></trkpt><trkpt lat="44.9805258" lon="8.0566565"><ele>181.0</ele><time>2026-04-12T13:12:02.672Z</time></trkpt><trkpt lat="44.9803917" lon="8.0566379"><ele>181.0</ele><time>2026-04-12T13:12:03.672Z</time></trkpt><trkpt lat="44.9802508" lon="8.0566238"><ele>181.0</ele><time>2026-04-12T13:12:04.672Z</time></trkpt><trkpt lat="44.9801139" lon="8.0566212"><ele>181.0</ele><time>2026-04-12T13:12:05.672Z</time></trkpt><trkpt lat="44.9799755" lon="8.0566408"><ele>181.0</ele><time>2026-04-12T13:12:06.672Z</time></trkpt><trkpt lat="44.9798365" lon="8.0566754"><ele>181.25</ele><time>2026-04-12T13:12:07.672Z</time></trkpt><trkpt lat="44.9796936" lon="8.0567103"><ele>181.5</ele><time>2026-04-12T13:12:08.672Z</time></trkpt><trkpt lat="44.9795423" lon="8.056741"><ele>181.75</ele><time>2026-04-12T13:12:09.672Z</time></trkpt><trkpt lat="44.9793956" lon="8.0567825"><ele>182.0</ele><time>2026-04-12T13:12:10.672Z</time></trkpt><trkpt lat="44.9792507" lon="8.0568203"><ele>182.33333333333331</ele><time>2026-04-12T13:12:11.672Z</time></trkpt><trkpt lat="44.9790997" lon="8.0568614"><ele>182.66666666666666</ele><time>2026-04-12T13:12:12.672Z</time></trkpt><trkpt lat="44.9789483" lon="8.0569061"><ele>183.0</ele><time>2026-04-12T13:12:13.672Z</time></trkpt><trkpt lat="44.9787892" lon="8.0569482"><ele>183.0</ele><time>2026-04-12T13:12:14.672Z</time></trkpt><trkpt lat="44.978638" lon="8.0569892"><ele>183.0</ele><time>2026-04-12T13:12:15.672Z</time></trkpt><trkpt lat="44.9784732" lon="8.0570383"><ele>183.0</ele><time>2026-04-12T13:12:16.672Z</time></trkpt><trkpt lat="44.978315" lon="8.0570764"><ele>183.33333333333334</ele><time>2026-04-12T13:12:17.672Z</time></trkpt><trkpt lat="44.978153" lon="8.0571221"><ele>183.66666666666669</ele><time>2026-04-12T13:12:18.671Z</time></trkpt><trkpt lat="44.9779887" lon="8.0571673"><ele>184.0</ele><time>2026-04-12T13:12:19.672Z</time></trkpt><trkpt lat="44.9778225" lon="8.0572097"><ele>184.0</ele><time>2026-04-12T13:12:20.672Z</time></trkpt><trkpt lat="44.977663" lon="8.0572553"><ele>184.0</ele><time>2026-04-12T13:12:21.672Z</time></trkpt><trkpt lat="44.977494" lon="8.0572979"><ele>184.0</ele><time>2026-04-12T13:12:22.671Z</time></trkpt><trkpt lat="44.9773354" lon="8.0573455"><ele>183.66666666666669</ele><time>2026-04-12T13:12:23.672Z</time></trkpt><trkpt lat="44.9771733" lon="8.0573999"><ele>183.33333333333334</ele><time>2026-04-12T13:12:24.671Z</time></trkpt><trkpt lat="44.9770129" lon="8.0574388"><ele>183.0</ele><time>2026-04-12T13:12:25.672Z</time></trkpt><trkpt lat="44.9768565" lon="8.0574858"><ele>183.0</ele><time>2026-04-12T13:12:26.672Z</time></trkpt><trkpt lat="44.976689" lon="8.0575271"><ele>183.0</ele><time>2026-04-12T13:12:27.672Z</time></trkpt><trkpt lat="44.9765209" lon="8.0575739"><ele>183.0</ele><time>2026-04-12T13:12:28.672Z</time></trkpt><trkpt lat="44.9763485" lon="8.0576369"><ele>182.66666666666666</ele><time>2026-04-12T13:12:29.672Z</time></trkpt><trkpt lat="44.9761771" lon="8.0577104"><ele>182.33333333333331</ele><time>2026-04-12T13:12:30.672Z</time></trkpt><trkpt lat="44.9760064" lon="8.0578047"><ele>182.0</ele><time>2026-04-12T13:12:31.672Z</time></trkpt><trkpt lat="44.9758408" lon="8.0579169"><ele>182.0</ele><time>2026-04-12T13:12:32.672Z</time></trkpt><trkpt lat="44.9756772" lon="8.0580483"><ele>182.0</ele><time>2026-04-12T13:12:33.672Z</time></trkpt><trkpt lat="44.9755328" lon="8.0581904"><ele>182.0</ele><time>2026-04-12T13:12:34.672Z</time></trkpt><trkpt lat="44.9754059" lon="8.0583447"><ele>181.66666666666666</ele><time>2026-04-12T13:12:35.672Z</time></trkpt><trkpt lat="44.9752833" lon="8.0585052"><ele>181.33333333333334</ele><time>2026-04-12T13:12:36.672Z</time></trkpt><trkpt lat="44.9751639" lon="8.05866"><ele>181.0</ele><time>2026-04-12T13:12:37.672Z</time></trkpt><trkpt lat="44.9750454" lon="8.0588011"><ele>181.33333333333334</ele><time>2026-04-12T13:12:38.672Z</time></trkpt><trkpt lat="44.9749192" lon="8.0589327"><ele>181.66666666666666</ele><time>2026-04-12T13:12:39.672Z</time></trkpt><trkpt lat="44.974786" lon="8.0590467"><ele>182.0</ele><time>2026-04-12T13:12:40.672Z</time></trkpt><trkpt lat="44.9746331" lon="8.0591516"><ele>182.0</ele><time>2026-04-12T13:12:41.672Z</time></trkpt><trkpt lat="44.97447" lon="8.0592576"><ele>182.0</ele><time>2026-04-12T13:12:42.672Z</time></trkpt><trkpt lat="44.9743022" lon="8.0593635"><ele>182.0</ele><time>2026-04-12T13:12:43.672Z</time></trkpt><trkpt lat="44.9741223" lon="8.0594585"><ele>181.66666666666666</ele><time>2026-04-12T13:12:44.672Z</time></trkpt><trkpt lat="44.9739391" lon="8.0595465"><ele>181.33333333333334</ele><time>2026-04-12T13:12:45.671Z</time></trkpt><trkpt lat="44.9737572" lon="8.0596302"><ele>181.0</ele><time>2026-04-12T13:12:46.672Z</time></trkpt><trkpt lat="44.9735742" lon="8.0597108"><ele>181.0</ele><time>2026-04-12T13:12:47.672Z</time></trkpt><trkpt lat="44.9733834" lon="8.0597996"><ele>181.0</ele><time>2026-04-12T13:12:48.672Z</time></trkpt><trkpt lat="44.9732008" lon="8.0598852"><ele>181.0</ele><time>2026-04-12T13:12:49.672Z</time></trkpt><trkpt lat="44.9730141" lon="8.0599647"><ele>180.33333333333334</ele><time>2026-04-12T13:12:50.672Z</time></trkpt><trkpt lat="44.9728277" lon="8.0600413"><ele>179.66666666666666</ele><time>2026-04-12T13:12:51.672Z</time></trkpt><trkpt lat="44.9726465" lon="8.0601159"><ele>179.0</ele><time>2026-04-12T13:12:52.672Z</time></trkpt><trkpt lat="44.9724664" lon="8.0601843"><ele>178.66666666666666</ele><time>2026-04-12T13:12:53.672Z</time></trkpt><trkpt lat="44.9722873" lon="8.0602623"><ele>178.33333333333334</ele><time>2026-04-12T13:12:54.672Z</time></trkpt><trkpt lat="44.972116" lon="8.0603394"><ele>178.0</ele><time>2026-04-12T13:12:55.672Z</time></trkpt><trkpt lat="44.9719401" lon="8.0604179"><ele>178.0</ele><time>2026-04-12T13:12:56.672Z</time></trkpt><trkpt lat="44.9717658" lon="8.0604994"><ele>178.0</ele><time>2026-04-12T13:12:57.672Z</time></trkpt><trkpt lat="44.9715869" lon="8.0605665"><ele>178.0</ele><time>2026-04-12T13:12:58.672Z</time></trkpt><trkpt lat="44.9714101" lon="8.0606045"><ele>179.0</ele><time>2026-04-12T13:12:59.672Z</time></trkpt><trkpt lat="44.9712293" lon="8.0606261"><ele>180.0</ele><time>2026-04-12T13:13:00.672Z</time></trkpt><trkpt lat="44.9710472" lon="8.0606426"><ele>181.0</ele><time>2026-04-12T13:13:01.672Z</time></trkpt><trkpt lat="44.9708643" lon="8.0606597"><ele>181.66666666666669</ele><time>2026-04-12T13:13:02.672Z</time></trkpt><trkpt lat="44.9706825" lon="8.0606799"><ele>182.33333333333334</ele><time>2026-04-12T13:13:03.672Z</time></trkpt><trkpt lat="44.9705006" lon="8.0606994"><ele>183.0</ele><time>2026-04-12T13:13:04.672Z</time></trkpt><trkpt lat="44.9703234" lon="8.0607189"><ele>183.0</ele><time>2026-04-12T13:13:05.672Z</time></trkpt><trkpt lat="44.9701436" lon="8.0607458"><ele>183.0</ele><time>2026-04-12T13:13:06.672Z</time></trkpt><trkpt lat="44.9699684" lon="8.0607547"><ele>183.0</ele><time>2026-04-12T13:13:07.672Z</time></trkpt><trkpt lat="44.9697905" lon="8.0607733"><ele>182.0</ele><time>2026-04-12T13:13:08.672Z</time></trkpt><trkpt lat="44.9696096" lon="8.0607936"><ele>181.0</ele><time>2026-04-12T13:13:09.672Z</time></trkpt><trkpt lat="44.9694332" lon="8.0608114"><ele>180.0</ele><time>2026-04-12T13:13:10.672Z</time></trkpt><trkpt lat="44.9692517" lon="8.0608355"><ele>179.66666666666666</ele><time>2026-04-12T13:13:11.672Z</time></trkpt><trkpt lat="44.9690848" lon="8.0608598"><ele>179.33333333333331</ele><time>2026-04-12T13:13:12.672Z</time></trkpt><trkpt lat="44.9689116" lon="8.0608785"><ele>179.0</ele><time>2026-04-12T13:13:13.672Z</time></trkpt><trkpt lat="44.9687398" lon="8.0609001"><ele>179.0</ele><time>2026-04-12T13:13:14.672Z</time></trkpt><trkpt lat="44.9685714" lon="8.0609069"><ele>179.0</ele><time>2026-04-12T13:13:15.672Z</time></trkpt><trkpt lat="44.9684046" lon="8.0609263"><ele>179.0</ele><time>2026-04-12T13:13:16.672Z</time></trkpt><trkpt lat="44.9682348" lon="8.0609626"><ele>179.0</ele><time>2026-04-12T13:13:17.672Z</time></trkpt><trkpt lat="44.9680724" lon="8.0609783"><ele>179.0</ele><time>2026-04-12T13:13:18.672Z</time></trkpt><trkpt lat="44.9679124" lon="8.0609976"><ele>179.0</ele><time>2026-04-12T13:13:19.672Z</time></trkpt><trkpt lat="44.9677515" lon="8.0610087"><ele>179.0</ele><time>2026-04-12T13:13:20.672Z</time></trkpt><trkpt lat="44.9675833" lon="8.0610286"><ele>179.0</ele><time>2026-04-12T13:13:21.672Z</time></trkpt><trkpt lat="44.9674212" lon="8.0610452"><ele>179.0</ele><time>2026-04-12T13:13:22.672Z</time></trkpt><trkpt lat="44.9672567" lon="8.0610639"><ele>179.33333333333331</ele><time>2026-04-12T13:13:23.672Z</time></trkpt><trkpt lat="44.9670794" lon="8.0610753"><ele>179.66666666666666</ele><time>2026-04-12T13:13:24.672Z</time></trkpt><trkpt lat="44.9669136" lon="8.0610989"><ele>180.0</ele><time>2026-04-12T13:13:25.672Z</time></trkpt><trkpt lat="44.9667501" lon="8.0611129"><ele>179.33333333333334</ele><time>2026-04-12T13:13:26.672Z</time></trkpt><trkpt lat="44.9665819" lon="8.061132"><ele>178.66666666666669</ele><time>2026-04-12T13:13:27.671Z</time></trkpt><trkpt lat="44.9664124" lon="8.0611441"><ele>178.0</ele><time>2026-04-12T13:13:28.672Z</time></trkpt><trkpt lat="44.9662444" lon="8.0611619"><ele>178.0</ele><time>2026-04-12T13:13:29.672Z</time></trkpt><trkpt lat="44.9660812" lon="8.061187"><ele>178.0</ele><time>2026-04-12T13:13:30.672Z</time></trkpt><trkpt lat="44.9659219" lon="8.0612138"><ele>178.0</ele><time>2026-04-12T13:13:31.672Z</time></trkpt><trkpt lat="44.9657547" lon="8.0612367"><ele>178.66666666666669</ele><time>2026-04-12T13:13:32.672Z</time></trkpt><trkpt lat="44.9655935" lon="8.0612609"><ele>179.33333333333334</ele><time>2026-04-12T13:13:33.672Z</time></trkpt><trkpt lat="44.9654239" lon="8.0612775"><ele>180.0</ele><time>2026-04-12T13:13:34.672Z</time></trkpt><trkpt lat="44.9652562" lon="8.0612968"><ele>180.0</ele><time>2026-04-12T13:13:35.672Z</time></trkpt><trkpt lat="44.9650894" lon="8.0613107"><ele>180.0</ele><time>2026-04-12T13:13:36.672Z</time></trkpt><trkpt lat="44.9649228" lon="8.0613131"><ele>180.0</ele><time>2026-04-12T13:13:37.672Z</time></trkpt><trkpt lat="44.9647528" lon="8.0612831"><ele>181.0</ele><time>2026-04-12T13:13:38.671Z</time></trkpt><trkpt lat="44.964583" lon="8.0612404"><ele>182.0</ele><time>2026-04-12T13:13:39.672Z</time></trkpt><trkpt lat="44.9644184" lon="8.0611895"><ele>183.0</ele><time>2026-04-12T13:13:40.672Z</time></trkpt><trkpt lat="44.9642534" lon="8.0611389"><ele>183.33333333333334</ele><time>2026-04-12T13:13:41.672Z</time></trkpt><trkpt lat="44.9640852" lon="8.0610828"><ele>183.66666666666669</ele><time>2026-04-12T13:13:42.672Z</time></trkpt><trkpt lat="44.9639199" lon="8.0610316"><ele>184.0</ele><time>2026-04-12T13:13:43.672Z</time></trkpt><trkpt lat="44.9637614" lon="8.0609823"><ele>184.0</ele><time>2026-04-12T13:13:44.672Z</time></trkpt><trkpt lat="44.9635941" lon="8.0609254"><ele>184.0</ele><time>2026-04-12T13:13:45.672Z</time></trkpt><trkpt lat="44.9634239" lon="8.0608792"><ele>184.0</ele><time>2026-04-12T13:13:46.672Z</time></trkpt><trkpt lat="44.9632651" lon="8.0608341"><ele>185.0</ele><time>2026-04-12T13:13:47.672Z</time></trkpt><trkpt lat="44.9630965" lon="8.0607909"><ele>186.0</ele><time>2026-04-12T13:13:48.672Z</time></trkpt><trkpt lat="44.9629332" lon="8.060732"><ele>187.0</ele><time>2026-04-12T13:13:49.672Z</time></trkpt><trkpt lat="44.9627589" lon="8.060699"><ele>192.66666666666669</ele><time>2026-04-12T13:13:50.672Z</time></trkpt><trkpt lat="44.9625931" lon="8.0606692"><ele>198.33333333333334</ele><time>2026-04-12T13:13:51.672Z</time></trkpt><trkpt lat="44.9624156" lon="8.0606572"><ele>204.0</ele><time>2026-04-12T13:13:52.672Z</time></trkpt><trkpt lat="44.9622539" lon="8.0606314"><ele>204.0</ele><time>2026-04-12T13:13:53.672Z</time></trkpt><trkpt lat="44.9620979" lon="8.060604"><ele>204.0</ele><time>2026-04-12T13:13:54.672Z</time></trkpt><trkpt lat="44.9619372" lon="8.0605819"><ele>204.0</ele><time>2026-04-12T13:13:55.672Z</time></trkpt><trkpt lat="44.9617757" lon="8.0605558"><ele>197.66666666666666</ele><time>2026-04-12T13:13:56.672Z</time></trkpt><trkpt lat="44.9616009" lon="8.0605292"><ele>191.33333333333331</ele><time>2026-04-12T13:13:57.672Z</time></trkpt><trkpt lat="44.9614376" lon="8.0605113"><ele>185.0</ele><time>2026-04-12T13:13:58.672Z</time></trkpt><trkpt lat="44.9612773" lon="8.0604994"><ele>185.0</ele><time>2026-04-12T13:13:59.672Z</time></trkpt><trkpt lat="44.9611178" lon="8.0604844"><ele>185.0</ele><time>2026-04-12T13:14:00.671Z</time></trkpt><trkpt lat="44.9609476" lon="8.0604669"><ele>185.0</ele><time>2026-04-12T13:14:01.672Z</time></trkpt><trkpt lat="44.9607933" lon="8.0604511"><ele>184.0</ele><time>2026-04-12T13:14:02.672Z</time></trkpt><trkpt lat="44.9606397" lon="8.060437"><ele>183.0</ele><time>2026-04-12T13:14:03.672Z</time></trkpt><trkpt lat="44.9604737" lon="8.0604124"><ele>182.0</ele><time>2026-04-12T13:14:04.672Z</time></trkpt><trkpt lat="44.9603083" lon="8.0603917"><ele>182.0</ele><time>2026-04-12T13:14:05.672Z</time></trkpt><trkpt lat="44.9601475" lon="8.0603775"><ele>182.0</ele><time>2026-04-12T13:14:06.671Z</time></trkpt><trkpt lat="44.9599771" lon="8.060372"><ele>182.0</ele><time>2026-04-12T13:14:07.672Z</time></trkpt><trkpt lat="44.9598179" lon="8.0603604"><ele>184.5</ele><time>2026-04-12T13:14:08.672Z</time></trkpt><trkpt lat="44.9596611" lon="8.0603634"><ele>187.0</ele><time>2026-04-12T13:14:09.672Z</time></trkpt><trkpt lat="44.9595148" lon="8.0603772"><ele>189.5</ele><time>2026-04-12T13:14:10.672Z</time></trkpt><trkpt lat="44.9593749" lon="8.0604007"><ele>192.0</ele><time>2026-04-12T13:14:11.672Z</time></trkpt><trkpt lat="44.9592362" lon="8.0604127"><ele>194.0</ele><time>2026-04-12T13:14:12.672Z</time></trkpt><trkpt lat="44.9590938" lon="8.0604143"><ele>196.0</ele><time>2026-04-12T13:14:13.672Z</time></trkpt><trkpt lat="44.9589455" lon="8.0603969"><ele>198.0</ele><time>2026-04-12T13:14:14.672Z</time></trkpt><trkpt lat="44.9588115" lon="8.0603646"><ele>200.0</ele><time>2026-04-12T13:14:15.672Z</time></trkpt><trkpt lat="44.9586828" lon="8.0603295"><ele>200.0</ele><time>2026-04-12T13:14:16.671Z</time></trkpt><trkpt lat="44.9585679" lon="8.0602901"><ele>200.0</ele><time>2026-04-12T13:14:17.672Z</time></trkpt><trkpt lat="44.9584321" lon="8.0602672"><ele>200.0</ele><time>2026-04-12T13:14:18.672Z</time></trkpt><trkpt lat="44.9583291" lon="8.06022"><ele>200.0</ele><time>2026-04-12T13:14:19.672Z</time></trkpt><trkpt lat="44.9582321" lon="8.0601658"><ele>198.4</ele><time>2026-04-12T13:14:20.672Z</time></trkpt><trkpt lat="44.9581571" lon="8.0600835"><ele>196.8</ele><time>2026-04-12T13:14:21.672Z</time></trkpt><trkpt lat="44.9580768" lon="8.0600155"><ele>195.2</ele><time>2026-04-12T13:14:22.672Z</time></trkpt><trkpt lat="44.9580025" lon="8.059927"><ele>193.6</ele><time>2026-04-12T13:14:23.672Z</time></trkpt><trkpt lat="44.9579187" lon="8.0598541"><ele>192.0</ele><time>2026-04-12T13:14:24.672Z</time></trkpt><trkpt lat="44.9578377" lon="8.0597975"><ele>192.0</ele><time>2026-04-12T13:14:25.672Z</time></trkpt><trkpt lat="44.9577356" lon="8.0597896"><ele>192.0</ele><time>2026-04-12T13:14:26.672Z</time></trkpt><trkpt lat="44.9576288" lon="8.0598032"><ele>192.0</ele><time>2026-04-12T13:14:27.672Z</time></trkpt><trkpt lat="44.957526" lon="8.0598254"><ele>192.0</ele><time>2026-04-12T13:14:28.672Z</time></trkpt><trkpt lat="44.9574291" lon="8.0598607"><ele>192.0</ele><time>2026-04-12T13:14:29.672Z</time></trkpt><trkpt lat="44.9573268" lon="8.0598942"><ele>191.0</ele><time>2026-04-12T13:14:30.672Z</time></trkpt><trkpt lat="44.9572277" lon="8.0599363"><ele>190.0</ele><time>2026-04-12T13:14:31.672Z</time></trkpt><trkpt lat="44.9571421" lon="8.0599675"><ele>189.0</ele><time>2026-04-12T13:14:32.672Z</time></trkpt><trkpt lat="44.957049" lon="8.060023"><ele>188.0</ele><time>2026-04-12T13:14:33.672Z</time></trkpt><trkpt lat="44.9569574" lon="8.0600973"><ele>187.0</ele><time>2026-04-12T13:14:34.672Z</time></trkpt><trkpt lat="44.9568697" lon="8.0601834"><ele>188.0</ele><time>2026-04-12T13:14:35.672Z</time></trkpt><trkpt lat="44.956776" lon="8.060267"><ele>189.0</ele><time>2026-04-12T13:14:36.672Z</time></trkpt><trkpt lat="44.9566776" lon="8.060345"><ele>190.0</ele><time>2026-04-12T13:14:37.672Z</time></trkpt><trkpt lat="44.9565701" lon="8.0604196"><ele>191.0</ele><time>2026-04-12T13:14:38.672Z</time></trkpt><trkpt lat="44.9564664" lon="8.0604946"><ele>191.0</ele><time>2026-04-12T13:14:39.672Z</time></trkpt><trkpt lat="44.9563422" lon="8.0605667"><ele>191.0</ele><time>2026-04-12T13:14:40.672Z</time></trkpt><trkpt lat="44.9562149" lon="8.0606372"><ele>191.0</ele><time>2026-04-12T13:14:41.672Z</time></trkpt><trkpt lat="44.9560945" lon="8.0606901"><ele>191.0</ele><time>2026-04-12T13:14:42.672Z</time></trkpt><trkpt lat="44.9559752" lon="8.0607443"><ele>187.5</ele><time>2026-04-12T13:14:43.672Z</time></trkpt><trkpt lat="44.9558439" lon="8.0608"><ele>184.0</ele><time>2026-04-12T13:14:44.672Z</time></trkpt><trkpt lat="44.955708" lon="8.0608533"><ele>180.5</ele><time>2026-04-12T13:14:45.672Z</time></trkpt><trkpt lat="44.9555716" lon="8.0608744"><ele>177.0</ele><time>2026-04-12T13:14:46.671Z</time></trkpt><trkpt lat="44.9554491" lon="8.0608643"><ele>177.0</ele><time>2026-04-12T13:14:47.672Z</time></trkpt><trkpt lat="44.955344" lon="8.0608631"><ele>177.0</ele><time>2026-04-12T13:14:48.672Z</time></trkpt><trkpt lat="44.9552475" lon="8.0608632"><ele>177.0</ele><time>2026-04-12T13:14:49.671Z</time></trkpt><trkpt lat="44.95517" lon="8.0608546"><ele>177.0</ele><time>2026-04-12T13:14:50.672Z</time></trkpt><trkpt lat="44.9550809" lon="8.060744"><ele>177.0</ele><time>2026-04-12T13:14:52.672Z</time></trkpt><trkpt lat="44.9550513" lon="8.0606082"><ele>177.39999999999998</ele><time>2026-04-12T13:14:54.672Z</time></trkpt><trkpt lat="44.9550343" lon="8.0604724"><ele>177.79999999999998</ele><time>2026-04-12T13:14:56.672Z</time></trkpt><trkpt lat="44.9550411" lon="8.0603404"><ele>178.2</ele><time>2026-04-12T13:14:58.672Z</time></trkpt><trkpt lat="44.9550667" lon="8.06019"><ele>178.6</ele><time>2026-04-12T13:15:00.672Z</time></trkpt><trkpt lat="44.9550948" lon="8.060014"><ele>179.0</ele><time>2026-04-12T13:15:02.672Z</time></trkpt><trkpt lat="44.9551127" lon="8.0599273"><ele>181.33333333333331</ele><time>2026-04-12T13:15:03.672Z</time></trkpt><trkpt lat="44.9551295" lon="8.0598342"><ele>183.66666666666666</ele><time>2026-04-12T13:15:04.672Z</time></trkpt><trkpt lat="44.9551438" lon="8.0597428"><ele>186.0</ele><time>2026-04-12T13:15:05.672Z</time></trkpt><trkpt lat="44.9551638" lon="8.0595691"><ele>188.33333333333331</ele><time>2026-04-12T13:15:07.671Z</time></trkpt><trkpt lat="44.9551577" lon="8.0593952"><ele>190.66666666666666</ele><time>2026-04-12T13:15:09.672Z</time></trkpt><trkpt lat="44.9551632" lon="8.0593024"><ele>193.0</ele><time>2026-04-12T13:15:10.672Z</time></trkpt><trkpt lat="44.9551568" lon="8.0592118"><ele>192.99999999999997</ele><time>2026-04-12T13:15:11.672Z</time></trkpt><trkpt lat="44.9551492" lon="8.0591176"><ele>193.0</ele><time>2026-04-12T13:15:12.671Z</time></trkpt><trkpt lat="44.9551291" lon="8.0590259"><ele>193.0</ele><time>2026-04-12T13:15:13.672Z</time></trkpt><trkpt lat="44.9551077" lon="8.0588511"><ele>193.0</ele><time>2026-04-12T13:15:15.671Z</time></trkpt><trkpt lat="44.9550957" lon="8.0587584"><ele>192.99999999999997</ele><time>2026-04-12T13:15:16.672Z</time></trkpt><trkpt lat="44.9550869" lon="8.0586608"><ele>193.0</ele><time>2026-04-12T13:15:17.671Z</time></trkpt><trkpt lat="44.9550707" lon="8.0584875"><ele>193.0</ele><time>2026-04-12T13:15:19.672Z</time></trkpt><trkpt lat="44.955069" lon="8.0583226"><ele>193.0</ele><time>2026-04-12T13:15:21.672Z</time></trkpt><trkpt lat="44.9550629" lon="8.0581946"><ele>197.0</ele><time>2026-04-12T13:15:23.672Z</time></trkpt></trkseg><trkseg><trkpt lat="44.9550648" lon="8.0582317"><ele>196.2</ele><time>2026-04-12T13:28:05.672Z</time></trkpt><trkpt lat="44.9550725" lon="8.0583481"><ele>195.39999999999998</ele><time>2026-04-12T13:28:08.672Z</time></trkpt><trkpt lat="44.9550841" lon="8.0584547"><ele>194.60000000000002</ele><time>2026-04-12T13:28:10.672Z</time></trkpt><trkpt lat="44.955092" lon="8.0585797"><ele>193.8</ele><time>2026-04-12T13:28:12.671Z</time></trkpt><trkpt lat="44.9551066" lon="8.0587503"><ele>193.0</ele><time>2026-04-12T13:28:14.672Z</time></trkpt><trkpt lat="44.9551287" lon="8.0589252"><ele>193.0</ele><time>2026-04-12T13:28:16.672Z</time></trkpt><trkpt lat="44.9551552" lon="8.0590933"><ele>193.0</ele><time>2026-04-12T13:28:18.672Z</time></trkpt><trkpt lat="44.955181" lon="8.0592675"><ele>193.0</ele><time>2026-04-12T13:28:20.672Z</time></trkpt><trkpt lat="44.9551762" lon="8.0594204"><ele>193.0</ele><time>2026-04-12T13:28:22.672Z</time></trkpt><trkpt lat="44.9551653" lon="8.0595944"><ele>193.00000000000003</ele><time>2026-04-12T13:28:24.672Z</time></trkpt><trkpt lat="44.9551511" lon="8.0596821"><ele>193.0</ele><time>2026-04-12T13:28:25.672Z</time></trkpt><trkpt lat="44.9551427" lon="8.0597811"><ele>193.0</ele><time>2026-04-12T13:28:26.672Z</time></trkpt><trkpt lat="44.9551197" lon="8.0598785"><ele>193.0</ele><time>2026-04-12T13:28:27.671Z</time></trkpt><trkpt lat="44.955112" lon="8.0599822"><ele>193.0</ele><time>2026-04-12T13:28:28.671Z</time></trkpt><trkpt lat="44.9550781" lon="8.0600733"><ele>193.00000000000003</ele><time>2026-04-12T13:28:29.672Z</time></trkpt><trkpt lat="44.9550625" lon="8.0601696"><ele>193.0</ele><time>2026-04-12T13:28:30.672Z</time></trkpt><trkpt lat="44.9550353" lon="8.0602594"><ele>190.66666666666666</ele><time>2026-04-12T13:28:31.672Z</time></trkpt><trkpt lat="44.9550274" lon="8.060354"><ele>188.33333333333331</ele><time>2026-04-12T13:28:32.672Z</time></trkpt><trkpt lat="44.9550315" lon="8.0604483"><ele>186.0</ele><time>2026-04-12T13:28:33.672Z</time></trkpt><trkpt lat="44.9550185" lon="8.0605841"><ele>183.66666666666666</ele><time>2026-04-12T13:28:35.672Z</time></trkpt><trkpt lat="44.9550016" lon="8.0606855"><ele>181.33333333333331</ele><time>2026-04-12T13:28:37.672Z</time></trkpt><trkpt lat="44.9549807" lon="8.0607785"><ele>179.0</ele><time>2026-04-12T13:28:40.672Z</time></trkpt><trkpt lat="44.9548946" lon="8.0608129"><ele>177.79999999999998</ele><time>2026-04-12T13:28:43.672Z</time></trkpt><trkpt lat="44.9548041" lon="8.0608376"><ele>176.6</ele><time>2026-04-12T13:28:45.672Z</time></trkpt><trkpt lat="44.9546759" lon="8.0608806"><ele>175.4</ele><time>2026-04-12T13:28:47.672Z</time></trkpt><trkpt lat="44.9546077" lon="8.0609345"><ele>174.2</ele><time>2026-04-12T13:28:48.672Z</time></trkpt><trkpt lat="44.9545372" lon="8.0610181"><ele>173.0</ele><time>2026-04-12T13:28:49.672Z</time></trkpt><trkpt lat="44.9544842" lon="8.0611017"><ele>173.0</ele><time>2026-04-12T13:28:50.672Z</time></trkpt><trkpt lat="44.9544339" lon="8.0611818"><ele>173.0</ele><time>2026-04-12T13:28:51.672Z</time></trkpt><trkpt lat="44.9543759" lon="8.0612504"><ele>173.0</ele><time>2026-04-12T13:28:52.671Z</time></trkpt><trkpt lat="44.9543155" lon="8.0612938"><ele>173.0</ele><time>2026-04-12T13:28:53.672Z</time></trkpt><trkpt lat="44.9542275" lon="8.0613188"><ele>173.0</ele><time>2026-04-12T13:28:54.672Z</time></trkpt><trkpt lat="44.9541441" lon="8.0613428"><ele>173.0</ele><time>2026-04-12T13:28:55.672Z</time></trkpt><trkpt lat="44.9540598" lon="8.0613789"><ele>173.2</ele><time>2026-04-12T13:28:56.672Z</time></trkpt><trkpt lat="44.9539704" lon="8.0614052"><ele>173.4</ele><time>2026-04-12T13:28:57.672Z</time></trkpt><trkpt lat="44.9538721" lon="8.06144"><ele>173.6</ele><time>2026-04-12T13:28:58.672Z</time></trkpt><trkpt lat="44.9537762" lon="8.0614707"><ele>173.79999999999998</ele><time>2026-04-12T13:28:59.672Z</time></trkpt><trkpt lat="44.953669" lon="8.0615059"><ele>174.0</ele><time>2026-04-12T13:29:00.672Z</time></trkpt><trkpt lat="44.953574" lon="8.0615264"><ele>174.0</ele><time>2026-04-12T13:29:01.672Z</time></trkpt><trkpt lat="44.9534867" lon="8.0615351"><ele>174.0</ele><time>2026-04-12T13:29:02.672Z</time></trkpt><trkpt lat="44.9534034" lon="8.0615305"><ele>174.0</ele><time>2026-04-12T13:29:03.672Z</time></trkpt><trkpt lat="44.9533303" lon="8.0615289"><ele>174.0</ele><time>2026-04-12T13:29:04.672Z</time></trkpt><trkpt lat="44.9532634" lon="8.0615267"><ele>174.0</ele><time>2026-04-12T13:29:05.672Z</time></trkpt><trkpt lat="44.9531415" lon="8.0615373"><ele>174.0</ele><time>2026-04-12T13:29:07.672Z</time></trkpt><trkpt lat="44.9530682" lon="8.0615482"><ele>174.14285714285714</ele><time>2026-04-12T13:29:08.671Z</time></trkpt><trkpt lat="44.9529966" lon="8.0615594"><ele>174.28571428571428</ele><time>2026-04-12T13:29:09.672Z</time></trkpt><trkpt lat="44.9529259" lon="8.0615607"><ele>174.42857142857144</ele><time>2026-04-12T13:29:10.672Z</time></trkpt><trkpt lat="44.9528564" lon="8.0615652"><ele>174.57142857142856</ele><time>2026-04-12T13:29:11.671Z</time></trkpt><trkpt lat="44.9527811" lon="8.0615757"><ele>174.71428571428572</ele><time>2026-04-12T13:29:12.671Z</time></trkpt><trkpt lat="44.952707" lon="8.0615775"><ele>174.85714285714286</ele><time>2026-04-12T13:29:13.672Z</time></trkpt><trkpt lat="44.9526266" lon="8.0615902"><ele>175.0</ele><time>2026-04-12T13:29:14.672Z</time></trkpt><trkpt lat="44.9525513" lon="8.0615971"><ele>174.83333333333334</ele><time>2026-04-12T13:29:15.672Z</time></trkpt><trkpt lat="44.9524761" lon="8.0615994"><ele>174.66666666666669</ele><time>2026-04-12T13:29:16.672Z</time></trkpt><trkpt lat="44.952403" lon="8.0615901"><ele>174.5</ele><time>2026-04-12T13:29:17.672Z</time></trkpt><trkpt lat="44.9523252" lon="8.0615865"><ele>174.33333333333334</ele><time>2026-04-12T13:29:18.672Z</time></trkpt><trkpt lat="44.9522481" lon="8.0615855"><ele>174.16666666666666</ele><time>2026-04-12T13:29:19.671Z</time></trkpt><trkpt lat="44.9521707" lon="8.061582"><ele>174.0</ele><time>2026-04-12T13:29:20.672Z</time></trkpt><trkpt lat="44.9520892" lon="8.0615751"><ele>174.0</ele><time>2026-04-12T13:29:21.671Z</time></trkpt><trkpt lat="44.9520093" lon="8.0615689"><ele>174.0</ele><time>2026-04-12T13:29:22.672Z</time></trkpt><trkpt lat="44.9519288" lon="8.0615567"><ele>174.0</ele><time>2026-04-12T13:29:23.672Z</time></trkpt><trkpt lat="44.9518362" lon="8.0615395"><ele>174.0</ele><time>2026-04-12T13:29:24.672Z</time></trkpt><trkpt lat="44.9517598" lon="8.0615266"><ele>174.0</ele><time>2026-04-12T13:29:25.672Z</time></trkpt><trkpt lat="44.9516843" lon="8.0615006"><ele>174.0</ele><time>2026-04-12T13:29:26.672Z</time></trkpt><trkpt lat="44.9516092" lon="8.0614675"><ele>174.0</ele><time>2026-04-12T13:29:27.672Z</time></trkpt><trkpt lat="44.9515369" lon="8.0614225"><ele>174.0</ele><time>2026-04-12T13:29:28.672Z</time></trkpt><trkpt lat="44.9514579" lon="8.0613774"><ele>174.0</ele><time>2026-04-12T13:29:29.672Z</time></trkpt><trkpt lat="44.9513855" lon="8.0613285"><ele>174.0</ele><time>2026-04-12T13:29:30.672Z</time></trkpt><trkpt lat="44.9513041" lon="8.0612895"><ele>174.0</ele><time>2026-04-12T13:29:31.672Z</time></trkpt><trkpt lat="44.9512219" lon="8.0612502"><ele>174.0</ele><time>2026-04-12T13:29:32.672Z</time></trkpt><trkpt lat="44.9511465" lon="8.0612086"><ele>174.0</ele><time>2026-04-12T13:29:33.672Z</time></trkpt><trkpt lat="44.9510578" lon="8.0611959"><ele>174.0</ele><time>2026-04-12T13:29:34.671Z</time></trkpt><trkpt lat="44.9509872" lon="8.0611619"><ele>174.0</ele><time>2026-04-12T13:29:35.671Z</time></trkpt><trkpt lat="44.9509131" lon="8.0611299"><ele>174.0</ele><time>2026-04-12T13:29:36.672Z</time></trkpt><trkpt lat="44.9508421" lon="8.0610952"><ele>174.0</ele><time>2026-04-12T13:29:37.672Z</time></trkpt><trkpt lat="44.9507638" lon="8.0610639"><ele>174.0</ele><time>2026-04-12T13:29:38.672Z</time></trkpt><trkpt lat="44.950691" lon="8.06104"><ele>174.16666666666666</ele><time>2026-04-12T13:29:39.672Z</time></trkpt><trkpt lat="44.9506179" lon="8.0610153"><ele>174.33333333333334</ele><time>2026-04-12T13:29:40.672Z</time></trkpt><trkpt lat="44.9505403" lon="8.0610104"><ele>174.5</ele><time>2026-04-12T13:29:41.672Z</time></trkpt><trkpt lat="44.9504599" lon="8.0610201"><ele>174.66666666666669</ele><time>2026-04-12T13:29:42.672Z</time></trkpt><trkpt lat="44.9503824" lon="8.0610498"><ele>174.83333333333334</ele><time>2026-04-12T13:29:43.672Z</time></trkpt><trkpt lat="44.9503053" lon="8.06109"><ele>175.0</ele><time>2026-04-12T13:29:44.672Z</time></trkpt><trkpt lat="44.9502365" lon="8.0611213"><ele>175.0</ele><time>2026-04-12T13:29:45.672Z</time></trkpt><trkpt lat="44.9501604" lon="8.0611598"><ele>175.0</ele><time>2026-04-12T13:29:46.671Z</time></trkpt><trkpt lat="44.9500912" lon="8.0612117"><ele>175.0</ele><time>2026-04-12T13:29:47.672Z</time></trkpt><trkpt lat="44.9500258" lon="8.06127"><ele>175.0</ele><time>2026-04-12T13:29:48.672Z</time></trkpt><trkpt lat="44.9499685" lon="8.0613357"><ele>175.0</ele><time>2026-04-12T13:29:49.672Z</time></trkpt><trkpt lat="44.9498558" lon="8.0614369"><ele>175.0</ele><time>2026-04-12T13:29:51.672Z</time></trkpt><trkpt lat="44.9497964" lon="8.0614776"><ele>175.33333333333334</ele><time>2026-04-12T13:29:52.672Z</time></trkpt><trkpt lat="44.9497201" lon="8.0614991"><ele>175.66666666666669</ele><time>2026-04-12T13:29:53.672Z</time></trkpt><trkpt lat="44.9496419" lon="8.0614807"><ele>176.0</ele><time>2026-04-12T13:29:54.672Z</time></trkpt><trkpt lat="44.9495568" lon="8.0614587"><ele>176.33333333333334</ele><time>2026-04-12T13:29:55.672Z</time></trkpt><trkpt lat="44.9494731" lon="8.0614445"><ele>176.66666666666666</ele><time>2026-04-12T13:29:56.672Z</time></trkpt><trkpt lat="44.9493691" lon="8.0614242"><ele>177.0</ele><time>2026-04-12T13:29:57.672Z</time></trkpt><trkpt lat="44.9492848" lon="8.0614148"><ele>176.33333333333334</ele><time>2026-04-12T13:29:58.672Z</time></trkpt><trkpt lat="44.9492" lon="8.0614026"><ele>175.66666666666666</ele><time>2026-04-12T13:29:59.672Z</time></trkpt><trkpt lat="44.949121" lon="8.0613966"><ele>175.0</ele><time>2026-04-12T13:30:00.672Z</time></trkpt><trkpt lat="44.9490431" lon="8.0613932"><ele>174.33333333333331</ele><time>2026-04-12T13:30:01.672Z</time></trkpt><trkpt lat="44.94896" lon="8.061388"><ele>173.66666666666666</ele><time>2026-04-12T13:30:02.672Z</time></trkpt><trkpt lat="44.94887" lon="8.0613869"><ele>173.0</ele><time>2026-04-12T13:30:03.671Z</time></trkpt><trkpt lat="44.9487648" lon="8.0613772"><ele>173.0</ele><time>2026-04-12T13:30:04.671Z</time></trkpt><trkpt lat="44.9486584" lon="8.0613735"><ele>173.0</ele><time>2026-04-12T13:30:05.672Z</time></trkpt><trkpt lat="44.9485531" lon="8.061366"><ele>173.0</ele><time>2026-04-12T13:30:06.672Z</time></trkpt><trkpt lat="44.9484544" lon="8.0613768"><ele>173.0</ele><time>2026-04-12T13:30:07.672Z</time></trkpt><trkpt lat="44.9483553" lon="8.0613899"><ele>173.0</ele><time>2026-04-12T13:30:08.672Z</time></trkpt><trkpt lat="44.9482638" lon="8.0614164"><ele>173.5</ele><time>2026-04-12T13:30:09.672Z</time></trkpt><trkpt lat="44.9481792" lon="8.0614422"><ele>174.0</ele><time>2026-04-12T13:30:10.672Z</time></trkpt><trkpt lat="44.948097" lon="8.0614843"><ele>174.5</ele><time>2026-04-12T13:30:11.672Z</time></trkpt><trkpt lat="44.9480166" lon="8.0615139"><ele>175.0</ele><time>2026-04-12T13:30:12.672Z</time></trkpt><trkpt lat="44.9479353" lon="8.0615407"><ele>175.5</ele><time>2026-04-12T13:30:13.672Z</time></trkpt><trkpt lat="44.9478492" lon="8.0615584"><ele>176.0</ele><time>2026-04-12T13:30:14.672Z</time></trkpt><trkpt lat="44.9477621" lon="8.0615665"><ele>176.0</ele><time>2026-04-12T13:30:15.672Z</time></trkpt><trkpt lat="44.9476794" lon="8.061561"><ele>176.0</ele><time>2026-04-12T13:30:16.672Z</time></trkpt><trkpt lat="44.9475875" lon="8.0615464"><ele>176.0</ele><time>2026-04-12T13:30:17.672Z</time></trkpt><trkpt lat="44.9474951" lon="8.0615324"><ele>176.0</ele><time>2026-04-12T13:30:18.672Z</time></trkpt><trkpt lat="44.9474071" lon="8.0615209"><ele>176.0</ele><time>2026-04-12T13:30:19.671Z</time></trkpt><trkpt lat="44.9473187" lon="8.0615126"><ele>176.0</ele><time>2026-04-12T13:30:20.672Z</time></trkpt><trkpt lat="44.9472235" lon="8.0614865"><ele>175.16666666666666</ele><time>2026-04-12T13:30:21.672Z</time></trkpt><trkpt lat="44.947149" lon="8.0614602"><ele>174.33333333333331</ele><time>2026-04-12T13:30:22.672Z</time></trkpt><trkpt lat="44.9470799" lon="8.0614145"><ele>173.5</ele><time>2026-04-12T13:30:23.672Z</time></trkpt><trkpt lat="44.9470164" lon="8.061361"><ele>172.66666666666666</ele><time>2026-04-12T13:30:24.672Z</time></trkpt><trkpt lat="44.9469492" lon="8.0612889"><ele>171.83333333333334</ele><time>2026-04-12T13:30:25.672Z</time></trkpt><trkpt lat="44.9468943" lon="8.0612152"><ele>171.0</ele><time>2026-04-12T13:30:26.672Z</time></trkpt><trkpt lat="44.9468439" lon="8.0611382"><ele>171.0</ele><time>2026-04-12T13:30:27.672Z</time></trkpt><trkpt lat="44.9467832" lon="8.0610709"><ele>171.0</ele><time>2026-04-12T13:30:28.672Z</time></trkpt><trkpt lat="44.9467226" lon="8.0610019"><ele>171.0</ele><time>2026-04-12T13:30:29.672Z</time></trkpt><trkpt lat="44.9466651" lon="8.060934"><ele>171.0</ele><time>2026-04-12T13:30:30.672Z</time></trkpt><trkpt lat="44.9466021" lon="8.0608609"><ele>171.0</ele><time>2026-04-12T13:30:31.672Z</time></trkpt><trkpt lat="44.9465441" lon="8.060792"><ele>171.0</ele><time>2026-04-12T13:30:32.672Z</time></trkpt><trkpt lat="44.9464691" lon="8.0607199"><ele>171.0</ele><time>2026-04-12T13:30:33.672Z</time></trkpt><trkpt lat="44.9463956" lon="8.0606471"><ele>171.0</ele><time>2026-04-12T13:30:34.672Z</time></trkpt><trkpt lat="44.9463237" lon="8.0605762"><ele>171.0</ele><time>2026-04-12T13:30:35.672Z</time></trkpt><trkpt lat="44.9462479" lon="8.0605007"><ele>171.0</ele><time>2026-04-12T13:30:36.672Z</time></trkpt><trkpt lat="44.9461789" lon="8.0604323"><ele>171.0</ele><time>2026-04-12T13:30:37.672Z</time></trkpt><trkpt lat="44.9461004" lon="8.0603642"><ele>171.0</ele><time>2026-04-12T13:30:38.672Z</time></trkpt><trkpt lat="44.9460284" lon="8.0602904"><ele>171.0</ele><time>2026-04-12T13:30:39.672Z</time></trkpt><trkpt lat="44.9459577" lon="8.060214"><ele>171.0</ele><time>2026-04-12T13:30:40.672Z</time></trkpt><trkpt lat="44.945886" lon="8.0601387"><ele>171.0</ele><time>2026-04-12T13:30:41.672Z</time></trkpt><trkpt lat="44.9458082" lon="8.0600686"><ele>171.0</ele><time>2026-04-12T13:30:42.672Z</time></trkpt><trkpt lat="44.9457316" lon="8.060005"><ele>171.0</ele><time>2026-04-12T13:30:43.672Z</time></trkpt><trkpt lat="44.9456487" lon="8.0599485"><ele>171.60000000000002</ele><time>2026-04-12T13:30:44.672Z</time></trkpt><trkpt lat="44.9455583" lon="8.0599114"><ele>172.2</ele><time>2026-04-12T13:30:45.672Z</time></trkpt><trkpt lat="44.9454662" lon="8.0598846"><ele>172.8</ele><time>2026-04-12T13:30:46.672Z</time></trkpt><trkpt lat="44.9453721" lon="8.0598732"><ele>173.39999999999998</ele><time>2026-04-12T13:30:47.672Z</time></trkpt><trkpt lat="44.9452785" lon="8.0598678"><ele>174.0</ele><time>2026-04-12T13:30:48.672Z</time></trkpt><trkpt lat="44.9451898" lon="8.0598782"><ele>174.0</ele><time>2026-04-12T13:30:49.672Z</time></trkpt><trkpt lat="44.9450818" lon="8.0599164"><ele>174.0</ele><time>2026-04-12T13:30:50.672Z</time></trkpt><trkpt lat="44.9449917" lon="8.0599392"><ele>174.0</ele><time>2026-04-12T13:30:51.672Z</time></trkpt><trkpt lat="44.9448906" lon="8.0599728"><ele>174.0</ele><time>2026-04-12T13:30:52.672Z</time></trkpt><trkpt lat="44.9447875" lon="8.0600067"><ele>174.0</ele><time>2026-04-12T13:30:53.672Z</time></trkpt><trkpt lat="44.9446843" lon="8.0600385"><ele>173.79999999999998</ele><time>2026-04-12T13:30:54.672Z</time></trkpt><trkpt lat="44.9445767" lon="8.060083"><ele>173.6</ele><time>2026-04-12T13:30:55.672Z</time></trkpt><trkpt lat="44.9444688" lon="8.0601238"><ele>173.4</ele><time>2026-04-12T13:30:56.671Z</time></trkpt><trkpt lat="44.9443697" lon="8.0601729"><ele>173.2</ele><time>2026-04-12T13:30:57.672Z</time></trkpt><trkpt lat="44.9442765" lon="8.0602184"><ele>173.0</ele><time>2026-04-12T13:30:58.672Z</time></trkpt><trkpt lat="44.9441761" lon="8.0602614"><ele>172.60000000000002</ele><time>2026-04-12T13:30:59.672Z</time></trkpt><trkpt lat="44.9440843" lon="8.0603034"><ele>172.20000000000002</ele><time>2026-04-12T13:31:00.672Z</time></trkpt><trkpt lat="44.9440014" lon="8.0603496"><ele>171.8</ele><time>2026-04-12T13:31:01.672Z</time></trkpt><trkpt lat="44.9439124" lon="8.0603873"><ele>171.4</ele><time>2026-04-12T13:31:02.672Z</time></trkpt><trkpt lat="44.9438176" lon="8.0604166"><ele>171.0</ele><time>2026-04-12T13:31:03.672Z</time></trkpt><trkpt lat="44.9437157" lon="8.0604413"><ele>171.0</ele><time>2026-04-12T13:31:04.672Z</time></trkpt><trkpt lat="44.943626" lon="8.0604625"><ele>171.0</ele><time>2026-04-12T13:31:05.672Z</time></trkpt><trkpt lat="44.9435279" lon="8.0604877"><ele>171.0</ele><time>2026-04-12T13:31:06.672Z</time></trkpt><trkpt lat="44.9434385" lon="8.0605058"><ele>171.0</ele><time>2026-04-12T13:31:07.672Z</time></trkpt><trkpt lat="44.9433385" lon="8.0605255"><ele>171.0</ele><time>2026-04-12T13:31:08.672Z</time></trkpt><trkpt lat="44.9432359" lon="8.0605332"><ele>170.4</ele><time>2026-04-12T13:31:09.672Z</time></trkpt><trkpt lat="44.9431332" lon="8.0605457"><ele>169.8</ele><time>2026-04-12T13:31:10.672Z</time></trkpt><trkpt lat="44.9430347" lon="8.0605534"><ele>169.20000000000002</ele><time>2026-04-12T13:31:11.672Z</time></trkpt><trkpt lat="44.942936" lon="8.0605635"><ele>168.60000000000002</ele><time>2026-04-12T13:31:12.672Z</time></trkpt><trkpt lat="44.9428393" lon="8.0605527"><ele>168.0</ele><time>2026-04-12T13:31:13.672Z</time></trkpt><trkpt lat="44.9427383" lon="8.0605343"><ele>168.0</ele><time>2026-04-12T13:31:14.672Z</time></trkpt><trkpt lat="44.9426365" lon="8.0605232"><ele>168.0</ele><time>2026-04-12T13:31:15.672Z</time></trkpt><trkpt lat="44.9425213" lon="8.0605121"><ele>168.0</ele><time>2026-04-12T13:31:16.672Z</time></trkpt><trkpt lat="44.9424107" lon="8.0604995"><ele>168.0</ele><time>2026-04-12T13:31:17.672Z</time></trkpt><trkpt lat="44.9422986" lon="8.0604818"><ele>168.0</ele><time>2026-04-12T13:31:18.672Z</time></trkpt><trkpt lat="44.942183" lon="8.0604592"><ele>168.5</ele><time>2026-04-12T13:31:19.672Z</time></trkpt><trkpt lat="44.9420677" lon="8.0604437"><ele>169.0</ele><time>2026-04-12T13:31:20.672Z</time></trkpt><trkpt lat="44.9419527" lon="8.0604153"><ele>169.5</ele><time>2026-04-12T13:31:21.672Z</time></trkpt><trkpt lat="44.9418405" lon="8.0603959"><ele>170.0</ele><time>2026-04-12T13:31:22.672Z</time></trkpt><trkpt lat="44.9417218" lon="8.0603741"><ele>169.6</ele><time>2026-04-12T13:31:23.672Z</time></trkpt><trkpt lat="44.9416099" lon="8.0603596"><ele>169.2</ele><time>2026-04-12T13:31:24.672Z</time></trkpt><trkpt lat="44.9414988" lon="8.0603436"><ele>168.8</ele><time>2026-04-12T13:31:25.672Z</time></trkpt><trkpt lat="44.9413896" lon="8.0603339"><ele>168.4</ele><time>2026-04-12T13:31:26.672Z</time></trkpt><trkpt lat="44.9412788" lon="8.0603238"><ele>168.0</ele><time>2026-04-12T13:31:27.672Z</time></trkpt><trkpt lat="44.9411727" lon="8.0603217"><ele>168.0</ele><time>2026-04-12T13:31:28.672Z</time></trkpt><trkpt lat="44.9410625" lon="8.0603301"><ele>168.0</ele><time>2026-04-12T13:31:29.672Z</time></trkpt><trkpt lat="44.9409637" lon="8.0603427"><ele>168.0</ele><time>2026-04-12T13:31:30.672Z</time></trkpt><trkpt lat="44.9408458" lon="8.0603745"><ele>168.0</ele><time>2026-04-12T13:31:31.672Z</time></trkpt><trkpt lat="44.9407328" lon="8.0604077"><ele>168.0</ele><time>2026-04-12T13:31:32.671Z</time></trkpt><trkpt lat="44.9406249" lon="8.0604375"><ele>167.5</ele><time>2026-04-12T13:31:33.672Z</time></trkpt><trkpt lat="44.9405155" lon="8.0604783"><ele>167.0</ele><time>2026-04-12T13:31:34.672Z</time></trkpt><trkpt lat="44.9404045" lon="8.0605298"><ele>166.5</ele><time>2026-04-12T13:31:35.672Z</time></trkpt><trkpt lat="44.9402921" lon="8.0605766"><ele>166.0</ele><time>2026-04-12T13:31:36.672Z</time></trkpt><trkpt lat="44.9401872" lon="8.060617"><ele>166.0</ele><time>2026-04-12T13:31:37.672Z</time></trkpt><trkpt lat="44.9400888" lon="8.0606601"><ele>166.0</ele><time>2026-04-12T13:31:38.672Z</time></trkpt><trkpt lat="44.9399768" lon="8.0607125"><ele>166.0</ele><time>2026-04-12T13:31:39.672Z</time></trkpt><trkpt lat="44.9398695" lon="8.0607759"><ele>166.0</ele><time>2026-04-12T13:31:40.672Z</time></trkpt><trkpt lat="44.9397638" lon="8.060844"><ele>166.4</ele><time>2026-04-12T13:31:41.672Z</time></trkpt><trkpt lat="44.9396616" lon="8.0609128"><ele>166.8</ele><time>2026-04-12T13:31:42.672Z</time></trkpt><trkpt lat="44.939574" lon="8.0609889"><ele>167.20000000000002</ele><time>2026-04-12T13:31:43.672Z</time></trkpt><trkpt lat="44.9394734" lon="8.0610621"><ele>167.60000000000002</ele><time>2026-04-12T13:31:44.672Z</time></trkpt><trkpt lat="44.9393747" lon="8.0611323"><ele>168.0</ele><time>2026-04-12T13:31:45.672Z</time></trkpt><trkpt lat="44.939276" lon="8.0612019"><ele>168.75</ele><time>2026-04-12T13:31:46.672Z</time></trkpt><trkpt lat="44.939178" lon="8.0612766"><ele>169.5</ele><time>2026-04-12T13:31:47.672Z</time></trkpt><trkpt lat="44.9390789" lon="8.0613413"><ele>170.25</ele><time>2026-04-12T13:31:48.672Z</time></trkpt><trkpt lat="44.938973" lon="8.0614032"><ele>171.0</ele><time>2026-04-12T13:31:49.672Z</time></trkpt><trkpt lat="44.9388627" lon="8.0614562"><ele>171.0</ele><time>2026-04-12T13:31:50.672Z</time></trkpt><trkpt lat="44.9387548" lon="8.0615016"><ele>171.0</ele><time>2026-04-12T13:31:51.672Z</time></trkpt><trkpt lat="44.9386472" lon="8.0615409"><ele>171.0</ele><time>2026-04-12T13:31:52.672Z</time></trkpt><trkpt lat="44.9385277" lon="8.061581"><ele>171.0</ele><time>2026-04-12T13:31:53.672Z</time></trkpt><trkpt lat="44.9384129" lon="8.0616155"><ele>169.5</ele><time>2026-04-12T13:31:54.672Z</time></trkpt><trkpt lat="44.9383009" lon="8.0616604"><ele>168.0</ele><time>2026-04-12T13:31:55.672Z</time></trkpt><trkpt lat="44.9381917" lon="8.0617034"><ele>166.5</ele><time>2026-04-12T13:31:56.672Z</time></trkpt><trkpt lat="44.9380788" lon="8.0617453"><ele>165.0</ele><time>2026-04-12T13:31:57.672Z</time></trkpt><trkpt lat="44.9379695" lon="8.0617851"><ele>165.0</ele><time>2026-04-12T13:31:58.672Z</time></trkpt><trkpt lat="44.9378575" lon="8.0618273"><ele>165.0</ele><time>2026-04-12T13:31:59.672Z</time></trkpt><trkpt lat="44.937745" lon="8.0618674"><ele>165.0</ele><time>2026-04-12T13:32:00.672Z</time></trkpt><trkpt lat="44.9376407" lon="8.0619074"><ele>165.0</ele><time>2026-04-12T13:32:01.671Z</time></trkpt><trkpt lat="44.9375314" lon="8.0619541"><ele>165.75</ele><time>2026-04-12T13:32:02.672Z</time></trkpt><trkpt lat="44.9374197" lon="8.0619995"><ele>166.5</ele><time>2026-04-12T13:32:03.671Z</time></trkpt><trkpt lat="44.9373089" lon="8.0620398"><ele>167.25</ele><time>2026-04-12T13:32:04.672Z</time></trkpt><trkpt lat="44.9371939" lon="8.0620727"><ele>168.0</ele><time>2026-04-12T13:32:05.672Z</time></trkpt><trkpt lat="44.9370816" lon="8.0621079"><ele>168.0</ele><time>2026-04-12T13:32:06.672Z</time></trkpt><trkpt lat="44.9369606" lon="8.0621247"><ele>168.0</ele><time>2026-04-12T13:32:07.672Z</time></trkpt><trkpt lat="44.9368444" lon="8.0621506"><ele>168.0</ele><time>2026-04-12T13:32:08.672Z</time></trkpt><trkpt lat="44.9367338" lon="8.0621778"><ele>168.0</ele><time>2026-04-12T13:32:09.672Z</time></trkpt><trkpt lat="44.9366137" lon="8.0622067"><ele>168.5</ele><time>2026-04-12T13:32:10.672Z</time></trkpt><trkpt lat="44.9365003" lon="8.0622388"><ele>169.0</ele><time>2026-04-12T13:32:11.671Z</time></trkpt><trkpt lat="44.9363919" lon="8.0622696"><ele>169.5</ele><time>2026-04-12T13:32:12.672Z</time></trkpt><trkpt lat="44.9362822" lon="8.0623002"><ele>170.0</ele><time>2026-04-12T13:32:13.672Z</time></trkpt><trkpt lat="44.9361725" lon="8.062329"><ele>170.0</ele><time>2026-04-12T13:32:14.672Z</time></trkpt><trkpt lat="44.9360635" lon="8.0623369"><ele>170.0</ele><time>2026-04-12T13:32:15.672Z</time></trkpt><trkpt lat="44.9359502" lon="8.0623429"><ele>170.0</ele><time>2026-04-12T13:32:16.672Z</time></trkpt><trkpt lat="44.9358428" lon="8.0623385"><ele>170.0</ele><time>2026-04-12T13:32:17.672Z</time></trkpt><trkpt lat="44.9357305" lon="8.0623365"><ele>170.0</ele><time>2026-04-12T13:32:18.672Z</time></trkpt><trkpt lat="44.9356154" lon="8.0623368"><ele>169.4</ele><time>2026-04-12T13:32:19.672Z</time></trkpt><trkpt lat="44.9355014" lon="8.0623314"><ele>168.8</ele><time>2026-04-12T13:32:20.671Z</time></trkpt><trkpt lat="44.9353929" lon="8.0623201"><ele>168.2</ele><time>2026-04-12T13:32:21.671Z</time></trkpt><trkpt lat="44.9352882" lon="8.0623114"><ele>167.6</ele><time>2026-04-12T13:32:22.672Z</time></trkpt><trkpt lat="44.9351838" lon="8.0623122"><ele>167.0</ele><time>2026-04-12T13:32:23.672Z</time></trkpt><trkpt lat="44.9350909" lon="8.0623142"><ele>166.33333333333331</ele><time>2026-04-12T13:32:24.672Z</time></trkpt><trkpt lat="44.9350016" lon="8.0623117"><ele>165.66666666666666</ele><time>2026-04-12T13:32:25.672Z</time></trkpt><trkpt lat="44.934918" lon="8.0623131"><ele>165.0</ele><time>2026-04-12T13:32:26.672Z</time></trkpt><trkpt lat="44.9348411" lon="8.062312"><ele>164.33333333333334</ele><time>2026-04-12T13:32:27.671Z</time></trkpt><trkpt lat="44.9347696" lon="8.0623091"><ele>163.66666666666669</ele><time>2026-04-12T13:32:28.672Z</time></trkpt><trkpt lat="44.9347022" lon="8.0623224"><ele>163.0</ele><time>2026-04-12T13:32:29.672Z</time></trkpt><trkpt lat="44.9346105" lon="8.0623146"><ele>163.0</ele><time>2026-04-12T13:32:31.672Z</time></trkpt><trkpt lat="44.9345569" lon="8.0622242"><ele>163.0</ele><time>2026-04-12T13:32:33.672Z</time></trkpt><trkpt lat="44.9345474" lon="8.062046"><ele>163.0</ele><time>2026-04-12T13:32:35.672Z</time></trkpt><trkpt lat="44.934552" lon="8.0619301"><ele>163.0</ele><time>2026-04-12T13:32:36.672Z</time></trkpt><trkpt lat="44.9345627" lon="8.0618039"><ele>163.0</ele><time>2026-04-12T13:32:37.671Z</time></trkpt><trkpt lat="44.9345873" lon="8.0616575"><ele>163.25</ele><time>2026-04-12T13:32:38.672Z</time></trkpt><trkpt lat="44.9346167" lon="8.0615256"><ele>163.5</ele><time>2026-04-12T13:32:39.672Z</time></trkpt><trkpt lat="44.9346579" lon="8.0613424"><ele>163.75</ele><time>2026-04-12T13:32:40.672Z</time></trkpt><trkpt lat="44.934711" lon="8.0611768"><ele>164.0</ele><time>2026-04-12T13:32:41.672Z</time></trkpt><trkpt lat="44.9347615" lon="8.0610115"><ele>164.0</ele><time>2026-04-12T13:32:42.672Z</time></trkpt><trkpt lat="44.9348106" lon="8.0608221"><ele>164.0</ele><time>2026-04-12T13:32:43.672Z</time></trkpt><trkpt lat="44.9348583" lon="8.0606351"><ele>164.0</ele><time>2026-04-12T13:32:44.672Z</time></trkpt><trkpt lat="44.9349102" lon="8.0604477"><ele>164.0</ele><time>2026-04-12T13:32:45.672Z</time></trkpt><trkpt lat="44.9349622" lon="8.0602597"><ele>164.25</ele><time>2026-04-12T13:32:46.672Z</time></trkpt><trkpt lat="44.9350191" lon="8.0600731"><ele>164.5</ele><time>2026-04-12T13:32:47.672Z</time></trkpt><trkpt lat="44.9350729" lon="8.0598678"><ele>164.75</ele><time>2026-04-12T13:32:48.672Z</time></trkpt><trkpt lat="44.9351281" lon="8.0596716"><ele>165.0</ele><time>2026-04-12T13:32:49.672Z</time></trkpt><trkpt lat="44.9351756" lon="8.0594741"><ele>165.66666666666666</ele><time>2026-04-12T13:32:50.672Z</time></trkpt><trkpt lat="44.9352131" lon="8.05926"><ele>166.33333333333331</ele><time>2026-04-12T13:32:51.672Z</time></trkpt><trkpt lat="44.9352503" lon="8.0590459"><ele>167.0</ele><time>2026-04-12T13:32:52.672Z</time></trkpt><trkpt lat="44.9352866" lon="8.0588337"><ele>167.33333333333331</ele><time>2026-04-12T13:32:53.672Z</time></trkpt><trkpt lat="44.9353316" lon="8.0586158"><ele>167.66666666666666</ele><time>2026-04-12T13:32:54.672Z</time></trkpt><trkpt lat="44.9353757" lon="8.0583866"><ele>168.0</ele><time>2026-04-12T13:32:55.671Z</time></trkpt><trkpt lat="44.9354115" lon="8.0581716"><ele>168.0</ele><time>2026-04-12T13:32:56.672Z</time></trkpt><trkpt lat="44.9354501" lon="8.0579511"><ele>168.0</ele><time>2026-04-12T13:32:57.672Z</time></trkpt><trkpt lat="44.9354988" lon="8.0577338"><ele>168.0</ele><time>2026-04-12T13:32:58.672Z</time></trkpt><trkpt lat="44.9355459" lon="8.0575166"><ele>168.0</ele><time>2026-04-12T13:32:59.672Z</time></trkpt><trkpt lat="44.9355904" lon="8.0573"><ele>168.0</ele><time>2026-04-12T13:33:00.672Z</time></trkpt><trkpt lat="44.9356322" lon="8.0570859"><ele>168.0</ele><time>2026-04-12T13:33:01.672Z</time></trkpt><trkpt lat="44.9356792" lon="8.0568727"><ele>168.0</ele><time>2026-04-12T13:33:02.672Z</time></trkpt><trkpt lat="44.9357184" lon="8.0566605"><ele>168.0</ele><time>2026-04-12T13:33:03.672Z</time></trkpt><trkpt lat="44.9357604" lon="8.0564434"><ele>168.0</ele><time>2026-04-12T13:33:04.672Z</time></trkpt><trkpt lat="44.9357987" lon="8.0562215"><ele>168.0</ele><time>2026-04-12T13:33:05.672Z</time></trkpt><trkpt lat="44.9358392" lon="8.0560119"><ele>168.0</ele><time>2026-04-12T13:33:06.672Z</time></trkpt><trkpt lat="44.9358923" lon="8.055808"><ele>168.0</ele><time>2026-04-12T13:33:07.672Z</time></trkpt><trkpt lat="44.9359483" lon="8.0556106"><ele>168.0</ele><time>2026-04-12T13:33:08.672Z</time></trkpt><trkpt lat="44.9360072" lon="8.0554231"><ele>168.0</ele><time>2026-04-12T13:33:09.672Z</time></trkpt><trkpt lat="44.9360576" lon="8.0552506"><ele>168.0</ele><time>2026-04-12T13:33:10.672Z</time></trkpt><trkpt lat="44.9361105" lon="8.0550842"><ele>168.0</ele><time>2026-04-12T13:33:11.672Z</time></trkpt><trkpt lat="44.9361473" lon="8.0549151"><ele>168.0</ele><time>2026-04-12T13:33:12.672Z</time></trkpt><trkpt lat="44.936178" lon="8.0547621"><ele>168.0</ele><time>2026-04-12T13:33:13.672Z</time></trkpt><trkpt lat="44.9362058" lon="8.0546098"><ele>168.0</ele><time>2026-04-12T13:33:14.672Z</time></trkpt><trkpt lat="44.9362428" lon="8.0544954"><ele>168.0</ele><time>2026-04-12T13:33:15.672Z</time></trkpt><trkpt lat="44.9362947" lon="8.0544036"><ele>168.0</ele><time>2026-04-12T13:33:16.672Z</time></trkpt><trkpt lat="44.9363661" lon="8.0543442"><ele>168.0</ele><time>2026-04-12T13:33:17.672Z</time></trkpt><trkpt lat="44.9364532" lon="8.0543341"><ele>168.0</ele><time>2026-04-12T13:33:18.672Z</time></trkpt><trkpt lat="44.9365544" lon="8.054367"><ele>168.0</ele><time>2026-04-12T13:33:19.672Z</time></trkpt><trkpt lat="44.936663" lon="8.0543932"><ele>168.0</ele><time>2026-04-12T13:33:20.672Z</time></trkpt><trkpt lat="44.9367759" lon="8.0544116"><ele>168.0</ele><time>2026-04-12T13:33:21.672Z</time></trkpt><trkpt lat="44.9368636" lon="8.0544053"><ele>169.4</ele><time>2026-04-12T13:33:22.671Z</time></trkpt><trkpt lat="44.9369543" lon="8.0543717"><ele>170.8</ele><time>2026-04-12T13:33:23.672Z</time></trkpt><trkpt lat="44.9370275" lon="8.0543019"><ele>172.2</ele><time>2026-04-12T13:33:24.672Z</time></trkpt><trkpt lat="44.9370915" lon="8.0542029"><ele>173.6</ele><time>2026-04-12T13:33:25.672Z</time></trkpt><trkpt lat="44.9371375" lon="8.0540567"><ele>175.0</ele><time>2026-04-12T13:33:26.672Z</time></trkpt><trkpt lat="44.9371793" lon="8.0538942"><ele>175.0</ele><time>2026-04-12T13:33:27.672Z</time></trkpt><trkpt lat="44.9372178" lon="8.0537305"><ele>175.0</ele><time>2026-04-12T13:33:28.672Z</time></trkpt><trkpt lat="44.9372509" lon="8.0535542"><ele>175.0</ele><time>2026-04-12T13:33:29.672Z</time></trkpt><trkpt lat="44.9372792" lon="8.0533768"><ele>175.0</ele><time>2026-04-12T13:33:30.672Z</time></trkpt><trkpt lat="44.9373187" lon="8.0531849"><ele>174.75</ele><time>2026-04-12T13:33:31.672Z</time></trkpt><trkpt lat="44.9373573" lon="8.0529862"><ele>174.5</ele><time>2026-04-12T13:33:32.672Z</time></trkpt><trkpt lat="44.9373881" lon="8.0527908"><ele>174.25</ele><time>2026-04-12T13:33:33.672Z</time></trkpt><trkpt lat="44.9374246" lon="8.0526018"><ele>174.0</ele><time>2026-04-12T13:33:34.672Z</time></trkpt><trkpt lat="44.937457" lon="8.0524073"><ele>173.5</ele><time>2026-04-12T13:33:35.672Z</time></trkpt><trkpt lat="44.9374874" lon="8.0522078"><ele>173.0</ele><time>2026-04-12T13:33:36.672Z</time></trkpt><trkpt lat="44.9375251" lon="8.0520088"><ele>172.5</ele><time>2026-04-12T13:33:37.672Z</time></trkpt><trkpt lat="44.9375689" lon="8.0518085"><ele>172.0</ele><time>2026-04-12T13:33:38.672Z</time></trkpt><trkpt lat="44.9376136" lon="8.0516142"><ele>174.66666666666669</ele><time>2026-04-12T13:33:39.672Z</time></trkpt><trkpt lat="44.9376797" lon="8.0514212"><ele>177.33333333333334</ele><time>2026-04-12T13:33:40.672Z</time></trkpt><trkpt lat="44.9377527" lon="8.0512347"><ele>180.0</ele><time>2026-04-12T13:33:41.672Z</time></trkpt><trkpt lat="44.9378412" lon="8.0510524"><ele>180.0</ele><time>2026-04-12T13:33:42.672Z</time></trkpt><trkpt lat="44.9379426" lon="8.0508809"><ele>180.0</ele><time>2026-04-12T13:33:43.672Z</time></trkpt><trkpt lat="44.9380517" lon="8.0507029"><ele>180.0</ele><time>2026-04-12T13:33:44.672Z</time></trkpt><trkpt lat="44.9381595" lon="8.0505306"><ele>181.0</ele><time>2026-04-12T13:33:45.672Z</time></trkpt><trkpt lat="44.9382742" lon="8.0503487"><ele>182.0</ele><time>2026-04-12T13:33:46.672Z</time></trkpt><trkpt lat="44.9383937" lon="8.0501805"><ele>183.0</ele><time>2026-04-12T13:33:47.672Z</time></trkpt><trkpt lat="44.9385148" lon="8.0500077"><ele>181.0</ele><time>2026-04-12T13:33:48.672Z</time></trkpt><trkpt lat="44.9386321" lon="8.0498266"><ele>179.0</ele><time>2026-04-12T13:33:49.672Z</time></trkpt><trkpt lat="44.9387456" lon="8.0496578"><ele>177.0</ele><time>2026-04-12T13:33:50.672Z</time></trkpt><trkpt lat="44.938854" lon="8.0494728"><ele>177.0</ele><time>2026-04-12T13:33:51.672Z</time></trkpt><trkpt lat="44.9389605" lon="8.0492915"><ele>177.0</ele><time>2026-04-12T13:33:52.672Z</time></trkpt><trkpt lat="44.9390574" lon="8.0490884"><ele>177.0</ele><time>2026-04-12T13:33:53.672Z</time></trkpt><trkpt lat="44.9391624" lon="8.0488977"><ele>178.0</ele><time>2026-04-12T13:33:54.672Z</time></trkpt><trkpt lat="44.9392401" lon="8.048695"><ele>179.0</ele><time>2026-04-12T13:33:55.672Z</time></trkpt><trkpt lat="44.939336" lon="8.0484885"><ele>180.0</ele><time>2026-04-12T13:33:56.672Z</time></trkpt><trkpt lat="44.9394347" lon="8.0482829"><ele>180.0</ele><time>2026-04-12T13:33:57.672Z</time></trkpt><trkpt lat="44.9395253" lon="8.0480812"><ele>180.0</ele><time>2026-04-12T13:33:58.672Z</time></trkpt><trkpt lat="44.9396116" lon="8.047872"><ele>180.0</ele><time>2026-04-12T13:33:59.672Z</time></trkpt><trkpt lat="44.9397111" lon="8.0476602"><ele>179.0</ele><time>2026-04-12T13:34:00.672Z</time></trkpt><trkpt lat="44.9398036" lon="8.0474434"><ele>178.0</ele><time>2026-04-12T13:34:01.672Z</time></trkpt><trkpt lat="44.9398962" lon="8.0472333"><ele>177.0</ele><time>2026-04-12T13:34:02.672Z</time></trkpt><trkpt lat="44.9399821" lon="8.0470232"><ele>181.0</ele><time>2026-04-12T13:34:03.672Z</time></trkpt><trkpt lat="44.9400665" lon="8.0468219"><ele>185.0</ele><time>2026-04-12T13:34:04.672Z</time></trkpt><trkpt lat="44.9401546" lon="8.0466309"><ele>189.0</ele><time>2026-04-12T13:34:05.672Z</time></trkpt><trkpt lat="44.940231" lon="8.0464441"><ele>189.0</ele><time>2026-04-12T13:34:06.672Z</time></trkpt><trkpt lat="44.940315" lon="8.0462627"><ele>189.0</ele><time>2026-04-12T13:34:07.672Z</time></trkpt><trkpt lat="44.9403979" lon="8.0460912"><ele>189.0</ele><time>2026-04-12T13:34:08.672Z</time></trkpt><trkpt lat="44.9404729" lon="8.045908"><ele>185.66666666666666</ele><time>2026-04-12T13:34:09.672Z</time></trkpt><trkpt lat="44.9405531" lon="8.0457199"><ele>182.33333333333331</ele><time>2026-04-12T13:34:10.672Z</time></trkpt><trkpt lat="44.9406392" lon="8.0455522"><ele>179.0</ele><time>2026-04-12T13:34:11.672Z</time></trkpt><trkpt lat="44.9407328" lon="8.045382"><ele>179.0</ele><time>2026-04-12T13:34:12.672Z</time></trkpt><trkpt lat="44.9408281" lon="8.0452072"><ele>179.0</ele><time>2026-04-12T13:34:13.672Z</time></trkpt><trkpt lat="44.9409261" lon="8.0450344"><ele>179.0</ele><time>2026-04-12T13:34:14.672Z</time></trkpt><trkpt lat="44.9410263" lon="8.0448686"><ele>180.66666666666666</ele><time>2026-04-12T13:34:15.672Z</time></trkpt><trkpt lat="44.9411285" lon="8.0447077"><ele>182.33333333333334</ele><time>2026-04-12T13:34:16.671Z</time></trkpt><trkpt lat="44.94123" lon="8.0445493"><ele>184.0</ele><time>2026-04-12T13:34:17.672Z</time></trkpt><trkpt lat="44.9413375" lon="8.0443962"><ele>184.0</ele><time>2026-04-12T13:34:18.672Z</time></trkpt><trkpt lat="44.9414443" lon="8.0442396"><ele>184.0</ele><time>2026-04-12T13:34:19.672Z</time></trkpt><trkpt lat="44.9415644" lon="8.0440781"><ele>184.0</ele><time>2026-04-12T13:34:20.671Z</time></trkpt><trkpt lat="44.9416945" lon="8.0439381"><ele>182.33333333333334</ele><time>2026-04-12T13:34:21.672Z</time></trkpt><trkpt lat="44.9418265" lon="8.0438091"><ele>180.66666666666666</ele><time>2026-04-12T13:34:22.671Z</time></trkpt><trkpt lat="44.9419645" lon="8.0436881"><ele>179.0</ele><time>2026-04-12T13:34:23.672Z</time></trkpt><trkpt lat="44.9421065" lon="8.0435631"><ele>179.0</ele><time>2026-04-12T13:34:24.672Z</time></trkpt><trkpt lat="44.9422404" lon="8.0434469"><ele>179.0</ele><time>2026-04-12T13:34:25.672Z</time></trkpt><trkpt lat="44.9423776" lon="8.043322"><ele>179.0</ele><time>2026-04-12T13:34:26.672Z</time></trkpt><trkpt lat="44.9425218" lon="8.0432005"><ele>178.33333333333331</ele><time>2026-04-12T13:34:27.672Z</time></trkpt><trkpt lat="44.9426668" lon="8.0430863"><ele>177.66666666666666</ele><time>2026-04-12T13:34:28.672Z</time></trkpt><trkpt lat="44.9428075" lon="8.0429681"><ele>177.0</ele><time>2026-04-12T13:34:29.672Z</time></trkpt><trkpt lat="44.9429412" lon="8.0428485"><ele>177.0</ele><time>2026-04-12T13:34:30.672Z</time></trkpt><trkpt lat="44.9430713" lon="8.042717"><ele>177.0</ele><time>2026-04-12T13:34:31.672Z</time></trkpt><trkpt lat="44.943214" lon="8.0426133"><ele>177.0</ele><time>2026-04-12T13:34:32.672Z</time></trkpt><trkpt lat="44.9433546" lon="8.0425085"><ele>178.33333333333334</ele><time>2026-04-12T13:34:33.672Z</time></trkpt><trkpt lat="44.9434913" lon="8.0424025"><ele>179.66666666666669</ele><time>2026-04-12T13:34:34.672Z</time></trkpt><trkpt lat="44.9436211" lon="8.042278"><ele>181.0</ele><time>2026-04-12T13:34:35.672Z</time></trkpt><trkpt lat="44.9437551" lon="8.0421449"><ele>181.0</ele><time>2026-04-12T13:34:36.671Z</time></trkpt><trkpt lat="44.9438869" lon="8.0420098"><ele>181.0</ele><time>2026-04-12T13:34:37.672Z</time></trkpt><trkpt lat="44.9440205" lon="8.0418713"><ele>181.0</ele><time>2026-04-12T13:34:38.672Z</time></trkpt><trkpt lat="44.9441563" lon="8.0417347"><ele>181.5</ele><time>2026-04-12T13:34:39.672Z</time></trkpt><trkpt lat="44.9442853" lon="8.0416076"><ele>182.0</ele><time>2026-04-12T13:34:40.672Z</time></trkpt><trkpt lat="44.9444012" lon="8.0414706"><ele>182.5</ele><time>2026-04-12T13:34:41.672Z</time></trkpt><trkpt lat="44.9445092" lon="8.0413584"><ele>183.0</ele><time>2026-04-12T13:34:42.672Z</time></trkpt><trkpt lat="44.944597" lon="8.0412601"><ele>183.0</ele><time>2026-04-12T13:34:43.672Z</time></trkpt><trkpt lat="44.9446811" lon="8.0411832"><ele>183.0</ele><time>2026-04-12T13:34:44.672Z</time></trkpt><trkpt lat="44.9447406" lon="8.0411229"><ele>183.0</ele><time>2026-04-12T13:34:45.672Z</time></trkpt><trkpt lat="44.9448094" lon="8.0410264"><ele>183.0</ele><time>2026-04-12T13:34:47.672Z</time></trkpt><trkpt lat="44.9448335" lon="8.0409377"><ele>183.0</ele><time>2026-04-12T13:34:48.672Z</time></trkpt><trkpt lat="44.9447728" lon="8.0407755"><ele>182.5</ele><time>2026-04-12T13:34:50.672Z</time></trkpt><trkpt lat="44.9447078" lon="8.0406681"><ele>182.0</ele><time>2026-04-12T13:34:51.672Z</time></trkpt><trkpt lat="44.9446447" lon="8.0405358"><ele>181.5</ele><time>2026-04-12T13:34:52.672Z</time></trkpt><trkpt lat="44.9445551" lon="8.0404059"><ele>181.0</ele><time>2026-04-12T13:34:53.672Z</time></trkpt><trkpt lat="44.9444697" lon="8.0402759"><ele>181.0</ele><time>2026-04-12T13:34:54.672Z</time></trkpt><trkpt lat="44.9443758" lon="8.0401635"><ele>181.0</ele><time>2026-04-12T13:34:55.672Z</time></trkpt><trkpt lat="44.9442817" lon="8.0400728"><ele>181.0</ele><time>2026-04-12T13:34:56.672Z</time></trkpt><trkpt lat="44.9441744" lon="8.0399902"><ele>181.0</ele><time>2026-04-12T13:34:57.671Z</time></trkpt><trkpt lat="44.9440465" lon="8.0399461"><ele>181.75</ele><time>2026-04-12T13:34:58.672Z</time></trkpt><trkpt lat="44.9439091" lon="8.0399406"><ele>182.5</ele><time>2026-04-12T13:34:59.672Z</time></trkpt><trkpt lat="44.9437654" lon="8.0399568"><ele>183.25</ele><time>2026-04-12T13:35:00.672Z</time></trkpt><trkpt lat="44.9436146" lon="8.0399814"><ele>184.0</ele><time>2026-04-12T13:35:01.672Z</time></trkpt><trkpt lat="44.9434579" lon="8.0400107"><ele>185.5</ele><time>2026-04-12T13:35:02.672Z</time></trkpt><trkpt lat="44.9433192" lon="8.0399972"><ele>187.0</ele><time>2026-04-12T13:35:03.672Z</time></trkpt><trkpt lat="44.9431709" lon="8.0399844"><ele>188.5</ele><time>2026-04-12T13:35:04.672Z</time></trkpt><trkpt lat="44.9430221" lon="8.039937"><ele>190.0</ele><time>2026-04-12T13:35:05.672Z</time></trkpt><trkpt lat="44.9428794" lon="8.0398617"><ele>195.0</ele><time>2026-04-12T13:35:06.671Z</time></trkpt><trkpt lat="44.9427378" lon="8.0397231"><ele>200.0</ele><time>2026-04-12T13:35:07.672Z</time></trkpt><trkpt lat="44.9426818" lon="8.0394622"><ele>205.0</ele><time>2026-04-12T13:35:08.672Z</time></trkpt><trkpt lat="44.9425933" lon="8.0392883"><ele>205.66666666666666</ele><time>2026-04-12T13:35:09.672Z</time></trkpt><trkpt lat="44.9425247" lon="8.039097"><ele>206.33333333333331</ele><time>2026-04-12T13:35:10.672Z</time></trkpt><trkpt lat="44.9424721" lon="8.0389041"><ele>207.0</ele><time>2026-04-12T13:35:11.672Z</time></trkpt><trkpt lat="44.9424268" lon="8.038658"><ele>207.0</ele><time>2026-04-12T13:35:12.672Z</time></trkpt><trkpt lat="44.942368" lon="8.0384974"><ele>207.0</ele><time>2026-04-12T13:35:13.672Z</time></trkpt><trkpt lat="44.9423177" lon="8.0383594"><ele>207.0</ele><time>2026-04-12T13:35:14.671Z</time></trkpt><trkpt lat="44.9422788" lon="8.0382078"><ele>207.0</ele><time>2026-04-12T13:35:15.672Z</time></trkpt><trkpt lat="44.9422417" lon="8.0380587"><ele>209.2</ele><time>2026-04-12T13:35:16.671Z</time></trkpt><trkpt lat="44.9422079" lon="8.0379094"><ele>211.39999999999998</ele><time>2026-04-12T13:35:17.672Z</time></trkpt><trkpt lat="44.9421706" lon="8.0378015"><ele>213.60000000000002</ele><time>2026-04-12T13:35:18.672Z</time></trkpt><trkpt lat="44.9421585" lon="8.0377056"><ele>215.8</ele><time>2026-04-12T13:35:19.672Z</time></trkpt><trkpt lat="44.9422138" lon="8.0375874"><ele>218.0</ele><time>2026-04-12T13:35:21.672Z</time></trkpt><trkpt lat="44.9423248" lon="8.0376476"><ele>218.0</ele><time>2026-04-12T13:35:23.672Z</time></trkpt><trkpt lat="44.9423823" lon="8.0377552"><ele>218.0</ele><time>2026-04-12T13:35:24.672Z</time></trkpt><trkpt lat="44.9424076" lon="8.0378883"><ele>218.0</ele><time>2026-04-12T13:35:25.671Z</time></trkpt><trkpt lat="44.9424443" lon="8.0380095"><ele>218.0</ele><time>2026-04-12T13:35:26.672Z</time></trkpt><trkpt lat="44.9424929" lon="8.0381289"><ele>218.0</ele><time>2026-04-12T13:35:27.671Z</time></trkpt><trkpt lat="44.9425661" lon="8.0382456"><ele>218.0</ele><time>2026-04-12T13:35:28.672Z</time></trkpt><trkpt lat="44.9426589" lon="8.0383414"><ele>218.0</ele><time>2026-04-12T13:35:29.672Z</time></trkpt><trkpt lat="44.9427788" lon="8.0383966"><ele>218.0</ele><time>2026-04-12T13:35:30.672Z</time></trkpt><trkpt lat="44.9429009" lon="8.0384204"><ele>218.0</ele><time>2026-04-12T13:35:31.672Z</time></trkpt><trkpt lat="44.9430257" lon="8.0384187"><ele>218.0</ele><time>2026-04-12T13:35:32.672Z</time></trkpt><trkpt lat="44.9431629" lon="8.0384249"><ele>218.0</ele><time>2026-04-12T13:35:33.672Z</time></trkpt><trkpt lat="44.943276" lon="8.0384428"><ele>218.0</ele><time>2026-04-12T13:35:34.672Z</time></trkpt><trkpt lat="44.9433681" lon="8.0384215"><ele>218.0</ele><time>2026-04-12T13:35:35.672Z</time></trkpt><trkpt lat="44.9434341" lon="8.0384193"><ele>218.0</ele><time>2026-04-12T13:35:36.672Z</time></trkpt><trkpt lat="44.9435034" lon="8.0383207"><ele>218.60000000000002</ele><time>2026-04-12T13:35:38.672Z</time></trkpt><trkpt lat="44.943436" lon="8.0381799"><ele>219.20000000000002</ele><time>2026-04-12T13:35:40.671Z</time></trkpt><trkpt lat="44.9433589" lon="8.0381218"><ele>219.8</ele><time>2026-04-12T13:35:41.672Z</time></trkpt><trkpt lat="44.9432618" lon="8.0380849"><ele>220.4</ele><time>2026-04-12T13:35:42.672Z</time></trkpt><trkpt lat="44.943153" lon="8.038053"><ele>221.0</ele><time>2026-04-12T13:35:43.671Z</time></trkpt><trkpt lat="44.9430478" lon="8.0380065"><ele>223.0</ele><time>2026-04-12T13:35:44.672Z</time></trkpt><trkpt lat="44.942946" lon="8.0379409"><ele>225.00000000000003</ele><time>2026-04-12T13:35:45.672Z</time></trkpt><trkpt lat="44.9428557" lon="8.0378778"><ele>227.00000000000003</ele><time>2026-04-12T13:35:46.672Z</time></trkpt><trkpt lat="44.942775" lon="8.0377911"><ele>229.0</ele><time>2026-04-12T13:35:47.672Z</time></trkpt><trkpt lat="44.9427357" lon="8.0376906"><ele>231.0</ele><time>2026-04-12T13:35:48.671Z</time></trkpt><trkpt lat="44.9427893" lon="8.0374903"><ele>234.0</ele><time>2026-04-12T13:35:49.672Z</time></trkpt><trkpt lat="44.9428278" lon="8.0373021"><ele>237.0</ele><time>2026-04-12T13:35:50.672Z</time></trkpt><trkpt lat="44.9428684" lon="8.0371089"><ele>240.0</ele><time>2026-04-12T13:35:51.672Z</time></trkpt><trkpt lat="44.9428807" lon="8.0369433"><ele>243.0</ele><time>2026-04-12T13:35:52.672Z</time></trkpt><trkpt lat="44.9428803" lon="8.0367581"><ele>245.33333333333331</ele><time>2026-04-12T13:35:53.672Z</time></trkpt><trkpt lat="44.9428448" lon="8.0365474"><ele>247.66666666666666</ele><time>2026-04-12T13:35:54.672Z</time></trkpt><trkpt lat="44.9428231" lon="8.0363558"><ele>250.0</ele><time>2026-04-12T13:35:55.672Z</time></trkpt><trkpt lat="44.9427219" lon="8.0361311"><ele>250.0</ele><time>2026-04-12T13:35:56.671Z</time></trkpt><trkpt lat="44.9426525" lon="8.0359327"><ele>250.0</ele><time>2026-04-12T13:35:57.672Z</time></trkpt><trkpt lat="44.9425784" lon="8.0357242"><ele>250.0</ele><time>2026-04-12T13:35:58.672Z</time></trkpt><trkpt lat="44.942499" lon="8.0355318"><ele>248.75</ele><time>2026-04-12T13:35:59.672Z</time></trkpt><trkpt lat="44.9424236" lon="8.0353566"><ele>247.5</ele><time>2026-04-12T13:36:00.672Z</time></trkpt><trkpt lat="44.9423232" lon="8.0351852"><ele>246.25</ele><time>2026-04-12T13:36:01.672Z</time></trkpt><trkpt lat="44.9422447" lon="8.0350308"><ele>245.0</ele><time>2026-04-12T13:36:02.672Z</time></trkpt><trkpt lat="44.9421664" lon="8.0348983"><ele>245.0</ele><time>2026-04-12T13:36:03.672Z</time></trkpt><trkpt lat="44.9420987" lon="8.0347728"><ele>245.0</ele><time>2026-04-12T13:36:04.672Z</time></trkpt><trkpt lat="44.9420374" lon="8.0346614"><ele>245.0</ele><time>2026-04-12T13:36:05.672Z</time></trkpt><trkpt lat="44.9419953" lon="8.0345357"><ele>245.0</ele><time>2026-04-12T13:36:07.672Z</time></trkpt><trkpt lat="44.9420068" lon="8.0343934"><ele>245.0</ele><time>2026-04-12T13:36:09.672Z</time></trkpt><trkpt lat="44.9420793" lon="8.0343878"><ele>245.0</ele><time>2026-04-12T13:36:10.672Z</time></trkpt><trkpt lat="44.9421735" lon="8.0343674"><ele>245.0</ele><time>2026-04-12T13:36:11.672Z</time></trkpt><trkpt lat="44.9422689" lon="8.0343585"><ele>245.0</ele><time>2026-04-12T13:36:12.672Z</time></trkpt><trkpt lat="44.9423764" lon="8.0343237"><ele>245.0</ele><time>2026-04-12T13:36:13.672Z</time></trkpt><trkpt lat="44.9424933" lon="8.0343062"><ele>245.0</ele><time>2026-04-12T13:36:14.672Z</time></trkpt><trkpt lat="44.9426213" lon="8.0342616"><ele>246.5</ele><time>2026-04-12T13:36:15.672Z</time></trkpt><trkpt lat="44.9427514" lon="8.0342464"><ele>248.0</ele><time>2026-04-12T13:36:16.672Z</time></trkpt><trkpt lat="44.9428902" lon="8.0342176"><ele>249.5</ele><time>2026-04-12T13:36:17.672Z</time></trkpt><trkpt lat="44.9430243" lon="8.0341833"><ele>251.0</ele><time>2026-04-12T13:36:18.672Z</time></trkpt><trkpt lat="44.943158" lon="8.0341433"><ele>248.75</ele><time>2026-04-12T13:36:19.672Z</time></trkpt><trkpt lat="44.9432829" lon="8.0341038"><ele>246.5</ele><time>2026-04-12T13:36:20.672Z</time></trkpt><trkpt lat="44.9434087" lon="8.0340657"><ele>244.25</ele><time>2026-04-12T13:36:21.672Z</time></trkpt><trkpt lat="44.9435261" lon="8.0340349"><ele>242.0</ele><time>2026-04-12T13:36:22.672Z</time></trkpt><trkpt lat="44.9436383" lon="8.0340124"><ele>242.00000000000003</ele><time>2026-04-12T13:36:23.672Z</time></trkpt><trkpt lat="44.9437242" lon="8.0339478"><ele>242.0</ele><time>2026-04-12T13:36:24.671Z</time></trkpt><trkpt lat="44.9438208" lon="8.0339433"><ele>242.0</ele><time>2026-04-12T13:36:25.672Z</time></trkpt><trkpt lat="44.9438978" lon="8.0339583"><ele>242.0</ele><time>2026-04-12T13:36:26.672Z</time></trkpt><trkpt lat="44.9439806" lon="8.033977"><ele>242.00000000000003</ele><time>2026-04-12T13:36:27.672Z</time></trkpt><trkpt lat="44.9440601" lon="8.0340028"><ele>242.0</ele><time>2026-04-12T13:36:28.672Z</time></trkpt><trkpt lat="44.9441494" lon="8.0340348"><ele>242.83333333333334</ele><time>2026-04-12T13:36:29.672Z</time></trkpt><trkpt lat="44.9442433" lon="8.0340703"><ele>243.66666666666669</ele><time>2026-04-12T13:36:30.672Z</time></trkpt><trkpt lat="44.9443237" lon="8.0341055"><ele>244.5</ele><time>2026-04-12T13:36:31.672Z</time></trkpt><trkpt lat="44.94441" lon="8.0341537"><ele>245.33333333333331</ele><time>2026-04-12T13:36:32.672Z</time></trkpt><trkpt lat="44.9445031" lon="8.0342043"><ele>246.16666666666666</ele><time>2026-04-12T13:36:33.672Z</time></trkpt><trkpt lat="44.9445591" lon="8.0342677"><ele>247.0</ele><time>2026-04-12T13:36:34.672Z</time></trkpt><trkpt lat="44.9446503" lon="8.0342074"><ele>247.0</ele><time>2026-04-12T13:36:35.672Z</time></trkpt><trkpt lat="44.9447199" lon="8.0341631"><ele>247.0</ele><time>2026-04-12T13:36:36.672Z</time></trkpt><trkpt lat="44.9447959" lon="8.0341371"><ele>247.0</ele><time>2026-04-12T13:36:37.672Z</time></trkpt><trkpt lat="44.9448851" lon="8.0340412"><ele>247.0</ele><time>2026-04-12T13:36:38.672Z</time></trkpt><trkpt lat="44.9449655" lon="8.0339564"><ele>247.0</ele><time>2026-04-12T13:36:39.672Z</time></trkpt><trkpt lat="44.9450323" lon="8.0338779"><ele>245.75</ele><time>2026-04-12T13:36:40.672Z</time></trkpt><trkpt lat="44.9451115" lon="8.0337485"><ele>244.5</ele><time>2026-04-12T13:36:41.672Z</time></trkpt><trkpt lat="44.9451967" lon="8.0336427"><ele>243.25</ele><time>2026-04-12T13:36:42.672Z</time></trkpt><trkpt lat="44.9452892" lon="8.0335253"><ele>242.0</ele><time>2026-04-12T13:36:43.672Z</time></trkpt><trkpt lat="44.9453832" lon="8.0334282"><ele>242.0</ele><time>2026-04-12T13:36:44.672Z</time></trkpt><trkpt lat="44.9454616" lon="8.0333449"><ele>242.0</ele><time>2026-04-12T13:36:45.672Z</time></trkpt><trkpt lat="44.9455472" lon="8.0332772"><ele>242.0</ele><time>2026-04-12T13:36:46.672Z</time></trkpt><trkpt lat="44.9456614" lon="8.033252"><ele>242.0</ele><time>2026-04-12T13:36:47.672Z</time></trkpt><trkpt lat="44.945789" lon="8.0332055"><ele>242.0</ele><time>2026-04-12T13:36:48.672Z</time></trkpt><trkpt lat="44.9459076" lon="8.0331853"><ele>243.5</ele><time>2026-04-12T13:36:49.672Z</time></trkpt><trkpt lat="44.946019" lon="8.0331619"><ele>245.0</ele><time>2026-04-12T13:36:50.672Z</time></trkpt><trkpt lat="44.946136" lon="8.0331481"><ele>246.5</ele><time>2026-04-12T13:36:51.672Z</time></trkpt><trkpt lat="44.9462651" lon="8.0331344"><ele>248.0</ele><time>2026-04-12T13:36:52.672Z</time></trkpt><trkpt lat="44.9463939" lon="8.0331329"><ele>248.0</ele><time>2026-04-12T13:36:53.672Z</time></trkpt><trkpt lat="44.9464912" lon="8.0331161"><ele>248.0</ele><time>2026-04-12T13:36:54.672Z</time></trkpt><trkpt lat="44.9465967" lon="8.0331006"><ele>248.0</ele><time>2026-04-12T13:36:55.672Z</time></trkpt><trkpt lat="44.9466891" lon="8.0330716"><ele>248.0</ele><time>2026-04-12T13:36:56.672Z</time></trkpt><trkpt lat="44.9467765" lon="8.0330109"><ele>248.0</ele><time>2026-04-12T13:36:57.672Z</time></trkpt><trkpt lat="44.9468426" lon="8.0329153"><ele>244.75</ele><time>2026-04-12T13:36:58.672Z</time></trkpt><trkpt lat="44.9468963" lon="8.0327679"><ele>241.5</ele><time>2026-04-12T13:36:59.672Z</time></trkpt><trkpt lat="44.9469431" lon="8.0325791"><ele>238.25</ele><time>2026-04-12T13:37:00.672Z</time></trkpt><trkpt lat="44.9469845" lon="8.0323881"><ele>235.0</ele><time>2026-04-12T13:37:01.672Z</time></trkpt><trkpt lat="44.947031" lon="8.032181"><ele>235.0</ele><time>2026-04-12T13:37:02.672Z</time></trkpt><trkpt lat="44.9470813" lon="8.0319824"><ele>235.0</ele><time>2026-04-12T13:37:03.672Z</time></trkpt><trkpt lat="44.9471139" lon="8.0317713"><ele>235.0</ele><time>2026-04-12T13:37:04.672Z</time></trkpt><trkpt lat="44.9471528" lon="8.0315738"><ele>235.0</ele><time>2026-04-12T13:37:05.672Z</time></trkpt><trkpt lat="44.9471598" lon="8.0313763"><ele>237.5</ele><time>2026-04-12T13:37:06.672Z</time></trkpt><trkpt lat="44.9471513" lon="8.0311579"><ele>240.0</ele><time>2026-04-12T13:37:07.672Z</time></trkpt><trkpt lat="44.9471359" lon="8.0309537"><ele>242.5</ele><time>2026-04-12T13:37:08.672Z</time></trkpt><trkpt lat="44.9471238" lon="8.0307535"><ele>245.0</ele><time>2026-04-12T13:37:09.672Z</time></trkpt><trkpt lat="44.9471035" lon="8.0305352"><ele>246.66666666666669</ele><time>2026-04-12T13:37:10.672Z</time></trkpt><trkpt lat="44.9470834" lon="8.030328"><ele>248.33333333333331</ele><time>2026-04-12T13:37:11.672Z</time></trkpt><trkpt lat="44.947067" lon="8.0301201"><ele>250.0</ele><time>2026-04-12T13:37:12.672Z</time></trkpt><trkpt lat="44.9470373" lon="8.0299041"><ele>250.66666666666666</ele><time>2026-04-12T13:37:13.672Z</time></trkpt><trkpt lat="44.9469961" lon="8.0296827"><ele>251.33333333333331</ele><time>2026-04-12T13:37:14.671Z</time></trkpt><trkpt lat="44.9469531" lon="8.0294838"><ele>252.0</ele><time>2026-04-12T13:37:15.671Z</time></trkpt><trkpt lat="44.9469008" lon="8.0292723"><ele>252.0</ele><time>2026-04-12T13:37:16.672Z</time></trkpt><trkpt lat="44.9468354" lon="8.029102"><ele>252.0</ele><time>2026-04-12T13:37:17.672Z</time></trkpt><trkpt lat="44.9467738" lon="8.02895"><ele>252.0</ele><time>2026-04-12T13:37:18.672Z</time></trkpt><trkpt lat="44.946715" lon="8.0288247"><ele>252.0</ele><time>2026-04-12T13:37:19.672Z</time></trkpt><trkpt lat="44.9466622" lon="8.0287118"><ele>249.39999999999998</ele><time>2026-04-12T13:37:20.672Z</time></trkpt><trkpt lat="44.9466343" lon="8.0285745"><ele>246.79999999999998</ele><time>2026-04-12T13:37:21.672Z</time></trkpt><trkpt lat="44.9466251" lon="8.0284491"><ele>244.2</ele><time>2026-04-12T13:37:22.672Z</time></trkpt><trkpt lat="44.9466736" lon="8.0283464"><ele>241.6</ele><time>2026-04-12T13:37:23.672Z</time></trkpt><trkpt lat="44.9467466" lon="8.0282525"><ele>239.0</ele><time>2026-04-12T13:37:24.672Z</time></trkpt><trkpt lat="44.9468501" lon="8.0281612"><ele>238.5</ele><time>2026-04-12T13:37:25.671Z</time></trkpt><trkpt lat="44.9469626" lon="8.0280801"><ele>238.0</ele><time>2026-04-12T13:37:26.671Z</time></trkpt><trkpt lat="44.9470894" lon="8.0280025"><ele>237.5</ele><time>2026-04-12T13:37:27.672Z</time></trkpt><trkpt lat="44.9472326" lon="8.0279229"><ele>237.0</ele><time>2026-04-12T13:37:28.672Z</time></trkpt><trkpt lat="44.9473714" lon="8.0278216"><ele>237.0</ele><time>2026-04-12T13:37:29.672Z</time></trkpt><trkpt lat="44.9475175" lon="8.0277179"><ele>237.0</ele><time>2026-04-12T13:37:30.672Z</time></trkpt><trkpt lat="44.9476638" lon="8.0276208"><ele>237.0</ele><time>2026-04-12T13:37:31.672Z</time></trkpt><trkpt lat="44.947804" lon="8.0275275"><ele>239.0</ele><time>2026-04-12T13:37:32.672Z</time></trkpt><trkpt lat="44.9479429" lon="8.027438"><ele>241.0</ele><time>2026-04-12T13:37:33.672Z</time></trkpt><trkpt lat="44.9480747" lon="8.0273552"><ele>243.0</ele><time>2026-04-12T13:37:34.672Z</time></trkpt><trkpt lat="44.9482045" lon="8.0272745"><ele>245.0</ele><time>2026-04-12T13:37:35.672Z</time></trkpt><trkpt lat="44.9483191" lon="8.0272078"><ele>246.0</ele><time>2026-04-12T13:37:36.672Z</time></trkpt><trkpt lat="44.9484341" lon="8.0271704"><ele>247.0</ele><time>2026-04-12T13:37:37.672Z</time></trkpt><trkpt lat="44.9485544" lon="8.0271573"><ele>248.0</ele><time>2026-04-12T13:37:38.672Z</time></trkpt><trkpt lat="44.9486481" lon="8.0271832"><ele>249.0</ele><time>2026-04-12T13:37:39.672Z</time></trkpt><trkpt lat="44.9487551" lon="8.0272291"><ele>250.0</ele><time>2026-04-12T13:37:40.672Z</time></trkpt><trkpt lat="44.9488523" lon="8.0272837"><ele>250.0</ele><time>2026-04-12T13:37:41.672Z</time></trkpt><trkpt lat="44.9489483" lon="8.0273341"><ele>250.0</ele><time>2026-04-12T13:37:42.672Z</time></trkpt><trkpt lat="44.9490456" lon="8.0273905"><ele>250.0</ele><time>2026-04-12T13:37:43.672Z</time></trkpt><trkpt lat="44.949149" lon="8.0274304"><ele>250.0</ele><time>2026-04-12T13:37:44.672Z</time></trkpt><trkpt lat="44.9492783" lon="8.0274368"><ele>250.0</ele><time>2026-04-12T13:37:45.672Z</time></trkpt><trkpt lat="44.9493957" lon="8.027438"><ele>248.0</ele><time>2026-04-12T13:37:46.672Z</time></trkpt><trkpt lat="44.949512" lon="8.0274226"><ele>246.0</ele><time>2026-04-12T13:37:47.671Z</time></trkpt><trkpt lat="44.9496187" lon="8.0274079"><ele>244.0</ele><time>2026-04-12T13:37:48.672Z</time></trkpt><trkpt lat="44.9497208" lon="8.0273887"><ele>242.0</ele><time>2026-04-12T13:37:49.671Z</time></trkpt><trkpt lat="44.9498115" lon="8.0273806"><ele>240.0</ele><time>2026-04-12T13:37:50.672Z</time></trkpt><trkpt lat="44.9498881" lon="8.027373"><ele>240.0</ele><time>2026-04-12T13:37:51.672Z</time></trkpt><trkpt lat="44.9499669" lon="8.0273757"><ele>240.0</ele><time>2026-04-12T13:37:52.672Z</time></trkpt><trkpt lat="44.95005" lon="8.0273677"><ele>240.0</ele><time>2026-04-12T13:37:53.671Z</time></trkpt><trkpt lat="44.950156" lon="8.0273616"><ele>240.0</ele><time>2026-04-12T13:37:55.672Z</time></trkpt><trkpt lat="44.9502357" lon="8.0273232"><ele>240.0</ele><time>2026-04-12T13:37:57.672Z</time></trkpt><trkpt lat="44.9502583" lon="8.0272367"><ele>240.0</ele><time>2026-04-12T13:37:59.672Z</time></trkpt><trkpt lat="44.9502571" lon="8.027147"><ele>244.0</ele><time>2026-04-12T13:38:01.672Z</time></trkpt><trkpt lat="44.950236" lon="8.0270212"><ele>244.0</ele><time>2026-04-12T13:38:04.672Z</time></trkpt><trkpt lat="44.9502349" lon="8.0269034"><ele>244.0</ele><time>2026-04-12T13:38:07.672Z</time></trkpt><trkpt lat="44.9502298" lon="8.026806"><ele>244.0</ele><time>2026-04-12T13:38:10.672Z</time></trkpt><trkpt lat="44.9501857" lon="8.0267274"><ele>244.0</ele><time>2026-04-12T13:38:18.672Z</time></trkpt><trkpt lat="44.9501322" lon="8.0267799"><ele>244.0</ele><time>2026-04-12T13:38:32.664Z</time></trkpt><trkpt lat="44.9501168" lon="8.0268748"><ele>244.0</ele><time>2026-04-12T13:38:36.664Z</time></trkpt></trkseg></trk></gpx>